<?xml version="1.0" encoding="UTF-8" standalone="no" ?>
<gpx xmlns="http://www.topografix.com/GPX/1/1" xmlns:xsi="http://www.w3.org/2001/XMLSchema-instance" xsi:schemaLocation="http://www.topografix.com/GPX/1/1 http://www.topografix.com/GPX/1/1/gpx.xsd" version="1.1" creator="VisuGPX - https://www.visugpx.com">
  <metadata>
    <name>Massat/col de Dret/col de Sarraille/Massat</name>
  </metadata>
  <trk>
    <name><![CDATA[Trace 1758963463000]]></name>
    <trkseg>
      <trkpt lat="42.8881" lon="1.34731">
        <ele>700</ele>
        <time>2025-09-27T08:57:43.000Z</time>
      </trkpt>
      <trkpt lat="42.88806" lon="1.34734">
        <ele>707</ele>
        <time>2025-09-27T09:06:57.000Z</time>
      </trkpt>
      <trkpt lat="42.88805" lon="1.34734">
        <ele>707</ele>
        <time>2025-09-27T09:06:58.000Z</time>
      </trkpt>
      <trkpt lat="42.88805" lon="1.34735">
        <ele>707</ele>
        <time>2025-09-27T09:06:59.000Z</time>
      </trkpt>
      <trkpt lat="42.88798" lon="1.34738">
        <ele>707</ele>
        <time>2025-09-27T09:09:10.000Z</time>
      </trkpt>
      <trkpt lat="42.88797" lon="1.34739">
        <ele>706</ele>
        <time>2025-09-27T09:09:11.000Z</time>
      </trkpt>
      <trkpt lat="42.88795" lon="1.3474">
        <ele>706</ele>
        <time>2025-09-27T09:09:12.000Z</time>
      </trkpt>
      <trkpt lat="42.88794" lon="1.34742">
        <ele>707</ele>
        <time>2025-09-27T09:09:13.000Z</time>
      </trkpt>
      <trkpt lat="42.88793" lon="1.34743">
        <ele>707</ele>
        <time>2025-09-27T09:09:14.000Z</time>
      </trkpt>
      <trkpt lat="42.88791" lon="1.34744">
        <ele>707</ele>
        <time>2025-09-27T09:09:15.000Z</time>
      </trkpt>
      <trkpt lat="42.8879" lon="1.34746">
        <ele>707</ele>
        <time>2025-09-27T09:09:16.000Z</time>
      </trkpt>
      <trkpt lat="42.88789" lon="1.34747">
        <ele>707</ele>
        <time>2025-09-27T09:09:17.000Z</time>
      </trkpt>
      <trkpt lat="42.88787" lon="1.34748">
        <ele>707</ele>
        <time>2025-09-27T09:09:18.000Z</time>
      </trkpt>
      <trkpt lat="42.88785" lon="1.3475">
        <ele>707</ele>
        <time>2025-09-27T09:09:19.000Z</time>
      </trkpt>
      <trkpt lat="42.88784" lon="1.34752">
        <ele>708</ele>
        <time>2025-09-27T09:09:20.000Z</time>
      </trkpt>
      <trkpt lat="42.88783" lon="1.34753">
        <ele>708</ele>
        <time>2025-09-27T09:09:21.000Z</time>
      </trkpt>
      <trkpt lat="42.88781" lon="1.34755">
        <ele>708</ele>
        <time>2025-09-27T09:09:22.000Z</time>
      </trkpt>
      <trkpt lat="42.88778" lon="1.34758">
        <ele>709</ele>
        <time>2025-09-27T09:09:23.000Z</time>
      </trkpt>
      <trkpt lat="42.88777" lon="1.3476">
        <ele>709</ele>
        <time>2025-09-27T09:09:24.000Z</time>
      </trkpt>
      <trkpt lat="42.88776" lon="1.34762">
        <ele>709</ele>
        <time>2025-09-27T09:09:25.000Z</time>
      </trkpt>
      <trkpt lat="42.88775" lon="1.34764">
        <ele>709</ele>
        <time>2025-09-27T09:09:26.000Z</time>
      </trkpt>
      <trkpt lat="42.88773" lon="1.34766">
        <ele>709</ele>
        <time>2025-09-27T09:09:27.000Z</time>
      </trkpt>
      <trkpt lat="42.88772" lon="1.34768">
        <ele>708</ele>
        <time>2025-09-27T09:09:28.000Z</time>
      </trkpt>
      <trkpt lat="42.88771" lon="1.34771">
        <ele>709</ele>
        <time>2025-09-27T09:09:29.000Z</time>
      </trkpt>
      <trkpt lat="42.8877" lon="1.34773">
        <ele>708</ele>
        <time>2025-09-27T09:09:30.000Z</time>
      </trkpt>
      <trkpt lat="42.88769" lon="1.34775">
        <ele>708</ele>
        <time>2025-09-27T09:09:31.000Z</time>
      </trkpt>
      <trkpt lat="42.88768" lon="1.34778">
        <ele>707</ele>
        <time>2025-09-27T09:09:32.000Z</time>
      </trkpt>
      <trkpt lat="42.88767" lon="1.3478">
        <ele>706</ele>
        <time>2025-09-27T09:09:33.000Z</time>
      </trkpt>
      <trkpt lat="42.88767" lon="1.34782">
        <ele>706</ele>
        <time>2025-09-27T09:09:34.000Z</time>
      </trkpt>
      <trkpt lat="42.88767" lon="1.34784">
        <ele>707</ele>
        <time>2025-09-27T09:09:35.000Z</time>
      </trkpt>
      <trkpt lat="42.88768" lon="1.34787">
        <ele>707</ele>
        <time>2025-09-27T09:09:36.000Z</time>
      </trkpt>
      <trkpt lat="42.88769" lon="1.34789">
        <ele>707</ele>
        <time>2025-09-27T09:09:37.000Z</time>
      </trkpt>
      <trkpt lat="42.88771" lon="1.34792">
        <ele>707</ele>
        <time>2025-09-27T09:09:38.000Z</time>
      </trkpt>
      <trkpt lat="42.88772" lon="1.34794">
        <ele>707</ele>
        <time>2025-09-27T09:09:39.000Z</time>
      </trkpt>
      <trkpt lat="42.88772" lon="1.34796">
        <ele>708</ele>
        <time>2025-09-27T09:09:40.000Z</time>
      </trkpt>
      <trkpt lat="42.88773" lon="1.34797">
        <ele>707</ele>
        <time>2025-09-27T09:09:41.000Z</time>
      </trkpt>
      <trkpt lat="42.88773" lon="1.348">
        <ele>706</ele>
        <time>2025-09-27T09:09:42.000Z</time>
      </trkpt>
      <trkpt lat="42.88772" lon="1.34803">
        <ele>706</ele>
        <time>2025-09-27T09:09:43.000Z</time>
      </trkpt>
      <trkpt lat="42.88771" lon="1.34805">
        <ele>707</ele>
        <time>2025-09-27T09:09:44.000Z</time>
      </trkpt>
      <trkpt lat="42.88771" lon="1.34807">
        <ele>707</ele>
        <time>2025-09-27T09:09:45.000Z</time>
      </trkpt>
      <trkpt lat="42.8877" lon="1.34809">
        <ele>706</ele>
        <time>2025-09-27T09:09:46.000Z</time>
      </trkpt>
      <trkpt lat="42.88769" lon="1.34811">
        <ele>707</ele>
        <time>2025-09-27T09:09:47.000Z</time>
      </trkpt>
      <trkpt lat="42.88768" lon="1.34814">
        <ele>707</ele>
        <time>2025-09-27T09:09:48.000Z</time>
      </trkpt>
      <trkpt lat="42.88768" lon="1.34817">
        <ele>707</ele>
        <time>2025-09-27T09:09:49.000Z</time>
      </trkpt>
      <trkpt lat="42.88767" lon="1.3482">
        <ele>706</ele>
        <time>2025-09-27T09:09:50.000Z</time>
      </trkpt>
      <trkpt lat="42.88765" lon="1.34822">
        <ele>707</ele>
        <time>2025-09-27T09:09:51.000Z</time>
      </trkpt>
      <trkpt lat="42.88764" lon="1.34825">
        <ele>707</ele>
        <time>2025-09-27T09:09:52.000Z</time>
      </trkpt>
      <trkpt lat="42.88764" lon="1.34828">
        <ele>708</ele>
        <time>2025-09-27T09:09:53.000Z</time>
      </trkpt>
      <trkpt lat="42.88764" lon="1.34831">
        <ele>708</ele>
        <time>2025-09-27T09:09:54.000Z</time>
      </trkpt>
      <trkpt lat="42.88764" lon="1.34834">
        <ele>708</ele>
        <time>2025-09-27T09:09:55.000Z</time>
      </trkpt>
      <trkpt lat="42.88763" lon="1.34838">
        <ele>708</ele>
        <time>2025-09-27T09:09:56.000Z</time>
      </trkpt>
      <trkpt lat="42.88762" lon="1.34841">
        <ele>708</ele>
        <time>2025-09-27T09:09:57.000Z</time>
      </trkpt>
      <trkpt lat="42.88761" lon="1.34844">
        <ele>708</ele>
        <time>2025-09-27T09:09:58.000Z</time>
      </trkpt>
      <trkpt lat="42.8876" lon="1.34847">
        <ele>708</ele>
        <time>2025-09-27T09:09:59.000Z</time>
      </trkpt>
      <trkpt lat="42.88759" lon="1.34849">
        <ele>708</ele>
        <time>2025-09-27T09:10:00.000Z</time>
      </trkpt>
      <trkpt lat="42.88759" lon="1.34851">
        <ele>707</ele>
        <time>2025-09-27T09:10:01.000Z</time>
      </trkpt>
      <trkpt lat="42.88758" lon="1.34854">
        <ele>707</ele>
        <time>2025-09-27T09:10:02.000Z</time>
      </trkpt>
      <trkpt lat="42.88757" lon="1.34857">
        <ele>707</ele>
        <time>2025-09-27T09:10:03.000Z</time>
      </trkpt>
      <trkpt lat="42.88756" lon="1.3486">
        <ele>707</ele>
        <time>2025-09-27T09:10:04.000Z</time>
      </trkpt>
      <trkpt lat="42.88755" lon="1.34863">
        <ele>707</ele>
        <time>2025-09-27T09:10:05.000Z</time>
      </trkpt>
      <trkpt lat="42.88754" lon="1.34865">
        <ele>707</ele>
        <time>2025-09-27T09:10:06.000Z</time>
      </trkpt>
      <trkpt lat="42.88753" lon="1.34869">
        <ele>708</ele>
        <time>2025-09-27T09:10:07.000Z</time>
      </trkpt>
      <trkpt lat="42.88752" lon="1.34872">
        <ele>707</ele>
        <time>2025-09-27T09:10:08.000Z</time>
      </trkpt>
      <trkpt lat="42.8875" lon="1.34875">
        <ele>707</ele>
        <time>2025-09-27T09:10:09.000Z</time>
      </trkpt>
      <trkpt lat="42.88749" lon="1.34878">
        <ele>707</ele>
        <time>2025-09-27T09:10:10.000Z</time>
      </trkpt>
      <trkpt lat="42.88748" lon="1.34881">
        <ele>707</ele>
        <time>2025-09-27T09:10:11.000Z</time>
      </trkpt>
      <trkpt lat="42.88748" lon="1.34885">
        <ele>707</ele>
        <time>2025-09-27T09:10:12.000Z</time>
      </trkpt>
      <trkpt lat="42.88747" lon="1.34889">
        <ele>706</ele>
        <time>2025-09-27T09:10:13.000Z</time>
      </trkpt>
      <trkpt lat="42.88746" lon="1.34893">
        <ele>707</ele>
        <time>2025-09-27T09:10:14.000Z</time>
      </trkpt>
      <trkpt lat="42.88745" lon="1.34897">
        <ele>707</ele>
        <time>2025-09-27T09:10:15.000Z</time>
      </trkpt>
      <trkpt lat="42.88744" lon="1.349">
        <ele>707</ele>
        <time>2025-09-27T09:10:16.000Z</time>
      </trkpt>
      <trkpt lat="42.88743" lon="1.34904">
        <ele>708</ele>
        <time>2025-09-27T09:10:17.000Z</time>
      </trkpt>
      <trkpt lat="42.88742" lon="1.34907">
        <ele>707</ele>
        <time>2025-09-27T09:10:18.000Z</time>
      </trkpt>
      <trkpt lat="42.88741" lon="1.3491">
        <ele>708</ele>
        <time>2025-09-27T09:10:19.000Z</time>
      </trkpt>
      <trkpt lat="42.8874" lon="1.34913">
        <ele>707</ele>
        <time>2025-09-27T09:10:20.000Z</time>
      </trkpt>
      <trkpt lat="42.88739" lon="1.34916">
        <ele>707</ele>
        <time>2025-09-27T09:10:21.000Z</time>
      </trkpt>
      <trkpt lat="42.88739" lon="1.34919">
        <ele>707</ele>
        <time>2025-09-27T09:10:22.000Z</time>
      </trkpt>
      <trkpt lat="42.88737" lon="1.34923">
        <ele>707</ele>
        <time>2025-09-27T09:10:23.000Z</time>
      </trkpt>
      <trkpt lat="42.88736" lon="1.34926">
        <ele>708</ele>
        <time>2025-09-27T09:10:24.000Z</time>
      </trkpt>
      <trkpt lat="42.88735" lon="1.34929">
        <ele>708</ele>
        <time>2025-09-27T09:10:25.000Z</time>
      </trkpt>
      <trkpt lat="42.88733" lon="1.34932">
        <ele>708</ele>
        <time>2025-09-27T09:10:26.000Z</time>
      </trkpt>
      <trkpt lat="42.88732" lon="1.34935">
        <ele>708</ele>
        <time>2025-09-27T09:10:27.000Z</time>
      </trkpt>
      <trkpt lat="42.8873" lon="1.34939">
        <ele>708</ele>
        <time>2025-09-27T09:10:28.000Z</time>
      </trkpt>
      <trkpt lat="42.88729" lon="1.34943">
        <ele>708</ele>
        <time>2025-09-27T09:10:29.000Z</time>
      </trkpt>
      <trkpt lat="42.88728" lon="1.34946">
        <ele>709</ele>
        <time>2025-09-27T09:10:30.000Z</time>
      </trkpt>
      <trkpt lat="42.88727" lon="1.34949">
        <ele>710</ele>
        <time>2025-09-27T09:10:31.000Z</time>
      </trkpt>
      <trkpt lat="42.88725" lon="1.34952">
        <ele>709</ele>
        <time>2025-09-27T09:10:32.000Z</time>
      </trkpt>
      <trkpt lat="42.88724" lon="1.34956">
        <ele>709</ele>
        <time>2025-09-27T09:10:33.000Z</time>
      </trkpt>
      <trkpt lat="42.88722" lon="1.34958">
        <ele>709</ele>
        <time>2025-09-27T09:10:34.000Z</time>
      </trkpt>
      <trkpt lat="42.88721" lon="1.34962">
        <ele>709</ele>
        <time>2025-09-27T09:10:35.000Z</time>
      </trkpt>
      <trkpt lat="42.88719" lon="1.34965">
        <ele>709</ele>
        <time>2025-09-27T09:10:36.000Z</time>
      </trkpt>
      <trkpt lat="42.88718" lon="1.34968">
        <ele>710</ele>
        <time>2025-09-27T09:10:37.000Z</time>
      </trkpt>
      <trkpt lat="42.88716" lon="1.34972">
        <ele>710</ele>
        <time>2025-09-27T09:10:38.000Z</time>
      </trkpt>
      <trkpt lat="42.88715" lon="1.34975">
        <ele>710</ele>
        <time>2025-09-27T09:10:39.000Z</time>
      </trkpt>
      <trkpt lat="42.88713" lon="1.34977">
        <ele>711</ele>
        <time>2025-09-27T09:10:40.000Z</time>
      </trkpt>
      <trkpt lat="42.88712" lon="1.3498">
        <ele>710</ele>
        <time>2025-09-27T09:10:41.000Z</time>
      </trkpt>
      <trkpt lat="42.8871" lon="1.34982">
        <ele>710</ele>
        <time>2025-09-27T09:10:42.000Z</time>
      </trkpt>
      <trkpt lat="42.88708" lon="1.34986">
        <ele>710</ele>
        <time>2025-09-27T09:10:43.000Z</time>
      </trkpt>
      <trkpt lat="42.88706" lon="1.34989">
        <ele>710</ele>
        <time>2025-09-27T09:10:44.000Z</time>
      </trkpt>
      <trkpt lat="42.88704" lon="1.34992">
        <ele>710</ele>
        <time>2025-09-27T09:10:45.000Z</time>
      </trkpt>
      <trkpt lat="42.88702" lon="1.34995">
        <ele>709</ele>
        <time>2025-09-27T09:10:46.000Z</time>
      </trkpt>
      <trkpt lat="42.887" lon="1.34998">
        <ele>709</ele>
        <time>2025-09-27T09:10:47.000Z</time>
      </trkpt>
      <trkpt lat="42.88699" lon="1.35001">
        <ele>708</ele>
        <time>2025-09-27T09:10:48.000Z</time>
      </trkpt>
      <trkpt lat="42.88697" lon="1.35004">
        <ele>708</ele>
        <time>2025-09-27T09:10:49.000Z</time>
      </trkpt>
      <trkpt lat="42.88694" lon="1.35007">
        <ele>708</ele>
        <time>2025-09-27T09:10:50.000Z</time>
      </trkpt>
      <trkpt lat="42.88692" lon="1.3501">
        <ele>707</ele>
        <time>2025-09-27T09:10:51.000Z</time>
      </trkpt>
      <trkpt lat="42.88689" lon="1.35012">
        <ele>707</ele>
        <time>2025-09-27T09:10:52.000Z</time>
      </trkpt>
      <trkpt lat="42.88687" lon="1.35015">
        <ele>707</ele>
        <time>2025-09-27T09:10:53.000Z</time>
      </trkpt>
      <trkpt lat="42.88685" lon="1.35017">
        <ele>708</ele>
        <time>2025-09-27T09:10:54.000Z</time>
      </trkpt>
      <trkpt lat="42.88683" lon="1.3502">
        <ele>708</ele>
        <time>2025-09-27T09:10:55.000Z</time>
      </trkpt>
      <trkpt lat="42.88681" lon="1.35022">
        <ele>708</ele>
        <time>2025-09-27T09:10:56.000Z</time>
      </trkpt>
      <trkpt lat="42.88679" lon="1.35025">
        <ele>708</ele>
        <time>2025-09-27T09:10:57.000Z</time>
      </trkpt>
      <trkpt lat="42.88677" lon="1.35028">
        <ele>708</ele>
        <time>2025-09-27T09:10:58.000Z</time>
      </trkpt>
      <trkpt lat="42.88675" lon="1.3503">
        <ele>708</ele>
        <time>2025-09-27T09:10:59.000Z</time>
      </trkpt>
      <trkpt lat="42.88672" lon="1.35034">
        <ele>707</ele>
        <time>2025-09-27T09:11:00.000Z</time>
      </trkpt>
      <trkpt lat="42.8867" lon="1.35037">
        <ele>707</ele>
        <time>2025-09-27T09:11:01.000Z</time>
      </trkpt>
      <trkpt lat="42.88668" lon="1.35039">
        <ele>707</ele>
        <time>2025-09-27T09:11:02.000Z</time>
      </trkpt>
      <trkpt lat="42.88666" lon="1.35042">
        <ele>706</ele>
        <time>2025-09-27T09:11:03.000Z</time>
      </trkpt>
      <trkpt lat="42.88664" lon="1.35045">
        <ele>707</ele>
        <time>2025-09-27T09:11:04.000Z</time>
      </trkpt>
      <trkpt lat="42.88661" lon="1.35049">
        <ele>707</ele>
        <time>2025-09-27T09:11:05.000Z</time>
      </trkpt>
      <trkpt lat="42.88659" lon="1.35052">
        <ele>707</ele>
        <time>2025-09-27T09:11:06.000Z</time>
      </trkpt>
      <trkpt lat="42.88657" lon="1.35056">
        <ele>707</ele>
        <time>2025-09-27T09:11:07.000Z</time>
      </trkpt>
      <trkpt lat="42.88655" lon="1.35059">
        <ele>707</ele>
        <time>2025-09-27T09:11:08.000Z</time>
      </trkpt>
      <trkpt lat="42.88653" lon="1.35062">
        <ele>706</ele>
        <time>2025-09-27T09:11:09.000Z</time>
      </trkpt>
      <trkpt lat="42.88651" lon="1.35065">
        <ele>707</ele>
        <time>2025-09-27T09:11:10.000Z</time>
      </trkpt>
      <trkpt lat="42.88648" lon="1.35067">
        <ele>707</ele>
        <time>2025-09-27T09:11:11.000Z</time>
      </trkpt>
      <trkpt lat="42.88647" lon="1.35069">
        <ele>707</ele>
        <time>2025-09-27T09:11:12.000Z</time>
      </trkpt>
      <trkpt lat="42.88644" lon="1.35072">
        <ele>706</ele>
        <time>2025-09-27T09:11:13.000Z</time>
      </trkpt>
      <trkpt lat="42.88642" lon="1.35075">
        <ele>706</ele>
        <time>2025-09-27T09:11:14.000Z</time>
      </trkpt>
      <trkpt lat="42.8864" lon="1.35078">
        <ele>706</ele>
        <time>2025-09-27T09:11:15.000Z</time>
      </trkpt>
      <trkpt lat="42.88638" lon="1.3508">
        <ele>706</ele>
        <time>2025-09-27T09:11:16.000Z</time>
      </trkpt>
      <trkpt lat="42.88636" lon="1.35083">
        <ele>706</ele>
        <time>2025-09-27T09:11:17.000Z</time>
      </trkpt>
      <trkpt lat="42.88634" lon="1.35086">
        <ele>706</ele>
        <time>2025-09-27T09:11:18.000Z</time>
      </trkpt>
      <trkpt lat="42.88631" lon="1.35089">
        <ele>705</ele>
        <time>2025-09-27T09:11:19.000Z</time>
      </trkpt>
      <trkpt lat="42.8863" lon="1.35092">
        <ele>706</ele>
        <time>2025-09-27T09:11:20.000Z</time>
      </trkpt>
      <trkpt lat="42.88627" lon="1.35095">
        <ele>705</ele>
        <time>2025-09-27T09:11:21.000Z</time>
      </trkpt>
      <trkpt lat="42.88625" lon="1.35098">
        <ele>705</ele>
        <time>2025-09-27T09:11:22.000Z</time>
      </trkpt>
      <trkpt lat="42.88622" lon="1.35101">
        <ele>705</ele>
        <time>2025-09-27T09:11:23.000Z</time>
      </trkpt>
      <trkpt lat="42.8862" lon="1.35104">
        <ele>705</ele>
        <time>2025-09-27T09:11:24.000Z</time>
      </trkpt>
      <trkpt lat="42.88617" lon="1.35107">
        <ele>705</ele>
        <time>2025-09-27T09:11:25.000Z</time>
      </trkpt>
      <trkpt lat="42.88615" lon="1.35111">
        <ele>704</ele>
        <time>2025-09-27T09:11:26.000Z</time>
      </trkpt>
      <trkpt lat="42.88611" lon="1.35114">
        <ele>704</ele>
        <time>2025-09-27T09:11:27.000Z</time>
      </trkpt>
      <trkpt lat="42.88608" lon="1.35117">
        <ele>704</ele>
        <time>2025-09-27T09:11:28.000Z</time>
      </trkpt>
      <trkpt lat="42.88605" lon="1.3512">
        <ele>703</ele>
        <time>2025-09-27T09:11:29.000Z</time>
      </trkpt>
      <trkpt lat="42.88601" lon="1.35123">
        <ele>704</ele>
        <time>2025-09-27T09:11:30.000Z</time>
      </trkpt>
      <trkpt lat="42.88598" lon="1.35126">
        <ele>704</ele>
        <time>2025-09-27T09:11:31.000Z</time>
      </trkpt>
      <trkpt lat="42.88595" lon="1.35128">
        <ele>704</ele>
        <time>2025-09-27T09:11:32.000Z</time>
      </trkpt>
      <trkpt lat="42.88591" lon="1.35131">
        <ele>704</ele>
        <time>2025-09-27T09:11:33.000Z</time>
      </trkpt>
      <trkpt lat="42.88587" lon="1.35133">
        <ele>705</ele>
        <time>2025-09-27T09:11:34.000Z</time>
      </trkpt>
      <trkpt lat="42.88583" lon="1.35135">
        <ele>705</ele>
        <time>2025-09-27T09:11:35.000Z</time>
      </trkpt>
      <trkpt lat="42.8858" lon="1.35136">
        <ele>704</ele>
        <time>2025-09-27T09:11:36.000Z</time>
      </trkpt>
      <trkpt lat="42.88577" lon="1.35139">
        <ele>704</ele>
        <time>2025-09-27T09:11:37.000Z</time>
      </trkpt>
      <trkpt lat="42.88574" lon="1.35141">
        <ele>704</ele>
        <time>2025-09-27T09:11:38.000Z</time>
      </trkpt>
      <trkpt lat="42.88571" lon="1.35144">
        <ele>705</ele>
        <time>2025-09-27T09:11:39.000Z</time>
      </trkpt>
      <trkpt lat="42.88568" lon="1.35148">
        <ele>704</ele>
        <time>2025-09-27T09:11:40.000Z</time>
      </trkpt>
      <trkpt lat="42.88565" lon="1.35152">
        <ele>704</ele>
        <time>2025-09-27T09:11:41.000Z</time>
      </trkpt>
      <trkpt lat="42.88563" lon="1.35157">
        <ele>704</ele>
        <time>2025-09-27T09:11:42.000Z</time>
      </trkpt>
      <trkpt lat="42.88561" lon="1.35162">
        <ele>704</ele>
        <time>2025-09-27T09:11:43.000Z</time>
      </trkpt>
      <trkpt lat="42.88559" lon="1.35166">
        <ele>704</ele>
        <time>2025-09-27T09:11:44.000Z</time>
      </trkpt>
      <trkpt lat="42.88558" lon="1.3517">
        <ele>704</ele>
        <time>2025-09-27T09:11:45.000Z</time>
      </trkpt>
      <trkpt lat="42.88557" lon="1.35174">
        <ele>704</ele>
        <time>2025-09-27T09:11:46.000Z</time>
      </trkpt>
      <trkpt lat="42.88557" lon="1.35179">
        <ele>704</ele>
        <time>2025-09-27T09:11:47.000Z</time>
      </trkpt>
      <trkpt lat="42.88558" lon="1.35183">
        <ele>704</ele>
        <time>2025-09-27T09:11:48.000Z</time>
      </trkpt>
      <trkpt lat="42.88558" lon="1.35188">
        <ele>704</ele>
        <time>2025-09-27T09:11:49.000Z</time>
      </trkpt>
      <trkpt lat="42.88559" lon="1.35191">
        <ele>704</ele>
        <time>2025-09-27T09:11:50.000Z</time>
      </trkpt>
      <trkpt lat="42.88559" lon="1.35194">
        <ele>704</ele>
        <time>2025-09-27T09:11:51.000Z</time>
      </trkpt>
      <trkpt lat="42.8856" lon="1.35197">
        <ele>704</ele>
        <time>2025-09-27T09:11:52.000Z</time>
      </trkpt>
      <trkpt lat="42.88561" lon="1.35201">
        <ele>704</ele>
        <time>2025-09-27T09:11:53.000Z</time>
      </trkpt>
      <trkpt lat="42.88562" lon="1.35205">
        <ele>704</ele>
        <time>2025-09-27T09:11:54.000Z</time>
      </trkpt>
      <trkpt lat="42.88563" lon="1.35209">
        <ele>704</ele>
        <time>2025-09-27T09:11:55.000Z</time>
      </trkpt>
      <trkpt lat="42.88565" lon="1.35212">
        <ele>704</ele>
        <time>2025-09-27T09:11:56.000Z</time>
      </trkpt>
      <trkpt lat="42.88566" lon="1.35216">
        <ele>704</ele>
        <time>2025-09-27T09:11:57.000Z</time>
      </trkpt>
      <trkpt lat="42.88567" lon="1.35219">
        <ele>704</ele>
        <time>2025-09-27T09:11:58.000Z</time>
      </trkpt>
      <trkpt lat="42.88568" lon="1.35223">
        <ele>704</ele>
        <time>2025-09-27T09:11:59.000Z</time>
      </trkpt>
      <trkpt lat="42.88569" lon="1.35227">
        <ele>705</ele>
        <time>2025-09-27T09:12:00.000Z</time>
      </trkpt>
      <trkpt lat="42.8857" lon="1.3523">
        <ele>705</ele>
        <time>2025-09-27T09:12:01.000Z</time>
      </trkpt>
      <trkpt lat="42.88571" lon="1.35234">
        <ele>706</ele>
        <time>2025-09-27T09:12:02.000Z</time>
      </trkpt>
      <trkpt lat="42.88572" lon="1.35237">
        <ele>706</ele>
        <time>2025-09-27T09:12:03.000Z</time>
      </trkpt>
      <trkpt lat="42.88573" lon="1.3524">
        <ele>706</ele>
        <time>2025-09-27T09:12:04.000Z</time>
      </trkpt>
      <trkpt lat="42.88574" lon="1.35243">
        <ele>706</ele>
        <time>2025-09-27T09:12:05.000Z</time>
      </trkpt>
      <trkpt lat="42.88575" lon="1.35247">
        <ele>706</ele>
        <time>2025-09-27T09:12:06.000Z</time>
      </trkpt>
      <trkpt lat="42.88576" lon="1.3525">
        <ele>706</ele>
        <time>2025-09-27T09:12:07.000Z</time>
      </trkpt>
      <trkpt lat="42.88577" lon="1.35254">
        <ele>706</ele>
        <time>2025-09-27T09:12:08.000Z</time>
      </trkpt>
      <trkpt lat="42.88578" lon="1.35258">
        <ele>706</ele>
        <time>2025-09-27T09:12:09.000Z</time>
      </trkpt>
      <trkpt lat="42.88578" lon="1.35262">
        <ele>706</ele>
        <time>2025-09-27T09:12:10.000Z</time>
      </trkpt>
      <trkpt lat="42.88579" lon="1.35266">
        <ele>706</ele>
        <time>2025-09-27T09:12:11.000Z</time>
      </trkpt>
      <trkpt lat="42.88579" lon="1.35271">
        <ele>706</ele>
        <time>2025-09-27T09:12:12.000Z</time>
      </trkpt>
      <trkpt lat="42.88579" lon="1.35275">
        <ele>706</ele>
        <time>2025-09-27T09:12:13.000Z</time>
      </trkpt>
      <trkpt lat="42.88579" lon="1.35279">
        <ele>706</ele>
        <time>2025-09-27T09:12:14.000Z</time>
      </trkpt>
      <trkpt lat="42.88579" lon="1.35284">
        <ele>706</ele>
        <time>2025-09-27T09:12:15.000Z</time>
      </trkpt>
      <trkpt lat="42.88579" lon="1.35289">
        <ele>706</ele>
        <time>2025-09-27T09:12:16.000Z</time>
      </trkpt>
      <trkpt lat="42.88579" lon="1.35293">
        <ele>706</ele>
        <time>2025-09-27T09:12:17.000Z</time>
      </trkpt>
      <trkpt lat="42.88578" lon="1.35297">
        <ele>706</ele>
        <time>2025-09-27T09:12:18.000Z</time>
      </trkpt>
      <trkpt lat="42.88578" lon="1.35302">
        <ele>706</ele>
        <time>2025-09-27T09:12:19.000Z</time>
      </trkpt>
      <trkpt lat="42.88577" lon="1.35307">
        <ele>706</ele>
        <time>2025-09-27T09:12:20.000Z</time>
      </trkpt>
      <trkpt lat="42.88576" lon="1.3531">
        <ele>706</ele>
        <time>2025-09-27T09:12:21.000Z</time>
      </trkpt>
      <trkpt lat="42.88575" lon="1.35314">
        <ele>705</ele>
        <time>2025-09-27T09:12:22.000Z</time>
      </trkpt>
      <trkpt lat="42.88574" lon="1.35318">
        <ele>706</ele>
        <time>2025-09-27T09:12:23.000Z</time>
      </trkpt>
      <trkpt lat="42.88573" lon="1.35322">
        <ele>706</ele>
        <time>2025-09-27T09:12:24.000Z</time>
      </trkpt>
      <trkpt lat="42.88572" lon="1.35326">
        <ele>706</ele>
        <time>2025-09-27T09:12:25.000Z</time>
      </trkpt>
      <trkpt lat="42.88571" lon="1.35331">
        <ele>706</ele>
        <time>2025-09-27T09:12:26.000Z</time>
      </trkpt>
      <trkpt lat="42.8857" lon="1.35335">
        <ele>706</ele>
        <time>2025-09-27T09:12:27.000Z</time>
      </trkpt>
      <trkpt lat="42.88569" lon="1.35339">
        <ele>706</ele>
        <time>2025-09-27T09:12:28.000Z</time>
      </trkpt>
      <trkpt lat="42.88568" lon="1.35344">
        <ele>707</ele>
        <time>2025-09-27T09:12:29.000Z</time>
      </trkpt>
      <trkpt lat="42.88567" lon="1.35348">
        <ele>707</ele>
        <time>2025-09-27T09:12:30.000Z</time>
      </trkpt>
      <trkpt lat="42.88566" lon="1.35352">
        <ele>707</ele>
        <time>2025-09-27T09:12:31.000Z</time>
      </trkpt>
      <trkpt lat="42.88565" lon="1.35355">
        <ele>706</ele>
        <time>2025-09-27T09:12:32.000Z</time>
      </trkpt>
      <trkpt lat="42.88564" lon="1.3536">
        <ele>707</ele>
        <time>2025-09-27T09:12:33.000Z</time>
      </trkpt>
      <trkpt lat="42.88563" lon="1.35364">
        <ele>707</ele>
        <time>2025-09-27T09:12:34.000Z</time>
      </trkpt>
      <trkpt lat="42.88562" lon="1.35368">
        <ele>707</ele>
        <time>2025-09-27T09:12:35.000Z</time>
      </trkpt>
      <trkpt lat="42.88561" lon="1.35372">
        <ele>707</ele>
        <time>2025-09-27T09:12:36.000Z</time>
      </trkpt>
      <trkpt lat="42.8856" lon="1.35376">
        <ele>707</ele>
        <time>2025-09-27T09:12:37.000Z</time>
      </trkpt>
      <trkpt lat="42.88559" lon="1.35379">
        <ele>707</ele>
        <time>2025-09-27T09:12:38.000Z</time>
      </trkpt>
      <trkpt lat="42.88558" lon="1.35383">
        <ele>707</ele>
        <time>2025-09-27T09:12:39.000Z</time>
      </trkpt>
      <trkpt lat="42.88556" lon="1.35388">
        <ele>707</ele>
        <time>2025-09-27T09:12:40.000Z</time>
      </trkpt>
      <trkpt lat="42.88555" lon="1.35392">
        <ele>707</ele>
        <time>2025-09-27T09:12:41.000Z</time>
      </trkpt>
      <trkpt lat="42.88554" lon="1.35396">
        <ele>707</ele>
        <time>2025-09-27T09:12:42.000Z</time>
      </trkpt>
      <trkpt lat="42.88553" lon="1.354">
        <ele>707</ele>
        <time>2025-09-27T09:12:43.000Z</time>
      </trkpt>
      <trkpt lat="42.88552" lon="1.35405">
        <ele>707</ele>
        <time>2025-09-27T09:12:44.000Z</time>
      </trkpt>
      <trkpt lat="42.88551" lon="1.35409">
        <ele>708</ele>
        <time>2025-09-27T09:12:45.000Z</time>
      </trkpt>
      <trkpt lat="42.8855" lon="1.35413">
        <ele>707</ele>
        <time>2025-09-27T09:12:46.000Z</time>
      </trkpt>
      <trkpt lat="42.88549" lon="1.35417">
        <ele>708</ele>
        <time>2025-09-27T09:12:47.000Z</time>
      </trkpt>
      <trkpt lat="42.88548" lon="1.35421">
        <ele>707</ele>
        <time>2025-09-27T09:12:48.000Z</time>
      </trkpt>
      <trkpt lat="42.88548" lon="1.35425">
        <ele>708</ele>
        <time>2025-09-27T09:12:49.000Z</time>
      </trkpt>
      <trkpt lat="42.88546" lon="1.35429">
        <ele>707</ele>
        <time>2025-09-27T09:12:50.000Z</time>
      </trkpt>
      <trkpt lat="42.88545" lon="1.35433">
        <ele>707</ele>
        <time>2025-09-27T09:12:51.000Z</time>
      </trkpt>
      <trkpt lat="42.88544" lon="1.35436">
        <ele>708</ele>
        <time>2025-09-27T09:12:52.000Z</time>
      </trkpt>
      <trkpt lat="42.88543" lon="1.3544">
        <ele>707</ele>
        <time>2025-09-27T09:12:53.000Z</time>
      </trkpt>
      <trkpt lat="42.88542" lon="1.35445">
        <ele>708</ele>
        <time>2025-09-27T09:12:54.000Z</time>
      </trkpt>
      <trkpt lat="42.88541" lon="1.35449">
        <ele>708</ele>
        <time>2025-09-27T09:12:55.000Z</time>
      </trkpt>
      <trkpt lat="42.8854" lon="1.35454">
        <ele>707</ele>
        <time>2025-09-27T09:12:56.000Z</time>
      </trkpt>
      <trkpt lat="42.88539" lon="1.35459">
        <ele>707</ele>
        <time>2025-09-27T09:12:57.000Z</time>
      </trkpt>
      <trkpt lat="42.88538" lon="1.35463">
        <ele>707</ele>
        <time>2025-09-27T09:12:58.000Z</time>
      </trkpt>
      <trkpt lat="42.88537" lon="1.35467">
        <ele>707</ele>
        <time>2025-09-27T09:12:59.000Z</time>
      </trkpt>
      <trkpt lat="42.88536" lon="1.35472">
        <ele>707</ele>
        <time>2025-09-27T09:13:00.000Z</time>
      </trkpt>
      <trkpt lat="42.88535" lon="1.35475">
        <ele>707</ele>
        <time>2025-09-27T09:13:01.000Z</time>
      </trkpt>
      <trkpt lat="42.88534" lon="1.3548">
        <ele>707</ele>
        <time>2025-09-27T09:13:02.000Z</time>
      </trkpt>
      <trkpt lat="42.88533" lon="1.35484">
        <ele>707</ele>
        <time>2025-09-27T09:13:03.000Z</time>
      </trkpt>
      <trkpt lat="42.88532" lon="1.35488">
        <ele>707</ele>
        <time>2025-09-27T09:13:04.000Z</time>
      </trkpt>
      <trkpt lat="42.88531" lon="1.35492">
        <ele>707</ele>
        <time>2025-09-27T09:13:05.000Z</time>
      </trkpt>
      <trkpt lat="42.8853" lon="1.35496">
        <ele>707</ele>
        <time>2025-09-27T09:13:06.000Z</time>
      </trkpt>
      <trkpt lat="42.88529" lon="1.355">
        <ele>707</ele>
        <time>2025-09-27T09:13:07.000Z</time>
      </trkpt>
      <trkpt lat="42.88528" lon="1.35504">
        <ele>708</ele>
        <time>2025-09-27T09:13:08.000Z</time>
      </trkpt>
      <trkpt lat="42.88526" lon="1.35508">
        <ele>708</ele>
        <time>2025-09-27T09:13:09.000Z</time>
      </trkpt>
      <trkpt lat="42.88526" lon="1.35512">
        <ele>707</ele>
        <time>2025-09-27T09:13:10.000Z</time>
      </trkpt>
      <trkpt lat="42.88525" lon="1.35516">
        <ele>708</ele>
        <time>2025-09-27T09:13:11.000Z</time>
      </trkpt>
      <trkpt lat="42.88523" lon="1.3552">
        <ele>708</ele>
        <time>2025-09-27T09:13:12.000Z</time>
      </trkpt>
      <trkpt lat="42.88522" lon="1.35525">
        <ele>708</ele>
        <time>2025-09-27T09:13:13.000Z</time>
      </trkpt>
      <trkpt lat="42.88522" lon="1.35529">
        <ele>708</ele>
        <time>2025-09-27T09:13:14.000Z</time>
      </trkpt>
      <trkpt lat="42.8852" lon="1.35533">
        <ele>708</ele>
        <time>2025-09-27T09:13:15.000Z</time>
      </trkpt>
      <trkpt lat="42.88519" lon="1.35537">
        <ele>708</ele>
        <time>2025-09-27T09:13:16.000Z</time>
      </trkpt>
      <trkpt lat="42.88518" lon="1.35541">
        <ele>708</ele>
        <time>2025-09-27T09:13:17.000Z</time>
      </trkpt>
      <trkpt lat="42.88517" lon="1.35545">
        <ele>708</ele>
        <time>2025-09-27T09:13:18.000Z</time>
      </trkpt>
      <trkpt lat="42.88516" lon="1.35548">
        <ele>708</ele>
        <time>2025-09-27T09:13:19.000Z</time>
      </trkpt>
      <trkpt lat="42.88515" lon="1.35552">
        <ele>708</ele>
        <time>2025-09-27T09:13:20.000Z</time>
      </trkpt>
      <trkpt lat="42.88514" lon="1.35555">
        <ele>708</ele>
        <time>2025-09-27T09:13:21.000Z</time>
      </trkpt>
      <trkpt lat="42.88513" lon="1.35559">
        <ele>708</ele>
        <time>2025-09-27T09:13:22.000Z</time>
      </trkpt>
      <trkpt lat="42.88512" lon="1.35564">
        <ele>709</ele>
        <time>2025-09-27T09:13:23.000Z</time>
      </trkpt>
      <trkpt lat="42.88511" lon="1.35568">
        <ele>709</ele>
        <time>2025-09-27T09:13:24.000Z</time>
      </trkpt>
      <trkpt lat="42.8851" lon="1.35572">
        <ele>708</ele>
        <time>2025-09-27T09:13:25.000Z</time>
      </trkpt>
      <trkpt lat="42.88508" lon="1.35576">
        <ele>709</ele>
        <time>2025-09-27T09:13:26.000Z</time>
      </trkpt>
      <trkpt lat="42.88507" lon="1.3558">
        <ele>710</ele>
        <time>2025-09-27T09:13:27.000Z</time>
      </trkpt>
      <trkpt lat="42.88505" lon="1.35585">
        <ele>710</ele>
        <time>2025-09-27T09:13:28.000Z</time>
      </trkpt>
      <trkpt lat="42.88504" lon="1.35588">
        <ele>710</ele>
        <time>2025-09-27T09:13:29.000Z</time>
      </trkpt>
      <trkpt lat="42.88503" lon="1.35592">
        <ele>710</ele>
        <time>2025-09-27T09:13:30.000Z</time>
      </trkpt>
      <trkpt lat="42.88501" lon="1.35596">
        <ele>710</ele>
        <time>2025-09-27T09:13:31.000Z</time>
      </trkpt>
      <trkpt lat="42.88499" lon="1.356">
        <ele>708</ele>
        <time>2025-09-27T09:13:32.000Z</time>
      </trkpt>
      <trkpt lat="42.88498" lon="1.35604">
        <ele>708</ele>
        <time>2025-09-27T09:13:33.000Z</time>
      </trkpt>
      <trkpt lat="42.88496" lon="1.35607">
        <ele>707</ele>
        <time>2025-09-27T09:13:34.000Z</time>
      </trkpt>
      <trkpt lat="42.88494" lon="1.35612">
        <ele>707</ele>
        <time>2025-09-27T09:13:35.000Z</time>
      </trkpt>
      <trkpt lat="42.88493" lon="1.35615">
        <ele>707</ele>
        <time>2025-09-27T09:13:36.000Z</time>
      </trkpt>
      <trkpt lat="42.88491" lon="1.35619">
        <ele>705</ele>
        <time>2025-09-27T09:13:37.000Z</time>
      </trkpt>
      <trkpt lat="42.88489" lon="1.35623">
        <ele>705</ele>
        <time>2025-09-27T09:13:38.000Z</time>
      </trkpt>
      <trkpt lat="42.88487" lon="1.3563">
        <ele>705</ele>
        <time>2025-09-27T09:13:39.000Z</time>
      </trkpt>
      <trkpt lat="42.88485" lon="1.35636">
        <ele>705</ele>
        <time>2025-09-27T09:13:40.000Z</time>
      </trkpt>
      <trkpt lat="42.88482" lon="1.35642">
        <ele>705</ele>
        <time>2025-09-27T09:13:41.000Z</time>
      </trkpt>
      <trkpt lat="42.88481" lon="1.35649">
        <ele>705</ele>
        <time>2025-09-27T09:13:42.000Z</time>
      </trkpt>
      <trkpt lat="42.8848" lon="1.35655">
        <ele>704</ele>
        <time>2025-09-27T09:13:43.000Z</time>
      </trkpt>
      <trkpt lat="42.88479" lon="1.35662">
        <ele>704</ele>
        <time>2025-09-27T09:13:44.000Z</time>
      </trkpt>
      <trkpt lat="42.88478" lon="1.35668">
        <ele>704</ele>
        <time>2025-09-27T09:13:45.000Z</time>
      </trkpt>
      <trkpt lat="42.88477" lon="1.35673">
        <ele>703</ele>
        <time>2025-09-27T09:13:46.000Z</time>
      </trkpt>
      <trkpt lat="42.88476" lon="1.3568">
        <ele>703</ele>
        <time>2025-09-27T09:13:47.000Z</time>
      </trkpt>
      <trkpt lat="42.88477" lon="1.35688">
        <ele>703</ele>
        <time>2025-09-27T09:13:48.000Z</time>
      </trkpt>
      <trkpt lat="42.88478" lon="1.35695">
        <ele>703</ele>
        <time>2025-09-27T09:13:49.000Z</time>
      </trkpt>
      <trkpt lat="42.8848" lon="1.35704">
        <ele>703</ele>
        <time>2025-09-27T09:13:50.000Z</time>
      </trkpt>
      <trkpt lat="42.88481" lon="1.35712">
        <ele>702</ele>
        <time>2025-09-27T09:13:51.000Z</time>
      </trkpt>
      <trkpt lat="42.88483" lon="1.35722">
        <ele>701</ele>
        <time>2025-09-27T09:13:52.000Z</time>
      </trkpt>
      <trkpt lat="42.88484" lon="1.35731">
        <ele>700</ele>
        <time>2025-09-27T09:13:53.000Z</time>
      </trkpt>
      <trkpt lat="42.88485" lon="1.35741">
        <ele>700</ele>
        <time>2025-09-27T09:13:54.000Z</time>
      </trkpt>
      <trkpt lat="42.88486" lon="1.3575">
        <ele>699</ele>
        <time>2025-09-27T09:13:55.000Z</time>
      </trkpt>
      <trkpt lat="42.88486" lon="1.3576">
        <ele>698</ele>
        <time>2025-09-27T09:13:56.000Z</time>
      </trkpt>
      <trkpt lat="42.88485" lon="1.35769">
        <ele>698</ele>
        <time>2025-09-27T09:13:57.000Z</time>
      </trkpt>
      <trkpt lat="42.88483" lon="1.35779">
        <ele>698</ele>
        <time>2025-09-27T09:13:58.000Z</time>
      </trkpt>
      <trkpt lat="42.88481" lon="1.35788">
        <ele>698</ele>
        <time>2025-09-27T09:13:59.000Z</time>
      </trkpt>
      <trkpt lat="42.88478" lon="1.35797">
        <ele>698</ele>
        <time>2025-09-27T09:14:00.000Z</time>
      </trkpt>
      <trkpt lat="42.88474" lon="1.35805">
        <ele>698</ele>
        <time>2025-09-27T09:14:01.000Z</time>
      </trkpt>
      <trkpt lat="42.8847" lon="1.35812">
        <ele>697</ele>
        <time>2025-09-27T09:14:02.000Z</time>
      </trkpt>
      <trkpt lat="42.88465" lon="1.35818">
        <ele>697</ele>
        <time>2025-09-27T09:14:03.000Z</time>
      </trkpt>
      <trkpt lat="42.8846" lon="1.35821">
        <ele>697</ele>
        <time>2025-09-27T09:14:04.000Z</time>
      </trkpt>
      <trkpt lat="42.88455" lon="1.35823">
        <ele>697</ele>
        <time>2025-09-27T09:14:05.000Z</time>
      </trkpt>
      <trkpt lat="42.8845" lon="1.35823">
        <ele>698</ele>
        <time>2025-09-27T09:14:06.000Z</time>
      </trkpt>
      <trkpt lat="42.88445" lon="1.35824">
        <ele>698</ele>
        <time>2025-09-27T09:14:07.000Z</time>
      </trkpt>
      <trkpt lat="42.88441" lon="1.35826">
        <ele>698</ele>
        <time>2025-09-27T09:14:08.000Z</time>
      </trkpt>
      <trkpt lat="42.88436" lon="1.35827">
        <ele>698</ele>
        <time>2025-09-27T09:14:09.000Z</time>
      </trkpt>
      <trkpt lat="42.88431" lon="1.35827">
        <ele>698</ele>
        <time>2025-09-27T09:14:10.000Z</time>
      </trkpt>
      <trkpt lat="42.88427" lon="1.35828">
        <ele>699</ele>
        <time>2025-09-27T09:14:11.000Z</time>
      </trkpt>
      <trkpt lat="42.88423" lon="1.35829">
        <ele>699</ele>
        <time>2025-09-27T09:14:12.000Z</time>
      </trkpt>
      <trkpt lat="42.88418" lon="1.35829">
        <ele>699</ele>
        <time>2025-09-27T09:14:13.000Z</time>
      </trkpt>
      <trkpt lat="42.88414" lon="1.3583">
        <ele>700</ele>
        <time>2025-09-27T09:14:14.000Z</time>
      </trkpt>
      <trkpt lat="42.88409" lon="1.3583">
        <ele>700</ele>
        <time>2025-09-27T09:14:15.000Z</time>
      </trkpt>
      <trkpt lat="42.88405" lon="1.3583">
        <ele>701</ele>
        <time>2025-09-27T09:14:16.000Z</time>
      </trkpt>
      <trkpt lat="42.88401" lon="1.35831">
        <ele>702</ele>
        <time>2025-09-27T09:14:17.000Z</time>
      </trkpt>
      <trkpt lat="42.88396" lon="1.35831">
        <ele>702</ele>
        <time>2025-09-27T09:14:18.000Z</time>
      </trkpt>
      <trkpt lat="42.88392" lon="1.35832">
        <ele>702</ele>
        <time>2025-09-27T09:14:19.000Z</time>
      </trkpt>
      <trkpt lat="42.88387" lon="1.35832">
        <ele>701</ele>
        <time>2025-09-27T09:14:20.000Z</time>
      </trkpt>
      <trkpt lat="42.88383" lon="1.35832">
        <ele>701</ele>
        <time>2025-09-27T09:14:21.000Z</time>
      </trkpt>
      <trkpt lat="42.88379" lon="1.35833">
        <ele>702</ele>
        <time>2025-09-27T09:14:22.000Z</time>
      </trkpt>
      <trkpt lat="42.88374" lon="1.35833">
        <ele>703</ele>
        <time>2025-09-27T09:14:23.000Z</time>
      </trkpt>
      <trkpt lat="42.88369" lon="1.35834">
        <ele>703</ele>
        <time>2025-09-27T09:14:24.000Z</time>
      </trkpt>
      <trkpt lat="42.88365" lon="1.35835">
        <ele>703</ele>
        <time>2025-09-27T09:14:25.000Z</time>
      </trkpt>
      <trkpt lat="42.88361" lon="1.35836">
        <ele>703</ele>
        <time>2025-09-27T09:14:26.000Z</time>
      </trkpt>
      <trkpt lat="42.88356" lon="1.35837">
        <ele>703</ele>
        <time>2025-09-27T09:14:27.000Z</time>
      </trkpt>
      <trkpt lat="42.88352" lon="1.35839">
        <ele>704</ele>
        <time>2025-09-27T09:14:28.000Z</time>
      </trkpt>
      <trkpt lat="42.88347" lon="1.35839">
        <ele>704</ele>
        <time>2025-09-27T09:14:29.000Z</time>
      </trkpt>
      <trkpt lat="42.88343" lon="1.3584">
        <ele>705</ele>
        <time>2025-09-27T09:14:30.000Z</time>
      </trkpt>
      <trkpt lat="42.88339" lon="1.3584">
        <ele>706</ele>
        <time>2025-09-27T09:14:31.000Z</time>
      </trkpt>
      <trkpt lat="42.88336" lon="1.35841">
        <ele>706</ele>
        <time>2025-09-27T09:14:32.000Z</time>
      </trkpt>
      <trkpt lat="42.88333" lon="1.35842">
        <ele>706</ele>
        <time>2025-09-27T09:14:33.000Z</time>
      </trkpt>
      <trkpt lat="42.88329" lon="1.35842">
        <ele>706</ele>
        <time>2025-09-27T09:14:34.000Z</time>
      </trkpt>
      <trkpt lat="42.88325" lon="1.35843">
        <ele>706</ele>
        <time>2025-09-27T09:14:35.000Z</time>
      </trkpt>
      <trkpt lat="42.88321" lon="1.35843">
        <ele>706</ele>
        <time>2025-09-27T09:14:36.000Z</time>
      </trkpt>
      <trkpt lat="42.88318" lon="1.35844">
        <ele>707</ele>
        <time>2025-09-27T09:14:37.000Z</time>
      </trkpt>
      <trkpt lat="42.88315" lon="1.35843">
        <ele>707</ele>
        <time>2025-09-27T09:14:38.000Z</time>
      </trkpt>
      <trkpt lat="42.88312" lon="1.35843">
        <ele>707</ele>
        <time>2025-09-27T09:14:39.000Z</time>
      </trkpt>
      <trkpt lat="42.88309" lon="1.35842">
        <ele>707</ele>
        <time>2025-09-27T09:14:40.000Z</time>
      </trkpt>
      <trkpt lat="42.88306" lon="1.35841">
        <ele>707</ele>
        <time>2025-09-27T09:14:41.000Z</time>
      </trkpt>
      <trkpt lat="42.88303" lon="1.3584">
        <ele>708</ele>
        <time>2025-09-27T09:14:42.000Z</time>
      </trkpt>
      <trkpt lat="42.88301" lon="1.3584">
        <ele>708</ele>
        <time>2025-09-27T09:14:43.000Z</time>
      </trkpt>
      <trkpt lat="42.88298" lon="1.35839">
        <ele>709</ele>
        <time>2025-09-27T09:14:44.000Z</time>
      </trkpt>
      <trkpt lat="42.88296" lon="1.35839">
        <ele>709</ele>
        <time>2025-09-27T09:14:45.000Z</time>
      </trkpt>
      <trkpt lat="42.88294" lon="1.35838">
        <ele>709</ele>
        <time>2025-09-27T09:14:46.000Z</time>
      </trkpt>
      <trkpt lat="42.88291" lon="1.35838">
        <ele>710</ele>
        <time>2025-09-27T09:14:47.000Z</time>
      </trkpt>
      <trkpt lat="42.88288" lon="1.35837">
        <ele>710</ele>
        <time>2025-09-27T09:14:48.000Z</time>
      </trkpt>
      <trkpt lat="42.88286" lon="1.35836">
        <ele>710</ele>
        <time>2025-09-27T09:14:49.000Z</time>
      </trkpt>
      <trkpt lat="42.88284" lon="1.35836">
        <ele>711</ele>
        <time>2025-09-27T09:14:50.000Z</time>
      </trkpt>
      <trkpt lat="42.88282" lon="1.35835">
        <ele>711</ele>
        <time>2025-09-27T09:14:51.000Z</time>
      </trkpt>
      <trkpt lat="42.88279" lon="1.35835">
        <ele>711</ele>
        <time>2025-09-27T09:14:52.000Z</time>
      </trkpt>
      <trkpt lat="42.88277" lon="1.35835">
        <ele>711</ele>
        <time>2025-09-27T09:14:53.000Z</time>
      </trkpt>
      <trkpt lat="42.88275" lon="1.35836">
        <ele>711</ele>
        <time>2025-09-27T09:14:54.000Z</time>
      </trkpt>
      <trkpt lat="42.88272" lon="1.35836">
        <ele>711</ele>
        <time>2025-09-27T09:14:55.000Z</time>
      </trkpt>
      <trkpt lat="42.8827" lon="1.35836">
        <ele>711</ele>
        <time>2025-09-27T09:14:56.000Z</time>
      </trkpt>
      <trkpt lat="42.88268" lon="1.35835">
        <ele>711</ele>
        <time>2025-09-27T09:14:57.000Z</time>
      </trkpt>
      <trkpt lat="42.88266" lon="1.35836">
        <ele>711</ele>
        <time>2025-09-27T09:14:58.000Z</time>
      </trkpt>
      <trkpt lat="42.88263" lon="1.35836">
        <ele>711</ele>
        <time>2025-09-27T09:14:59.000Z</time>
      </trkpt>
      <trkpt lat="42.8826" lon="1.35836">
        <ele>711</ele>
        <time>2025-09-27T09:15:00.000Z</time>
      </trkpt>
      <trkpt lat="42.88257" lon="1.35836">
        <ele>710</ele>
        <time>2025-09-27T09:15:01.000Z</time>
      </trkpt>
      <trkpt lat="42.88253" lon="1.35836">
        <ele>710</ele>
        <time>2025-09-27T09:15:02.000Z</time>
      </trkpt>
      <trkpt lat="42.8825" lon="1.35836">
        <ele>710</ele>
        <time>2025-09-27T09:15:03.000Z</time>
      </trkpt>
      <trkpt lat="42.88247" lon="1.35836">
        <ele>710</ele>
        <time>2025-09-27T09:15:04.000Z</time>
      </trkpt>
      <trkpt lat="42.88243" lon="1.35836">
        <ele>710</ele>
        <time>2025-09-27T09:15:05.000Z</time>
      </trkpt>
      <trkpt lat="42.8824" lon="1.35835">
        <ele>710</ele>
        <time>2025-09-27T09:15:06.000Z</time>
      </trkpt>
      <trkpt lat="42.88237" lon="1.35834">
        <ele>711</ele>
        <time>2025-09-27T09:15:07.000Z</time>
      </trkpt>
      <trkpt lat="42.88234" lon="1.35833">
        <ele>711</ele>
        <time>2025-09-27T09:15:08.000Z</time>
      </trkpt>
      <trkpt lat="42.8823" lon="1.35831">
        <ele>712</ele>
        <time>2025-09-27T09:15:09.000Z</time>
      </trkpt>
      <trkpt lat="42.88226" lon="1.3583">
        <ele>712</ele>
        <time>2025-09-27T09:15:10.000Z</time>
      </trkpt>
      <trkpt lat="42.88223" lon="1.35828">
        <ele>712</ele>
        <time>2025-09-27T09:15:11.000Z</time>
      </trkpt>
      <trkpt lat="42.88219" lon="1.35826">
        <ele>712</ele>
        <time>2025-09-27T09:15:12.000Z</time>
      </trkpt>
      <trkpt lat="42.88215" lon="1.35824">
        <ele>712</ele>
        <time>2025-09-27T09:15:13.000Z</time>
      </trkpt>
      <trkpt lat="42.88212" lon="1.35823">
        <ele>712</ele>
        <time>2025-09-27T09:15:14.000Z</time>
      </trkpt>
      <trkpt lat="42.88208" lon="1.35821">
        <ele>712</ele>
        <time>2025-09-27T09:15:15.000Z</time>
      </trkpt>
      <trkpt lat="42.88204" lon="1.35819">
        <ele>712</ele>
        <time>2025-09-27T09:15:16.000Z</time>
      </trkpt>
      <trkpt lat="42.882" lon="1.35816">
        <ele>713</ele>
        <time>2025-09-27T09:15:17.000Z</time>
      </trkpt>
      <trkpt lat="42.88197" lon="1.35813">
        <ele>714</ele>
        <time>2025-09-27T09:15:18.000Z</time>
      </trkpt>
      <trkpt lat="42.88193" lon="1.35811">
        <ele>714</ele>
        <time>2025-09-27T09:15:19.000Z</time>
      </trkpt>
      <trkpt lat="42.88189" lon="1.35811">
        <ele>714</ele>
        <time>2025-09-27T09:15:20.000Z</time>
      </trkpt>
      <trkpt lat="42.88186" lon="1.35811">
        <ele>714</ele>
        <time>2025-09-27T09:15:21.000Z</time>
      </trkpt>
      <trkpt lat="42.88182" lon="1.35811">
        <ele>714</ele>
        <time>2025-09-27T09:15:22.000Z</time>
      </trkpt>
      <trkpt lat="42.88178" lon="1.35811">
        <ele>715</ele>
        <time>2025-09-27T09:15:23.000Z</time>
      </trkpt>
      <trkpt lat="42.88174" lon="1.35811">
        <ele>715</ele>
        <time>2025-09-27T09:15:24.000Z</time>
      </trkpt>
      <trkpt lat="42.88169" lon="1.35809">
        <ele>715</ele>
        <time>2025-09-27T09:15:25.000Z</time>
      </trkpt>
      <trkpt lat="42.88165" lon="1.35808">
        <ele>715</ele>
        <time>2025-09-27T09:15:26.000Z</time>
      </trkpt>
      <trkpt lat="42.8816" lon="1.35808">
        <ele>716</ele>
        <time>2025-09-27T09:15:27.000Z</time>
      </trkpt>
      <trkpt lat="42.88155" lon="1.35808">
        <ele>716</ele>
        <time>2025-09-27T09:15:28.000Z</time>
      </trkpt>
      <trkpt lat="42.88151" lon="1.35809">
        <ele>718</ele>
        <time>2025-09-27T09:15:29.000Z</time>
      </trkpt>
      <trkpt lat="42.88147" lon="1.35811">
        <ele>718</ele>
        <time>2025-09-27T09:15:30.000Z</time>
      </trkpt>
      <trkpt lat="42.88142" lon="1.35813">
        <ele>718</ele>
        <time>2025-09-27T09:15:31.000Z</time>
      </trkpt>
      <trkpt lat="42.88138" lon="1.35815">
        <ele>718</ele>
        <time>2025-09-27T09:15:32.000Z</time>
      </trkpt>
      <trkpt lat="42.88133" lon="1.35816">
        <ele>718</ele>
        <time>2025-09-27T09:15:33.000Z</time>
      </trkpt>
      <trkpt lat="42.88129" lon="1.35818">
        <ele>718</ele>
        <time>2025-09-27T09:15:34.000Z</time>
      </trkpt>
      <trkpt lat="42.88126" lon="1.3582">
        <ele>718</ele>
        <time>2025-09-27T09:15:35.000Z</time>
      </trkpt>
      <trkpt lat="42.88123" lon="1.35822">
        <ele>718</ele>
        <time>2025-09-27T09:15:36.000Z</time>
      </trkpt>
      <trkpt lat="42.88119" lon="1.35824">
        <ele>718</ele>
        <time>2025-09-27T09:15:37.000Z</time>
      </trkpt>
      <trkpt lat="42.88116" lon="1.35827">
        <ele>718</ele>
        <time>2025-09-27T09:15:38.000Z</time>
      </trkpt>
      <trkpt lat="42.88112" lon="1.35829">
        <ele>718</ele>
        <time>2025-09-27T09:15:39.000Z</time>
      </trkpt>
      <trkpt lat="42.88108" lon="1.3583">
        <ele>718</ele>
        <time>2025-09-27T09:15:40.000Z</time>
      </trkpt>
      <trkpt lat="42.88105" lon="1.35834">
        <ele>719</ele>
        <time>2025-09-27T09:15:41.000Z</time>
      </trkpt>
      <trkpt lat="42.88101" lon="1.35837">
        <ele>720</ele>
        <time>2025-09-27T09:15:42.000Z</time>
      </trkpt>
      <trkpt lat="42.88098" lon="1.35842">
        <ele>720</ele>
        <time>2025-09-27T09:15:43.000Z</time>
      </trkpt>
      <trkpt lat="42.88094" lon="1.35846">
        <ele>720</ele>
        <time>2025-09-27T09:15:44.000Z</time>
      </trkpt>
      <trkpt lat="42.88091" lon="1.35851">
        <ele>720</ele>
        <time>2025-09-27T09:15:45.000Z</time>
      </trkpt>
      <trkpt lat="42.88088" lon="1.35854">
        <ele>720</ele>
        <time>2025-09-27T09:15:46.000Z</time>
      </trkpt>
      <trkpt lat="42.88085" lon="1.35858">
        <ele>720</ele>
        <time>2025-09-27T09:15:47.000Z</time>
      </trkpt>
      <trkpt lat="42.88081" lon="1.35862">
        <ele>720</ele>
        <time>2025-09-27T09:15:48.000Z</time>
      </trkpt>
      <trkpt lat="42.88077" lon="1.35865">
        <ele>720</ele>
        <time>2025-09-27T09:15:49.000Z</time>
      </trkpt>
      <trkpt lat="42.88073" lon="1.35867">
        <ele>721</ele>
        <time>2025-09-27T09:15:50.000Z</time>
      </trkpt>
      <trkpt lat="42.88068" lon="1.35868">
        <ele>721</ele>
        <time>2025-09-27T09:15:51.000Z</time>
      </trkpt>
      <trkpt lat="42.88064" lon="1.35868">
        <ele>722</ele>
        <time>2025-09-27T09:15:52.000Z</time>
      </trkpt>
      <trkpt lat="42.88059" lon="1.35866">
        <ele>723</ele>
        <time>2025-09-27T09:15:53.000Z</time>
      </trkpt>
      <trkpt lat="42.88056" lon="1.35866">
        <ele>723</ele>
        <time>2025-09-27T09:15:54.000Z</time>
      </trkpt>
      <trkpt lat="42.88052" lon="1.35864">
        <ele>724</ele>
        <time>2025-09-27T09:15:55.000Z</time>
      </trkpt>
      <trkpt lat="42.88049" lon="1.35863">
        <ele>724</ele>
        <time>2025-09-27T09:15:56.000Z</time>
      </trkpt>
      <trkpt lat="42.88046" lon="1.3586">
        <ele>724</ele>
        <time>2025-09-27T09:15:57.000Z</time>
      </trkpt>
      <trkpt lat="42.88043" lon="1.35859">
        <ele>723</ele>
        <time>2025-09-27T09:15:58.000Z</time>
      </trkpt>
      <trkpt lat="42.88038" lon="1.35858">
        <ele>724</ele>
        <time>2025-09-27T09:15:59.000Z</time>
      </trkpt>
      <trkpt lat="42.88034" lon="1.35856">
        <ele>724</ele>
        <time>2025-09-27T09:16:00.000Z</time>
      </trkpt>
      <trkpt lat="42.8803" lon="1.35852">
        <ele>724</ele>
        <time>2025-09-27T09:16:01.000Z</time>
      </trkpt>
      <trkpt lat="42.88025" lon="1.35849">
        <ele>724</ele>
        <time>2025-09-27T09:16:02.000Z</time>
      </trkpt>
      <trkpt lat="42.8802" lon="1.35847">
        <ele>725</ele>
        <time>2025-09-27T09:16:03.000Z</time>
      </trkpt>
      <trkpt lat="42.88015" lon="1.35844">
        <ele>726</ele>
        <time>2025-09-27T09:16:04.000Z</time>
      </trkpt>
      <trkpt lat="42.88011" lon="1.35842">
        <ele>727</ele>
        <time>2025-09-27T09:16:05.000Z</time>
      </trkpt>
      <trkpt lat="42.88006" lon="1.3584">
        <ele>728</ele>
        <time>2025-09-27T09:16:06.000Z</time>
      </trkpt>
      <trkpt lat="42.88002" lon="1.3584">
        <ele>729</ele>
        <time>2025-09-27T09:16:07.000Z</time>
      </trkpt>
      <trkpt lat="42.87997" lon="1.35839">
        <ele>729</ele>
        <time>2025-09-27T09:16:08.000Z</time>
      </trkpt>
      <trkpt lat="42.87993" lon="1.35839">
        <ele>730</ele>
        <time>2025-09-27T09:16:09.000Z</time>
      </trkpt>
      <trkpt lat="42.87989" lon="1.3584">
        <ele>730</ele>
        <time>2025-09-27T09:16:10.000Z</time>
      </trkpt>
      <trkpt lat="42.87985" lon="1.35843">
        <ele>730</ele>
        <time>2025-09-27T09:16:11.000Z</time>
      </trkpt>
      <trkpt lat="42.87983" lon="1.35847">
        <ele>730</ele>
        <time>2025-09-27T09:16:12.000Z</time>
      </trkpt>
      <trkpt lat="42.87981" lon="1.35851">
        <ele>731</ele>
        <time>2025-09-27T09:16:13.000Z</time>
      </trkpt>
      <trkpt lat="42.8798" lon="1.35857">
        <ele>731</ele>
        <time>2025-09-27T09:16:14.000Z</time>
      </trkpt>
      <trkpt lat="42.87979" lon="1.35862">
        <ele>731</ele>
        <time>2025-09-27T09:16:15.000Z</time>
      </trkpt>
      <trkpt lat="42.87978" lon="1.35866">
        <ele>732</ele>
        <time>2025-09-27T09:16:16.000Z</time>
      </trkpt>
      <trkpt lat="42.87977" lon="1.3587">
        <ele>732</ele>
        <time>2025-09-27T09:16:17.000Z</time>
      </trkpt>
      <trkpt lat="42.87976" lon="1.35874">
        <ele>732</ele>
        <time>2025-09-27T09:16:18.000Z</time>
      </trkpt>
      <trkpt lat="42.87975" lon="1.35879">
        <ele>732</ele>
        <time>2025-09-27T09:16:19.000Z</time>
      </trkpt>
      <trkpt lat="42.87974" lon="1.35883">
        <ele>732</ele>
        <time>2025-09-27T09:16:20.000Z</time>
      </trkpt>
      <trkpt lat="42.87973" lon="1.35886">
        <ele>731</ele>
        <time>2025-09-27T09:16:21.000Z</time>
      </trkpt>
      <trkpt lat="42.87971" lon="1.3589">
        <ele>731</ele>
        <time>2025-09-27T09:16:22.000Z</time>
      </trkpt>
      <trkpt lat="42.8797" lon="1.35893">
        <ele>731</ele>
        <time>2025-09-27T09:16:23.000Z</time>
      </trkpt>
      <trkpt lat="42.87969" lon="1.35895">
        <ele>731</ele>
        <time>2025-09-27T09:16:24.000Z</time>
      </trkpt>
      <trkpt lat="42.87968" lon="1.35898">
        <ele>731</ele>
        <time>2025-09-27T09:16:25.000Z</time>
      </trkpt>
      <trkpt lat="42.87966" lon="1.35901">
        <ele>731</ele>
        <time>2025-09-27T09:16:26.000Z</time>
      </trkpt>
      <trkpt lat="42.87965" lon="1.35903">
        <ele>731</ele>
        <time>2025-09-27T09:16:27.000Z</time>
      </trkpt>
      <trkpt lat="42.87964" lon="1.35906">
        <ele>730</ele>
        <time>2025-09-27T09:16:28.000Z</time>
      </trkpt>
      <trkpt lat="42.87963" lon="1.3591">
        <ele>730</ele>
        <time>2025-09-27T09:16:29.000Z</time>
      </trkpt>
      <trkpt lat="42.87962" lon="1.35913">
        <ele>730</ele>
        <time>2025-09-27T09:16:30.000Z</time>
      </trkpt>
      <trkpt lat="42.8796" lon="1.35916">
        <ele>730</ele>
        <time>2025-09-27T09:16:31.000Z</time>
      </trkpt>
      <trkpt lat="42.87959" lon="1.35918">
        <ele>730</ele>
        <time>2025-09-27T09:16:32.000Z</time>
      </trkpt>
      <trkpt lat="42.87957" lon="1.35921">
        <ele>730</ele>
        <time>2025-09-27T09:16:33.000Z</time>
      </trkpt>
      <trkpt lat="42.87955" lon="1.35924">
        <ele>730</ele>
        <time>2025-09-27T09:16:34.000Z</time>
      </trkpt>
      <trkpt lat="42.87954" lon="1.35927">
        <ele>730</ele>
        <time>2025-09-27T09:16:35.000Z</time>
      </trkpt>
      <trkpt lat="42.87952" lon="1.3593">
        <ele>730</ele>
        <time>2025-09-27T09:16:36.000Z</time>
      </trkpt>
      <trkpt lat="42.8795" lon="1.35933">
        <ele>730</ele>
        <time>2025-09-27T09:16:37.000Z</time>
      </trkpt>
      <trkpt lat="42.87949" lon="1.35935">
        <ele>730</ele>
        <time>2025-09-27T09:16:38.000Z</time>
      </trkpt>
      <trkpt lat="42.87948" lon="1.35937">
        <ele>730</ele>
        <time>2025-09-27T09:16:39.000Z</time>
      </trkpt>
      <trkpt lat="42.87948" lon="1.35941">
        <ele>730</ele>
        <time>2025-09-27T09:16:40.000Z</time>
      </trkpt>
      <trkpt lat="42.87946" lon="1.35943">
        <ele>730</ele>
        <time>2025-09-27T09:16:41.000Z</time>
      </trkpt>
      <trkpt lat="42.87945" lon="1.35946">
        <ele>730</ele>
        <time>2025-09-27T09:16:42.000Z</time>
      </trkpt>
      <trkpt lat="42.87944" lon="1.35949">
        <ele>731</ele>
        <time>2025-09-27T09:16:43.000Z</time>
      </trkpt>
      <trkpt lat="42.87942" lon="1.35951">
        <ele>731</ele>
        <time>2025-09-27T09:16:44.000Z</time>
      </trkpt>
      <trkpt lat="42.8794" lon="1.35953">
        <ele>731</ele>
        <time>2025-09-27T09:16:45.000Z</time>
      </trkpt>
      <trkpt lat="42.87939" lon="1.35955">
        <ele>731</ele>
        <time>2025-09-27T09:16:46.000Z</time>
      </trkpt>
      <trkpt lat="42.87937" lon="1.35957">
        <ele>731</ele>
        <time>2025-09-27T09:16:47.000Z</time>
      </trkpt>
      <trkpt lat="42.87935" lon="1.35959">
        <ele>731</ele>
        <time>2025-09-27T09:16:48.000Z</time>
      </trkpt>
      <trkpt lat="42.87933" lon="1.3596">
        <ele>731</ele>
        <time>2025-09-27T09:16:49.000Z</time>
      </trkpt>
      <trkpt lat="42.87931" lon="1.35961">
        <ele>731</ele>
        <time>2025-09-27T09:16:50.000Z</time>
      </trkpt>
      <trkpt lat="42.87929" lon="1.35963">
        <ele>731</ele>
        <time>2025-09-27T09:16:51.000Z</time>
      </trkpt>
      <trkpt lat="42.87927" lon="1.35966">
        <ele>732</ele>
        <time>2025-09-27T09:16:52.000Z</time>
      </trkpt>
      <trkpt lat="42.87925" lon="1.35968">
        <ele>732</ele>
        <time>2025-09-27T09:16:53.000Z</time>
      </trkpt>
      <trkpt lat="42.87923" lon="1.3597">
        <ele>732</ele>
        <time>2025-09-27T09:16:54.000Z</time>
      </trkpt>
      <trkpt lat="42.8792" lon="1.35972">
        <ele>732</ele>
        <time>2025-09-27T09:16:55.000Z</time>
      </trkpt>
      <trkpt lat="42.87918" lon="1.35975">
        <ele>732</ele>
        <time>2025-09-27T09:16:56.000Z</time>
      </trkpt>
      <trkpt lat="42.87915" lon="1.35976">
        <ele>733</ele>
        <time>2025-09-27T09:16:57.000Z</time>
      </trkpt>
      <trkpt lat="42.87912" lon="1.35978">
        <ele>733</ele>
        <time>2025-09-27T09:16:58.000Z</time>
      </trkpt>
      <trkpt lat="42.8791" lon="1.3598">
        <ele>733</ele>
        <time>2025-09-27T09:16:59.000Z</time>
      </trkpt>
      <trkpt lat="42.87908" lon="1.35982">
        <ele>733</ele>
        <time>2025-09-27T09:17:00.000Z</time>
      </trkpt>
      <trkpt lat="42.87905" lon="1.35983">
        <ele>734</ele>
        <time>2025-09-27T09:17:01.000Z</time>
      </trkpt>
      <trkpt lat="42.87902" lon="1.35985">
        <ele>734</ele>
        <time>2025-09-27T09:17:02.000Z</time>
      </trkpt>
      <trkpt lat="42.879" lon="1.35987">
        <ele>734</ele>
        <time>2025-09-27T09:17:03.000Z</time>
      </trkpt>
      <trkpt lat="42.87897" lon="1.35989">
        <ele>735</ele>
        <time>2025-09-27T09:17:04.000Z</time>
      </trkpt>
      <trkpt lat="42.87894" lon="1.35992">
        <ele>735</ele>
        <time>2025-09-27T09:17:05.000Z</time>
      </trkpt>
      <trkpt lat="42.87892" lon="1.35994">
        <ele>735</ele>
        <time>2025-09-27T09:17:06.000Z</time>
      </trkpt>
      <trkpt lat="42.87889" lon="1.35997">
        <ele>735</ele>
        <time>2025-09-27T09:17:07.000Z</time>
      </trkpt>
      <trkpt lat="42.87887" lon="1.35999">
        <ele>735</ele>
        <time>2025-09-27T09:17:08.000Z</time>
      </trkpt>
      <trkpt lat="42.87884" lon="1.36002">
        <ele>736</ele>
        <time>2025-09-27T09:17:09.000Z</time>
      </trkpt>
      <trkpt lat="42.87882" lon="1.36005">
        <ele>736</ele>
        <time>2025-09-27T09:17:10.000Z</time>
      </trkpt>
      <trkpt lat="42.87879" lon="1.36007">
        <ele>736</ele>
        <time>2025-09-27T09:17:11.000Z</time>
      </trkpt>
      <trkpt lat="42.87877" lon="1.36009">
        <ele>736</ele>
        <time>2025-09-27T09:17:12.000Z</time>
      </trkpt>
      <trkpt lat="42.87874" lon="1.36011">
        <ele>736</ele>
        <time>2025-09-27T09:17:13.000Z</time>
      </trkpt>
      <trkpt lat="42.87873" lon="1.36013">
        <ele>736</ele>
        <time>2025-09-27T09:17:14.000Z</time>
      </trkpt>
      <trkpt lat="42.87871" lon="1.36015">
        <ele>736</ele>
        <time>2025-09-27T09:17:15.000Z</time>
      </trkpt>
      <trkpt lat="42.87868" lon="1.36018">
        <ele>736</ele>
        <time>2025-09-27T09:17:16.000Z</time>
      </trkpt>
      <trkpt lat="42.87867" lon="1.36021">
        <ele>736</ele>
        <time>2025-09-27T09:17:17.000Z</time>
      </trkpt>
      <trkpt lat="42.87865" lon="1.36024">
        <ele>736</ele>
        <time>2025-09-27T09:17:18.000Z</time>
      </trkpt>
      <trkpt lat="42.87862" lon="1.36027">
        <ele>737</ele>
        <time>2025-09-27T09:17:19.000Z</time>
      </trkpt>
      <trkpt lat="42.8786" lon="1.36028">
        <ele>737</ele>
        <time>2025-09-27T09:17:20.000Z</time>
      </trkpt>
      <trkpt lat="42.87858" lon="1.3603">
        <ele>737</ele>
        <time>2025-09-27T09:17:21.000Z</time>
      </trkpt>
      <trkpt lat="42.87856" lon="1.36032">
        <ele>738</ele>
        <time>2025-09-27T09:17:22.000Z</time>
      </trkpt>
      <trkpt lat="42.87854" lon="1.36035">
        <ele>738</ele>
        <time>2025-09-27T09:17:23.000Z</time>
      </trkpt>
      <trkpt lat="42.87851" lon="1.36038">
        <ele>738</ele>
        <time>2025-09-27T09:17:24.000Z</time>
      </trkpt>
      <trkpt lat="42.8785" lon="1.36041">
        <ele>738</ele>
        <time>2025-09-27T09:17:25.000Z</time>
      </trkpt>
      <trkpt lat="42.87848" lon="1.36043">
        <ele>739</ele>
        <time>2025-09-27T09:17:26.000Z</time>
      </trkpt>
      <trkpt lat="42.87846" lon="1.36045">
        <ele>740</ele>
        <time>2025-09-27T09:17:27.000Z</time>
      </trkpt>
      <trkpt lat="42.87844" lon="1.36048">
        <ele>740</ele>
        <time>2025-09-27T09:17:28.000Z</time>
      </trkpt>
      <trkpt lat="42.87842" lon="1.36052">
        <ele>740</ele>
        <time>2025-09-27T09:17:29.000Z</time>
      </trkpt>
      <trkpt lat="42.8784" lon="1.36056">
        <ele>741</ele>
        <time>2025-09-27T09:17:30.000Z</time>
      </trkpt>
      <trkpt lat="42.87838" lon="1.3606">
        <ele>741</ele>
        <time>2025-09-27T09:17:31.000Z</time>
      </trkpt>
      <trkpt lat="42.87835" lon="1.36063">
        <ele>740</ele>
        <time>2025-09-27T09:17:32.000Z</time>
      </trkpt>
      <trkpt lat="42.87833" lon="1.36066">
        <ele>740</ele>
        <time>2025-09-27T09:17:33.000Z</time>
      </trkpt>
      <trkpt lat="42.87832" lon="1.3607">
        <ele>740</ele>
        <time>2025-09-27T09:17:34.000Z</time>
      </trkpt>
      <trkpt lat="42.8783" lon="1.36073">
        <ele>741</ele>
        <time>2025-09-27T09:17:35.000Z</time>
      </trkpt>
      <trkpt lat="42.87829" lon="1.36076">
        <ele>741</ele>
        <time>2025-09-27T09:17:36.000Z</time>
      </trkpt>
      <trkpt lat="42.87827" lon="1.36079">
        <ele>741</ele>
        <time>2025-09-27T09:17:37.000Z</time>
      </trkpt>
      <trkpt lat="42.87826" lon="1.36083">
        <ele>742</ele>
        <time>2025-09-27T09:17:38.000Z</time>
      </trkpt>
      <trkpt lat="42.87824" lon="1.36087">
        <ele>741</ele>
        <time>2025-09-27T09:17:39.000Z</time>
      </trkpt>
      <trkpt lat="42.87822" lon="1.36091">
        <ele>742</ele>
        <time>2025-09-27T09:17:40.000Z</time>
      </trkpt>
      <trkpt lat="42.8782" lon="1.36094">
        <ele>741</ele>
        <time>2025-09-27T09:17:41.000Z</time>
      </trkpt>
      <trkpt lat="42.87819" lon="1.36097">
        <ele>741</ele>
        <time>2025-09-27T09:17:42.000Z</time>
      </trkpt>
      <trkpt lat="42.87817" lon="1.361">
        <ele>742</ele>
        <time>2025-09-27T09:17:43.000Z</time>
      </trkpt>
      <trkpt lat="42.87815" lon="1.36104">
        <ele>742</ele>
        <time>2025-09-27T09:17:44.000Z</time>
      </trkpt>
      <trkpt lat="42.87814" lon="1.36109">
        <ele>742</ele>
        <time>2025-09-27T09:17:45.000Z</time>
      </trkpt>
      <trkpt lat="42.87812" lon="1.36113">
        <ele>741</ele>
        <time>2025-09-27T09:17:46.000Z</time>
      </trkpt>
      <trkpt lat="42.87811" lon="1.36118">
        <ele>742</ele>
        <time>2025-09-27T09:17:47.000Z</time>
      </trkpt>
      <trkpt lat="42.8781" lon="1.36123">
        <ele>741</ele>
        <time>2025-09-27T09:17:48.000Z</time>
      </trkpt>
      <trkpt lat="42.87808" lon="1.36129">
        <ele>741</ele>
        <time>2025-09-27T09:17:49.000Z</time>
      </trkpt>
      <trkpt lat="42.87807" lon="1.36135">
        <ele>741</ele>
        <time>2025-09-27T09:17:50.000Z</time>
      </trkpt>
      <trkpt lat="42.87805" lon="1.36142">
        <ele>741</ele>
        <time>2025-09-27T09:17:51.000Z</time>
      </trkpt>
      <trkpt lat="42.87803" lon="1.36147">
        <ele>742</ele>
        <time>2025-09-27T09:17:52.000Z</time>
      </trkpt>
      <trkpt lat="42.87802" lon="1.36153">
        <ele>743</ele>
        <time>2025-09-27T09:17:53.000Z</time>
      </trkpt>
      <trkpt lat="42.87801" lon="1.36159">
        <ele>743</ele>
        <time>2025-09-27T09:17:54.000Z</time>
      </trkpt>
      <trkpt lat="42.87799" lon="1.36165">
        <ele>743</ele>
        <time>2025-09-27T09:17:55.000Z</time>
      </trkpt>
      <trkpt lat="42.87798" lon="1.36171">
        <ele>744</ele>
        <time>2025-09-27T09:17:56.000Z</time>
      </trkpt>
      <trkpt lat="42.87797" lon="1.36176">
        <ele>743</ele>
        <time>2025-09-27T09:17:57.000Z</time>
      </trkpt>
      <trkpt lat="42.87796" lon="1.36182">
        <ele>744</ele>
        <time>2025-09-27T09:17:58.000Z</time>
      </trkpt>
      <trkpt lat="42.87794" lon="1.36188">
        <ele>744</ele>
        <time>2025-09-27T09:17:59.000Z</time>
      </trkpt>
      <trkpt lat="42.87793" lon="1.36194">
        <ele>744</ele>
        <time>2025-09-27T09:18:00.000Z</time>
      </trkpt>
      <trkpt lat="42.87791" lon="1.36199">
        <ele>744</ele>
        <time>2025-09-27T09:18:01.000Z</time>
      </trkpt>
      <trkpt lat="42.8779" lon="1.36206">
        <ele>745</ele>
        <time>2025-09-27T09:18:02.000Z</time>
      </trkpt>
      <trkpt lat="42.87789" lon="1.36213">
        <ele>745</ele>
        <time>2025-09-27T09:18:03.000Z</time>
      </trkpt>
      <trkpt lat="42.87788" lon="1.3622">
        <ele>745</ele>
        <time>2025-09-27T09:18:04.000Z</time>
      </trkpt>
      <trkpt lat="42.87788" lon="1.36226">
        <ele>745</ele>
        <time>2025-09-27T09:18:05.000Z</time>
      </trkpt>
      <trkpt lat="42.87787" lon="1.36234">
        <ele>746</ele>
        <time>2025-09-27T09:18:06.000Z</time>
      </trkpt>
      <trkpt lat="42.87787" lon="1.36241">
        <ele>745</ele>
        <time>2025-09-27T09:18:07.000Z</time>
      </trkpt>
      <trkpt lat="42.87787" lon="1.36248">
        <ele>745</ele>
        <time>2025-09-27T09:18:08.000Z</time>
      </trkpt>
      <trkpt lat="42.87786" lon="1.36256">
        <ele>745</ele>
        <time>2025-09-27T09:18:09.000Z</time>
      </trkpt>
      <trkpt lat="42.87786" lon="1.36262">
        <ele>745</ele>
        <time>2025-09-27T09:18:10.000Z</time>
      </trkpt>
      <trkpt lat="42.87786" lon="1.3627">
        <ele>745</ele>
        <time>2025-09-27T09:18:11.000Z</time>
      </trkpt>
      <trkpt lat="42.87786" lon="1.36277">
        <ele>745</ele>
        <time>2025-09-27T09:18:12.000Z</time>
      </trkpt>
      <trkpt lat="42.87785" lon="1.36284">
        <ele>744</ele>
        <time>2025-09-27T09:18:13.000Z</time>
      </trkpt>
      <trkpt lat="42.87785" lon="1.3629">
        <ele>744</ele>
        <time>2025-09-27T09:18:14.000Z</time>
      </trkpt>
      <trkpt lat="42.87785" lon="1.36296">
        <ele>745</ele>
        <time>2025-09-27T09:18:15.000Z</time>
      </trkpt>
      <trkpt lat="42.87786" lon="1.36301">
        <ele>745</ele>
        <time>2025-09-27T09:18:16.000Z</time>
      </trkpt>
      <trkpt lat="42.87786" lon="1.36306">
        <ele>745</ele>
        <time>2025-09-27T09:18:17.000Z</time>
      </trkpt>
      <trkpt lat="42.87787" lon="1.36313">
        <ele>745</ele>
        <time>2025-09-27T09:18:18.000Z</time>
      </trkpt>
      <trkpt lat="42.87786" lon="1.3632">
        <ele>746</ele>
        <time>2025-09-27T09:18:19.000Z</time>
      </trkpt>
      <trkpt lat="42.87786" lon="1.36324">
        <ele>746</ele>
        <time>2025-09-27T09:18:20.000Z</time>
      </trkpt>
      <trkpt lat="42.87785" lon="1.36329">
        <ele>746</ele>
        <time>2025-09-27T09:18:21.000Z</time>
      </trkpt>
      <trkpt lat="42.87784" lon="1.36334">
        <ele>746</ele>
        <time>2025-09-27T09:18:22.000Z</time>
      </trkpt>
      <trkpt lat="42.87783" lon="1.3634">
        <ele>746</ele>
        <time>2025-09-27T09:18:23.000Z</time>
      </trkpt>
      <trkpt lat="42.87782" lon="1.36344">
        <ele>746</ele>
        <time>2025-09-27T09:18:24.000Z</time>
      </trkpt>
      <trkpt lat="42.87779" lon="1.36351">
        <ele>747</ele>
        <time>2025-09-27T09:18:25.000Z</time>
      </trkpt>
      <trkpt lat="42.87776" lon="1.36355">
        <ele>747</ele>
        <time>2025-09-27T09:18:26.000Z</time>
      </trkpt>
      <trkpt lat="42.87774" lon="1.3636">
        <ele>747</ele>
        <time>2025-09-27T09:18:27.000Z</time>
      </trkpt>
      <trkpt lat="42.8777" lon="1.36366">
        <ele>747</ele>
        <time>2025-09-27T09:18:28.000Z</time>
      </trkpt>
      <trkpt lat="42.87767" lon="1.3637">
        <ele>747</ele>
        <time>2025-09-27T09:18:29.000Z</time>
      </trkpt>
      <trkpt lat="42.87765" lon="1.36374">
        <ele>747</ele>
        <time>2025-09-27T09:18:30.000Z</time>
      </trkpt>
      <trkpt lat="42.87762" lon="1.36378">
        <ele>747</ele>
        <time>2025-09-27T09:18:31.000Z</time>
      </trkpt>
      <trkpt lat="42.8776" lon="1.36382">
        <ele>747</ele>
        <time>2025-09-27T09:18:32.000Z</time>
      </trkpt>
      <trkpt lat="42.87756" lon="1.36387">
        <ele>747</ele>
        <time>2025-09-27T09:18:33.000Z</time>
      </trkpt>
      <trkpt lat="42.87752" lon="1.3639">
        <ele>747</ele>
        <time>2025-09-27T09:18:34.000Z</time>
      </trkpt>
      <trkpt lat="42.87748" lon="1.36394">
        <ele>747</ele>
        <time>2025-09-27T09:18:35.000Z</time>
      </trkpt>
      <trkpt lat="42.87744" lon="1.36397">
        <ele>746</ele>
        <time>2025-09-27T09:18:36.000Z</time>
      </trkpt>
      <trkpt lat="42.8774" lon="1.36401">
        <ele>745</ele>
        <time>2025-09-27T09:18:37.000Z</time>
      </trkpt>
      <trkpt lat="42.87736" lon="1.36407">
        <ele>745</ele>
        <time>2025-09-27T09:18:38.000Z</time>
      </trkpt>
      <trkpt lat="42.87733" lon="1.36411">
        <ele>745</ele>
        <time>2025-09-27T09:18:39.000Z</time>
      </trkpt>
      <trkpt lat="42.87728" lon="1.36413">
        <ele>746</ele>
        <time>2025-09-27T09:18:40.000Z</time>
      </trkpt>
      <trkpt lat="42.87725" lon="1.36417">
        <ele>745</ele>
        <time>2025-09-27T09:18:41.000Z</time>
      </trkpt>
      <trkpt lat="42.87721" lon="1.36419">
        <ele>745</ele>
        <time>2025-09-27T09:18:42.000Z</time>
      </trkpt>
      <trkpt lat="42.87717" lon="1.36422">
        <ele>745</ele>
        <time>2025-09-27T09:18:43.000Z</time>
      </trkpt>
      <trkpt lat="42.87713" lon="1.36423">
        <ele>744</ele>
        <time>2025-09-27T09:18:44.000Z</time>
      </trkpt>
      <trkpt lat="42.87708" lon="1.36424">
        <ele>744</ele>
        <time>2025-09-27T09:18:45.000Z</time>
      </trkpt>
      <trkpt lat="42.87705" lon="1.36425">
        <ele>744</ele>
        <time>2025-09-27T09:18:46.000Z</time>
      </trkpt>
      <trkpt lat="42.877" lon="1.36427">
        <ele>743</ele>
        <time>2025-09-27T09:18:47.000Z</time>
      </trkpt>
      <trkpt lat="42.87696" lon="1.36428">
        <ele>743</ele>
        <time>2025-09-27T09:18:48.000Z</time>
      </trkpt>
      <trkpt lat="42.87691" lon="1.36429">
        <ele>743</ele>
        <time>2025-09-27T09:18:49.000Z</time>
      </trkpt>
      <trkpt lat="42.87688" lon="1.36431">
        <ele>743</ele>
        <time>2025-09-27T09:18:50.000Z</time>
      </trkpt>
      <trkpt lat="42.87684" lon="1.36431">
        <ele>743</ele>
        <time>2025-09-27T09:18:51.000Z</time>
      </trkpt>
      <trkpt lat="42.87679" lon="1.36432">
        <ele>743</ele>
        <time>2025-09-27T09:18:52.000Z</time>
      </trkpt>
      <trkpt lat="42.87675" lon="1.36432">
        <ele>743</ele>
        <time>2025-09-27T09:18:53.000Z</time>
      </trkpt>
      <trkpt lat="42.8767" lon="1.36433">
        <ele>743</ele>
        <time>2025-09-27T09:18:54.000Z</time>
      </trkpt>
      <trkpt lat="42.87666" lon="1.36434">
        <ele>743</ele>
        <time>2025-09-27T09:18:55.000Z</time>
      </trkpt>
      <trkpt lat="42.87662" lon="1.36435">
        <ele>743</ele>
        <time>2025-09-27T09:18:56.000Z</time>
      </trkpt>
      <trkpt lat="42.87657" lon="1.36436">
        <ele>743</ele>
        <time>2025-09-27T09:18:57.000Z</time>
      </trkpt>
      <trkpt lat="42.87653" lon="1.36437">
        <ele>743</ele>
        <time>2025-09-27T09:18:58.000Z</time>
      </trkpt>
      <trkpt lat="42.87648" lon="1.36437">
        <ele>743</ele>
        <time>2025-09-27T09:18:59.000Z</time>
      </trkpt>
      <trkpt lat="42.87644" lon="1.36438">
        <ele>743</ele>
        <time>2025-09-27T09:19:00.000Z</time>
      </trkpt>
      <trkpt lat="42.8764" lon="1.36439">
        <ele>743</ele>
        <time>2025-09-27T09:19:01.000Z</time>
      </trkpt>
      <trkpt lat="42.87636" lon="1.3644">
        <ele>743</ele>
        <time>2025-09-27T09:19:02.000Z</time>
      </trkpt>
      <trkpt lat="42.87631" lon="1.36441">
        <ele>743</ele>
        <time>2025-09-27T09:19:03.000Z</time>
      </trkpt>
      <trkpt lat="42.87627" lon="1.36441">
        <ele>743</ele>
        <time>2025-09-27T09:19:04.000Z</time>
      </trkpt>
      <trkpt lat="42.87623" lon="1.36443">
        <ele>743</ele>
        <time>2025-09-27T09:19:05.000Z</time>
      </trkpt>
      <trkpt lat="42.87619" lon="1.36443">
        <ele>744</ele>
        <time>2025-09-27T09:19:06.000Z</time>
      </trkpt>
      <trkpt lat="42.87616" lon="1.36445">
        <ele>743</ele>
        <time>2025-09-27T09:19:07.000Z</time>
      </trkpt>
      <trkpt lat="42.87612" lon="1.36447">
        <ele>743</ele>
        <time>2025-09-27T09:19:08.000Z</time>
      </trkpt>
      <trkpt lat="42.87608" lon="1.36449">
        <ele>742</ele>
        <time>2025-09-27T09:19:09.000Z</time>
      </trkpt>
      <trkpt lat="42.87604" lon="1.36451">
        <ele>742</ele>
        <time>2025-09-27T09:19:10.000Z</time>
      </trkpt>
      <trkpt lat="42.876" lon="1.36453">
        <ele>742</ele>
        <time>2025-09-27T09:19:11.000Z</time>
      </trkpt>
      <trkpt lat="42.87596" lon="1.36455">
        <ele>742</ele>
        <time>2025-09-27T09:19:12.000Z</time>
      </trkpt>
      <trkpt lat="42.87592" lon="1.36458">
        <ele>742</ele>
        <time>2025-09-27T09:19:13.000Z</time>
      </trkpt>
      <trkpt lat="42.87588" lon="1.36462">
        <ele>742</ele>
        <time>2025-09-27T09:19:14.000Z</time>
      </trkpt>
      <trkpt lat="42.87585" lon="1.36467">
        <ele>743</ele>
        <time>2025-09-27T09:19:15.000Z</time>
      </trkpt>
      <trkpt lat="42.87582" lon="1.3647">
        <ele>743</ele>
        <time>2025-09-27T09:19:16.000Z</time>
      </trkpt>
      <trkpt lat="42.87579" lon="1.36474">
        <ele>743</ele>
        <time>2025-09-27T09:19:17.000Z</time>
      </trkpt>
      <trkpt lat="42.87577" lon="1.36477">
        <ele>742</ele>
        <time>2025-09-27T09:19:18.000Z</time>
      </trkpt>
      <trkpt lat="42.87574" lon="1.36481">
        <ele>742</ele>
        <time>2025-09-27T09:19:19.000Z</time>
      </trkpt>
      <trkpt lat="42.87572" lon="1.36485">
        <ele>742</ele>
        <time>2025-09-27T09:19:20.000Z</time>
      </trkpt>
      <trkpt lat="42.8757" lon="1.36489">
        <ele>742</ele>
        <time>2025-09-27T09:19:21.000Z</time>
      </trkpt>
      <trkpt lat="42.87567" lon="1.36494">
        <ele>742</ele>
        <time>2025-09-27T09:19:22.000Z</time>
      </trkpt>
      <trkpt lat="42.87564" lon="1.36498">
        <ele>742</ele>
        <time>2025-09-27T09:19:23.000Z</time>
      </trkpt>
      <trkpt lat="42.87561" lon="1.36502">
        <ele>741</ele>
        <time>2025-09-27T09:19:24.000Z</time>
      </trkpt>
      <trkpt lat="42.87558" lon="1.36504">
        <ele>742</ele>
        <time>2025-09-27T09:19:25.000Z</time>
      </trkpt>
      <trkpt lat="42.87556" lon="1.36507">
        <ele>742</ele>
        <time>2025-09-27T09:19:26.000Z</time>
      </trkpt>
      <trkpt lat="42.87553" lon="1.3651">
        <ele>743</ele>
        <time>2025-09-27T09:19:27.000Z</time>
      </trkpt>
      <trkpt lat="42.87551" lon="1.36513">
        <ele>743</ele>
        <time>2025-09-27T09:19:28.000Z</time>
      </trkpt>
      <trkpt lat="42.87549" lon="1.36517">
        <ele>742</ele>
        <time>2025-09-27T09:19:29.000Z</time>
      </trkpt>
      <trkpt lat="42.87546" lon="1.3652">
        <ele>742</ele>
        <time>2025-09-27T09:19:30.000Z</time>
      </trkpt>
      <trkpt lat="42.87543" lon="1.36522">
        <ele>742</ele>
        <time>2025-09-27T09:19:31.000Z</time>
      </trkpt>
      <trkpt lat="42.8754" lon="1.36524">
        <ele>741</ele>
        <time>2025-09-27T09:19:32.000Z</time>
      </trkpt>
      <trkpt lat="42.87537" lon="1.36527">
        <ele>742</ele>
        <time>2025-09-27T09:19:33.000Z</time>
      </trkpt>
      <trkpt lat="42.87534" lon="1.3653">
        <ele>741</ele>
        <time>2025-09-27T09:19:34.000Z</time>
      </trkpt>
      <trkpt lat="42.87531" lon="1.36533">
        <ele>741</ele>
        <time>2025-09-27T09:19:35.000Z</time>
      </trkpt>
      <trkpt lat="42.87528" lon="1.36537">
        <ele>740</ele>
        <time>2025-09-27T09:19:36.000Z</time>
      </trkpt>
      <trkpt lat="42.87526" lon="1.3654">
        <ele>740</ele>
        <time>2025-09-27T09:19:37.000Z</time>
      </trkpt>
      <trkpt lat="42.87523" lon="1.36545">
        <ele>740</ele>
        <time>2025-09-27T09:19:38.000Z</time>
      </trkpt>
      <trkpt lat="42.87521" lon="1.36549">
        <ele>740</ele>
        <time>2025-09-27T09:19:39.000Z</time>
      </trkpt>
      <trkpt lat="42.87519" lon="1.36554">
        <ele>740</ele>
        <time>2025-09-27T09:19:40.000Z</time>
      </trkpt>
      <trkpt lat="42.87517" lon="1.3656">
        <ele>739</ele>
        <time>2025-09-27T09:19:41.000Z</time>
      </trkpt>
      <trkpt lat="42.87515" lon="1.36566">
        <ele>739</ele>
        <time>2025-09-27T09:19:42.000Z</time>
      </trkpt>
      <trkpt lat="42.87513" lon="1.36571">
        <ele>739</ele>
        <time>2025-09-27T09:19:43.000Z</time>
      </trkpt>
      <trkpt lat="42.8751" lon="1.36577">
        <ele>739</ele>
        <time>2025-09-27T09:19:44.000Z</time>
      </trkpt>
      <trkpt lat="42.87507" lon="1.36585">
        <ele>739</ele>
        <time>2025-09-27T09:19:45.000Z</time>
      </trkpt>
      <trkpt lat="42.87504" lon="1.36591">
        <ele>739</ele>
        <time>2025-09-27T09:19:46.000Z</time>
      </trkpt>
      <trkpt lat="42.87502" lon="1.36598">
        <ele>739</ele>
        <time>2025-09-27T09:19:47.000Z</time>
      </trkpt>
      <trkpt lat="42.87499" lon="1.36605">
        <ele>740</ele>
        <time>2025-09-27T09:19:48.000Z</time>
      </trkpt>
      <trkpt lat="42.87495" lon="1.36612">
        <ele>740</ele>
        <time>2025-09-27T09:19:49.000Z</time>
      </trkpt>
      <trkpt lat="42.87492" lon="1.36617">
        <ele>740</ele>
        <time>2025-09-27T09:19:50.000Z</time>
      </trkpt>
      <trkpt lat="42.87488" lon="1.36622">
        <ele>741</ele>
        <time>2025-09-27T09:19:51.000Z</time>
      </trkpt>
      <trkpt lat="42.87484" lon="1.36627">
        <ele>741</ele>
        <time>2025-09-27T09:19:52.000Z</time>
      </trkpt>
      <trkpt lat="42.8748" lon="1.36632">
        <ele>741</ele>
        <time>2025-09-27T09:19:53.000Z</time>
      </trkpt>
      <trkpt lat="42.87476" lon="1.36637">
        <ele>741</ele>
        <time>2025-09-27T09:19:54.000Z</time>
      </trkpt>
      <trkpt lat="42.87472" lon="1.36642">
        <ele>741</ele>
        <time>2025-09-27T09:19:55.000Z</time>
      </trkpt>
      <trkpt lat="42.87468" lon="1.36647">
        <ele>741</ele>
        <time>2025-09-27T09:19:56.000Z</time>
      </trkpt>
      <trkpt lat="42.87464" lon="1.36651">
        <ele>741</ele>
        <time>2025-09-27T09:19:57.000Z</time>
      </trkpt>
      <trkpt lat="42.8746" lon="1.36656">
        <ele>741</ele>
        <time>2025-09-27T09:19:58.000Z</time>
      </trkpt>
      <trkpt lat="42.87456" lon="1.36661">
        <ele>741</ele>
        <time>2025-09-27T09:19:59.000Z</time>
      </trkpt>
      <trkpt lat="42.87453" lon="1.36666">
        <ele>741</ele>
        <time>2025-09-27T09:20:00.000Z</time>
      </trkpt>
      <trkpt lat="42.87451" lon="1.3667">
        <ele>741</ele>
        <time>2025-09-27T09:20:01.000Z</time>
      </trkpt>
      <trkpt lat="42.87448" lon="1.36675">
        <ele>741</ele>
        <time>2025-09-27T09:20:02.000Z</time>
      </trkpt>
      <trkpt lat="42.87446" lon="1.36681">
        <ele>741</ele>
        <time>2025-09-27T09:20:03.000Z</time>
      </trkpt>
      <trkpt lat="42.87442" lon="1.36688">
        <ele>741</ele>
        <time>2025-09-27T09:20:04.000Z</time>
      </trkpt>
      <trkpt lat="42.8744" lon="1.36693">
        <ele>740</ele>
        <time>2025-09-27T09:20:05.000Z</time>
      </trkpt>
      <trkpt lat="42.87436" lon="1.36699">
        <ele>740</ele>
        <time>2025-09-27T09:20:06.000Z</time>
      </trkpt>
      <trkpt lat="42.87434" lon="1.36703">
        <ele>739</ele>
        <time>2025-09-27T09:20:07.000Z</time>
      </trkpt>
      <trkpt lat="42.8743" lon="1.36708">
        <ele>739</ele>
        <time>2025-09-27T09:20:08.000Z</time>
      </trkpt>
      <trkpt lat="42.87427" lon="1.36713">
        <ele>739</ele>
        <time>2025-09-27T09:20:09.000Z</time>
      </trkpt>
      <trkpt lat="42.87425" lon="1.36717">
        <ele>740</ele>
        <time>2025-09-27T09:20:10.000Z</time>
      </trkpt>
      <trkpt lat="42.87422" lon="1.36723">
        <ele>739</ele>
        <time>2025-09-27T09:20:11.000Z</time>
      </trkpt>
      <trkpt lat="42.87418" lon="1.36729">
        <ele>739</ele>
        <time>2025-09-27T09:20:12.000Z</time>
      </trkpt>
      <trkpt lat="42.87416" lon="1.36733">
        <ele>739</ele>
        <time>2025-09-27T09:20:13.000Z</time>
      </trkpt>
      <trkpt lat="42.87412" lon="1.36737">
        <ele>739</ele>
        <time>2025-09-27T09:20:14.000Z</time>
      </trkpt>
      <trkpt lat="42.87409" lon="1.36742">
        <ele>739</ele>
        <time>2025-09-27T09:20:15.000Z</time>
      </trkpt>
      <trkpt lat="42.87406" lon="1.36747">
        <ele>739</ele>
        <time>2025-09-27T09:20:16.000Z</time>
      </trkpt>
      <trkpt lat="42.87403" lon="1.36752">
        <ele>739</ele>
        <time>2025-09-27T09:20:17.000Z</time>
      </trkpt>
      <trkpt lat="42.874" lon="1.36757">
        <ele>739</ele>
        <time>2025-09-27T09:20:18.000Z</time>
      </trkpt>
      <trkpt lat="42.87397" lon="1.36762">
        <ele>739</ele>
        <time>2025-09-27T09:20:19.000Z</time>
      </trkpt>
      <trkpt lat="42.87394" lon="1.36766">
        <ele>738</ele>
        <time>2025-09-27T09:20:20.000Z</time>
      </trkpt>
      <trkpt lat="42.87392" lon="1.36771">
        <ele>738</ele>
        <time>2025-09-27T09:20:21.000Z</time>
      </trkpt>
      <trkpt lat="42.87388" lon="1.36775">
        <ele>739</ele>
        <time>2025-09-27T09:20:22.000Z</time>
      </trkpt>
      <trkpt lat="42.87385" lon="1.36779">
        <ele>740</ele>
        <time>2025-09-27T09:20:23.000Z</time>
      </trkpt>
      <trkpt lat="42.87383" lon="1.36784">
        <ele>741</ele>
        <time>2025-09-27T09:20:24.000Z</time>
      </trkpt>
      <trkpt lat="42.8738" lon="1.36787">
        <ele>741</ele>
        <time>2025-09-27T09:20:25.000Z</time>
      </trkpt>
      <trkpt lat="42.87377" lon="1.36791">
        <ele>741</ele>
        <time>2025-09-27T09:20:26.000Z</time>
      </trkpt>
      <trkpt lat="42.87374" lon="1.36796">
        <ele>741</ele>
        <time>2025-09-27T09:20:27.000Z</time>
      </trkpt>
      <trkpt lat="42.8737" lon="1.36802">
        <ele>741</ele>
        <time>2025-09-27T09:20:28.000Z</time>
      </trkpt>
      <trkpt lat="42.87368" lon="1.36807">
        <ele>741</ele>
        <time>2025-09-27T09:20:29.000Z</time>
      </trkpt>
      <trkpt lat="42.87366" lon="1.36812">
        <ele>741</ele>
        <time>2025-09-27T09:20:30.000Z</time>
      </trkpt>
      <trkpt lat="42.87364" lon="1.36817">
        <ele>741</ele>
        <time>2025-09-27T09:20:31.000Z</time>
      </trkpt>
      <trkpt lat="42.87362" lon="1.36823">
        <ele>741</ele>
        <time>2025-09-27T09:20:32.000Z</time>
      </trkpt>
      <trkpt lat="42.8736" lon="1.3683">
        <ele>741</ele>
        <time>2025-09-27T09:20:33.000Z</time>
      </trkpt>
      <trkpt lat="42.87357" lon="1.36835">
        <ele>741</ele>
        <time>2025-09-27T09:20:34.000Z</time>
      </trkpt>
      <trkpt lat="42.87354" lon="1.36841">
        <ele>742</ele>
        <time>2025-09-27T09:20:35.000Z</time>
      </trkpt>
      <trkpt lat="42.87352" lon="1.36846">
        <ele>742</ele>
        <time>2025-09-27T09:20:36.000Z</time>
      </trkpt>
      <trkpt lat="42.87349" lon="1.36851">
        <ele>742</ele>
        <time>2025-09-27T09:20:37.000Z</time>
      </trkpt>
      <trkpt lat="42.87347" lon="1.36857">
        <ele>742</ele>
        <time>2025-09-27T09:20:38.000Z</time>
      </trkpt>
      <trkpt lat="42.87345" lon="1.36862">
        <ele>742</ele>
        <time>2025-09-27T09:20:39.000Z</time>
      </trkpt>
      <trkpt lat="42.87342" lon="1.36867">
        <ele>743</ele>
        <time>2025-09-27T09:20:40.000Z</time>
      </trkpt>
      <trkpt lat="42.8734" lon="1.36873">
        <ele>743</ele>
        <time>2025-09-27T09:20:41.000Z</time>
      </trkpt>
      <trkpt lat="42.87337" lon="1.36877">
        <ele>743</ele>
        <time>2025-09-27T09:20:42.000Z</time>
      </trkpt>
      <trkpt lat="42.87335" lon="1.36882">
        <ele>744</ele>
        <time>2025-09-27T09:20:43.000Z</time>
      </trkpt>
      <trkpt lat="42.87332" lon="1.36887">
        <ele>744</ele>
        <time>2025-09-27T09:20:44.000Z</time>
      </trkpt>
      <trkpt lat="42.8733" lon="1.36891">
        <ele>745</ele>
        <time>2025-09-27T09:20:45.000Z</time>
      </trkpt>
      <trkpt lat="42.87327" lon="1.36897">
        <ele>745</ele>
        <time>2025-09-27T09:20:46.000Z</time>
      </trkpt>
      <trkpt lat="42.87325" lon="1.36901">
        <ele>745</ele>
        <time>2025-09-27T09:20:47.000Z</time>
      </trkpt>
      <trkpt lat="42.87322" lon="1.36907">
        <ele>745</ele>
        <time>2025-09-27T09:20:48.000Z</time>
      </trkpt>
      <trkpt lat="42.8732" lon="1.36912">
        <ele>745</ele>
        <time>2025-09-27T09:20:49.000Z</time>
      </trkpt>
      <trkpt lat="42.87318" lon="1.36917">
        <ele>745</ele>
        <time>2025-09-27T09:20:50.000Z</time>
      </trkpt>
      <trkpt lat="42.87315" lon="1.36922">
        <ele>746</ele>
        <time>2025-09-27T09:20:51.000Z</time>
      </trkpt>
      <trkpt lat="42.87312" lon="1.36927">
        <ele>746</ele>
        <time>2025-09-27T09:20:52.000Z</time>
      </trkpt>
      <trkpt lat="42.8731" lon="1.36932">
        <ele>746</ele>
        <time>2025-09-27T09:20:53.000Z</time>
      </trkpt>
      <trkpt lat="42.87307" lon="1.36937">
        <ele>746</ele>
        <time>2025-09-27T09:20:54.000Z</time>
      </trkpt>
      <trkpt lat="42.87304" lon="1.36942">
        <ele>746</ele>
        <time>2025-09-27T09:20:55.000Z</time>
      </trkpt>
      <trkpt lat="42.87301" lon="1.36947">
        <ele>746</ele>
        <time>2025-09-27T09:20:56.000Z</time>
      </trkpt>
      <trkpt lat="42.87299" lon="1.36952">
        <ele>746</ele>
        <time>2025-09-27T09:20:57.000Z</time>
      </trkpt>
      <trkpt lat="42.87297" lon="1.36956">
        <ele>746</ele>
        <time>2025-09-27T09:20:58.000Z</time>
      </trkpt>
      <trkpt lat="42.87295" lon="1.36961">
        <ele>746</ele>
        <time>2025-09-27T09:20:59.000Z</time>
      </trkpt>
      <trkpt lat="42.87292" lon="1.36966">
        <ele>746</ele>
        <time>2025-09-27T09:21:00.000Z</time>
      </trkpt>
      <trkpt lat="42.87289" lon="1.36971">
        <ele>746</ele>
        <time>2025-09-27T09:21:01.000Z</time>
      </trkpt>
      <trkpt lat="42.87287" lon="1.36976">
        <ele>746</ele>
        <time>2025-09-27T09:21:02.000Z</time>
      </trkpt>
      <trkpt lat="42.87285" lon="1.36981">
        <ele>746</ele>
        <time>2025-09-27T09:21:03.000Z</time>
      </trkpt>
      <trkpt lat="42.87282" lon="1.36986">
        <ele>746</ele>
        <time>2025-09-27T09:21:04.000Z</time>
      </trkpt>
      <trkpt lat="42.87279" lon="1.3699">
        <ele>746</ele>
        <time>2025-09-27T09:21:05.000Z</time>
      </trkpt>
      <trkpt lat="42.87276" lon="1.36995">
        <ele>746</ele>
        <time>2025-09-27T09:21:06.000Z</time>
      </trkpt>
      <trkpt lat="42.87274" lon="1.37">
        <ele>746</ele>
        <time>2025-09-27T09:21:07.000Z</time>
      </trkpt>
      <trkpt lat="42.87272" lon="1.37004">
        <ele>746</ele>
        <time>2025-09-27T09:21:08.000Z</time>
      </trkpt>
      <trkpt lat="42.8727" lon="1.37009">
        <ele>746</ele>
        <time>2025-09-27T09:21:09.000Z</time>
      </trkpt>
      <trkpt lat="42.87267" lon="1.37014">
        <ele>746</ele>
        <time>2025-09-27T09:21:10.000Z</time>
      </trkpt>
      <trkpt lat="42.87265" lon="1.37019">
        <ele>746</ele>
        <time>2025-09-27T09:21:11.000Z</time>
      </trkpt>
      <trkpt lat="42.87263" lon="1.37025">
        <ele>746</ele>
        <time>2025-09-27T09:21:12.000Z</time>
      </trkpt>
      <trkpt lat="42.8726" lon="1.37029">
        <ele>747</ele>
        <time>2025-09-27T09:21:13.000Z</time>
      </trkpt>
      <trkpt lat="42.87258" lon="1.37034">
        <ele>747</ele>
        <time>2025-09-27T09:21:14.000Z</time>
      </trkpt>
      <trkpt lat="42.87256" lon="1.37039">
        <ele>748</ele>
        <time>2025-09-27T09:21:15.000Z</time>
      </trkpt>
      <trkpt lat="42.87253" lon="1.37045">
        <ele>748</ele>
        <time>2025-09-27T09:21:16.000Z</time>
      </trkpt>
      <trkpt lat="42.87251" lon="1.3705">
        <ele>748</ele>
        <time>2025-09-27T09:21:17.000Z</time>
      </trkpt>
      <trkpt lat="42.87248" lon="1.37055">
        <ele>749</ele>
        <time>2025-09-27T09:21:18.000Z</time>
      </trkpt>
      <trkpt lat="42.87246" lon="1.3706">
        <ele>749</ele>
        <time>2025-09-27T09:21:19.000Z</time>
      </trkpt>
      <trkpt lat="42.87243" lon="1.37066">
        <ele>749</ele>
        <time>2025-09-27T09:21:20.000Z</time>
      </trkpt>
      <trkpt lat="42.87241" lon="1.37071">
        <ele>748</ele>
        <time>2025-09-27T09:21:21.000Z</time>
      </trkpt>
      <trkpt lat="42.87239" lon="1.37077">
        <ele>748</ele>
        <time>2025-09-27T09:21:22.000Z</time>
      </trkpt>
      <trkpt lat="42.87236" lon="1.37081">
        <ele>748</ele>
        <time>2025-09-27T09:21:23.000Z</time>
      </trkpt>
      <trkpt lat="42.87234" lon="1.37087">
        <ele>748</ele>
        <time>2025-09-27T09:21:24.000Z</time>
      </trkpt>
      <trkpt lat="42.87232" lon="1.37091">
        <ele>749</ele>
        <time>2025-09-27T09:21:25.000Z</time>
      </trkpt>
      <trkpt lat="42.87229" lon="1.37096">
        <ele>749</ele>
        <time>2025-09-27T09:21:26.000Z</time>
      </trkpt>
      <trkpt lat="42.87227" lon="1.37101">
        <ele>749</ele>
        <time>2025-09-27T09:21:27.000Z</time>
      </trkpt>
      <trkpt lat="42.87225" lon="1.37105">
        <ele>750</ele>
        <time>2025-09-27T09:21:28.000Z</time>
      </trkpt>
      <trkpt lat="42.87223" lon="1.37109">
        <ele>749</ele>
        <time>2025-09-27T09:21:29.000Z</time>
      </trkpt>
      <trkpt lat="42.87221" lon="1.37114">
        <ele>749</ele>
        <time>2025-09-27T09:21:30.000Z</time>
      </trkpt>
      <trkpt lat="42.87219" lon="1.37119">
        <ele>749</ele>
        <time>2025-09-27T09:21:31.000Z</time>
      </trkpt>
      <trkpt lat="42.87217" lon="1.37124">
        <ele>750</ele>
        <time>2025-09-27T09:21:32.000Z</time>
      </trkpt>
      <trkpt lat="42.87215" lon="1.37128">
        <ele>750</ele>
        <time>2025-09-27T09:21:33.000Z</time>
      </trkpt>
      <trkpt lat="42.87212" lon="1.37132">
        <ele>750</ele>
        <time>2025-09-27T09:21:34.000Z</time>
      </trkpt>
      <trkpt lat="42.87209" lon="1.37137">
        <ele>751</ele>
        <time>2025-09-27T09:21:35.000Z</time>
      </trkpt>
      <trkpt lat="42.87207" lon="1.37142">
        <ele>751</ele>
        <time>2025-09-27T09:21:36.000Z</time>
      </trkpt>
      <trkpt lat="42.87204" lon="1.37146">
        <ele>752</ele>
        <time>2025-09-27T09:21:37.000Z</time>
      </trkpt>
      <trkpt lat="42.87201" lon="1.37151">
        <ele>752</ele>
        <time>2025-09-27T09:21:38.000Z</time>
      </trkpt>
      <trkpt lat="42.87198" lon="1.37154">
        <ele>753</ele>
        <time>2025-09-27T09:21:39.000Z</time>
      </trkpt>
      <trkpt lat="42.87196" lon="1.37159">
        <ele>753</ele>
        <time>2025-09-27T09:21:40.000Z</time>
      </trkpt>
      <trkpt lat="42.87193" lon="1.37164">
        <ele>753</ele>
        <time>2025-09-27T09:21:41.000Z</time>
      </trkpt>
      <trkpt lat="42.87191" lon="1.37168">
        <ele>753</ele>
        <time>2025-09-27T09:21:42.000Z</time>
      </trkpt>
      <trkpt lat="42.87188" lon="1.37173">
        <ele>753</ele>
        <time>2025-09-27T09:21:43.000Z</time>
      </trkpt>
      <trkpt lat="42.87186" lon="1.37177">
        <ele>752</ele>
        <time>2025-09-27T09:21:44.000Z</time>
      </trkpt>
      <trkpt lat="42.87183" lon="1.37181">
        <ele>752</ele>
        <time>2025-09-27T09:21:45.000Z</time>
      </trkpt>
      <trkpt lat="42.87181" lon="1.37184">
        <ele>752</ele>
        <time>2025-09-27T09:21:46.000Z</time>
      </trkpt>
      <trkpt lat="42.87178" lon="1.37187">
        <ele>752</ele>
        <time>2025-09-27T09:21:47.000Z</time>
      </trkpt>
      <trkpt lat="42.87175" lon="1.3719">
        <ele>752</ele>
        <time>2025-09-27T09:21:48.000Z</time>
      </trkpt>
      <trkpt lat="42.87171" lon="1.37194">
        <ele>752</ele>
        <time>2025-09-27T09:21:49.000Z</time>
      </trkpt>
      <trkpt lat="42.87166" lon="1.37197">
        <ele>752</ele>
        <time>2025-09-27T09:21:50.000Z</time>
      </trkpt>
      <trkpt lat="42.87162" lon="1.37201">
        <ele>752</ele>
        <time>2025-09-27T09:21:51.000Z</time>
      </trkpt>
      <trkpt lat="42.87158" lon="1.37205">
        <ele>752</ele>
        <time>2025-09-27T09:21:52.000Z</time>
      </trkpt>
      <trkpt lat="42.87155" lon="1.37208">
        <ele>752</ele>
        <time>2025-09-27T09:21:53.000Z</time>
      </trkpt>
      <trkpt lat="42.87151" lon="1.37211">
        <ele>752</ele>
        <time>2025-09-27T09:21:54.000Z</time>
      </trkpt>
      <trkpt lat="42.87147" lon="1.37214">
        <ele>752</ele>
        <time>2025-09-27T09:21:55.000Z</time>
      </trkpt>
      <trkpt lat="42.87144" lon="1.37218">
        <ele>752</ele>
        <time>2025-09-27T09:21:56.000Z</time>
      </trkpt>
      <trkpt lat="42.87141" lon="1.37222">
        <ele>752</ele>
        <time>2025-09-27T09:21:57.000Z</time>
      </trkpt>
      <trkpt lat="42.87139" lon="1.37225">
        <ele>752</ele>
        <time>2025-09-27T09:21:58.000Z</time>
      </trkpt>
      <trkpt lat="42.87136" lon="1.37229">
        <ele>752</ele>
        <time>2025-09-27T09:21:59.000Z</time>
      </trkpt>
      <trkpt lat="42.87133" lon="1.37233">
        <ele>752</ele>
        <time>2025-09-27T09:22:00.000Z</time>
      </trkpt>
      <trkpt lat="42.8713" lon="1.37236">
        <ele>752</ele>
        <time>2025-09-27T09:22:01.000Z</time>
      </trkpt>
      <trkpt lat="42.87127" lon="1.3724">
        <ele>751</ele>
        <time>2025-09-27T09:22:02.000Z</time>
      </trkpt>
      <trkpt lat="42.87124" lon="1.37244">
        <ele>751</ele>
        <time>2025-09-27T09:22:03.000Z</time>
      </trkpt>
      <trkpt lat="42.8712" lon="1.37248">
        <ele>752</ele>
        <time>2025-09-27T09:22:04.000Z</time>
      </trkpt>
      <trkpt lat="42.87116" lon="1.37251">
        <ele>752</ele>
        <time>2025-09-27T09:22:05.000Z</time>
      </trkpt>
      <trkpt lat="42.87112" lon="1.37254">
        <ele>752</ele>
        <time>2025-09-27T09:22:06.000Z</time>
      </trkpt>
      <trkpt lat="42.87108" lon="1.37259">
        <ele>752</ele>
        <time>2025-09-27T09:22:07.000Z</time>
      </trkpt>
      <trkpt lat="42.87104" lon="1.37262">
        <ele>751</ele>
        <time>2025-09-27T09:22:08.000Z</time>
      </trkpt>
      <trkpt lat="42.871" lon="1.37264">
        <ele>751</ele>
        <time>2025-09-27T09:22:09.000Z</time>
      </trkpt>
      <trkpt lat="42.87096" lon="1.37266">
        <ele>750</ele>
        <time>2025-09-27T09:22:10.000Z</time>
      </trkpt>
      <trkpt lat="42.87091" lon="1.37268">
        <ele>750</ele>
        <time>2025-09-27T09:22:11.000Z</time>
      </trkpt>
      <trkpt lat="42.87088" lon="1.37268">
        <ele>750</ele>
        <time>2025-09-27T09:22:12.000Z</time>
      </trkpt>
      <trkpt lat="42.87083" lon="1.37268">
        <ele>750</ele>
        <time>2025-09-27T09:22:13.000Z</time>
      </trkpt>
      <trkpt lat="42.87078" lon="1.37268">
        <ele>750</ele>
        <time>2025-09-27T09:22:14.000Z</time>
      </trkpt>
      <trkpt lat="42.87074" lon="1.37268">
        <ele>750</ele>
        <time>2025-09-27T09:22:15.000Z</time>
      </trkpt>
      <trkpt lat="42.87069" lon="1.37268">
        <ele>750</ele>
        <time>2025-09-27T09:22:16.000Z</time>
      </trkpt>
      <trkpt lat="42.87064" lon="1.37267">
        <ele>750</ele>
        <time>2025-09-27T09:22:17.000Z</time>
      </trkpt>
      <trkpt lat="42.8706" lon="1.37268">
        <ele>750</ele>
        <time>2025-09-27T09:22:18.000Z</time>
      </trkpt>
      <trkpt lat="42.87057" lon="1.37269">
        <ele>750</ele>
        <time>2025-09-27T09:22:19.000Z</time>
      </trkpt>
      <trkpt lat="42.87054" lon="1.37269">
        <ele>750</ele>
        <time>2025-09-27T09:22:20.000Z</time>
      </trkpt>
      <trkpt lat="42.87052" lon="1.3727">
        <ele>751</ele>
        <time>2025-09-27T09:22:21.000Z</time>
      </trkpt>
      <trkpt lat="42.8705" lon="1.37272">
        <ele>751</ele>
        <time>2025-09-27T09:22:22.000Z</time>
      </trkpt>
      <trkpt lat="42.87047" lon="1.37273">
        <ele>750</ele>
        <time>2025-09-27T09:22:23.000Z</time>
      </trkpt>
      <trkpt lat="42.87046" lon="1.37273">
        <ele>750</ele>
        <time>2025-09-27T09:22:24.000Z</time>
      </trkpt>
      <trkpt lat="42.87045" lon="1.37272">
        <ele>751</ele>
        <time>2025-09-27T09:22:25.000Z</time>
      </trkpt>
      <trkpt lat="42.87044" lon="1.37272">
        <ele>751</ele>
        <time>2025-09-27T09:22:26.000Z</time>
      </trkpt>
      <trkpt lat="42.87044" lon="1.37272">
        <ele>751</ele>
        <time>2025-09-27T09:22:27.000Z</time>
      </trkpt>
      <trkpt lat="42.87043" lon="1.37272">
        <ele>751</ele>
        <time>2025-09-27T09:22:28.000Z</time>
      </trkpt>
      <trkpt lat="42.87042" lon="1.37271">
        <ele>751</ele>
        <time>2025-09-27T09:22:29.000Z</time>
      </trkpt>
      <trkpt lat="42.87041" lon="1.37271">
        <ele>751</ele>
        <time>2025-09-27T09:22:30.000Z</time>
      </trkpt>
      <trkpt lat="42.8704" lon="1.37269">
        <ele>751</ele>
        <time>2025-09-27T09:22:31.000Z</time>
      </trkpt>
      <trkpt lat="42.87038" lon="1.37269">
        <ele>751</ele>
        <time>2025-09-27T09:22:32.000Z</time>
      </trkpt>
      <trkpt lat="42.87036" lon="1.37268">
        <ele>751</ele>
        <time>2025-09-27T09:22:33.000Z</time>
      </trkpt>
      <trkpt lat="42.87033" lon="1.37266">
        <ele>751</ele>
        <time>2025-09-27T09:22:34.000Z</time>
      </trkpt>
      <trkpt lat="42.87031" lon="1.37265">
        <ele>751</ele>
        <time>2025-09-27T09:22:35.000Z</time>
      </trkpt>
      <trkpt lat="42.87029" lon="1.37264">
        <ele>751</ele>
        <time>2025-09-27T09:22:36.000Z</time>
      </trkpt>
      <trkpt lat="42.87027" lon="1.37263">
        <ele>752</ele>
        <time>2025-09-27T09:22:37.000Z</time>
      </trkpt>
      <trkpt lat="42.87026" lon="1.37262">
        <ele>751</ele>
        <time>2025-09-27T09:22:38.000Z</time>
      </trkpt>
      <trkpt lat="42.87026" lon="1.3726">
        <ele>751</ele>
        <time>2025-09-27T09:22:39.000Z</time>
      </trkpt>
      <trkpt lat="42.87029" lon="1.37267">
        <ele>746</ele>
        <time>2025-09-27T09:23:10.000Z</time>
      </trkpt>
      <trkpt lat="42.8703" lon="1.37267">
        <ele>746</ele>
        <time>2025-09-27T09:23:11.000Z</time>
      </trkpt>
      <trkpt lat="42.87031" lon="1.37267">
        <ele>746</ele>
        <time>2025-09-27T09:23:12.000Z</time>
      </trkpt>
      <trkpt lat="42.8703" lon="1.37266">
        <ele>746</ele>
        <time>2025-09-27T09:23:13.000Z</time>
      </trkpt>
      <trkpt lat="42.87025" lon="1.37264">
        <ele>747</ele>
        <time>2025-09-27T09:23:49.000Z</time>
      </trkpt>
      <trkpt lat="42.87022" lon="1.37263">
        <ele>748</ele>
        <time>2025-09-27T09:23:50.000Z</time>
      </trkpt>
      <trkpt lat="42.8702" lon="1.37264">
        <ele>748</ele>
        <time>2025-09-27T09:23:51.000Z</time>
      </trkpt>
      <trkpt lat="42.87018" lon="1.37265">
        <ele>748</ele>
        <time>2025-09-27T09:23:52.000Z</time>
      </trkpt>
      <trkpt lat="42.87015" lon="1.37266">
        <ele>748</ele>
        <time>2025-09-27T09:23:53.000Z</time>
      </trkpt>
      <trkpt lat="42.87011" lon="1.37266">
        <ele>748</ele>
        <time>2025-09-27T09:23:54.000Z</time>
      </trkpt>
      <trkpt lat="42.87008" lon="1.37266">
        <ele>748</ele>
        <time>2025-09-27T09:23:55.000Z</time>
      </trkpt>
      <trkpt lat="42.87004" lon="1.37265">
        <ele>748</ele>
        <time>2025-09-27T09:23:56.000Z</time>
      </trkpt>
      <trkpt lat="42.87001" lon="1.37265">
        <ele>749</ele>
        <time>2025-09-27T09:23:57.000Z</time>
      </trkpt>
      <trkpt lat="42.86997" lon="1.37265">
        <ele>749</ele>
        <time>2025-09-27T09:23:58.000Z</time>
      </trkpt>
      <trkpt lat="42.86993" lon="1.37265">
        <ele>749</ele>
        <time>2025-09-27T09:23:59.000Z</time>
      </trkpt>
      <trkpt lat="42.8699" lon="1.37264">
        <ele>750</ele>
        <time>2025-09-27T09:24:00.000Z</time>
      </trkpt>
      <trkpt lat="42.86986" lon="1.37263">
        <ele>750</ele>
        <time>2025-09-27T09:24:01.000Z</time>
      </trkpt>
      <trkpt lat="42.86982" lon="1.37262">
        <ele>750</ele>
        <time>2025-09-27T09:24:02.000Z</time>
      </trkpt>
      <trkpt lat="42.86978" lon="1.37262">
        <ele>750</ele>
        <time>2025-09-27T09:24:03.000Z</time>
      </trkpt>
      <trkpt lat="42.86974" lon="1.37261">
        <ele>751</ele>
        <time>2025-09-27T09:24:04.000Z</time>
      </trkpt>
      <trkpt lat="42.86969" lon="1.37261">
        <ele>753</ele>
        <time>2025-09-27T09:24:05.000Z</time>
      </trkpt>
      <trkpt lat="42.86965" lon="1.3726">
        <ele>755</ele>
        <time>2025-09-27T09:24:06.000Z</time>
      </trkpt>
      <trkpt lat="42.8696" lon="1.37259">
        <ele>755</ele>
        <time>2025-09-27T09:24:07.000Z</time>
      </trkpt>
      <trkpt lat="42.86956" lon="1.37257">
        <ele>755</ele>
        <time>2025-09-27T09:24:08.000Z</time>
      </trkpt>
      <trkpt lat="42.86951" lon="1.37256">
        <ele>756</ele>
        <time>2025-09-27T09:24:09.000Z</time>
      </trkpt>
      <trkpt lat="42.86947" lon="1.37255">
        <ele>756</ele>
        <time>2025-09-27T09:24:10.000Z</time>
      </trkpt>
      <trkpt lat="42.86944" lon="1.37254">
        <ele>756</ele>
        <time>2025-09-27T09:24:11.000Z</time>
      </trkpt>
      <trkpt lat="42.8694" lon="1.37253">
        <ele>756</ele>
        <time>2025-09-27T09:24:12.000Z</time>
      </trkpt>
      <trkpt lat="42.86937" lon="1.37252">
        <ele>756</ele>
        <time>2025-09-27T09:24:13.000Z</time>
      </trkpt>
      <trkpt lat="42.86934" lon="1.37251">
        <ele>756</ele>
        <time>2025-09-27T09:24:14.000Z</time>
      </trkpt>
      <trkpt lat="42.8693" lon="1.3725">
        <ele>756</ele>
        <time>2025-09-27T09:24:15.000Z</time>
      </trkpt>
      <trkpt lat="42.86926" lon="1.37248">
        <ele>756</ele>
        <time>2025-09-27T09:24:16.000Z</time>
      </trkpt>
      <trkpt lat="42.86923" lon="1.37247">
        <ele>756</ele>
        <time>2025-09-27T09:24:17.000Z</time>
      </trkpt>
      <trkpt lat="42.8692" lon="1.37246">
        <ele>756</ele>
        <time>2025-09-27T09:24:18.000Z</time>
      </trkpt>
      <trkpt lat="42.86916" lon="1.37244">
        <ele>756</ele>
        <time>2025-09-27T09:24:19.000Z</time>
      </trkpt>
      <trkpt lat="42.86913" lon="1.37243">
        <ele>756</ele>
        <time>2025-09-27T09:24:20.000Z</time>
      </trkpt>
      <trkpt lat="42.86909" lon="1.37242">
        <ele>755</ele>
        <time>2025-09-27T09:24:21.000Z</time>
      </trkpt>
      <trkpt lat="42.86905" lon="1.37241">
        <ele>755</ele>
        <time>2025-09-27T09:24:22.000Z</time>
      </trkpt>
      <trkpt lat="42.86901" lon="1.3724">
        <ele>755</ele>
        <time>2025-09-27T09:24:23.000Z</time>
      </trkpt>
      <trkpt lat="42.86897" lon="1.37239">
        <ele>755</ele>
        <time>2025-09-27T09:24:24.000Z</time>
      </trkpt>
      <trkpt lat="42.86893" lon="1.37236">
        <ele>754</ele>
        <time>2025-09-27T09:24:25.000Z</time>
      </trkpt>
      <trkpt lat="42.8689" lon="1.37235">
        <ele>754</ele>
        <time>2025-09-27T09:24:26.000Z</time>
      </trkpt>
      <trkpt lat="42.86886" lon="1.37235">
        <ele>754</ele>
        <time>2025-09-27T09:24:27.000Z</time>
      </trkpt>
      <trkpt lat="42.86881" lon="1.37234">
        <ele>754</ele>
        <time>2025-09-27T09:24:28.000Z</time>
      </trkpt>
      <trkpt lat="42.86877" lon="1.37234">
        <ele>755</ele>
        <time>2025-09-27T09:24:29.000Z</time>
      </trkpt>
      <trkpt lat="42.86874" lon="1.37233">
        <ele>755</ele>
        <time>2025-09-27T09:24:30.000Z</time>
      </trkpt>
      <trkpt lat="42.8687" lon="1.37233">
        <ele>756</ele>
        <time>2025-09-27T09:24:31.000Z</time>
      </trkpt>
      <trkpt lat="42.86866" lon="1.37233">
        <ele>756</ele>
        <time>2025-09-27T09:24:32.000Z</time>
      </trkpt>
      <trkpt lat="42.86862" lon="1.37233">
        <ele>757</ele>
        <time>2025-09-27T09:24:33.000Z</time>
      </trkpt>
      <trkpt lat="42.86859" lon="1.37232">
        <ele>757</ele>
        <time>2025-09-27T09:24:34.000Z</time>
      </trkpt>
      <trkpt lat="42.86855" lon="1.37231">
        <ele>757</ele>
        <time>2025-09-27T09:24:35.000Z</time>
      </trkpt>
      <trkpt lat="42.86851" lon="1.37231">
        <ele>757</ele>
        <time>2025-09-27T09:24:36.000Z</time>
      </trkpt>
      <trkpt lat="42.86848" lon="1.37231">
        <ele>757</ele>
        <time>2025-09-27T09:24:37.000Z</time>
      </trkpt>
      <trkpt lat="42.86845" lon="1.37232">
        <ele>757</ele>
        <time>2025-09-27T09:24:38.000Z</time>
      </trkpt>
      <trkpt lat="42.86841" lon="1.37232">
        <ele>757</ele>
        <time>2025-09-27T09:24:39.000Z</time>
      </trkpt>
      <trkpt lat="42.86838" lon="1.37233">
        <ele>757</ele>
        <time>2025-09-27T09:24:40.000Z</time>
      </trkpt>
      <trkpt lat="42.86834" lon="1.37235">
        <ele>758</ele>
        <time>2025-09-27T09:24:41.000Z</time>
      </trkpt>
      <trkpt lat="42.86831" lon="1.37236">
        <ele>758</ele>
        <time>2025-09-27T09:24:42.000Z</time>
      </trkpt>
      <trkpt lat="42.86828" lon="1.37237">
        <ele>758</ele>
        <time>2025-09-27T09:24:43.000Z</time>
      </trkpt>
      <trkpt lat="42.86825" lon="1.37238">
        <ele>758</ele>
        <time>2025-09-27T09:24:44.000Z</time>
      </trkpt>
      <trkpt lat="42.86822" lon="1.3724">
        <ele>758</ele>
        <time>2025-09-27T09:24:45.000Z</time>
      </trkpt>
      <trkpt lat="42.86819" lon="1.3724">
        <ele>758</ele>
        <time>2025-09-27T09:24:46.000Z</time>
      </trkpt>
      <trkpt lat="42.86816" lon="1.37241">
        <ele>758</ele>
        <time>2025-09-27T09:24:47.000Z</time>
      </trkpt>
      <trkpt lat="42.86813" lon="1.37242">
        <ele>758</ele>
        <time>2025-09-27T09:24:48.000Z</time>
      </trkpt>
      <trkpt lat="42.8681" lon="1.37243">
        <ele>758</ele>
        <time>2025-09-27T09:24:49.000Z</time>
      </trkpt>
      <trkpt lat="42.86807" lon="1.37245">
        <ele>758</ele>
        <time>2025-09-27T09:24:50.000Z</time>
      </trkpt>
      <trkpt lat="42.86804" lon="1.37246">
        <ele>758</ele>
        <time>2025-09-27T09:24:51.000Z</time>
      </trkpt>
      <trkpt lat="42.86802" lon="1.37248">
        <ele>758</ele>
        <time>2025-09-27T09:24:52.000Z</time>
      </trkpt>
      <trkpt lat="42.86799" lon="1.3725">
        <ele>758</ele>
        <time>2025-09-27T09:24:53.000Z</time>
      </trkpt>
      <trkpt lat="42.86796" lon="1.37252">
        <ele>758</ele>
        <time>2025-09-27T09:24:54.000Z</time>
      </trkpt>
      <trkpt lat="42.86794" lon="1.37254">
        <ele>758</ele>
        <time>2025-09-27T09:24:55.000Z</time>
      </trkpt>
      <trkpt lat="42.86791" lon="1.37256">
        <ele>759</ele>
        <time>2025-09-27T09:24:56.000Z</time>
      </trkpt>
      <trkpt lat="42.86788" lon="1.37258">
        <ele>759</ele>
        <time>2025-09-27T09:24:57.000Z</time>
      </trkpt>
      <trkpt lat="42.86786" lon="1.37261">
        <ele>759</ele>
        <time>2025-09-27T09:24:58.000Z</time>
      </trkpt>
      <trkpt lat="42.86783" lon="1.37263">
        <ele>759</ele>
        <time>2025-09-27T09:24:59.000Z</time>
      </trkpt>
      <trkpt lat="42.86781" lon="1.37266">
        <ele>759</ele>
        <time>2025-09-27T09:25:00.000Z</time>
      </trkpt>
      <trkpt lat="42.86779" lon="1.3727">
        <ele>758</ele>
        <time>2025-09-27T09:25:01.000Z</time>
      </trkpt>
      <trkpt lat="42.86776" lon="1.37274">
        <ele>759</ele>
        <time>2025-09-27T09:25:02.000Z</time>
      </trkpt>
      <trkpt lat="42.86774" lon="1.37275">
        <ele>759</ele>
        <time>2025-09-27T09:25:03.000Z</time>
      </trkpt>
      <trkpt lat="42.86771" lon="1.37278">
        <ele>759</ele>
        <time>2025-09-27T09:25:04.000Z</time>
      </trkpt>
      <trkpt lat="42.86769" lon="1.37281">
        <ele>759</ele>
        <time>2025-09-27T09:25:05.000Z</time>
      </trkpt>
      <trkpt lat="42.86766" lon="1.37284">
        <ele>760</ele>
        <time>2025-09-27T09:25:06.000Z</time>
      </trkpt>
      <trkpt lat="42.86764" lon="1.37286">
        <ele>760</ele>
        <time>2025-09-27T09:25:07.000Z</time>
      </trkpt>
      <trkpt lat="42.86761" lon="1.37288">
        <ele>761</ele>
        <time>2025-09-27T09:25:08.000Z</time>
      </trkpt>
      <trkpt lat="42.86759" lon="1.37291">
        <ele>761</ele>
        <time>2025-09-27T09:25:09.000Z</time>
      </trkpt>
      <trkpt lat="42.86756" lon="1.37293">
        <ele>761</ele>
        <time>2025-09-27T09:25:10.000Z</time>
      </trkpt>
      <trkpt lat="42.86754" lon="1.37295">
        <ele>761</ele>
        <time>2025-09-27T09:25:11.000Z</time>
      </trkpt>
      <trkpt lat="42.86751" lon="1.37296">
        <ele>762</ele>
        <time>2025-09-27T09:25:12.000Z</time>
      </trkpt>
      <trkpt lat="42.86748" lon="1.37298">
        <ele>761</ele>
        <time>2025-09-27T09:25:13.000Z</time>
      </trkpt>
      <trkpt lat="42.86746" lon="1.373">
        <ele>761</ele>
        <time>2025-09-27T09:25:14.000Z</time>
      </trkpt>
      <trkpt lat="42.86743" lon="1.37302">
        <ele>762</ele>
        <time>2025-09-27T09:25:15.000Z</time>
      </trkpt>
      <trkpt lat="42.8674" lon="1.37303">
        <ele>763</ele>
        <time>2025-09-27T09:25:16.000Z</time>
      </trkpt>
      <trkpt lat="42.86737" lon="1.37305">
        <ele>763</ele>
        <time>2025-09-27T09:25:17.000Z</time>
      </trkpt>
      <trkpt lat="42.86734" lon="1.37306">
        <ele>763</ele>
        <time>2025-09-27T09:25:18.000Z</time>
      </trkpt>
      <trkpt lat="42.86731" lon="1.37308">
        <ele>763</ele>
        <time>2025-09-27T09:25:19.000Z</time>
      </trkpt>
      <trkpt lat="42.86728" lon="1.37311">
        <ele>763</ele>
        <time>2025-09-27T09:25:20.000Z</time>
      </trkpt>
      <trkpt lat="42.86725" lon="1.37312">
        <ele>763</ele>
        <time>2025-09-27T09:25:21.000Z</time>
      </trkpt>
      <trkpt lat="42.86722" lon="1.37314">
        <ele>763</ele>
        <time>2025-09-27T09:25:22.000Z</time>
      </trkpt>
      <trkpt lat="42.8672" lon="1.37316">
        <ele>763</ele>
        <time>2025-09-27T09:25:23.000Z</time>
      </trkpt>
      <trkpt lat="42.86718" lon="1.37318">
        <ele>763</ele>
        <time>2025-09-27T09:25:24.000Z</time>
      </trkpt>
      <trkpt lat="42.86715" lon="1.37319">
        <ele>763</ele>
        <time>2025-09-27T09:25:25.000Z</time>
      </trkpt>
      <trkpt lat="42.86712" lon="1.37321">
        <ele>763</ele>
        <time>2025-09-27T09:25:26.000Z</time>
      </trkpt>
      <trkpt lat="42.86709" lon="1.37322">
        <ele>763</ele>
        <time>2025-09-27T09:25:27.000Z</time>
      </trkpt>
      <trkpt lat="42.86706" lon="1.37322">
        <ele>762</ele>
        <time>2025-09-27T09:25:28.000Z</time>
      </trkpt>
      <trkpt lat="42.86702" lon="1.37322">
        <ele>762</ele>
        <time>2025-09-27T09:25:29.000Z</time>
      </trkpt>
      <trkpt lat="42.86699" lon="1.37324">
        <ele>763</ele>
        <time>2025-09-27T09:25:30.000Z</time>
      </trkpt>
      <trkpt lat="42.86696" lon="1.37325">
        <ele>763</ele>
        <time>2025-09-27T09:25:31.000Z</time>
      </trkpt>
      <trkpt lat="42.86692" lon="1.37326">
        <ele>763</ele>
        <time>2025-09-27T09:25:32.000Z</time>
      </trkpt>
      <trkpt lat="42.86689" lon="1.37327">
        <ele>764</ele>
        <time>2025-09-27T09:25:33.000Z</time>
      </trkpt>
      <trkpt lat="42.86685" lon="1.37329">
        <ele>764</ele>
        <time>2025-09-27T09:25:34.000Z</time>
      </trkpt>
      <trkpt lat="42.86682" lon="1.3733">
        <ele>764</ele>
        <time>2025-09-27T09:25:35.000Z</time>
      </trkpt>
      <trkpt lat="42.86679" lon="1.37332">
        <ele>765</ele>
        <time>2025-09-27T09:25:36.000Z</time>
      </trkpt>
      <trkpt lat="42.86676" lon="1.37334">
        <ele>765</ele>
        <time>2025-09-27T09:25:37.000Z</time>
      </trkpt>
      <trkpt lat="42.86673" lon="1.37336">
        <ele>766</ele>
        <time>2025-09-27T09:25:38.000Z</time>
      </trkpt>
      <trkpt lat="42.86669" lon="1.37338">
        <ele>766</ele>
        <time>2025-09-27T09:25:39.000Z</time>
      </trkpt>
      <trkpt lat="42.86666" lon="1.37338">
        <ele>766</ele>
        <time>2025-09-27T09:25:40.000Z</time>
      </trkpt>
      <trkpt lat="42.86663" lon="1.3734">
        <ele>766</ele>
        <time>2025-09-27T09:25:41.000Z</time>
      </trkpt>
      <trkpt lat="42.8666" lon="1.37342">
        <ele>766</ele>
        <time>2025-09-27T09:25:42.000Z</time>
      </trkpt>
      <trkpt lat="42.86656" lon="1.37344">
        <ele>766</ele>
        <time>2025-09-27T09:25:43.000Z</time>
      </trkpt>
      <trkpt lat="42.86653" lon="1.37345">
        <ele>767</ele>
        <time>2025-09-27T09:25:44.000Z</time>
      </trkpt>
      <trkpt lat="42.8665" lon="1.37347">
        <ele>767</ele>
        <time>2025-09-27T09:25:45.000Z</time>
      </trkpt>
      <trkpt lat="42.86647" lon="1.37349">
        <ele>767</ele>
        <time>2025-09-27T09:25:46.000Z</time>
      </trkpt>
      <trkpt lat="42.86644" lon="1.3735">
        <ele>767</ele>
        <time>2025-09-27T09:25:47.000Z</time>
      </trkpt>
      <trkpt lat="42.86641" lon="1.37351">
        <ele>768</ele>
        <time>2025-09-27T09:25:48.000Z</time>
      </trkpt>
      <trkpt lat="42.86638" lon="1.37353">
        <ele>768</ele>
        <time>2025-09-27T09:25:49.000Z</time>
      </trkpt>
      <trkpt lat="42.86635" lon="1.37355">
        <ele>768</ele>
        <time>2025-09-27T09:25:50.000Z</time>
      </trkpt>
      <trkpt lat="42.86632" lon="1.37356">
        <ele>768</ele>
        <time>2025-09-27T09:25:51.000Z</time>
      </trkpt>
      <trkpt lat="42.86629" lon="1.37357">
        <ele>768</ele>
        <time>2025-09-27T09:25:52.000Z</time>
      </trkpt>
      <trkpt lat="42.86626" lon="1.37359">
        <ele>768</ele>
        <time>2025-09-27T09:25:53.000Z</time>
      </trkpt>
      <trkpt lat="42.86623" lon="1.37361">
        <ele>769</ele>
        <time>2025-09-27T09:25:54.000Z</time>
      </trkpt>
      <trkpt lat="42.86621" lon="1.37364">
        <ele>769</ele>
        <time>2025-09-27T09:25:55.000Z</time>
      </trkpt>
      <trkpt lat="42.86619" lon="1.37366">
        <ele>770</ele>
        <time>2025-09-27T09:25:56.000Z</time>
      </trkpt>
      <trkpt lat="42.86616" lon="1.37368">
        <ele>770</ele>
        <time>2025-09-27T09:25:57.000Z</time>
      </trkpt>
      <trkpt lat="42.86614" lon="1.3737">
        <ele>770</ele>
        <time>2025-09-27T09:25:58.000Z</time>
      </trkpt>
      <trkpt lat="42.86611" lon="1.37372">
        <ele>771</ele>
        <time>2025-09-27T09:25:59.000Z</time>
      </trkpt>
      <trkpt lat="42.8661" lon="1.37373">
        <ele>771</ele>
        <time>2025-09-27T09:26:00.000Z</time>
      </trkpt>
      <trkpt lat="42.86607" lon="1.37376">
        <ele>771</ele>
        <time>2025-09-27T09:26:01.000Z</time>
      </trkpt>
      <trkpt lat="42.86605" lon="1.37377">
        <ele>771</ele>
        <time>2025-09-27T09:26:02.000Z</time>
      </trkpt>
      <trkpt lat="42.86603" lon="1.37379">
        <ele>771</ele>
        <time>2025-09-27T09:26:03.000Z</time>
      </trkpt>
      <trkpt lat="42.86601" lon="1.3738">
        <ele>771</ele>
        <time>2025-09-27T09:26:04.000Z</time>
      </trkpt>
      <trkpt lat="42.86598" lon="1.37381">
        <ele>771</ele>
        <time>2025-09-27T09:26:05.000Z</time>
      </trkpt>
      <trkpt lat="42.86596" lon="1.37384">
        <ele>770</ele>
        <time>2025-09-27T09:26:06.000Z</time>
      </trkpt>
      <trkpt lat="42.86594" lon="1.37387">
        <ele>770</ele>
        <time>2025-09-27T09:26:07.000Z</time>
      </trkpt>
      <trkpt lat="42.86592" lon="1.37391">
        <ele>770</ele>
        <time>2025-09-27T09:26:08.000Z</time>
      </trkpt>
      <trkpt lat="42.8659" lon="1.37394">
        <ele>770</ele>
        <time>2025-09-27T09:26:09.000Z</time>
      </trkpt>
      <trkpt lat="42.86589" lon="1.37397">
        <ele>770</ele>
        <time>2025-09-27T09:26:10.000Z</time>
      </trkpt>
      <trkpt lat="42.86587" lon="1.374">
        <ele>769</ele>
        <time>2025-09-27T09:26:11.000Z</time>
      </trkpt>
      <trkpt lat="42.86585" lon="1.37403">
        <ele>769</ele>
        <time>2025-09-27T09:26:12.000Z</time>
      </trkpt>
      <trkpt lat="42.86582" lon="1.37407">
        <ele>769</ele>
        <time>2025-09-27T09:26:13.000Z</time>
      </trkpt>
      <trkpt lat="42.8658" lon="1.3741">
        <ele>769</ele>
        <time>2025-09-27T09:26:14.000Z</time>
      </trkpt>
      <trkpt lat="42.86577" lon="1.37415">
        <ele>769</ele>
        <time>2025-09-27T09:26:15.000Z</time>
      </trkpt>
      <trkpt lat="42.86574" lon="1.37419">
        <ele>769</ele>
        <time>2025-09-27T09:26:16.000Z</time>
      </trkpt>
      <trkpt lat="42.86572" lon="1.37424">
        <ele>770</ele>
        <time>2025-09-27T09:26:17.000Z</time>
      </trkpt>
      <trkpt lat="42.86569" lon="1.37428">
        <ele>770</ele>
        <time>2025-09-27T09:26:18.000Z</time>
      </trkpt>
      <trkpt lat="42.86565" lon="1.37432">
        <ele>770</ele>
        <time>2025-09-27T09:26:19.000Z</time>
      </trkpt>
      <trkpt lat="42.86562" lon="1.37434">
        <ele>771</ele>
        <time>2025-09-27T09:26:20.000Z</time>
      </trkpt>
      <trkpt lat="42.86559" lon="1.37437">
        <ele>771</ele>
        <time>2025-09-27T09:26:21.000Z</time>
      </trkpt>
      <trkpt lat="42.86555" lon="1.37439">
        <ele>772</ele>
        <time>2025-09-27T09:26:22.000Z</time>
      </trkpt>
      <trkpt lat="42.86551" lon="1.37442">
        <ele>773</ele>
        <time>2025-09-27T09:26:23.000Z</time>
      </trkpt>
      <trkpt lat="42.86547" lon="1.37444">
        <ele>774</ele>
        <time>2025-09-27T09:26:24.000Z</time>
      </trkpt>
      <trkpt lat="42.86543" lon="1.37446">
        <ele>775</ele>
        <time>2025-09-27T09:26:25.000Z</time>
      </trkpt>
      <trkpt lat="42.86538" lon="1.37447">
        <ele>775</ele>
        <time>2025-09-27T09:26:26.000Z</time>
      </trkpt>
      <trkpt lat="42.86533" lon="1.37447">
        <ele>776</ele>
        <time>2025-09-27T09:26:27.000Z</time>
      </trkpt>
      <trkpt lat="42.86528" lon="1.37447">
        <ele>776</ele>
        <time>2025-09-27T09:26:28.000Z</time>
      </trkpt>
      <trkpt lat="42.86523" lon="1.37447">
        <ele>776</ele>
        <time>2025-09-27T09:26:29.000Z</time>
      </trkpt>
      <trkpt lat="42.86518" lon="1.37445">
        <ele>776</ele>
        <time>2025-09-27T09:26:30.000Z</time>
      </trkpt>
      <trkpt lat="42.86513" lon="1.37444">
        <ele>776</ele>
        <time>2025-09-27T09:26:31.000Z</time>
      </trkpt>
      <trkpt lat="42.86509" lon="1.37441">
        <ele>777</ele>
        <time>2025-09-27T09:26:32.000Z</time>
      </trkpt>
      <trkpt lat="42.86504" lon="1.37438">
        <ele>776</ele>
        <time>2025-09-27T09:26:33.000Z</time>
      </trkpt>
      <trkpt lat="42.865" lon="1.37436">
        <ele>776</ele>
        <time>2025-09-27T09:26:34.000Z</time>
      </trkpt>
      <trkpt lat="42.86496" lon="1.37432">
        <ele>776</ele>
        <time>2025-09-27T09:26:35.000Z</time>
      </trkpt>
      <trkpt lat="42.86493" lon="1.37429">
        <ele>776</ele>
        <time>2025-09-27T09:26:36.000Z</time>
      </trkpt>
      <trkpt lat="42.86491" lon="1.37423">
        <ele>777</ele>
        <time>2025-09-27T09:26:37.000Z</time>
      </trkpt>
      <trkpt lat="42.86488" lon="1.37417">
        <ele>776</ele>
        <time>2025-09-27T09:26:38.000Z</time>
      </trkpt>
      <trkpt lat="42.86486" lon="1.37412">
        <ele>776</ele>
        <time>2025-09-27T09:26:39.000Z</time>
      </trkpt>
      <trkpt lat="42.86484" lon="1.37406">
        <ele>775</ele>
        <time>2025-09-27T09:26:40.000Z</time>
      </trkpt>
      <trkpt lat="42.86483" lon="1.37399">
        <ele>776</ele>
        <time>2025-09-27T09:26:41.000Z</time>
      </trkpt>
      <trkpt lat="42.86481" lon="1.37394">
        <ele>776</ele>
        <time>2025-09-27T09:26:42.000Z</time>
      </trkpt>
      <trkpt lat="42.86479" lon="1.37389">
        <ele>776</ele>
        <time>2025-09-27T09:26:43.000Z</time>
      </trkpt>
      <trkpt lat="42.86477" lon="1.37383">
        <ele>776</ele>
        <time>2025-09-27T09:26:44.000Z</time>
      </trkpt>
      <trkpt lat="42.86476" lon="1.37379">
        <ele>776</ele>
        <time>2025-09-27T09:26:45.000Z</time>
      </trkpt>
      <trkpt lat="42.86475" lon="1.37373">
        <ele>776</ele>
        <time>2025-09-27T09:26:46.000Z</time>
      </trkpt>
      <trkpt lat="42.86473" lon="1.37368">
        <ele>775</ele>
        <time>2025-09-27T09:26:47.000Z</time>
      </trkpt>
      <trkpt lat="42.86473" lon="1.37363">
        <ele>776</ele>
        <time>2025-09-27T09:26:48.000Z</time>
      </trkpt>
      <trkpt lat="42.86473" lon="1.37356">
        <ele>776</ele>
        <time>2025-09-27T09:26:49.000Z</time>
      </trkpt>
      <trkpt lat="42.86475" lon="1.3735">
        <ele>776</ele>
        <time>2025-09-27T09:26:50.000Z</time>
      </trkpt>
      <trkpt lat="42.86476" lon="1.37343">
        <ele>777</ele>
        <time>2025-09-27T09:26:51.000Z</time>
      </trkpt>
      <trkpt lat="42.86478" lon="1.37337">
        <ele>777</ele>
        <time>2025-09-27T09:26:52.000Z</time>
      </trkpt>
      <trkpt lat="42.8648" lon="1.3733">
        <ele>777</ele>
        <time>2025-09-27T09:26:53.000Z</time>
      </trkpt>
      <trkpt lat="42.86482" lon="1.37324">
        <ele>778</ele>
        <time>2025-09-27T09:26:54.000Z</time>
      </trkpt>
      <trkpt lat="42.86484" lon="1.37318">
        <ele>778</ele>
        <time>2025-09-27T09:26:55.000Z</time>
      </trkpt>
      <trkpt lat="42.86486" lon="1.37311">
        <ele>778</ele>
        <time>2025-09-27T09:26:56.000Z</time>
      </trkpt>
      <trkpt lat="42.86488" lon="1.37305">
        <ele>779</ele>
        <time>2025-09-27T09:26:57.000Z</time>
      </trkpt>
      <trkpt lat="42.8649" lon="1.37298">
        <ele>779</ele>
        <time>2025-09-27T09:26:58.000Z</time>
      </trkpt>
      <trkpt lat="42.86492" lon="1.37292">
        <ele>779</ele>
        <time>2025-09-27T09:26:59.000Z</time>
      </trkpt>
      <trkpt lat="42.86494" lon="1.37286">
        <ele>779</ele>
        <time>2025-09-27T09:27:00.000Z</time>
      </trkpt>
      <trkpt lat="42.86496" lon="1.37279">
        <ele>779</ele>
        <time>2025-09-27T09:27:01.000Z</time>
      </trkpt>
      <trkpt lat="42.86498" lon="1.37272">
        <ele>779</ele>
        <time>2025-09-27T09:27:02.000Z</time>
      </trkpt>
      <trkpt lat="42.86499" lon="1.37266">
        <ele>779</ele>
        <time>2025-09-27T09:27:03.000Z</time>
      </trkpt>
      <trkpt lat="42.865" lon="1.3726">
        <ele>779</ele>
        <time>2025-09-27T09:27:04.000Z</time>
      </trkpt>
      <trkpt lat="42.865" lon="1.37253">
        <ele>779</ele>
        <time>2025-09-27T09:27:05.000Z</time>
      </trkpt>
      <trkpt lat="42.86498" lon="1.37248">
        <ele>780</ele>
        <time>2025-09-27T09:27:06.000Z</time>
      </trkpt>
      <trkpt lat="42.86496" lon="1.37241">
        <ele>780</ele>
        <time>2025-09-27T09:27:07.000Z</time>
      </trkpt>
      <trkpt lat="42.86493" lon="1.37236">
        <ele>780</ele>
        <time>2025-09-27T09:27:08.000Z</time>
      </trkpt>
      <trkpt lat="42.8649" lon="1.37231">
        <ele>780</ele>
        <time>2025-09-27T09:27:09.000Z</time>
      </trkpt>
      <trkpt lat="42.86486" lon="1.37226">
        <ele>780</ele>
        <time>2025-09-27T09:27:10.000Z</time>
      </trkpt>
      <trkpt lat="42.86483" lon="1.37221">
        <ele>781</ele>
        <time>2025-09-27T09:27:11.000Z</time>
      </trkpt>
      <trkpt lat="42.86479" lon="1.37216">
        <ele>781</ele>
        <time>2025-09-27T09:27:12.000Z</time>
      </trkpt>
      <trkpt lat="42.86475" lon="1.37211">
        <ele>781</ele>
        <time>2025-09-27T09:27:13.000Z</time>
      </trkpt>
      <trkpt lat="42.86471" lon="1.37207">
        <ele>781</ele>
        <time>2025-09-27T09:27:14.000Z</time>
      </trkpt>
      <trkpt lat="42.86468" lon="1.37203">
        <ele>781</ele>
        <time>2025-09-27T09:27:15.000Z</time>
      </trkpt>
      <trkpt lat="42.86464" lon="1.37198">
        <ele>782</ele>
        <time>2025-09-27T09:27:16.000Z</time>
      </trkpt>
      <trkpt lat="42.86461" lon="1.37194">
        <ele>782</ele>
        <time>2025-09-27T09:27:17.000Z</time>
      </trkpt>
      <trkpt lat="42.86457" lon="1.37189">
        <ele>782</ele>
        <time>2025-09-27T09:27:18.000Z</time>
      </trkpt>
      <trkpt lat="42.86453" lon="1.37184">
        <ele>782</ele>
        <time>2025-09-27T09:27:19.000Z</time>
      </trkpt>
      <trkpt lat="42.8645" lon="1.3718">
        <ele>783</ele>
        <time>2025-09-27T09:27:20.000Z</time>
      </trkpt>
      <trkpt lat="42.86446" lon="1.37176">
        <ele>783</ele>
        <time>2025-09-27T09:27:21.000Z</time>
      </trkpt>
      <trkpt lat="42.86442" lon="1.37173">
        <ele>783</ele>
        <time>2025-09-27T09:27:22.000Z</time>
      </trkpt>
      <trkpt lat="42.86439" lon="1.37171">
        <ele>783</ele>
        <time>2025-09-27T09:27:23.000Z</time>
      </trkpt>
      <trkpt lat="42.86434" lon="1.3717">
        <ele>783</ele>
        <time>2025-09-27T09:27:24.000Z</time>
      </trkpt>
      <trkpt lat="42.86429" lon="1.37168">
        <ele>782</ele>
        <time>2025-09-27T09:27:25.000Z</time>
      </trkpt>
      <trkpt lat="42.86425" lon="1.37166">
        <ele>782</ele>
        <time>2025-09-27T09:27:26.000Z</time>
      </trkpt>
      <trkpt lat="42.8642" lon="1.37165">
        <ele>781</ele>
        <time>2025-09-27T09:27:27.000Z</time>
      </trkpt>
      <trkpt lat="42.86416" lon="1.37163">
        <ele>781</ele>
        <time>2025-09-27T09:27:28.000Z</time>
      </trkpt>
      <trkpt lat="42.86412" lon="1.37161">
        <ele>780</ele>
        <time>2025-09-27T09:27:29.000Z</time>
      </trkpt>
      <trkpt lat="42.86407" lon="1.3716">
        <ele>780</ele>
        <time>2025-09-27T09:27:30.000Z</time>
      </trkpt>
      <trkpt lat="42.86403" lon="1.37158">
        <ele>779</ele>
        <time>2025-09-27T09:27:31.000Z</time>
      </trkpt>
      <trkpt lat="42.86398" lon="1.37158">
        <ele>779</ele>
        <time>2025-09-27T09:27:32.000Z</time>
      </trkpt>
      <trkpt lat="42.86394" lon="1.37158">
        <ele>778</ele>
        <time>2025-09-27T09:27:33.000Z</time>
      </trkpt>
      <trkpt lat="42.86388" lon="1.37159">
        <ele>778</ele>
        <time>2025-09-27T09:27:34.000Z</time>
      </trkpt>
      <trkpt lat="42.86383" lon="1.3716">
        <ele>778</ele>
        <time>2025-09-27T09:27:35.000Z</time>
      </trkpt>
      <trkpt lat="42.86378" lon="1.37161">
        <ele>778</ele>
        <time>2025-09-27T09:27:36.000Z</time>
      </trkpt>
      <trkpt lat="42.86372" lon="1.37161">
        <ele>778</ele>
        <time>2025-09-27T09:27:37.000Z</time>
      </trkpt>
      <trkpt lat="42.86367" lon="1.37162">
        <ele>778</ele>
        <time>2025-09-27T09:27:38.000Z</time>
      </trkpt>
      <trkpt lat="42.86361" lon="1.37162">
        <ele>778</ele>
        <time>2025-09-27T09:27:39.000Z</time>
      </trkpt>
      <trkpt lat="42.86355" lon="1.37164">
        <ele>778</ele>
        <time>2025-09-27T09:27:40.000Z</time>
      </trkpt>
      <trkpt lat="42.8635" lon="1.37166">
        <ele>778</ele>
        <time>2025-09-27T09:27:41.000Z</time>
      </trkpt>
      <trkpt lat="42.86344" lon="1.37167">
        <ele>778</ele>
        <time>2025-09-27T09:27:42.000Z</time>
      </trkpt>
      <trkpt lat="42.86339" lon="1.3717">
        <ele>778</ele>
        <time>2025-09-27T09:27:43.000Z</time>
      </trkpt>
      <trkpt lat="42.86333" lon="1.37172">
        <ele>778</ele>
        <time>2025-09-27T09:27:44.000Z</time>
      </trkpt>
      <trkpt lat="42.86327" lon="1.37175">
        <ele>778</ele>
        <time>2025-09-27T09:27:45.000Z</time>
      </trkpt>
      <trkpt lat="42.86322" lon="1.37177">
        <ele>778</ele>
        <time>2025-09-27T09:27:46.000Z</time>
      </trkpt>
      <trkpt lat="42.86317" lon="1.37179">
        <ele>778</ele>
        <time>2025-09-27T09:27:47.000Z</time>
      </trkpt>
      <trkpt lat="42.86311" lon="1.37179">
        <ele>779</ele>
        <time>2025-09-27T09:27:48.000Z</time>
      </trkpt>
      <trkpt lat="42.86306" lon="1.37179">
        <ele>778</ele>
        <time>2025-09-27T09:27:49.000Z</time>
      </trkpt>
      <trkpt lat="42.86301" lon="1.37178">
        <ele>778</ele>
        <time>2025-09-27T09:27:50.000Z</time>
      </trkpt>
      <trkpt lat="42.86295" lon="1.37175">
        <ele>778</ele>
        <time>2025-09-27T09:27:51.000Z</time>
      </trkpt>
      <trkpt lat="42.8629" lon="1.37173">
        <ele>778</ele>
        <time>2025-09-27T09:27:52.000Z</time>
      </trkpt>
      <trkpt lat="42.86286" lon="1.37171">
        <ele>779</ele>
        <time>2025-09-27T09:27:53.000Z</time>
      </trkpt>
      <trkpt lat="42.86282" lon="1.37167">
        <ele>779</ele>
        <time>2025-09-27T09:27:54.000Z</time>
      </trkpt>
      <trkpt lat="42.86278" lon="1.37164">
        <ele>779</ele>
        <time>2025-09-27T09:27:55.000Z</time>
      </trkpt>
      <trkpt lat="42.86274" lon="1.3716">
        <ele>779</ele>
        <time>2025-09-27T09:27:56.000Z</time>
      </trkpt>
      <trkpt lat="42.8627" lon="1.37155">
        <ele>779</ele>
        <time>2025-09-27T09:27:57.000Z</time>
      </trkpt>
      <trkpt lat="42.86265" lon="1.3715">
        <ele>780</ele>
        <time>2025-09-27T09:27:58.000Z</time>
      </trkpt>
      <trkpt lat="42.86261" lon="1.37145">
        <ele>781</ele>
        <time>2025-09-27T09:27:59.000Z</time>
      </trkpt>
      <trkpt lat="42.86258" lon="1.3714">
        <ele>781</ele>
        <time>2025-09-27T09:28:00.000Z</time>
      </trkpt>
      <trkpt lat="42.86255" lon="1.37133">
        <ele>781</ele>
        <time>2025-09-27T09:28:01.000Z</time>
      </trkpt>
      <trkpt lat="42.86253" lon="1.37127">
        <ele>781</ele>
        <time>2025-09-27T09:28:02.000Z</time>
      </trkpt>
      <trkpt lat="42.8625" lon="1.37121">
        <ele>782</ele>
        <time>2025-09-27T09:28:03.000Z</time>
      </trkpt>
      <trkpt lat="42.86247" lon="1.37115">
        <ele>782</ele>
        <time>2025-09-27T09:28:04.000Z</time>
      </trkpt>
      <trkpt lat="42.86245" lon="1.37109">
        <ele>782</ele>
        <time>2025-09-27T09:28:05.000Z</time>
      </trkpt>
      <trkpt lat="42.86243" lon="1.37102">
        <ele>783</ele>
        <time>2025-09-27T09:28:06.000Z</time>
      </trkpt>
      <trkpt lat="42.86241" lon="1.37096">
        <ele>784</ele>
        <time>2025-09-27T09:28:07.000Z</time>
      </trkpt>
      <trkpt lat="42.86239" lon="1.3709">
        <ele>784</ele>
        <time>2025-09-27T09:28:08.000Z</time>
      </trkpt>
      <trkpt lat="42.86238" lon="1.37084">
        <ele>784</ele>
        <time>2025-09-27T09:28:09.000Z</time>
      </trkpt>
      <trkpt lat="42.86235" lon="1.37079">
        <ele>784</ele>
        <time>2025-09-27T09:28:10.000Z</time>
      </trkpt>
      <trkpt lat="42.86233" lon="1.37073">
        <ele>784</ele>
        <time>2025-09-27T09:28:11.000Z</time>
      </trkpt>
      <trkpt lat="42.86231" lon="1.37066">
        <ele>784</ele>
        <time>2025-09-27T09:28:12.000Z</time>
      </trkpt>
      <trkpt lat="42.86228" lon="1.3706">
        <ele>785</ele>
        <time>2025-09-27T09:28:13.000Z</time>
      </trkpt>
      <trkpt lat="42.86226" lon="1.37056">
        <ele>785</ele>
        <time>2025-09-27T09:28:14.000Z</time>
      </trkpt>
      <trkpt lat="42.86223" lon="1.37051">
        <ele>785</ele>
        <time>2025-09-27T09:28:15.000Z</time>
      </trkpt>
      <trkpt lat="42.8622" lon="1.37046">
        <ele>785</ele>
        <time>2025-09-27T09:28:16.000Z</time>
      </trkpt>
      <trkpt lat="42.86216" lon="1.37042">
        <ele>785</ele>
        <time>2025-09-27T09:28:17.000Z</time>
      </trkpt>
      <trkpt lat="42.86212" lon="1.37037">
        <ele>785</ele>
        <time>2025-09-27T09:28:18.000Z</time>
      </trkpt>
      <trkpt lat="42.86209" lon="1.37032">
        <ele>785</ele>
        <time>2025-09-27T09:28:19.000Z</time>
      </trkpt>
      <trkpt lat="42.86206" lon="1.37029">
        <ele>786</ele>
        <time>2025-09-27T09:28:20.000Z</time>
      </trkpt>
      <trkpt lat="42.86202" lon="1.37025">
        <ele>786</ele>
        <time>2025-09-27T09:28:21.000Z</time>
      </trkpt>
      <trkpt lat="42.86198" lon="1.37022">
        <ele>786</ele>
        <time>2025-09-27T09:28:22.000Z</time>
      </trkpt>
      <trkpt lat="42.86195" lon="1.37019">
        <ele>786</ele>
        <time>2025-09-27T09:28:23.000Z</time>
      </trkpt>
      <trkpt lat="42.86193" lon="1.37015">
        <ele>787</ele>
        <time>2025-09-27T09:28:24.000Z</time>
      </trkpt>
      <trkpt lat="42.8619" lon="1.37012">
        <ele>787</ele>
        <time>2025-09-27T09:28:25.000Z</time>
      </trkpt>
      <trkpt lat="42.86187" lon="1.37008">
        <ele>787</ele>
        <time>2025-09-27T09:28:26.000Z</time>
      </trkpt>
      <trkpt lat="42.86184" lon="1.37006">
        <ele>787</ele>
        <time>2025-09-27T09:28:27.000Z</time>
      </trkpt>
      <trkpt lat="42.8618" lon="1.37003">
        <ele>787</ele>
        <time>2025-09-27T09:28:28.000Z</time>
      </trkpt>
      <trkpt lat="42.86177" lon="1.37001">
        <ele>786</ele>
        <time>2025-09-27T09:28:29.000Z</time>
      </trkpt>
      <trkpt lat="42.86173" lon="1.37001">
        <ele>786</ele>
        <time>2025-09-27T09:28:30.000Z</time>
      </trkpt>
      <trkpt lat="42.8617" lon="1.37001">
        <ele>785</ele>
        <time>2025-09-27T09:28:31.000Z</time>
      </trkpt>
      <trkpt lat="42.86167" lon="1.37001">
        <ele>786</ele>
        <time>2025-09-27T09:28:32.000Z</time>
      </trkpt>
      <trkpt lat="42.86163" lon="1.37002">
        <ele>786</ele>
        <time>2025-09-27T09:28:33.000Z</time>
      </trkpt>
      <trkpt lat="42.86159" lon="1.37004">
        <ele>786</ele>
        <time>2025-09-27T09:28:34.000Z</time>
      </trkpt>
      <trkpt lat="42.86156" lon="1.37005">
        <ele>787</ele>
        <time>2025-09-27T09:28:35.000Z</time>
      </trkpt>
      <trkpt lat="42.86153" lon="1.37007">
        <ele>787</ele>
        <time>2025-09-27T09:28:36.000Z</time>
      </trkpt>
      <trkpt lat="42.8615" lon="1.37008">
        <ele>787</ele>
        <time>2025-09-27T09:28:37.000Z</time>
      </trkpt>
      <trkpt lat="42.86146" lon="1.3701">
        <ele>787</ele>
        <time>2025-09-27T09:28:38.000Z</time>
      </trkpt>
      <trkpt lat="42.86142" lon="1.37012">
        <ele>787</ele>
        <time>2025-09-27T09:28:39.000Z</time>
      </trkpt>
      <trkpt lat="42.86139" lon="1.37014">
        <ele>787</ele>
        <time>2025-09-27T09:28:40.000Z</time>
      </trkpt>
      <trkpt lat="42.86136" lon="1.37016">
        <ele>787</ele>
        <time>2025-09-27T09:28:41.000Z</time>
      </trkpt>
      <trkpt lat="42.86133" lon="1.37019">
        <ele>787</ele>
        <time>2025-09-27T09:28:42.000Z</time>
      </trkpt>
      <trkpt lat="42.8613" lon="1.37022">
        <ele>787</ele>
        <time>2025-09-27T09:28:43.000Z</time>
      </trkpt>
      <trkpt lat="42.86127" lon="1.37026">
        <ele>787</ele>
        <time>2025-09-27T09:28:44.000Z</time>
      </trkpt>
      <trkpt lat="42.86123" lon="1.3703">
        <ele>788</ele>
        <time>2025-09-27T09:28:45.000Z</time>
      </trkpt>
      <trkpt lat="42.8612" lon="1.37033">
        <ele>788</ele>
        <time>2025-09-27T09:28:46.000Z</time>
      </trkpt>
      <trkpt lat="42.86116" lon="1.37038">
        <ele>788</ele>
        <time>2025-09-27T09:28:47.000Z</time>
      </trkpt>
      <trkpt lat="42.86113" lon="1.37041">
        <ele>788</ele>
        <time>2025-09-27T09:28:48.000Z</time>
      </trkpt>
      <trkpt lat="42.86109" lon="1.37047">
        <ele>789</ele>
        <time>2025-09-27T09:28:49.000Z</time>
      </trkpt>
      <trkpt lat="42.86106" lon="1.37052">
        <ele>790</ele>
        <time>2025-09-27T09:28:50.000Z</time>
      </trkpt>
      <trkpt lat="42.86103" lon="1.37057">
        <ele>790</ele>
        <time>2025-09-27T09:28:51.000Z</time>
      </trkpt>
      <trkpt lat="42.861" lon="1.37061">
        <ele>790</ele>
        <time>2025-09-27T09:28:52.000Z</time>
      </trkpt>
      <trkpt lat="42.86096" lon="1.37065">
        <ele>790</ele>
        <time>2025-09-27T09:28:53.000Z</time>
      </trkpt>
      <trkpt lat="42.86093" lon="1.3707">
        <ele>790</ele>
        <time>2025-09-27T09:28:54.000Z</time>
      </trkpt>
      <trkpt lat="42.86089" lon="1.37073">
        <ele>790</ele>
        <time>2025-09-27T09:28:55.000Z</time>
      </trkpt>
      <trkpt lat="42.86086" lon="1.37078">
        <ele>790</ele>
        <time>2025-09-27T09:28:56.000Z</time>
      </trkpt>
      <trkpt lat="42.86082" lon="1.37082">
        <ele>790</ele>
        <time>2025-09-27T09:28:57.000Z</time>
      </trkpt>
      <trkpt lat="42.86078" lon="1.37087">
        <ele>791</ele>
        <time>2025-09-27T09:28:58.000Z</time>
      </trkpt>
      <trkpt lat="42.86075" lon="1.37092">
        <ele>791</ele>
        <time>2025-09-27T09:28:59.000Z</time>
      </trkpt>
      <trkpt lat="42.86072" lon="1.37096">
        <ele>791</ele>
        <time>2025-09-27T09:29:00.000Z</time>
      </trkpt>
      <trkpt lat="42.86068" lon="1.37101">
        <ele>791</ele>
        <time>2025-09-27T09:29:01.000Z</time>
      </trkpt>
      <trkpt lat="42.86064" lon="1.37104">
        <ele>791</ele>
        <time>2025-09-27T09:29:02.000Z</time>
      </trkpt>
      <trkpt lat="42.8606" lon="1.37106">
        <ele>791</ele>
        <time>2025-09-27T09:29:03.000Z</time>
      </trkpt>
      <trkpt lat="42.86056" lon="1.37107">
        <ele>791</ele>
        <time>2025-09-27T09:29:04.000Z</time>
      </trkpt>
      <trkpt lat="42.86051" lon="1.37108">
        <ele>792</ele>
        <time>2025-09-27T09:29:05.000Z</time>
      </trkpt>
      <trkpt lat="42.86047" lon="1.3711">
        <ele>792</ele>
        <time>2025-09-27T09:29:06.000Z</time>
      </trkpt>
      <trkpt lat="42.86043" lon="1.37112">
        <ele>793</ele>
        <time>2025-09-27T09:29:07.000Z</time>
      </trkpt>
      <trkpt lat="42.86038" lon="1.37112">
        <ele>793</ele>
        <time>2025-09-27T09:29:08.000Z</time>
      </trkpt>
      <trkpt lat="42.86033" lon="1.37112">
        <ele>794</ele>
        <time>2025-09-27T09:29:09.000Z</time>
      </trkpt>
      <trkpt lat="42.86029" lon="1.37112">
        <ele>794</ele>
        <time>2025-09-27T09:29:10.000Z</time>
      </trkpt>
      <trkpt lat="42.86024" lon="1.37111">
        <ele>794</ele>
        <time>2025-09-27T09:29:11.000Z</time>
      </trkpt>
      <trkpt lat="42.86019" lon="1.3711">
        <ele>794</ele>
        <time>2025-09-27T09:29:12.000Z</time>
      </trkpt>
      <trkpt lat="42.86015" lon="1.37109">
        <ele>794</ele>
        <time>2025-09-27T09:29:13.000Z</time>
      </trkpt>
      <trkpt lat="42.8601" lon="1.37109">
        <ele>795</ele>
        <time>2025-09-27T09:29:14.000Z</time>
      </trkpt>
      <trkpt lat="42.86006" lon="1.37109">
        <ele>795</ele>
        <time>2025-09-27T09:29:15.000Z</time>
      </trkpt>
      <trkpt lat="42.86002" lon="1.37109">
        <ele>795</ele>
        <time>2025-09-27T09:29:16.000Z</time>
      </trkpt>
      <trkpt lat="42.85998" lon="1.37109">
        <ele>795</ele>
        <time>2025-09-27T09:29:17.000Z</time>
      </trkpt>
      <trkpt lat="42.85995" lon="1.37108">
        <ele>795</ele>
        <time>2025-09-27T09:29:18.000Z</time>
      </trkpt>
      <trkpt lat="42.85991" lon="1.37109">
        <ele>796</ele>
        <time>2025-09-27T09:29:19.000Z</time>
      </trkpt>
      <trkpt lat="42.85988" lon="1.37109">
        <ele>796</ele>
        <time>2025-09-27T09:29:20.000Z</time>
      </trkpt>
      <trkpt lat="42.85984" lon="1.37109">
        <ele>796</ele>
        <time>2025-09-27T09:29:21.000Z</time>
      </trkpt>
      <trkpt lat="42.85979" lon="1.37109">
        <ele>796</ele>
        <time>2025-09-27T09:29:22.000Z</time>
      </trkpt>
      <trkpt lat="42.85975" lon="1.37109">
        <ele>797</ele>
        <time>2025-09-27T09:29:23.000Z</time>
      </trkpt>
      <trkpt lat="42.85971" lon="1.3711">
        <ele>798</ele>
        <time>2025-09-27T09:29:24.000Z</time>
      </trkpt>
      <trkpt lat="42.85967" lon="1.3711">
        <ele>798</ele>
        <time>2025-09-27T09:29:25.000Z</time>
      </trkpt>
      <trkpt lat="42.85963" lon="1.37111">
        <ele>798</ele>
        <time>2025-09-27T09:29:26.000Z</time>
      </trkpt>
      <trkpt lat="42.8596" lon="1.37113">
        <ele>798</ele>
        <time>2025-09-27T09:29:27.000Z</time>
      </trkpt>
      <trkpt lat="42.85957" lon="1.37114">
        <ele>798</ele>
        <time>2025-09-27T09:29:28.000Z</time>
      </trkpt>
      <trkpt lat="42.85953" lon="1.37115">
        <ele>799</ele>
        <time>2025-09-27T09:29:29.000Z</time>
      </trkpt>
      <trkpt lat="42.8595" lon="1.37117">
        <ele>799</ele>
        <time>2025-09-27T09:29:30.000Z</time>
      </trkpt>
      <trkpt lat="42.85946" lon="1.37118">
        <ele>800</ele>
        <time>2025-09-27T09:29:31.000Z</time>
      </trkpt>
      <trkpt lat="42.85943" lon="1.3712">
        <ele>800</ele>
        <time>2025-09-27T09:29:32.000Z</time>
      </trkpt>
      <trkpt lat="42.85939" lon="1.37121">
        <ele>800</ele>
        <time>2025-09-27T09:29:33.000Z</time>
      </trkpt>
      <trkpt lat="42.85935" lon="1.37122">
        <ele>800</ele>
        <time>2025-09-27T09:29:34.000Z</time>
      </trkpt>
      <trkpt lat="42.85931" lon="1.37124">
        <ele>800</ele>
        <time>2025-09-27T09:29:35.000Z</time>
      </trkpt>
      <trkpt lat="42.85928" lon="1.37125">
        <ele>801</ele>
        <time>2025-09-27T09:29:36.000Z</time>
      </trkpt>
      <trkpt lat="42.85924" lon="1.37127">
        <ele>801</ele>
        <time>2025-09-27T09:29:37.000Z</time>
      </trkpt>
      <trkpt lat="42.8592" lon="1.37129">
        <ele>801</ele>
        <time>2025-09-27T09:29:38.000Z</time>
      </trkpt>
      <trkpt lat="42.85916" lon="1.37132">
        <ele>801</ele>
        <time>2025-09-27T09:29:39.000Z</time>
      </trkpt>
      <trkpt lat="42.85913" lon="1.37134">
        <ele>800</ele>
        <time>2025-09-27T09:29:40.000Z</time>
      </trkpt>
      <trkpt lat="42.85909" lon="1.37135">
        <ele>800</ele>
        <time>2025-09-27T09:29:41.000Z</time>
      </trkpt>
      <trkpt lat="42.85904" lon="1.37136">
        <ele>801</ele>
        <time>2025-09-27T09:29:42.000Z</time>
      </trkpt>
      <trkpt lat="42.85901" lon="1.37138">
        <ele>801</ele>
        <time>2025-09-27T09:29:43.000Z</time>
      </trkpt>
      <trkpt lat="42.85897" lon="1.37139">
        <ele>802</ele>
        <time>2025-09-27T09:29:44.000Z</time>
      </trkpt>
      <trkpt lat="42.85893" lon="1.3714">
        <ele>802</ele>
        <time>2025-09-27T09:29:45.000Z</time>
      </trkpt>
      <trkpt lat="42.85889" lon="1.3714">
        <ele>802</ele>
        <time>2025-09-27T09:29:46.000Z</time>
      </trkpt>
      <trkpt lat="42.85885" lon="1.3714">
        <ele>802</ele>
        <time>2025-09-27T09:29:47.000Z</time>
      </trkpt>
      <trkpt lat="42.85881" lon="1.37141">
        <ele>802</ele>
        <time>2025-09-27T09:29:48.000Z</time>
      </trkpt>
      <trkpt lat="42.85877" lon="1.37141">
        <ele>802</ele>
        <time>2025-09-27T09:29:49.000Z</time>
      </trkpt>
      <trkpt lat="42.85874" lon="1.37141">
        <ele>801</ele>
        <time>2025-09-27T09:29:50.000Z</time>
      </trkpt>
      <trkpt lat="42.85869" lon="1.3714">
        <ele>802</ele>
        <time>2025-09-27T09:29:51.000Z</time>
      </trkpt>
      <trkpt lat="42.85865" lon="1.37139">
        <ele>802</ele>
        <time>2025-09-27T09:29:52.000Z</time>
      </trkpt>
      <trkpt lat="42.85861" lon="1.37139">
        <ele>802</ele>
        <time>2025-09-27T09:29:53.000Z</time>
      </trkpt>
      <trkpt lat="42.85857" lon="1.37138">
        <ele>803</ele>
        <time>2025-09-27T09:29:54.000Z</time>
      </trkpt>
      <trkpt lat="42.85853" lon="1.37138">
        <ele>804</ele>
        <time>2025-09-27T09:29:55.000Z</time>
      </trkpt>
      <trkpt lat="42.85849" lon="1.37137">
        <ele>804</ele>
        <time>2025-09-27T09:29:56.000Z</time>
      </trkpt>
      <trkpt lat="42.85846" lon="1.37136">
        <ele>805</ele>
        <time>2025-09-27T09:29:57.000Z</time>
      </trkpt>
      <trkpt lat="42.85842" lon="1.37136">
        <ele>805</ele>
        <time>2025-09-27T09:29:58.000Z</time>
      </trkpt>
      <trkpt lat="42.85839" lon="1.37137">
        <ele>805</ele>
        <time>2025-09-27T09:29:59.000Z</time>
      </trkpt>
      <trkpt lat="42.85836" lon="1.37137">
        <ele>805</ele>
        <time>2025-09-27T09:30:00.000Z</time>
      </trkpt>
      <trkpt lat="42.85833" lon="1.37137">
        <ele>805</ele>
        <time>2025-09-27T09:30:01.000Z</time>
      </trkpt>
      <trkpt lat="42.8583" lon="1.37137">
        <ele>805</ele>
        <time>2025-09-27T09:30:02.000Z</time>
      </trkpt>
      <trkpt lat="42.85827" lon="1.37136">
        <ele>805</ele>
        <time>2025-09-27T09:30:03.000Z</time>
      </trkpt>
      <trkpt lat="42.85823" lon="1.37136">
        <ele>805</ele>
        <time>2025-09-27T09:30:04.000Z</time>
      </trkpt>
      <trkpt lat="42.8582" lon="1.37135">
        <ele>806</ele>
        <time>2025-09-27T09:30:05.000Z</time>
      </trkpt>
      <trkpt lat="42.85817" lon="1.37134">
        <ele>805</ele>
        <time>2025-09-27T09:30:06.000Z</time>
      </trkpt>
      <trkpt lat="42.85812" lon="1.37133">
        <ele>805</ele>
        <time>2025-09-27T09:30:07.000Z</time>
      </trkpt>
      <trkpt lat="42.85808" lon="1.37133">
        <ele>805</ele>
        <time>2025-09-27T09:30:08.000Z</time>
      </trkpt>
      <trkpt lat="42.85804" lon="1.37132">
        <ele>805</ele>
        <time>2025-09-27T09:30:09.000Z</time>
      </trkpt>
      <trkpt lat="42.858" lon="1.37131">
        <ele>805</ele>
        <time>2025-09-27T09:30:10.000Z</time>
      </trkpt>
      <trkpt lat="42.85796" lon="1.3713">
        <ele>805</ele>
        <time>2025-09-27T09:30:11.000Z</time>
      </trkpt>
      <trkpt lat="42.85792" lon="1.37129">
        <ele>805</ele>
        <time>2025-09-27T09:30:12.000Z</time>
      </trkpt>
      <trkpt lat="42.85789" lon="1.37127">
        <ele>805</ele>
        <time>2025-09-27T09:30:13.000Z</time>
      </trkpt>
      <trkpt lat="42.85785" lon="1.37126">
        <ele>806</ele>
        <time>2025-09-27T09:30:14.000Z</time>
      </trkpt>
      <trkpt lat="42.85781" lon="1.37126">
        <ele>806</ele>
        <time>2025-09-27T09:30:15.000Z</time>
      </trkpt>
      <trkpt lat="42.85777" lon="1.37125">
        <ele>806</ele>
        <time>2025-09-27T09:30:16.000Z</time>
      </trkpt>
      <trkpt lat="42.85774" lon="1.37124">
        <ele>806</ele>
        <time>2025-09-27T09:30:17.000Z</time>
      </trkpt>
      <trkpt lat="42.8577" lon="1.37124">
        <ele>806</ele>
        <time>2025-09-27T09:30:18.000Z</time>
      </trkpt>
      <trkpt lat="42.85767" lon="1.37123">
        <ele>806</ele>
        <time>2025-09-27T09:30:19.000Z</time>
      </trkpt>
      <trkpt lat="42.85763" lon="1.37121">
        <ele>807</ele>
        <time>2025-09-27T09:30:20.000Z</time>
      </trkpt>
      <trkpt lat="42.85759" lon="1.37121">
        <ele>807</ele>
        <time>2025-09-27T09:30:21.000Z</time>
      </trkpt>
      <trkpt lat="42.85755" lon="1.37119">
        <ele>807</ele>
        <time>2025-09-27T09:30:22.000Z</time>
      </trkpt>
      <trkpt lat="42.85751" lon="1.37118">
        <ele>807</ele>
        <time>2025-09-27T09:30:23.000Z</time>
      </trkpt>
      <trkpt lat="42.85748" lon="1.37117">
        <ele>807</ele>
        <time>2025-09-27T09:30:24.000Z</time>
      </trkpt>
      <trkpt lat="42.85743" lon="1.37117">
        <ele>808</ele>
        <time>2025-09-27T09:30:25.000Z</time>
      </trkpt>
      <trkpt lat="42.8574" lon="1.37116">
        <ele>808</ele>
        <time>2025-09-27T09:30:26.000Z</time>
      </trkpt>
      <trkpt lat="42.85736" lon="1.37115">
        <ele>808</ele>
        <time>2025-09-27T09:30:27.000Z</time>
      </trkpt>
      <trkpt lat="42.85732" lon="1.37115">
        <ele>807</ele>
        <time>2025-09-27T09:30:28.000Z</time>
      </trkpt>
      <trkpt lat="42.85729" lon="1.37115">
        <ele>807</ele>
        <time>2025-09-27T09:30:29.000Z</time>
      </trkpt>
      <trkpt lat="42.85725" lon="1.37115">
        <ele>807</ele>
        <time>2025-09-27T09:30:30.000Z</time>
      </trkpt>
      <trkpt lat="42.85721" lon="1.37114">
        <ele>808</ele>
        <time>2025-09-27T09:30:31.000Z</time>
      </trkpt>
      <trkpt lat="42.85717" lon="1.37114">
        <ele>808</ele>
        <time>2025-09-27T09:30:32.000Z</time>
      </trkpt>
      <trkpt lat="42.85714" lon="1.37114">
        <ele>807</ele>
        <time>2025-09-27T09:30:33.000Z</time>
      </trkpt>
      <trkpt lat="42.8571" lon="1.37114">
        <ele>807</ele>
        <time>2025-09-27T09:30:34.000Z</time>
      </trkpt>
      <trkpt lat="42.85707" lon="1.37113">
        <ele>806</ele>
        <time>2025-09-27T09:30:35.000Z</time>
      </trkpt>
      <trkpt lat="42.85703" lon="1.37113">
        <ele>806</ele>
        <time>2025-09-27T09:30:36.000Z</time>
      </trkpt>
      <trkpt lat="42.85699" lon="1.37113">
        <ele>806</ele>
        <time>2025-09-27T09:30:37.000Z</time>
      </trkpt>
      <trkpt lat="42.85695" lon="1.37113">
        <ele>806</ele>
        <time>2025-09-27T09:30:38.000Z</time>
      </trkpt>
      <trkpt lat="42.85692" lon="1.37112">
        <ele>807</ele>
        <time>2025-09-27T09:30:39.000Z</time>
      </trkpt>
      <trkpt lat="42.85688" lon="1.3711">
        <ele>807</ele>
        <time>2025-09-27T09:30:40.000Z</time>
      </trkpt>
      <trkpt lat="42.85683" lon="1.37108">
        <ele>808</ele>
        <time>2025-09-27T09:30:41.000Z</time>
      </trkpt>
      <trkpt lat="42.85679" lon="1.37105">
        <ele>808</ele>
        <time>2025-09-27T09:30:42.000Z</time>
      </trkpt>
      <trkpt lat="42.85675" lon="1.37103">
        <ele>808</ele>
        <time>2025-09-27T09:30:43.000Z</time>
      </trkpt>
      <trkpt lat="42.85672" lon="1.37099">
        <ele>808</ele>
        <time>2025-09-27T09:30:44.000Z</time>
      </trkpt>
      <trkpt lat="42.85667" lon="1.37096">
        <ele>809</ele>
        <time>2025-09-27T09:30:45.000Z</time>
      </trkpt>
      <trkpt lat="42.85663" lon="1.37093">
        <ele>809</ele>
        <time>2025-09-27T09:30:46.000Z</time>
      </trkpt>
      <trkpt lat="42.85659" lon="1.37089">
        <ele>809</ele>
        <time>2025-09-27T09:30:47.000Z</time>
      </trkpt>
      <trkpt lat="42.85657" lon="1.37085">
        <ele>808</ele>
        <time>2025-09-27T09:30:48.000Z</time>
      </trkpt>
      <trkpt lat="42.85653" lon="1.37081">
        <ele>809</ele>
        <time>2025-09-27T09:30:49.000Z</time>
      </trkpt>
      <trkpt lat="42.8565" lon="1.37076">
        <ele>809</ele>
        <time>2025-09-27T09:30:50.000Z</time>
      </trkpt>
      <trkpt lat="42.85648" lon="1.37072">
        <ele>809</ele>
        <time>2025-09-27T09:30:51.000Z</time>
      </trkpt>
      <trkpt lat="42.85646" lon="1.37067">
        <ele>809</ele>
        <time>2025-09-27T09:30:52.000Z</time>
      </trkpt>
      <trkpt lat="42.85643" lon="1.37063">
        <ele>809</ele>
        <time>2025-09-27T09:30:53.000Z</time>
      </trkpt>
      <trkpt lat="42.85642" lon="1.37059">
        <ele>810</ele>
        <time>2025-09-27T09:30:54.000Z</time>
      </trkpt>
      <trkpt lat="42.85639" lon="1.37055">
        <ele>810</ele>
        <time>2025-09-27T09:30:55.000Z</time>
      </trkpt>
      <trkpt lat="42.85637" lon="1.3705">
        <ele>810</ele>
        <time>2025-09-27T09:30:56.000Z</time>
      </trkpt>
      <trkpt lat="42.85634" lon="1.37047">
        <ele>810</ele>
        <time>2025-09-27T09:30:57.000Z</time>
      </trkpt>
      <trkpt lat="42.85631" lon="1.37043">
        <ele>811</ele>
        <time>2025-09-27T09:30:58.000Z</time>
      </trkpt>
      <trkpt lat="42.85628" lon="1.37039">
        <ele>811</ele>
        <time>2025-09-27T09:30:59.000Z</time>
      </trkpt>
      <trkpt lat="42.85625" lon="1.37035">
        <ele>811</ele>
        <time>2025-09-27T09:31:00.000Z</time>
      </trkpt>
      <trkpt lat="42.85622" lon="1.3703">
        <ele>811</ele>
        <time>2025-09-27T09:31:01.000Z</time>
      </trkpt>
      <trkpt lat="42.85618" lon="1.37027">
        <ele>811</ele>
        <time>2025-09-27T09:31:02.000Z</time>
      </trkpt>
      <trkpt lat="42.85615" lon="1.37022">
        <ele>812</ele>
        <time>2025-09-27T09:31:03.000Z</time>
      </trkpt>
      <trkpt lat="42.85612" lon="1.37019">
        <ele>812</ele>
        <time>2025-09-27T09:31:04.000Z</time>
      </trkpt>
      <trkpt lat="42.85609" lon="1.37015">
        <ele>813</ele>
        <time>2025-09-27T09:31:05.000Z</time>
      </trkpt>
      <trkpt lat="42.85606" lon="1.37012">
        <ele>813</ele>
        <time>2025-09-27T09:31:06.000Z</time>
      </trkpt>
      <trkpt lat="42.85603" lon="1.3701">
        <ele>813</ele>
        <time>2025-09-27T09:31:07.000Z</time>
      </trkpt>
      <trkpt lat="42.856" lon="1.37007">
        <ele>813</ele>
        <time>2025-09-27T09:31:08.000Z</time>
      </trkpt>
      <trkpt lat="42.85596" lon="1.37005">
        <ele>812</ele>
        <time>2025-09-27T09:31:09.000Z</time>
      </trkpt>
      <trkpt lat="42.85593" lon="1.37004">
        <ele>812</ele>
        <time>2025-09-27T09:31:10.000Z</time>
      </trkpt>
      <trkpt lat="42.8559" lon="1.37001">
        <ele>813</ele>
        <time>2025-09-27T09:31:11.000Z</time>
      </trkpt>
      <trkpt lat="42.85587" lon="1.37">
        <ele>813</ele>
        <time>2025-09-27T09:31:12.000Z</time>
      </trkpt>
      <trkpt lat="42.85584" lon="1.36997">
        <ele>813</ele>
        <time>2025-09-27T09:31:13.000Z</time>
      </trkpt>
      <trkpt lat="42.85581" lon="1.36994">
        <ele>814</ele>
        <time>2025-09-27T09:31:14.000Z</time>
      </trkpt>
      <trkpt lat="42.85579" lon="1.36991">
        <ele>814</ele>
        <time>2025-09-27T09:31:15.000Z</time>
      </trkpt>
      <trkpt lat="42.85575" lon="1.36989">
        <ele>814</ele>
        <time>2025-09-27T09:31:16.000Z</time>
      </trkpt>
      <trkpt lat="42.85572" lon="1.36987">
        <ele>814</ele>
        <time>2025-09-27T09:31:17.000Z</time>
      </trkpt>
      <trkpt lat="42.85569" lon="1.36986">
        <ele>815</ele>
        <time>2025-09-27T09:31:18.000Z</time>
      </trkpt>
      <trkpt lat="42.85565" lon="1.36984">
        <ele>815</ele>
        <time>2025-09-27T09:31:19.000Z</time>
      </trkpt>
      <trkpt lat="42.85561" lon="1.36982">
        <ele>815</ele>
        <time>2025-09-27T09:31:20.000Z</time>
      </trkpt>
      <trkpt lat="42.85557" lon="1.3698">
        <ele>816</ele>
        <time>2025-09-27T09:31:21.000Z</time>
      </trkpt>
      <trkpt lat="42.85553" lon="1.36979">
        <ele>816</ele>
        <time>2025-09-27T09:31:22.000Z</time>
      </trkpt>
      <trkpt lat="42.85549" lon="1.36978">
        <ele>816</ele>
        <time>2025-09-27T09:31:23.000Z</time>
      </trkpt>
      <trkpt lat="42.85545" lon="1.36979">
        <ele>816</ele>
        <time>2025-09-27T09:31:24.000Z</time>
      </trkpt>
      <trkpt lat="42.85541" lon="1.3698">
        <ele>816</ele>
        <time>2025-09-27T09:31:25.000Z</time>
      </trkpt>
      <trkpt lat="42.85538" lon="1.36981">
        <ele>816</ele>
        <time>2025-09-27T09:31:26.000Z</time>
      </trkpt>
      <trkpt lat="42.85534" lon="1.36984">
        <ele>816</ele>
        <time>2025-09-27T09:31:27.000Z</time>
      </trkpt>
      <trkpt lat="42.8553" lon="1.36985">
        <ele>816</ele>
        <time>2025-09-27T09:31:28.000Z</time>
      </trkpt>
      <trkpt lat="42.85526" lon="1.36986">
        <ele>817</ele>
        <time>2025-09-27T09:31:29.000Z</time>
      </trkpt>
      <trkpt lat="42.85523" lon="1.36988">
        <ele>817</ele>
        <time>2025-09-27T09:31:30.000Z</time>
      </trkpt>
      <trkpt lat="42.85519" lon="1.3699">
        <ele>817</ele>
        <time>2025-09-27T09:31:31.000Z</time>
      </trkpt>
      <trkpt lat="42.85516" lon="1.36994">
        <ele>817</ele>
        <time>2025-09-27T09:31:32.000Z</time>
      </trkpt>
      <trkpt lat="42.85513" lon="1.36998">
        <ele>817</ele>
        <time>2025-09-27T09:31:33.000Z</time>
      </trkpt>
      <trkpt lat="42.85509" lon="1.37001">
        <ele>817</ele>
        <time>2025-09-27T09:31:34.000Z</time>
      </trkpt>
      <trkpt lat="42.85506" lon="1.37004">
        <ele>817</ele>
        <time>2025-09-27T09:31:35.000Z</time>
      </trkpt>
      <trkpt lat="42.85502" lon="1.37007">
        <ele>818</ele>
        <time>2025-09-27T09:31:36.000Z</time>
      </trkpt>
      <trkpt lat="42.85499" lon="1.37009">
        <ele>819</ele>
        <time>2025-09-27T09:31:37.000Z</time>
      </trkpt>
      <trkpt lat="42.85496" lon="1.37012">
        <ele>819</ele>
        <time>2025-09-27T09:31:38.000Z</time>
      </trkpt>
      <trkpt lat="42.85494" lon="1.37015">
        <ele>819</ele>
        <time>2025-09-27T09:31:39.000Z</time>
      </trkpt>
      <trkpt lat="42.8549" lon="1.37019">
        <ele>819</ele>
        <time>2025-09-27T09:31:40.000Z</time>
      </trkpt>
      <trkpt lat="42.85487" lon="1.37024">
        <ele>820</ele>
        <time>2025-09-27T09:31:41.000Z</time>
      </trkpt>
      <trkpt lat="42.85484" lon="1.37028">
        <ele>820</ele>
        <time>2025-09-27T09:31:42.000Z</time>
      </trkpt>
      <trkpt lat="42.85481" lon="1.37031">
        <ele>820</ele>
        <time>2025-09-27T09:31:43.000Z</time>
      </trkpt>
      <trkpt lat="42.85478" lon="1.37034">
        <ele>820</ele>
        <time>2025-09-27T09:31:44.000Z</time>
      </trkpt>
      <trkpt lat="42.85475" lon="1.37037">
        <ele>821</ele>
        <time>2025-09-27T09:31:45.000Z</time>
      </trkpt>
      <trkpt lat="42.85471" lon="1.3704">
        <ele>821</ele>
        <time>2025-09-27T09:31:46.000Z</time>
      </trkpt>
      <trkpt lat="42.85468" lon="1.37043">
        <ele>821</ele>
        <time>2025-09-27T09:31:47.000Z</time>
      </trkpt>
      <trkpt lat="42.85465" lon="1.37045">
        <ele>822</ele>
        <time>2025-09-27T09:31:48.000Z</time>
      </trkpt>
      <trkpt lat="42.85461" lon="1.37047">
        <ele>822</ele>
        <time>2025-09-27T09:31:49.000Z</time>
      </trkpt>
      <trkpt lat="42.85458" lon="1.37049">
        <ele>822</ele>
        <time>2025-09-27T09:31:50.000Z</time>
      </trkpt>
      <trkpt lat="42.85455" lon="1.37051">
        <ele>823</ele>
        <time>2025-09-27T09:31:51.000Z</time>
      </trkpt>
      <trkpt lat="42.85452" lon="1.37054">
        <ele>823</ele>
        <time>2025-09-27T09:31:52.000Z</time>
      </trkpt>
      <trkpt lat="42.85449" lon="1.37056">
        <ele>823</ele>
        <time>2025-09-27T09:31:53.000Z</time>
      </trkpt>
      <trkpt lat="42.85445" lon="1.37059">
        <ele>823</ele>
        <time>2025-09-27T09:31:54.000Z</time>
      </trkpt>
      <trkpt lat="42.85443" lon="1.37062">
        <ele>824</ele>
        <time>2025-09-27T09:31:55.000Z</time>
      </trkpt>
      <trkpt lat="42.8544" lon="1.37064">
        <ele>823</ele>
        <time>2025-09-27T09:31:56.000Z</time>
      </trkpt>
      <trkpt lat="42.85437" lon="1.37066">
        <ele>823</ele>
        <time>2025-09-27T09:31:57.000Z</time>
      </trkpt>
      <trkpt lat="42.85433" lon="1.37069">
        <ele>824</ele>
        <time>2025-09-27T09:31:58.000Z</time>
      </trkpt>
      <trkpt lat="42.85431" lon="1.37071">
        <ele>824</ele>
        <time>2025-09-27T09:31:59.000Z</time>
      </trkpt>
      <trkpt lat="42.85428" lon="1.37074">
        <ele>824</ele>
        <time>2025-09-27T09:32:00.000Z</time>
      </trkpt>
      <trkpt lat="42.85424" lon="1.37076">
        <ele>824</ele>
        <time>2025-09-27T09:32:01.000Z</time>
      </trkpt>
      <trkpt lat="42.85421" lon="1.37079">
        <ele>825</ele>
        <time>2025-09-27T09:32:02.000Z</time>
      </trkpt>
      <trkpt lat="42.85418" lon="1.37082">
        <ele>825</ele>
        <time>2025-09-27T09:32:03.000Z</time>
      </trkpt>
      <trkpt lat="42.85414" lon="1.37084">
        <ele>825</ele>
        <time>2025-09-27T09:32:04.000Z</time>
      </trkpt>
      <trkpt lat="42.8541" lon="1.37087">
        <ele>826</ele>
        <time>2025-09-27T09:32:05.000Z</time>
      </trkpt>
      <trkpt lat="42.85407" lon="1.37088">
        <ele>826</ele>
        <time>2025-09-27T09:32:06.000Z</time>
      </trkpt>
      <trkpt lat="42.85403" lon="1.37091">
        <ele>826</ele>
        <time>2025-09-27T09:32:07.000Z</time>
      </trkpt>
      <trkpt lat="42.85399" lon="1.37093">
        <ele>827</ele>
        <time>2025-09-27T09:32:08.000Z</time>
      </trkpt>
      <trkpt lat="42.85397" lon="1.37097">
        <ele>827</ele>
        <time>2025-09-27T09:32:09.000Z</time>
      </trkpt>
      <trkpt lat="42.85394" lon="1.37099">
        <ele>827</ele>
        <time>2025-09-27T09:32:10.000Z</time>
      </trkpt>
      <trkpt lat="42.8539" lon="1.37102">
        <ele>827</ele>
        <time>2025-09-27T09:32:11.000Z</time>
      </trkpt>
      <trkpt lat="42.85387" lon="1.37105">
        <ele>827</ele>
        <time>2025-09-27T09:32:12.000Z</time>
      </trkpt>
      <trkpt lat="42.85383" lon="1.37108">
        <ele>828</ele>
        <time>2025-09-27T09:32:13.000Z</time>
      </trkpt>
      <trkpt lat="42.85378" lon="1.37111">
        <ele>828</ele>
        <time>2025-09-27T09:32:14.000Z</time>
      </trkpt>
      <trkpt lat="42.85375" lon="1.37113">
        <ele>828</ele>
        <time>2025-09-27T09:32:15.000Z</time>
      </trkpt>
      <trkpt lat="42.85371" lon="1.37115">
        <ele>828</ele>
        <time>2025-09-27T09:32:16.000Z</time>
      </trkpt>
      <trkpt lat="42.85367" lon="1.37118">
        <ele>828</ele>
        <time>2025-09-27T09:32:17.000Z</time>
      </trkpt>
      <trkpt lat="42.85364" lon="1.37121">
        <ele>828</ele>
        <time>2025-09-27T09:32:18.000Z</time>
      </trkpt>
      <trkpt lat="42.8536" lon="1.37123">
        <ele>829</ele>
        <time>2025-09-27T09:32:19.000Z</time>
      </trkpt>
      <trkpt lat="42.85355" lon="1.37124">
        <ele>829</ele>
        <time>2025-09-27T09:32:20.000Z</time>
      </trkpt>
      <trkpt lat="42.85351" lon="1.37126">
        <ele>830</ele>
        <time>2025-09-27T09:32:21.000Z</time>
      </trkpt>
      <trkpt lat="42.85348" lon="1.37129">
        <ele>830</ele>
        <time>2025-09-27T09:32:22.000Z</time>
      </trkpt>
      <trkpt lat="42.85344" lon="1.37132">
        <ele>831</ele>
        <time>2025-09-27T09:32:23.000Z</time>
      </trkpt>
      <trkpt lat="42.85341" lon="1.37134">
        <ele>831</ele>
        <time>2025-09-27T09:32:24.000Z</time>
      </trkpt>
      <trkpt lat="42.85338" lon="1.37136">
        <ele>831</ele>
        <time>2025-09-27T09:32:25.000Z</time>
      </trkpt>
      <trkpt lat="42.85334" lon="1.37139">
        <ele>831</ele>
        <time>2025-09-27T09:32:26.000Z</time>
      </trkpt>
      <trkpt lat="42.85331" lon="1.37143">
        <ele>833</ele>
        <time>2025-09-27T09:32:27.000Z</time>
      </trkpt>
      <trkpt lat="42.85328" lon="1.37147">
        <ele>833</ele>
        <time>2025-09-27T09:32:28.000Z</time>
      </trkpt>
      <trkpt lat="42.85326" lon="1.37151">
        <ele>833</ele>
        <time>2025-09-27T09:32:29.000Z</time>
      </trkpt>
      <trkpt lat="42.85323" lon="1.37156">
        <ele>834</ele>
        <time>2025-09-27T09:32:30.000Z</time>
      </trkpt>
      <trkpt lat="42.85321" lon="1.37159">
        <ele>834</ele>
        <time>2025-09-27T09:32:31.000Z</time>
      </trkpt>
      <trkpt lat="42.85318" lon="1.37161">
        <ele>835</ele>
        <time>2025-09-27T09:32:32.000Z</time>
      </trkpt>
      <trkpt lat="42.85315" lon="1.37164">
        <ele>835</ele>
        <time>2025-09-27T09:32:33.000Z</time>
      </trkpt>
      <trkpt lat="42.85312" lon="1.37167">
        <ele>835</ele>
        <time>2025-09-27T09:32:34.000Z</time>
      </trkpt>
      <trkpt lat="42.85309" lon="1.3717">
        <ele>835</ele>
        <time>2025-09-27T09:32:35.000Z</time>
      </trkpt>
      <trkpt lat="42.85306" lon="1.37174">
        <ele>835</ele>
        <time>2025-09-27T09:32:36.000Z</time>
      </trkpt>
      <trkpt lat="42.85303" lon="1.37176">
        <ele>835</ele>
        <time>2025-09-27T09:32:37.000Z</time>
      </trkpt>
      <trkpt lat="42.853" lon="1.37179">
        <ele>835</ele>
        <time>2025-09-27T09:32:38.000Z</time>
      </trkpt>
      <trkpt lat="42.85297" lon="1.37183">
        <ele>836</ele>
        <time>2025-09-27T09:32:39.000Z</time>
      </trkpt>
      <trkpt lat="42.85294" lon="1.37186">
        <ele>836</ele>
        <time>2025-09-27T09:32:40.000Z</time>
      </trkpt>
      <trkpt lat="42.85291" lon="1.37189">
        <ele>836</ele>
        <time>2025-09-27T09:32:41.000Z</time>
      </trkpt>
      <trkpt lat="42.85286" lon="1.37191">
        <ele>836</ele>
        <time>2025-09-27T09:32:42.000Z</time>
      </trkpt>
      <trkpt lat="42.85283" lon="1.37194">
        <ele>837</ele>
        <time>2025-09-27T09:32:43.000Z</time>
      </trkpt>
      <trkpt lat="42.8528" lon="1.37197">
        <ele>837</ele>
        <time>2025-09-27T09:32:44.000Z</time>
      </trkpt>
      <trkpt lat="42.85277" lon="1.37199">
        <ele>837</ele>
        <time>2025-09-27T09:32:45.000Z</time>
      </trkpt>
      <trkpt lat="42.85273" lon="1.37201">
        <ele>837</ele>
        <time>2025-09-27T09:32:46.000Z</time>
      </trkpt>
      <trkpt lat="42.8527" lon="1.37203">
        <ele>838</ele>
        <time>2025-09-27T09:32:47.000Z</time>
      </trkpt>
      <trkpt lat="42.85267" lon="1.37206">
        <ele>838</ele>
        <time>2025-09-27T09:32:48.000Z</time>
      </trkpt>
      <trkpt lat="42.85265" lon="1.3721">
        <ele>838</ele>
        <time>2025-09-27T09:32:49.000Z</time>
      </trkpt>
      <trkpt lat="42.85262" lon="1.37212">
        <ele>839</ele>
        <time>2025-09-27T09:32:50.000Z</time>
      </trkpt>
      <trkpt lat="42.8526" lon="1.37213">
        <ele>839</ele>
        <time>2025-09-27T09:32:51.000Z</time>
      </trkpt>
      <trkpt lat="42.85257" lon="1.37214">
        <ele>839</ele>
        <time>2025-09-27T09:32:52.000Z</time>
      </trkpt>
      <trkpt lat="42.85256" lon="1.37213">
        <ele>840</ele>
        <time>2025-09-27T09:32:53.000Z</time>
      </trkpt>
      <trkpt lat="42.85256" lon="1.37214">
        <ele>840</ele>
        <time>2025-09-27T09:32:54.000Z</time>
      </trkpt>
      <trkpt lat="42.85253" lon="1.37214">
        <ele>839</ele>
        <time>2025-09-27T09:33:21.000Z</time>
      </trkpt>
      <trkpt lat="42.85252" lon="1.37214">
        <ele>840</ele>
        <time>2025-09-27T09:33:22.000Z</time>
      </trkpt>
      <trkpt lat="42.8525" lon="1.37215">
        <ele>840</ele>
        <time>2025-09-27T09:33:23.000Z</time>
      </trkpt>
      <trkpt lat="42.85249" lon="1.37216">
        <ele>840</ele>
        <time>2025-09-27T09:33:24.000Z</time>
      </trkpt>
      <trkpt lat="42.85248" lon="1.37219">
        <ele>840</ele>
        <time>2025-09-27T09:33:25.000Z</time>
      </trkpt>
      <trkpt lat="42.85246" lon="1.3722">
        <ele>840</ele>
        <time>2025-09-27T09:33:26.000Z</time>
      </trkpt>
      <trkpt lat="42.85244" lon="1.37222">
        <ele>841</ele>
        <time>2025-09-27T09:33:27.000Z</time>
      </trkpt>
      <trkpt lat="42.85242" lon="1.37225">
        <ele>842</ele>
        <time>2025-09-27T09:33:28.000Z</time>
      </trkpt>
      <trkpt lat="42.8524" lon="1.37227">
        <ele>843</ele>
        <time>2025-09-27T09:33:29.000Z</time>
      </trkpt>
      <trkpt lat="42.85237" lon="1.37229">
        <ele>844</ele>
        <time>2025-09-27T09:33:30.000Z</time>
      </trkpt>
      <trkpt lat="42.85235" lon="1.37231">
        <ele>844</ele>
        <time>2025-09-27T09:33:31.000Z</time>
      </trkpt>
      <trkpt lat="42.85233" lon="1.37232">
        <ele>844</ele>
        <time>2025-09-27T09:33:32.000Z</time>
      </trkpt>
      <trkpt lat="42.8523" lon="1.37233">
        <ele>844</ele>
        <time>2025-09-27T09:33:33.000Z</time>
      </trkpt>
      <trkpt lat="42.85227" lon="1.37233">
        <ele>844</ele>
        <time>2025-09-27T09:33:34.000Z</time>
      </trkpt>
      <trkpt lat="42.85224" lon="1.37234">
        <ele>844</ele>
        <time>2025-09-27T09:33:35.000Z</time>
      </trkpt>
      <trkpt lat="42.85221" lon="1.37235">
        <ele>844</ele>
        <time>2025-09-27T09:33:36.000Z</time>
      </trkpt>
      <trkpt lat="42.85218" lon="1.37235">
        <ele>844</ele>
        <time>2025-09-27T09:33:37.000Z</time>
      </trkpt>
      <trkpt lat="42.85215" lon="1.37236">
        <ele>845</ele>
        <time>2025-09-27T09:33:38.000Z</time>
      </trkpt>
      <trkpt lat="42.85211" lon="1.37236">
        <ele>845</ele>
        <time>2025-09-27T09:33:39.000Z</time>
      </trkpt>
      <trkpt lat="42.85208" lon="1.37237">
        <ele>845</ele>
        <time>2025-09-27T09:33:40.000Z</time>
      </trkpt>
      <trkpt lat="42.85204" lon="1.37237">
        <ele>845</ele>
        <time>2025-09-27T09:33:41.000Z</time>
      </trkpt>
      <trkpt lat="42.85201" lon="1.37238">
        <ele>845</ele>
        <time>2025-09-27T09:33:42.000Z</time>
      </trkpt>
      <trkpt lat="42.85198" lon="1.37239">
        <ele>845</ele>
        <time>2025-09-27T09:33:43.000Z</time>
      </trkpt>
      <trkpt lat="42.85194" lon="1.37239">
        <ele>845</ele>
        <time>2025-09-27T09:33:44.000Z</time>
      </trkpt>
      <trkpt lat="42.85191" lon="1.37239">
        <ele>845</ele>
        <time>2025-09-27T09:33:45.000Z</time>
      </trkpt>
      <trkpt lat="42.85187" lon="1.37239">
        <ele>845</ele>
        <time>2025-09-27T09:33:46.000Z</time>
      </trkpt>
      <trkpt lat="42.85183" lon="1.37239">
        <ele>845</ele>
        <time>2025-09-27T09:33:47.000Z</time>
      </trkpt>
      <trkpt lat="42.85179" lon="1.37238">
        <ele>845</ele>
        <time>2025-09-27T09:33:48.000Z</time>
      </trkpt>
      <trkpt lat="42.85176" lon="1.37237">
        <ele>846</ele>
        <time>2025-09-27T09:33:49.000Z</time>
      </trkpt>
      <trkpt lat="42.85172" lon="1.37234">
        <ele>845</ele>
        <time>2025-09-27T09:33:50.000Z</time>
      </trkpt>
      <trkpt lat="42.85169" lon="1.37231">
        <ele>846</ele>
        <time>2025-09-27T09:33:51.000Z</time>
      </trkpt>
      <trkpt lat="42.85165" lon="1.37228">
        <ele>846</ele>
        <time>2025-09-27T09:33:52.000Z</time>
      </trkpt>
      <trkpt lat="42.85163" lon="1.37224">
        <ele>847</ele>
        <time>2025-09-27T09:33:53.000Z</time>
      </trkpt>
      <trkpt lat="42.8516" lon="1.3722">
        <ele>847</ele>
        <time>2025-09-27T09:33:54.000Z</time>
      </trkpt>
      <trkpt lat="42.85157" lon="1.37216">
        <ele>847</ele>
        <time>2025-09-27T09:33:55.000Z</time>
      </trkpt>
      <trkpt lat="42.85155" lon="1.37213">
        <ele>847</ele>
        <time>2025-09-27T09:33:56.000Z</time>
      </trkpt>
      <trkpt lat="42.85152" lon="1.37209">
        <ele>847</ele>
        <time>2025-09-27T09:33:57.000Z</time>
      </trkpt>
      <trkpt lat="42.8515" lon="1.37205">
        <ele>847</ele>
        <time>2025-09-27T09:33:58.000Z</time>
      </trkpt>
      <trkpt lat="42.85146" lon="1.37201">
        <ele>848</ele>
        <time>2025-09-27T09:33:59.000Z</time>
      </trkpt>
      <trkpt lat="42.85143" lon="1.37198">
        <ele>848</ele>
        <time>2025-09-27T09:34:00.000Z</time>
      </trkpt>
      <trkpt lat="42.85139" lon="1.37195">
        <ele>848</ele>
        <time>2025-09-27T09:34:01.000Z</time>
      </trkpt>
      <trkpt lat="42.85135" lon="1.37192">
        <ele>848</ele>
        <time>2025-09-27T09:34:02.000Z</time>
      </trkpt>
      <trkpt lat="42.85131" lon="1.3719">
        <ele>848</ele>
        <time>2025-09-27T09:34:03.000Z</time>
      </trkpt>
      <trkpt lat="42.85128" lon="1.37188">
        <ele>847</ele>
        <time>2025-09-27T09:34:04.000Z</time>
      </trkpt>
      <trkpt lat="42.85125" lon="1.37186">
        <ele>848</ele>
        <time>2025-09-27T09:34:05.000Z</time>
      </trkpt>
      <trkpt lat="42.85122" lon="1.37185">
        <ele>848</ele>
        <time>2025-09-27T09:34:06.000Z</time>
      </trkpt>
      <trkpt lat="42.85119" lon="1.37184">
        <ele>848</ele>
        <time>2025-09-27T09:34:07.000Z</time>
      </trkpt>
      <trkpt lat="42.85116" lon="1.37182">
        <ele>848</ele>
        <time>2025-09-27T09:34:08.000Z</time>
      </trkpt>
      <trkpt lat="42.85113" lon="1.37181">
        <ele>848</ele>
        <time>2025-09-27T09:34:09.000Z</time>
      </trkpt>
      <trkpt lat="42.8511" lon="1.37178">
        <ele>848</ele>
        <time>2025-09-27T09:34:10.000Z</time>
      </trkpt>
      <trkpt lat="42.85107" lon="1.37177">
        <ele>848</ele>
        <time>2025-09-27T09:34:11.000Z</time>
      </trkpt>
      <trkpt lat="42.85104" lon="1.37177">
        <ele>848</ele>
        <time>2025-09-27T09:34:12.000Z</time>
      </trkpt>
      <trkpt lat="42.85101" lon="1.37176">
        <ele>848</ele>
        <time>2025-09-27T09:34:13.000Z</time>
      </trkpt>
      <trkpt lat="42.85098" lon="1.37175">
        <ele>848</ele>
        <time>2025-09-27T09:34:14.000Z</time>
      </trkpt>
      <trkpt lat="42.85095" lon="1.37174">
        <ele>849</ele>
        <time>2025-09-27T09:34:15.000Z</time>
      </trkpt>
      <trkpt lat="42.85092" lon="1.37172">
        <ele>849</ele>
        <time>2025-09-27T09:34:16.000Z</time>
      </trkpt>
      <trkpt lat="42.85089" lon="1.37171">
        <ele>849</ele>
        <time>2025-09-27T09:34:17.000Z</time>
      </trkpt>
      <trkpt lat="42.85086" lon="1.3717">
        <ele>849</ele>
        <time>2025-09-27T09:34:18.000Z</time>
      </trkpt>
      <trkpt lat="42.85084" lon="1.37169">
        <ele>849</ele>
        <time>2025-09-27T09:34:19.000Z</time>
      </trkpt>
      <trkpt lat="42.85082" lon="1.37166">
        <ele>849</ele>
        <time>2025-09-27T09:34:20.000Z</time>
      </trkpt>
      <trkpt lat="42.85079" lon="1.37165">
        <ele>849</ele>
        <time>2025-09-27T09:34:21.000Z</time>
      </trkpt>
      <trkpt lat="42.85076" lon="1.37164">
        <ele>849</ele>
        <time>2025-09-27T09:34:22.000Z</time>
      </trkpt>
      <trkpt lat="42.85072" lon="1.37163">
        <ele>849</ele>
        <time>2025-09-27T09:34:23.000Z</time>
      </trkpt>
      <trkpt lat="42.85069" lon="1.37162">
        <ele>849</ele>
        <time>2025-09-27T09:34:24.000Z</time>
      </trkpt>
      <trkpt lat="42.85066" lon="1.3716">
        <ele>849</ele>
        <time>2025-09-27T09:34:25.000Z</time>
      </trkpt>
      <trkpt lat="42.85063" lon="1.3716">
        <ele>849</ele>
        <time>2025-09-27T09:34:26.000Z</time>
      </trkpt>
      <trkpt lat="42.85059" lon="1.3716">
        <ele>849</ele>
        <time>2025-09-27T09:34:27.000Z</time>
      </trkpt>
      <trkpt lat="42.85056" lon="1.3716">
        <ele>849</ele>
        <time>2025-09-27T09:34:28.000Z</time>
      </trkpt>
      <trkpt lat="42.85052" lon="1.3716">
        <ele>849</ele>
        <time>2025-09-27T09:34:29.000Z</time>
      </trkpt>
      <trkpt lat="42.85049" lon="1.37161">
        <ele>849</ele>
        <time>2025-09-27T09:34:30.000Z</time>
      </trkpt>
      <trkpt lat="42.85046" lon="1.37162">
        <ele>849</ele>
        <time>2025-09-27T09:34:31.000Z</time>
      </trkpt>
      <trkpt lat="42.85042" lon="1.37162">
        <ele>849</ele>
        <time>2025-09-27T09:34:32.000Z</time>
      </trkpt>
      <trkpt lat="42.85039" lon="1.37161">
        <ele>850</ele>
        <time>2025-09-27T09:34:33.000Z</time>
      </trkpt>
      <trkpt lat="42.85036" lon="1.37161">
        <ele>850</ele>
        <time>2025-09-27T09:34:34.000Z</time>
      </trkpt>
      <trkpt lat="42.85032" lon="1.37161">
        <ele>850</ele>
        <time>2025-09-27T09:34:35.000Z</time>
      </trkpt>
      <trkpt lat="42.85029" lon="1.37161">
        <ele>851</ele>
        <time>2025-09-27T09:34:36.000Z</time>
      </trkpt>
      <trkpt lat="42.85025" lon="1.37161">
        <ele>851</ele>
        <time>2025-09-27T09:34:37.000Z</time>
      </trkpt>
      <trkpt lat="42.85022" lon="1.37161">
        <ele>852</ele>
        <time>2025-09-27T09:34:38.000Z</time>
      </trkpt>
      <trkpt lat="42.85019" lon="1.37162">
        <ele>852</ele>
        <time>2025-09-27T09:34:39.000Z</time>
      </trkpt>
      <trkpt lat="42.85015" lon="1.37162">
        <ele>852</ele>
        <time>2025-09-27T09:34:40.000Z</time>
      </trkpt>
      <trkpt lat="42.85011" lon="1.37162">
        <ele>852</ele>
        <time>2025-09-27T09:34:41.000Z</time>
      </trkpt>
      <trkpt lat="42.85008" lon="1.37162">
        <ele>853</ele>
        <time>2025-09-27T09:34:42.000Z</time>
      </trkpt>
      <trkpt lat="42.85005" lon="1.37163">
        <ele>853</ele>
        <time>2025-09-27T09:34:43.000Z</time>
      </trkpt>
      <trkpt lat="42.85001" lon="1.37162">
        <ele>853</ele>
        <time>2025-09-27T09:34:44.000Z</time>
      </trkpt>
      <trkpt lat="42.84998" lon="1.37162">
        <ele>853</ele>
        <time>2025-09-27T09:34:45.000Z</time>
      </trkpt>
      <trkpt lat="42.84994" lon="1.37162">
        <ele>854</ele>
        <time>2025-09-27T09:34:46.000Z</time>
      </trkpt>
      <trkpt lat="42.84991" lon="1.37162">
        <ele>854</ele>
        <time>2025-09-27T09:34:47.000Z</time>
      </trkpt>
      <trkpt lat="42.84988" lon="1.37162">
        <ele>854</ele>
        <time>2025-09-27T09:34:48.000Z</time>
      </trkpt>
      <trkpt lat="42.84985" lon="1.37161">
        <ele>855</ele>
        <time>2025-09-27T09:34:49.000Z</time>
      </trkpt>
      <trkpt lat="42.84982" lon="1.37161">
        <ele>855</ele>
        <time>2025-09-27T09:34:50.000Z</time>
      </trkpt>
      <trkpt lat="42.84978" lon="1.37162">
        <ele>855</ele>
        <time>2025-09-27T09:34:51.000Z</time>
      </trkpt>
      <trkpt lat="42.84975" lon="1.37162">
        <ele>856</ele>
        <time>2025-09-27T09:34:52.000Z</time>
      </trkpt>
      <trkpt lat="42.84971" lon="1.37163">
        <ele>856</ele>
        <time>2025-09-27T09:34:53.000Z</time>
      </trkpt>
      <trkpt lat="42.84968" lon="1.37162">
        <ele>856</ele>
        <time>2025-09-27T09:34:54.000Z</time>
      </trkpt>
      <trkpt lat="42.84965" lon="1.37161">
        <ele>857</ele>
        <time>2025-09-27T09:34:55.000Z</time>
      </trkpt>
      <trkpt lat="42.84961" lon="1.37161">
        <ele>857</ele>
        <time>2025-09-27T09:34:56.000Z</time>
      </trkpt>
      <trkpt lat="42.84958" lon="1.37161">
        <ele>857</ele>
        <time>2025-09-27T09:34:57.000Z</time>
      </trkpt>
      <trkpt lat="42.84955" lon="1.37162">
        <ele>857</ele>
        <time>2025-09-27T09:34:58.000Z</time>
      </trkpt>
      <trkpt lat="42.84952" lon="1.37162">
        <ele>857</ele>
        <time>2025-09-27T09:34:59.000Z</time>
      </trkpt>
      <trkpt lat="42.84949" lon="1.37162">
        <ele>857</ele>
        <time>2025-09-27T09:35:00.000Z</time>
      </trkpt>
      <trkpt lat="42.84946" lon="1.37161">
        <ele>858</ele>
        <time>2025-09-27T09:35:01.000Z</time>
      </trkpt>
      <trkpt lat="42.84943" lon="1.37161">
        <ele>858</ele>
        <time>2025-09-27T09:35:02.000Z</time>
      </trkpt>
      <trkpt lat="42.84939" lon="1.37161">
        <ele>858</ele>
        <time>2025-09-27T09:35:03.000Z</time>
      </trkpt>
      <trkpt lat="42.84936" lon="1.37162">
        <ele>858</ele>
        <time>2025-09-27T09:35:04.000Z</time>
      </trkpt>
      <trkpt lat="42.84933" lon="1.37162">
        <ele>858</ele>
        <time>2025-09-27T09:35:05.000Z</time>
      </trkpt>
      <trkpt lat="42.8493" lon="1.37163">
        <ele>858</ele>
        <time>2025-09-27T09:35:06.000Z</time>
      </trkpt>
      <trkpt lat="42.84927" lon="1.37161">
        <ele>859</ele>
        <time>2025-09-27T09:35:07.000Z</time>
      </trkpt>
      <trkpt lat="42.84923" lon="1.37158">
        <ele>859</ele>
        <time>2025-09-27T09:35:08.000Z</time>
      </trkpt>
      <trkpt lat="42.8492" lon="1.37157">
        <ele>859</ele>
        <time>2025-09-27T09:35:09.000Z</time>
      </trkpt>
      <trkpt lat="42.84916" lon="1.37157">
        <ele>859</ele>
        <time>2025-09-27T09:35:10.000Z</time>
      </trkpt>
      <trkpt lat="42.84912" lon="1.37156">
        <ele>860</ele>
        <time>2025-09-27T09:35:11.000Z</time>
      </trkpt>
      <trkpt lat="42.84908" lon="1.37158">
        <ele>859</ele>
        <time>2025-09-27T09:35:12.000Z</time>
      </trkpt>
      <trkpt lat="42.84904" lon="1.37159">
        <ele>860</ele>
        <time>2025-09-27T09:35:13.000Z</time>
      </trkpt>
      <trkpt lat="42.849" lon="1.3716">
        <ele>860</ele>
        <time>2025-09-27T09:35:14.000Z</time>
      </trkpt>
      <trkpt lat="42.84897" lon="1.3716">
        <ele>860</ele>
        <time>2025-09-27T09:35:15.000Z</time>
      </trkpt>
      <trkpt lat="42.84892" lon="1.3716">
        <ele>861</ele>
        <time>2025-09-27T09:35:16.000Z</time>
      </trkpt>
      <trkpt lat="42.84888" lon="1.37161">
        <ele>861</ele>
        <time>2025-09-27T09:35:17.000Z</time>
      </trkpt>
      <trkpt lat="42.84884" lon="1.37162">
        <ele>862</ele>
        <time>2025-09-27T09:35:18.000Z</time>
      </trkpt>
      <trkpt lat="42.84881" lon="1.37162">
        <ele>862</ele>
        <time>2025-09-27T09:35:19.000Z</time>
      </trkpt>
      <trkpt lat="42.84877" lon="1.37163">
        <ele>862</ele>
        <time>2025-09-27T09:35:20.000Z</time>
      </trkpt>
      <trkpt lat="42.84873" lon="1.37165">
        <ele>862</ele>
        <time>2025-09-27T09:35:21.000Z</time>
      </trkpt>
      <trkpt lat="42.8487" lon="1.37166">
        <ele>862</ele>
        <time>2025-09-27T09:35:22.000Z</time>
      </trkpt>
      <trkpt lat="42.84867" lon="1.37167">
        <ele>863</ele>
        <time>2025-09-27T09:35:23.000Z</time>
      </trkpt>
      <trkpt lat="42.84863" lon="1.37167">
        <ele>862</ele>
        <time>2025-09-27T09:35:24.000Z</time>
      </trkpt>
      <trkpt lat="42.84859" lon="1.37169">
        <ele>863</ele>
        <time>2025-09-27T09:35:25.000Z</time>
      </trkpt>
      <trkpt lat="42.84856" lon="1.3717">
        <ele>863</ele>
        <time>2025-09-27T09:35:26.000Z</time>
      </trkpt>
      <trkpt lat="42.84853" lon="1.37171">
        <ele>864</ele>
        <time>2025-09-27T09:35:27.000Z</time>
      </trkpt>
      <trkpt lat="42.84849" lon="1.37172">
        <ele>864</ele>
        <time>2025-09-27T09:35:28.000Z</time>
      </trkpt>
      <trkpt lat="42.84846" lon="1.37172">
        <ele>865</ele>
        <time>2025-09-27T09:35:29.000Z</time>
      </trkpt>
      <trkpt lat="42.84842" lon="1.37173">
        <ele>865</ele>
        <time>2025-09-27T09:35:30.000Z</time>
      </trkpt>
      <trkpt lat="42.84839" lon="1.37175">
        <ele>866</ele>
        <time>2025-09-27T09:35:31.000Z</time>
      </trkpt>
      <trkpt lat="42.84836" lon="1.37176">
        <ele>866</ele>
        <time>2025-09-27T09:35:32.000Z</time>
      </trkpt>
      <trkpt lat="42.84833" lon="1.37177">
        <ele>866</ele>
        <time>2025-09-27T09:35:33.000Z</time>
      </trkpt>
      <trkpt lat="42.84829" lon="1.37178">
        <ele>866</ele>
        <time>2025-09-27T09:35:34.000Z</time>
      </trkpt>
      <trkpt lat="42.84826" lon="1.37179">
        <ele>866</ele>
        <time>2025-09-27T09:35:35.000Z</time>
      </trkpt>
      <trkpt lat="42.84822" lon="1.37182">
        <ele>866</ele>
        <time>2025-09-27T09:35:36.000Z</time>
      </trkpt>
      <trkpt lat="42.84819" lon="1.37183">
        <ele>867</ele>
        <time>2025-09-27T09:35:37.000Z</time>
      </trkpt>
      <trkpt lat="42.84815" lon="1.37185">
        <ele>867</ele>
        <time>2025-09-27T09:35:38.000Z</time>
      </trkpt>
      <trkpt lat="42.84812" lon="1.37185">
        <ele>868</ele>
        <time>2025-09-27T09:35:39.000Z</time>
      </trkpt>
      <trkpt lat="42.84809" lon="1.37187">
        <ele>868</ele>
        <time>2025-09-27T09:35:40.000Z</time>
      </trkpt>
      <trkpt lat="42.84806" lon="1.37188">
        <ele>868</ele>
        <time>2025-09-27T09:35:41.000Z</time>
      </trkpt>
      <trkpt lat="42.84803" lon="1.3719">
        <ele>869</ele>
        <time>2025-09-27T09:35:42.000Z</time>
      </trkpt>
      <trkpt lat="42.848" lon="1.37191">
        <ele>868</ele>
        <time>2025-09-27T09:35:43.000Z</time>
      </trkpt>
      <trkpt lat="42.84797" lon="1.37192">
        <ele>869</ele>
        <time>2025-09-27T09:35:44.000Z</time>
      </trkpt>
      <trkpt lat="42.84793" lon="1.37192">
        <ele>869</ele>
        <time>2025-09-27T09:35:45.000Z</time>
      </trkpt>
      <trkpt lat="42.8479" lon="1.37192">
        <ele>869</ele>
        <time>2025-09-27T09:35:46.000Z</time>
      </trkpt>
      <trkpt lat="42.84787" lon="1.37192">
        <ele>869</ele>
        <time>2025-09-27T09:35:47.000Z</time>
      </trkpt>
      <trkpt lat="42.84784" lon="1.37193">
        <ele>869</ele>
        <time>2025-09-27T09:35:48.000Z</time>
      </trkpt>
      <trkpt lat="42.8478" lon="1.37194">
        <ele>869</ele>
        <time>2025-09-27T09:35:49.000Z</time>
      </trkpt>
      <trkpt lat="42.84776" lon="1.37195">
        <ele>869</ele>
        <time>2025-09-27T09:35:50.000Z</time>
      </trkpt>
      <trkpt lat="42.84774" lon="1.37195">
        <ele>869</ele>
        <time>2025-09-27T09:35:51.000Z</time>
      </trkpt>
      <trkpt lat="42.8477" lon="1.37196">
        <ele>870</ele>
        <time>2025-09-27T09:35:52.000Z</time>
      </trkpt>
      <trkpt lat="42.84767" lon="1.37196">
        <ele>870</ele>
        <time>2025-09-27T09:35:53.000Z</time>
      </trkpt>
      <trkpt lat="42.84764" lon="1.37197">
        <ele>870</ele>
        <time>2025-09-27T09:35:54.000Z</time>
      </trkpt>
      <trkpt lat="42.84761" lon="1.37198">
        <ele>870</ele>
        <time>2025-09-27T09:35:55.000Z</time>
      </trkpt>
      <trkpt lat="42.84758" lon="1.37199">
        <ele>870</ele>
        <time>2025-09-27T09:35:56.000Z</time>
      </trkpt>
      <trkpt lat="42.84754" lon="1.372">
        <ele>871</ele>
        <time>2025-09-27T09:35:57.000Z</time>
      </trkpt>
      <trkpt lat="42.84751" lon="1.37201">
        <ele>871</ele>
        <time>2025-09-27T09:35:58.000Z</time>
      </trkpt>
      <trkpt lat="42.84748" lon="1.37202">
        <ele>871</ele>
        <time>2025-09-27T09:35:59.000Z</time>
      </trkpt>
      <trkpt lat="42.84745" lon="1.37202">
        <ele>871</ele>
        <time>2025-09-27T09:36:00.000Z</time>
      </trkpt>
      <trkpt lat="42.84742" lon="1.37203">
        <ele>871</ele>
        <time>2025-09-27T09:36:01.000Z</time>
      </trkpt>
      <trkpt lat="42.84739" lon="1.37203">
        <ele>872</ele>
        <time>2025-09-27T09:36:02.000Z</time>
      </trkpt>
      <trkpt lat="42.84737" lon="1.37203">
        <ele>872</ele>
        <time>2025-09-27T09:36:03.000Z</time>
      </trkpt>
      <trkpt lat="42.84734" lon="1.37203">
        <ele>872</ele>
        <time>2025-09-27T09:36:04.000Z</time>
      </trkpt>
      <trkpt lat="42.84731" lon="1.37204">
        <ele>871</ele>
        <time>2025-09-27T09:36:05.000Z</time>
      </trkpt>
      <trkpt lat="42.84727" lon="1.37204">
        <ele>872</ele>
        <time>2025-09-27T09:36:06.000Z</time>
      </trkpt>
      <trkpt lat="42.84724" lon="1.37204">
        <ele>872</ele>
        <time>2025-09-27T09:36:07.000Z</time>
      </trkpt>
      <trkpt lat="42.84721" lon="1.37205">
        <ele>872</ele>
        <time>2025-09-27T09:36:08.000Z</time>
      </trkpt>
      <trkpt lat="42.84717" lon="1.37206">
        <ele>873</ele>
        <time>2025-09-27T09:36:09.000Z</time>
      </trkpt>
      <trkpt lat="42.84713" lon="1.37208">
        <ele>873</ele>
        <time>2025-09-27T09:36:10.000Z</time>
      </trkpt>
      <trkpt lat="42.84709" lon="1.3721">
        <ele>873</ele>
        <time>2025-09-27T09:36:11.000Z</time>
      </trkpt>
      <trkpt lat="42.84705" lon="1.37211">
        <ele>874</ele>
        <time>2025-09-27T09:36:12.000Z</time>
      </trkpt>
      <trkpt lat="42.84702" lon="1.37212">
        <ele>874</ele>
        <time>2025-09-27T09:36:13.000Z</time>
      </trkpt>
      <trkpt lat="42.847" lon="1.37215">
        <ele>873</ele>
        <time>2025-09-27T09:36:14.000Z</time>
      </trkpt>
      <trkpt lat="42.84697" lon="1.37217">
        <ele>873</ele>
        <time>2025-09-27T09:36:15.000Z</time>
      </trkpt>
      <trkpt lat="42.84694" lon="1.37219">
        <ele>873</ele>
        <time>2025-09-27T09:36:16.000Z</time>
      </trkpt>
      <trkpt lat="42.84691" lon="1.37222">
        <ele>874</ele>
        <time>2025-09-27T09:36:17.000Z</time>
      </trkpt>
      <trkpt lat="42.84688" lon="1.37224">
        <ele>874</ele>
        <time>2025-09-27T09:36:18.000Z</time>
      </trkpt>
      <trkpt lat="42.84685" lon="1.37228">
        <ele>874</ele>
        <time>2025-09-27T09:36:19.000Z</time>
      </trkpt>
      <trkpt lat="42.84682" lon="1.37231">
        <ele>875</ele>
        <time>2025-09-27T09:36:20.000Z</time>
      </trkpt>
      <trkpt lat="42.84679" lon="1.37234">
        <ele>875</ele>
        <time>2025-09-27T09:36:21.000Z</time>
      </trkpt>
      <trkpt lat="42.84676" lon="1.37236">
        <ele>874</ele>
        <time>2025-09-27T09:36:22.000Z</time>
      </trkpt>
      <trkpt lat="42.84674" lon="1.37238">
        <ele>875</ele>
        <time>2025-09-27T09:36:23.000Z</time>
      </trkpt>
      <trkpt lat="42.84671" lon="1.3724">
        <ele>875</ele>
        <time>2025-09-27T09:36:24.000Z</time>
      </trkpt>
      <trkpt lat="42.84668" lon="1.37242">
        <ele>875</ele>
        <time>2025-09-27T09:36:25.000Z</time>
      </trkpt>
      <trkpt lat="42.84664" lon="1.37244">
        <ele>875</ele>
        <time>2025-09-27T09:36:26.000Z</time>
      </trkpt>
      <trkpt lat="42.84661" lon="1.37245">
        <ele>876</ele>
        <time>2025-09-27T09:36:27.000Z</time>
      </trkpt>
      <trkpt lat="42.84657" lon="1.37247">
        <ele>877</ele>
        <time>2025-09-27T09:36:28.000Z</time>
      </trkpt>
      <trkpt lat="42.84654" lon="1.37249">
        <ele>878</ele>
        <time>2025-09-27T09:36:29.000Z</time>
      </trkpt>
      <trkpt lat="42.8465" lon="1.37251">
        <ele>879</ele>
        <time>2025-09-27T09:36:30.000Z</time>
      </trkpt>
      <trkpt lat="42.84647" lon="1.37253">
        <ele>879</ele>
        <time>2025-09-27T09:36:31.000Z</time>
      </trkpt>
      <trkpt lat="42.84645" lon="1.37254">
        <ele>879</ele>
        <time>2025-09-27T09:36:32.000Z</time>
      </trkpt>
      <trkpt lat="42.84642" lon="1.37256">
        <ele>879</ele>
        <time>2025-09-27T09:36:33.000Z</time>
      </trkpt>
      <trkpt lat="42.84639" lon="1.37257">
        <ele>879</ele>
        <time>2025-09-27T09:36:34.000Z</time>
      </trkpt>
      <trkpt lat="42.84636" lon="1.37258">
        <ele>878</ele>
        <time>2025-09-27T09:36:35.000Z</time>
      </trkpt>
      <trkpt lat="42.84633" lon="1.3726">
        <ele>878</ele>
        <time>2025-09-27T09:36:36.000Z</time>
      </trkpt>
      <trkpt lat="42.8463" lon="1.37263">
        <ele>879</ele>
        <time>2025-09-27T09:36:37.000Z</time>
      </trkpt>
      <trkpt lat="42.84628" lon="1.37267">
        <ele>879</ele>
        <time>2025-09-27T09:36:38.000Z</time>
      </trkpt>
      <trkpt lat="42.84625" lon="1.3727">
        <ele>879</ele>
        <time>2025-09-27T09:36:39.000Z</time>
      </trkpt>
      <trkpt lat="42.84623" lon="1.37274">
        <ele>880</ele>
        <time>2025-09-27T09:36:40.000Z</time>
      </trkpt>
      <trkpt lat="42.84622" lon="1.37278">
        <ele>880</ele>
        <time>2025-09-27T09:36:41.000Z</time>
      </trkpt>
      <trkpt lat="42.8462" lon="1.37281">
        <ele>880</ele>
        <time>2025-09-27T09:36:42.000Z</time>
      </trkpt>
      <trkpt lat="42.84618" lon="1.37285">
        <ele>881</ele>
        <time>2025-09-27T09:36:43.000Z</time>
      </trkpt>
      <trkpt lat="42.84617" lon="1.37289">
        <ele>880</ele>
        <time>2025-09-27T09:36:44.000Z</time>
      </trkpt>
      <trkpt lat="42.84616" lon="1.37292">
        <ele>880</ele>
        <time>2025-09-27T09:36:45.000Z</time>
      </trkpt>
      <trkpt lat="42.84614" lon="1.37297">
        <ele>881</ele>
        <time>2025-09-27T09:36:46.000Z</time>
      </trkpt>
      <trkpt lat="42.84612" lon="1.37301">
        <ele>881</ele>
        <time>2025-09-27T09:36:47.000Z</time>
      </trkpt>
      <trkpt lat="42.8461" lon="1.37304">
        <ele>882</ele>
        <time>2025-09-27T09:36:48.000Z</time>
      </trkpt>
      <trkpt lat="42.84608" lon="1.37308">
        <ele>881</ele>
        <time>2025-09-27T09:36:49.000Z</time>
      </trkpt>
      <trkpt lat="42.84606" lon="1.37311">
        <ele>882</ele>
        <time>2025-09-27T09:36:50.000Z</time>
      </trkpt>
      <trkpt lat="42.84604" lon="1.37315">
        <ele>882</ele>
        <time>2025-09-27T09:36:51.000Z</time>
      </trkpt>
      <trkpt lat="42.84602" lon="1.37319">
        <ele>882</ele>
        <time>2025-09-27T09:36:52.000Z</time>
      </trkpt>
      <trkpt lat="42.846" lon="1.37322">
        <ele>881</ele>
        <time>2025-09-27T09:36:53.000Z</time>
      </trkpt>
      <trkpt lat="42.84598" lon="1.37325">
        <ele>882</ele>
        <time>2025-09-27T09:36:54.000Z</time>
      </trkpt>
      <trkpt lat="42.84595" lon="1.37329">
        <ele>883</ele>
        <time>2025-09-27T09:36:55.000Z</time>
      </trkpt>
      <trkpt lat="42.84592" lon="1.37333">
        <ele>883</ele>
        <time>2025-09-27T09:36:56.000Z</time>
      </trkpt>
      <trkpt lat="42.8459" lon="1.37336">
        <ele>883</ele>
        <time>2025-09-27T09:36:57.000Z</time>
      </trkpt>
      <trkpt lat="42.84588" lon="1.37339">
        <ele>882</ele>
        <time>2025-09-27T09:36:58.000Z</time>
      </trkpt>
      <trkpt lat="42.84585" lon="1.37343">
        <ele>883</ele>
        <time>2025-09-27T09:36:59.000Z</time>
      </trkpt>
      <trkpt lat="42.84584" lon="1.37346">
        <ele>883</ele>
        <time>2025-09-27T09:37:00.000Z</time>
      </trkpt>
      <trkpt lat="42.84581" lon="1.37349">
        <ele>883</ele>
        <time>2025-09-27T09:37:01.000Z</time>
      </trkpt>
      <trkpt lat="42.8458" lon="1.37352">
        <ele>884</ele>
        <time>2025-09-27T09:37:02.000Z</time>
      </trkpt>
      <trkpt lat="42.84577" lon="1.37354">
        <ele>885</ele>
        <time>2025-09-27T09:37:03.000Z</time>
      </trkpt>
      <trkpt lat="42.84575" lon="1.37358">
        <ele>886</ele>
        <time>2025-09-27T09:37:04.000Z</time>
      </trkpt>
      <trkpt lat="42.84573" lon="1.37362">
        <ele>886</ele>
        <time>2025-09-27T09:37:05.000Z</time>
      </trkpt>
      <trkpt lat="42.84571" lon="1.37366">
        <ele>887</ele>
        <time>2025-09-27T09:37:06.000Z</time>
      </trkpt>
      <trkpt lat="42.84569" lon="1.3737">
        <ele>887</ele>
        <time>2025-09-27T09:37:07.000Z</time>
      </trkpt>
      <trkpt lat="42.84566" lon="1.37372">
        <ele>888</ele>
        <time>2025-09-27T09:37:08.000Z</time>
      </trkpt>
      <trkpt lat="42.84565" lon="1.37376">
        <ele>888</ele>
        <time>2025-09-27T09:37:09.000Z</time>
      </trkpt>
      <trkpt lat="42.84563" lon="1.37379">
        <ele>889</ele>
        <time>2025-09-27T09:37:10.000Z</time>
      </trkpt>
      <trkpt lat="42.84561" lon="1.37382">
        <ele>889</ele>
        <time>2025-09-27T09:37:11.000Z</time>
      </trkpt>
      <trkpt lat="42.84559" lon="1.37386">
        <ele>890</ele>
        <time>2025-09-27T09:37:12.000Z</time>
      </trkpt>
      <trkpt lat="42.84558" lon="1.37389">
        <ele>889</ele>
        <time>2025-09-27T09:37:13.000Z</time>
      </trkpt>
      <trkpt lat="42.84556" lon="1.37393">
        <ele>889</ele>
        <time>2025-09-27T09:37:14.000Z</time>
      </trkpt>
      <trkpt lat="42.84554" lon="1.37396">
        <ele>889</ele>
        <time>2025-09-27T09:37:15.000Z</time>
      </trkpt>
      <trkpt lat="42.84553" lon="1.37398">
        <ele>889</ele>
        <time>2025-09-27T09:37:16.000Z</time>
      </trkpt>
      <trkpt lat="42.84551" lon="1.37401">
        <ele>890</ele>
        <time>2025-09-27T09:37:17.000Z</time>
      </trkpt>
      <trkpt lat="42.84549" lon="1.37404">
        <ele>889</ele>
        <time>2025-09-27T09:37:18.000Z</time>
      </trkpt>
      <trkpt lat="42.84546" lon="1.37405">
        <ele>889</ele>
        <time>2025-09-27T09:37:19.000Z</time>
      </trkpt>
      <trkpt lat="42.84544" lon="1.37407">
        <ele>890</ele>
        <time>2025-09-27T09:37:20.000Z</time>
      </trkpt>
      <trkpt lat="42.84542" lon="1.37409">
        <ele>889</ele>
        <time>2025-09-27T09:37:21.000Z</time>
      </trkpt>
      <trkpt lat="42.8454" lon="1.3741">
        <ele>889</ele>
        <time>2025-09-27T09:37:22.000Z</time>
      </trkpt>
      <trkpt lat="42.84538" lon="1.37411">
        <ele>888</ele>
        <time>2025-09-27T09:37:23.000Z</time>
      </trkpt>
      <trkpt lat="42.84535" lon="1.37412">
        <ele>888</ele>
        <time>2025-09-27T09:37:24.000Z</time>
      </trkpt>
      <trkpt lat="42.84532" lon="1.37414">
        <ele>888</ele>
        <time>2025-09-27T09:37:25.000Z</time>
      </trkpt>
      <trkpt lat="42.8453" lon="1.37416">
        <ele>888</ele>
        <time>2025-09-27T09:37:26.000Z</time>
      </trkpt>
      <trkpt lat="42.84527" lon="1.37418">
        <ele>887</ele>
        <time>2025-09-27T09:37:27.000Z</time>
      </trkpt>
      <trkpt lat="42.84524" lon="1.3742">
        <ele>886</ele>
        <time>2025-09-27T09:37:28.000Z</time>
      </trkpt>
      <trkpt lat="42.84522" lon="1.37421">
        <ele>886</ele>
        <time>2025-09-27T09:37:29.000Z</time>
      </trkpt>
      <trkpt lat="42.84519" lon="1.37422">
        <ele>887</ele>
        <time>2025-09-27T09:37:30.000Z</time>
      </trkpt>
      <trkpt lat="42.84517" lon="1.37423">
        <ele>887</ele>
        <time>2025-09-27T09:37:31.000Z</time>
      </trkpt>
      <trkpt lat="42.84514" lon="1.37425">
        <ele>886</ele>
        <time>2025-09-27T09:37:32.000Z</time>
      </trkpt>
      <trkpt lat="42.8451" lon="1.37428">
        <ele>887</ele>
        <time>2025-09-27T09:37:33.000Z</time>
      </trkpt>
      <trkpt lat="42.84507" lon="1.37429">
        <ele>887</ele>
        <time>2025-09-27T09:37:34.000Z</time>
      </trkpt>
      <trkpt lat="42.84503" lon="1.3743">
        <ele>888</ele>
        <time>2025-09-27T09:37:35.000Z</time>
      </trkpt>
      <trkpt lat="42.845" lon="1.37431">
        <ele>888</ele>
        <time>2025-09-27T09:37:36.000Z</time>
      </trkpt>
      <trkpt lat="42.84497" lon="1.37432">
        <ele>888</ele>
        <time>2025-09-27T09:37:37.000Z</time>
      </trkpt>
      <trkpt lat="42.84494" lon="1.37433">
        <ele>889</ele>
        <time>2025-09-27T09:37:38.000Z</time>
      </trkpt>
      <trkpt lat="42.84491" lon="1.37433">
        <ele>889</ele>
        <time>2025-09-27T09:37:39.000Z</time>
      </trkpt>
      <trkpt lat="42.84487" lon="1.37434">
        <ele>889</ele>
        <time>2025-09-27T09:37:40.000Z</time>
      </trkpt>
      <trkpt lat="42.84484" lon="1.37435">
        <ele>890</ele>
        <time>2025-09-27T09:37:41.000Z</time>
      </trkpt>
      <trkpt lat="42.84481" lon="1.37435">
        <ele>889</ele>
        <time>2025-09-27T09:37:42.000Z</time>
      </trkpt>
      <trkpt lat="42.84479" lon="1.37436">
        <ele>889</ele>
        <time>2025-09-27T09:37:43.000Z</time>
      </trkpt>
      <trkpt lat="42.84477" lon="1.37437">
        <ele>889</ele>
        <time>2025-09-27T09:37:44.000Z</time>
      </trkpt>
      <trkpt lat="42.84473" lon="1.37438">
        <ele>889</ele>
        <time>2025-09-27T09:37:45.000Z</time>
      </trkpt>
      <trkpt lat="42.8447" lon="1.37439">
        <ele>889</ele>
        <time>2025-09-27T09:37:46.000Z</time>
      </trkpt>
      <trkpt lat="42.84468" lon="1.37441">
        <ele>889</ele>
        <time>2025-09-27T09:37:47.000Z</time>
      </trkpt>
      <trkpt lat="42.84464" lon="1.37442">
        <ele>889</ele>
        <time>2025-09-27T09:37:48.000Z</time>
      </trkpt>
      <trkpt lat="42.84461" lon="1.37443">
        <ele>889</ele>
        <time>2025-09-27T09:37:49.000Z</time>
      </trkpt>
      <trkpt lat="42.84458" lon="1.37444">
        <ele>889</ele>
        <time>2025-09-27T09:37:50.000Z</time>
      </trkpt>
      <trkpt lat="42.84455" lon="1.37446">
        <ele>889</ele>
        <time>2025-09-27T09:37:51.000Z</time>
      </trkpt>
      <trkpt lat="42.84452" lon="1.37448">
        <ele>889</ele>
        <time>2025-09-27T09:37:52.000Z</time>
      </trkpt>
      <trkpt lat="42.84449" lon="1.3745">
        <ele>889</ele>
        <time>2025-09-27T09:37:53.000Z</time>
      </trkpt>
      <trkpt lat="42.84446" lon="1.37452">
        <ele>889</ele>
        <time>2025-09-27T09:37:54.000Z</time>
      </trkpt>
      <trkpt lat="42.84444" lon="1.37454">
        <ele>890</ele>
        <time>2025-09-27T09:37:55.000Z</time>
      </trkpt>
      <trkpt lat="42.84442" lon="1.37456">
        <ele>890</ele>
        <time>2025-09-27T09:37:56.000Z</time>
      </trkpt>
      <trkpt lat="42.84439" lon="1.37458">
        <ele>890</ele>
        <time>2025-09-27T09:37:57.000Z</time>
      </trkpt>
      <trkpt lat="42.84437" lon="1.37459">
        <ele>891</ele>
        <time>2025-09-27T09:37:58.000Z</time>
      </trkpt>
      <trkpt lat="42.84434" lon="1.3746">
        <ele>890</ele>
        <time>2025-09-27T09:37:59.000Z</time>
      </trkpt>
      <trkpt lat="42.84431" lon="1.37462">
        <ele>890</ele>
        <time>2025-09-27T09:38:00.000Z</time>
      </trkpt>
      <trkpt lat="42.84428" lon="1.37464">
        <ele>891</ele>
        <time>2025-09-27T09:38:01.000Z</time>
      </trkpt>
      <trkpt lat="42.84425" lon="1.37465">
        <ele>891</ele>
        <time>2025-09-27T09:38:02.000Z</time>
      </trkpt>
      <trkpt lat="42.84422" lon="1.37464">
        <ele>891</ele>
        <time>2025-09-27T09:38:03.000Z</time>
      </trkpt>
      <trkpt lat="42.84418" lon="1.37465">
        <ele>891</ele>
        <time>2025-09-27T09:38:04.000Z</time>
      </trkpt>
      <trkpt lat="42.84414" lon="1.37465">
        <ele>890</ele>
        <time>2025-09-27T09:38:05.000Z</time>
      </trkpt>
      <trkpt lat="42.84411" lon="1.37465">
        <ele>890</ele>
        <time>2025-09-27T09:38:06.000Z</time>
      </trkpt>
      <trkpt lat="42.84408" lon="1.37463">
        <ele>890</ele>
        <time>2025-09-27T09:38:07.000Z</time>
      </trkpt>
      <trkpt lat="42.84405" lon="1.37462">
        <ele>890</ele>
        <time>2025-09-27T09:38:08.000Z</time>
      </trkpt>
      <trkpt lat="42.84402" lon="1.37461">
        <ele>890</ele>
        <time>2025-09-27T09:38:09.000Z</time>
      </trkpt>
      <trkpt lat="42.84399" lon="1.37459">
        <ele>891</ele>
        <time>2025-09-27T09:38:10.000Z</time>
      </trkpt>
      <trkpt lat="42.84396" lon="1.37458">
        <ele>891</ele>
        <time>2025-09-27T09:38:11.000Z</time>
      </trkpt>
      <trkpt lat="42.84392" lon="1.37456">
        <ele>891</ele>
        <time>2025-09-27T09:38:12.000Z</time>
      </trkpt>
      <trkpt lat="42.84389" lon="1.37454">
        <ele>890</ele>
        <time>2025-09-27T09:38:13.000Z</time>
      </trkpt>
      <trkpt lat="42.84386" lon="1.37452">
        <ele>891</ele>
        <time>2025-09-27T09:38:14.000Z</time>
      </trkpt>
      <trkpt lat="42.84383" lon="1.3745">
        <ele>891</ele>
        <time>2025-09-27T09:38:15.000Z</time>
      </trkpt>
      <trkpt lat="42.8438" lon="1.37448">
        <ele>892</ele>
        <time>2025-09-27T09:38:16.000Z</time>
      </trkpt>
      <trkpt lat="42.84377" lon="1.37448">
        <ele>892</ele>
        <time>2025-09-27T09:38:17.000Z</time>
      </trkpt>
      <trkpt lat="42.84373" lon="1.37447">
        <ele>893</ele>
        <time>2025-09-27T09:38:18.000Z</time>
      </trkpt>
      <trkpt lat="42.84371" lon="1.37447">
        <ele>894</ele>
        <time>2025-09-27T09:38:19.000Z</time>
      </trkpt>
      <trkpt lat="42.84368" lon="1.37446">
        <ele>894</ele>
        <time>2025-09-27T09:38:20.000Z</time>
      </trkpt>
      <trkpt lat="42.84366" lon="1.37446">
        <ele>894</ele>
        <time>2025-09-27T09:38:21.000Z</time>
      </trkpt>
      <trkpt lat="42.84362" lon="1.37446">
        <ele>894</ele>
        <time>2025-09-27T09:38:22.000Z</time>
      </trkpt>
      <trkpt lat="42.84358" lon="1.37446">
        <ele>894</ele>
        <time>2025-09-27T09:38:23.000Z</time>
      </trkpt>
      <trkpt lat="42.84355" lon="1.37446">
        <ele>894</ele>
        <time>2025-09-27T09:38:24.000Z</time>
      </trkpt>
      <trkpt lat="42.84351" lon="1.37445">
        <ele>895</ele>
        <time>2025-09-27T09:38:25.000Z</time>
      </trkpt>
      <trkpt lat="42.84348" lon="1.37444">
        <ele>895</ele>
        <time>2025-09-27T09:38:26.000Z</time>
      </trkpt>
      <trkpt lat="42.84345" lon="1.37444">
        <ele>896</ele>
        <time>2025-09-27T09:38:27.000Z</time>
      </trkpt>
      <trkpt lat="42.84342" lon="1.37445">
        <ele>896</ele>
        <time>2025-09-27T09:38:28.000Z</time>
      </trkpt>
      <trkpt lat="42.84339" lon="1.37445">
        <ele>897</ele>
        <time>2025-09-27T09:38:29.000Z</time>
      </trkpt>
      <trkpt lat="42.84336" lon="1.37446">
        <ele>897</ele>
        <time>2025-09-27T09:38:30.000Z</time>
      </trkpt>
      <trkpt lat="42.84333" lon="1.37447">
        <ele>897</ele>
        <time>2025-09-27T09:38:31.000Z</time>
      </trkpt>
      <trkpt lat="42.8433" lon="1.37449">
        <ele>899</ele>
        <time>2025-09-27T09:38:32.000Z</time>
      </trkpt>
      <trkpt lat="42.84328" lon="1.37449">
        <ele>900</ele>
        <time>2025-09-27T09:38:33.000Z</time>
      </trkpt>
      <trkpt lat="42.84324" lon="1.3745">
        <ele>900</ele>
        <time>2025-09-27T09:38:34.000Z</time>
      </trkpt>
      <trkpt lat="42.84322" lon="1.37451">
        <ele>900</ele>
        <time>2025-09-27T09:38:35.000Z</time>
      </trkpt>
      <trkpt lat="42.84319" lon="1.37452">
        <ele>901</ele>
        <time>2025-09-27T09:38:36.000Z</time>
      </trkpt>
      <trkpt lat="42.84317" lon="1.37453">
        <ele>901</ele>
        <time>2025-09-27T09:38:37.000Z</time>
      </trkpt>
      <trkpt lat="42.84314" lon="1.37454">
        <ele>902</ele>
        <time>2025-09-27T09:38:38.000Z</time>
      </trkpt>
      <trkpt lat="42.84312" lon="1.37454">
        <ele>902</ele>
        <time>2025-09-27T09:38:39.000Z</time>
      </trkpt>
      <trkpt lat="42.84309" lon="1.37455">
        <ele>902</ele>
        <time>2025-09-27T09:38:40.000Z</time>
      </trkpt>
      <trkpt lat="42.84306" lon="1.37455">
        <ele>902</ele>
        <time>2025-09-27T09:38:41.000Z</time>
      </trkpt>
      <trkpt lat="42.84304" lon="1.37455">
        <ele>902</ele>
        <time>2025-09-27T09:38:42.000Z</time>
      </trkpt>
      <trkpt lat="42.84302" lon="1.37456">
        <ele>902</ele>
        <time>2025-09-27T09:38:43.000Z</time>
      </trkpt>
      <trkpt lat="42.84299" lon="1.37456">
        <ele>902</ele>
        <time>2025-09-27T09:38:44.000Z</time>
      </trkpt>
      <trkpt lat="42.84296" lon="1.37456">
        <ele>902</ele>
        <time>2025-09-27T09:38:45.000Z</time>
      </trkpt>
      <trkpt lat="42.84294" lon="1.37457">
        <ele>902</ele>
        <time>2025-09-27T09:38:46.000Z</time>
      </trkpt>
      <trkpt lat="42.84291" lon="1.37457">
        <ele>901</ele>
        <time>2025-09-27T09:38:47.000Z</time>
      </trkpt>
      <trkpt lat="42.84288" lon="1.37458">
        <ele>901</ele>
        <time>2025-09-27T09:38:48.000Z</time>
      </trkpt>
      <trkpt lat="42.84285" lon="1.37458">
        <ele>902</ele>
        <time>2025-09-27T09:38:49.000Z</time>
      </trkpt>
      <trkpt lat="42.84282" lon="1.37458">
        <ele>902</ele>
        <time>2025-09-27T09:38:50.000Z</time>
      </trkpt>
      <trkpt lat="42.8428" lon="1.37459">
        <ele>902</ele>
        <time>2025-09-27T09:38:51.000Z</time>
      </trkpt>
      <trkpt lat="42.84277" lon="1.37459">
        <ele>902</ele>
        <time>2025-09-27T09:38:52.000Z</time>
      </trkpt>
      <trkpt lat="42.84274" lon="1.3746">
        <ele>902</ele>
        <time>2025-09-27T09:38:53.000Z</time>
      </trkpt>
      <trkpt lat="42.84271" lon="1.37462">
        <ele>901</ele>
        <time>2025-09-27T09:38:54.000Z</time>
      </trkpt>
      <trkpt lat="42.84268" lon="1.37463">
        <ele>901</ele>
        <time>2025-09-27T09:38:55.000Z</time>
      </trkpt>
      <trkpt lat="42.84266" lon="1.37465">
        <ele>901</ele>
        <time>2025-09-27T09:38:56.000Z</time>
      </trkpt>
      <trkpt lat="42.84263" lon="1.37466">
        <ele>901</ele>
        <time>2025-09-27T09:38:57.000Z</time>
      </trkpt>
      <trkpt lat="42.8426" lon="1.37469">
        <ele>902</ele>
        <time>2025-09-27T09:38:58.000Z</time>
      </trkpt>
      <trkpt lat="42.84259" lon="1.37471">
        <ele>902</ele>
        <time>2025-09-27T09:38:59.000Z</time>
      </trkpt>
      <trkpt lat="42.84257" lon="1.37473">
        <ele>902</ele>
        <time>2025-09-27T09:39:00.000Z</time>
      </trkpt>
      <trkpt lat="42.84255" lon="1.37476">
        <ele>902</ele>
        <time>2025-09-27T09:39:01.000Z</time>
      </trkpt>
      <trkpt lat="42.84254" lon="1.37478">
        <ele>902</ele>
        <time>2025-09-27T09:39:02.000Z</time>
      </trkpt>
      <trkpt lat="42.84253" lon="1.37481">
        <ele>902</ele>
        <time>2025-09-27T09:39:03.000Z</time>
      </trkpt>
      <trkpt lat="42.84252" lon="1.37483">
        <ele>902</ele>
        <time>2025-09-27T09:39:04.000Z</time>
      </trkpt>
      <trkpt lat="42.8425" lon="1.37486">
        <ele>902</ele>
        <time>2025-09-27T09:39:05.000Z</time>
      </trkpt>
      <trkpt lat="42.84249" lon="1.37489">
        <ele>902</ele>
        <time>2025-09-27T09:39:06.000Z</time>
      </trkpt>
      <trkpt lat="42.84247" lon="1.37492">
        <ele>902</ele>
        <time>2025-09-27T09:39:07.000Z</time>
      </trkpt>
      <trkpt lat="42.84246" lon="1.37495">
        <ele>902</ele>
        <time>2025-09-27T09:39:08.000Z</time>
      </trkpt>
      <trkpt lat="42.84244" lon="1.37498">
        <ele>903</ele>
        <time>2025-09-27T09:39:09.000Z</time>
      </trkpt>
      <trkpt lat="42.84242" lon="1.375">
        <ele>903</ele>
        <time>2025-09-27T09:39:10.000Z</time>
      </trkpt>
      <trkpt lat="42.84241" lon="1.37502">
        <ele>903</ele>
        <time>2025-09-27T09:39:11.000Z</time>
      </trkpt>
      <trkpt lat="42.84239" lon="1.37505">
        <ele>903</ele>
        <time>2025-09-27T09:39:12.000Z</time>
      </trkpt>
      <trkpt lat="42.84237" lon="1.37506">
        <ele>904</ele>
        <time>2025-09-27T09:39:13.000Z</time>
      </trkpt>
      <trkpt lat="42.84234" lon="1.37508">
        <ele>904</ele>
        <time>2025-09-27T09:39:14.000Z</time>
      </trkpt>
      <trkpt lat="42.84231" lon="1.3751">
        <ele>904</ele>
        <time>2025-09-27T09:39:15.000Z</time>
      </trkpt>
      <trkpt lat="42.84228" lon="1.37512">
        <ele>904</ele>
        <time>2025-09-27T09:39:16.000Z</time>
      </trkpt>
      <trkpt lat="42.84226" lon="1.37514">
        <ele>904</ele>
        <time>2025-09-27T09:39:17.000Z</time>
      </trkpt>
      <trkpt lat="42.84223" lon="1.37515">
        <ele>904</ele>
        <time>2025-09-27T09:39:18.000Z</time>
      </trkpt>
      <trkpt lat="42.8422" lon="1.37517">
        <ele>905</ele>
        <time>2025-09-27T09:39:19.000Z</time>
      </trkpt>
      <trkpt lat="42.84218" lon="1.37518">
        <ele>905</ele>
        <time>2025-09-27T09:39:20.000Z</time>
      </trkpt>
      <trkpt lat="42.84215" lon="1.37519">
        <ele>905</ele>
        <time>2025-09-27T09:39:21.000Z</time>
      </trkpt>
      <trkpt lat="42.84213" lon="1.37521">
        <ele>906</ele>
        <time>2025-09-27T09:39:22.000Z</time>
      </trkpt>
      <trkpt lat="42.8421" lon="1.37521">
        <ele>906</ele>
        <time>2025-09-27T09:39:23.000Z</time>
      </trkpt>
      <trkpt lat="42.84208" lon="1.37521">
        <ele>906</ele>
        <time>2025-09-27T09:39:24.000Z</time>
      </trkpt>
      <trkpt lat="42.84205" lon="1.37521">
        <ele>906</ele>
        <time>2025-09-27T09:39:25.000Z</time>
      </trkpt>
      <trkpt lat="42.84202" lon="1.37521">
        <ele>905</ele>
        <time>2025-09-27T09:39:26.000Z</time>
      </trkpt>
      <trkpt lat="42.84199" lon="1.3752">
        <ele>905</ele>
        <time>2025-09-27T09:39:27.000Z</time>
      </trkpt>
      <trkpt lat="42.84195" lon="1.37521">
        <ele>904</ele>
        <time>2025-09-27T09:39:28.000Z</time>
      </trkpt>
      <trkpt lat="42.84193" lon="1.3752">
        <ele>904</ele>
        <time>2025-09-27T09:39:29.000Z</time>
      </trkpt>
      <trkpt lat="42.84189" lon="1.37519">
        <ele>904</ele>
        <time>2025-09-27T09:39:30.000Z</time>
      </trkpt>
      <trkpt lat="42.84186" lon="1.37517">
        <ele>904</ele>
        <time>2025-09-27T09:39:31.000Z</time>
      </trkpt>
      <trkpt lat="42.84183" lon="1.37515">
        <ele>903</ele>
        <time>2025-09-27T09:39:32.000Z</time>
      </trkpt>
      <trkpt lat="42.84181" lon="1.37514">
        <ele>902</ele>
        <time>2025-09-27T09:39:33.000Z</time>
      </trkpt>
      <trkpt lat="42.84178" lon="1.37513">
        <ele>902</ele>
        <time>2025-09-27T09:39:34.000Z</time>
      </trkpt>
      <trkpt lat="42.84175" lon="1.37512">
        <ele>902</ele>
        <time>2025-09-27T09:39:35.000Z</time>
      </trkpt>
      <trkpt lat="42.84171" lon="1.3751">
        <ele>902</ele>
        <time>2025-09-27T09:39:36.000Z</time>
      </trkpt>
      <trkpt lat="42.84167" lon="1.37509">
        <ele>902</ele>
        <time>2025-09-27T09:39:37.000Z</time>
      </trkpt>
      <trkpt lat="42.84164" lon="1.37507">
        <ele>903</ele>
        <time>2025-09-27T09:39:38.000Z</time>
      </trkpt>
      <trkpt lat="42.84162" lon="1.37505">
        <ele>902</ele>
        <time>2025-09-27T09:39:39.000Z</time>
      </trkpt>
      <trkpt lat="42.84159" lon="1.37503">
        <ele>902</ele>
        <time>2025-09-27T09:39:40.000Z</time>
      </trkpt>
      <trkpt lat="42.84156" lon="1.37501">
        <ele>902</ele>
        <time>2025-09-27T09:39:41.000Z</time>
      </trkpt>
      <trkpt lat="42.84153" lon="1.37499">
        <ele>902</ele>
        <time>2025-09-27T09:39:42.000Z</time>
      </trkpt>
      <trkpt lat="42.8415" lon="1.37498">
        <ele>902</ele>
        <time>2025-09-27T09:39:43.000Z</time>
      </trkpt>
      <trkpt lat="42.84146" lon="1.37496">
        <ele>902</ele>
        <time>2025-09-27T09:39:44.000Z</time>
      </trkpt>
      <trkpt lat="42.84143" lon="1.37495">
        <ele>903</ele>
        <time>2025-09-27T09:39:45.000Z</time>
      </trkpt>
      <trkpt lat="42.84139" lon="1.37494">
        <ele>902</ele>
        <time>2025-09-27T09:39:46.000Z</time>
      </trkpt>
      <trkpt lat="42.84136" lon="1.37493">
        <ele>902</ele>
        <time>2025-09-27T09:39:47.000Z</time>
      </trkpt>
      <trkpt lat="42.84132" lon="1.37493">
        <ele>902</ele>
        <time>2025-09-27T09:39:48.000Z</time>
      </trkpt>
      <trkpt lat="42.84129" lon="1.37494">
        <ele>902</ele>
        <time>2025-09-27T09:39:49.000Z</time>
      </trkpt>
      <trkpt lat="42.84125" lon="1.37494">
        <ele>903</ele>
        <time>2025-09-27T09:39:50.000Z</time>
      </trkpt>
      <trkpt lat="42.84122" lon="1.37495">
        <ele>903</ele>
        <time>2025-09-27T09:39:51.000Z</time>
      </trkpt>
      <trkpt lat="42.84119" lon="1.37495">
        <ele>904</ele>
        <time>2025-09-27T09:39:52.000Z</time>
      </trkpt>
      <trkpt lat="42.84115" lon="1.37495">
        <ele>904</ele>
        <time>2025-09-27T09:39:53.000Z</time>
      </trkpt>
      <trkpt lat="42.84112" lon="1.37496">
        <ele>905</ele>
        <time>2025-09-27T09:39:54.000Z</time>
      </trkpt>
      <trkpt lat="42.84109" lon="1.37496">
        <ele>905</ele>
        <time>2025-09-27T09:39:55.000Z</time>
      </trkpt>
      <trkpt lat="42.84106" lon="1.37496">
        <ele>905</ele>
        <time>2025-09-27T09:39:56.000Z</time>
      </trkpt>
      <trkpt lat="42.84102" lon="1.37497">
        <ele>906</ele>
        <time>2025-09-27T09:39:57.000Z</time>
      </trkpt>
      <trkpt lat="42.84099" lon="1.37499">
        <ele>906</ele>
        <time>2025-09-27T09:39:58.000Z</time>
      </trkpt>
      <trkpt lat="42.84096" lon="1.375">
        <ele>907</ele>
        <time>2025-09-27T09:39:59.000Z</time>
      </trkpt>
      <trkpt lat="42.84093" lon="1.375">
        <ele>907</ele>
        <time>2025-09-27T09:40:00.000Z</time>
      </trkpt>
      <trkpt lat="42.8409" lon="1.37501">
        <ele>907</ele>
        <time>2025-09-27T09:40:01.000Z</time>
      </trkpt>
      <trkpt lat="42.84088" lon="1.37501">
        <ele>908</ele>
        <time>2025-09-27T09:40:02.000Z</time>
      </trkpt>
      <trkpt lat="42.84084" lon="1.37502">
        <ele>909</ele>
        <time>2025-09-27T09:40:03.000Z</time>
      </trkpt>
      <trkpt lat="42.84082" lon="1.37502">
        <ele>909</ele>
        <time>2025-09-27T09:40:04.000Z</time>
      </trkpt>
      <trkpt lat="42.84079" lon="1.37503">
        <ele>910</ele>
        <time>2025-09-27T09:40:05.000Z</time>
      </trkpt>
      <trkpt lat="42.84076" lon="1.37503">
        <ele>910</ele>
        <time>2025-09-27T09:40:06.000Z</time>
      </trkpt>
      <trkpt lat="42.84073" lon="1.37505">
        <ele>910</ele>
        <time>2025-09-27T09:40:07.000Z</time>
      </trkpt>
      <trkpt lat="42.8407" lon="1.37506">
        <ele>910</ele>
        <time>2025-09-27T09:40:08.000Z</time>
      </trkpt>
      <trkpt lat="42.84067" lon="1.37507">
        <ele>911</ele>
        <time>2025-09-27T09:40:09.000Z</time>
      </trkpt>
      <trkpt lat="42.84064" lon="1.37507">
        <ele>911</ele>
        <time>2025-09-27T09:40:10.000Z</time>
      </trkpt>
      <trkpt lat="42.84061" lon="1.37508">
        <ele>912</ele>
        <time>2025-09-27T09:40:11.000Z</time>
      </trkpt>
      <trkpt lat="42.84059" lon="1.37509">
        <ele>912</ele>
        <time>2025-09-27T09:40:12.000Z</time>
      </trkpt>
      <trkpt lat="42.84055" lon="1.37509">
        <ele>912</ele>
        <time>2025-09-27T09:40:13.000Z</time>
      </trkpt>
      <trkpt lat="42.84052" lon="1.37509">
        <ele>913</ele>
        <time>2025-09-27T09:40:14.000Z</time>
      </trkpt>
      <trkpt lat="42.84049" lon="1.37509">
        <ele>913</ele>
        <time>2025-09-27T09:40:15.000Z</time>
      </trkpt>
      <trkpt lat="42.84045" lon="1.3751">
        <ele>914</ele>
        <time>2025-09-27T09:40:16.000Z</time>
      </trkpt>
      <trkpt lat="42.84042" lon="1.37509">
        <ele>914</ele>
        <time>2025-09-27T09:40:17.000Z</time>
      </trkpt>
      <trkpt lat="42.84038" lon="1.3751">
        <ele>914</ele>
        <time>2025-09-27T09:40:18.000Z</time>
      </trkpt>
      <trkpt lat="42.84035" lon="1.37511">
        <ele>915</ele>
        <time>2025-09-27T09:40:19.000Z</time>
      </trkpt>
      <trkpt lat="42.84032" lon="1.37512">
        <ele>916</ele>
        <time>2025-09-27T09:40:20.000Z</time>
      </trkpt>
      <trkpt lat="42.84029" lon="1.37513">
        <ele>916</ele>
        <time>2025-09-27T09:40:21.000Z</time>
      </trkpt>
      <trkpt lat="42.84026" lon="1.37514">
        <ele>916</ele>
        <time>2025-09-27T09:40:22.000Z</time>
      </trkpt>
      <trkpt lat="42.84023" lon="1.37515">
        <ele>917</ele>
        <time>2025-09-27T09:40:23.000Z</time>
      </trkpt>
      <trkpt lat="42.8402" lon="1.37518">
        <ele>918</ele>
        <time>2025-09-27T09:40:24.000Z</time>
      </trkpt>
      <trkpt lat="42.84016" lon="1.37519">
        <ele>918</ele>
        <time>2025-09-27T09:40:25.000Z</time>
      </trkpt>
      <trkpt lat="42.84013" lon="1.3752">
        <ele>919</ele>
        <time>2025-09-27T09:40:26.000Z</time>
      </trkpt>
      <trkpt lat="42.8401" lon="1.3752">
        <ele>919</ele>
        <time>2025-09-27T09:40:27.000Z</time>
      </trkpt>
      <trkpt lat="42.84007" lon="1.37521">
        <ele>919</ele>
        <time>2025-09-27T09:40:28.000Z</time>
      </trkpt>
      <trkpt lat="42.84004" lon="1.37522">
        <ele>920</ele>
        <time>2025-09-27T09:40:29.000Z</time>
      </trkpt>
      <trkpt lat="42.84001" lon="1.37523">
        <ele>921</ele>
        <time>2025-09-27T09:40:30.000Z</time>
      </trkpt>
      <trkpt lat="42.83998" lon="1.37524">
        <ele>921</ele>
        <time>2025-09-27T09:40:31.000Z</time>
      </trkpt>
      <trkpt lat="42.83995" lon="1.37525">
        <ele>922</ele>
        <time>2025-09-27T09:40:32.000Z</time>
      </trkpt>
      <trkpt lat="42.83991" lon="1.37525">
        <ele>923</ele>
        <time>2025-09-27T09:40:33.000Z</time>
      </trkpt>
      <trkpt lat="42.83988" lon="1.37525">
        <ele>924</ele>
        <time>2025-09-27T09:40:34.000Z</time>
      </trkpt>
      <trkpt lat="42.83985" lon="1.37526">
        <ele>925</ele>
        <time>2025-09-27T09:40:35.000Z</time>
      </trkpt>
      <trkpt lat="42.83981" lon="1.37527">
        <ele>925</ele>
        <time>2025-09-27T09:40:36.000Z</time>
      </trkpt>
      <trkpt lat="42.83978" lon="1.37527">
        <ele>926</ele>
        <time>2025-09-27T09:40:37.000Z</time>
      </trkpt>
      <trkpt lat="42.83975" lon="1.37527">
        <ele>926</ele>
        <time>2025-09-27T09:40:38.000Z</time>
      </trkpt>
      <trkpt lat="42.83972" lon="1.37528">
        <ele>926</ele>
        <time>2025-09-27T09:40:39.000Z</time>
      </trkpt>
      <trkpt lat="42.83968" lon="1.37529">
        <ele>926</ele>
        <time>2025-09-27T09:40:40.000Z</time>
      </trkpt>
      <trkpt lat="42.83965" lon="1.37529">
        <ele>926</ele>
        <time>2025-09-27T09:40:41.000Z</time>
      </trkpt>
      <trkpt lat="42.83961" lon="1.3753">
        <ele>926</ele>
        <time>2025-09-27T09:40:42.000Z</time>
      </trkpt>
      <trkpt lat="42.83958" lon="1.37531">
        <ele>926</ele>
        <time>2025-09-27T09:40:43.000Z</time>
      </trkpt>
      <trkpt lat="42.83955" lon="1.37532">
        <ele>926</ele>
        <time>2025-09-27T09:40:44.000Z</time>
      </trkpt>
      <trkpt lat="42.83951" lon="1.37534">
        <ele>925</ele>
        <time>2025-09-27T09:40:45.000Z</time>
      </trkpt>
      <trkpt lat="42.83948" lon="1.37535">
        <ele>926</ele>
        <time>2025-09-27T09:40:46.000Z</time>
      </trkpt>
      <trkpt lat="42.83945" lon="1.37537">
        <ele>926</ele>
        <time>2025-09-27T09:40:47.000Z</time>
      </trkpt>
      <trkpt lat="42.83942" lon="1.37539">
        <ele>926</ele>
        <time>2025-09-27T09:40:48.000Z</time>
      </trkpt>
      <trkpt lat="42.83939" lon="1.3754">
        <ele>926</ele>
        <time>2025-09-27T09:40:49.000Z</time>
      </trkpt>
      <trkpt lat="42.83936" lon="1.37541">
        <ele>926</ele>
        <time>2025-09-27T09:40:50.000Z</time>
      </trkpt>
      <trkpt lat="42.83932" lon="1.37541">
        <ele>926</ele>
        <time>2025-09-27T09:40:51.000Z</time>
      </trkpt>
      <trkpt lat="42.83929" lon="1.37543">
        <ele>926</ele>
        <time>2025-09-27T09:40:52.000Z</time>
      </trkpt>
      <trkpt lat="42.83926" lon="1.37543">
        <ele>926</ele>
        <time>2025-09-27T09:40:53.000Z</time>
      </trkpt>
      <trkpt lat="42.83923" lon="1.37545">
        <ele>926</ele>
        <time>2025-09-27T09:40:54.000Z</time>
      </trkpt>
      <trkpt lat="42.8392" lon="1.37546">
        <ele>926</ele>
        <time>2025-09-27T09:40:55.000Z</time>
      </trkpt>
      <trkpt lat="42.83917" lon="1.37547">
        <ele>926</ele>
        <time>2025-09-27T09:40:56.000Z</time>
      </trkpt>
      <trkpt lat="42.83914" lon="1.37549">
        <ele>926</ele>
        <time>2025-09-27T09:40:57.000Z</time>
      </trkpt>
      <trkpt lat="42.83911" lon="1.3755">
        <ele>926</ele>
        <time>2025-09-27T09:40:58.000Z</time>
      </trkpt>
      <trkpt lat="42.83908" lon="1.37551">
        <ele>926</ele>
        <time>2025-09-27T09:40:59.000Z</time>
      </trkpt>
      <trkpt lat="42.83905" lon="1.37551">
        <ele>926</ele>
        <time>2025-09-27T09:41:00.000Z</time>
      </trkpt>
      <trkpt lat="42.83902" lon="1.37552">
        <ele>927</ele>
        <time>2025-09-27T09:41:01.000Z</time>
      </trkpt>
      <trkpt lat="42.83898" lon="1.37552">
        <ele>928</ele>
        <time>2025-09-27T09:41:02.000Z</time>
      </trkpt>
      <trkpt lat="42.83895" lon="1.37553">
        <ele>928</ele>
        <time>2025-09-27T09:41:03.000Z</time>
      </trkpt>
      <trkpt lat="42.83892" lon="1.37554">
        <ele>929</ele>
        <time>2025-09-27T09:41:04.000Z</time>
      </trkpt>
      <trkpt lat="42.83888" lon="1.37554">
        <ele>929</ele>
        <time>2025-09-27T09:41:05.000Z</time>
      </trkpt>
      <trkpt lat="42.83885" lon="1.37555">
        <ele>929</ele>
        <time>2025-09-27T09:41:06.000Z</time>
      </trkpt>
      <trkpt lat="42.83882" lon="1.37557">
        <ele>930</ele>
        <time>2025-09-27T09:41:07.000Z</time>
      </trkpt>
      <trkpt lat="42.83878" lon="1.37558">
        <ele>930</ele>
        <time>2025-09-27T09:41:08.000Z</time>
      </trkpt>
      <trkpt lat="42.83875" lon="1.37559">
        <ele>930</ele>
        <time>2025-09-27T09:41:09.000Z</time>
      </trkpt>
      <trkpt lat="42.83872" lon="1.3756">
        <ele>930</ele>
        <time>2025-09-27T09:41:10.000Z</time>
      </trkpt>
      <trkpt lat="42.83868" lon="1.37561">
        <ele>930</ele>
        <time>2025-09-27T09:41:11.000Z</time>
      </trkpt>
      <trkpt lat="42.83864" lon="1.37563">
        <ele>930</ele>
        <time>2025-09-27T09:41:12.000Z</time>
      </trkpt>
      <trkpt lat="42.8386" lon="1.37566">
        <ele>931</ele>
        <time>2025-09-27T09:41:13.000Z</time>
      </trkpt>
      <trkpt lat="42.83857" lon="1.37568">
        <ele>932</ele>
        <time>2025-09-27T09:41:14.000Z</time>
      </trkpt>
      <trkpt lat="42.83854" lon="1.3757">
        <ele>933</ele>
        <time>2025-09-27T09:41:15.000Z</time>
      </trkpt>
      <trkpt lat="42.83851" lon="1.37573">
        <ele>933</ele>
        <time>2025-09-27T09:41:16.000Z</time>
      </trkpt>
      <trkpt lat="42.83848" lon="1.37577">
        <ele>934</ele>
        <time>2025-09-27T09:41:17.000Z</time>
      </trkpt>
      <trkpt lat="42.83845" lon="1.3758">
        <ele>935</ele>
        <time>2025-09-27T09:41:18.000Z</time>
      </trkpt>
      <trkpt lat="42.83842" lon="1.37582">
        <ele>936</ele>
        <time>2025-09-27T09:41:19.000Z</time>
      </trkpt>
      <trkpt lat="42.8384" lon="1.37585">
        <ele>937</ele>
        <time>2025-09-27T09:41:20.000Z</time>
      </trkpt>
      <trkpt lat="42.83838" lon="1.37588">
        <ele>937</ele>
        <time>2025-09-27T09:41:21.000Z</time>
      </trkpt>
      <trkpt lat="42.83835" lon="1.37591">
        <ele>937</ele>
        <time>2025-09-27T09:41:22.000Z</time>
      </trkpt>
      <trkpt lat="42.83834" lon="1.37595">
        <ele>938</ele>
        <time>2025-09-27T09:41:23.000Z</time>
      </trkpt>
      <trkpt lat="42.83832" lon="1.37599">
        <ele>938</ele>
        <time>2025-09-27T09:41:24.000Z</time>
      </trkpt>
      <trkpt lat="42.8383" lon="1.37604">
        <ele>938</ele>
        <time>2025-09-27T09:41:25.000Z</time>
      </trkpt>
      <trkpt lat="42.83828" lon="1.37607">
        <ele>939</ele>
        <time>2025-09-27T09:41:26.000Z</time>
      </trkpt>
      <trkpt lat="42.83826" lon="1.37611">
        <ele>940</ele>
        <time>2025-09-27T09:41:27.000Z</time>
      </trkpt>
      <trkpt lat="42.83824" lon="1.37615">
        <ele>940</ele>
        <time>2025-09-27T09:41:28.000Z</time>
      </trkpt>
      <trkpt lat="42.83822" lon="1.37618">
        <ele>939</ele>
        <time>2025-09-27T09:41:29.000Z</time>
      </trkpt>
      <trkpt lat="42.83819" lon="1.3762">
        <ele>940</ele>
        <time>2025-09-27T09:41:30.000Z</time>
      </trkpt>
      <trkpt lat="42.83817" lon="1.37624">
        <ele>941</ele>
        <time>2025-09-27T09:41:31.000Z</time>
      </trkpt>
      <trkpt lat="42.83815" lon="1.37628">
        <ele>942</ele>
        <time>2025-09-27T09:41:32.000Z</time>
      </trkpt>
      <trkpt lat="42.83812" lon="1.3763">
        <ele>942</ele>
        <time>2025-09-27T09:41:33.000Z</time>
      </trkpt>
      <trkpt lat="42.83808" lon="1.37631">
        <ele>943</ele>
        <time>2025-09-27T09:41:34.000Z</time>
      </trkpt>
      <trkpt lat="42.83806" lon="1.37632">
        <ele>943</ele>
        <time>2025-09-27T09:41:35.000Z</time>
      </trkpt>
      <trkpt lat="42.83803" lon="1.37634">
        <ele>944</ele>
        <time>2025-09-27T09:41:36.000Z</time>
      </trkpt>
      <trkpt lat="42.838" lon="1.37634">
        <ele>944</ele>
        <time>2025-09-27T09:41:37.000Z</time>
      </trkpt>
      <trkpt lat="42.83797" lon="1.37634">
        <ele>944</ele>
        <time>2025-09-27T09:41:38.000Z</time>
      </trkpt>
      <trkpt lat="42.83794" lon="1.37635">
        <ele>945</ele>
        <time>2025-09-27T09:41:39.000Z</time>
      </trkpt>
      <trkpt lat="42.83791" lon="1.37636">
        <ele>946</ele>
        <time>2025-09-27T09:41:40.000Z</time>
      </trkpt>
      <trkpt lat="42.83788" lon="1.37637">
        <ele>945</ele>
        <time>2025-09-27T09:41:41.000Z</time>
      </trkpt>
      <trkpt lat="42.83785" lon="1.37638">
        <ele>946</ele>
        <time>2025-09-27T09:41:42.000Z</time>
      </trkpt>
      <trkpt lat="42.83782" lon="1.37639">
        <ele>945</ele>
        <time>2025-09-27T09:41:43.000Z</time>
      </trkpt>
      <trkpt lat="42.83779" lon="1.37638">
        <ele>945</ele>
        <time>2025-09-27T09:41:44.000Z</time>
      </trkpt>
      <trkpt lat="42.83777" lon="1.37639">
        <ele>945</ele>
        <time>2025-09-27T09:41:45.000Z</time>
      </trkpt>
      <trkpt lat="42.83774" lon="1.37639">
        <ele>945</ele>
        <time>2025-09-27T09:41:46.000Z</time>
      </trkpt>
      <trkpt lat="42.83771" lon="1.3764">
        <ele>946</ele>
        <time>2025-09-27T09:41:47.000Z</time>
      </trkpt>
      <trkpt lat="42.83769" lon="1.37641">
        <ele>946</ele>
        <time>2025-09-27T09:41:48.000Z</time>
      </trkpt>
      <trkpt lat="42.83765" lon="1.37642">
        <ele>947</ele>
        <time>2025-09-27T09:41:49.000Z</time>
      </trkpt>
      <trkpt lat="42.83762" lon="1.37643">
        <ele>947</ele>
        <time>2025-09-27T09:41:50.000Z</time>
      </trkpt>
      <trkpt lat="42.83758" lon="1.37644">
        <ele>949</ele>
        <time>2025-09-27T09:41:51.000Z</time>
      </trkpt>
      <trkpt lat="42.83755" lon="1.37644">
        <ele>950</ele>
        <time>2025-09-27T09:41:52.000Z</time>
      </trkpt>
      <trkpt lat="42.83752" lon="1.37645">
        <ele>951</ele>
        <time>2025-09-27T09:41:53.000Z</time>
      </trkpt>
      <trkpt lat="42.83749" lon="1.37646">
        <ele>951</ele>
        <time>2025-09-27T09:41:54.000Z</time>
      </trkpt>
      <trkpt lat="42.83746" lon="1.37647">
        <ele>951</ele>
        <time>2025-09-27T09:41:55.000Z</time>
      </trkpt>
      <trkpt lat="42.83743" lon="1.37648">
        <ele>951</ele>
        <time>2025-09-27T09:41:56.000Z</time>
      </trkpt>
      <trkpt lat="42.8374" lon="1.37649">
        <ele>951</ele>
        <time>2025-09-27T09:41:57.000Z</time>
      </trkpt>
      <trkpt lat="42.83737" lon="1.3765">
        <ele>952</ele>
        <time>2025-09-27T09:41:58.000Z</time>
      </trkpt>
      <trkpt lat="42.83734" lon="1.37652">
        <ele>952</ele>
        <time>2025-09-27T09:41:59.000Z</time>
      </trkpt>
      <trkpt lat="42.83731" lon="1.37652">
        <ele>952</ele>
        <time>2025-09-27T09:42:00.000Z</time>
      </trkpt>
      <trkpt lat="42.83729" lon="1.37653">
        <ele>953</ele>
        <time>2025-09-27T09:42:01.000Z</time>
      </trkpt>
      <trkpt lat="42.83727" lon="1.37654">
        <ele>953</ele>
        <time>2025-09-27T09:42:02.000Z</time>
      </trkpt>
      <trkpt lat="42.83726" lon="1.37655">
        <ele>954</ele>
        <time>2025-09-27T09:42:03.000Z</time>
      </trkpt>
      <trkpt lat="42.83724" lon="1.37656">
        <ele>954</ele>
        <time>2025-09-27T09:42:04.000Z</time>
      </trkpt>
      <trkpt lat="42.83723" lon="1.37658">
        <ele>955</ele>
        <time>2025-09-27T09:42:05.000Z</time>
      </trkpt>
      <trkpt lat="42.83721" lon="1.37659">
        <ele>955</ele>
        <time>2025-09-27T09:42:06.000Z</time>
      </trkpt>
      <trkpt lat="42.83719" lon="1.3766">
        <ele>955</ele>
        <time>2025-09-27T09:42:07.000Z</time>
      </trkpt>
      <trkpt lat="42.83717" lon="1.37661">
        <ele>954</ele>
        <time>2025-09-27T09:42:08.000Z</time>
      </trkpt>
      <trkpt lat="42.83715" lon="1.37661">
        <ele>954</ele>
        <time>2025-09-27T09:42:09.000Z</time>
      </trkpt>
      <trkpt lat="42.83714" lon="1.37662">
        <ele>954</ele>
        <time>2025-09-27T09:42:10.000Z</time>
      </trkpt>
      <trkpt lat="42.83712" lon="1.37663">
        <ele>954</ele>
        <time>2025-09-27T09:42:11.000Z</time>
      </trkpt>
      <trkpt lat="42.83709" lon="1.37664">
        <ele>954</ele>
        <time>2025-09-27T09:42:12.000Z</time>
      </trkpt>
      <trkpt lat="42.83708" lon="1.37664">
        <ele>954</ele>
        <time>2025-09-27T09:42:13.000Z</time>
      </trkpt>
      <trkpt lat="42.83706" lon="1.37665">
        <ele>955</ele>
        <time>2025-09-27T09:42:14.000Z</time>
      </trkpt>
      <trkpt lat="42.83704" lon="1.37666">
        <ele>955</ele>
        <time>2025-09-27T09:42:15.000Z</time>
      </trkpt>
      <trkpt lat="42.83703" lon="1.37667">
        <ele>955</ele>
        <time>2025-09-27T09:42:16.000Z</time>
      </trkpt>
      <trkpt lat="42.83701" lon="1.37667">
        <ele>955</ele>
        <time>2025-09-27T09:42:17.000Z</time>
      </trkpt>
      <trkpt lat="42.83699" lon="1.37668">
        <ele>954</ele>
        <time>2025-09-27T09:42:18.000Z</time>
      </trkpt>
      <trkpt lat="42.83698" lon="1.3767">
        <ele>954</ele>
        <time>2025-09-27T09:42:19.000Z</time>
      </trkpt>
      <trkpt lat="42.83697" lon="1.37673">
        <ele>954</ele>
        <time>2025-09-27T09:42:20.000Z</time>
      </trkpt>
      <trkpt lat="42.83696" lon="1.37674">
        <ele>954</ele>
        <time>2025-09-27T09:42:21.000Z</time>
      </trkpt>
      <trkpt lat="42.83695" lon="1.37676">
        <ele>954</ele>
        <time>2025-09-27T09:42:22.000Z</time>
      </trkpt>
      <trkpt lat="42.83694" lon="1.37677">
        <ele>954</ele>
        <time>2025-09-27T09:42:23.000Z</time>
      </trkpt>
      <trkpt lat="42.83692" lon="1.37679">
        <ele>953</ele>
        <time>2025-09-27T09:42:24.000Z</time>
      </trkpt>
      <trkpt lat="42.83689" lon="1.37681">
        <ele>953</ele>
        <time>2025-09-27T09:42:25.000Z</time>
      </trkpt>
      <trkpt lat="42.83688" lon="1.37683">
        <ele>953</ele>
        <time>2025-09-27T09:42:26.000Z</time>
      </trkpt>
      <trkpt lat="42.83686" lon="1.37685">
        <ele>953</ele>
        <time>2025-09-27T09:42:27.000Z</time>
      </trkpt>
      <trkpt lat="42.83684" lon="1.37687">
        <ele>953</ele>
        <time>2025-09-27T09:42:28.000Z</time>
      </trkpt>
      <trkpt lat="42.83682" lon="1.3769">
        <ele>953</ele>
        <time>2025-09-27T09:42:29.000Z</time>
      </trkpt>
      <trkpt lat="42.8368" lon="1.37693">
        <ele>954</ele>
        <time>2025-09-27T09:42:30.000Z</time>
      </trkpt>
      <trkpt lat="42.83679" lon="1.37695">
        <ele>955</ele>
        <time>2025-09-27T09:42:31.000Z</time>
      </trkpt>
      <trkpt lat="42.83677" lon="1.37698">
        <ele>956</ele>
        <time>2025-09-27T09:42:32.000Z</time>
      </trkpt>
      <trkpt lat="42.83675" lon="1.377">
        <ele>956</ele>
        <time>2025-09-27T09:42:33.000Z</time>
      </trkpt>
      <trkpt lat="42.83674" lon="1.37702">
        <ele>957</ele>
        <time>2025-09-27T09:42:34.000Z</time>
      </trkpt>
      <trkpt lat="42.83671" lon="1.37704">
        <ele>958</ele>
        <time>2025-09-27T09:42:35.000Z</time>
      </trkpt>
      <trkpt lat="42.83669" lon="1.37706">
        <ele>959</ele>
        <time>2025-09-27T09:42:36.000Z</time>
      </trkpt>
      <trkpt lat="42.83667" lon="1.37708">
        <ele>959</ele>
        <time>2025-09-27T09:42:37.000Z</time>
      </trkpt>
      <trkpt lat="42.83665" lon="1.37709">
        <ele>959</ele>
        <time>2025-09-27T09:42:38.000Z</time>
      </trkpt>
      <trkpt lat="42.83663" lon="1.37712">
        <ele>959</ele>
        <time>2025-09-27T09:42:39.000Z</time>
      </trkpt>
      <trkpt lat="42.83661" lon="1.37713">
        <ele>959</ele>
        <time>2025-09-27T09:42:40.000Z</time>
      </trkpt>
      <trkpt lat="42.83659" lon="1.37714">
        <ele>959</ele>
        <time>2025-09-27T09:42:41.000Z</time>
      </trkpt>
      <trkpt lat="42.83657" lon="1.37716">
        <ele>959</ele>
        <time>2025-09-27T09:42:42.000Z</time>
      </trkpt>
      <trkpt lat="42.83655" lon="1.37717">
        <ele>959</ele>
        <time>2025-09-27T09:42:43.000Z</time>
      </trkpt>
      <trkpt lat="42.83653" lon="1.37718">
        <ele>959</ele>
        <time>2025-09-27T09:42:44.000Z</time>
      </trkpt>
      <trkpt lat="42.83651" lon="1.37719">
        <ele>959</ele>
        <time>2025-09-27T09:42:45.000Z</time>
      </trkpt>
      <trkpt lat="42.83649" lon="1.37719">
        <ele>960</ele>
        <time>2025-09-27T09:42:46.000Z</time>
      </trkpt>
      <trkpt lat="42.83647" lon="1.3772">
        <ele>960</ele>
        <time>2025-09-27T09:42:47.000Z</time>
      </trkpt>
      <trkpt lat="42.83644" lon="1.37721">
        <ele>960</ele>
        <time>2025-09-27T09:42:48.000Z</time>
      </trkpt>
      <trkpt lat="42.83642" lon="1.37721">
        <ele>959</ele>
        <time>2025-09-27T09:42:49.000Z</time>
      </trkpt>
      <trkpt lat="42.83639" lon="1.37722">
        <ele>959</ele>
        <time>2025-09-27T09:42:50.000Z</time>
      </trkpt>
      <trkpt lat="42.83636" lon="1.37723">
        <ele>959</ele>
        <time>2025-09-27T09:42:51.000Z</time>
      </trkpt>
      <trkpt lat="42.83634" lon="1.37723">
        <ele>959</ele>
        <time>2025-09-27T09:42:52.000Z</time>
      </trkpt>
      <trkpt lat="42.83631" lon="1.37724">
        <ele>960</ele>
        <time>2025-09-27T09:42:53.000Z</time>
      </trkpt>
      <trkpt lat="42.83629" lon="1.37725">
        <ele>960</ele>
        <time>2025-09-27T09:42:54.000Z</time>
      </trkpt>
      <trkpt lat="42.83627" lon="1.37726">
        <ele>960</ele>
        <time>2025-09-27T09:42:55.000Z</time>
      </trkpt>
      <trkpt lat="42.83625" lon="1.37728">
        <ele>961</ele>
        <time>2025-09-27T09:42:56.000Z</time>
      </trkpt>
      <trkpt lat="42.83623" lon="1.37728">
        <ele>961</ele>
        <time>2025-09-27T09:42:57.000Z</time>
      </trkpt>
      <trkpt lat="42.8362" lon="1.37728">
        <ele>961</ele>
        <time>2025-09-27T09:42:58.000Z</time>
      </trkpt>
      <trkpt lat="42.83618" lon="1.37729">
        <ele>961</ele>
        <time>2025-09-27T09:42:59.000Z</time>
      </trkpt>
      <trkpt lat="42.83616" lon="1.37729">
        <ele>961</ele>
        <time>2025-09-27T09:43:00.000Z</time>
      </trkpt>
      <trkpt lat="42.83613" lon="1.3773">
        <ele>961</ele>
        <time>2025-09-27T09:43:01.000Z</time>
      </trkpt>
      <trkpt lat="42.83611" lon="1.3773">
        <ele>962</ele>
        <time>2025-09-27T09:43:02.000Z</time>
      </trkpt>
      <trkpt lat="42.83609" lon="1.37731">
        <ele>961</ele>
        <time>2025-09-27T09:43:03.000Z</time>
      </trkpt>
      <trkpt lat="42.83606" lon="1.37732">
        <ele>961</ele>
        <time>2025-09-27T09:43:04.000Z</time>
      </trkpt>
      <trkpt lat="42.83604" lon="1.37733">
        <ele>962</ele>
        <time>2025-09-27T09:43:05.000Z</time>
      </trkpt>
      <trkpt lat="42.83601" lon="1.37734">
        <ele>962</ele>
        <time>2025-09-27T09:43:06.000Z</time>
      </trkpt>
      <trkpt lat="42.83599" lon="1.37735">
        <ele>962</ele>
        <time>2025-09-27T09:43:07.000Z</time>
      </trkpt>
      <trkpt lat="42.83596" lon="1.37737">
        <ele>963</ele>
        <time>2025-09-27T09:43:08.000Z</time>
      </trkpt>
      <trkpt lat="42.83594" lon="1.37737">
        <ele>964</ele>
        <time>2025-09-27T09:43:09.000Z</time>
      </trkpt>
      <trkpt lat="42.83591" lon="1.37738">
        <ele>964</ele>
        <time>2025-09-27T09:43:10.000Z</time>
      </trkpt>
      <trkpt lat="42.83589" lon="1.37738">
        <ele>964</ele>
        <time>2025-09-27T09:43:11.000Z</time>
      </trkpt>
      <trkpt lat="42.83587" lon="1.37738">
        <ele>964</ele>
        <time>2025-09-27T09:43:12.000Z</time>
      </trkpt>
      <trkpt lat="42.83585" lon="1.37738">
        <ele>966</ele>
        <time>2025-09-27T09:43:13.000Z</time>
      </trkpt>
      <trkpt lat="42.83582" lon="1.37737">
        <ele>966</ele>
        <time>2025-09-27T09:43:14.000Z</time>
      </trkpt>
      <trkpt lat="42.8358" lon="1.37735">
        <ele>967</ele>
        <time>2025-09-27T09:43:15.000Z</time>
      </trkpt>
      <trkpt lat="42.83579" lon="1.37735">
        <ele>967</ele>
        <time>2025-09-27T09:43:16.000Z</time>
      </trkpt>
      <trkpt lat="42.83577" lon="1.37733">
        <ele>968</ele>
        <time>2025-09-27T09:43:17.000Z</time>
      </trkpt>
      <trkpt lat="42.83575" lon="1.37732">
        <ele>967</ele>
        <time>2025-09-27T09:43:18.000Z</time>
      </trkpt>
      <trkpt lat="42.83572" lon="1.37731">
        <ele>967</ele>
        <time>2025-09-27T09:43:19.000Z</time>
      </trkpt>
      <trkpt lat="42.83571" lon="1.37729">
        <ele>967</ele>
        <time>2025-09-27T09:43:20.000Z</time>
      </trkpt>
      <trkpt lat="42.83569" lon="1.37727">
        <ele>968</ele>
        <time>2025-09-27T09:43:21.000Z</time>
      </trkpt>
      <trkpt lat="42.83567" lon="1.37724">
        <ele>969</ele>
        <time>2025-09-27T09:43:22.000Z</time>
      </trkpt>
      <trkpt lat="42.83566" lon="1.37722">
        <ele>970</ele>
        <time>2025-09-27T09:43:23.000Z</time>
      </trkpt>
      <trkpt lat="42.83564" lon="1.37719">
        <ele>970</ele>
        <time>2025-09-27T09:43:24.000Z</time>
      </trkpt>
      <trkpt lat="42.83561" lon="1.37717">
        <ele>971</ele>
        <time>2025-09-27T09:43:25.000Z</time>
      </trkpt>
      <trkpt lat="42.83559" lon="1.37715">
        <ele>971</ele>
        <time>2025-09-27T09:43:26.000Z</time>
      </trkpt>
      <trkpt lat="42.83557" lon="1.37712">
        <ele>970</ele>
        <time>2025-09-27T09:43:27.000Z</time>
      </trkpt>
      <trkpt lat="42.83555" lon="1.3771">
        <ele>971</ele>
        <time>2025-09-27T09:43:28.000Z</time>
      </trkpt>
      <trkpt lat="42.83553" lon="1.37708">
        <ele>971</ele>
        <time>2025-09-27T09:43:29.000Z</time>
      </trkpt>
      <trkpt lat="42.8355" lon="1.37706">
        <ele>971</ele>
        <time>2025-09-27T09:43:30.000Z</time>
      </trkpt>
      <trkpt lat="42.83548" lon="1.37705">
        <ele>972</ele>
        <time>2025-09-27T09:43:31.000Z</time>
      </trkpt>
      <trkpt lat="42.83545" lon="1.37704">
        <ele>971</ele>
        <time>2025-09-27T09:43:32.000Z</time>
      </trkpt>
      <trkpt lat="42.83542" lon="1.37705">
        <ele>972</ele>
        <time>2025-09-27T09:43:33.000Z</time>
      </trkpt>
      <trkpt lat="42.83539" lon="1.37704">
        <ele>973</ele>
        <time>2025-09-27T09:43:34.000Z</time>
      </trkpt>
      <trkpt lat="42.83536" lon="1.37704">
        <ele>973</ele>
        <time>2025-09-27T09:43:35.000Z</time>
      </trkpt>
      <trkpt lat="42.83533" lon="1.37703">
        <ele>974</ele>
        <time>2025-09-27T09:43:36.000Z</time>
      </trkpt>
      <trkpt lat="42.83531" lon="1.37702">
        <ele>973</ele>
        <time>2025-09-27T09:43:37.000Z</time>
      </trkpt>
      <trkpt lat="42.83528" lon="1.37702">
        <ele>974</ele>
        <time>2025-09-27T09:43:38.000Z</time>
      </trkpt>
      <trkpt lat="42.83526" lon="1.37702">
        <ele>974</ele>
        <time>2025-09-27T09:43:39.000Z</time>
      </trkpt>
      <trkpt lat="42.83523" lon="1.37703">
        <ele>975</ele>
        <time>2025-09-27T09:43:40.000Z</time>
      </trkpt>
      <trkpt lat="42.83521" lon="1.37703">
        <ele>975</ele>
        <time>2025-09-27T09:43:41.000Z</time>
      </trkpt>
      <trkpt lat="42.83519" lon="1.37703">
        <ele>975</ele>
        <time>2025-09-27T09:43:42.000Z</time>
      </trkpt>
      <trkpt lat="42.83516" lon="1.37704">
        <ele>976</ele>
        <time>2025-09-27T09:43:43.000Z</time>
      </trkpt>
      <trkpt lat="42.83514" lon="1.37703">
        <ele>977</ele>
        <time>2025-09-27T09:43:44.000Z</time>
      </trkpt>
      <trkpt lat="42.83512" lon="1.37703">
        <ele>977</ele>
        <time>2025-09-27T09:43:45.000Z</time>
      </trkpt>
      <trkpt lat="42.8351" lon="1.37703">
        <ele>977</ele>
        <time>2025-09-27T09:43:46.000Z</time>
      </trkpt>
      <trkpt lat="42.83507" lon="1.37703">
        <ele>978</ele>
        <time>2025-09-27T09:43:47.000Z</time>
      </trkpt>
      <trkpt lat="42.83504" lon="1.37703">
        <ele>978</ele>
        <time>2025-09-27T09:43:48.000Z</time>
      </trkpt>
      <trkpt lat="42.83502" lon="1.37703">
        <ele>978</ele>
        <time>2025-09-27T09:43:49.000Z</time>
      </trkpt>
      <trkpt lat="42.835" lon="1.37704">
        <ele>979</ele>
        <time>2025-09-27T09:43:50.000Z</time>
      </trkpt>
      <trkpt lat="42.83498" lon="1.37705">
        <ele>979</ele>
        <time>2025-09-27T09:43:51.000Z</time>
      </trkpt>
      <trkpt lat="42.83496" lon="1.37706">
        <ele>978</ele>
        <time>2025-09-27T09:43:52.000Z</time>
      </trkpt>
      <trkpt lat="42.83493" lon="1.37707">
        <ele>979</ele>
        <time>2025-09-27T09:43:53.000Z</time>
      </trkpt>
      <trkpt lat="42.83491" lon="1.37708">
        <ele>979</ele>
        <time>2025-09-27T09:43:54.000Z</time>
      </trkpt>
      <trkpt lat="42.83488" lon="1.37709">
        <ele>979</ele>
        <time>2025-09-27T09:43:55.000Z</time>
      </trkpt>
      <trkpt lat="42.83486" lon="1.37711">
        <ele>980</ele>
        <time>2025-09-27T09:43:56.000Z</time>
      </trkpt>
      <trkpt lat="42.83484" lon="1.37713">
        <ele>980</ele>
        <time>2025-09-27T09:43:57.000Z</time>
      </trkpt>
      <trkpt lat="42.83482" lon="1.37715">
        <ele>981</ele>
        <time>2025-09-27T09:43:58.000Z</time>
      </trkpt>
      <trkpt lat="42.83479" lon="1.37717">
        <ele>981</ele>
        <time>2025-09-27T09:43:59.000Z</time>
      </trkpt>
      <trkpt lat="42.83477" lon="1.3772">
        <ele>982</ele>
        <time>2025-09-27T09:44:00.000Z</time>
      </trkpt>
      <trkpt lat="42.83475" lon="1.37723">
        <ele>982</ele>
        <time>2025-09-27T09:44:01.000Z</time>
      </trkpt>
      <trkpt lat="42.83473" lon="1.37725">
        <ele>983</ele>
        <time>2025-09-27T09:44:02.000Z</time>
      </trkpt>
      <trkpt lat="42.83471" lon="1.37728">
        <ele>984</ele>
        <time>2025-09-27T09:44:03.000Z</time>
      </trkpt>
      <trkpt lat="42.83469" lon="1.3773">
        <ele>984</ele>
        <time>2025-09-27T09:44:04.000Z</time>
      </trkpt>
      <trkpt lat="42.83467" lon="1.37733">
        <ele>985</ele>
        <time>2025-09-27T09:44:05.000Z</time>
      </trkpt>
      <trkpt lat="42.83465" lon="1.37735">
        <ele>985</ele>
        <time>2025-09-27T09:44:06.000Z</time>
      </trkpt>
      <trkpt lat="42.83463" lon="1.37737">
        <ele>985</ele>
        <time>2025-09-27T09:44:07.000Z</time>
      </trkpt>
      <trkpt lat="42.83461" lon="1.37739">
        <ele>985</ele>
        <time>2025-09-27T09:44:08.000Z</time>
      </trkpt>
      <trkpt lat="42.83459" lon="1.3774">
        <ele>985</ele>
        <time>2025-09-27T09:44:09.000Z</time>
      </trkpt>
      <trkpt lat="42.83457" lon="1.37742">
        <ele>985</ele>
        <time>2025-09-27T09:44:10.000Z</time>
      </trkpt>
      <trkpt lat="42.83455" lon="1.37744">
        <ele>985</ele>
        <time>2025-09-27T09:44:11.000Z</time>
      </trkpt>
      <trkpt lat="42.83453" lon="1.37746">
        <ele>986</ele>
        <time>2025-09-27T09:44:12.000Z</time>
      </trkpt>
      <trkpt lat="42.83451" lon="1.37748">
        <ele>986</ele>
        <time>2025-09-27T09:44:13.000Z</time>
      </trkpt>
      <trkpt lat="42.83449" lon="1.37749">
        <ele>986</ele>
        <time>2025-09-27T09:44:14.000Z</time>
      </trkpt>
      <trkpt lat="42.83446" lon="1.37751">
        <ele>987</ele>
        <time>2025-09-27T09:44:15.000Z</time>
      </trkpt>
      <trkpt lat="42.83444" lon="1.37753">
        <ele>987</ele>
        <time>2025-09-27T09:44:16.000Z</time>
      </trkpt>
      <trkpt lat="42.83442" lon="1.37755">
        <ele>987</ele>
        <time>2025-09-27T09:44:17.000Z</time>
      </trkpt>
      <trkpt lat="42.8344" lon="1.37758">
        <ele>987</ele>
        <time>2025-09-27T09:44:18.000Z</time>
      </trkpt>
      <trkpt lat="42.83438" lon="1.37761">
        <ele>986</ele>
        <time>2025-09-27T09:44:19.000Z</time>
      </trkpt>
      <trkpt lat="42.83436" lon="1.37763">
        <ele>987</ele>
        <time>2025-09-27T09:44:20.000Z</time>
      </trkpt>
      <trkpt lat="42.83434" lon="1.37765">
        <ele>987</ele>
        <time>2025-09-27T09:44:21.000Z</time>
      </trkpt>
      <trkpt lat="42.83432" lon="1.37768">
        <ele>988</ele>
        <time>2025-09-27T09:44:22.000Z</time>
      </trkpt>
      <trkpt lat="42.8343" lon="1.3777">
        <ele>989</ele>
        <time>2025-09-27T09:44:23.000Z</time>
      </trkpt>
      <trkpt lat="42.83428" lon="1.37772">
        <ele>989</ele>
        <time>2025-09-27T09:44:24.000Z</time>
      </trkpt>
      <trkpt lat="42.83426" lon="1.37774">
        <ele>990</ele>
        <time>2025-09-27T09:44:25.000Z</time>
      </trkpt>
      <trkpt lat="42.83423" lon="1.37776">
        <ele>989</ele>
        <time>2025-09-27T09:44:26.000Z</time>
      </trkpt>
      <trkpt lat="42.83422" lon="1.37778">
        <ele>989</ele>
        <time>2025-09-27T09:44:27.000Z</time>
      </trkpt>
      <trkpt lat="42.8342" lon="1.3778">
        <ele>990</ele>
        <time>2025-09-27T09:44:28.000Z</time>
      </trkpt>
      <trkpt lat="42.83418" lon="1.37782">
        <ele>990</ele>
        <time>2025-09-27T09:44:29.000Z</time>
      </trkpt>
      <trkpt lat="42.83416" lon="1.37784">
        <ele>989</ele>
        <time>2025-09-27T09:44:30.000Z</time>
      </trkpt>
      <trkpt lat="42.83414" lon="1.37786">
        <ele>990</ele>
        <time>2025-09-27T09:44:31.000Z</time>
      </trkpt>
      <trkpt lat="42.83411" lon="1.37788">
        <ele>990</ele>
        <time>2025-09-27T09:44:32.000Z</time>
      </trkpt>
      <trkpt lat="42.83409" lon="1.3779">
        <ele>990</ele>
        <time>2025-09-27T09:44:33.000Z</time>
      </trkpt>
      <trkpt lat="42.83407" lon="1.37792">
        <ele>990</ele>
        <time>2025-09-27T09:44:34.000Z</time>
      </trkpt>
      <trkpt lat="42.83406" lon="1.37794">
        <ele>990</ele>
        <time>2025-09-27T09:44:35.000Z</time>
      </trkpt>
      <trkpt lat="42.83404" lon="1.37796">
        <ele>990</ele>
        <time>2025-09-27T09:44:36.000Z</time>
      </trkpt>
      <trkpt lat="42.83401" lon="1.37798">
        <ele>989</ele>
        <time>2025-09-27T09:44:37.000Z</time>
      </trkpt>
      <trkpt lat="42.83399" lon="1.378">
        <ele>990</ele>
        <time>2025-09-27T09:44:38.000Z</time>
      </trkpt>
      <trkpt lat="42.83396" lon="1.37803">
        <ele>990</ele>
        <time>2025-09-27T09:44:39.000Z</time>
      </trkpt>
      <trkpt lat="42.83394" lon="1.37805">
        <ele>990</ele>
        <time>2025-09-27T09:44:40.000Z</time>
      </trkpt>
      <trkpt lat="42.83392" lon="1.37807">
        <ele>991</ele>
        <time>2025-09-27T09:44:41.000Z</time>
      </trkpt>
      <trkpt lat="42.83389" lon="1.37809">
        <ele>991</ele>
        <time>2025-09-27T09:44:42.000Z</time>
      </trkpt>
      <trkpt lat="42.83387" lon="1.37811">
        <ele>991</ele>
        <time>2025-09-27T09:44:43.000Z</time>
      </trkpt>
      <trkpt lat="42.83385" lon="1.37814">
        <ele>991</ele>
        <time>2025-09-27T09:44:44.000Z</time>
      </trkpt>
      <trkpt lat="42.83382" lon="1.37816">
        <ele>991</ele>
        <time>2025-09-27T09:44:45.000Z</time>
      </trkpt>
      <trkpt lat="42.83379" lon="1.37817">
        <ele>992</ele>
        <time>2025-09-27T09:44:46.000Z</time>
      </trkpt>
      <trkpt lat="42.83377" lon="1.37819">
        <ele>992</ele>
        <time>2025-09-27T09:44:47.000Z</time>
      </trkpt>
      <trkpt lat="42.83375" lon="1.3782">
        <ele>992</ele>
        <time>2025-09-27T09:44:48.000Z</time>
      </trkpt>
      <trkpt lat="42.83373" lon="1.37822">
        <ele>992</ele>
        <time>2025-09-27T09:44:49.000Z</time>
      </trkpt>
      <trkpt lat="42.8337" lon="1.37824">
        <ele>992</ele>
        <time>2025-09-27T09:44:50.000Z</time>
      </trkpt>
      <trkpt lat="42.83367" lon="1.37826">
        <ele>994</ele>
        <time>2025-09-27T09:44:51.000Z</time>
      </trkpt>
      <trkpt lat="42.83365" lon="1.37827">
        <ele>994</ele>
        <time>2025-09-27T09:44:52.000Z</time>
      </trkpt>
      <trkpt lat="42.83363" lon="1.37829">
        <ele>995</ele>
        <time>2025-09-27T09:44:53.000Z</time>
      </trkpt>
      <trkpt lat="42.8336" lon="1.37831">
        <ele>995</ele>
        <time>2025-09-27T09:44:54.000Z</time>
      </trkpt>
      <trkpt lat="42.83357" lon="1.37834">
        <ele>996</ele>
        <time>2025-09-27T09:44:55.000Z</time>
      </trkpt>
      <trkpt lat="42.83355" lon="1.37836">
        <ele>996</ele>
        <time>2025-09-27T09:44:56.000Z</time>
      </trkpt>
      <trkpt lat="42.83353" lon="1.37839">
        <ele>996</ele>
        <time>2025-09-27T09:44:57.000Z</time>
      </trkpt>
      <trkpt lat="42.8335" lon="1.37841">
        <ele>996</ele>
        <time>2025-09-27T09:44:58.000Z</time>
      </trkpt>
      <trkpt lat="42.83348" lon="1.37843">
        <ele>996</ele>
        <time>2025-09-27T09:44:59.000Z</time>
      </trkpt>
      <trkpt lat="42.83345" lon="1.37845">
        <ele>997</ele>
        <time>2025-09-27T09:45:00.000Z</time>
      </trkpt>
      <trkpt lat="42.83344" lon="1.37847">
        <ele>996</ele>
        <time>2025-09-27T09:45:01.000Z</time>
      </trkpt>
      <trkpt lat="42.83341" lon="1.37849">
        <ele>996</ele>
        <time>2025-09-27T09:45:02.000Z</time>
      </trkpt>
      <trkpt lat="42.83339" lon="1.37851">
        <ele>998</ele>
        <time>2025-09-27T09:45:03.000Z</time>
      </trkpt>
      <trkpt lat="42.83336" lon="1.37853">
        <ele>998</ele>
        <time>2025-09-27T09:45:04.000Z</time>
      </trkpt>
      <trkpt lat="42.83334" lon="1.37855">
        <ele>999</ele>
        <time>2025-09-27T09:45:05.000Z</time>
      </trkpt>
      <trkpt lat="42.83332" lon="1.37857">
        <ele>999</ele>
        <time>2025-09-27T09:45:06.000Z</time>
      </trkpt>
      <trkpt lat="42.83329" lon="1.37859">
        <ele>999</ele>
        <time>2025-09-27T09:45:07.000Z</time>
      </trkpt>
      <trkpt lat="42.83326" lon="1.37861">
        <ele>1000</ele>
        <time>2025-09-27T09:45:08.000Z</time>
      </trkpt>
      <trkpt lat="42.83324" lon="1.37864">
        <ele>1000</ele>
        <time>2025-09-27T09:45:09.000Z</time>
      </trkpt>
      <trkpt lat="42.83322" lon="1.37866">
        <ele>1000</ele>
        <time>2025-09-27T09:45:10.000Z</time>
      </trkpt>
      <trkpt lat="42.8332" lon="1.37867">
        <ele>1000</ele>
        <time>2025-09-27T09:45:11.000Z</time>
      </trkpt>
      <trkpt lat="42.83317" lon="1.3787">
        <ele>1000</ele>
        <time>2025-09-27T09:45:12.000Z</time>
      </trkpt>
      <trkpt lat="42.83315" lon="1.37872">
        <ele>1000</ele>
        <time>2025-09-27T09:45:13.000Z</time>
      </trkpt>
      <trkpt lat="42.83314" lon="1.37874">
        <ele>1000</ele>
        <time>2025-09-27T09:45:14.000Z</time>
      </trkpt>
      <trkpt lat="42.83311" lon="1.37876">
        <ele>1001</ele>
        <time>2025-09-27T09:45:15.000Z</time>
      </trkpt>
      <trkpt lat="42.83309" lon="1.37878">
        <ele>1002</ele>
        <time>2025-09-27T09:45:16.000Z</time>
      </trkpt>
      <trkpt lat="42.83307" lon="1.37881">
        <ele>1003</ele>
        <time>2025-09-27T09:45:17.000Z</time>
      </trkpt>
      <trkpt lat="42.83306" lon="1.37883">
        <ele>1002</ele>
        <time>2025-09-27T09:45:18.000Z</time>
      </trkpt>
      <trkpt lat="42.83304" lon="1.37886">
        <ele>1002</ele>
        <time>2025-09-27T09:45:19.000Z</time>
      </trkpt>
      <trkpt lat="42.83303" lon="1.37887">
        <ele>1002</ele>
        <time>2025-09-27T09:45:20.000Z</time>
      </trkpt>
      <trkpt lat="42.83301" lon="1.37891">
        <ele>1003</ele>
        <time>2025-09-27T09:45:21.000Z</time>
      </trkpt>
      <trkpt lat="42.833" lon="1.37893">
        <ele>1004</ele>
        <time>2025-09-27T09:45:22.000Z</time>
      </trkpt>
      <trkpt lat="42.83299" lon="1.37896">
        <ele>1004</ele>
        <time>2025-09-27T09:45:23.000Z</time>
      </trkpt>
      <trkpt lat="42.83297" lon="1.37898">
        <ele>1004</ele>
        <time>2025-09-27T09:45:24.000Z</time>
      </trkpt>
      <trkpt lat="42.83296" lon="1.37901">
        <ele>1005</ele>
        <time>2025-09-27T09:45:25.000Z</time>
      </trkpt>
      <trkpt lat="42.83295" lon="1.37903">
        <ele>1005</ele>
        <time>2025-09-27T09:45:26.000Z</time>
      </trkpt>
      <trkpt lat="42.83293" lon="1.37906">
        <ele>1005</ele>
        <time>2025-09-27T09:45:27.000Z</time>
      </trkpt>
      <trkpt lat="42.83291" lon="1.37909">
        <ele>1005</ele>
        <time>2025-09-27T09:45:28.000Z</time>
      </trkpt>
      <trkpt lat="42.83289" lon="1.37911">
        <ele>1006</ele>
        <time>2025-09-27T09:45:29.000Z</time>
      </trkpt>
      <trkpt lat="42.83288" lon="1.37914">
        <ele>1005</ele>
        <time>2025-09-27T09:45:30.000Z</time>
      </trkpt>
      <trkpt lat="42.83286" lon="1.37916">
        <ele>1005</ele>
        <time>2025-09-27T09:45:31.000Z</time>
      </trkpt>
      <trkpt lat="42.83284" lon="1.37918">
        <ele>1005</ele>
        <time>2025-09-27T09:45:32.000Z</time>
      </trkpt>
      <trkpt lat="42.83282" lon="1.3792">
        <ele>1005</ele>
        <time>2025-09-27T09:45:33.000Z</time>
      </trkpt>
      <trkpt lat="42.8328" lon="1.37923">
        <ele>1005</ele>
        <time>2025-09-27T09:45:34.000Z</time>
      </trkpt>
      <trkpt lat="42.83278" lon="1.37924">
        <ele>1005</ele>
        <time>2025-09-27T09:45:35.000Z</time>
      </trkpt>
      <trkpt lat="42.83276" lon="1.37926">
        <ele>1005</ele>
        <time>2025-09-27T09:45:36.000Z</time>
      </trkpt>
      <trkpt lat="42.83274" lon="1.37928">
        <ele>1005</ele>
        <time>2025-09-27T09:45:37.000Z</time>
      </trkpt>
      <trkpt lat="42.83271" lon="1.3793">
        <ele>1005</ele>
        <time>2025-09-27T09:45:38.000Z</time>
      </trkpt>
      <trkpt lat="42.83269" lon="1.37932">
        <ele>1006</ele>
        <time>2025-09-27T09:45:39.000Z</time>
      </trkpt>
      <trkpt lat="42.83266" lon="1.37933">
        <ele>1006</ele>
        <time>2025-09-27T09:45:40.000Z</time>
      </trkpt>
      <trkpt lat="42.83263" lon="1.37934">
        <ele>1006</ele>
        <time>2025-09-27T09:45:41.000Z</time>
      </trkpt>
      <trkpt lat="42.83261" lon="1.37936">
        <ele>1006</ele>
        <time>2025-09-27T09:45:42.000Z</time>
      </trkpt>
      <trkpt lat="42.83259" lon="1.37938">
        <ele>1007</ele>
        <time>2025-09-27T09:45:43.000Z</time>
      </trkpt>
      <trkpt lat="42.83256" lon="1.37939">
        <ele>1007</ele>
        <time>2025-09-27T09:45:44.000Z</time>
      </trkpt>
      <trkpt lat="42.83254" lon="1.37941">
        <ele>1007</ele>
        <time>2025-09-27T09:45:45.000Z</time>
      </trkpt>
      <trkpt lat="42.83251" lon="1.37942">
        <ele>1007</ele>
        <time>2025-09-27T09:45:46.000Z</time>
      </trkpt>
      <trkpt lat="42.83249" lon="1.37944">
        <ele>1007</ele>
        <time>2025-09-27T09:45:47.000Z</time>
      </trkpt>
      <trkpt lat="42.83246" lon="1.37946">
        <ele>1007</ele>
        <time>2025-09-27T09:45:48.000Z</time>
      </trkpt>
      <trkpt lat="42.83243" lon="1.37947">
        <ele>1007</ele>
        <time>2025-09-27T09:45:49.000Z</time>
      </trkpt>
      <trkpt lat="42.8324" lon="1.37948">
        <ele>1007</ele>
        <time>2025-09-27T09:45:50.000Z</time>
      </trkpt>
      <trkpt lat="42.83237" lon="1.37949">
        <ele>1008</ele>
        <time>2025-09-27T09:45:51.000Z</time>
      </trkpt>
      <trkpt lat="42.83235" lon="1.37951">
        <ele>1007</ele>
        <time>2025-09-27T09:45:52.000Z</time>
      </trkpt>
      <trkpt lat="42.83232" lon="1.37951">
        <ele>1007</ele>
        <time>2025-09-27T09:45:53.000Z</time>
      </trkpt>
      <trkpt lat="42.8323" lon="1.37953">
        <ele>1008</ele>
        <time>2025-09-27T09:45:54.000Z</time>
      </trkpt>
      <trkpt lat="42.83228" lon="1.37954">
        <ele>1008</ele>
        <time>2025-09-27T09:45:55.000Z</time>
      </trkpt>
      <trkpt lat="42.83225" lon="1.37956">
        <ele>1008</ele>
        <time>2025-09-27T09:45:56.000Z</time>
      </trkpt>
      <trkpt lat="42.83223" lon="1.37957">
        <ele>1007</ele>
        <time>2025-09-27T09:45:57.000Z</time>
      </trkpt>
      <trkpt lat="42.83221" lon="1.37958">
        <ele>1007</ele>
        <time>2025-09-27T09:45:58.000Z</time>
      </trkpt>
      <trkpt lat="42.83219" lon="1.37959">
        <ele>1007</ele>
        <time>2025-09-27T09:45:59.000Z</time>
      </trkpt>
      <trkpt lat="42.83216" lon="1.37959">
        <ele>1008</ele>
        <time>2025-09-27T09:46:00.000Z</time>
      </trkpt>
      <trkpt lat="42.83213" lon="1.3796">
        <ele>1008</ele>
        <time>2025-09-27T09:46:01.000Z</time>
      </trkpt>
      <trkpt lat="42.83211" lon="1.37961">
        <ele>1009</ele>
        <time>2025-09-27T09:46:02.000Z</time>
      </trkpt>
      <trkpt lat="42.83209" lon="1.37963">
        <ele>1009</ele>
        <time>2025-09-27T09:46:03.000Z</time>
      </trkpt>
      <trkpt lat="42.83206" lon="1.37964">
        <ele>1010</ele>
        <time>2025-09-27T09:46:04.000Z</time>
      </trkpt>
      <trkpt lat="42.83204" lon="1.37966">
        <ele>1010</ele>
        <time>2025-09-27T09:46:05.000Z</time>
      </trkpt>
      <trkpt lat="42.83202" lon="1.37968">
        <ele>1010</ele>
        <time>2025-09-27T09:46:06.000Z</time>
      </trkpt>
      <trkpt lat="42.83199" lon="1.37971">
        <ele>1011</ele>
        <time>2025-09-27T09:46:07.000Z</time>
      </trkpt>
      <trkpt lat="42.83197" lon="1.37972">
        <ele>1011</ele>
        <time>2025-09-27T09:46:08.000Z</time>
      </trkpt>
      <trkpt lat="42.83195" lon="1.37973">
        <ele>1011</ele>
        <time>2025-09-27T09:46:09.000Z</time>
      </trkpt>
      <trkpt lat="42.83192" lon="1.37974">
        <ele>1010</ele>
        <time>2025-09-27T09:46:10.000Z</time>
      </trkpt>
      <trkpt lat="42.8319" lon="1.37977">
        <ele>1011</ele>
        <time>2025-09-27T09:46:11.000Z</time>
      </trkpt>
      <trkpt lat="42.83187" lon="1.37978">
        <ele>1012</ele>
        <time>2025-09-27T09:46:12.000Z</time>
      </trkpt>
      <trkpt lat="42.83184" lon="1.3798">
        <ele>1012</ele>
        <time>2025-09-27T09:46:13.000Z</time>
      </trkpt>
      <trkpt lat="42.83182" lon="1.37982">
        <ele>1012</ele>
        <time>2025-09-27T09:46:14.000Z</time>
      </trkpt>
      <trkpt lat="42.8318" lon="1.37985">
        <ele>1012</ele>
        <time>2025-09-27T09:46:15.000Z</time>
      </trkpt>
      <trkpt lat="42.83178" lon="1.37986">
        <ele>1012</ele>
        <time>2025-09-27T09:46:16.000Z</time>
      </trkpt>
      <trkpt lat="42.83176" lon="1.37987">
        <ele>1013</ele>
        <time>2025-09-27T09:46:17.000Z</time>
      </trkpt>
      <trkpt lat="42.83174" lon="1.37989">
        <ele>1013</ele>
        <time>2025-09-27T09:46:18.000Z</time>
      </trkpt>
      <trkpt lat="42.83171" lon="1.3799">
        <ele>1014</ele>
        <time>2025-09-27T09:46:19.000Z</time>
      </trkpt>
      <trkpt lat="42.83168" lon="1.37991">
        <ele>1014</ele>
        <time>2025-09-27T09:46:20.000Z</time>
      </trkpt>
      <trkpt lat="42.83166" lon="1.37993">
        <ele>1015</ele>
        <time>2025-09-27T09:46:21.000Z</time>
      </trkpt>
      <trkpt lat="42.83164" lon="1.37995">
        <ele>1015</ele>
        <time>2025-09-27T09:46:22.000Z</time>
      </trkpt>
      <trkpt lat="42.83161" lon="1.37997">
        <ele>1015</ele>
        <time>2025-09-27T09:46:23.000Z</time>
      </trkpt>
      <trkpt lat="42.83159" lon="1.37999">
        <ele>1015</ele>
        <time>2025-09-27T09:46:24.000Z</time>
      </trkpt>
      <trkpt lat="42.83157" lon="1.38001">
        <ele>1015</ele>
        <time>2025-09-27T09:46:25.000Z</time>
      </trkpt>
      <trkpt lat="42.83155" lon="1.38003">
        <ele>1015</ele>
        <time>2025-09-27T09:46:26.000Z</time>
      </trkpt>
      <trkpt lat="42.83152" lon="1.38005">
        <ele>1015</ele>
        <time>2025-09-27T09:46:27.000Z</time>
      </trkpt>
      <trkpt lat="42.8315" lon="1.38005">
        <ele>1016</ele>
        <time>2025-09-27T09:46:28.000Z</time>
      </trkpt>
      <trkpt lat="42.83148" lon="1.38007">
        <ele>1017</ele>
        <time>2025-09-27T09:46:29.000Z</time>
      </trkpt>
      <trkpt lat="42.83145" lon="1.38009">
        <ele>1017</ele>
        <time>2025-09-27T09:46:30.000Z</time>
      </trkpt>
      <trkpt lat="42.83142" lon="1.38011">
        <ele>1017</ele>
        <time>2025-09-27T09:46:31.000Z</time>
      </trkpt>
      <trkpt lat="42.83139" lon="1.38012">
        <ele>1016</ele>
        <time>2025-09-27T09:46:32.000Z</time>
      </trkpt>
      <trkpt lat="42.83136" lon="1.38014">
        <ele>1017</ele>
        <time>2025-09-27T09:46:33.000Z</time>
      </trkpt>
      <trkpt lat="42.83134" lon="1.38015">
        <ele>1018</ele>
        <time>2025-09-27T09:46:34.000Z</time>
      </trkpt>
      <trkpt lat="42.83131" lon="1.38017">
        <ele>1019</ele>
        <time>2025-09-27T09:46:35.000Z</time>
      </trkpt>
      <trkpt lat="42.83129" lon="1.38017">
        <ele>1019</ele>
        <time>2025-09-27T09:46:36.000Z</time>
      </trkpt>
      <trkpt lat="42.83126" lon="1.38018">
        <ele>1019</ele>
        <time>2025-09-27T09:46:37.000Z</time>
      </trkpt>
      <trkpt lat="42.83123" lon="1.38018">
        <ele>1020</ele>
        <time>2025-09-27T09:46:38.000Z</time>
      </trkpt>
      <trkpt lat="42.83121" lon="1.38018">
        <ele>1020</ele>
        <time>2025-09-27T09:46:39.000Z</time>
      </trkpt>
      <trkpt lat="42.83118" lon="1.38018">
        <ele>1021</ele>
        <time>2025-09-27T09:46:40.000Z</time>
      </trkpt>
      <trkpt lat="42.83115" lon="1.38018">
        <ele>1021</ele>
        <time>2025-09-27T09:46:41.000Z</time>
      </trkpt>
      <trkpt lat="42.83113" lon="1.38019">
        <ele>1022</ele>
        <time>2025-09-27T09:46:42.000Z</time>
      </trkpt>
      <trkpt lat="42.8311" lon="1.38019">
        <ele>1023</ele>
        <time>2025-09-27T09:46:43.000Z</time>
      </trkpt>
      <trkpt lat="42.83108" lon="1.3802">
        <ele>1022</ele>
        <time>2025-09-27T09:46:44.000Z</time>
      </trkpt>
      <trkpt lat="42.83106" lon="1.3802">
        <ele>1022</ele>
        <time>2025-09-27T09:46:45.000Z</time>
      </trkpt>
      <trkpt lat="42.83102" lon="1.3802">
        <ele>1023</ele>
        <time>2025-09-27T09:46:46.000Z</time>
      </trkpt>
      <trkpt lat="42.831" lon="1.3802">
        <ele>1023</ele>
        <time>2025-09-27T09:46:47.000Z</time>
      </trkpt>
      <trkpt lat="42.83097" lon="1.38019">
        <ele>1024</ele>
        <time>2025-09-27T09:46:48.000Z</time>
      </trkpt>
      <trkpt lat="42.83094" lon="1.38019">
        <ele>1024</ele>
        <time>2025-09-27T09:46:49.000Z</time>
      </trkpt>
      <trkpt lat="42.83091" lon="1.38018">
        <ele>1024</ele>
        <time>2025-09-27T09:46:50.000Z</time>
      </trkpt>
      <trkpt lat="42.83088" lon="1.38019">
        <ele>1025</ele>
        <time>2025-09-27T09:46:51.000Z</time>
      </trkpt>
      <trkpt lat="42.83086" lon="1.3802">
        <ele>1025</ele>
        <time>2025-09-27T09:46:52.000Z</time>
      </trkpt>
      <trkpt lat="42.83083" lon="1.38021">
        <ele>1026</ele>
        <time>2025-09-27T09:46:53.000Z</time>
      </trkpt>
      <trkpt lat="42.83081" lon="1.38022">
        <ele>1026</ele>
        <time>2025-09-27T09:46:54.000Z</time>
      </trkpt>
      <trkpt lat="42.83078" lon="1.38023">
        <ele>1026</ele>
        <time>2025-09-27T09:46:55.000Z</time>
      </trkpt>
      <trkpt lat="42.83075" lon="1.38024">
        <ele>1027</ele>
        <time>2025-09-27T09:46:56.000Z</time>
      </trkpt>
      <trkpt lat="42.83073" lon="1.38025">
        <ele>1026</ele>
        <time>2025-09-27T09:46:57.000Z</time>
      </trkpt>
      <trkpt lat="42.8307" lon="1.38026">
        <ele>1026</ele>
        <time>2025-09-27T09:46:58.000Z</time>
      </trkpt>
      <trkpt lat="42.83068" lon="1.38027">
        <ele>1026</ele>
        <time>2025-09-27T09:46:59.000Z</time>
      </trkpt>
      <trkpt lat="42.83065" lon="1.38027">
        <ele>1027</ele>
        <time>2025-09-27T09:47:00.000Z</time>
      </trkpt>
      <trkpt lat="42.83063" lon="1.38027">
        <ele>1027</ele>
        <time>2025-09-27T09:47:01.000Z</time>
      </trkpt>
      <trkpt lat="42.83061" lon="1.38029">
        <ele>1028</ele>
        <time>2025-09-27T09:47:02.000Z</time>
      </trkpt>
      <trkpt lat="42.83059" lon="1.3803">
        <ele>1028</ele>
        <time>2025-09-27T09:47:03.000Z</time>
      </trkpt>
      <trkpt lat="42.83057" lon="1.38032">
        <ele>1028</ele>
        <time>2025-09-27T09:47:04.000Z</time>
      </trkpt>
      <trkpt lat="42.83054" lon="1.38033">
        <ele>1030</ele>
        <time>2025-09-27T09:47:05.000Z</time>
      </trkpt>
      <trkpt lat="42.83052" lon="1.38035">
        <ele>1029</ele>
        <time>2025-09-27T09:47:06.000Z</time>
      </trkpt>
      <trkpt lat="42.83049" lon="1.38037">
        <ele>1029</ele>
        <time>2025-09-27T09:47:07.000Z</time>
      </trkpt>
      <trkpt lat="42.83047" lon="1.38038">
        <ele>1030</ele>
        <time>2025-09-27T09:47:08.000Z</time>
      </trkpt>
      <trkpt lat="42.83045" lon="1.38039">
        <ele>1030</ele>
        <time>2025-09-27T09:47:09.000Z</time>
      </trkpt>
      <trkpt lat="42.83042" lon="1.3804">
        <ele>1031</ele>
        <time>2025-09-27T09:47:10.000Z</time>
      </trkpt>
      <trkpt lat="42.8304" lon="1.38041">
        <ele>1032</ele>
        <time>2025-09-27T09:47:11.000Z</time>
      </trkpt>
      <trkpt lat="42.83037" lon="1.38042">
        <ele>1032</ele>
        <time>2025-09-27T09:47:12.000Z</time>
      </trkpt>
      <trkpt lat="42.83035" lon="1.38043">
        <ele>1032</ele>
        <time>2025-09-27T09:47:13.000Z</time>
      </trkpt>
      <trkpt lat="42.83033" lon="1.38043">
        <ele>1032</ele>
        <time>2025-09-27T09:47:14.000Z</time>
      </trkpt>
      <trkpt lat="42.83031" lon="1.38044">
        <ele>1033</ele>
        <time>2025-09-27T09:47:15.000Z</time>
      </trkpt>
      <trkpt lat="42.83029" lon="1.38044">
        <ele>1034</ele>
        <time>2025-09-27T09:47:16.000Z</time>
      </trkpt>
      <trkpt lat="42.83026" lon="1.38044">
        <ele>1034</ele>
        <time>2025-09-27T09:47:17.000Z</time>
      </trkpt>
      <trkpt lat="42.83024" lon="1.38046">
        <ele>1034</ele>
        <time>2025-09-27T09:47:18.000Z</time>
      </trkpt>
      <trkpt lat="42.83022" lon="1.38047">
        <ele>1034</ele>
        <time>2025-09-27T09:47:19.000Z</time>
      </trkpt>
      <trkpt lat="42.83019" lon="1.38048">
        <ele>1035</ele>
        <time>2025-09-27T09:47:20.000Z</time>
      </trkpt>
      <trkpt lat="42.83017" lon="1.38049">
        <ele>1035</ele>
        <time>2025-09-27T09:47:21.000Z</time>
      </trkpt>
      <trkpt lat="42.83014" lon="1.38049">
        <ele>1035</ele>
        <time>2025-09-27T09:47:22.000Z</time>
      </trkpt>
      <trkpt lat="42.83012" lon="1.3805">
        <ele>1036</ele>
        <time>2025-09-27T09:47:23.000Z</time>
      </trkpt>
      <trkpt lat="42.8301" lon="1.3805">
        <ele>1036</ele>
        <time>2025-09-27T09:47:24.000Z</time>
      </trkpt>
      <trkpt lat="42.83008" lon="1.38051">
        <ele>1036</ele>
        <time>2025-09-27T09:47:25.000Z</time>
      </trkpt>
      <trkpt lat="42.83006" lon="1.38052">
        <ele>1035</ele>
        <time>2025-09-27T09:47:26.000Z</time>
      </trkpt>
      <trkpt lat="42.83004" lon="1.38052">
        <ele>1035</ele>
        <time>2025-09-27T09:47:27.000Z</time>
      </trkpt>
      <trkpt lat="42.83002" lon="1.38052">
        <ele>1036</ele>
        <time>2025-09-27T09:47:28.000Z</time>
      </trkpt>
      <trkpt lat="42.83" lon="1.38052">
        <ele>1036</ele>
        <time>2025-09-27T09:47:29.000Z</time>
      </trkpt>
      <trkpt lat="42.82998" lon="1.38052">
        <ele>1036</ele>
        <time>2025-09-27T09:47:30.000Z</time>
      </trkpt>
      <trkpt lat="42.82996" lon="1.38051">
        <ele>1036</ele>
        <time>2025-09-27T09:47:31.000Z</time>
      </trkpt>
      <trkpt lat="42.82994" lon="1.3805">
        <ele>1037</ele>
        <time>2025-09-27T09:47:32.000Z</time>
      </trkpt>
      <trkpt lat="42.82991" lon="1.38048">
        <ele>1036</ele>
        <time>2025-09-27T09:47:33.000Z</time>
      </trkpt>
      <trkpt lat="42.82989" lon="1.38046">
        <ele>1036</ele>
        <time>2025-09-27T09:47:34.000Z</time>
      </trkpt>
      <trkpt lat="42.82987" lon="1.38044">
        <ele>1037</ele>
        <time>2025-09-27T09:47:35.000Z</time>
      </trkpt>
      <trkpt lat="42.82985" lon="1.38042">
        <ele>1037</ele>
        <time>2025-09-27T09:47:36.000Z</time>
      </trkpt>
      <trkpt lat="42.82983" lon="1.3804">
        <ele>1036</ele>
        <time>2025-09-27T09:47:37.000Z</time>
      </trkpt>
      <trkpt lat="42.8298" lon="1.38037">
        <ele>1037</ele>
        <time>2025-09-27T09:47:38.000Z</time>
      </trkpt>
      <trkpt lat="42.82979" lon="1.38034">
        <ele>1037</ele>
        <time>2025-09-27T09:47:39.000Z</time>
      </trkpt>
      <trkpt lat="42.82977" lon="1.38031">
        <ele>1037</ele>
        <time>2025-09-27T09:47:40.000Z</time>
      </trkpt>
      <trkpt lat="42.82976" lon="1.38029">
        <ele>1038</ele>
        <time>2025-09-27T09:47:41.000Z</time>
      </trkpt>
      <trkpt lat="42.82974" lon="1.38027">
        <ele>1038</ele>
        <time>2025-09-27T09:47:42.000Z</time>
      </trkpt>
      <trkpt lat="42.82972" lon="1.38024">
        <ele>1039</ele>
        <time>2025-09-27T09:47:43.000Z</time>
      </trkpt>
      <trkpt lat="42.8297" lon="1.3802">
        <ele>1040</ele>
        <time>2025-09-27T09:47:44.000Z</time>
      </trkpt>
      <trkpt lat="42.82969" lon="1.38018">
        <ele>1040</ele>
        <time>2025-09-27T09:47:45.000Z</time>
      </trkpt>
      <trkpt lat="42.82967" lon="1.38015">
        <ele>1040</ele>
        <time>2025-09-27T09:47:46.000Z</time>
      </trkpt>
      <trkpt lat="42.82965" lon="1.38012">
        <ele>1041</ele>
        <time>2025-09-27T09:47:47.000Z</time>
      </trkpt>
      <trkpt lat="42.82963" lon="1.38011">
        <ele>1041</ele>
        <time>2025-09-27T09:47:48.000Z</time>
      </trkpt>
      <trkpt lat="42.82961" lon="1.38009">
        <ele>1040</ele>
        <time>2025-09-27T09:47:49.000Z</time>
      </trkpt>
      <trkpt lat="42.82958" lon="1.38007">
        <ele>1040</ele>
        <time>2025-09-27T09:47:50.000Z</time>
      </trkpt>
      <trkpt lat="42.82956" lon="1.38005">
        <ele>1041</ele>
        <time>2025-09-27T09:47:51.000Z</time>
      </trkpt>
      <trkpt lat="42.82953" lon="1.38005">
        <ele>1041</ele>
        <time>2025-09-27T09:47:52.000Z</time>
      </trkpt>
      <trkpt lat="42.8295" lon="1.38004">
        <ele>1041</ele>
        <time>2025-09-27T09:47:53.000Z</time>
      </trkpt>
      <trkpt lat="42.82948" lon="1.38004">
        <ele>1042</ele>
        <time>2025-09-27T09:47:54.000Z</time>
      </trkpt>
      <trkpt lat="42.82945" lon="1.38005">
        <ele>1042</ele>
        <time>2025-09-27T09:47:55.000Z</time>
      </trkpt>
      <trkpt lat="42.82942" lon="1.38007">
        <ele>1042</ele>
        <time>2025-09-27T09:47:56.000Z</time>
      </trkpt>
      <trkpt lat="42.82939" lon="1.38009">
        <ele>1042</ele>
        <time>2025-09-27T09:47:57.000Z</time>
      </trkpt>
      <trkpt lat="42.82937" lon="1.38011">
        <ele>1041</ele>
        <time>2025-09-27T09:47:58.000Z</time>
      </trkpt>
      <trkpt lat="42.82934" lon="1.38012">
        <ele>1041</ele>
        <time>2025-09-27T09:47:59.000Z</time>
      </trkpt>
      <trkpt lat="42.82931" lon="1.38013">
        <ele>1042</ele>
        <time>2025-09-27T09:48:00.000Z</time>
      </trkpt>
      <trkpt lat="42.82928" lon="1.38015">
        <ele>1043</ele>
        <time>2025-09-27T09:48:01.000Z</time>
      </trkpt>
      <trkpt lat="42.82926" lon="1.38016">
        <ele>1043</ele>
        <time>2025-09-27T09:48:02.000Z</time>
      </trkpt>
      <trkpt lat="42.82923" lon="1.38018">
        <ele>1043</ele>
        <time>2025-09-27T09:48:03.000Z</time>
      </trkpt>
      <trkpt lat="42.8292" lon="1.38018">
        <ele>1044</ele>
        <time>2025-09-27T09:48:04.000Z</time>
      </trkpt>
      <trkpt lat="42.82918" lon="1.38019">
        <ele>1044</ele>
        <time>2025-09-27T09:48:05.000Z</time>
      </trkpt>
      <trkpt lat="42.82915" lon="1.38021">
        <ele>1044</ele>
        <time>2025-09-27T09:48:06.000Z</time>
      </trkpt>
      <trkpt lat="42.82912" lon="1.38021">
        <ele>1044</ele>
        <time>2025-09-27T09:48:07.000Z</time>
      </trkpt>
      <trkpt lat="42.82909" lon="1.38021">
        <ele>1044</ele>
        <time>2025-09-27T09:48:08.000Z</time>
      </trkpt>
      <trkpt lat="42.82905" lon="1.3802">
        <ele>1045</ele>
        <time>2025-09-27T09:48:09.000Z</time>
      </trkpt>
      <trkpt lat="42.82902" lon="1.3802">
        <ele>1045</ele>
        <time>2025-09-27T09:48:10.000Z</time>
      </trkpt>
      <trkpt lat="42.82899" lon="1.3802">
        <ele>1045</ele>
        <time>2025-09-27T09:48:11.000Z</time>
      </trkpt>
      <trkpt lat="42.82896" lon="1.38021">
        <ele>1045</ele>
        <time>2025-09-27T09:48:12.000Z</time>
      </trkpt>
      <trkpt lat="42.82893" lon="1.3802">
        <ele>1046</ele>
        <time>2025-09-27T09:48:13.000Z</time>
      </trkpt>
      <trkpt lat="42.82891" lon="1.3802">
        <ele>1046</ele>
        <time>2025-09-27T09:48:14.000Z</time>
      </trkpt>
      <trkpt lat="42.82888" lon="1.38019">
        <ele>1046</ele>
        <time>2025-09-27T09:48:15.000Z</time>
      </trkpt>
      <trkpt lat="42.82885" lon="1.3802">
        <ele>1046</ele>
        <time>2025-09-27T09:48:16.000Z</time>
      </trkpt>
      <trkpt lat="42.82882" lon="1.38019">
        <ele>1046</ele>
        <time>2025-09-27T09:48:17.000Z</time>
      </trkpt>
      <trkpt lat="42.82879" lon="1.38019">
        <ele>1046</ele>
        <time>2025-09-27T09:48:18.000Z</time>
      </trkpt>
      <trkpt lat="42.82876" lon="1.3802">
        <ele>1045</ele>
        <time>2025-09-27T09:48:19.000Z</time>
      </trkpt>
      <trkpt lat="42.82872" lon="1.3802">
        <ele>1045</ele>
        <time>2025-09-27T09:48:20.000Z</time>
      </trkpt>
      <trkpt lat="42.82869" lon="1.3802">
        <ele>1046</ele>
        <time>2025-09-27T09:48:21.000Z</time>
      </trkpt>
      <trkpt lat="42.82866" lon="1.38021">
        <ele>1045</ele>
        <time>2025-09-27T09:48:22.000Z</time>
      </trkpt>
      <trkpt lat="42.82863" lon="1.38022">
        <ele>1046</ele>
        <time>2025-09-27T09:48:23.000Z</time>
      </trkpt>
      <trkpt lat="42.8286" lon="1.38023">
        <ele>1047</ele>
        <time>2025-09-27T09:48:24.000Z</time>
      </trkpt>
      <trkpt lat="42.82858" lon="1.38023">
        <ele>1047</ele>
        <time>2025-09-27T09:48:25.000Z</time>
      </trkpt>
      <trkpt lat="42.82855" lon="1.38024">
        <ele>1048</ele>
        <time>2025-09-27T09:48:26.000Z</time>
      </trkpt>
      <trkpt lat="42.82852" lon="1.38025">
        <ele>1048</ele>
        <time>2025-09-27T09:48:27.000Z</time>
      </trkpt>
      <trkpt lat="42.8285" lon="1.38026">
        <ele>1048</ele>
        <time>2025-09-27T09:48:28.000Z</time>
      </trkpt>
      <trkpt lat="42.82847" lon="1.38027">
        <ele>1048</ele>
        <time>2025-09-27T09:48:29.000Z</time>
      </trkpt>
      <trkpt lat="42.82844" lon="1.38027">
        <ele>1049</ele>
        <time>2025-09-27T09:48:30.000Z</time>
      </trkpt>
      <trkpt lat="42.82841" lon="1.38027">
        <ele>1049</ele>
        <time>2025-09-27T09:48:31.000Z</time>
      </trkpt>
      <trkpt lat="42.82838" lon="1.38027">
        <ele>1048</ele>
        <time>2025-09-27T09:48:32.000Z</time>
      </trkpt>
      <trkpt lat="42.82835" lon="1.38027">
        <ele>1049</ele>
        <time>2025-09-27T09:48:33.000Z</time>
      </trkpt>
      <trkpt lat="42.82832" lon="1.38027">
        <ele>1048</ele>
        <time>2025-09-27T09:48:34.000Z</time>
      </trkpt>
      <trkpt lat="42.8283" lon="1.38027">
        <ele>1048</ele>
        <time>2025-09-27T09:48:35.000Z</time>
      </trkpt>
      <trkpt lat="42.82827" lon="1.38026">
        <ele>1048</ele>
        <time>2025-09-27T09:48:36.000Z</time>
      </trkpt>
      <trkpt lat="42.82824" lon="1.38024">
        <ele>1048</ele>
        <time>2025-09-27T09:48:37.000Z</time>
      </trkpt>
      <trkpt lat="42.82821" lon="1.38023">
        <ele>1049</ele>
        <time>2025-09-27T09:48:38.000Z</time>
      </trkpt>
      <trkpt lat="42.82819" lon="1.3802">
        <ele>1049</ele>
        <time>2025-09-27T09:48:39.000Z</time>
      </trkpt>
      <trkpt lat="42.82817" lon="1.38018">
        <ele>1049</ele>
        <time>2025-09-27T09:48:40.000Z</time>
      </trkpt>
      <trkpt lat="42.82814" lon="1.38016">
        <ele>1050</ele>
        <time>2025-09-27T09:48:41.000Z</time>
      </trkpt>
      <trkpt lat="42.82812" lon="1.38013">
        <ele>1050</ele>
        <time>2025-09-27T09:48:42.000Z</time>
      </trkpt>
      <trkpt lat="42.8281" lon="1.3801">
        <ele>1050</ele>
        <time>2025-09-27T09:48:43.000Z</time>
      </trkpt>
      <trkpt lat="42.82809" lon="1.38008">
        <ele>1050</ele>
        <time>2025-09-27T09:48:44.000Z</time>
      </trkpt>
      <trkpt lat="42.82807" lon="1.38006">
        <ele>1050</ele>
        <time>2025-09-27T09:48:45.000Z</time>
      </trkpt>
      <trkpt lat="42.82806" lon="1.38004">
        <ele>1050</ele>
        <time>2025-09-27T09:48:46.000Z</time>
      </trkpt>
      <trkpt lat="42.82804" lon="1.38003">
        <ele>1050</ele>
        <time>2025-09-27T09:48:47.000Z</time>
      </trkpt>
      <trkpt lat="42.82802" lon="1.38001">
        <ele>1051</ele>
        <time>2025-09-27T09:48:48.000Z</time>
      </trkpt>
      <trkpt lat="42.828" lon="1.37999">
        <ele>1051</ele>
        <time>2025-09-27T09:48:49.000Z</time>
      </trkpt>
      <trkpt lat="42.82798" lon="1.37998">
        <ele>1052</ele>
        <time>2025-09-27T09:48:50.000Z</time>
      </trkpt>
      <trkpt lat="42.82796" lon="1.37996">
        <ele>1053</ele>
        <time>2025-09-27T09:48:51.000Z</time>
      </trkpt>
      <trkpt lat="42.82794" lon="1.37995">
        <ele>1053</ele>
        <time>2025-09-27T09:48:52.000Z</time>
      </trkpt>
      <trkpt lat="42.82791" lon="1.37995">
        <ele>1054</ele>
        <time>2025-09-27T09:48:53.000Z</time>
      </trkpt>
      <trkpt lat="42.82789" lon="1.37995">
        <ele>1054</ele>
        <time>2025-09-27T09:48:54.000Z</time>
      </trkpt>
      <trkpt lat="42.82786" lon="1.37994">
        <ele>1055</ele>
        <time>2025-09-27T09:48:55.000Z</time>
      </trkpt>
      <trkpt lat="42.82783" lon="1.37994">
        <ele>1055</ele>
        <time>2025-09-27T09:48:56.000Z</time>
      </trkpt>
      <trkpt lat="42.8278" lon="1.37993">
        <ele>1055</ele>
        <time>2025-09-27T09:48:57.000Z</time>
      </trkpt>
      <trkpt lat="42.82777" lon="1.37993">
        <ele>1055</ele>
        <time>2025-09-27T09:48:58.000Z</time>
      </trkpt>
      <trkpt lat="42.82774" lon="1.37993">
        <ele>1054</ele>
        <time>2025-09-27T09:48:59.000Z</time>
      </trkpt>
      <trkpt lat="42.82771" lon="1.37992">
        <ele>1054</ele>
        <time>2025-09-27T09:49:00.000Z</time>
      </trkpt>
      <trkpt lat="42.82769" lon="1.37993">
        <ele>1053</ele>
        <time>2025-09-27T09:49:01.000Z</time>
      </trkpt>
      <trkpt lat="42.82766" lon="1.37993">
        <ele>1053</ele>
        <time>2025-09-27T09:49:02.000Z</time>
      </trkpt>
      <trkpt lat="42.82763" lon="1.37994">
        <ele>1054</ele>
        <time>2025-09-27T09:49:03.000Z</time>
      </trkpt>
      <trkpt lat="42.8276" lon="1.37994">
        <ele>1054</ele>
        <time>2025-09-27T09:49:04.000Z</time>
      </trkpt>
      <trkpt lat="42.82757" lon="1.37995">
        <ele>1055</ele>
        <time>2025-09-27T09:49:05.000Z</time>
      </trkpt>
      <trkpt lat="42.82754" lon="1.37995">
        <ele>1055</ele>
        <time>2025-09-27T09:49:06.000Z</time>
      </trkpt>
      <trkpt lat="42.82751" lon="1.37995">
        <ele>1055</ele>
        <time>2025-09-27T09:49:07.000Z</time>
      </trkpt>
      <trkpt lat="42.82749" lon="1.37995">
        <ele>1056</ele>
        <time>2025-09-27T09:49:08.000Z</time>
      </trkpt>
      <trkpt lat="42.82746" lon="1.37994">
        <ele>1057</ele>
        <time>2025-09-27T09:49:09.000Z</time>
      </trkpt>
      <trkpt lat="42.82743" lon="1.37993">
        <ele>1057</ele>
        <time>2025-09-27T09:49:10.000Z</time>
      </trkpt>
      <trkpt lat="42.82741" lon="1.37991">
        <ele>1058</ele>
        <time>2025-09-27T09:49:11.000Z</time>
      </trkpt>
      <trkpt lat="42.82739" lon="1.37989">
        <ele>1058</ele>
        <time>2025-09-27T09:49:12.000Z</time>
      </trkpt>
      <trkpt lat="42.82736" lon="1.37986">
        <ele>1058</ele>
        <time>2025-09-27T09:49:13.000Z</time>
      </trkpt>
      <trkpt lat="42.82735" lon="1.37982">
        <ele>1058</ele>
        <time>2025-09-27T09:49:14.000Z</time>
      </trkpt>
      <trkpt lat="42.82733" lon="1.3798">
        <ele>1058</ele>
        <time>2025-09-27T09:49:15.000Z</time>
      </trkpt>
      <trkpt lat="42.82731" lon="1.37976">
        <ele>1058</ele>
        <time>2025-09-27T09:49:16.000Z</time>
      </trkpt>
      <trkpt lat="42.82729" lon="1.37972">
        <ele>1059</ele>
        <time>2025-09-27T09:49:17.000Z</time>
      </trkpt>
      <trkpt lat="42.82727" lon="1.37969">
        <ele>1059</ele>
        <time>2025-09-27T09:49:18.000Z</time>
      </trkpt>
      <trkpt lat="42.82725" lon="1.37966">
        <ele>1060</ele>
        <time>2025-09-27T09:49:19.000Z</time>
      </trkpt>
      <trkpt lat="42.82722" lon="1.37963">
        <ele>1060</ele>
        <time>2025-09-27T09:49:20.000Z</time>
      </trkpt>
      <trkpt lat="42.8272" lon="1.37962">
        <ele>1060</ele>
        <time>2025-09-27T09:49:21.000Z</time>
      </trkpt>
      <trkpt lat="42.82717" lon="1.3796">
        <ele>1060</ele>
        <time>2025-09-27T09:49:22.000Z</time>
      </trkpt>
      <trkpt lat="42.82715" lon="1.37959">
        <ele>1060</ele>
        <time>2025-09-27T09:49:23.000Z</time>
      </trkpt>
      <trkpt lat="42.82712" lon="1.37958">
        <ele>1060</ele>
        <time>2025-09-27T09:49:24.000Z</time>
      </trkpt>
      <trkpt lat="42.8271" lon="1.37958">
        <ele>1060</ele>
        <time>2025-09-27T09:49:25.000Z</time>
      </trkpt>
      <trkpt lat="42.82708" lon="1.37957">
        <ele>1060</ele>
        <time>2025-09-27T09:49:26.000Z</time>
      </trkpt>
      <trkpt lat="42.82705" lon="1.37956">
        <ele>1060</ele>
        <time>2025-09-27T09:49:27.000Z</time>
      </trkpt>
      <trkpt lat="42.82702" lon="1.37956">
        <ele>1061</ele>
        <time>2025-09-27T09:49:28.000Z</time>
      </trkpt>
      <trkpt lat="42.82699" lon="1.37956">
        <ele>1061</ele>
        <time>2025-09-27T09:49:29.000Z</time>
      </trkpt>
      <trkpt lat="42.82696" lon="1.37955">
        <ele>1060</ele>
        <time>2025-09-27T09:49:30.000Z</time>
      </trkpt>
      <trkpt lat="42.82694" lon="1.37954">
        <ele>1060</ele>
        <time>2025-09-27T09:49:31.000Z</time>
      </trkpt>
      <trkpt lat="42.82691" lon="1.37953">
        <ele>1061</ele>
        <time>2025-09-27T09:49:32.000Z</time>
      </trkpt>
      <trkpt lat="42.82689" lon="1.37953">
        <ele>1060</ele>
        <time>2025-09-27T09:49:33.000Z</time>
      </trkpt>
      <trkpt lat="42.82686" lon="1.37953">
        <ele>1061</ele>
        <time>2025-09-27T09:49:34.000Z</time>
      </trkpt>
      <trkpt lat="42.82683" lon="1.37952">
        <ele>1061</ele>
        <time>2025-09-27T09:49:35.000Z</time>
      </trkpt>
      <trkpt lat="42.8268" lon="1.37952">
        <ele>1061</ele>
        <time>2025-09-27T09:49:36.000Z</time>
      </trkpt>
      <trkpt lat="42.82678" lon="1.37952">
        <ele>1061</ele>
        <time>2025-09-27T09:49:37.000Z</time>
      </trkpt>
      <trkpt lat="42.82675" lon="1.37951">
        <ele>1060</ele>
        <time>2025-09-27T09:49:38.000Z</time>
      </trkpt>
      <trkpt lat="42.82672" lon="1.3795">
        <ele>1061</ele>
        <time>2025-09-27T09:49:39.000Z</time>
      </trkpt>
      <trkpt lat="42.8267" lon="1.3795">
        <ele>1061</ele>
        <time>2025-09-27T09:49:40.000Z</time>
      </trkpt>
      <trkpt lat="42.82667" lon="1.37949">
        <ele>1061</ele>
        <time>2025-09-27T09:49:41.000Z</time>
      </trkpt>
      <trkpt lat="42.82664" lon="1.37948">
        <ele>1061</ele>
        <time>2025-09-27T09:49:42.000Z</time>
      </trkpt>
      <trkpt lat="42.82662" lon="1.37947">
        <ele>1062</ele>
        <time>2025-09-27T09:49:43.000Z</time>
      </trkpt>
      <trkpt lat="42.82659" lon="1.37947">
        <ele>1062</ele>
        <time>2025-09-27T09:49:44.000Z</time>
      </trkpt>
      <trkpt lat="42.82656" lon="1.37946">
        <ele>1062</ele>
        <time>2025-09-27T09:49:45.000Z</time>
      </trkpt>
      <trkpt lat="42.82654" lon="1.37945">
        <ele>1063</ele>
        <time>2025-09-27T09:49:46.000Z</time>
      </trkpt>
      <trkpt lat="42.82651" lon="1.37944">
        <ele>1063</ele>
        <time>2025-09-27T09:49:47.000Z</time>
      </trkpt>
      <trkpt lat="42.82649" lon="1.37943">
        <ele>1063</ele>
        <time>2025-09-27T09:49:48.000Z</time>
      </trkpt>
      <trkpt lat="42.82646" lon="1.37943">
        <ele>1062</ele>
        <time>2025-09-27T09:49:49.000Z</time>
      </trkpt>
      <trkpt lat="42.82644" lon="1.37942">
        <ele>1063</ele>
        <time>2025-09-27T09:49:50.000Z</time>
      </trkpt>
      <trkpt lat="42.82641" lon="1.37941">
        <ele>1062</ele>
        <time>2025-09-27T09:49:51.000Z</time>
      </trkpt>
      <trkpt lat="42.82638" lon="1.3794">
        <ele>1063</ele>
        <time>2025-09-27T09:49:52.000Z</time>
      </trkpt>
      <trkpt lat="42.82636" lon="1.37939">
        <ele>1062</ele>
        <time>2025-09-27T09:49:53.000Z</time>
      </trkpt>
      <trkpt lat="42.82634" lon="1.37938">
        <ele>1063</ele>
        <time>2025-09-27T09:49:54.000Z</time>
      </trkpt>
      <trkpt lat="42.82632" lon="1.37937">
        <ele>1063</ele>
        <time>2025-09-27T09:49:55.000Z</time>
      </trkpt>
      <trkpt lat="42.82629" lon="1.37936">
        <ele>1063</ele>
        <time>2025-09-27T09:49:56.000Z</time>
      </trkpt>
      <trkpt lat="42.82627" lon="1.37935">
        <ele>1063</ele>
        <time>2025-09-27T09:49:57.000Z</time>
      </trkpt>
      <trkpt lat="42.82625" lon="1.37933">
        <ele>1064</ele>
        <time>2025-09-27T09:49:58.000Z</time>
      </trkpt>
      <trkpt lat="42.82622" lon="1.37932">
        <ele>1063</ele>
        <time>2025-09-27T09:49:59.000Z</time>
      </trkpt>
      <trkpt lat="42.8262" lon="1.3793">
        <ele>1063</ele>
        <time>2025-09-27T09:50:00.000Z</time>
      </trkpt>
      <trkpt lat="42.82618" lon="1.37927">
        <ele>1063</ele>
        <time>2025-09-27T09:50:01.000Z</time>
      </trkpt>
      <trkpt lat="42.82615" lon="1.37925">
        <ele>1062</ele>
        <time>2025-09-27T09:50:02.000Z</time>
      </trkpt>
      <trkpt lat="42.82613" lon="1.37921">
        <ele>1063</ele>
        <time>2025-09-27T09:50:03.000Z</time>
      </trkpt>
      <trkpt lat="42.82612" lon="1.37918">
        <ele>1064</ele>
        <time>2025-09-27T09:50:04.000Z</time>
      </trkpt>
      <trkpt lat="42.8261" lon="1.37915">
        <ele>1064</ele>
        <time>2025-09-27T09:50:05.000Z</time>
      </trkpt>
      <trkpt lat="42.8261" lon="1.37912">
        <ele>1063</ele>
        <time>2025-09-27T09:50:06.000Z</time>
      </trkpt>
      <trkpt lat="42.82609" lon="1.37911">
        <ele>1063</ele>
        <time>2025-09-27T09:50:07.000Z</time>
      </trkpt>
      <trkpt lat="42.82609" lon="1.37908">
        <ele>1063</ele>
        <time>2025-09-27T09:50:08.000Z</time>
      </trkpt>
      <trkpt lat="42.82609" lon="1.37907">
        <ele>1063</ele>
        <time>2025-09-27T09:50:09.000Z</time>
      </trkpt>
      <trkpt lat="42.82608" lon="1.37905">
        <ele>1063</ele>
        <time>2025-09-27T09:50:10.000Z</time>
      </trkpt>
      <trkpt lat="42.82608" lon="1.37903">
        <ele>1064</ele>
        <time>2025-09-27T09:50:11.000Z</time>
      </trkpt>
      <trkpt lat="42.82607" lon="1.37902">
        <ele>1065</ele>
        <time>2025-09-27T09:50:12.000Z</time>
      </trkpt>
      <trkpt lat="42.82607" lon="1.379">
        <ele>1065</ele>
        <time>2025-09-27T09:50:13.000Z</time>
      </trkpt>
      <trkpt lat="42.82607" lon="1.37899">
        <ele>1065</ele>
        <time>2025-09-27T09:50:14.000Z</time>
      </trkpt>
      <trkpt lat="42.82607" lon="1.37898">
        <ele>1065</ele>
        <time>2025-09-27T09:50:15.000Z</time>
      </trkpt>
      <trkpt lat="42.82605" lon="1.37898">
        <ele>1065</ele>
        <time>2025-09-27T09:51:05.000Z</time>
      </trkpt>
      <trkpt lat="42.82606" lon="1.37898">
        <ele>1064</ele>
        <time>2025-09-27T09:51:06.000Z</time>
      </trkpt>
      <trkpt lat="42.82606" lon="1.37899">
        <ele>1064</ele>
        <time>2025-09-27T09:51:07.000Z</time>
      </trkpt>
      <trkpt lat="42.82606" lon="1.37899">
        <ele>1065</ele>
        <time>2025-09-27T09:51:08.000Z</time>
      </trkpt>
      <trkpt lat="42.82607" lon="1.37903">
        <ele>1067</ele>
        <time>2025-09-27T09:51:40.000Z</time>
      </trkpt>
      <trkpt lat="42.82607" lon="1.37903">
        <ele>1067</ele>
        <time>2025-09-27T09:51:41.000Z</time>
      </trkpt>
      <trkpt lat="42.82606" lon="1.37903">
        <ele>1068</ele>
        <time>2025-09-27T09:51:42.000Z</time>
      </trkpt>
      <trkpt lat="42.82605" lon="1.37904">
        <ele>1067</ele>
        <time>2025-09-27T09:51:43.000Z</time>
      </trkpt>
      <trkpt lat="42.82605" lon="1.37905">
        <ele>1067</ele>
        <time>2025-09-27T09:51:44.000Z</time>
      </trkpt>
      <trkpt lat="42.82604" lon="1.37905">
        <ele>1067</ele>
        <time>2025-09-27T09:51:45.000Z</time>
      </trkpt>
      <trkpt lat="42.82605" lon="1.37906">
        <ele>1067</ele>
        <time>2025-09-27T09:51:46.000Z</time>
      </trkpt>
      <trkpt lat="42.82606" lon="1.3791">
        <ele>1063</ele>
        <time>2025-09-27T09:53:52.000Z</time>
      </trkpt>
      <trkpt lat="42.82606" lon="1.37912">
        <ele>1063</ele>
        <time>2025-09-27T09:53:53.000Z</time>
      </trkpt>
      <trkpt lat="42.82606" lon="1.37913">
        <ele>1063</ele>
        <time>2025-09-27T09:53:54.000Z</time>
      </trkpt>
      <trkpt lat="42.82606" lon="1.37915">
        <ele>1064</ele>
        <time>2025-09-27T09:53:55.000Z</time>
      </trkpt>
      <trkpt lat="42.82606" lon="1.37918">
        <ele>1064</ele>
        <time>2025-09-27T09:53:56.000Z</time>
      </trkpt>
      <trkpt lat="42.82605" lon="1.3792">
        <ele>1064</ele>
        <time>2025-09-27T09:53:57.000Z</time>
      </trkpt>
      <trkpt lat="42.82604" lon="1.37921">
        <ele>1064</ele>
        <time>2025-09-27T09:53:58.000Z</time>
      </trkpt>
      <trkpt lat="42.82602" lon="1.37923">
        <ele>1064</ele>
        <time>2025-09-27T09:53:59.000Z</time>
      </trkpt>
      <trkpt lat="42.82601" lon="1.37924">
        <ele>1064</ele>
        <time>2025-09-27T09:54:00.000Z</time>
      </trkpt>
      <trkpt lat="42.82599" lon="1.37925">
        <ele>1064</ele>
        <time>2025-09-27T09:54:01.000Z</time>
      </trkpt>
      <trkpt lat="42.82597" lon="1.37927">
        <ele>1063</ele>
        <time>2025-09-27T09:54:02.000Z</time>
      </trkpt>
      <trkpt lat="42.82595" lon="1.37928">
        <ele>1063</ele>
        <time>2025-09-27T09:54:03.000Z</time>
      </trkpt>
      <trkpt lat="42.82594" lon="1.37929">
        <ele>1062</ele>
        <time>2025-09-27T09:54:04.000Z</time>
      </trkpt>
      <trkpt lat="42.82592" lon="1.3793">
        <ele>1063</ele>
        <time>2025-09-27T09:54:05.000Z</time>
      </trkpt>
      <trkpt lat="42.8259" lon="1.37932">
        <ele>1062</ele>
        <time>2025-09-27T09:54:06.000Z</time>
      </trkpt>
      <trkpt lat="42.82588" lon="1.37934">
        <ele>1063</ele>
        <time>2025-09-27T09:54:07.000Z</time>
      </trkpt>
      <trkpt lat="42.82586" lon="1.37936">
        <ele>1062</ele>
        <time>2025-09-27T09:54:08.000Z</time>
      </trkpt>
      <trkpt lat="42.82583" lon="1.37938">
        <ele>1062</ele>
        <time>2025-09-27T09:54:09.000Z</time>
      </trkpt>
      <trkpt lat="42.82581" lon="1.37939">
        <ele>1063</ele>
        <time>2025-09-27T09:54:10.000Z</time>
      </trkpt>
      <trkpt lat="42.82579" lon="1.37941">
        <ele>1062</ele>
        <time>2025-09-27T09:54:11.000Z</time>
      </trkpt>
      <trkpt lat="42.82577" lon="1.37942">
        <ele>1063</ele>
        <time>2025-09-27T09:54:12.000Z</time>
      </trkpt>
      <trkpt lat="42.82574" lon="1.37944">
        <ele>1063</ele>
        <time>2025-09-27T09:54:13.000Z</time>
      </trkpt>
      <trkpt lat="42.82572" lon="1.37945">
        <ele>1062</ele>
        <time>2025-09-27T09:54:14.000Z</time>
      </trkpt>
      <trkpt lat="42.8257" lon="1.37947">
        <ele>1063</ele>
        <time>2025-09-27T09:54:15.000Z</time>
      </trkpt>
      <trkpt lat="42.82568" lon="1.37949">
        <ele>1063</ele>
        <time>2025-09-27T09:54:16.000Z</time>
      </trkpt>
      <trkpt lat="42.82566" lon="1.3795">
        <ele>1063</ele>
        <time>2025-09-27T09:54:17.000Z</time>
      </trkpt>
      <trkpt lat="42.82564" lon="1.37952">
        <ele>1063</ele>
        <time>2025-09-27T09:54:18.000Z</time>
      </trkpt>
      <trkpt lat="42.82562" lon="1.37955">
        <ele>1063</ele>
        <time>2025-09-27T09:54:19.000Z</time>
      </trkpt>
      <trkpt lat="42.82561" lon="1.37957">
        <ele>1063</ele>
        <time>2025-09-27T09:54:20.000Z</time>
      </trkpt>
      <trkpt lat="42.82559" lon="1.37959">
        <ele>1063</ele>
        <time>2025-09-27T09:54:21.000Z</time>
      </trkpt>
      <trkpt lat="42.82557" lon="1.3796">
        <ele>1063</ele>
        <time>2025-09-27T09:54:22.000Z</time>
      </trkpt>
      <trkpt lat="42.82555" lon="1.37962">
        <ele>1063</ele>
        <time>2025-09-27T09:54:23.000Z</time>
      </trkpt>
      <trkpt lat="42.82553" lon="1.37963">
        <ele>1064</ele>
        <time>2025-09-27T09:54:24.000Z</time>
      </trkpt>
      <trkpt lat="42.82551" lon="1.37965">
        <ele>1064</ele>
        <time>2025-09-27T09:54:25.000Z</time>
      </trkpt>
      <trkpt lat="42.82549" lon="1.37966">
        <ele>1065</ele>
        <time>2025-09-27T09:54:26.000Z</time>
      </trkpt>
      <trkpt lat="42.82547" lon="1.37968">
        <ele>1065</ele>
        <time>2025-09-27T09:54:27.000Z</time>
      </trkpt>
      <trkpt lat="42.82545" lon="1.37969">
        <ele>1065</ele>
        <time>2025-09-27T09:54:28.000Z</time>
      </trkpt>
      <trkpt lat="42.82542" lon="1.3797">
        <ele>1065</ele>
        <time>2025-09-27T09:54:29.000Z</time>
      </trkpt>
      <trkpt lat="42.8254" lon="1.37972">
        <ele>1065</ele>
        <time>2025-09-27T09:54:30.000Z</time>
      </trkpt>
      <trkpt lat="42.82539" lon="1.37973">
        <ele>1065</ele>
        <time>2025-09-27T09:54:31.000Z</time>
      </trkpt>
      <trkpt lat="42.82536" lon="1.37975">
        <ele>1065</ele>
        <time>2025-09-27T09:54:32.000Z</time>
      </trkpt>
      <trkpt lat="42.82535" lon="1.37977">
        <ele>1066</ele>
        <time>2025-09-27T09:54:33.000Z</time>
      </trkpt>
      <trkpt lat="42.82533" lon="1.37978">
        <ele>1066</ele>
        <time>2025-09-27T09:54:34.000Z</time>
      </trkpt>
      <trkpt lat="42.82531" lon="1.3798">
        <ele>1066</ele>
        <time>2025-09-27T09:54:35.000Z</time>
      </trkpt>
      <trkpt lat="42.82529" lon="1.37981">
        <ele>1067</ele>
        <time>2025-09-27T09:54:36.000Z</time>
      </trkpt>
      <trkpt lat="42.82527" lon="1.37983">
        <ele>1066</ele>
        <time>2025-09-27T09:54:37.000Z</time>
      </trkpt>
      <trkpt lat="42.82526" lon="1.37986">
        <ele>1066</ele>
        <time>2025-09-27T09:54:38.000Z</time>
      </trkpt>
      <trkpt lat="42.82524" lon="1.37988">
        <ele>1067</ele>
        <time>2025-09-27T09:54:39.000Z</time>
      </trkpt>
      <trkpt lat="42.82522" lon="1.37989">
        <ele>1067</ele>
        <time>2025-09-27T09:54:40.000Z</time>
      </trkpt>
      <trkpt lat="42.82521" lon="1.37991">
        <ele>1067</ele>
        <time>2025-09-27T09:54:41.000Z</time>
      </trkpt>
      <trkpt lat="42.82519" lon="1.37993">
        <ele>1068</ele>
        <time>2025-09-27T09:54:42.000Z</time>
      </trkpt>
      <trkpt lat="42.82518" lon="1.37995">
        <ele>1068</ele>
        <time>2025-09-27T09:54:43.000Z</time>
      </trkpt>
      <trkpt lat="42.82516" lon="1.37997">
        <ele>1068</ele>
        <time>2025-09-27T09:54:44.000Z</time>
      </trkpt>
      <trkpt lat="42.82515" lon="1.37999">
        <ele>1069</ele>
        <time>2025-09-27T09:54:45.000Z</time>
      </trkpt>
      <trkpt lat="42.82513" lon="1.38001">
        <ele>1068</ele>
        <time>2025-09-27T09:54:46.000Z</time>
      </trkpt>
      <trkpt lat="42.82511" lon="1.38003">
        <ele>1068</ele>
        <time>2025-09-27T09:54:47.000Z</time>
      </trkpt>
      <trkpt lat="42.82509" lon="1.38004">
        <ele>1068</ele>
        <time>2025-09-27T09:54:48.000Z</time>
      </trkpt>
      <trkpt lat="42.82507" lon="1.38006">
        <ele>1068</ele>
        <time>2025-09-27T09:54:49.000Z</time>
      </trkpt>
      <trkpt lat="42.82505" lon="1.38008">
        <ele>1069</ele>
        <time>2025-09-27T09:54:50.000Z</time>
      </trkpt>
      <trkpt lat="42.82503" lon="1.3801">
        <ele>1068</ele>
        <time>2025-09-27T09:54:51.000Z</time>
      </trkpt>
      <trkpt lat="42.82501" lon="1.38012">
        <ele>1069</ele>
        <time>2025-09-27T09:54:52.000Z</time>
      </trkpt>
      <trkpt lat="42.82499" lon="1.38013">
        <ele>1069</ele>
        <time>2025-09-27T09:54:53.000Z</time>
      </trkpt>
      <trkpt lat="42.82497" lon="1.38015">
        <ele>1070</ele>
        <time>2025-09-27T09:54:54.000Z</time>
      </trkpt>
      <trkpt lat="42.82495" lon="1.38017">
        <ele>1070</ele>
        <time>2025-09-27T09:54:55.000Z</time>
      </trkpt>
      <trkpt lat="42.82493" lon="1.38019">
        <ele>1069</ele>
        <time>2025-09-27T09:54:56.000Z</time>
      </trkpt>
      <trkpt lat="42.82491" lon="1.3802">
        <ele>1070</ele>
        <time>2025-09-27T09:54:57.000Z</time>
      </trkpt>
      <trkpt lat="42.82489" lon="1.38022">
        <ele>1070</ele>
        <time>2025-09-27T09:54:58.000Z</time>
      </trkpt>
      <trkpt lat="42.82488" lon="1.38024">
        <ele>1070</ele>
        <time>2025-09-27T09:54:59.000Z</time>
      </trkpt>
      <trkpt lat="42.82486" lon="1.38026">
        <ele>1071</ele>
        <time>2025-09-27T09:55:00.000Z</time>
      </trkpt>
      <trkpt lat="42.82484" lon="1.38028">
        <ele>1071</ele>
        <time>2025-09-27T09:55:01.000Z</time>
      </trkpt>
      <trkpt lat="42.82482" lon="1.38029">
        <ele>1071</ele>
        <time>2025-09-27T09:55:02.000Z</time>
      </trkpt>
      <trkpt lat="42.82479" lon="1.38031">
        <ele>1072</ele>
        <time>2025-09-27T09:55:03.000Z</time>
      </trkpt>
      <trkpt lat="42.82477" lon="1.38033">
        <ele>1071</ele>
        <time>2025-09-27T09:55:04.000Z</time>
      </trkpt>
      <trkpt lat="42.82475" lon="1.38034">
        <ele>1072</ele>
        <time>2025-09-27T09:55:05.000Z</time>
      </trkpt>
      <trkpt lat="42.82473" lon="1.38035">
        <ele>1073</ele>
        <time>2025-09-27T09:55:06.000Z</time>
      </trkpt>
      <trkpt lat="42.82471" lon="1.38036">
        <ele>1073</ele>
        <time>2025-09-27T09:55:07.000Z</time>
      </trkpt>
      <trkpt lat="42.82469" lon="1.38038">
        <ele>1074</ele>
        <time>2025-09-27T09:55:08.000Z</time>
      </trkpt>
      <trkpt lat="42.82466" lon="1.38039">
        <ele>1074</ele>
        <time>2025-09-27T09:55:09.000Z</time>
      </trkpt>
      <trkpt lat="42.82464" lon="1.3804">
        <ele>1074</ele>
        <time>2025-09-27T09:55:10.000Z</time>
      </trkpt>
      <trkpt lat="42.82462" lon="1.38041">
        <ele>1074</ele>
        <time>2025-09-27T09:55:11.000Z</time>
      </trkpt>
      <trkpt lat="42.82461" lon="1.38042">
        <ele>1074</ele>
        <time>2025-09-27T09:55:12.000Z</time>
      </trkpt>
      <trkpt lat="42.82459" lon="1.38043">
        <ele>1074</ele>
        <time>2025-09-27T09:55:13.000Z</time>
      </trkpt>
      <trkpt lat="42.82459" lon="1.38043">
        <ele>1075</ele>
        <time>2025-09-27T09:55:14.000Z</time>
      </trkpt>
      <trkpt lat="42.82458" lon="1.38044">
        <ele>1076</ele>
        <time>2025-09-27T09:55:15.000Z</time>
      </trkpt>
      <trkpt lat="42.82458" lon="1.38044">
        <ele>1077</ele>
        <time>2025-09-27T09:55:16.000Z</time>
      </trkpt>
      <trkpt lat="42.82457" lon="1.38044">
        <ele>1076</ele>
        <time>2025-09-27T09:55:17.000Z</time>
      </trkpt>
      <trkpt lat="42.82457" lon="1.38044">
        <ele>1077</ele>
        <time>2025-09-27T09:55:18.000Z</time>
      </trkpt>
      <trkpt lat="42.82456" lon="1.38044">
        <ele>1077</ele>
        <time>2025-09-27T09:55:19.000Z</time>
      </trkpt>
      <trkpt lat="42.82455" lon="1.38043">
        <ele>1076</ele>
        <time>2025-09-27T09:55:20.000Z</time>
      </trkpt>
      <trkpt lat="42.82455" lon="1.38042">
        <ele>1076</ele>
        <time>2025-09-27T09:55:21.000Z</time>
      </trkpt>
      <trkpt lat="42.82454" lon="1.38041">
        <ele>1077</ele>
        <time>2025-09-27T09:55:22.000Z</time>
      </trkpt>
      <trkpt lat="42.8245" lon="1.38044">
        <ele>1075</ele>
        <time>2025-09-27T09:55:55.000Z</time>
      </trkpt>
      <trkpt lat="42.82448" lon="1.38044">
        <ele>1075</ele>
        <time>2025-09-27T09:55:56.000Z</time>
      </trkpt>
      <trkpt lat="42.82445" lon="1.38044">
        <ele>1075</ele>
        <time>2025-09-27T09:55:57.000Z</time>
      </trkpt>
      <trkpt lat="42.82441" lon="1.38044">
        <ele>1075</ele>
        <time>2025-09-27T09:55:58.000Z</time>
      </trkpt>
      <trkpt lat="42.82438" lon="1.38045">
        <ele>1075</ele>
        <time>2025-09-27T09:55:59.000Z</time>
      </trkpt>
      <trkpt lat="42.82434" lon="1.38047">
        <ele>1075</ele>
        <time>2025-09-27T09:56:00.000Z</time>
      </trkpt>
      <trkpt lat="42.82429" lon="1.38048">
        <ele>1075</ele>
        <time>2025-09-27T09:56:01.000Z</time>
      </trkpt>
      <trkpt lat="42.82424" lon="1.38049">
        <ele>1074</ele>
        <time>2025-09-27T09:56:02.000Z</time>
      </trkpt>
      <trkpt lat="42.82418" lon="1.38049">
        <ele>1074</ele>
        <time>2025-09-27T09:56:03.000Z</time>
      </trkpt>
      <trkpt lat="42.82413" lon="1.3805">
        <ele>1073</ele>
        <time>2025-09-27T09:56:04.000Z</time>
      </trkpt>
      <trkpt lat="42.82408" lon="1.38049">
        <ele>1071</ele>
        <time>2025-09-27T09:56:05.000Z</time>
      </trkpt>
      <trkpt lat="42.82403" lon="1.38048">
        <ele>1071</ele>
        <time>2025-09-27T09:56:06.000Z</time>
      </trkpt>
      <trkpt lat="42.82398" lon="1.38046">
        <ele>1072</ele>
        <time>2025-09-27T09:56:07.000Z</time>
      </trkpt>
      <trkpt lat="42.82395" lon="1.38046">
        <ele>1071</ele>
        <time>2025-09-27T09:56:08.000Z</time>
      </trkpt>
      <trkpt lat="42.82392" lon="1.38045">
        <ele>1071</ele>
        <time>2025-09-27T09:56:09.000Z</time>
      </trkpt>
      <trkpt lat="42.82388" lon="1.38045">
        <ele>1071</ele>
        <time>2025-09-27T09:56:10.000Z</time>
      </trkpt>
      <trkpt lat="42.82385" lon="1.38044">
        <ele>1070</ele>
        <time>2025-09-27T09:56:11.000Z</time>
      </trkpt>
      <trkpt lat="42.82382" lon="1.38043">
        <ele>1070</ele>
        <time>2025-09-27T09:56:12.000Z</time>
      </trkpt>
      <trkpt lat="42.8238" lon="1.38042">
        <ele>1070</ele>
        <time>2025-09-27T09:56:13.000Z</time>
      </trkpt>
      <trkpt lat="42.82379" lon="1.38041">
        <ele>1070</ele>
        <time>2025-09-27T09:56:14.000Z</time>
      </trkpt>
      <trkpt lat="42.82377" lon="1.38041">
        <ele>1070</ele>
        <time>2025-09-27T09:56:15.000Z</time>
      </trkpt>
      <trkpt lat="42.82375" lon="1.38041">
        <ele>1071</ele>
        <time>2025-09-27T09:56:16.000Z</time>
      </trkpt>
      <trkpt lat="42.82373" lon="1.38041">
        <ele>1071</ele>
        <time>2025-09-27T09:56:17.000Z</time>
      </trkpt>
      <trkpt lat="42.8237" lon="1.38042">
        <ele>1072</ele>
        <time>2025-09-27T09:56:18.000Z</time>
      </trkpt>
      <trkpt lat="42.82368" lon="1.38043">
        <ele>1072</ele>
        <time>2025-09-27T09:56:19.000Z</time>
      </trkpt>
      <trkpt lat="42.82365" lon="1.38045">
        <ele>1072</ele>
        <time>2025-09-27T09:56:20.000Z</time>
      </trkpt>
      <trkpt lat="42.82362" lon="1.38046">
        <ele>1072</ele>
        <time>2025-09-27T09:56:21.000Z</time>
      </trkpt>
      <trkpt lat="42.82358" lon="1.38046">
        <ele>1073</ele>
        <time>2025-09-27T09:56:22.000Z</time>
      </trkpt>
      <trkpt lat="42.82355" lon="1.38046">
        <ele>1073</ele>
        <time>2025-09-27T09:56:23.000Z</time>
      </trkpt>
      <trkpt lat="42.82351" lon="1.38046">
        <ele>1073</ele>
        <time>2025-09-27T09:56:24.000Z</time>
      </trkpt>
      <trkpt lat="42.82348" lon="1.38045">
        <ele>1073</ele>
        <time>2025-09-27T09:56:25.000Z</time>
      </trkpt>
      <trkpt lat="42.82345" lon="1.38044">
        <ele>1073</ele>
        <time>2025-09-27T09:56:26.000Z</time>
      </trkpt>
      <trkpt lat="42.82342" lon="1.38043">
        <ele>1073</ele>
        <time>2025-09-27T09:56:27.000Z</time>
      </trkpt>
      <trkpt lat="42.82338" lon="1.38041">
        <ele>1073</ele>
        <time>2025-09-27T09:56:28.000Z</time>
      </trkpt>
      <trkpt lat="42.82334" lon="1.38037">
        <ele>1072</ele>
        <time>2025-09-27T09:56:29.000Z</time>
      </trkpt>
      <trkpt lat="42.8233" lon="1.38034">
        <ele>1072</ele>
        <time>2025-09-27T09:56:30.000Z</time>
      </trkpt>
      <trkpt lat="42.82327" lon="1.38033">
        <ele>1073</ele>
        <time>2025-09-27T09:56:31.000Z</time>
      </trkpt>
      <trkpt lat="42.82324" lon="1.38032">
        <ele>1073</ele>
        <time>2025-09-27T09:56:32.000Z</time>
      </trkpt>
      <trkpt lat="42.8232" lon="1.3803">
        <ele>1072</ele>
        <time>2025-09-27T09:56:33.000Z</time>
      </trkpt>
      <trkpt lat="42.82317" lon="1.38028">
        <ele>1072</ele>
        <time>2025-09-27T09:56:34.000Z</time>
      </trkpt>
      <trkpt lat="42.82314" lon="1.38027">
        <ele>1073</ele>
        <time>2025-09-27T09:56:35.000Z</time>
      </trkpt>
      <trkpt lat="42.8231" lon="1.38025">
        <ele>1073</ele>
        <time>2025-09-27T09:56:36.000Z</time>
      </trkpt>
      <trkpt lat="42.82307" lon="1.38024">
        <ele>1073</ele>
        <time>2025-09-27T09:56:37.000Z</time>
      </trkpt>
      <trkpt lat="42.82304" lon="1.38022">
        <ele>1073</ele>
        <time>2025-09-27T09:56:38.000Z</time>
      </trkpt>
      <trkpt lat="42.82301" lon="1.38019">
        <ele>1073</ele>
        <time>2025-09-27T09:56:39.000Z</time>
      </trkpt>
      <trkpt lat="42.82298" lon="1.38017">
        <ele>1073</ele>
        <time>2025-09-27T09:56:40.000Z</time>
      </trkpt>
      <trkpt lat="42.82295" lon="1.38015">
        <ele>1072</ele>
        <time>2025-09-27T09:56:41.000Z</time>
      </trkpt>
      <trkpt lat="42.82292" lon="1.38012">
        <ele>1072</ele>
        <time>2025-09-27T09:56:42.000Z</time>
      </trkpt>
      <trkpt lat="42.82289" lon="1.3801">
        <ele>1072</ele>
        <time>2025-09-27T09:56:43.000Z</time>
      </trkpt>
      <trkpt lat="42.82286" lon="1.38008">
        <ele>1073</ele>
        <time>2025-09-27T09:56:44.000Z</time>
      </trkpt>
      <trkpt lat="42.82283" lon="1.38007">
        <ele>1072</ele>
        <time>2025-09-27T09:56:45.000Z</time>
      </trkpt>
      <trkpt lat="42.82279" lon="1.38005">
        <ele>1073</ele>
        <time>2025-09-27T09:56:46.000Z</time>
      </trkpt>
      <trkpt lat="42.82276" lon="1.38003">
        <ele>1073</ele>
        <time>2025-09-27T09:56:47.000Z</time>
      </trkpt>
      <trkpt lat="42.82272" lon="1.38001">
        <ele>1073</ele>
        <time>2025-09-27T09:56:48.000Z</time>
      </trkpt>
      <trkpt lat="42.82269" lon="1.38">
        <ele>1073</ele>
        <time>2025-09-27T09:56:49.000Z</time>
      </trkpt>
      <trkpt lat="42.82266" lon="1.37999">
        <ele>1074</ele>
        <time>2025-09-27T09:56:50.000Z</time>
      </trkpt>
      <trkpt lat="42.82263" lon="1.37999">
        <ele>1074</ele>
        <time>2025-09-27T09:56:51.000Z</time>
      </trkpt>
      <trkpt lat="42.8226" lon="1.37999">
        <ele>1074</ele>
        <time>2025-09-27T09:56:52.000Z</time>
      </trkpt>
      <trkpt lat="42.82257" lon="1.37999">
        <ele>1074</ele>
        <time>2025-09-27T09:56:53.000Z</time>
      </trkpt>
      <trkpt lat="42.82253" lon="1.37999">
        <ele>1074</ele>
        <time>2025-09-27T09:56:54.000Z</time>
      </trkpt>
      <trkpt lat="42.8225" lon="1.37999">
        <ele>1074</ele>
        <time>2025-09-27T09:56:55.000Z</time>
      </trkpt>
      <trkpt lat="42.82247" lon="1.37999">
        <ele>1075</ele>
        <time>2025-09-27T09:56:56.000Z</time>
      </trkpt>
      <trkpt lat="42.82245" lon="1.37999">
        <ele>1075</ele>
        <time>2025-09-27T09:56:57.000Z</time>
      </trkpt>
      <trkpt lat="42.82242" lon="1.38">
        <ele>1075</ele>
        <time>2025-09-27T09:56:58.000Z</time>
      </trkpt>
      <trkpt lat="42.82239" lon="1.38">
        <ele>1075</ele>
        <time>2025-09-27T09:56:59.000Z</time>
      </trkpt>
      <trkpt lat="42.82236" lon="1.37998">
        <ele>1074</ele>
        <time>2025-09-27T09:57:00.000Z</time>
      </trkpt>
      <trkpt lat="42.82232" lon="1.37997">
        <ele>1074</ele>
        <time>2025-09-27T09:57:01.000Z</time>
      </trkpt>
      <trkpt lat="42.82229" lon="1.37995">
        <ele>1074</ele>
        <time>2025-09-27T09:57:02.000Z</time>
      </trkpt>
      <trkpt lat="42.82227" lon="1.37993">
        <ele>1074</ele>
        <time>2025-09-27T09:57:03.000Z</time>
      </trkpt>
      <trkpt lat="42.82224" lon="1.37992">
        <ele>1074</ele>
        <time>2025-09-27T09:57:04.000Z</time>
      </trkpt>
      <trkpt lat="42.82221" lon="1.37991">
        <ele>1074</ele>
        <time>2025-09-27T09:57:05.000Z</time>
      </trkpt>
      <trkpt lat="42.82218" lon="1.37991">
        <ele>1075</ele>
        <time>2025-09-27T09:57:06.000Z</time>
      </trkpt>
      <trkpt lat="42.82215" lon="1.37991">
        <ele>1075</ele>
        <time>2025-09-27T09:57:07.000Z</time>
      </trkpt>
      <trkpt lat="42.82212" lon="1.37991">
        <ele>1075</ele>
        <time>2025-09-27T09:57:08.000Z</time>
      </trkpt>
      <trkpt lat="42.82209" lon="1.3799">
        <ele>1075</ele>
        <time>2025-09-27T09:57:09.000Z</time>
      </trkpt>
      <trkpt lat="42.82206" lon="1.3799">
        <ele>1075</ele>
        <time>2025-09-27T09:57:10.000Z</time>
      </trkpt>
      <trkpt lat="42.82203" lon="1.3799">
        <ele>1075</ele>
        <time>2025-09-27T09:57:11.000Z</time>
      </trkpt>
      <trkpt lat="42.822" lon="1.37989">
        <ele>1075</ele>
        <time>2025-09-27T09:57:12.000Z</time>
      </trkpt>
      <trkpt lat="42.82197" lon="1.37989">
        <ele>1076</ele>
        <time>2025-09-27T09:57:13.000Z</time>
      </trkpt>
      <trkpt lat="42.82194" lon="1.37989">
        <ele>1076</ele>
        <time>2025-09-27T09:57:14.000Z</time>
      </trkpt>
      <trkpt lat="42.82191" lon="1.37988">
        <ele>1077</ele>
        <time>2025-09-27T09:57:15.000Z</time>
      </trkpt>
      <trkpt lat="42.82188" lon="1.37989">
        <ele>1077</ele>
        <time>2025-09-27T09:57:16.000Z</time>
      </trkpt>
      <trkpt lat="42.82185" lon="1.3799">
        <ele>1078</ele>
        <time>2025-09-27T09:57:17.000Z</time>
      </trkpt>
      <trkpt lat="42.82183" lon="1.3799">
        <ele>1078</ele>
        <time>2025-09-27T09:57:18.000Z</time>
      </trkpt>
      <trkpt lat="42.8218" lon="1.3799">
        <ele>1078</ele>
        <time>2025-09-27T09:57:19.000Z</time>
      </trkpt>
      <trkpt lat="42.82177" lon="1.37991">
        <ele>1078</ele>
        <time>2025-09-27T09:57:20.000Z</time>
      </trkpt>
      <trkpt lat="42.82175" lon="1.37991">
        <ele>1078</ele>
        <time>2025-09-27T09:57:21.000Z</time>
      </trkpt>
      <trkpt lat="42.82172" lon="1.37992">
        <ele>1078</ele>
        <time>2025-09-27T09:57:22.000Z</time>
      </trkpt>
      <trkpt lat="42.82169" lon="1.37992">
        <ele>1078</ele>
        <time>2025-09-27T09:57:23.000Z</time>
      </trkpt>
      <trkpt lat="42.82166" lon="1.37992">
        <ele>1078</ele>
        <time>2025-09-27T09:57:24.000Z</time>
      </trkpt>
      <trkpt lat="42.82163" lon="1.37992">
        <ele>1079</ele>
        <time>2025-09-27T09:57:25.000Z</time>
      </trkpt>
      <trkpt lat="42.8216" lon="1.37993">
        <ele>1079</ele>
        <time>2025-09-27T09:57:26.000Z</time>
      </trkpt>
      <trkpt lat="42.82157" lon="1.37994">
        <ele>1079</ele>
        <time>2025-09-27T09:57:27.000Z</time>
      </trkpt>
      <trkpt lat="42.82154" lon="1.37994">
        <ele>1079</ele>
        <time>2025-09-27T09:57:28.000Z</time>
      </trkpt>
      <trkpt lat="42.82151" lon="1.37995">
        <ele>1079</ele>
        <time>2025-09-27T09:57:29.000Z</time>
      </trkpt>
      <trkpt lat="42.82149" lon="1.37997">
        <ele>1079</ele>
        <time>2025-09-27T09:57:30.000Z</time>
      </trkpt>
      <trkpt lat="42.82146" lon="1.37998">
        <ele>1079</ele>
        <time>2025-09-27T09:57:31.000Z</time>
      </trkpt>
      <trkpt lat="42.82144" lon="1.37999">
        <ele>1079</ele>
        <time>2025-09-27T09:57:32.000Z</time>
      </trkpt>
      <trkpt lat="42.82141" lon="1.38">
        <ele>1079</ele>
        <time>2025-09-27T09:57:33.000Z</time>
      </trkpt>
      <trkpt lat="42.82138" lon="1.38">
        <ele>1079</ele>
        <time>2025-09-27T09:57:34.000Z</time>
      </trkpt>
      <trkpt lat="42.82136" lon="1.38">
        <ele>1080</ele>
        <time>2025-09-27T09:57:35.000Z</time>
      </trkpt>
      <trkpt lat="42.82133" lon="1.38">
        <ele>1080</ele>
        <time>2025-09-27T09:57:36.000Z</time>
      </trkpt>
      <trkpt lat="42.8213" lon="1.38">
        <ele>1080</ele>
        <time>2025-09-27T09:57:37.000Z</time>
      </trkpt>
      <trkpt lat="42.82127" lon="1.38">
        <ele>1080</ele>
        <time>2025-09-27T09:57:38.000Z</time>
      </trkpt>
      <trkpt lat="42.82124" lon="1.38002">
        <ele>1080</ele>
        <time>2025-09-27T09:57:39.000Z</time>
      </trkpt>
      <trkpt lat="42.82122" lon="1.38003">
        <ele>1080</ele>
        <time>2025-09-27T09:57:40.000Z</time>
      </trkpt>
      <trkpt lat="42.82119" lon="1.38004">
        <ele>1079</ele>
        <time>2025-09-27T09:57:41.000Z</time>
      </trkpt>
      <trkpt lat="42.82116" lon="1.38004">
        <ele>1080</ele>
        <time>2025-09-27T09:57:42.000Z</time>
      </trkpt>
      <trkpt lat="42.82113" lon="1.38005">
        <ele>1080</ele>
        <time>2025-09-27T09:57:43.000Z</time>
      </trkpt>
      <trkpt lat="42.82111" lon="1.38005">
        <ele>1080</ele>
        <time>2025-09-27T09:57:44.000Z</time>
      </trkpt>
      <trkpt lat="42.82108" lon="1.38005">
        <ele>1081</ele>
        <time>2025-09-27T09:57:45.000Z</time>
      </trkpt>
      <trkpt lat="42.82106" lon="1.38004">
        <ele>1081</ele>
        <time>2025-09-27T09:57:46.000Z</time>
      </trkpt>
      <trkpt lat="42.82104" lon="1.38003">
        <ele>1081</ele>
        <time>2025-09-27T09:57:47.000Z</time>
      </trkpt>
      <trkpt lat="42.82103" lon="1.38001">
        <ele>1080</ele>
        <time>2025-09-27T09:57:48.000Z</time>
      </trkpt>
      <trkpt lat="42.821" lon="1.38">
        <ele>1080</ele>
        <time>2025-09-27T09:57:49.000Z</time>
      </trkpt>
      <trkpt lat="42.82098" lon="1.38">
        <ele>1080</ele>
        <time>2025-09-27T09:57:50.000Z</time>
      </trkpt>
      <trkpt lat="42.82096" lon="1.37999">
        <ele>1081</ele>
        <time>2025-09-27T09:57:51.000Z</time>
      </trkpt>
      <trkpt lat="42.82093" lon="1.37999">
        <ele>1081</ele>
        <time>2025-09-27T09:57:52.000Z</time>
      </trkpt>
      <trkpt lat="42.8209" lon="1.37999">
        <ele>1081</ele>
        <time>2025-09-27T09:57:53.000Z</time>
      </trkpt>
      <trkpt lat="42.82087" lon="1.37997">
        <ele>1080</ele>
        <time>2025-09-27T09:57:54.000Z</time>
      </trkpt>
      <trkpt lat="42.82084" lon="1.37996">
        <ele>1080</ele>
        <time>2025-09-27T09:57:55.000Z</time>
      </trkpt>
      <trkpt lat="42.82081" lon="1.37995">
        <ele>1080</ele>
        <time>2025-09-27T09:57:56.000Z</time>
      </trkpt>
      <trkpt lat="42.82078" lon="1.37995">
        <ele>1080</ele>
        <time>2025-09-27T09:57:57.000Z</time>
      </trkpt>
      <trkpt lat="42.82075" lon="1.37995">
        <ele>1081</ele>
        <time>2025-09-27T09:57:58.000Z</time>
      </trkpt>
      <trkpt lat="42.82072" lon="1.37995">
        <ele>1081</ele>
        <time>2025-09-27T09:57:59.000Z</time>
      </trkpt>
      <trkpt lat="42.8207" lon="1.37995">
        <ele>1081</ele>
        <time>2025-09-27T09:58:00.000Z</time>
      </trkpt>
      <trkpt lat="42.82067" lon="1.37994">
        <ele>1082</ele>
        <time>2025-09-27T09:58:01.000Z</time>
      </trkpt>
      <trkpt lat="42.82065" lon="1.37993">
        <ele>1082</ele>
        <time>2025-09-27T09:58:02.000Z</time>
      </trkpt>
      <trkpt lat="42.82062" lon="1.37992">
        <ele>1082</ele>
        <time>2025-09-27T09:58:03.000Z</time>
      </trkpt>
      <trkpt lat="42.82059" lon="1.37992">
        <ele>1083</ele>
        <time>2025-09-27T09:58:04.000Z</time>
      </trkpt>
      <trkpt lat="42.82056" lon="1.37991">
        <ele>1084</ele>
        <time>2025-09-27T09:58:05.000Z</time>
      </trkpt>
      <trkpt lat="42.82054" lon="1.3799">
        <ele>1084</ele>
        <time>2025-09-27T09:58:06.000Z</time>
      </trkpt>
      <trkpt lat="42.82051" lon="1.3799">
        <ele>1084</ele>
        <time>2025-09-27T09:58:07.000Z</time>
      </trkpt>
      <trkpt lat="42.82049" lon="1.37988">
        <ele>1085</ele>
        <time>2025-09-27T09:58:08.000Z</time>
      </trkpt>
      <trkpt lat="42.82046" lon="1.37987">
        <ele>1085</ele>
        <time>2025-09-27T09:58:09.000Z</time>
      </trkpt>
      <trkpt lat="42.82044" lon="1.37986">
        <ele>1085</ele>
        <time>2025-09-27T09:58:10.000Z</time>
      </trkpt>
      <trkpt lat="42.82041" lon="1.37985">
        <ele>1085</ele>
        <time>2025-09-27T09:58:11.000Z</time>
      </trkpt>
      <trkpt lat="42.82039" lon="1.37985">
        <ele>1087</ele>
        <time>2025-09-27T09:58:12.000Z</time>
      </trkpt>
      <trkpt lat="42.82036" lon="1.37985">
        <ele>1088</ele>
        <time>2025-09-27T09:58:13.000Z</time>
      </trkpt>
      <trkpt lat="42.82034" lon="1.37986">
        <ele>1088</ele>
        <time>2025-09-27T09:58:14.000Z</time>
      </trkpt>
      <trkpt lat="42.82031" lon="1.37987">
        <ele>1088</ele>
        <time>2025-09-27T09:58:15.000Z</time>
      </trkpt>
      <trkpt lat="42.82028" lon="1.37986">
        <ele>1088</ele>
        <time>2025-09-27T09:58:16.000Z</time>
      </trkpt>
      <trkpt lat="42.82026" lon="1.37987">
        <ele>1088</ele>
        <time>2025-09-27T09:58:17.000Z</time>
      </trkpt>
      <trkpt lat="42.82024" lon="1.37987">
        <ele>1088</ele>
        <time>2025-09-27T09:58:18.000Z</time>
      </trkpt>
      <trkpt lat="42.82022" lon="1.37987">
        <ele>1089</ele>
        <time>2025-09-27T09:58:19.000Z</time>
      </trkpt>
      <trkpt lat="42.82019" lon="1.37985">
        <ele>1089</ele>
        <time>2025-09-27T09:58:20.000Z</time>
      </trkpt>
      <trkpt lat="42.82017" lon="1.37984">
        <ele>1089</ele>
        <time>2025-09-27T09:58:21.000Z</time>
      </trkpt>
      <trkpt lat="42.82015" lon="1.37983">
        <ele>1089</ele>
        <time>2025-09-27T09:58:22.000Z</time>
      </trkpt>
      <trkpt lat="42.82013" lon="1.37982">
        <ele>1090</ele>
        <time>2025-09-27T09:58:23.000Z</time>
      </trkpt>
      <trkpt lat="42.82011" lon="1.37982">
        <ele>1090</ele>
        <time>2025-09-27T09:58:24.000Z</time>
      </trkpt>
      <trkpt lat="42.82008" lon="1.37984">
        <ele>1090</ele>
        <time>2025-09-27T09:58:25.000Z</time>
      </trkpt>
      <trkpt lat="42.82006" lon="1.37985">
        <ele>1089</ele>
        <time>2025-09-27T09:58:26.000Z</time>
      </trkpt>
      <trkpt lat="42.82004" lon="1.37986">
        <ele>1090</ele>
        <time>2025-09-27T09:58:27.000Z</time>
      </trkpt>
      <trkpt lat="42.82002" lon="1.37986">
        <ele>1090</ele>
        <time>2025-09-27T09:58:28.000Z</time>
      </trkpt>
      <trkpt lat="42.82" lon="1.37986">
        <ele>1089</ele>
        <time>2025-09-27T09:58:29.000Z</time>
      </trkpt>
      <trkpt lat="42.81998" lon="1.37988">
        <ele>1089</ele>
        <time>2025-09-27T09:58:30.000Z</time>
      </trkpt>
      <trkpt lat="42.81996" lon="1.3799">
        <ele>1088</ele>
        <time>2025-09-27T09:58:31.000Z</time>
      </trkpt>
      <trkpt lat="42.81994" lon="1.37992">
        <ele>1089</ele>
        <time>2025-09-27T09:58:32.000Z</time>
      </trkpt>
      <trkpt lat="42.81992" lon="1.37993">
        <ele>1089</ele>
        <time>2025-09-27T09:58:33.000Z</time>
      </trkpt>
      <trkpt lat="42.8199" lon="1.37994">
        <ele>1089</ele>
        <time>2025-09-27T09:58:34.000Z</time>
      </trkpt>
      <trkpt lat="42.81988" lon="1.37994">
        <ele>1089</ele>
        <time>2025-09-27T09:58:35.000Z</time>
      </trkpt>
      <trkpt lat="42.81986" lon="1.37994">
        <ele>1088</ele>
        <time>2025-09-27T09:58:36.000Z</time>
      </trkpt>
      <trkpt lat="42.81984" lon="1.37994">
        <ele>1088</ele>
        <time>2025-09-27T09:58:37.000Z</time>
      </trkpt>
      <trkpt lat="42.81982" lon="1.37994">
        <ele>1089</ele>
        <time>2025-09-27T09:58:38.000Z</time>
      </trkpt>
      <trkpt lat="42.8198" lon="1.37993">
        <ele>1090</ele>
        <time>2025-09-27T09:58:39.000Z</time>
      </trkpt>
      <trkpt lat="42.81979" lon="1.37992">
        <ele>1090</ele>
        <time>2025-09-27T09:58:40.000Z</time>
      </trkpt>
      <trkpt lat="42.81976" lon="1.37991">
        <ele>1090</ele>
        <time>2025-09-27T09:58:41.000Z</time>
      </trkpt>
      <trkpt lat="42.81974" lon="1.37991">
        <ele>1090</ele>
        <time>2025-09-27T09:58:42.000Z</time>
      </trkpt>
      <trkpt lat="42.81972" lon="1.3799">
        <ele>1090</ele>
        <time>2025-09-27T09:58:43.000Z</time>
      </trkpt>
      <trkpt lat="42.8197" lon="1.37991">
        <ele>1090</ele>
        <time>2025-09-27T09:58:44.000Z</time>
      </trkpt>
      <trkpt lat="42.81969" lon="1.37991">
        <ele>1090</ele>
        <time>2025-09-27T09:58:45.000Z</time>
      </trkpt>
      <trkpt lat="42.81968" lon="1.37991">
        <ele>1090</ele>
        <time>2025-09-27T09:58:46.000Z</time>
      </trkpt>
      <trkpt lat="42.81966" lon="1.3799">
        <ele>1090</ele>
        <time>2025-09-27T09:58:47.000Z</time>
      </trkpt>
      <trkpt lat="42.81964" lon="1.37989">
        <ele>1090</ele>
        <time>2025-09-27T09:58:48.000Z</time>
      </trkpt>
      <trkpt lat="42.81962" lon="1.37989">
        <ele>1090</ele>
        <time>2025-09-27T09:58:49.000Z</time>
      </trkpt>
      <trkpt lat="42.81961" lon="1.37988">
        <ele>1091</ele>
        <time>2025-09-27T09:58:50.000Z</time>
      </trkpt>
      <trkpt lat="42.8196" lon="1.37987">
        <ele>1091</ele>
        <time>2025-09-27T09:58:51.000Z</time>
      </trkpt>
      <trkpt lat="42.81959" lon="1.37987">
        <ele>1091</ele>
        <time>2025-09-27T09:58:52.000Z</time>
      </trkpt>
      <trkpt lat="42.81959" lon="1.37986">
        <ele>1092</ele>
        <time>2025-09-27T09:58:53.000Z</time>
      </trkpt>
      <trkpt lat="42.81951" lon="1.37992">
        <ele>1089</ele>
        <time>2025-09-27T09:59:06.000Z</time>
      </trkpt>
      <trkpt lat="42.81948" lon="1.37993">
        <ele>1089</ele>
        <time>2025-09-27T09:59:07.000Z</time>
      </trkpt>
      <trkpt lat="42.81947" lon="1.37994">
        <ele>1089</ele>
        <time>2025-09-27T09:59:08.000Z</time>
      </trkpt>
      <trkpt lat="42.81944" lon="1.37994">
        <ele>1089</ele>
        <time>2025-09-27T09:59:09.000Z</time>
      </trkpt>
      <trkpt lat="42.81943" lon="1.37995">
        <ele>1089</ele>
        <time>2025-09-27T09:59:10.000Z</time>
      </trkpt>
      <trkpt lat="42.81941" lon="1.37996">
        <ele>1089</ele>
        <time>2025-09-27T09:59:11.000Z</time>
      </trkpt>
      <trkpt lat="42.8194" lon="1.37997">
        <ele>1089</ele>
        <time>2025-09-27T09:59:12.000Z</time>
      </trkpt>
      <trkpt lat="42.81938" lon="1.37997">
        <ele>1090</ele>
        <time>2025-09-27T09:59:13.000Z</time>
      </trkpt>
      <trkpt lat="42.81937" lon="1.37997">
        <ele>1090</ele>
        <time>2025-09-27T09:59:14.000Z</time>
      </trkpt>
      <trkpt lat="42.81935" lon="1.37997">
        <ele>1090</ele>
        <time>2025-09-27T09:59:15.000Z</time>
      </trkpt>
      <trkpt lat="42.81934" lon="1.37997">
        <ele>1090</ele>
        <time>2025-09-27T09:59:16.000Z</time>
      </trkpt>
      <trkpt lat="42.81933" lon="1.37998">
        <ele>1090</ele>
        <time>2025-09-27T09:59:17.000Z</time>
      </trkpt>
      <trkpt lat="42.81934" lon="1.37997">
        <ele>1090</ele>
        <time>2025-09-27T09:59:18.000Z</time>
      </trkpt>
      <trkpt lat="42.81933" lon="1.37996">
        <ele>1090</ele>
        <time>2025-09-27T09:59:19.000Z</time>
      </trkpt>
      <trkpt lat="42.81933" lon="1.37996">
        <ele>1090</ele>
        <time>2025-09-27T09:59:20.000Z</time>
      </trkpt>
      <trkpt lat="42.81932" lon="1.37996">
        <ele>1090</ele>
        <time>2025-09-27T09:59:21.000Z</time>
      </trkpt>
      <trkpt lat="42.81932" lon="1.37996">
        <ele>1090</ele>
        <time>2025-09-27T09:59:22.000Z</time>
      </trkpt>
      <trkpt lat="42.81932" lon="1.37996">
        <ele>1091</ele>
        <time>2025-09-27T09:59:23.000Z</time>
      </trkpt>
      <trkpt lat="42.81931" lon="1.37995">
        <ele>1090</ele>
        <time>2025-09-27T09:59:24.000Z</time>
      </trkpt>
      <trkpt lat="42.81931" lon="1.37994">
        <ele>1091</ele>
        <time>2025-09-27T09:59:25.000Z</time>
      </trkpt>
      <trkpt lat="42.8193" lon="1.37993">
        <ele>1091</ele>
        <time>2025-09-27T09:59:26.000Z</time>
      </trkpt>
      <trkpt lat="42.81929" lon="1.37992">
        <ele>1091</ele>
        <time>2025-09-27T09:59:27.000Z</time>
      </trkpt>
      <trkpt lat="42.81928" lon="1.37991">
        <ele>1091</ele>
        <time>2025-09-27T09:59:28.000Z</time>
      </trkpt>
      <trkpt lat="42.81927" lon="1.37991">
        <ele>1091</ele>
        <time>2025-09-27T09:59:29.000Z</time>
      </trkpt>
      <trkpt lat="42.81926" lon="1.3799">
        <ele>1091</ele>
        <time>2025-09-27T09:59:30.000Z</time>
      </trkpt>
      <trkpt lat="42.81924" lon="1.37989">
        <ele>1091</ele>
        <time>2025-09-27T09:59:31.000Z</time>
      </trkpt>
      <trkpt lat="42.81923" lon="1.37988">
        <ele>1091</ele>
        <time>2025-09-27T09:59:32.000Z</time>
      </trkpt>
      <trkpt lat="42.81921" lon="1.37987">
        <ele>1092</ele>
        <time>2025-09-27T09:59:33.000Z</time>
      </trkpt>
      <trkpt lat="42.81919" lon="1.37985">
        <ele>1093</ele>
        <time>2025-09-27T09:59:34.000Z</time>
      </trkpt>
      <trkpt lat="42.81918" lon="1.37985">
        <ele>1093</ele>
        <time>2025-09-27T09:59:35.000Z</time>
      </trkpt>
      <trkpt lat="42.81918" lon="1.37984">
        <ele>1094</ele>
        <time>2025-09-27T09:59:36.000Z</time>
      </trkpt>
      <trkpt lat="42.81919" lon="1.37981">
        <ele>1096</ele>
        <time>2025-09-27T09:59:58.000Z</time>
      </trkpt>
      <trkpt lat="42.8192" lon="1.37983">
        <ele>1095</ele>
        <time>2025-09-27T09:59:59.000Z</time>
      </trkpt>
      <trkpt lat="42.81921" lon="1.37983">
        <ele>1095</ele>
        <time>2025-09-27T10:00:00.000Z</time>
      </trkpt>
      <trkpt lat="42.81922" lon="1.37984">
        <ele>1095</ele>
        <time>2025-09-27T10:00:01.000Z</time>
      </trkpt>
      <trkpt lat="42.81923" lon="1.37984">
        <ele>1096</ele>
        <time>2025-09-27T10:00:02.000Z</time>
      </trkpt>
      <trkpt lat="42.81924" lon="1.37985">
        <ele>1096</ele>
        <time>2025-09-27T10:00:03.000Z</time>
      </trkpt>
      <trkpt lat="42.81924" lon="1.37985">
        <ele>1095</ele>
        <time>2025-09-27T10:00:04.000Z</time>
      </trkpt>
      <trkpt lat="42.81924" lon="1.37986">
        <ele>1095</ele>
        <time>2025-09-27T10:00:05.000Z</time>
      </trkpt>
      <trkpt lat="42.81925" lon="1.37986">
        <ele>1095</ele>
        <time>2025-09-27T10:00:06.000Z</time>
      </trkpt>
      <trkpt lat="42.81925" lon="1.37987">
        <ele>1095</ele>
        <time>2025-09-27T10:00:07.000Z</time>
      </trkpt>
      <trkpt lat="42.81926" lon="1.37988">
        <ele>1095</ele>
        <time>2025-09-27T10:00:08.000Z</time>
      </trkpt>
      <trkpt lat="42.81927" lon="1.37988">
        <ele>1095</ele>
        <time>2025-09-27T10:00:09.000Z</time>
      </trkpt>
      <trkpt lat="42.81928" lon="1.37989">
        <ele>1096</ele>
        <time>2025-09-27T10:00:10.000Z</time>
      </trkpt>
      <trkpt lat="42.81928" lon="1.3799">
        <ele>1095</ele>
        <time>2025-09-27T10:00:11.000Z</time>
      </trkpt>
      <trkpt lat="42.81929" lon="1.37991">
        <ele>1095</ele>
        <time>2025-09-27T10:00:12.000Z</time>
      </trkpt>
      <trkpt lat="42.81929" lon="1.37992">
        <ele>1095</ele>
        <time>2025-09-27T10:00:13.000Z</time>
      </trkpt>
      <trkpt lat="42.81931" lon="1.37994">
        <ele>1095</ele>
        <time>2025-09-27T10:00:14.000Z</time>
      </trkpt>
      <trkpt lat="42.81932" lon="1.37994">
        <ele>1095</ele>
        <time>2025-09-27T10:00:15.000Z</time>
      </trkpt>
      <trkpt lat="42.81934" lon="1.37995">
        <ele>1096</ele>
        <time>2025-09-27T10:00:16.000Z</time>
      </trkpt>
      <trkpt lat="42.81936" lon="1.37995">
        <ele>1096</ele>
        <time>2025-09-27T10:00:17.000Z</time>
      </trkpt>
      <trkpt lat="42.81937" lon="1.37995">
        <ele>1096</ele>
        <time>2025-09-27T10:00:18.000Z</time>
      </trkpt>
      <trkpt lat="42.81939" lon="1.37994">
        <ele>1096</ele>
        <time>2025-09-27T10:00:19.000Z</time>
      </trkpt>
      <trkpt lat="42.81942" lon="1.37993">
        <ele>1096</ele>
        <time>2025-09-27T10:00:20.000Z</time>
      </trkpt>
      <trkpt lat="42.81944" lon="1.3799">
        <ele>1095</ele>
        <time>2025-09-27T10:00:21.000Z</time>
      </trkpt>
      <trkpt lat="42.81947" lon="1.37988">
        <ele>1096</ele>
        <time>2025-09-27T10:00:22.000Z</time>
      </trkpt>
      <trkpt lat="42.81949" lon="1.37987">
        <ele>1096</ele>
        <time>2025-09-27T10:00:23.000Z</time>
      </trkpt>
      <trkpt lat="42.81952" lon="1.37987">
        <ele>1095</ele>
        <time>2025-09-27T10:00:24.000Z</time>
      </trkpt>
      <trkpt lat="42.81954" lon="1.37986">
        <ele>1095</ele>
        <time>2025-09-27T10:00:25.000Z</time>
      </trkpt>
      <trkpt lat="42.81956" lon="1.37985">
        <ele>1095</ele>
        <time>2025-09-27T10:00:26.000Z</time>
      </trkpt>
      <trkpt lat="42.81956" lon="1.37985">
        <ele>1095</ele>
        <time>2025-09-27T10:00:27.000Z</time>
      </trkpt>
      <trkpt lat="42.81957" lon="1.37984">
        <ele>1095</ele>
        <time>2025-09-27T10:00:28.000Z</time>
      </trkpt>
      <trkpt lat="42.81957" lon="1.37984">
        <ele>1094</ele>
        <time>2025-09-27T10:00:29.000Z</time>
      </trkpt>
      <trkpt lat="42.81957" lon="1.37984">
        <ele>1094</ele>
        <time>2025-09-27T10:00:30.000Z</time>
      </trkpt>
      <trkpt lat="42.81958" lon="1.37984">
        <ele>1094</ele>
        <time>2025-09-27T10:00:31.000Z</time>
      </trkpt>
      <trkpt lat="42.81959" lon="1.37984">
        <ele>1093</ele>
        <time>2025-09-27T10:00:32.000Z</time>
      </trkpt>
      <trkpt lat="42.81959" lon="1.37984">
        <ele>1094</ele>
        <time>2025-09-27T10:00:33.000Z</time>
      </trkpt>
      <trkpt lat="42.81959" lon="1.37985">
        <ele>1093</ele>
        <time>2025-09-27T10:00:34.000Z</time>
      </trkpt>
      <trkpt lat="42.81961" lon="1.37987">
        <ele>1093</ele>
        <time>2025-09-27T10:00:35.000Z</time>
      </trkpt>
      <trkpt lat="42.81962" lon="1.37989">
        <ele>1093</ele>
        <time>2025-09-27T10:00:36.000Z</time>
      </trkpt>
      <trkpt lat="42.81964" lon="1.3799">
        <ele>1093</ele>
        <time>2025-09-27T10:00:37.000Z</time>
      </trkpt>
      <trkpt lat="42.81966" lon="1.37991">
        <ele>1093</ele>
        <time>2025-09-27T10:00:38.000Z</time>
      </trkpt>
      <trkpt lat="42.81968" lon="1.37992">
        <ele>1093</ele>
        <time>2025-09-27T10:00:39.000Z</time>
      </trkpt>
      <trkpt lat="42.81971" lon="1.37993">
        <ele>1093</ele>
        <time>2025-09-27T10:00:40.000Z</time>
      </trkpt>
      <trkpt lat="42.81974" lon="1.37993">
        <ele>1092</ele>
        <time>2025-09-27T10:00:41.000Z</time>
      </trkpt>
      <trkpt lat="42.81978" lon="1.37994">
        <ele>1092</ele>
        <time>2025-09-27T10:00:42.000Z</time>
      </trkpt>
      <trkpt lat="42.81982" lon="1.37995">
        <ele>1092</ele>
        <time>2025-09-27T10:00:43.000Z</time>
      </trkpt>
      <trkpt lat="42.81985" lon="1.37995">
        <ele>1092</ele>
        <time>2025-09-27T10:00:44.000Z</time>
      </trkpt>
      <trkpt lat="42.81988" lon="1.37996">
        <ele>1091</ele>
        <time>2025-09-27T10:00:45.000Z</time>
      </trkpt>
      <trkpt lat="42.81991" lon="1.37995">
        <ele>1091</ele>
        <time>2025-09-27T10:00:46.000Z</time>
      </trkpt>
      <trkpt lat="42.81993" lon="1.37994">
        <ele>1091</ele>
        <time>2025-09-27T10:00:47.000Z</time>
      </trkpt>
      <trkpt lat="42.81995" lon="1.37994">
        <ele>1091</ele>
        <time>2025-09-27T10:00:48.000Z</time>
      </trkpt>
      <trkpt lat="42.81997" lon="1.37994">
        <ele>1091</ele>
        <time>2025-09-27T10:00:49.000Z</time>
      </trkpt>
      <trkpt lat="42.81999" lon="1.37993">
        <ele>1091</ele>
        <time>2025-09-27T10:00:50.000Z</time>
      </trkpt>
      <trkpt lat="42.82001" lon="1.37992">
        <ele>1092</ele>
        <time>2025-09-27T10:00:51.000Z</time>
      </trkpt>
      <trkpt lat="42.82001" lon="1.3799">
        <ele>1091</ele>
        <time>2025-09-27T10:00:52.000Z</time>
      </trkpt>
      <trkpt lat="42.82002" lon="1.37988">
        <ele>1091</ele>
        <time>2025-09-27T10:00:53.000Z</time>
      </trkpt>
      <trkpt lat="42.82003" lon="1.37987">
        <ele>1091</ele>
        <time>2025-09-27T10:00:54.000Z</time>
      </trkpt>
      <trkpt lat="42.82004" lon="1.37986">
        <ele>1091</ele>
        <time>2025-09-27T10:00:55.000Z</time>
      </trkpt>
      <trkpt lat="42.82005" lon="1.37985">
        <ele>1091</ele>
        <time>2025-09-27T10:00:56.000Z</time>
      </trkpt>
      <trkpt lat="42.82006" lon="1.37984">
        <ele>1091</ele>
        <time>2025-09-27T10:00:57.000Z</time>
      </trkpt>
      <trkpt lat="42.82007" lon="1.37984">
        <ele>1091</ele>
        <time>2025-09-27T10:00:58.000Z</time>
      </trkpt>
      <trkpt lat="42.82009" lon="1.37984">
        <ele>1091</ele>
        <time>2025-09-27T10:00:59.000Z</time>
      </trkpt>
      <trkpt lat="42.8201" lon="1.37984">
        <ele>1091</ele>
        <time>2025-09-27T10:01:00.000Z</time>
      </trkpt>
      <trkpt lat="42.82012" lon="1.37984">
        <ele>1091</ele>
        <time>2025-09-27T10:01:01.000Z</time>
      </trkpt>
      <trkpt lat="42.82014" lon="1.37984">
        <ele>1091</ele>
        <time>2025-09-27T10:01:02.000Z</time>
      </trkpt>
      <trkpt lat="42.82016" lon="1.37986">
        <ele>1091</ele>
        <time>2025-09-27T10:01:03.000Z</time>
      </trkpt>
      <trkpt lat="42.82019" lon="1.37987">
        <ele>1090</ele>
        <time>2025-09-27T10:01:04.000Z</time>
      </trkpt>
      <trkpt lat="42.82021" lon="1.37988">
        <ele>1090</ele>
        <time>2025-09-27T10:01:05.000Z</time>
      </trkpt>
      <trkpt lat="42.82024" lon="1.37988">
        <ele>1090</ele>
        <time>2025-09-27T10:01:06.000Z</time>
      </trkpt>
      <trkpt lat="42.82026" lon="1.37989">
        <ele>1090</ele>
        <time>2025-09-27T10:01:07.000Z</time>
      </trkpt>
      <trkpt lat="42.82029" lon="1.37988">
        <ele>1090</ele>
        <time>2025-09-27T10:01:08.000Z</time>
      </trkpt>
      <trkpt lat="42.82031" lon="1.37988">
        <ele>1089</ele>
        <time>2025-09-27T10:01:09.000Z</time>
      </trkpt>
      <trkpt lat="42.82034" lon="1.37987">
        <ele>1089</ele>
        <time>2025-09-27T10:01:10.000Z</time>
      </trkpt>
      <trkpt lat="42.82036" lon="1.37986">
        <ele>1089</ele>
        <time>2025-09-27T10:01:11.000Z</time>
      </trkpt>
      <trkpt lat="42.82039" lon="1.37986">
        <ele>1088</ele>
        <time>2025-09-27T10:01:12.000Z</time>
      </trkpt>
      <trkpt lat="42.82042" lon="1.37986">
        <ele>1088</ele>
        <time>2025-09-27T10:01:13.000Z</time>
      </trkpt>
      <trkpt lat="42.82045" lon="1.37986">
        <ele>1087</ele>
        <time>2025-09-27T10:01:14.000Z</time>
      </trkpt>
      <trkpt lat="42.82048" lon="1.37987">
        <ele>1087</ele>
        <time>2025-09-27T10:01:15.000Z</time>
      </trkpt>
      <trkpt lat="42.82051" lon="1.37988">
        <ele>1087</ele>
        <time>2025-09-27T10:01:16.000Z</time>
      </trkpt>
      <trkpt lat="42.82055" lon="1.37989">
        <ele>1087</ele>
        <time>2025-09-27T10:01:17.000Z</time>
      </trkpt>
      <trkpt lat="42.82059" lon="1.37989">
        <ele>1088</ele>
        <time>2025-09-27T10:01:18.000Z</time>
      </trkpt>
      <trkpt lat="42.82061" lon="1.37991">
        <ele>1087</ele>
        <time>2025-09-27T10:01:19.000Z</time>
      </trkpt>
      <trkpt lat="42.82064" lon="1.37991">
        <ele>1087</ele>
        <time>2025-09-27T10:01:20.000Z</time>
      </trkpt>
      <trkpt lat="42.82067" lon="1.37992">
        <ele>1087</ele>
        <time>2025-09-27T10:01:21.000Z</time>
      </trkpt>
      <trkpt lat="42.8207" lon="1.37992">
        <ele>1087</ele>
        <time>2025-09-27T10:01:22.000Z</time>
      </trkpt>
      <trkpt lat="42.82074" lon="1.37993">
        <ele>1087</ele>
        <time>2025-09-27T10:01:23.000Z</time>
      </trkpt>
      <trkpt lat="42.82077" lon="1.37992">
        <ele>1087</ele>
        <time>2025-09-27T10:01:24.000Z</time>
      </trkpt>
      <trkpt lat="42.8208" lon="1.37993">
        <ele>1086</ele>
        <time>2025-09-27T10:01:25.000Z</time>
      </trkpt>
      <trkpt lat="42.82083" lon="1.37992">
        <ele>1086</ele>
        <time>2025-09-27T10:01:26.000Z</time>
      </trkpt>
      <trkpt lat="42.82086" lon="1.37993">
        <ele>1087</ele>
        <time>2025-09-27T10:01:27.000Z</time>
      </trkpt>
      <trkpt lat="42.82089" lon="1.37994">
        <ele>1086</ele>
        <time>2025-09-27T10:01:28.000Z</time>
      </trkpt>
      <trkpt lat="42.82091" lon="1.37995">
        <ele>1086</ele>
        <time>2025-09-27T10:01:29.000Z</time>
      </trkpt>
      <trkpt lat="42.82094" lon="1.37997">
        <ele>1086</ele>
        <time>2025-09-27T10:01:30.000Z</time>
      </trkpt>
      <trkpt lat="42.82098" lon="1.37998">
        <ele>1085</ele>
        <time>2025-09-27T10:01:31.000Z</time>
      </trkpt>
      <trkpt lat="42.82101" lon="1.37999">
        <ele>1085</ele>
        <time>2025-09-27T10:01:32.000Z</time>
      </trkpt>
      <trkpt lat="42.82105" lon="1.38001">
        <ele>1084</ele>
        <time>2025-09-27T10:01:33.000Z</time>
      </trkpt>
      <trkpt lat="42.82109" lon="1.38003">
        <ele>1084</ele>
        <time>2025-09-27T10:01:34.000Z</time>
      </trkpt>
      <trkpt lat="42.82112" lon="1.38003">
        <ele>1084</ele>
        <time>2025-09-27T10:01:35.000Z</time>
      </trkpt>
      <trkpt lat="42.82116" lon="1.38002">
        <ele>1084</ele>
        <time>2025-09-27T10:01:36.000Z</time>
      </trkpt>
      <trkpt lat="42.82119" lon="1.38001">
        <ele>1084</ele>
        <time>2025-09-27T10:01:37.000Z</time>
      </trkpt>
      <trkpt lat="42.82122" lon="1.38001">
        <ele>1083</ele>
        <time>2025-09-27T10:01:38.000Z</time>
      </trkpt>
      <trkpt lat="42.82124" lon="1.38">
        <ele>1084</ele>
        <time>2025-09-27T10:01:39.000Z</time>
      </trkpt>
      <trkpt lat="42.82127" lon="1.37999">
        <ele>1084</ele>
        <time>2025-09-27T10:01:40.000Z</time>
      </trkpt>
      <trkpt lat="42.82131" lon="1.37998">
        <ele>1083</ele>
        <time>2025-09-27T10:01:41.000Z</time>
      </trkpt>
      <trkpt lat="42.82134" lon="1.37998">
        <ele>1082</ele>
        <time>2025-09-27T10:01:42.000Z</time>
      </trkpt>
      <trkpt lat="42.82137" lon="1.37998">
        <ele>1082</ele>
        <time>2025-09-27T10:01:43.000Z</time>
      </trkpt>
      <trkpt lat="42.82141" lon="1.37997">
        <ele>1082</ele>
        <time>2025-09-27T10:01:44.000Z</time>
      </trkpt>
      <trkpt lat="42.82144" lon="1.37996">
        <ele>1081</ele>
        <time>2025-09-27T10:01:45.000Z</time>
      </trkpt>
      <trkpt lat="42.82146" lon="1.37996">
        <ele>1082</ele>
        <time>2025-09-27T10:01:46.000Z</time>
      </trkpt>
      <trkpt lat="42.82149" lon="1.37994">
        <ele>1082</ele>
        <time>2025-09-27T10:01:47.000Z</time>
      </trkpt>
      <trkpt lat="42.82152" lon="1.37993">
        <ele>1081</ele>
        <time>2025-09-27T10:01:48.000Z</time>
      </trkpt>
      <trkpt lat="42.82154" lon="1.37992">
        <ele>1081</ele>
        <time>2025-09-27T10:01:49.000Z</time>
      </trkpt>
      <trkpt lat="42.82157" lon="1.37992">
        <ele>1081</ele>
        <time>2025-09-27T10:01:50.000Z</time>
      </trkpt>
      <trkpt lat="42.82159" lon="1.37991">
        <ele>1081</ele>
        <time>2025-09-27T10:01:51.000Z</time>
      </trkpt>
      <trkpt lat="42.82162" lon="1.3799">
        <ele>1081</ele>
        <time>2025-09-27T10:01:52.000Z</time>
      </trkpt>
      <trkpt lat="42.82165" lon="1.3799">
        <ele>1080</ele>
        <time>2025-09-27T10:01:53.000Z</time>
      </trkpt>
      <trkpt lat="42.82168" lon="1.37989">
        <ele>1080</ele>
        <time>2025-09-27T10:01:54.000Z</time>
      </trkpt>
      <trkpt lat="42.82171" lon="1.37988">
        <ele>1080</ele>
        <time>2025-09-27T10:01:55.000Z</time>
      </trkpt>
      <trkpt lat="42.82175" lon="1.37989">
        <ele>1080</ele>
        <time>2025-09-27T10:01:56.000Z</time>
      </trkpt>
      <trkpt lat="42.82178" lon="1.37988">
        <ele>1079</ele>
        <time>2025-09-27T10:01:57.000Z</time>
      </trkpt>
      <trkpt lat="42.82181" lon="1.37989">
        <ele>1078</ele>
        <time>2025-09-27T10:01:58.000Z</time>
      </trkpt>
      <trkpt lat="42.82185" lon="1.37988">
        <ele>1078</ele>
        <time>2025-09-27T10:01:59.000Z</time>
      </trkpt>
      <trkpt lat="42.82188" lon="1.37987">
        <ele>1078</ele>
        <time>2025-09-27T10:02:00.000Z</time>
      </trkpt>
      <trkpt lat="42.82191" lon="1.37987">
        <ele>1078</ele>
        <time>2025-09-27T10:02:01.000Z</time>
      </trkpt>
      <trkpt lat="42.82194" lon="1.37988">
        <ele>1078</ele>
        <time>2025-09-27T10:02:02.000Z</time>
      </trkpt>
      <trkpt lat="42.82197" lon="1.37988">
        <ele>1077</ele>
        <time>2025-09-27T10:02:03.000Z</time>
      </trkpt>
      <trkpt lat="42.822" lon="1.37989">
        <ele>1078</ele>
        <time>2025-09-27T10:02:04.000Z</time>
      </trkpt>
      <trkpt lat="42.82203" lon="1.37989">
        <ele>1077</ele>
        <time>2025-09-27T10:02:05.000Z</time>
      </trkpt>
      <trkpt lat="42.82208" lon="1.37989">
        <ele>1077</ele>
        <time>2025-09-27T10:02:06.000Z</time>
      </trkpt>
      <trkpt lat="42.82213" lon="1.3799">
        <ele>1076</ele>
        <time>2025-09-27T10:02:07.000Z</time>
      </trkpt>
      <trkpt lat="42.82217" lon="1.37991">
        <ele>1076</ele>
        <time>2025-09-27T10:02:08.000Z</time>
      </trkpt>
      <trkpt lat="42.82222" lon="1.37992">
        <ele>1075</ele>
        <time>2025-09-27T10:02:09.000Z</time>
      </trkpt>
      <trkpt lat="42.82226" lon="1.37994">
        <ele>1076</ele>
        <time>2025-09-27T10:02:10.000Z</time>
      </trkpt>
      <trkpt lat="42.8223" lon="1.37995">
        <ele>1076</ele>
        <time>2025-09-27T10:02:11.000Z</time>
      </trkpt>
      <trkpt lat="42.82233" lon="1.37996">
        <ele>1076</ele>
        <time>2025-09-27T10:02:12.000Z</time>
      </trkpt>
      <trkpt lat="42.82236" lon="1.37996">
        <ele>1076</ele>
        <time>2025-09-27T10:02:13.000Z</time>
      </trkpt>
      <trkpt lat="42.82239" lon="1.37997">
        <ele>1076</ele>
        <time>2025-09-27T10:02:14.000Z</time>
      </trkpt>
      <trkpt lat="42.82242" lon="1.37998">
        <ele>1076</ele>
        <time>2025-09-27T10:02:15.000Z</time>
      </trkpt>
      <trkpt lat="42.82246" lon="1.37999">
        <ele>1076</ele>
        <time>2025-09-27T10:02:16.000Z</time>
      </trkpt>
      <trkpt lat="42.8225" lon="1.37998">
        <ele>1076</ele>
        <time>2025-09-27T10:02:17.000Z</time>
      </trkpt>
      <trkpt lat="42.82253" lon="1.37997">
        <ele>1077</ele>
        <time>2025-09-27T10:02:18.000Z</time>
      </trkpt>
      <trkpt lat="42.82256" lon="1.37996">
        <ele>1077</ele>
        <time>2025-09-27T10:02:19.000Z</time>
      </trkpt>
      <trkpt lat="42.82261" lon="1.37999">
        <ele>1076</ele>
        <time>2025-09-27T10:02:20.000Z</time>
      </trkpt>
      <trkpt lat="42.82266" lon="1.38002">
        <ele>1076</ele>
        <time>2025-09-27T10:02:21.000Z</time>
      </trkpt>
      <trkpt lat="42.8227" lon="1.38004">
        <ele>1076</ele>
        <time>2025-09-27T10:02:22.000Z</time>
      </trkpt>
      <trkpt lat="42.82275" lon="1.38005">
        <ele>1076</ele>
        <time>2025-09-27T10:02:23.000Z</time>
      </trkpt>
      <trkpt lat="42.82279" lon="1.38007">
        <ele>1076</ele>
        <time>2025-09-27T10:02:24.000Z</time>
      </trkpt>
      <trkpt lat="42.82284" lon="1.38009">
        <ele>1075</ele>
        <time>2025-09-27T10:02:25.000Z</time>
      </trkpt>
      <trkpt lat="42.82289" lon="1.38011">
        <ele>1075</ele>
        <time>2025-09-27T10:02:26.000Z</time>
      </trkpt>
      <trkpt lat="42.82293" lon="1.38013">
        <ele>1075</ele>
        <time>2025-09-27T10:02:27.000Z</time>
      </trkpt>
      <trkpt lat="42.82296" lon="1.38015">
        <ele>1075</ele>
        <time>2025-09-27T10:02:28.000Z</time>
      </trkpt>
      <trkpt lat="42.823" lon="1.38016">
        <ele>1075</ele>
        <time>2025-09-27T10:02:29.000Z</time>
      </trkpt>
      <trkpt lat="42.82304" lon="1.3802">
        <ele>1075</ele>
        <time>2025-09-27T10:02:30.000Z</time>
      </trkpt>
      <trkpt lat="42.82307" lon="1.38023">
        <ele>1075</ele>
        <time>2025-09-27T10:02:31.000Z</time>
      </trkpt>
      <trkpt lat="42.82311" lon="1.38025">
        <ele>1075</ele>
        <time>2025-09-27T10:02:32.000Z</time>
      </trkpt>
      <trkpt lat="42.82315" lon="1.38027">
        <ele>1074</ele>
        <time>2025-09-27T10:02:33.000Z</time>
      </trkpt>
      <trkpt lat="42.82318" lon="1.3803">
        <ele>1074</ele>
        <time>2025-09-27T10:02:34.000Z</time>
      </trkpt>
      <trkpt lat="42.82321" lon="1.38032">
        <ele>1073</ele>
        <time>2025-09-27T10:02:35.000Z</time>
      </trkpt>
      <trkpt lat="42.82326" lon="1.38034">
        <ele>1073</ele>
        <time>2025-09-27T10:02:36.000Z</time>
      </trkpt>
      <trkpt lat="42.8233" lon="1.38036">
        <ele>1073</ele>
        <time>2025-09-27T10:02:37.000Z</time>
      </trkpt>
      <trkpt lat="42.82334" lon="1.38039">
        <ele>1073</ele>
        <time>2025-09-27T10:02:38.000Z</time>
      </trkpt>
      <trkpt lat="42.82338" lon="1.38042">
        <ele>1073</ele>
        <time>2025-09-27T10:02:39.000Z</time>
      </trkpt>
      <trkpt lat="42.82343" lon="1.38043">
        <ele>1073</ele>
        <time>2025-09-27T10:02:40.000Z</time>
      </trkpt>
      <trkpt lat="42.82347" lon="1.38045">
        <ele>1073</ele>
        <time>2025-09-27T10:02:41.000Z</time>
      </trkpt>
      <trkpt lat="42.82352" lon="1.38045">
        <ele>1073</ele>
        <time>2025-09-27T10:02:42.000Z</time>
      </trkpt>
      <trkpt lat="42.82356" lon="1.38046">
        <ele>1073</ele>
        <time>2025-09-27T10:02:43.000Z</time>
      </trkpt>
      <trkpt lat="42.8236" lon="1.38047">
        <ele>1074</ele>
        <time>2025-09-27T10:02:44.000Z</time>
      </trkpt>
      <trkpt lat="42.82364" lon="1.38046">
        <ele>1073</ele>
        <time>2025-09-27T10:02:45.000Z</time>
      </trkpt>
      <trkpt lat="42.82367" lon="1.38046">
        <ele>1073</ele>
        <time>2025-09-27T10:02:46.000Z</time>
      </trkpt>
      <trkpt lat="42.82369" lon="1.38045">
        <ele>1073</ele>
        <time>2025-09-27T10:02:47.000Z</time>
      </trkpt>
      <trkpt lat="42.82371" lon="1.38044">
        <ele>1073</ele>
        <time>2025-09-27T10:02:48.000Z</time>
      </trkpt>
      <trkpt lat="42.82373" lon="1.38044">
        <ele>1073</ele>
        <time>2025-09-27T10:02:49.000Z</time>
      </trkpt>
      <trkpt lat="42.82374" lon="1.38043">
        <ele>1073</ele>
        <time>2025-09-27T10:02:50.000Z</time>
      </trkpt>
      <trkpt lat="42.82375" lon="1.38042">
        <ele>1073</ele>
        <time>2025-09-27T10:02:51.000Z</time>
      </trkpt>
      <trkpt lat="42.82377" lon="1.38042">
        <ele>1073</ele>
        <time>2025-09-27T10:02:52.000Z</time>
      </trkpt>
      <trkpt lat="42.82377" lon="1.38042">
        <ele>1072</ele>
        <time>2025-09-27T10:02:53.000Z</time>
      </trkpt>
      <trkpt lat="42.82379" lon="1.38042">
        <ele>1073</ele>
        <time>2025-09-27T10:02:54.000Z</time>
      </trkpt>
      <trkpt lat="42.8238" lon="1.38042">
        <ele>1073</ele>
        <time>2025-09-27T10:02:55.000Z</time>
      </trkpt>
      <trkpt lat="42.82382" lon="1.38043">
        <ele>1072</ele>
        <time>2025-09-27T10:02:56.000Z</time>
      </trkpt>
      <trkpt lat="42.82384" lon="1.38044">
        <ele>1073</ele>
        <time>2025-09-27T10:02:57.000Z</time>
      </trkpt>
      <trkpt lat="42.82386" lon="1.38045">
        <ele>1072</ele>
        <time>2025-09-27T10:02:58.000Z</time>
      </trkpt>
      <trkpt lat="42.82388" lon="1.38045">
        <ele>1072</ele>
        <time>2025-09-27T10:02:59.000Z</time>
      </trkpt>
      <trkpt lat="42.82391" lon="1.38045">
        <ele>1072</ele>
        <time>2025-09-27T10:03:00.000Z</time>
      </trkpt>
      <trkpt lat="42.82393" lon="1.38045">
        <ele>1072</ele>
        <time>2025-09-27T10:03:01.000Z</time>
      </trkpt>
      <trkpt lat="42.82395" lon="1.38045">
        <ele>1072</ele>
        <time>2025-09-27T10:03:02.000Z</time>
      </trkpt>
      <trkpt lat="42.82398" lon="1.38046">
        <ele>1072</ele>
        <time>2025-09-27T10:03:03.000Z</time>
      </trkpt>
      <trkpt lat="42.82401" lon="1.38047">
        <ele>1072</ele>
        <time>2025-09-27T10:03:04.000Z</time>
      </trkpt>
      <trkpt lat="42.82404" lon="1.38047">
        <ele>1071</ele>
        <time>2025-09-27T10:03:05.000Z</time>
      </trkpt>
      <trkpt lat="42.82408" lon="1.38047">
        <ele>1071</ele>
        <time>2025-09-27T10:03:06.000Z</time>
      </trkpt>
      <trkpt lat="42.82411" lon="1.38048">
        <ele>1071</ele>
        <time>2025-09-27T10:03:07.000Z</time>
      </trkpt>
      <trkpt lat="42.82414" lon="1.38048">
        <ele>1071</ele>
        <time>2025-09-27T10:03:08.000Z</time>
      </trkpt>
      <trkpt lat="42.82417" lon="1.38048">
        <ele>1071</ele>
        <time>2025-09-27T10:03:09.000Z</time>
      </trkpt>
      <trkpt lat="42.8242" lon="1.38048">
        <ele>1072</ele>
        <time>2025-09-27T10:03:10.000Z</time>
      </trkpt>
      <trkpt lat="42.82422" lon="1.38047">
        <ele>1072</ele>
        <time>2025-09-27T10:03:11.000Z</time>
      </trkpt>
      <trkpt lat="42.82425" lon="1.38046">
        <ele>1072</ele>
        <time>2025-09-27T10:03:12.000Z</time>
      </trkpt>
      <trkpt lat="42.82427" lon="1.38046">
        <ele>1072</ele>
        <time>2025-09-27T10:03:13.000Z</time>
      </trkpt>
      <trkpt lat="42.82429" lon="1.38046">
        <ele>1072</ele>
        <time>2025-09-27T10:03:14.000Z</time>
      </trkpt>
      <trkpt lat="42.82432" lon="1.38046">
        <ele>1073</ele>
        <time>2025-09-27T10:03:15.000Z</time>
      </trkpt>
      <trkpt lat="42.82434" lon="1.38046">
        <ele>1073</ele>
        <time>2025-09-27T10:03:16.000Z</time>
      </trkpt>
      <trkpt lat="42.82436" lon="1.38046">
        <ele>1073</ele>
        <time>2025-09-27T10:03:17.000Z</time>
      </trkpt>
      <trkpt lat="42.82438" lon="1.38045">
        <ele>1073</ele>
        <time>2025-09-27T10:03:18.000Z</time>
      </trkpt>
      <trkpt lat="42.8244" lon="1.38045">
        <ele>1073</ele>
        <time>2025-09-27T10:03:19.000Z</time>
      </trkpt>
      <trkpt lat="42.82441" lon="1.38045">
        <ele>1073</ele>
        <time>2025-09-27T10:03:20.000Z</time>
      </trkpt>
      <trkpt lat="42.82442" lon="1.38045">
        <ele>1073</ele>
        <time>2025-09-27T10:03:21.000Z</time>
      </trkpt>
      <trkpt lat="42.82443" lon="1.38044">
        <ele>1073</ele>
        <time>2025-09-27T10:03:22.000Z</time>
      </trkpt>
      <trkpt lat="42.82444" lon="1.38044">
        <ele>1073</ele>
        <time>2025-09-27T10:03:23.000Z</time>
      </trkpt>
      <trkpt lat="42.82445" lon="1.38044">
        <ele>1073</ele>
        <time>2025-09-27T10:03:24.000Z</time>
      </trkpt>
      <trkpt lat="42.82446" lon="1.38043">
        <ele>1073</ele>
        <time>2025-09-27T10:03:25.000Z</time>
      </trkpt>
      <trkpt lat="42.82447" lon="1.38043">
        <ele>1073</ele>
        <time>2025-09-27T10:03:26.000Z</time>
      </trkpt>
      <trkpt lat="42.82451" lon="1.38044">
        <ele>1073</ele>
        <time>2025-09-27T10:03:46.000Z</time>
      </trkpt>
      <trkpt lat="42.82452" lon="1.38045">
        <ele>1073</ele>
        <time>2025-09-27T10:03:47.000Z</time>
      </trkpt>
      <trkpt lat="42.82453" lon="1.38046">
        <ele>1073</ele>
        <time>2025-09-27T10:03:48.000Z</time>
      </trkpt>
      <trkpt lat="42.82457" lon="1.38049">
        <ele>1075</ele>
        <time>2025-09-27T10:04:14.000Z</time>
      </trkpt>
      <trkpt lat="42.82458" lon="1.3805">
        <ele>1075</ele>
        <time>2025-09-27T10:04:15.000Z</time>
      </trkpt>
      <trkpt lat="42.82457" lon="1.38052">
        <ele>1074</ele>
        <time>2025-09-27T10:04:16.000Z</time>
      </trkpt>
      <trkpt lat="42.82455" lon="1.38054">
        <ele>1075</ele>
        <time>2025-09-27T10:04:17.000Z</time>
      </trkpt>
      <trkpt lat="42.82453" lon="1.38057">
        <ele>1075</ele>
        <time>2025-09-27T10:04:18.000Z</time>
      </trkpt>
      <trkpt lat="42.82452" lon="1.3806">
        <ele>1075</ele>
        <time>2025-09-27T10:04:19.000Z</time>
      </trkpt>
      <trkpt lat="42.8245" lon="1.38062">
        <ele>1076</ele>
        <time>2025-09-27T10:04:20.000Z</time>
      </trkpt>
      <trkpt lat="42.82449" lon="1.38066">
        <ele>1076</ele>
        <time>2025-09-27T10:04:21.000Z</time>
      </trkpt>
      <trkpt lat="42.82448" lon="1.38068">
        <ele>1077</ele>
        <time>2025-09-27T10:04:22.000Z</time>
      </trkpt>
      <trkpt lat="42.82446" lon="1.38071">
        <ele>1077</ele>
        <time>2025-09-27T10:04:23.000Z</time>
      </trkpt>
      <trkpt lat="42.82445" lon="1.38073">
        <ele>1077</ele>
        <time>2025-09-27T10:04:24.000Z</time>
      </trkpt>
      <trkpt lat="42.82444" lon="1.38076">
        <ele>1077</ele>
        <time>2025-09-27T10:04:25.000Z</time>
      </trkpt>
      <trkpt lat="42.82442" lon="1.38078">
        <ele>1077</ele>
        <time>2025-09-27T10:04:26.000Z</time>
      </trkpt>
      <trkpt lat="42.82441" lon="1.38081">
        <ele>1077</ele>
        <time>2025-09-27T10:04:27.000Z</time>
      </trkpt>
      <trkpt lat="42.82439" lon="1.38083">
        <ele>1077</ele>
        <time>2025-09-27T10:04:28.000Z</time>
      </trkpt>
      <trkpt lat="42.82437" lon="1.38086">
        <ele>1078</ele>
        <time>2025-09-27T10:04:29.000Z</time>
      </trkpt>
      <trkpt lat="42.82435" lon="1.38088">
        <ele>1078</ele>
        <time>2025-09-27T10:04:30.000Z</time>
      </trkpt>
      <trkpt lat="42.82433" lon="1.38091">
        <ele>1079</ele>
        <time>2025-09-27T10:04:31.000Z</time>
      </trkpt>
      <trkpt lat="42.82431" lon="1.38094">
        <ele>1079</ele>
        <time>2025-09-27T10:04:32.000Z</time>
      </trkpt>
      <trkpt lat="42.82429" lon="1.38096">
        <ele>1079</ele>
        <time>2025-09-27T10:04:33.000Z</time>
      </trkpt>
      <trkpt lat="42.82427" lon="1.38098">
        <ele>1079</ele>
        <time>2025-09-27T10:04:34.000Z</time>
      </trkpt>
      <trkpt lat="42.82425" lon="1.381">
        <ele>1079</ele>
        <time>2025-09-27T10:04:35.000Z</time>
      </trkpt>
      <trkpt lat="42.82424" lon="1.38102">
        <ele>1079</ele>
        <time>2025-09-27T10:04:36.000Z</time>
      </trkpt>
      <trkpt lat="42.82421" lon="1.38104">
        <ele>1079</ele>
        <time>2025-09-27T10:04:37.000Z</time>
      </trkpt>
      <trkpt lat="42.82419" lon="1.38106">
        <ele>1079</ele>
        <time>2025-09-27T10:04:38.000Z</time>
      </trkpt>
      <trkpt lat="42.82417" lon="1.38108">
        <ele>1079</ele>
        <time>2025-09-27T10:04:39.000Z</time>
      </trkpt>
      <trkpt lat="42.82415" lon="1.3811">
        <ele>1079</ele>
        <time>2025-09-27T10:04:40.000Z</time>
      </trkpt>
      <trkpt lat="42.82413" lon="1.38112">
        <ele>1080</ele>
        <time>2025-09-27T10:04:41.000Z</time>
      </trkpt>
      <trkpt lat="42.8241" lon="1.38113">
        <ele>1079</ele>
        <time>2025-09-27T10:04:42.000Z</time>
      </trkpt>
      <trkpt lat="42.82408" lon="1.38114">
        <ele>1079</ele>
        <time>2025-09-27T10:04:43.000Z</time>
      </trkpt>
      <trkpt lat="42.82406" lon="1.38115">
        <ele>1080</ele>
        <time>2025-09-27T10:04:44.000Z</time>
      </trkpt>
      <trkpt lat="42.82403" lon="1.38117">
        <ele>1080</ele>
        <time>2025-09-27T10:04:45.000Z</time>
      </trkpt>
      <trkpt lat="42.82401" lon="1.38118">
        <ele>1080</ele>
        <time>2025-09-27T10:04:46.000Z</time>
      </trkpt>
      <trkpt lat="42.82398" lon="1.38119">
        <ele>1080</ele>
        <time>2025-09-27T10:04:47.000Z</time>
      </trkpt>
      <trkpt lat="42.82395" lon="1.38121">
        <ele>1080</ele>
        <time>2025-09-27T10:04:48.000Z</time>
      </trkpt>
      <trkpt lat="42.82393" lon="1.38122">
        <ele>1081</ele>
        <time>2025-09-27T10:04:49.000Z</time>
      </trkpt>
      <trkpt lat="42.82391" lon="1.38123">
        <ele>1081</ele>
        <time>2025-09-27T10:04:50.000Z</time>
      </trkpt>
      <trkpt lat="42.82388" lon="1.38124">
        <ele>1081</ele>
        <time>2025-09-27T10:04:51.000Z</time>
      </trkpt>
      <trkpt lat="42.82386" lon="1.38126">
        <ele>1081</ele>
        <time>2025-09-27T10:04:52.000Z</time>
      </trkpt>
      <trkpt lat="42.82383" lon="1.38127">
        <ele>1082</ele>
        <time>2025-09-27T10:04:53.000Z</time>
      </trkpt>
      <trkpt lat="42.82381" lon="1.38129">
        <ele>1082</ele>
        <time>2025-09-27T10:04:54.000Z</time>
      </trkpt>
      <trkpt lat="42.82378" lon="1.3813">
        <ele>1082</ele>
        <time>2025-09-27T10:04:55.000Z</time>
      </trkpt>
      <trkpt lat="42.82375" lon="1.38131">
        <ele>1083</ele>
        <time>2025-09-27T10:04:56.000Z</time>
      </trkpt>
      <trkpt lat="42.82373" lon="1.38133">
        <ele>1083</ele>
        <time>2025-09-27T10:04:57.000Z</time>
      </trkpt>
      <trkpt lat="42.8237" lon="1.38135">
        <ele>1083</ele>
        <time>2025-09-27T10:04:58.000Z</time>
      </trkpt>
      <trkpt lat="42.82367" lon="1.38135">
        <ele>1083</ele>
        <time>2025-09-27T10:04:59.000Z</time>
      </trkpt>
      <trkpt lat="42.82364" lon="1.38137">
        <ele>1083</ele>
        <time>2025-09-27T10:05:00.000Z</time>
      </trkpt>
      <trkpt lat="42.82362" lon="1.38138">
        <ele>1084</ele>
        <time>2025-09-27T10:05:01.000Z</time>
      </trkpt>
      <trkpt lat="42.82359" lon="1.38139">
        <ele>1084</ele>
        <time>2025-09-27T10:05:02.000Z</time>
      </trkpt>
      <trkpt lat="42.82356" lon="1.3814">
        <ele>1084</ele>
        <time>2025-09-27T10:05:03.000Z</time>
      </trkpt>
      <trkpt lat="42.82353" lon="1.38141">
        <ele>1084</ele>
        <time>2025-09-27T10:05:04.000Z</time>
      </trkpt>
      <trkpt lat="42.8235" lon="1.38143">
        <ele>1085</ele>
        <time>2025-09-27T10:05:05.000Z</time>
      </trkpt>
      <trkpt lat="42.82348" lon="1.38145">
        <ele>1086</ele>
        <time>2025-09-27T10:05:06.000Z</time>
      </trkpt>
      <trkpt lat="42.82344" lon="1.38146">
        <ele>1087</ele>
        <time>2025-09-27T10:05:07.000Z</time>
      </trkpt>
      <trkpt lat="42.82341" lon="1.38147">
        <ele>1088</ele>
        <time>2025-09-27T10:05:08.000Z</time>
      </trkpt>
      <trkpt lat="42.82339" lon="1.38149">
        <ele>1088</ele>
        <time>2025-09-27T10:05:09.000Z</time>
      </trkpt>
      <trkpt lat="42.82336" lon="1.38151">
        <ele>1088</ele>
        <time>2025-09-27T10:05:10.000Z</time>
      </trkpt>
      <trkpt lat="42.82334" lon="1.38153">
        <ele>1088</ele>
        <time>2025-09-27T10:05:11.000Z</time>
      </trkpt>
      <trkpt lat="42.82331" lon="1.38155">
        <ele>1088</ele>
        <time>2025-09-27T10:05:12.000Z</time>
      </trkpt>
      <trkpt lat="42.82329" lon="1.38157">
        <ele>1088</ele>
        <time>2025-09-27T10:05:13.000Z</time>
      </trkpt>
      <trkpt lat="42.82326" lon="1.38159">
        <ele>1088</ele>
        <time>2025-09-27T10:05:14.000Z</time>
      </trkpt>
      <trkpt lat="42.82324" lon="1.38162">
        <ele>1089</ele>
        <time>2025-09-27T10:05:15.000Z</time>
      </trkpt>
      <trkpt lat="42.82322" lon="1.38165">
        <ele>1090</ele>
        <time>2025-09-27T10:05:16.000Z</time>
      </trkpt>
      <trkpt lat="42.8232" lon="1.38167">
        <ele>1090</ele>
        <time>2025-09-27T10:05:17.000Z</time>
      </trkpt>
      <trkpt lat="42.82318" lon="1.3817">
        <ele>1090</ele>
        <time>2025-09-27T10:05:18.000Z</time>
      </trkpt>
      <trkpt lat="42.82316" lon="1.38173">
        <ele>1091</ele>
        <time>2025-09-27T10:05:19.000Z</time>
      </trkpt>
      <trkpt lat="42.82314" lon="1.38175">
        <ele>1091</ele>
        <time>2025-09-27T10:05:20.000Z</time>
      </trkpt>
      <trkpt lat="42.82311" lon="1.38178">
        <ele>1092</ele>
        <time>2025-09-27T10:05:21.000Z</time>
      </trkpt>
      <trkpt lat="42.82309" lon="1.3818">
        <ele>1093</ele>
        <time>2025-09-27T10:05:22.000Z</time>
      </trkpt>
      <trkpt lat="42.82307" lon="1.38182">
        <ele>1093</ele>
        <time>2025-09-27T10:05:23.000Z</time>
      </trkpt>
      <trkpt lat="42.82305" lon="1.38184">
        <ele>1094</ele>
        <time>2025-09-27T10:05:24.000Z</time>
      </trkpt>
      <trkpt lat="42.82303" lon="1.38186">
        <ele>1094</ele>
        <time>2025-09-27T10:05:25.000Z</time>
      </trkpt>
      <trkpt lat="42.823" lon="1.38188">
        <ele>1094</ele>
        <time>2025-09-27T10:05:26.000Z</time>
      </trkpt>
      <trkpt lat="42.82298" lon="1.3819">
        <ele>1095</ele>
        <time>2025-09-27T10:05:27.000Z</time>
      </trkpt>
      <trkpt lat="42.82296" lon="1.38192">
        <ele>1095</ele>
        <time>2025-09-27T10:05:28.000Z</time>
      </trkpt>
      <trkpt lat="42.82293" lon="1.38194">
        <ele>1095</ele>
        <time>2025-09-27T10:05:29.000Z</time>
      </trkpt>
      <trkpt lat="42.82291" lon="1.38196">
        <ele>1095</ele>
        <time>2025-09-27T10:05:30.000Z</time>
      </trkpt>
      <trkpt lat="42.82288" lon="1.38199">
        <ele>1095</ele>
        <time>2025-09-27T10:05:31.000Z</time>
      </trkpt>
      <trkpt lat="42.82285" lon="1.38201">
        <ele>1096</ele>
        <time>2025-09-27T10:05:32.000Z</time>
      </trkpt>
      <trkpt lat="42.82283" lon="1.38202">
        <ele>1096</ele>
        <time>2025-09-27T10:05:33.000Z</time>
      </trkpt>
      <trkpt lat="42.8228" lon="1.38204">
        <ele>1096</ele>
        <time>2025-09-27T10:05:34.000Z</time>
      </trkpt>
      <trkpt lat="42.82278" lon="1.38207">
        <ele>1097</ele>
        <time>2025-09-27T10:05:35.000Z</time>
      </trkpt>
      <trkpt lat="42.82275" lon="1.38208">
        <ele>1096</ele>
        <time>2025-09-27T10:05:36.000Z</time>
      </trkpt>
      <trkpt lat="42.82272" lon="1.3821">
        <ele>1097</ele>
        <time>2025-09-27T10:05:37.000Z</time>
      </trkpt>
      <trkpt lat="42.82269" lon="1.38212">
        <ele>1097</ele>
        <time>2025-09-27T10:05:38.000Z</time>
      </trkpt>
      <trkpt lat="42.82266" lon="1.38214">
        <ele>1098</ele>
        <time>2025-09-27T10:05:39.000Z</time>
      </trkpt>
      <trkpt lat="42.82263" lon="1.38215">
        <ele>1098</ele>
        <time>2025-09-27T10:05:40.000Z</time>
      </trkpt>
      <trkpt lat="42.8226" lon="1.38216">
        <ele>1098</ele>
        <time>2025-09-27T10:05:41.000Z</time>
      </trkpt>
      <trkpt lat="42.82257" lon="1.38217">
        <ele>1099</ele>
        <time>2025-09-27T10:05:42.000Z</time>
      </trkpt>
      <trkpt lat="42.82254" lon="1.38218">
        <ele>1099</ele>
        <time>2025-09-27T10:05:43.000Z</time>
      </trkpt>
      <trkpt lat="42.82251" lon="1.38218">
        <ele>1100</ele>
        <time>2025-09-27T10:05:44.000Z</time>
      </trkpt>
      <trkpt lat="42.82249" lon="1.38219">
        <ele>1100</ele>
        <time>2025-09-27T10:05:45.000Z</time>
      </trkpt>
      <trkpt lat="42.82246" lon="1.3822">
        <ele>1100</ele>
        <time>2025-09-27T10:05:46.000Z</time>
      </trkpt>
      <trkpt lat="42.82243" lon="1.38221">
        <ele>1100</ele>
        <time>2025-09-27T10:05:47.000Z</time>
      </trkpt>
      <trkpt lat="42.8224" lon="1.38222">
        <ele>1100</ele>
        <time>2025-09-27T10:05:48.000Z</time>
      </trkpt>
      <trkpt lat="42.82238" lon="1.38224">
        <ele>1100</ele>
        <time>2025-09-27T10:05:49.000Z</time>
      </trkpt>
      <trkpt lat="42.82235" lon="1.38225">
        <ele>1100</ele>
        <time>2025-09-27T10:05:50.000Z</time>
      </trkpt>
      <trkpt lat="42.82233" lon="1.38225">
        <ele>1100</ele>
        <time>2025-09-27T10:05:51.000Z</time>
      </trkpt>
      <trkpt lat="42.8223" lon="1.38226">
        <ele>1100</ele>
        <time>2025-09-27T10:05:52.000Z</time>
      </trkpt>
      <trkpt lat="42.82227" lon="1.38226">
        <ele>1100</ele>
        <time>2025-09-27T10:05:53.000Z</time>
      </trkpt>
      <trkpt lat="42.82224" lon="1.38227">
        <ele>1100</ele>
        <time>2025-09-27T10:05:54.000Z</time>
      </trkpt>
      <trkpt lat="42.82222" lon="1.38228">
        <ele>1101</ele>
        <time>2025-09-27T10:05:55.000Z</time>
      </trkpt>
      <trkpt lat="42.82219" lon="1.38228">
        <ele>1101</ele>
        <time>2025-09-27T10:05:56.000Z</time>
      </trkpt>
      <trkpt lat="42.82216" lon="1.38229">
        <ele>1101</ele>
        <time>2025-09-27T10:05:57.000Z</time>
      </trkpt>
      <trkpt lat="42.82214" lon="1.38229">
        <ele>1101</ele>
        <time>2025-09-27T10:05:58.000Z</time>
      </trkpt>
      <trkpt lat="42.82211" lon="1.3823">
        <ele>1101</ele>
        <time>2025-09-27T10:05:59.000Z</time>
      </trkpt>
      <trkpt lat="42.82208" lon="1.38231">
        <ele>1101</ele>
        <time>2025-09-27T10:06:00.000Z</time>
      </trkpt>
      <trkpt lat="42.82206" lon="1.38232">
        <ele>1101</ele>
        <time>2025-09-27T10:06:01.000Z</time>
      </trkpt>
      <trkpt lat="42.82203" lon="1.38232">
        <ele>1102</ele>
        <time>2025-09-27T10:06:02.000Z</time>
      </trkpt>
      <trkpt lat="42.822" lon="1.38233">
        <ele>1103</ele>
        <time>2025-09-27T10:06:03.000Z</time>
      </trkpt>
      <trkpt lat="42.82197" lon="1.38235">
        <ele>1103</ele>
        <time>2025-09-27T10:06:04.000Z</time>
      </trkpt>
      <trkpt lat="42.82194" lon="1.38236">
        <ele>1104</ele>
        <time>2025-09-27T10:06:05.000Z</time>
      </trkpt>
      <trkpt lat="42.82191" lon="1.38237">
        <ele>1104</ele>
        <time>2025-09-27T10:06:06.000Z</time>
      </trkpt>
      <trkpt lat="42.82189" lon="1.38238">
        <ele>1104</ele>
        <time>2025-09-27T10:06:07.000Z</time>
      </trkpt>
      <trkpt lat="42.82186" lon="1.38239">
        <ele>1104</ele>
        <time>2025-09-27T10:06:08.000Z</time>
      </trkpt>
      <trkpt lat="42.82183" lon="1.38241">
        <ele>1104</ele>
        <time>2025-09-27T10:06:09.000Z</time>
      </trkpt>
      <trkpt lat="42.8218" lon="1.38242">
        <ele>1106</ele>
        <time>2025-09-27T10:06:10.000Z</time>
      </trkpt>
      <trkpt lat="42.82177" lon="1.38242">
        <ele>1106</ele>
        <time>2025-09-27T10:06:11.000Z</time>
      </trkpt>
      <trkpt lat="42.82175" lon="1.38244">
        <ele>1107</ele>
        <time>2025-09-27T10:06:12.000Z</time>
      </trkpt>
      <trkpt lat="42.82172" lon="1.38246">
        <ele>1107</ele>
        <time>2025-09-27T10:06:13.000Z</time>
      </trkpt>
      <trkpt lat="42.82169" lon="1.38247">
        <ele>1108</ele>
        <time>2025-09-27T10:06:14.000Z</time>
      </trkpt>
      <trkpt lat="42.82167" lon="1.38248">
        <ele>1108</ele>
        <time>2025-09-27T10:06:15.000Z</time>
      </trkpt>
      <trkpt lat="42.82164" lon="1.38249">
        <ele>1108</ele>
        <time>2025-09-27T10:06:16.000Z</time>
      </trkpt>
      <trkpt lat="42.82161" lon="1.3825">
        <ele>1108</ele>
        <time>2025-09-27T10:06:17.000Z</time>
      </trkpt>
      <trkpt lat="42.82159" lon="1.38252">
        <ele>1109</ele>
        <time>2025-09-27T10:06:18.000Z</time>
      </trkpt>
      <trkpt lat="42.82156" lon="1.38253">
        <ele>1109</ele>
        <time>2025-09-27T10:06:19.000Z</time>
      </trkpt>
      <trkpt lat="42.82153" lon="1.38253">
        <ele>1109</ele>
        <time>2025-09-27T10:06:20.000Z</time>
      </trkpt>
      <trkpt lat="42.8215" lon="1.38253">
        <ele>1109</ele>
        <time>2025-09-27T10:06:21.000Z</time>
      </trkpt>
      <trkpt lat="42.82147" lon="1.38253">
        <ele>1110</ele>
        <time>2025-09-27T10:06:22.000Z</time>
      </trkpt>
      <trkpt lat="42.82145" lon="1.38253">
        <ele>1110</ele>
        <time>2025-09-27T10:06:23.000Z</time>
      </trkpt>
      <trkpt lat="42.82142" lon="1.38253">
        <ele>1111</ele>
        <time>2025-09-27T10:06:24.000Z</time>
      </trkpt>
      <trkpt lat="42.82139" lon="1.38252">
        <ele>1112</ele>
        <time>2025-09-27T10:06:25.000Z</time>
      </trkpt>
      <trkpt lat="42.82136" lon="1.38251">
        <ele>1112</ele>
        <time>2025-09-27T10:06:26.000Z</time>
      </trkpt>
      <trkpt lat="42.82134" lon="1.38251">
        <ele>1113</ele>
        <time>2025-09-27T10:06:27.000Z</time>
      </trkpt>
      <trkpt lat="42.82131" lon="1.3825">
        <ele>1114</ele>
        <time>2025-09-27T10:06:28.000Z</time>
      </trkpt>
      <trkpt lat="42.82128" lon="1.38249">
        <ele>1114</ele>
        <time>2025-09-27T10:06:29.000Z</time>
      </trkpt>
      <trkpt lat="42.82126" lon="1.38249">
        <ele>1114</ele>
        <time>2025-09-27T10:06:30.000Z</time>
      </trkpt>
      <trkpt lat="42.82123" lon="1.38248">
        <ele>1115</ele>
        <time>2025-09-27T10:06:31.000Z</time>
      </trkpt>
      <trkpt lat="42.82121" lon="1.38248">
        <ele>1115</ele>
        <time>2025-09-27T10:06:32.000Z</time>
      </trkpt>
      <trkpt lat="42.82118" lon="1.38247">
        <ele>1116</ele>
        <time>2025-09-27T10:06:33.000Z</time>
      </trkpt>
      <trkpt lat="42.82115" lon="1.38244">
        <ele>1116</ele>
        <time>2025-09-27T10:06:34.000Z</time>
      </trkpt>
      <trkpt lat="42.82112" lon="1.38243">
        <ele>1117</ele>
        <time>2025-09-27T10:06:35.000Z</time>
      </trkpt>
      <trkpt lat="42.82109" lon="1.38241">
        <ele>1117</ele>
        <time>2025-09-27T10:06:36.000Z</time>
      </trkpt>
      <trkpt lat="42.82107" lon="1.38239">
        <ele>1117</ele>
        <time>2025-09-27T10:06:37.000Z</time>
      </trkpt>
      <trkpt lat="42.82104" lon="1.38238">
        <ele>1117</ele>
        <time>2025-09-27T10:06:38.000Z</time>
      </trkpt>
      <trkpt lat="42.82101" lon="1.38236">
        <ele>1117</ele>
        <time>2025-09-27T10:06:39.000Z</time>
      </trkpt>
      <trkpt lat="42.82099" lon="1.38234">
        <ele>1118</ele>
        <time>2025-09-27T10:06:40.000Z</time>
      </trkpt>
      <trkpt lat="42.82097" lon="1.38231">
        <ele>1119</ele>
        <time>2025-09-27T10:06:41.000Z</time>
      </trkpt>
      <trkpt lat="42.82094" lon="1.38229">
        <ele>1119</ele>
        <time>2025-09-27T10:06:42.000Z</time>
      </trkpt>
      <trkpt lat="42.82092" lon="1.38226">
        <ele>1119</ele>
        <time>2025-09-27T10:06:43.000Z</time>
      </trkpt>
      <trkpt lat="42.8209" lon="1.38223">
        <ele>1119</ele>
        <time>2025-09-27T10:06:44.000Z</time>
      </trkpt>
      <trkpt lat="42.82087" lon="1.38221">
        <ele>1120</ele>
        <time>2025-09-27T10:06:45.000Z</time>
      </trkpt>
      <trkpt lat="42.82085" lon="1.38219">
        <ele>1120</ele>
        <time>2025-09-27T10:06:46.000Z</time>
      </trkpt>
      <trkpt lat="42.82083" lon="1.38217">
        <ele>1120</ele>
        <time>2025-09-27T10:06:47.000Z</time>
      </trkpt>
      <trkpt lat="42.8208" lon="1.38214">
        <ele>1120</ele>
        <time>2025-09-27T10:06:48.000Z</time>
      </trkpt>
      <trkpt lat="42.82078" lon="1.38212">
        <ele>1120</ele>
        <time>2025-09-27T10:06:49.000Z</time>
      </trkpt>
      <trkpt lat="42.82076" lon="1.3821">
        <ele>1120</ele>
        <time>2025-09-27T10:06:50.000Z</time>
      </trkpt>
      <trkpt lat="42.82073" lon="1.38207">
        <ele>1120</ele>
        <time>2025-09-27T10:06:51.000Z</time>
      </trkpt>
      <trkpt lat="42.82071" lon="1.38205">
        <ele>1120</ele>
        <time>2025-09-27T10:06:52.000Z</time>
      </trkpt>
      <trkpt lat="42.82068" lon="1.38203">
        <ele>1121</ele>
        <time>2025-09-27T10:06:53.000Z</time>
      </trkpt>
      <trkpt lat="42.82066" lon="1.38202">
        <ele>1121</ele>
        <time>2025-09-27T10:06:54.000Z</time>
      </trkpt>
      <trkpt lat="42.82064" lon="1.38202">
        <ele>1121</ele>
        <time>2025-09-27T10:06:55.000Z</time>
      </trkpt>
      <trkpt lat="42.82061" lon="1.38201">
        <ele>1121</ele>
        <time>2025-09-27T10:06:56.000Z</time>
      </trkpt>
      <trkpt lat="42.82058" lon="1.382">
        <ele>1121</ele>
        <time>2025-09-27T10:06:57.000Z</time>
      </trkpt>
      <trkpt lat="42.82055" lon="1.38199">
        <ele>1122</ele>
        <time>2025-09-27T10:06:58.000Z</time>
      </trkpt>
      <trkpt lat="42.82052" lon="1.38198">
        <ele>1122</ele>
        <time>2025-09-27T10:06:59.000Z</time>
      </trkpt>
      <trkpt lat="42.82048" lon="1.38198">
        <ele>1121</ele>
        <time>2025-09-27T10:07:00.000Z</time>
      </trkpt>
      <trkpt lat="42.82045" lon="1.38198">
        <ele>1121</ele>
        <time>2025-09-27T10:07:01.000Z</time>
      </trkpt>
      <trkpt lat="42.82042" lon="1.38198">
        <ele>1122</ele>
        <time>2025-09-27T10:07:02.000Z</time>
      </trkpt>
      <trkpt lat="42.82038" lon="1.38198">
        <ele>1122</ele>
        <time>2025-09-27T10:07:03.000Z</time>
      </trkpt>
      <trkpt lat="42.82034" lon="1.38199">
        <ele>1123</ele>
        <time>2025-09-27T10:07:04.000Z</time>
      </trkpt>
      <trkpt lat="42.8203" lon="1.38199">
        <ele>1123</ele>
        <time>2025-09-27T10:07:05.000Z</time>
      </trkpt>
      <trkpt lat="42.82026" lon="1.38199">
        <ele>1123</ele>
        <time>2025-09-27T10:07:06.000Z</time>
      </trkpt>
      <trkpt lat="42.82023" lon="1.38199">
        <ele>1123</ele>
        <time>2025-09-27T10:07:07.000Z</time>
      </trkpt>
      <trkpt lat="42.8202" lon="1.38199">
        <ele>1123</ele>
        <time>2025-09-27T10:07:08.000Z</time>
      </trkpt>
      <trkpt lat="42.82018" lon="1.38199">
        <ele>1123</ele>
        <time>2025-09-27T10:07:09.000Z</time>
      </trkpt>
      <trkpt lat="42.82015" lon="1.38199">
        <ele>1124</ele>
        <time>2025-09-27T10:07:10.000Z</time>
      </trkpt>
      <trkpt lat="42.82013" lon="1.382">
        <ele>1124</ele>
        <time>2025-09-27T10:07:11.000Z</time>
      </trkpt>
      <trkpt lat="42.8201" lon="1.382">
        <ele>1124</ele>
        <time>2025-09-27T10:07:12.000Z</time>
      </trkpt>
      <trkpt lat="42.82007" lon="1.382">
        <ele>1124</ele>
        <time>2025-09-27T10:07:13.000Z</time>
      </trkpt>
      <trkpt lat="42.82004" lon="1.382">
        <ele>1125</ele>
        <time>2025-09-27T10:07:14.000Z</time>
      </trkpt>
      <trkpt lat="42.82001" lon="1.382">
        <ele>1125</ele>
        <time>2025-09-27T10:07:15.000Z</time>
      </trkpt>
      <trkpt lat="42.81998" lon="1.382">
        <ele>1126</ele>
        <time>2025-09-27T10:07:16.000Z</time>
      </trkpt>
      <trkpt lat="42.81996" lon="1.382">
        <ele>1126</ele>
        <time>2025-09-27T10:07:17.000Z</time>
      </trkpt>
      <trkpt lat="42.81993" lon="1.382">
        <ele>1127</ele>
        <time>2025-09-27T10:07:18.000Z</time>
      </trkpt>
      <trkpt lat="42.8199" lon="1.382">
        <ele>1127</ele>
        <time>2025-09-27T10:07:19.000Z</time>
      </trkpt>
      <trkpt lat="42.81987" lon="1.382">
        <ele>1128</ele>
        <time>2025-09-27T10:07:20.000Z</time>
      </trkpt>
      <trkpt lat="42.81984" lon="1.382">
        <ele>1128</ele>
        <time>2025-09-27T10:07:21.000Z</time>
      </trkpt>
      <trkpt lat="42.81982" lon="1.382">
        <ele>1128</ele>
        <time>2025-09-27T10:07:22.000Z</time>
      </trkpt>
      <trkpt lat="42.8198" lon="1.38199">
        <ele>1129</ele>
        <time>2025-09-27T10:07:23.000Z</time>
      </trkpt>
      <trkpt lat="42.81978" lon="1.38198">
        <ele>1129</ele>
        <time>2025-09-27T10:07:24.000Z</time>
      </trkpt>
      <trkpt lat="42.81977" lon="1.38199">
        <ele>1130</ele>
        <time>2025-09-27T10:07:25.000Z</time>
      </trkpt>
      <trkpt lat="42.81977" lon="1.38198">
        <ele>1130</ele>
        <time>2025-09-27T10:07:26.000Z</time>
      </trkpt>
      <trkpt lat="42.81977" lon="1.38198">
        <ele>1130</ele>
        <time>2025-09-27T10:07:27.000Z</time>
      </trkpt>
      <trkpt lat="42.81977" lon="1.38198">
        <ele>1130</ele>
        <time>2025-09-27T10:07:28.000Z</time>
      </trkpt>
      <trkpt lat="42.81976" lon="1.38197">
        <ele>1130</ele>
        <time>2025-09-27T10:07:29.000Z</time>
      </trkpt>
      <trkpt lat="42.81976" lon="1.38199">
        <ele>1131</ele>
        <time>2025-09-27T10:09:06.000Z</time>
      </trkpt>
      <trkpt lat="42.81974" lon="1.38199">
        <ele>1132</ele>
        <time>2025-09-27T10:09:07.000Z</time>
      </trkpt>
      <trkpt lat="42.81972" lon="1.382">
        <ele>1131</ele>
        <time>2025-09-27T10:09:08.000Z</time>
      </trkpt>
      <trkpt lat="42.81971" lon="1.38201">
        <ele>1132</ele>
        <time>2025-09-27T10:09:09.000Z</time>
      </trkpt>
      <trkpt lat="42.81969" lon="1.38202">
        <ele>1132</ele>
        <time>2025-09-27T10:09:10.000Z</time>
      </trkpt>
      <trkpt lat="42.81967" lon="1.38203">
        <ele>1133</ele>
        <time>2025-09-27T10:09:11.000Z</time>
      </trkpt>
      <trkpt lat="42.81966" lon="1.38203">
        <ele>1133</ele>
        <time>2025-09-27T10:09:12.000Z</time>
      </trkpt>
      <trkpt lat="42.81963" lon="1.38204">
        <ele>1133</ele>
        <time>2025-09-27T10:09:13.000Z</time>
      </trkpt>
      <trkpt lat="42.81963" lon="1.38204">
        <ele>1133</ele>
        <time>2025-09-27T10:09:14.000Z</time>
      </trkpt>
      <trkpt lat="42.81964" lon="1.38204">
        <ele>1134</ele>
        <time>2025-09-27T10:09:15.000Z</time>
      </trkpt>
      <trkpt lat="42.81966" lon="1.38205">
        <ele>1135</ele>
        <time>2025-09-27T10:09:16.000Z</time>
      </trkpt>
      <trkpt lat="42.81966" lon="1.38204">
        <ele>1135</ele>
        <time>2025-09-27T10:09:17.000Z</time>
      </trkpt>
      <trkpt lat="42.81964" lon="1.38203">
        <ele>1135</ele>
        <time>2025-09-27T10:09:18.000Z</time>
      </trkpt>
      <trkpt lat="42.81961" lon="1.38204">
        <ele>1135</ele>
        <time>2025-09-27T10:09:19.000Z</time>
      </trkpt>
      <trkpt lat="42.81959" lon="1.38204">
        <ele>1136</ele>
        <time>2025-09-27T10:09:20.000Z</time>
      </trkpt>
      <trkpt lat="42.81956" lon="1.38205">
        <ele>1136</ele>
        <time>2025-09-27T10:09:21.000Z</time>
      </trkpt>
      <trkpt lat="42.81954" lon="1.38206">
        <ele>1136</ele>
        <time>2025-09-27T10:09:22.000Z</time>
      </trkpt>
      <trkpt lat="42.81951" lon="1.38206">
        <ele>1136</ele>
        <time>2025-09-27T10:09:23.000Z</time>
      </trkpt>
      <trkpt lat="42.81949" lon="1.38207">
        <ele>1136</ele>
        <time>2025-09-27T10:09:24.000Z</time>
      </trkpt>
      <trkpt lat="42.81946" lon="1.38208">
        <ele>1136</ele>
        <time>2025-09-27T10:09:25.000Z</time>
      </trkpt>
      <trkpt lat="42.81944" lon="1.38208">
        <ele>1136</ele>
        <time>2025-09-27T10:09:26.000Z</time>
      </trkpt>
      <trkpt lat="42.81941" lon="1.38208">
        <ele>1136</ele>
        <time>2025-09-27T10:09:27.000Z</time>
      </trkpt>
      <trkpt lat="42.81937" lon="1.38208">
        <ele>1136</ele>
        <time>2025-09-27T10:09:28.000Z</time>
      </trkpt>
      <trkpt lat="42.81934" lon="1.38209">
        <ele>1135</ele>
        <time>2025-09-27T10:09:29.000Z</time>
      </trkpt>
      <trkpt lat="42.81932" lon="1.3821">
        <ele>1136</ele>
        <time>2025-09-27T10:09:30.000Z</time>
      </trkpt>
      <trkpt lat="42.81929" lon="1.38211">
        <ele>1136</ele>
        <time>2025-09-27T10:09:31.000Z</time>
      </trkpt>
      <trkpt lat="42.81927" lon="1.38212">
        <ele>1137</ele>
        <time>2025-09-27T10:09:32.000Z</time>
      </trkpt>
      <trkpt lat="42.81924" lon="1.38213">
        <ele>1136</ele>
        <time>2025-09-27T10:09:33.000Z</time>
      </trkpt>
      <trkpt lat="42.81922" lon="1.38214">
        <ele>1137</ele>
        <time>2025-09-27T10:09:34.000Z</time>
      </trkpt>
      <trkpt lat="42.81919" lon="1.38215">
        <ele>1137</ele>
        <time>2025-09-27T10:09:35.000Z</time>
      </trkpt>
      <trkpt lat="42.81917" lon="1.38217">
        <ele>1137</ele>
        <time>2025-09-27T10:09:36.000Z</time>
      </trkpt>
      <trkpt lat="42.81914" lon="1.38218">
        <ele>1137</ele>
        <time>2025-09-27T10:09:37.000Z</time>
      </trkpt>
      <trkpt lat="42.81912" lon="1.3822">
        <ele>1137</ele>
        <time>2025-09-27T10:09:38.000Z</time>
      </trkpt>
      <trkpt lat="42.8191" lon="1.38221">
        <ele>1137</ele>
        <time>2025-09-27T10:09:39.000Z</time>
      </trkpt>
      <trkpt lat="42.81907" lon="1.38224">
        <ele>1137</ele>
        <time>2025-09-27T10:09:40.000Z</time>
      </trkpt>
      <trkpt lat="42.81905" lon="1.38226">
        <ele>1137</ele>
        <time>2025-09-27T10:09:41.000Z</time>
      </trkpt>
      <trkpt lat="42.81902" lon="1.38228">
        <ele>1138</ele>
        <time>2025-09-27T10:09:42.000Z</time>
      </trkpt>
      <trkpt lat="42.819" lon="1.3823">
        <ele>1139</ele>
        <time>2025-09-27T10:09:43.000Z</time>
      </trkpt>
      <trkpt lat="42.81898" lon="1.38232">
        <ele>1139</ele>
        <time>2025-09-27T10:09:44.000Z</time>
      </trkpt>
      <trkpt lat="42.81895" lon="1.38234">
        <ele>1139</ele>
        <time>2025-09-27T10:09:45.000Z</time>
      </trkpt>
      <trkpt lat="42.81892" lon="1.38235">
        <ele>1140</ele>
        <time>2025-09-27T10:09:46.000Z</time>
      </trkpt>
      <trkpt lat="42.81889" lon="1.38237">
        <ele>1140</ele>
        <time>2025-09-27T10:09:47.000Z</time>
      </trkpt>
      <trkpt lat="42.81887" lon="1.38238">
        <ele>1140</ele>
        <time>2025-09-27T10:09:48.000Z</time>
      </trkpt>
      <trkpt lat="42.81885" lon="1.38239">
        <ele>1141</ele>
        <time>2025-09-27T10:09:49.000Z</time>
      </trkpt>
      <trkpt lat="42.81882" lon="1.38241">
        <ele>1141</ele>
        <time>2025-09-27T10:09:50.000Z</time>
      </trkpt>
      <trkpt lat="42.8188" lon="1.38242">
        <ele>1141</ele>
        <time>2025-09-27T10:09:51.000Z</time>
      </trkpt>
      <trkpt lat="42.81877" lon="1.38244">
        <ele>1142</ele>
        <time>2025-09-27T10:09:52.000Z</time>
      </trkpt>
      <trkpt lat="42.81875" lon="1.38245">
        <ele>1142</ele>
        <time>2025-09-27T10:09:53.000Z</time>
      </trkpt>
      <trkpt lat="42.81872" lon="1.38246">
        <ele>1142</ele>
        <time>2025-09-27T10:09:54.000Z</time>
      </trkpt>
      <trkpt lat="42.81868" lon="1.38248">
        <ele>1142</ele>
        <time>2025-09-27T10:09:55.000Z</time>
      </trkpt>
      <trkpt lat="42.81866" lon="1.38249">
        <ele>1142</ele>
        <time>2025-09-27T10:09:56.000Z</time>
      </trkpt>
      <trkpt lat="42.81863" lon="1.3825">
        <ele>1143</ele>
        <time>2025-09-27T10:09:57.000Z</time>
      </trkpt>
      <trkpt lat="42.8186" lon="1.38251">
        <ele>1143</ele>
        <time>2025-09-27T10:09:58.000Z</time>
      </trkpt>
      <trkpt lat="42.81857" lon="1.38252">
        <ele>1143</ele>
        <time>2025-09-27T10:09:59.000Z</time>
      </trkpt>
      <trkpt lat="42.81854" lon="1.38253">
        <ele>1144</ele>
        <time>2025-09-27T10:10:00.000Z</time>
      </trkpt>
      <trkpt lat="42.81851" lon="1.38254">
        <ele>1144</ele>
        <time>2025-09-27T10:10:01.000Z</time>
      </trkpt>
      <trkpt lat="42.81848" lon="1.38255">
        <ele>1145</ele>
        <time>2025-09-27T10:10:02.000Z</time>
      </trkpt>
      <trkpt lat="42.81846" lon="1.38257">
        <ele>1145</ele>
        <time>2025-09-27T10:10:03.000Z</time>
      </trkpt>
      <trkpt lat="42.81844" lon="1.38258">
        <ele>1145</ele>
        <time>2025-09-27T10:10:04.000Z</time>
      </trkpt>
      <trkpt lat="42.81841" lon="1.38259">
        <ele>1145</ele>
        <time>2025-09-27T10:10:05.000Z</time>
      </trkpt>
      <trkpt lat="42.81838" lon="1.3826">
        <ele>1145</ele>
        <time>2025-09-27T10:10:06.000Z</time>
      </trkpt>
      <trkpt lat="42.81836" lon="1.38261">
        <ele>1146</ele>
        <time>2025-09-27T10:10:07.000Z</time>
      </trkpt>
      <trkpt lat="42.81834" lon="1.38263">
        <ele>1146</ele>
        <time>2025-09-27T10:10:08.000Z</time>
      </trkpt>
      <trkpt lat="42.81832" lon="1.38266">
        <ele>1147</ele>
        <time>2025-09-27T10:10:09.000Z</time>
      </trkpt>
      <trkpt lat="42.8183" lon="1.3827">
        <ele>1147</ele>
        <time>2025-09-27T10:10:10.000Z</time>
      </trkpt>
      <trkpt lat="42.8183" lon="1.38274">
        <ele>1147</ele>
        <time>2025-09-27T10:10:11.000Z</time>
      </trkpt>
      <trkpt lat="42.8183" lon="1.38279">
        <ele>1147</ele>
        <time>2025-09-27T10:10:12.000Z</time>
      </trkpt>
      <trkpt lat="42.81831" lon="1.38283">
        <ele>1147</ele>
        <time>2025-09-27T10:10:13.000Z</time>
      </trkpt>
      <trkpt lat="42.81833" lon="1.38287">
        <ele>1147</ele>
        <time>2025-09-27T10:10:14.000Z</time>
      </trkpt>
      <trkpt lat="42.81836" lon="1.38289">
        <ele>1147</ele>
        <time>2025-09-27T10:10:15.000Z</time>
      </trkpt>
      <trkpt lat="42.8184" lon="1.38289">
        <ele>1147</ele>
        <time>2025-09-27T10:10:16.000Z</time>
      </trkpt>
      <trkpt lat="42.81844" lon="1.3829">
        <ele>1147</ele>
        <time>2025-09-27T10:10:17.000Z</time>
      </trkpt>
      <trkpt lat="42.81847" lon="1.3829">
        <ele>1147</ele>
        <time>2025-09-27T10:10:18.000Z</time>
      </trkpt>
      <trkpt lat="42.8185" lon="1.38288">
        <ele>1147</ele>
        <time>2025-09-27T10:10:19.000Z</time>
      </trkpt>
      <trkpt lat="42.81853" lon="1.38287">
        <ele>1147</ele>
        <time>2025-09-27T10:10:20.000Z</time>
      </trkpt>
      <trkpt lat="42.81856" lon="1.38285">
        <ele>1147</ele>
        <time>2025-09-27T10:10:21.000Z</time>
      </trkpt>
      <trkpt lat="42.81859" lon="1.38284">
        <ele>1147</ele>
        <time>2025-09-27T10:10:22.000Z</time>
      </trkpt>
      <trkpt lat="42.81862" lon="1.38283">
        <ele>1147</ele>
        <time>2025-09-27T10:10:23.000Z</time>
      </trkpt>
      <trkpt lat="42.81866" lon="1.38281">
        <ele>1147</ele>
        <time>2025-09-27T10:10:24.000Z</time>
      </trkpt>
      <trkpt lat="42.81869" lon="1.3828">
        <ele>1147</ele>
        <time>2025-09-27T10:10:25.000Z</time>
      </trkpt>
      <trkpt lat="42.81872" lon="1.38279">
        <ele>1147</ele>
        <time>2025-09-27T10:10:26.000Z</time>
      </trkpt>
      <trkpt lat="42.81875" lon="1.38278">
        <ele>1147</ele>
        <time>2025-09-27T10:10:27.000Z</time>
      </trkpt>
      <trkpt lat="42.81877" lon="1.38277">
        <ele>1148</ele>
        <time>2025-09-27T10:10:28.000Z</time>
      </trkpt>
      <trkpt lat="42.8188" lon="1.38277">
        <ele>1148</ele>
        <time>2025-09-27T10:10:29.000Z</time>
      </trkpt>
      <trkpt lat="42.81882" lon="1.38276">
        <ele>1148</ele>
        <time>2025-09-27T10:10:30.000Z</time>
      </trkpt>
      <trkpt lat="42.81885" lon="1.38276">
        <ele>1148</ele>
        <time>2025-09-27T10:10:31.000Z</time>
      </trkpt>
      <trkpt lat="42.81888" lon="1.38276">
        <ele>1148</ele>
        <time>2025-09-27T10:10:32.000Z</time>
      </trkpt>
      <trkpt lat="42.8189" lon="1.38276">
        <ele>1149</ele>
        <time>2025-09-27T10:10:33.000Z</time>
      </trkpt>
      <trkpt lat="42.81893" lon="1.38277">
        <ele>1149</ele>
        <time>2025-09-27T10:10:34.000Z</time>
      </trkpt>
      <trkpt lat="42.81895" lon="1.38277">
        <ele>1149</ele>
        <time>2025-09-27T10:10:35.000Z</time>
      </trkpt>
      <trkpt lat="42.81898" lon="1.38278">
        <ele>1149</ele>
        <time>2025-09-27T10:10:36.000Z</time>
      </trkpt>
      <trkpt lat="42.81901" lon="1.38279">
        <ele>1149</ele>
        <time>2025-09-27T10:10:37.000Z</time>
      </trkpt>
      <trkpt lat="42.81904" lon="1.3828">
        <ele>1149</ele>
        <time>2025-09-27T10:10:38.000Z</time>
      </trkpt>
      <trkpt lat="42.81907" lon="1.38281">
        <ele>1149</ele>
        <time>2025-09-27T10:10:39.000Z</time>
      </trkpt>
      <trkpt lat="42.81909" lon="1.38282">
        <ele>1150</ele>
        <time>2025-09-27T10:10:40.000Z</time>
      </trkpt>
      <trkpt lat="42.81912" lon="1.38283">
        <ele>1151</ele>
        <time>2025-09-27T10:10:41.000Z</time>
      </trkpt>
      <trkpt lat="42.81915" lon="1.38284">
        <ele>1151</ele>
        <time>2025-09-27T10:10:42.000Z</time>
      </trkpt>
      <trkpt lat="42.81918" lon="1.38285">
        <ele>1151</ele>
        <time>2025-09-27T10:10:43.000Z</time>
      </trkpt>
      <trkpt lat="42.8192" lon="1.38287">
        <ele>1151</ele>
        <time>2025-09-27T10:10:44.000Z</time>
      </trkpt>
      <trkpt lat="42.81923" lon="1.38288">
        <ele>1151</ele>
        <time>2025-09-27T10:10:45.000Z</time>
      </trkpt>
      <trkpt lat="42.81925" lon="1.3829">
        <ele>1152</ele>
        <time>2025-09-27T10:10:46.000Z</time>
      </trkpt>
      <trkpt lat="42.81928" lon="1.38292">
        <ele>1152</ele>
        <time>2025-09-27T10:10:47.000Z</time>
      </trkpt>
      <trkpt lat="42.81931" lon="1.38294">
        <ele>1152</ele>
        <time>2025-09-27T10:10:48.000Z</time>
      </trkpt>
      <trkpt lat="42.81933" lon="1.38296">
        <ele>1153</ele>
        <time>2025-09-27T10:10:49.000Z</time>
      </trkpt>
      <trkpt lat="42.81936" lon="1.38298">
        <ele>1153</ele>
        <time>2025-09-27T10:10:50.000Z</time>
      </trkpt>
      <trkpt lat="42.81938" lon="1.383">
        <ele>1154</ele>
        <time>2025-09-27T10:10:51.000Z</time>
      </trkpt>
      <trkpt lat="42.81941" lon="1.38303">
        <ele>1154</ele>
        <time>2025-09-27T10:10:52.000Z</time>
      </trkpt>
      <trkpt lat="42.81944" lon="1.38305">
        <ele>1154</ele>
        <time>2025-09-27T10:10:53.000Z</time>
      </trkpt>
      <trkpt lat="42.81946" lon="1.38308">
        <ele>1154</ele>
        <time>2025-09-27T10:10:54.000Z</time>
      </trkpt>
      <trkpt lat="42.81948" lon="1.38311">
        <ele>1154</ele>
        <time>2025-09-27T10:10:55.000Z</time>
      </trkpt>
      <trkpt lat="42.8195" lon="1.38313">
        <ele>1154</ele>
        <time>2025-09-27T10:10:56.000Z</time>
      </trkpt>
      <trkpt lat="42.81952" lon="1.38316">
        <ele>1154</ele>
        <time>2025-09-27T10:10:57.000Z</time>
      </trkpt>
      <trkpt lat="42.81954" lon="1.38318">
        <ele>1155</ele>
        <time>2025-09-27T10:10:58.000Z</time>
      </trkpt>
      <trkpt lat="42.81956" lon="1.38322">
        <ele>1154</ele>
        <time>2025-09-27T10:10:59.000Z</time>
      </trkpt>
      <trkpt lat="42.81957" lon="1.38325">
        <ele>1155</ele>
        <time>2025-09-27T10:11:00.000Z</time>
      </trkpt>
      <trkpt lat="42.81958" lon="1.38327">
        <ele>1155</ele>
        <time>2025-09-27T10:11:01.000Z</time>
      </trkpt>
      <trkpt lat="42.8196" lon="1.3833">
        <ele>1156</ele>
        <time>2025-09-27T10:11:02.000Z</time>
      </trkpt>
      <trkpt lat="42.81962" lon="1.38333">
        <ele>1156</ele>
        <time>2025-09-27T10:11:03.000Z</time>
      </trkpt>
      <trkpt lat="42.81964" lon="1.38337">
        <ele>1156</ele>
        <time>2025-09-27T10:11:04.000Z</time>
      </trkpt>
      <trkpt lat="42.81966" lon="1.3834">
        <ele>1157</ele>
        <time>2025-09-27T10:11:05.000Z</time>
      </trkpt>
      <trkpt lat="42.81968" lon="1.38343">
        <ele>1157</ele>
        <time>2025-09-27T10:11:06.000Z</time>
      </trkpt>
      <trkpt lat="42.81969" lon="1.38346">
        <ele>1157</ele>
        <time>2025-09-27T10:11:07.000Z</time>
      </trkpt>
      <trkpt lat="42.81971" lon="1.38349">
        <ele>1158</ele>
        <time>2025-09-27T10:11:08.000Z</time>
      </trkpt>
      <trkpt lat="42.81973" lon="1.38352">
        <ele>1158</ele>
        <time>2025-09-27T10:11:09.000Z</time>
      </trkpt>
      <trkpt lat="42.81975" lon="1.38355">
        <ele>1158</ele>
        <time>2025-09-27T10:11:10.000Z</time>
      </trkpt>
      <trkpt lat="42.81978" lon="1.38357">
        <ele>1158</ele>
        <time>2025-09-27T10:11:11.000Z</time>
      </trkpt>
      <trkpt lat="42.8198" lon="1.38359">
        <ele>1159</ele>
        <time>2025-09-27T10:11:12.000Z</time>
      </trkpt>
      <trkpt lat="42.81982" lon="1.38361">
        <ele>1159</ele>
        <time>2025-09-27T10:11:13.000Z</time>
      </trkpt>
      <trkpt lat="42.81985" lon="1.38363">
        <ele>1159</ele>
        <time>2025-09-27T10:11:14.000Z</time>
      </trkpt>
      <trkpt lat="42.81988" lon="1.38364">
        <ele>1159</ele>
        <time>2025-09-27T10:11:15.000Z</time>
      </trkpt>
      <trkpt lat="42.8199" lon="1.38365">
        <ele>1159</ele>
        <time>2025-09-27T10:11:16.000Z</time>
      </trkpt>
      <trkpt lat="42.81992" lon="1.38367">
        <ele>1159</ele>
        <time>2025-09-27T10:11:17.000Z</time>
      </trkpt>
      <trkpt lat="42.81994" lon="1.38368">
        <ele>1160</ele>
        <time>2025-09-27T10:11:18.000Z</time>
      </trkpt>
      <trkpt lat="42.81996" lon="1.38369">
        <ele>1160</ele>
        <time>2025-09-27T10:11:19.000Z</time>
      </trkpt>
      <trkpt lat="42.81998" lon="1.3837">
        <ele>1160</ele>
        <time>2025-09-27T10:11:20.000Z</time>
      </trkpt>
      <trkpt lat="42.82001" lon="1.38371">
        <ele>1160</ele>
        <time>2025-09-27T10:11:21.000Z</time>
      </trkpt>
      <trkpt lat="42.82003" lon="1.38371">
        <ele>1160</ele>
        <time>2025-09-27T10:11:22.000Z</time>
      </trkpt>
      <trkpt lat="42.82006" lon="1.38372">
        <ele>1160</ele>
        <time>2025-09-27T10:11:23.000Z</time>
      </trkpt>
      <trkpt lat="42.82008" lon="1.38372">
        <ele>1160</ele>
        <time>2025-09-27T10:11:24.000Z</time>
      </trkpt>
      <trkpt lat="42.8201" lon="1.38374">
        <ele>1161</ele>
        <time>2025-09-27T10:11:25.000Z</time>
      </trkpt>
      <trkpt lat="42.82011" lon="1.38378">
        <ele>1161</ele>
        <time>2025-09-27T10:11:26.000Z</time>
      </trkpt>
      <trkpt lat="42.82012" lon="1.38381">
        <ele>1161</ele>
        <time>2025-09-27T10:11:27.000Z</time>
      </trkpt>
      <trkpt lat="42.82011" lon="1.38383">
        <ele>1162</ele>
        <time>2025-09-27T10:11:28.000Z</time>
      </trkpt>
      <trkpt lat="42.82009" lon="1.38384">
        <ele>1162</ele>
        <time>2025-09-27T10:11:29.000Z</time>
      </trkpt>
      <trkpt lat="42.82007" lon="1.38384">
        <ele>1162</ele>
        <time>2025-09-27T10:11:30.000Z</time>
      </trkpt>
      <trkpt lat="42.82005" lon="1.38384">
        <ele>1162</ele>
        <time>2025-09-27T10:11:31.000Z</time>
      </trkpt>
      <trkpt lat="42.82002" lon="1.38383">
        <ele>1162</ele>
        <time>2025-09-27T10:11:32.000Z</time>
      </trkpt>
      <trkpt lat="42.82" lon="1.38383">
        <ele>1163</ele>
        <time>2025-09-27T10:11:33.000Z</time>
      </trkpt>
      <trkpt lat="42.81997" lon="1.38383">
        <ele>1163</ele>
        <time>2025-09-27T10:11:34.000Z</time>
      </trkpt>
      <trkpt lat="42.81994" lon="1.38383">
        <ele>1163</ele>
        <time>2025-09-27T10:11:35.000Z</time>
      </trkpt>
      <trkpt lat="42.81992" lon="1.38383">
        <ele>1163</ele>
        <time>2025-09-27T10:11:36.000Z</time>
      </trkpt>
      <trkpt lat="42.81989" lon="1.38383">
        <ele>1164</ele>
        <time>2025-09-27T10:11:37.000Z</time>
      </trkpt>
      <trkpt lat="42.81987" lon="1.38383">
        <ele>1164</ele>
        <time>2025-09-27T10:11:38.000Z</time>
      </trkpt>
      <trkpt lat="42.81985" lon="1.38383">
        <ele>1163</ele>
        <time>2025-09-27T10:11:39.000Z</time>
      </trkpt>
      <trkpt lat="42.81982" lon="1.38384">
        <ele>1164</ele>
        <time>2025-09-27T10:11:40.000Z</time>
      </trkpt>
      <trkpt lat="42.8198" lon="1.38384">
        <ele>1165</ele>
        <time>2025-09-27T10:11:41.000Z</time>
      </trkpt>
      <trkpt lat="42.81978" lon="1.38385">
        <ele>1165</ele>
        <time>2025-09-27T10:11:42.000Z</time>
      </trkpt>
      <trkpt lat="42.81975" lon="1.38385">
        <ele>1165</ele>
        <time>2025-09-27T10:11:43.000Z</time>
      </trkpt>
      <trkpt lat="42.81973" lon="1.38387">
        <ele>1165</ele>
        <time>2025-09-27T10:11:44.000Z</time>
      </trkpt>
      <trkpt lat="42.8197" lon="1.38387">
        <ele>1165</ele>
        <time>2025-09-27T10:11:45.000Z</time>
      </trkpt>
      <trkpt lat="42.81968" lon="1.38388">
        <ele>1166</ele>
        <time>2025-09-27T10:11:46.000Z</time>
      </trkpt>
      <trkpt lat="42.81966" lon="1.38388">
        <ele>1165</ele>
        <time>2025-09-27T10:11:47.000Z</time>
      </trkpt>
      <trkpt lat="42.81963" lon="1.38389">
        <ele>1166</ele>
        <time>2025-09-27T10:11:48.000Z</time>
      </trkpt>
      <trkpt lat="42.81962" lon="1.38389">
        <ele>1166</ele>
        <time>2025-09-27T10:11:49.000Z</time>
      </trkpt>
      <trkpt lat="42.81959" lon="1.3839">
        <ele>1166</ele>
        <time>2025-09-27T10:11:50.000Z</time>
      </trkpt>
      <trkpt lat="42.81957" lon="1.38391">
        <ele>1167</ele>
        <time>2025-09-27T10:11:51.000Z</time>
      </trkpt>
      <trkpt lat="42.81955" lon="1.38391">
        <ele>1167</ele>
        <time>2025-09-27T10:11:52.000Z</time>
      </trkpt>
      <trkpt lat="42.81952" lon="1.38391">
        <ele>1167</ele>
        <time>2025-09-27T10:11:53.000Z</time>
      </trkpt>
      <trkpt lat="42.8195" lon="1.38391">
        <ele>1167</ele>
        <time>2025-09-27T10:11:54.000Z</time>
      </trkpt>
      <trkpt lat="42.81948" lon="1.38391">
        <ele>1167</ele>
        <time>2025-09-27T10:11:55.000Z</time>
      </trkpt>
      <trkpt lat="42.81945" lon="1.3839">
        <ele>1167</ele>
        <time>2025-09-27T10:11:56.000Z</time>
      </trkpt>
      <trkpt lat="42.81943" lon="1.38388">
        <ele>1168</ele>
        <time>2025-09-27T10:11:57.000Z</time>
      </trkpt>
      <trkpt lat="42.81941" lon="1.38388">
        <ele>1168</ele>
        <time>2025-09-27T10:11:58.000Z</time>
      </trkpt>
      <trkpt lat="42.81939" lon="1.38386">
        <ele>1168</ele>
        <time>2025-09-27T10:11:59.000Z</time>
      </trkpt>
      <trkpt lat="42.81937" lon="1.38384">
        <ele>1169</ele>
        <time>2025-09-27T10:12:00.000Z</time>
      </trkpt>
      <trkpt lat="42.81935" lon="1.38382">
        <ele>1169</ele>
        <time>2025-09-27T10:12:01.000Z</time>
      </trkpt>
      <trkpt lat="42.81934" lon="1.3838">
        <ele>1169</ele>
        <time>2025-09-27T10:12:02.000Z</time>
      </trkpt>
      <trkpt lat="42.81932" lon="1.38378">
        <ele>1169</ele>
        <time>2025-09-27T10:12:03.000Z</time>
      </trkpt>
      <trkpt lat="42.81931" lon="1.38376">
        <ele>1169</ele>
        <time>2025-09-27T10:12:04.000Z</time>
      </trkpt>
      <trkpt lat="42.8193" lon="1.38373">
        <ele>1170</ele>
        <time>2025-09-27T10:12:05.000Z</time>
      </trkpt>
      <trkpt lat="42.81929" lon="1.38371">
        <ele>1170</ele>
        <time>2025-09-27T10:12:06.000Z</time>
      </trkpt>
      <trkpt lat="42.81927" lon="1.38369">
        <ele>1170</ele>
        <time>2025-09-27T10:12:07.000Z</time>
      </trkpt>
      <trkpt lat="42.81926" lon="1.38367">
        <ele>1171</ele>
        <time>2025-09-27T10:12:08.000Z</time>
      </trkpt>
      <trkpt lat="42.81925" lon="1.38365">
        <ele>1171</ele>
        <time>2025-09-27T10:12:09.000Z</time>
      </trkpt>
      <trkpt lat="42.81923" lon="1.38362">
        <ele>1171</ele>
        <time>2025-09-27T10:12:10.000Z</time>
      </trkpt>
      <trkpt lat="42.81922" lon="1.3836">
        <ele>1172</ele>
        <time>2025-09-27T10:12:11.000Z</time>
      </trkpt>
      <trkpt lat="42.8192" lon="1.38358">
        <ele>1172</ele>
        <time>2025-09-27T10:12:12.000Z</time>
      </trkpt>
      <trkpt lat="42.81918" lon="1.38356">
        <ele>1172</ele>
        <time>2025-09-27T10:12:13.000Z</time>
      </trkpt>
      <trkpt lat="42.81915" lon="1.38355">
        <ele>1172</ele>
        <time>2025-09-27T10:12:14.000Z</time>
      </trkpt>
      <trkpt lat="42.81913" lon="1.38354">
        <ele>1173</ele>
        <time>2025-09-27T10:12:15.000Z</time>
      </trkpt>
      <trkpt lat="42.8191" lon="1.38354">
        <ele>1173</ele>
        <time>2025-09-27T10:12:16.000Z</time>
      </trkpt>
      <trkpt lat="42.81908" lon="1.38354">
        <ele>1173</ele>
        <time>2025-09-27T10:12:17.000Z</time>
      </trkpt>
      <trkpt lat="42.81905" lon="1.38354">
        <ele>1173</ele>
        <time>2025-09-27T10:12:18.000Z</time>
      </trkpt>
      <trkpt lat="42.81903" lon="1.38355">
        <ele>1173</ele>
        <time>2025-09-27T10:12:19.000Z</time>
      </trkpt>
      <trkpt lat="42.819" lon="1.38356">
        <ele>1174</ele>
        <time>2025-09-27T10:12:20.000Z</time>
      </trkpt>
      <trkpt lat="42.81898" lon="1.38357">
        <ele>1174</ele>
        <time>2025-09-27T10:12:21.000Z</time>
      </trkpt>
      <trkpt lat="42.81895" lon="1.38359">
        <ele>1175</ele>
        <time>2025-09-27T10:12:22.000Z</time>
      </trkpt>
      <trkpt lat="42.81893" lon="1.3836">
        <ele>1175</ele>
        <time>2025-09-27T10:12:23.000Z</time>
      </trkpt>
      <trkpt lat="42.81891" lon="1.38362">
        <ele>1175</ele>
        <time>2025-09-27T10:12:24.000Z</time>
      </trkpt>
      <trkpt lat="42.81888" lon="1.38363">
        <ele>1175</ele>
        <time>2025-09-27T10:12:25.000Z</time>
      </trkpt>
      <trkpt lat="42.81886" lon="1.38365">
        <ele>1176</ele>
        <time>2025-09-27T10:12:26.000Z</time>
      </trkpt>
      <trkpt lat="42.81884" lon="1.38366">
        <ele>1176</ele>
        <time>2025-09-27T10:12:27.000Z</time>
      </trkpt>
      <trkpt lat="42.81882" lon="1.38368">
        <ele>1176</ele>
        <time>2025-09-27T10:12:28.000Z</time>
      </trkpt>
      <trkpt lat="42.81881" lon="1.3837">
        <ele>1176</ele>
        <time>2025-09-27T10:12:29.000Z</time>
      </trkpt>
      <trkpt lat="42.81879" lon="1.38372">
        <ele>1176</ele>
        <time>2025-09-27T10:12:30.000Z</time>
      </trkpt>
      <trkpt lat="42.81878" lon="1.38374">
        <ele>1177</ele>
        <time>2025-09-27T10:12:31.000Z</time>
      </trkpt>
      <trkpt lat="42.81877" lon="1.38376">
        <ele>1177</ele>
        <time>2025-09-27T10:12:32.000Z</time>
      </trkpt>
      <trkpt lat="42.81875" lon="1.38379">
        <ele>1177</ele>
        <time>2025-09-27T10:12:33.000Z</time>
      </trkpt>
      <trkpt lat="42.81873" lon="1.38382">
        <ele>1177</ele>
        <time>2025-09-27T10:12:34.000Z</time>
      </trkpt>
      <trkpt lat="42.81871" lon="1.38384">
        <ele>1178</ele>
        <time>2025-09-27T10:12:35.000Z</time>
      </trkpt>
      <trkpt lat="42.81869" lon="1.38387">
        <ele>1178</ele>
        <time>2025-09-27T10:12:36.000Z</time>
      </trkpt>
      <trkpt lat="42.81868" lon="1.38389">
        <ele>1178</ele>
        <time>2025-09-27T10:12:37.000Z</time>
      </trkpt>
      <trkpt lat="42.81866" lon="1.38392">
        <ele>1177</ele>
        <time>2025-09-27T10:12:38.000Z</time>
      </trkpt>
      <trkpt lat="42.81865" lon="1.38395">
        <ele>1178</ele>
        <time>2025-09-27T10:12:39.000Z</time>
      </trkpt>
      <trkpt lat="42.81863" lon="1.38398">
        <ele>1178</ele>
        <time>2025-09-27T10:12:40.000Z</time>
      </trkpt>
      <trkpt lat="42.81862" lon="1.384">
        <ele>1179</ele>
        <time>2025-09-27T10:12:41.000Z</time>
      </trkpt>
      <trkpt lat="42.81861" lon="1.38403">
        <ele>1179</ele>
        <time>2025-09-27T10:12:42.000Z</time>
      </trkpt>
      <trkpt lat="42.81859" lon="1.38406">
        <ele>1179</ele>
        <time>2025-09-27T10:12:43.000Z</time>
      </trkpt>
      <trkpt lat="42.81858" lon="1.38409">
        <ele>1179</ele>
        <time>2025-09-27T10:12:44.000Z</time>
      </trkpt>
      <trkpt lat="42.81856" lon="1.38412">
        <ele>1179</ele>
        <time>2025-09-27T10:12:45.000Z</time>
      </trkpt>
      <trkpt lat="42.81855" lon="1.38415">
        <ele>1179</ele>
        <time>2025-09-27T10:12:46.000Z</time>
      </trkpt>
      <trkpt lat="42.81853" lon="1.38418">
        <ele>1180</ele>
        <time>2025-09-27T10:12:47.000Z</time>
      </trkpt>
      <trkpt lat="42.81852" lon="1.38421">
        <ele>1180</ele>
        <time>2025-09-27T10:12:48.000Z</time>
      </trkpt>
      <trkpt lat="42.81851" lon="1.38424">
        <ele>1180</ele>
        <time>2025-09-27T10:12:49.000Z</time>
      </trkpt>
      <trkpt lat="42.81849" lon="1.38427">
        <ele>1181</ele>
        <time>2025-09-27T10:12:50.000Z</time>
      </trkpt>
      <trkpt lat="42.81848" lon="1.38431">
        <ele>1181</ele>
        <time>2025-09-27T10:12:51.000Z</time>
      </trkpt>
      <trkpt lat="42.81846" lon="1.38433">
        <ele>1182</ele>
        <time>2025-09-27T10:12:52.000Z</time>
      </trkpt>
      <trkpt lat="42.81845" lon="1.38436">
        <ele>1183</ele>
        <time>2025-09-27T10:12:53.000Z</time>
      </trkpt>
      <trkpt lat="42.81843" lon="1.38438">
        <ele>1183</ele>
        <time>2025-09-27T10:12:54.000Z</time>
      </trkpt>
      <trkpt lat="42.81842" lon="1.38441">
        <ele>1183</ele>
        <time>2025-09-27T10:12:55.000Z</time>
      </trkpt>
      <trkpt lat="42.8184" lon="1.38444">
        <ele>1184</ele>
        <time>2025-09-27T10:12:56.000Z</time>
      </trkpt>
      <trkpt lat="42.81839" lon="1.38447">
        <ele>1183</ele>
        <time>2025-09-27T10:12:57.000Z</time>
      </trkpt>
      <trkpt lat="42.81837" lon="1.3845">
        <ele>1183</ele>
        <time>2025-09-27T10:12:58.000Z</time>
      </trkpt>
      <trkpt lat="42.81836" lon="1.38452">
        <ele>1183</ele>
        <time>2025-09-27T10:12:59.000Z</time>
      </trkpt>
      <trkpt lat="42.81834" lon="1.38455">
        <ele>1182</ele>
        <time>2025-09-27T10:13:00.000Z</time>
      </trkpt>
      <trkpt lat="42.81832" lon="1.38458">
        <ele>1182</ele>
        <time>2025-09-27T10:13:01.000Z</time>
      </trkpt>
      <trkpt lat="42.81831" lon="1.38461">
        <ele>1182</ele>
        <time>2025-09-27T10:13:02.000Z</time>
      </trkpt>
      <trkpt lat="42.81829" lon="1.38464">
        <ele>1183</ele>
        <time>2025-09-27T10:13:03.000Z</time>
      </trkpt>
      <trkpt lat="42.81828" lon="1.38467">
        <ele>1184</ele>
        <time>2025-09-27T10:13:04.000Z</time>
      </trkpt>
      <trkpt lat="42.81826" lon="1.38471">
        <ele>1184</ele>
        <time>2025-09-27T10:13:05.000Z</time>
      </trkpt>
      <trkpt lat="42.81825" lon="1.38474">
        <ele>1184</ele>
        <time>2025-09-27T10:13:06.000Z</time>
      </trkpt>
      <trkpt lat="42.81823" lon="1.38478">
        <ele>1184</ele>
        <time>2025-09-27T10:13:07.000Z</time>
      </trkpt>
      <trkpt lat="42.81822" lon="1.38481">
        <ele>1185</ele>
        <time>2025-09-27T10:13:08.000Z</time>
      </trkpt>
      <trkpt lat="42.8182" lon="1.38484">
        <ele>1185</ele>
        <time>2025-09-27T10:13:09.000Z</time>
      </trkpt>
      <trkpt lat="42.81818" lon="1.38487">
        <ele>1185</ele>
        <time>2025-09-27T10:13:10.000Z</time>
      </trkpt>
      <trkpt lat="42.81816" lon="1.38489">
        <ele>1186</ele>
        <time>2025-09-27T10:13:11.000Z</time>
      </trkpt>
      <trkpt lat="42.81815" lon="1.38492">
        <ele>1186</ele>
        <time>2025-09-27T10:13:12.000Z</time>
      </trkpt>
      <trkpt lat="42.81813" lon="1.38495">
        <ele>1186</ele>
        <time>2025-09-27T10:13:13.000Z</time>
      </trkpt>
      <trkpt lat="42.81812" lon="1.38498">
        <ele>1187</ele>
        <time>2025-09-27T10:13:14.000Z</time>
      </trkpt>
      <trkpt lat="42.81811" lon="1.38501">
        <ele>1187</ele>
        <time>2025-09-27T10:13:15.000Z</time>
      </trkpt>
      <trkpt lat="42.81809" lon="1.38504">
        <ele>1187</ele>
        <time>2025-09-27T10:13:16.000Z</time>
      </trkpt>
      <trkpt lat="42.81808" lon="1.38506">
        <ele>1188</ele>
        <time>2025-09-27T10:13:17.000Z</time>
      </trkpt>
      <trkpt lat="42.81806" lon="1.38509">
        <ele>1187</ele>
        <time>2025-09-27T10:13:18.000Z</time>
      </trkpt>
      <trkpt lat="42.81805" lon="1.3851">
        <ele>1187</ele>
        <time>2025-09-27T10:13:19.000Z</time>
      </trkpt>
      <trkpt lat="42.81803" lon="1.38513">
        <ele>1187</ele>
        <time>2025-09-27T10:13:20.000Z</time>
      </trkpt>
      <trkpt lat="42.81802" lon="1.38516">
        <ele>1187</ele>
        <time>2025-09-27T10:13:21.000Z</time>
      </trkpt>
      <trkpt lat="42.818" lon="1.38518">
        <ele>1187</ele>
        <time>2025-09-27T10:13:22.000Z</time>
      </trkpt>
      <trkpt lat="42.81798" lon="1.38521">
        <ele>1187</ele>
        <time>2025-09-27T10:13:23.000Z</time>
      </trkpt>
      <trkpt lat="42.81797" lon="1.38523">
        <ele>1186</ele>
        <time>2025-09-27T10:13:24.000Z</time>
      </trkpt>
      <trkpt lat="42.81795" lon="1.38526">
        <ele>1187</ele>
        <time>2025-09-27T10:13:25.000Z</time>
      </trkpt>
      <trkpt lat="42.81793" lon="1.38528">
        <ele>1188</ele>
        <time>2025-09-27T10:13:26.000Z</time>
      </trkpt>
      <trkpt lat="42.81792" lon="1.38531">
        <ele>1188</ele>
        <time>2025-09-27T10:13:27.000Z</time>
      </trkpt>
      <trkpt lat="42.8179" lon="1.38533">
        <ele>1188</ele>
        <time>2025-09-27T10:13:28.000Z</time>
      </trkpt>
      <trkpt lat="42.81788" lon="1.38536">
        <ele>1188</ele>
        <time>2025-09-27T10:13:29.000Z</time>
      </trkpt>
      <trkpt lat="42.81786" lon="1.38538">
        <ele>1189</ele>
        <time>2025-09-27T10:13:30.000Z</time>
      </trkpt>
      <trkpt lat="42.81785" lon="1.3854">
        <ele>1189</ele>
        <time>2025-09-27T10:13:31.000Z</time>
      </trkpt>
      <trkpt lat="42.81784" lon="1.38543">
        <ele>1190</ele>
        <time>2025-09-27T10:13:32.000Z</time>
      </trkpt>
      <trkpt lat="42.81782" lon="1.38546">
        <ele>1190</ele>
        <time>2025-09-27T10:13:33.000Z</time>
      </trkpt>
      <trkpt lat="42.8178" lon="1.38548">
        <ele>1190</ele>
        <time>2025-09-27T10:13:34.000Z</time>
      </trkpt>
      <trkpt lat="42.81779" lon="1.38551">
        <ele>1191</ele>
        <time>2025-09-27T10:13:35.000Z</time>
      </trkpt>
      <trkpt lat="42.81777" lon="1.38553">
        <ele>1191</ele>
        <time>2025-09-27T10:13:36.000Z</time>
      </trkpt>
      <trkpt lat="42.81776" lon="1.38555">
        <ele>1192</ele>
        <time>2025-09-27T10:13:37.000Z</time>
      </trkpt>
      <trkpt lat="42.81774" lon="1.38557">
        <ele>1192</ele>
        <time>2025-09-27T10:13:38.000Z</time>
      </trkpt>
      <trkpt lat="42.81772" lon="1.38559">
        <ele>1192</ele>
        <time>2025-09-27T10:13:39.000Z</time>
      </trkpt>
      <trkpt lat="42.81771" lon="1.38561">
        <ele>1193</ele>
        <time>2025-09-27T10:13:40.000Z</time>
      </trkpt>
      <trkpt lat="42.81769" lon="1.38564">
        <ele>1193</ele>
        <time>2025-09-27T10:13:41.000Z</time>
      </trkpt>
      <trkpt lat="42.81768" lon="1.38565">
        <ele>1194</ele>
        <time>2025-09-27T10:13:42.000Z</time>
      </trkpt>
      <trkpt lat="42.81766" lon="1.38568">
        <ele>1195</ele>
        <time>2025-09-27T10:13:43.000Z</time>
      </trkpt>
      <trkpt lat="42.81764" lon="1.3857">
        <ele>1195</ele>
        <time>2025-09-27T10:13:44.000Z</time>
      </trkpt>
      <trkpt lat="42.81762" lon="1.38572">
        <ele>1195</ele>
        <time>2025-09-27T10:13:45.000Z</time>
      </trkpt>
      <trkpt lat="42.8176" lon="1.38575">
        <ele>1195</ele>
        <time>2025-09-27T10:13:46.000Z</time>
      </trkpt>
      <trkpt lat="42.81759" lon="1.38578">
        <ele>1196</ele>
        <time>2025-09-27T10:13:47.000Z</time>
      </trkpt>
      <trkpt lat="42.81757" lon="1.3858">
        <ele>1196</ele>
        <time>2025-09-27T10:13:48.000Z</time>
      </trkpt>
      <trkpt lat="42.81756" lon="1.38583">
        <ele>1196</ele>
        <time>2025-09-27T10:13:49.000Z</time>
      </trkpt>
      <trkpt lat="42.81754" lon="1.38586">
        <ele>1197</ele>
        <time>2025-09-27T10:13:50.000Z</time>
      </trkpt>
      <trkpt lat="42.81752" lon="1.38589">
        <ele>1197</ele>
        <time>2025-09-27T10:13:51.000Z</time>
      </trkpt>
      <trkpt lat="42.81751" lon="1.38592">
        <ele>1197</ele>
        <time>2025-09-27T10:13:52.000Z</time>
      </trkpt>
      <trkpt lat="42.81749" lon="1.38594">
        <ele>1197</ele>
        <time>2025-09-27T10:13:53.000Z</time>
      </trkpt>
      <trkpt lat="42.81747" lon="1.38597">
        <ele>1197</ele>
        <time>2025-09-27T10:13:54.000Z</time>
      </trkpt>
      <trkpt lat="42.81746" lon="1.38599">
        <ele>1197</ele>
        <time>2025-09-27T10:13:55.000Z</time>
      </trkpt>
      <trkpt lat="42.81745" lon="1.38602">
        <ele>1199</ele>
        <time>2025-09-27T10:13:56.000Z</time>
      </trkpt>
      <trkpt lat="42.81743" lon="1.38604">
        <ele>1199</ele>
        <time>2025-09-27T10:13:57.000Z</time>
      </trkpt>
      <trkpt lat="42.81741" lon="1.38607">
        <ele>1199</ele>
        <time>2025-09-27T10:13:58.000Z</time>
      </trkpt>
      <trkpt lat="42.81739" lon="1.3861">
        <ele>1199</ele>
        <time>2025-09-27T10:13:59.000Z</time>
      </trkpt>
      <trkpt lat="42.81738" lon="1.38613">
        <ele>1200</ele>
        <time>2025-09-27T10:14:00.000Z</time>
      </trkpt>
      <trkpt lat="42.81736" lon="1.38616">
        <ele>1201</ele>
        <time>2025-09-27T10:14:01.000Z</time>
      </trkpt>
      <trkpt lat="42.81734" lon="1.38619">
        <ele>1202</ele>
        <time>2025-09-27T10:14:02.000Z</time>
      </trkpt>
      <trkpt lat="42.81733" lon="1.38622">
        <ele>1201</ele>
        <time>2025-09-27T10:14:03.000Z</time>
      </trkpt>
      <trkpt lat="42.81733" lon="1.38626">
        <ele>1202</ele>
        <time>2025-09-27T10:14:04.000Z</time>
      </trkpt>
      <trkpt lat="42.81733" lon="1.38629">
        <ele>1202</ele>
        <time>2025-09-27T10:14:05.000Z</time>
      </trkpt>
      <trkpt lat="42.81734" lon="1.38632">
        <ele>1202</ele>
        <time>2025-09-27T10:14:06.000Z</time>
      </trkpt>
      <trkpt lat="42.81736" lon="1.38635">
        <ele>1203</ele>
        <time>2025-09-27T10:14:07.000Z</time>
      </trkpt>
      <trkpt lat="42.81739" lon="1.38638">
        <ele>1202</ele>
        <time>2025-09-27T10:14:08.000Z</time>
      </trkpt>
      <trkpt lat="42.81742" lon="1.38639">
        <ele>1202</ele>
        <time>2025-09-27T10:14:09.000Z</time>
      </trkpt>
      <trkpt lat="42.81745" lon="1.38639">
        <ele>1202</ele>
        <time>2025-09-27T10:14:10.000Z</time>
      </trkpt>
      <trkpt lat="42.81748" lon="1.38638">
        <ele>1202</ele>
        <time>2025-09-27T10:14:11.000Z</time>
      </trkpt>
      <trkpt lat="42.8175" lon="1.38637">
        <ele>1202</ele>
        <time>2025-09-27T10:14:12.000Z</time>
      </trkpt>
      <trkpt lat="42.81753" lon="1.38637">
        <ele>1202</ele>
        <time>2025-09-27T10:14:13.000Z</time>
      </trkpt>
      <trkpt lat="42.81755" lon="1.38635">
        <ele>1202</ele>
        <time>2025-09-27T10:14:14.000Z</time>
      </trkpt>
      <trkpt lat="42.81757" lon="1.38633">
        <ele>1202</ele>
        <time>2025-09-27T10:14:15.000Z</time>
      </trkpt>
      <trkpt lat="42.81759" lon="1.3863">
        <ele>1202</ele>
        <time>2025-09-27T10:14:16.000Z</time>
      </trkpt>
      <trkpt lat="42.81761" lon="1.38628">
        <ele>1203</ele>
        <time>2025-09-27T10:14:17.000Z</time>
      </trkpt>
      <trkpt lat="42.81763" lon="1.38625">
        <ele>1203</ele>
        <time>2025-09-27T10:14:18.000Z</time>
      </trkpt>
      <trkpt lat="42.81765" lon="1.38623">
        <ele>1203</ele>
        <time>2025-09-27T10:14:19.000Z</time>
      </trkpt>
      <trkpt lat="42.81767" lon="1.3862">
        <ele>1204</ele>
        <time>2025-09-27T10:14:20.000Z</time>
      </trkpt>
      <trkpt lat="42.81769" lon="1.38618">
        <ele>1205</ele>
        <time>2025-09-27T10:14:21.000Z</time>
      </trkpt>
      <trkpt lat="42.81771" lon="1.38616">
        <ele>1205</ele>
        <time>2025-09-27T10:14:22.000Z</time>
      </trkpt>
      <trkpt lat="42.81773" lon="1.38614">
        <ele>1205</ele>
        <time>2025-09-27T10:14:23.000Z</time>
      </trkpt>
      <trkpt lat="42.81775" lon="1.38613">
        <ele>1205</ele>
        <time>2025-09-27T10:14:24.000Z</time>
      </trkpt>
      <trkpt lat="42.81778" lon="1.38611">
        <ele>1205</ele>
        <time>2025-09-27T10:14:25.000Z</time>
      </trkpt>
      <trkpt lat="42.8178" lon="1.3861">
        <ele>1205</ele>
        <time>2025-09-27T10:14:26.000Z</time>
      </trkpt>
      <trkpt lat="42.81783" lon="1.38609">
        <ele>1205</ele>
        <time>2025-09-27T10:14:27.000Z</time>
      </trkpt>
      <trkpt lat="42.81785" lon="1.38608">
        <ele>1206</ele>
        <time>2025-09-27T10:14:28.000Z</time>
      </trkpt>
      <trkpt lat="42.81787" lon="1.38607">
        <ele>1206</ele>
        <time>2025-09-27T10:14:29.000Z</time>
      </trkpt>
      <trkpt lat="42.8179" lon="1.38606">
        <ele>1206</ele>
        <time>2025-09-27T10:14:30.000Z</time>
      </trkpt>
      <trkpt lat="42.81792" lon="1.38605">
        <ele>1207</ele>
        <time>2025-09-27T10:14:31.000Z</time>
      </trkpt>
      <trkpt lat="42.81795" lon="1.38604">
        <ele>1207</ele>
        <time>2025-09-27T10:14:32.000Z</time>
      </trkpt>
      <trkpt lat="42.81798" lon="1.38604">
        <ele>1207</ele>
        <time>2025-09-27T10:14:33.000Z</time>
      </trkpt>
      <trkpt lat="42.81801" lon="1.38603">
        <ele>1207</ele>
        <time>2025-09-27T10:14:34.000Z</time>
      </trkpt>
      <trkpt lat="42.81803" lon="1.38603">
        <ele>1207</ele>
        <time>2025-09-27T10:14:35.000Z</time>
      </trkpt>
      <trkpt lat="42.81806" lon="1.38603">
        <ele>1207</ele>
        <time>2025-09-27T10:14:36.000Z</time>
      </trkpt>
      <trkpt lat="42.81809" lon="1.38602">
        <ele>1207</ele>
        <time>2025-09-27T10:14:37.000Z</time>
      </trkpt>
      <trkpt lat="42.81811" lon="1.38601">
        <ele>1207</ele>
        <time>2025-09-27T10:14:38.000Z</time>
      </trkpt>
      <trkpt lat="42.81814" lon="1.386">
        <ele>1207</ele>
        <time>2025-09-27T10:14:39.000Z</time>
      </trkpt>
      <trkpt lat="42.81817" lon="1.38599">
        <ele>1207</ele>
        <time>2025-09-27T10:14:40.000Z</time>
      </trkpt>
      <trkpt lat="42.81819" lon="1.38598">
        <ele>1207</ele>
        <time>2025-09-27T10:14:41.000Z</time>
      </trkpt>
      <trkpt lat="42.81822" lon="1.38597">
        <ele>1207</ele>
        <time>2025-09-27T10:14:42.000Z</time>
      </trkpt>
      <trkpt lat="42.81824" lon="1.38595">
        <ele>1208</ele>
        <time>2025-09-27T10:14:43.000Z</time>
      </trkpt>
      <trkpt lat="42.81826" lon="1.38594">
        <ele>1208</ele>
        <time>2025-09-27T10:14:44.000Z</time>
      </trkpt>
      <trkpt lat="42.81829" lon="1.38593">
        <ele>1208</ele>
        <time>2025-09-27T10:14:45.000Z</time>
      </trkpt>
      <trkpt lat="42.81831" lon="1.38592">
        <ele>1208</ele>
        <time>2025-09-27T10:14:46.000Z</time>
      </trkpt>
      <trkpt lat="42.81833" lon="1.3859">
        <ele>1209</ele>
        <time>2025-09-27T10:14:47.000Z</time>
      </trkpt>
      <trkpt lat="42.81836" lon="1.38589">
        <ele>1209</ele>
        <time>2025-09-27T10:14:48.000Z</time>
      </trkpt>
      <trkpt lat="42.81838" lon="1.38588">
        <ele>1209</ele>
        <time>2025-09-27T10:14:49.000Z</time>
      </trkpt>
      <trkpt lat="42.81841" lon="1.38586">
        <ele>1209</ele>
        <time>2025-09-27T10:14:50.000Z</time>
      </trkpt>
      <trkpt lat="42.81844" lon="1.38585">
        <ele>1209</ele>
        <time>2025-09-27T10:14:51.000Z</time>
      </trkpt>
      <trkpt lat="42.81846" lon="1.38584">
        <ele>1209</ele>
        <time>2025-09-27T10:14:52.000Z</time>
      </trkpt>
      <trkpt lat="42.81849" lon="1.38582">
        <ele>1209</ele>
        <time>2025-09-27T10:14:53.000Z</time>
      </trkpt>
      <trkpt lat="42.81851" lon="1.38581">
        <ele>1210</ele>
        <time>2025-09-27T10:14:54.000Z</time>
      </trkpt>
      <trkpt lat="42.81853" lon="1.3858">
        <ele>1209</ele>
        <time>2025-09-27T10:14:55.000Z</time>
      </trkpt>
      <trkpt lat="42.81855" lon="1.38578">
        <ele>1210</ele>
        <time>2025-09-27T10:14:56.000Z</time>
      </trkpt>
      <trkpt lat="42.81858" lon="1.38577">
        <ele>1210</ele>
        <time>2025-09-27T10:14:57.000Z</time>
      </trkpt>
      <trkpt lat="42.81861" lon="1.38576">
        <ele>1210</ele>
        <time>2025-09-27T10:14:58.000Z</time>
      </trkpt>
      <trkpt lat="42.81864" lon="1.38574">
        <ele>1210</ele>
        <time>2025-09-27T10:14:59.000Z</time>
      </trkpt>
      <trkpt lat="42.81866" lon="1.38572">
        <ele>1211</ele>
        <time>2025-09-27T10:15:00.000Z</time>
      </trkpt>
      <trkpt lat="42.81869" lon="1.38571">
        <ele>1211</ele>
        <time>2025-09-27T10:15:01.000Z</time>
      </trkpt>
      <trkpt lat="42.81872" lon="1.38571">
        <ele>1211</ele>
        <time>2025-09-27T10:15:02.000Z</time>
      </trkpt>
      <trkpt lat="42.81874" lon="1.38569">
        <ele>1212</ele>
        <time>2025-09-27T10:15:03.000Z</time>
      </trkpt>
      <trkpt lat="42.81877" lon="1.38568">
        <ele>1212</ele>
        <time>2025-09-27T10:15:04.000Z</time>
      </trkpt>
      <trkpt lat="42.81879" lon="1.38567">
        <ele>1212</ele>
        <time>2025-09-27T10:15:05.000Z</time>
      </trkpt>
      <trkpt lat="42.81882" lon="1.38566">
        <ele>1212</ele>
        <time>2025-09-27T10:15:06.000Z</time>
      </trkpt>
      <trkpt lat="42.81884" lon="1.38564">
        <ele>1213</ele>
        <time>2025-09-27T10:15:07.000Z</time>
      </trkpt>
      <trkpt lat="42.81887" lon="1.38563">
        <ele>1213</ele>
        <time>2025-09-27T10:15:08.000Z</time>
      </trkpt>
      <trkpt lat="42.81889" lon="1.38563">
        <ele>1213</ele>
        <time>2025-09-27T10:15:09.000Z</time>
      </trkpt>
      <trkpt lat="42.81891" lon="1.38565">
        <ele>1214</ele>
        <time>2025-09-27T10:15:10.000Z</time>
      </trkpt>
      <trkpt lat="42.81893" lon="1.38568">
        <ele>1214</ele>
        <time>2025-09-27T10:15:11.000Z</time>
      </trkpt>
      <trkpt lat="42.81893" lon="1.38572">
        <ele>1214</ele>
        <time>2025-09-27T10:15:12.000Z</time>
      </trkpt>
      <trkpt lat="42.81892" lon="1.38574">
        <ele>1215</ele>
        <time>2025-09-27T10:15:13.000Z</time>
      </trkpt>
      <trkpt lat="42.8189" lon="1.38577">
        <ele>1215</ele>
        <time>2025-09-27T10:15:14.000Z</time>
      </trkpt>
      <trkpt lat="42.81888" lon="1.38579">
        <ele>1215</ele>
        <time>2025-09-27T10:15:15.000Z</time>
      </trkpt>
      <trkpt lat="42.81886" lon="1.3858">
        <ele>1215</ele>
        <time>2025-09-27T10:15:16.000Z</time>
      </trkpt>
      <trkpt lat="42.81884" lon="1.38581">
        <ele>1215</ele>
        <time>2025-09-27T10:15:17.000Z</time>
      </trkpt>
      <trkpt lat="42.81882" lon="1.38583">
        <ele>1215</ele>
        <time>2025-09-27T10:15:18.000Z</time>
      </trkpt>
      <trkpt lat="42.8188" lon="1.38585">
        <ele>1215</ele>
        <time>2025-09-27T10:15:19.000Z</time>
      </trkpt>
      <trkpt lat="42.81877" lon="1.38586">
        <ele>1215</ele>
        <time>2025-09-27T10:15:20.000Z</time>
      </trkpt>
      <trkpt lat="42.81874" lon="1.38587">
        <ele>1215</ele>
        <time>2025-09-27T10:15:21.000Z</time>
      </trkpt>
      <trkpt lat="42.81872" lon="1.38588">
        <ele>1216</ele>
        <time>2025-09-27T10:15:22.000Z</time>
      </trkpt>
      <trkpt lat="42.81869" lon="1.3859">
        <ele>1216</ele>
        <time>2025-09-27T10:15:23.000Z</time>
      </trkpt>
      <trkpt lat="42.81866" lon="1.38592">
        <ele>1216</ele>
        <time>2025-09-27T10:15:24.000Z</time>
      </trkpt>
      <trkpt lat="42.81864" lon="1.38593">
        <ele>1217</ele>
        <time>2025-09-27T10:15:25.000Z</time>
      </trkpt>
      <trkpt lat="42.81862" lon="1.38595">
        <ele>1217</ele>
        <time>2025-09-27T10:15:26.000Z</time>
      </trkpt>
      <trkpt lat="42.81859" lon="1.38597">
        <ele>1217</ele>
        <time>2025-09-27T10:15:27.000Z</time>
      </trkpt>
      <trkpt lat="42.81857" lon="1.386">
        <ele>1218</ele>
        <time>2025-09-27T10:15:28.000Z</time>
      </trkpt>
      <trkpt lat="42.81855" lon="1.38602">
        <ele>1218</ele>
        <time>2025-09-27T10:15:29.000Z</time>
      </trkpt>
      <trkpt lat="42.81853" lon="1.38604">
        <ele>1218</ele>
        <time>2025-09-27T10:15:30.000Z</time>
      </trkpt>
      <trkpt lat="42.81851" lon="1.38606">
        <ele>1218</ele>
        <time>2025-09-27T10:15:31.000Z</time>
      </trkpt>
      <trkpt lat="42.8185" lon="1.38607">
        <ele>1218</ele>
        <time>2025-09-27T10:15:32.000Z</time>
      </trkpt>
      <trkpt lat="42.81847" lon="1.38609">
        <ele>1218</ele>
        <time>2025-09-27T10:15:33.000Z</time>
      </trkpt>
      <trkpt lat="42.81845" lon="1.38611">
        <ele>1218</ele>
        <time>2025-09-27T10:15:34.000Z</time>
      </trkpt>
      <trkpt lat="42.81843" lon="1.38614">
        <ele>1218</ele>
        <time>2025-09-27T10:15:35.000Z</time>
      </trkpt>
      <trkpt lat="42.81841" lon="1.38617">
        <ele>1218</ele>
        <time>2025-09-27T10:15:36.000Z</time>
      </trkpt>
      <trkpt lat="42.81839" lon="1.38619">
        <ele>1218</ele>
        <time>2025-09-27T10:15:37.000Z</time>
      </trkpt>
      <trkpt lat="42.81836" lon="1.38622">
        <ele>1218</ele>
        <time>2025-09-27T10:15:38.000Z</time>
      </trkpt>
      <trkpt lat="42.81834" lon="1.38624">
        <ele>1218</ele>
        <time>2025-09-27T10:15:39.000Z</time>
      </trkpt>
      <trkpt lat="42.81832" lon="1.38626">
        <ele>1218</ele>
        <time>2025-09-27T10:15:40.000Z</time>
      </trkpt>
      <trkpt lat="42.81829" lon="1.38629">
        <ele>1218</ele>
        <time>2025-09-27T10:15:41.000Z</time>
      </trkpt>
      <trkpt lat="42.81827" lon="1.38631">
        <ele>1218</ele>
        <time>2025-09-27T10:15:42.000Z</time>
      </trkpt>
      <trkpt lat="42.81825" lon="1.38634">
        <ele>1218</ele>
        <time>2025-09-27T10:15:43.000Z</time>
      </trkpt>
      <trkpt lat="42.81824" lon="1.38636">
        <ele>1218</ele>
        <time>2025-09-27T10:15:44.000Z</time>
      </trkpt>
      <trkpt lat="42.81821" lon="1.38638">
        <ele>1218</ele>
        <time>2025-09-27T10:15:45.000Z</time>
      </trkpt>
      <trkpt lat="42.81819" lon="1.38641">
        <ele>1218</ele>
        <time>2025-09-27T10:15:46.000Z</time>
      </trkpt>
      <trkpt lat="42.81817" lon="1.38643">
        <ele>1219</ele>
        <time>2025-09-27T10:15:47.000Z</time>
      </trkpt>
      <trkpt lat="42.81815" lon="1.38646">
        <ele>1219</ele>
        <time>2025-09-27T10:15:48.000Z</time>
      </trkpt>
      <trkpt lat="42.81812" lon="1.38649">
        <ele>1219</ele>
        <time>2025-09-27T10:15:49.000Z</time>
      </trkpt>
      <trkpt lat="42.8181" lon="1.38651">
        <ele>1219</ele>
        <time>2025-09-27T10:15:50.000Z</time>
      </trkpt>
      <trkpt lat="42.81807" lon="1.38654">
        <ele>1220</ele>
        <time>2025-09-27T10:15:51.000Z</time>
      </trkpt>
      <trkpt lat="42.81805" lon="1.38657">
        <ele>1220</ele>
        <time>2025-09-27T10:15:52.000Z</time>
      </trkpt>
      <trkpt lat="42.81803" lon="1.3866">
        <ele>1221</ele>
        <time>2025-09-27T10:15:53.000Z</time>
      </trkpt>
      <trkpt lat="42.818" lon="1.38663">
        <ele>1221</ele>
        <time>2025-09-27T10:15:54.000Z</time>
      </trkpt>
      <trkpt lat="42.81798" lon="1.38666">
        <ele>1221</ele>
        <time>2025-09-27T10:15:55.000Z</time>
      </trkpt>
      <trkpt lat="42.81796" lon="1.38668">
        <ele>1221</ele>
        <time>2025-09-27T10:15:56.000Z</time>
      </trkpt>
      <trkpt lat="42.81794" lon="1.3867">
        <ele>1221</ele>
        <time>2025-09-27T10:15:57.000Z</time>
      </trkpt>
      <trkpt lat="42.81793" lon="1.38673">
        <ele>1222</ele>
        <time>2025-09-27T10:15:58.000Z</time>
      </trkpt>
      <trkpt lat="42.81791" lon="1.38676">
        <ele>1222</ele>
        <time>2025-09-27T10:15:59.000Z</time>
      </trkpt>
      <trkpt lat="42.81789" lon="1.38679">
        <ele>1221</ele>
        <time>2025-09-27T10:16:00.000Z</time>
      </trkpt>
      <trkpt lat="42.81788" lon="1.38682">
        <ele>1221</ele>
        <time>2025-09-27T10:16:01.000Z</time>
      </trkpt>
      <trkpt lat="42.81785" lon="1.38685">
        <ele>1222</ele>
        <time>2025-09-27T10:16:02.000Z</time>
      </trkpt>
      <trkpt lat="42.81784" lon="1.38688">
        <ele>1222</ele>
        <time>2025-09-27T10:16:03.000Z</time>
      </trkpt>
      <trkpt lat="42.81782" lon="1.3869">
        <ele>1222</ele>
        <time>2025-09-27T10:16:04.000Z</time>
      </trkpt>
      <trkpt lat="42.8178" lon="1.38693">
        <ele>1222</ele>
        <time>2025-09-27T10:16:05.000Z</time>
      </trkpt>
      <trkpt lat="42.81778" lon="1.38696">
        <ele>1222</ele>
        <time>2025-09-27T10:16:06.000Z</time>
      </trkpt>
      <trkpt lat="42.81777" lon="1.38699">
        <ele>1222</ele>
        <time>2025-09-27T10:16:07.000Z</time>
      </trkpt>
      <trkpt lat="42.81775" lon="1.38702">
        <ele>1222</ele>
        <time>2025-09-27T10:16:08.000Z</time>
      </trkpt>
      <trkpt lat="42.81773" lon="1.38705">
        <ele>1222</ele>
        <time>2025-09-27T10:16:09.000Z</time>
      </trkpt>
      <trkpt lat="42.81771" lon="1.38707">
        <ele>1222</ele>
        <time>2025-09-27T10:16:10.000Z</time>
      </trkpt>
      <trkpt lat="42.8177" lon="1.3871">
        <ele>1222</ele>
        <time>2025-09-27T10:16:11.000Z</time>
      </trkpt>
      <trkpt lat="42.81768" lon="1.38712">
        <ele>1223</ele>
        <time>2025-09-27T10:16:12.000Z</time>
      </trkpt>
      <trkpt lat="42.81766" lon="1.38714">
        <ele>1223</ele>
        <time>2025-09-27T10:16:13.000Z</time>
      </trkpt>
      <trkpt lat="42.81764" lon="1.38717">
        <ele>1224</ele>
        <time>2025-09-27T10:16:14.000Z</time>
      </trkpt>
      <trkpt lat="42.81763" lon="1.3872">
        <ele>1224</ele>
        <time>2025-09-27T10:16:15.000Z</time>
      </trkpt>
      <trkpt lat="42.81761" lon="1.38723">
        <ele>1224</ele>
        <time>2025-09-27T10:16:16.000Z</time>
      </trkpt>
      <trkpt lat="42.81759" lon="1.38726">
        <ele>1224</ele>
        <time>2025-09-27T10:16:17.000Z</time>
      </trkpt>
      <trkpt lat="42.81758" lon="1.38728">
        <ele>1225</ele>
        <time>2025-09-27T10:16:18.000Z</time>
      </trkpt>
      <trkpt lat="42.81757" lon="1.38732">
        <ele>1225</ele>
        <time>2025-09-27T10:16:19.000Z</time>
      </trkpt>
      <trkpt lat="42.81755" lon="1.38734">
        <ele>1225</ele>
        <time>2025-09-27T10:16:20.000Z</time>
      </trkpt>
      <trkpt lat="42.81754" lon="1.38737">
        <ele>1225</ele>
        <time>2025-09-27T10:16:21.000Z</time>
      </trkpt>
      <trkpt lat="42.81752" lon="1.38739">
        <ele>1225</ele>
        <time>2025-09-27T10:16:22.000Z</time>
      </trkpt>
      <trkpt lat="42.81751" lon="1.38742">
        <ele>1225</ele>
        <time>2025-09-27T10:16:23.000Z</time>
      </trkpt>
      <trkpt lat="42.81749" lon="1.38745">
        <ele>1225</ele>
        <time>2025-09-27T10:16:24.000Z</time>
      </trkpt>
      <trkpt lat="42.81747" lon="1.38748">
        <ele>1225</ele>
        <time>2025-09-27T10:16:25.000Z</time>
      </trkpt>
      <trkpt lat="42.81746" lon="1.38751">
        <ele>1225</ele>
        <time>2025-09-27T10:16:26.000Z</time>
      </trkpt>
      <trkpt lat="42.81744" lon="1.38754">
        <ele>1226</ele>
        <time>2025-09-27T10:16:27.000Z</time>
      </trkpt>
      <trkpt lat="42.81743" lon="1.38757">
        <ele>1226</ele>
        <time>2025-09-27T10:16:28.000Z</time>
      </trkpt>
      <trkpt lat="42.81741" lon="1.3876">
        <ele>1226</ele>
        <time>2025-09-27T10:16:29.000Z</time>
      </trkpt>
      <trkpt lat="42.81739" lon="1.38762">
        <ele>1227</ele>
        <time>2025-09-27T10:16:30.000Z</time>
      </trkpt>
      <trkpt lat="42.81738" lon="1.38765">
        <ele>1227</ele>
        <time>2025-09-27T10:16:31.000Z</time>
      </trkpt>
      <trkpt lat="42.81736" lon="1.38767">
        <ele>1226</ele>
        <time>2025-09-27T10:16:32.000Z</time>
      </trkpt>
      <trkpt lat="42.81734" lon="1.3877">
        <ele>1226</ele>
        <time>2025-09-27T10:16:33.000Z</time>
      </trkpt>
      <trkpt lat="42.81733" lon="1.38773">
        <ele>1227</ele>
        <time>2025-09-27T10:16:34.000Z</time>
      </trkpt>
      <trkpt lat="42.81731" lon="1.38777">
        <ele>1227</ele>
        <time>2025-09-27T10:16:35.000Z</time>
      </trkpt>
      <trkpt lat="42.81729" lon="1.3878">
        <ele>1228</ele>
        <time>2025-09-27T10:16:36.000Z</time>
      </trkpt>
      <trkpt lat="42.81728" lon="1.38782">
        <ele>1228</ele>
        <time>2025-09-27T10:16:37.000Z</time>
      </trkpt>
      <trkpt lat="42.81726" lon="1.38786">
        <ele>1228</ele>
        <time>2025-09-27T10:16:38.000Z</time>
      </trkpt>
      <trkpt lat="42.81724" lon="1.38789">
        <ele>1228</ele>
        <time>2025-09-27T10:16:39.000Z</time>
      </trkpt>
      <trkpt lat="42.81723" lon="1.38793">
        <ele>1229</ele>
        <time>2025-09-27T10:16:40.000Z</time>
      </trkpt>
      <trkpt lat="42.81722" lon="1.38796">
        <ele>1229</ele>
        <time>2025-09-27T10:16:41.000Z</time>
      </trkpt>
      <trkpt lat="42.81721" lon="1.38799">
        <ele>1230</ele>
        <time>2025-09-27T10:16:42.000Z</time>
      </trkpt>
      <trkpt lat="42.81721" lon="1.38802">
        <ele>1230</ele>
        <time>2025-09-27T10:16:43.000Z</time>
      </trkpt>
      <trkpt lat="42.8172" lon="1.38805">
        <ele>1229</ele>
        <time>2025-09-27T10:16:44.000Z</time>
      </trkpt>
      <trkpt lat="42.81718" lon="1.38808">
        <ele>1230</ele>
        <time>2025-09-27T10:16:45.000Z</time>
      </trkpt>
      <trkpt lat="42.81717" lon="1.38812">
        <ele>1231</ele>
        <time>2025-09-27T10:16:46.000Z</time>
      </trkpt>
      <trkpt lat="42.81716" lon="1.38815">
        <ele>1232</ele>
        <time>2025-09-27T10:16:47.000Z</time>
      </trkpt>
      <trkpt lat="42.81714" lon="1.38817">
        <ele>1232</ele>
        <time>2025-09-27T10:16:48.000Z</time>
      </trkpt>
      <trkpt lat="42.81712" lon="1.3882">
        <ele>1232</ele>
        <time>2025-09-27T10:16:49.000Z</time>
      </trkpt>
      <trkpt lat="42.81711" lon="1.38824">
        <ele>1232</ele>
        <time>2025-09-27T10:16:50.000Z</time>
      </trkpt>
      <trkpt lat="42.81709" lon="1.38827">
        <ele>1232</ele>
        <time>2025-09-27T10:16:51.000Z</time>
      </trkpt>
      <trkpt lat="42.81708" lon="1.3883">
        <ele>1233</ele>
        <time>2025-09-27T10:16:52.000Z</time>
      </trkpt>
      <trkpt lat="42.81706" lon="1.38833">
        <ele>1234</ele>
        <time>2025-09-27T10:16:53.000Z</time>
      </trkpt>
      <trkpt lat="42.81704" lon="1.38835">
        <ele>1234</ele>
        <time>2025-09-27T10:16:54.000Z</time>
      </trkpt>
      <trkpt lat="42.81703" lon="1.38838">
        <ele>1234</ele>
        <time>2025-09-27T10:16:55.000Z</time>
      </trkpt>
      <trkpt lat="42.81701" lon="1.38841">
        <ele>1235</ele>
        <time>2025-09-27T10:16:56.000Z</time>
      </trkpt>
      <trkpt lat="42.81699" lon="1.38845">
        <ele>1234</ele>
        <time>2025-09-27T10:16:57.000Z</time>
      </trkpt>
      <trkpt lat="42.81698" lon="1.38848">
        <ele>1235</ele>
        <time>2025-09-27T10:16:58.000Z</time>
      </trkpt>
      <trkpt lat="42.81696" lon="1.38851">
        <ele>1235</ele>
        <time>2025-09-27T10:16:59.000Z</time>
      </trkpt>
      <trkpt lat="42.81694" lon="1.38854">
        <ele>1236</ele>
        <time>2025-09-27T10:17:00.000Z</time>
      </trkpt>
      <trkpt lat="42.81693" lon="1.38857">
        <ele>1236</ele>
        <time>2025-09-27T10:17:01.000Z</time>
      </trkpt>
      <trkpt lat="42.81691" lon="1.38861">
        <ele>1237</ele>
        <time>2025-09-27T10:17:02.000Z</time>
      </trkpt>
      <trkpt lat="42.8169" lon="1.38863">
        <ele>1237</ele>
        <time>2025-09-27T10:17:03.000Z</time>
      </trkpt>
      <trkpt lat="42.81688" lon="1.38866">
        <ele>1237</ele>
        <time>2025-09-27T10:17:04.000Z</time>
      </trkpt>
      <trkpt lat="42.81686" lon="1.38869">
        <ele>1238</ele>
        <time>2025-09-27T10:17:05.000Z</time>
      </trkpt>
      <trkpt lat="42.81685" lon="1.38872">
        <ele>1238</ele>
        <time>2025-09-27T10:17:06.000Z</time>
      </trkpt>
      <trkpt lat="42.81684" lon="1.38876">
        <ele>1237</ele>
        <time>2025-09-27T10:17:07.000Z</time>
      </trkpt>
      <trkpt lat="42.81683" lon="1.38879">
        <ele>1237</ele>
        <time>2025-09-27T10:17:08.000Z</time>
      </trkpt>
      <trkpt lat="42.81681" lon="1.38882">
        <ele>1237</ele>
        <time>2025-09-27T10:17:09.000Z</time>
      </trkpt>
      <trkpt lat="42.8168" lon="1.38885">
        <ele>1238</ele>
        <time>2025-09-27T10:17:10.000Z</time>
      </trkpt>
      <trkpt lat="42.8168" lon="1.38889">
        <ele>1238</ele>
        <time>2025-09-27T10:17:11.000Z</time>
      </trkpt>
      <trkpt lat="42.81679" lon="1.38892">
        <ele>1238</ele>
        <time>2025-09-27T10:17:12.000Z</time>
      </trkpt>
      <trkpt lat="42.81678" lon="1.38895">
        <ele>1239</ele>
        <time>2025-09-27T10:17:13.000Z</time>
      </trkpt>
      <trkpt lat="42.81677" lon="1.38898">
        <ele>1240</ele>
        <time>2025-09-27T10:17:14.000Z</time>
      </trkpt>
      <trkpt lat="42.81676" lon="1.38902">
        <ele>1240</ele>
        <time>2025-09-27T10:17:15.000Z</time>
      </trkpt>
      <trkpt lat="42.81675" lon="1.38905">
        <ele>1241</ele>
        <time>2025-09-27T10:17:16.000Z</time>
      </trkpt>
      <trkpt lat="42.81675" lon="1.38909">
        <ele>1240</ele>
        <time>2025-09-27T10:17:17.000Z</time>
      </trkpt>
      <trkpt lat="42.81674" lon="1.38911">
        <ele>1240</ele>
        <time>2025-09-27T10:17:18.000Z</time>
      </trkpt>
      <trkpt lat="42.81674" lon="1.38915">
        <ele>1240</ele>
        <time>2025-09-27T10:17:19.000Z</time>
      </trkpt>
      <trkpt lat="42.81673" lon="1.38918">
        <ele>1240</ele>
        <time>2025-09-27T10:17:20.000Z</time>
      </trkpt>
      <trkpt lat="42.81673" lon="1.38921">
        <ele>1240</ele>
        <time>2025-09-27T10:17:21.000Z</time>
      </trkpt>
      <trkpt lat="42.81673" lon="1.38925">
        <ele>1241</ele>
        <time>2025-09-27T10:17:22.000Z</time>
      </trkpt>
      <trkpt lat="42.81673" lon="1.38928">
        <ele>1242</ele>
        <time>2025-09-27T10:17:23.000Z</time>
      </trkpt>
      <trkpt lat="42.81673" lon="1.38931">
        <ele>1242</ele>
        <time>2025-09-27T10:17:24.000Z</time>
      </trkpt>
      <trkpt lat="42.81673" lon="1.38935">
        <ele>1240</ele>
        <time>2025-09-27T10:17:25.000Z</time>
      </trkpt>
      <trkpt lat="42.81673" lon="1.38938">
        <ele>1240</ele>
        <time>2025-09-27T10:17:26.000Z</time>
      </trkpt>
      <trkpt lat="42.81673" lon="1.38941">
        <ele>1241</ele>
        <time>2025-09-27T10:17:27.000Z</time>
      </trkpt>
      <trkpt lat="42.81674" lon="1.38945">
        <ele>1241</ele>
        <time>2025-09-27T10:17:28.000Z</time>
      </trkpt>
      <trkpt lat="42.81674" lon="1.38949">
        <ele>1241</ele>
        <time>2025-09-27T10:17:29.000Z</time>
      </trkpt>
      <trkpt lat="42.81674" lon="1.38952">
        <ele>1242</ele>
        <time>2025-09-27T10:17:30.000Z</time>
      </trkpt>
      <trkpt lat="42.81675" lon="1.38955">
        <ele>1243</ele>
        <time>2025-09-27T10:17:31.000Z</time>
      </trkpt>
      <trkpt lat="42.81675" lon="1.38959">
        <ele>1243</ele>
        <time>2025-09-27T10:17:32.000Z</time>
      </trkpt>
      <trkpt lat="42.81676" lon="1.38962">
        <ele>1244</ele>
        <time>2025-09-27T10:17:33.000Z</time>
      </trkpt>
      <trkpt lat="42.81676" lon="1.38965">
        <ele>1245</ele>
        <time>2025-09-27T10:17:34.000Z</time>
      </trkpt>
      <trkpt lat="42.81677" lon="1.38968">
        <ele>1246</ele>
        <time>2025-09-27T10:17:35.000Z</time>
      </trkpt>
      <trkpt lat="42.81677" lon="1.38972">
        <ele>1246</ele>
        <time>2025-09-27T10:17:36.000Z</time>
      </trkpt>
      <trkpt lat="42.81679" lon="1.38975">
        <ele>1246</ele>
        <time>2025-09-27T10:17:37.000Z</time>
      </trkpt>
      <trkpt lat="42.81681" lon="1.38978">
        <ele>1246</ele>
        <time>2025-09-27T10:17:38.000Z</time>
      </trkpt>
      <trkpt lat="42.81682" lon="1.3898">
        <ele>1247</ele>
        <time>2025-09-27T10:17:39.000Z</time>
      </trkpt>
      <trkpt lat="42.81683" lon="1.38982">
        <ele>1247</ele>
        <time>2025-09-27T10:17:40.000Z</time>
      </trkpt>
      <trkpt lat="42.81683" lon="1.38982">
        <ele>1246</ele>
        <time>2025-09-27T10:17:41.000Z</time>
      </trkpt>
      <trkpt lat="42.81684" lon="1.38983">
        <ele>1245</ele>
        <time>2025-09-27T10:17:42.000Z</time>
      </trkpt>
      <trkpt lat="42.81684" lon="1.38983">
        <ele>1245</ele>
        <time>2025-09-27T10:17:43.000Z</time>
      </trkpt>
      <trkpt lat="42.81684" lon="1.38983">
        <ele>1246</ele>
        <time>2025-09-27T10:17:44.000Z</time>
      </trkpt>
      <trkpt lat="42.81684" lon="1.38983">
        <ele>1247</ele>
        <time>2025-09-27T10:19:21.000Z</time>
      </trkpt>
      <trkpt lat="42.81683" lon="1.38984">
        <ele>1247</ele>
        <time>2025-09-27T10:19:22.000Z</time>
      </trkpt>
      <trkpt lat="42.81681" lon="1.38985">
        <ele>1247</ele>
        <time>2025-09-27T10:19:23.000Z</time>
      </trkpt>
      <trkpt lat="42.8168" lon="1.38987">
        <ele>1248</ele>
        <time>2025-09-27T10:19:24.000Z</time>
      </trkpt>
      <trkpt lat="42.81679" lon="1.38989">
        <ele>1248</ele>
        <time>2025-09-27T10:19:25.000Z</time>
      </trkpt>
      <trkpt lat="42.81677" lon="1.38992">
        <ele>1248</ele>
        <time>2025-09-27T10:19:26.000Z</time>
      </trkpt>
      <trkpt lat="42.81674" lon="1.38993">
        <ele>1248</ele>
        <time>2025-09-27T10:19:27.000Z</time>
      </trkpt>
      <trkpt lat="42.81671" lon="1.38995">
        <ele>1248</ele>
        <time>2025-09-27T10:19:28.000Z</time>
      </trkpt>
      <trkpt lat="42.81669" lon="1.38995">
        <ele>1249</ele>
        <time>2025-09-27T10:19:29.000Z</time>
      </trkpt>
      <trkpt lat="42.81666" lon="1.38996">
        <ele>1249</ele>
        <time>2025-09-27T10:19:30.000Z</time>
      </trkpt>
      <trkpt lat="42.81663" lon="1.38997">
        <ele>1248</ele>
        <time>2025-09-27T10:19:31.000Z</time>
      </trkpt>
      <trkpt lat="42.8166" lon="1.38997">
        <ele>1249</ele>
        <time>2025-09-27T10:19:32.000Z</time>
      </trkpt>
      <trkpt lat="42.81658" lon="1.38997">
        <ele>1249</ele>
        <time>2025-09-27T10:19:33.000Z</time>
      </trkpt>
      <trkpt lat="42.81654" lon="1.38998">
        <ele>1249</ele>
        <time>2025-09-27T10:19:34.000Z</time>
      </trkpt>
      <trkpt lat="42.81651" lon="1.38998">
        <ele>1249</ele>
        <time>2025-09-27T10:19:35.000Z</time>
      </trkpt>
      <trkpt lat="42.81648" lon="1.38998">
        <ele>1250</ele>
        <time>2025-09-27T10:19:36.000Z</time>
      </trkpt>
      <trkpt lat="42.81644" lon="1.38998">
        <ele>1250</ele>
        <time>2025-09-27T10:19:37.000Z</time>
      </trkpt>
      <trkpt lat="42.81641" lon="1.38997">
        <ele>1250</ele>
        <time>2025-09-27T10:19:38.000Z</time>
      </trkpt>
      <trkpt lat="42.81638" lon="1.38996">
        <ele>1250</ele>
        <time>2025-09-27T10:19:39.000Z</time>
      </trkpt>
      <trkpt lat="42.81635" lon="1.38996">
        <ele>1250</ele>
        <time>2025-09-27T10:19:40.000Z</time>
      </trkpt>
      <trkpt lat="42.81632" lon="1.38995">
        <ele>1251</ele>
        <time>2025-09-27T10:19:41.000Z</time>
      </trkpt>
      <trkpt lat="42.81628" lon="1.38993">
        <ele>1250</ele>
        <time>2025-09-27T10:19:42.000Z</time>
      </trkpt>
      <trkpt lat="42.81625" lon="1.38992">
        <ele>1250</ele>
        <time>2025-09-27T10:19:43.000Z</time>
      </trkpt>
      <trkpt lat="42.81622" lon="1.38991">
        <ele>1250</ele>
        <time>2025-09-27T10:19:44.000Z</time>
      </trkpt>
      <trkpt lat="42.81619" lon="1.3899">
        <ele>1250</ele>
        <time>2025-09-27T10:19:45.000Z</time>
      </trkpt>
      <trkpt lat="42.81616" lon="1.38988">
        <ele>1251</ele>
        <time>2025-09-27T10:19:46.000Z</time>
      </trkpt>
      <trkpt lat="42.81613" lon="1.38987">
        <ele>1251</ele>
        <time>2025-09-27T10:19:47.000Z</time>
      </trkpt>
      <trkpt lat="42.8161" lon="1.38986">
        <ele>1252</ele>
        <time>2025-09-27T10:19:48.000Z</time>
      </trkpt>
      <trkpt lat="42.81608" lon="1.38985">
        <ele>1252</ele>
        <time>2025-09-27T10:19:49.000Z</time>
      </trkpt>
      <trkpt lat="42.81605" lon="1.38984">
        <ele>1252</ele>
        <time>2025-09-27T10:19:50.000Z</time>
      </trkpt>
      <trkpt lat="42.81602" lon="1.38982">
        <ele>1252</ele>
        <time>2025-09-27T10:19:51.000Z</time>
      </trkpt>
      <trkpt lat="42.81599" lon="1.38981">
        <ele>1252</ele>
        <time>2025-09-27T10:19:52.000Z</time>
      </trkpt>
      <trkpt lat="42.81595" lon="1.3898">
        <ele>1253</ele>
        <time>2025-09-27T10:19:53.000Z</time>
      </trkpt>
      <trkpt lat="42.81592" lon="1.38979">
        <ele>1253</ele>
        <time>2025-09-27T10:19:54.000Z</time>
      </trkpt>
      <trkpt lat="42.81589" lon="1.38978">
        <ele>1253</ele>
        <time>2025-09-27T10:19:55.000Z</time>
      </trkpt>
      <trkpt lat="42.81586" lon="1.38978">
        <ele>1253</ele>
        <time>2025-09-27T10:19:56.000Z</time>
      </trkpt>
      <trkpt lat="42.81583" lon="1.38977">
        <ele>1252</ele>
        <time>2025-09-27T10:19:57.000Z</time>
      </trkpt>
      <trkpt lat="42.8158" lon="1.38976">
        <ele>1253</ele>
        <time>2025-09-27T10:19:58.000Z</time>
      </trkpt>
      <trkpt lat="42.81577" lon="1.38975">
        <ele>1253</ele>
        <time>2025-09-27T10:19:59.000Z</time>
      </trkpt>
      <trkpt lat="42.81574" lon="1.38974">
        <ele>1252</ele>
        <time>2025-09-27T10:20:00.000Z</time>
      </trkpt>
      <trkpt lat="42.81572" lon="1.38973">
        <ele>1253</ele>
        <time>2025-09-27T10:20:01.000Z</time>
      </trkpt>
      <trkpt lat="42.81569" lon="1.38972">
        <ele>1253</ele>
        <time>2025-09-27T10:20:02.000Z</time>
      </trkpt>
      <trkpt lat="42.81566" lon="1.38971">
        <ele>1254</ele>
        <time>2025-09-27T10:20:03.000Z</time>
      </trkpt>
      <trkpt lat="42.81563" lon="1.3897">
        <ele>1254</ele>
        <time>2025-09-27T10:20:04.000Z</time>
      </trkpt>
      <trkpt lat="42.8156" lon="1.38969">
        <ele>1255</ele>
        <time>2025-09-27T10:20:05.000Z</time>
      </trkpt>
      <trkpt lat="42.81557" lon="1.38968">
        <ele>1255</ele>
        <time>2025-09-27T10:20:06.000Z</time>
      </trkpt>
      <trkpt lat="42.81553" lon="1.38967">
        <ele>1255</ele>
        <time>2025-09-27T10:20:07.000Z</time>
      </trkpt>
      <trkpt lat="42.8155" lon="1.38965">
        <ele>1256</ele>
        <time>2025-09-27T10:20:08.000Z</time>
      </trkpt>
      <trkpt lat="42.81547" lon="1.38963">
        <ele>1255</ele>
        <time>2025-09-27T10:20:09.000Z</time>
      </trkpt>
      <trkpt lat="42.81544" lon="1.38961">
        <ele>1256</ele>
        <time>2025-09-27T10:20:10.000Z</time>
      </trkpt>
      <trkpt lat="42.81541" lon="1.38959">
        <ele>1256</ele>
        <time>2025-09-27T10:20:11.000Z</time>
      </trkpt>
      <trkpt lat="42.81538" lon="1.38957">
        <ele>1257</ele>
        <time>2025-09-27T10:20:12.000Z</time>
      </trkpt>
      <trkpt lat="42.81536" lon="1.38954">
        <ele>1257</ele>
        <time>2025-09-27T10:20:13.000Z</time>
      </trkpt>
      <trkpt lat="42.81534" lon="1.38952">
        <ele>1257</ele>
        <time>2025-09-27T10:20:14.000Z</time>
      </trkpt>
      <trkpt lat="42.81531" lon="1.38949">
        <ele>1257</ele>
        <time>2025-09-27T10:20:15.000Z</time>
      </trkpt>
      <trkpt lat="42.81529" lon="1.38947">
        <ele>1257</ele>
        <time>2025-09-27T10:20:16.000Z</time>
      </trkpt>
      <trkpt lat="42.81526" lon="1.38944">
        <ele>1258</ele>
        <time>2025-09-27T10:20:17.000Z</time>
      </trkpt>
      <trkpt lat="42.81524" lon="1.38941">
        <ele>1259</ele>
        <time>2025-09-27T10:20:18.000Z</time>
      </trkpt>
      <trkpt lat="42.81522" lon="1.38939">
        <ele>1260</ele>
        <time>2025-09-27T10:20:19.000Z</time>
      </trkpt>
      <trkpt lat="42.8152" lon="1.38937">
        <ele>1260</ele>
        <time>2025-09-27T10:20:20.000Z</time>
      </trkpt>
      <trkpt lat="42.81517" lon="1.38935">
        <ele>1261</ele>
        <time>2025-09-27T10:20:21.000Z</time>
      </trkpt>
      <trkpt lat="42.81515" lon="1.38932">
        <ele>1261</ele>
        <time>2025-09-27T10:20:22.000Z</time>
      </trkpt>
      <trkpt lat="42.81513" lon="1.3893">
        <ele>1262</ele>
        <time>2025-09-27T10:20:23.000Z</time>
      </trkpt>
      <trkpt lat="42.8151" lon="1.38928">
        <ele>1262</ele>
        <time>2025-09-27T10:20:24.000Z</time>
      </trkpt>
      <trkpt lat="42.81507" lon="1.38926">
        <ele>1262</ele>
        <time>2025-09-27T10:20:25.000Z</time>
      </trkpt>
      <trkpt lat="42.81504" lon="1.38924">
        <ele>1262</ele>
        <time>2025-09-27T10:20:26.000Z</time>
      </trkpt>
      <trkpt lat="42.81501" lon="1.38922">
        <ele>1262</ele>
        <time>2025-09-27T10:20:27.000Z</time>
      </trkpt>
      <trkpt lat="42.81498" lon="1.38921">
        <ele>1262</ele>
        <time>2025-09-27T10:20:28.000Z</time>
      </trkpt>
      <trkpt lat="42.81495" lon="1.38919">
        <ele>1262</ele>
        <time>2025-09-27T10:20:29.000Z</time>
      </trkpt>
      <trkpt lat="42.81492" lon="1.38918">
        <ele>1263</ele>
        <time>2025-09-27T10:20:30.000Z</time>
      </trkpt>
      <trkpt lat="42.81489" lon="1.38917">
        <ele>1264</ele>
        <time>2025-09-27T10:20:31.000Z</time>
      </trkpt>
      <trkpt lat="42.81486" lon="1.38916">
        <ele>1264</ele>
        <time>2025-09-27T10:20:32.000Z</time>
      </trkpt>
      <trkpt lat="42.81483" lon="1.38915">
        <ele>1264</ele>
        <time>2025-09-27T10:20:33.000Z</time>
      </trkpt>
      <trkpt lat="42.8148" lon="1.38914">
        <ele>1265</ele>
        <time>2025-09-27T10:20:34.000Z</time>
      </trkpt>
      <trkpt lat="42.81477" lon="1.38915">
        <ele>1265</ele>
        <time>2025-09-27T10:20:35.000Z</time>
      </trkpt>
      <trkpt lat="42.81474" lon="1.38915">
        <ele>1265</ele>
        <time>2025-09-27T10:20:36.000Z</time>
      </trkpt>
      <trkpt lat="42.81471" lon="1.38915">
        <ele>1265</ele>
        <time>2025-09-27T10:20:37.000Z</time>
      </trkpt>
      <trkpt lat="42.81468" lon="1.38916">
        <ele>1266</ele>
        <time>2025-09-27T10:20:38.000Z</time>
      </trkpt>
      <trkpt lat="42.81465" lon="1.38917">
        <ele>1266</ele>
        <time>2025-09-27T10:20:39.000Z</time>
      </trkpt>
      <trkpt lat="42.81461" lon="1.38918">
        <ele>1267</ele>
        <time>2025-09-27T10:20:40.000Z</time>
      </trkpt>
      <trkpt lat="42.81458" lon="1.38918">
        <ele>1267</ele>
        <time>2025-09-27T10:20:41.000Z</time>
      </trkpt>
      <trkpt lat="42.81454" lon="1.38918">
        <ele>1267</ele>
        <time>2025-09-27T10:20:42.000Z</time>
      </trkpt>
      <trkpt lat="42.81451" lon="1.38918">
        <ele>1267</ele>
        <time>2025-09-27T10:20:43.000Z</time>
      </trkpt>
      <trkpt lat="42.81448" lon="1.38918">
        <ele>1267</ele>
        <time>2025-09-27T10:20:44.000Z</time>
      </trkpt>
      <trkpt lat="42.81445" lon="1.38918">
        <ele>1268</ele>
        <time>2025-09-27T10:20:45.000Z</time>
      </trkpt>
      <trkpt lat="42.81442" lon="1.38919">
        <ele>1268</ele>
        <time>2025-09-27T10:20:46.000Z</time>
      </trkpt>
      <trkpt lat="42.8144" lon="1.38918">
        <ele>1268</ele>
        <time>2025-09-27T10:20:47.000Z</time>
      </trkpt>
      <trkpt lat="42.81437" lon="1.38917">
        <ele>1268</ele>
        <time>2025-09-27T10:20:48.000Z</time>
      </trkpt>
      <trkpt lat="42.81435" lon="1.38916">
        <ele>1268</ele>
        <time>2025-09-27T10:20:49.000Z</time>
      </trkpt>
      <trkpt lat="42.81433" lon="1.38915">
        <ele>1268</ele>
        <time>2025-09-27T10:20:50.000Z</time>
      </trkpt>
      <trkpt lat="42.8143" lon="1.38914">
        <ele>1268</ele>
        <time>2025-09-27T10:20:51.000Z</time>
      </trkpt>
      <trkpt lat="42.81427" lon="1.38912">
        <ele>1268</ele>
        <time>2025-09-27T10:20:52.000Z</time>
      </trkpt>
      <trkpt lat="42.81424" lon="1.38911">
        <ele>1268</ele>
        <time>2025-09-27T10:20:53.000Z</time>
      </trkpt>
      <trkpt lat="42.81422" lon="1.3891">
        <ele>1269</ele>
        <time>2025-09-27T10:20:54.000Z</time>
      </trkpt>
      <trkpt lat="42.81419" lon="1.38908">
        <ele>1269</ele>
        <time>2025-09-27T10:20:55.000Z</time>
      </trkpt>
      <trkpt lat="42.81416" lon="1.38906">
        <ele>1269</ele>
        <time>2025-09-27T10:20:56.000Z</time>
      </trkpt>
      <trkpt lat="42.81414" lon="1.38904">
        <ele>1269</ele>
        <time>2025-09-27T10:20:57.000Z</time>
      </trkpt>
      <trkpt lat="42.81411" lon="1.38902">
        <ele>1270</ele>
        <time>2025-09-27T10:20:58.000Z</time>
      </trkpt>
      <trkpt lat="42.81408" lon="1.38899">
        <ele>1270</ele>
        <time>2025-09-27T10:20:59.000Z</time>
      </trkpt>
      <trkpt lat="42.81405" lon="1.38898">
        <ele>1270</ele>
        <time>2025-09-27T10:21:00.000Z</time>
      </trkpt>
      <trkpt lat="42.81402" lon="1.38896">
        <ele>1270</ele>
        <time>2025-09-27T10:21:01.000Z</time>
      </trkpt>
      <trkpt lat="42.81399" lon="1.38895">
        <ele>1270</ele>
        <time>2025-09-27T10:21:02.000Z</time>
      </trkpt>
      <trkpt lat="42.81396" lon="1.38894">
        <ele>1270</ele>
        <time>2025-09-27T10:21:03.000Z</time>
      </trkpt>
      <trkpt lat="42.81393" lon="1.38892">
        <ele>1270</ele>
        <time>2025-09-27T10:21:04.000Z</time>
      </trkpt>
      <trkpt lat="42.8139" lon="1.38892">
        <ele>1271</ele>
        <time>2025-09-27T10:21:05.000Z</time>
      </trkpt>
      <trkpt lat="42.81387" lon="1.38891">
        <ele>1271</ele>
        <time>2025-09-27T10:21:06.000Z</time>
      </trkpt>
      <trkpt lat="42.81384" lon="1.38889">
        <ele>1271</ele>
        <time>2025-09-27T10:21:07.000Z</time>
      </trkpt>
      <trkpt lat="42.81381" lon="1.38888">
        <ele>1270</ele>
        <time>2025-09-27T10:21:08.000Z</time>
      </trkpt>
      <trkpt lat="42.81379" lon="1.38887">
        <ele>1270</ele>
        <time>2025-09-27T10:21:09.000Z</time>
      </trkpt>
      <trkpt lat="42.81376" lon="1.38884">
        <ele>1271</ele>
        <time>2025-09-27T10:21:10.000Z</time>
      </trkpt>
      <trkpt lat="42.81373" lon="1.38882">
        <ele>1271</ele>
        <time>2025-09-27T10:21:11.000Z</time>
      </trkpt>
      <trkpt lat="42.81371" lon="1.3888">
        <ele>1271</ele>
        <time>2025-09-27T10:21:12.000Z</time>
      </trkpt>
      <trkpt lat="42.81368" lon="1.38878">
        <ele>1272</ele>
        <time>2025-09-27T10:21:13.000Z</time>
      </trkpt>
      <trkpt lat="42.81365" lon="1.38876">
        <ele>1272</ele>
        <time>2025-09-27T10:21:14.000Z</time>
      </trkpt>
      <trkpt lat="42.81362" lon="1.38873">
        <ele>1272</ele>
        <time>2025-09-27T10:21:15.000Z</time>
      </trkpt>
      <trkpt lat="42.81359" lon="1.3887">
        <ele>1272</ele>
        <time>2025-09-27T10:21:16.000Z</time>
      </trkpt>
      <trkpt lat="42.81356" lon="1.38868">
        <ele>1272</ele>
        <time>2025-09-27T10:21:17.000Z</time>
      </trkpt>
      <trkpt lat="42.81353" lon="1.38866">
        <ele>1273</ele>
        <time>2025-09-27T10:21:18.000Z</time>
      </trkpt>
      <trkpt lat="42.8135" lon="1.38864">
        <ele>1273</ele>
        <time>2025-09-27T10:21:19.000Z</time>
      </trkpt>
      <trkpt lat="42.81347" lon="1.38861">
        <ele>1273</ele>
        <time>2025-09-27T10:21:20.000Z</time>
      </trkpt>
      <trkpt lat="42.81344" lon="1.38859">
        <ele>1273</ele>
        <time>2025-09-27T10:21:21.000Z</time>
      </trkpt>
      <trkpt lat="42.81341" lon="1.38858">
        <ele>1273</ele>
        <time>2025-09-27T10:21:22.000Z</time>
      </trkpt>
      <trkpt lat="42.81339" lon="1.38856">
        <ele>1273</ele>
        <time>2025-09-27T10:21:23.000Z</time>
      </trkpt>
      <trkpt lat="42.81336" lon="1.38853">
        <ele>1273</ele>
        <time>2025-09-27T10:21:24.000Z</time>
      </trkpt>
      <trkpt lat="42.81333" lon="1.38851">
        <ele>1273</ele>
        <time>2025-09-27T10:21:25.000Z</time>
      </trkpt>
      <trkpt lat="42.8133" lon="1.38849">
        <ele>1273</ele>
        <time>2025-09-27T10:21:26.000Z</time>
      </trkpt>
      <trkpt lat="42.81327" lon="1.38847">
        <ele>1273</ele>
        <time>2025-09-27T10:21:27.000Z</time>
      </trkpt>
      <trkpt lat="42.81324" lon="1.38845">
        <ele>1273</ele>
        <time>2025-09-27T10:21:28.000Z</time>
      </trkpt>
      <trkpt lat="42.81322" lon="1.38843">
        <ele>1273</ele>
        <time>2025-09-27T10:21:29.000Z</time>
      </trkpt>
      <trkpt lat="42.81319" lon="1.38841">
        <ele>1274</ele>
        <time>2025-09-27T10:21:30.000Z</time>
      </trkpt>
      <trkpt lat="42.81316" lon="1.38839">
        <ele>1274</ele>
        <time>2025-09-27T10:21:31.000Z</time>
      </trkpt>
      <trkpt lat="42.81313" lon="1.38836">
        <ele>1274</ele>
        <time>2025-09-27T10:21:32.000Z</time>
      </trkpt>
      <trkpt lat="42.81311" lon="1.38834">
        <ele>1274</ele>
        <time>2025-09-27T10:21:33.000Z</time>
      </trkpt>
      <trkpt lat="42.81308" lon="1.38831">
        <ele>1274</ele>
        <time>2025-09-27T10:21:34.000Z</time>
      </trkpt>
      <trkpt lat="42.81305" lon="1.38829">
        <ele>1274</ele>
        <time>2025-09-27T10:21:35.000Z</time>
      </trkpt>
      <trkpt lat="42.81302" lon="1.38827">
        <ele>1275</ele>
        <time>2025-09-27T10:21:36.000Z</time>
      </trkpt>
      <trkpt lat="42.81299" lon="1.38824">
        <ele>1275</ele>
        <time>2025-09-27T10:21:37.000Z</time>
      </trkpt>
      <trkpt lat="42.81296" lon="1.38822">
        <ele>1275</ele>
        <time>2025-09-27T10:21:38.000Z</time>
      </trkpt>
      <trkpt lat="42.81292" lon="1.38819">
        <ele>1275</ele>
        <time>2025-09-27T10:21:39.000Z</time>
      </trkpt>
      <trkpt lat="42.81289" lon="1.38817">
        <ele>1276</ele>
        <time>2025-09-27T10:21:40.000Z</time>
      </trkpt>
      <trkpt lat="42.81286" lon="1.38815">
        <ele>1277</ele>
        <time>2025-09-27T10:21:41.000Z</time>
      </trkpt>
      <trkpt lat="42.81282" lon="1.38813">
        <ele>1277</ele>
        <time>2025-09-27T10:21:42.000Z</time>
      </trkpt>
      <trkpt lat="42.81279" lon="1.38811">
        <ele>1277</ele>
        <time>2025-09-27T10:21:43.000Z</time>
      </trkpt>
      <trkpt lat="42.81276" lon="1.38809">
        <ele>1278</ele>
        <time>2025-09-27T10:21:44.000Z</time>
      </trkpt>
      <trkpt lat="42.81272" lon="1.38808">
        <ele>1278</ele>
        <time>2025-09-27T10:21:45.000Z</time>
      </trkpt>
      <trkpt lat="42.81269" lon="1.38806">
        <ele>1278</ele>
        <time>2025-09-27T10:21:46.000Z</time>
      </trkpt>
      <trkpt lat="42.81266" lon="1.38805">
        <ele>1278</ele>
        <time>2025-09-27T10:21:47.000Z</time>
      </trkpt>
      <trkpt lat="42.81263" lon="1.38804">
        <ele>1279</ele>
        <time>2025-09-27T10:21:48.000Z</time>
      </trkpt>
      <trkpt lat="42.81261" lon="1.38802">
        <ele>1279</ele>
        <time>2025-09-27T10:21:49.000Z</time>
      </trkpt>
      <trkpt lat="42.81258" lon="1.38801">
        <ele>1278</ele>
        <time>2025-09-27T10:21:50.000Z</time>
      </trkpt>
      <trkpt lat="42.81255" lon="1.388">
        <ele>1279</ele>
        <time>2025-09-27T10:21:51.000Z</time>
      </trkpt>
      <trkpt lat="42.81252" lon="1.38799">
        <ele>1279</ele>
        <time>2025-09-27T10:21:52.000Z</time>
      </trkpt>
      <trkpt lat="42.81249" lon="1.38798">
        <ele>1280</ele>
        <time>2025-09-27T10:21:53.000Z</time>
      </trkpt>
      <trkpt lat="42.81246" lon="1.38797">
        <ele>1280</ele>
        <time>2025-09-27T10:21:54.000Z</time>
      </trkpt>
      <trkpt lat="42.81243" lon="1.38795">
        <ele>1281</ele>
        <time>2025-09-27T10:21:55.000Z</time>
      </trkpt>
      <trkpt lat="42.8124" lon="1.38794">
        <ele>1281</ele>
        <time>2025-09-27T10:21:56.000Z</time>
      </trkpt>
      <trkpt lat="42.81238" lon="1.38793">
        <ele>1282</ele>
        <time>2025-09-27T10:21:57.000Z</time>
      </trkpt>
      <trkpt lat="42.81235" lon="1.38791">
        <ele>1282</ele>
        <time>2025-09-27T10:21:58.000Z</time>
      </trkpt>
      <trkpt lat="42.81232" lon="1.38791">
        <ele>1282</ele>
        <time>2025-09-27T10:21:59.000Z</time>
      </trkpt>
      <trkpt lat="42.8123" lon="1.38789">
        <ele>1282</ele>
        <time>2025-09-27T10:22:00.000Z</time>
      </trkpt>
      <trkpt lat="42.81227" lon="1.38788">
        <ele>1282</ele>
        <time>2025-09-27T10:22:01.000Z</time>
      </trkpt>
      <trkpt lat="42.81224" lon="1.38787">
        <ele>1282</ele>
        <time>2025-09-27T10:22:02.000Z</time>
      </trkpt>
      <trkpt lat="42.81221" lon="1.38785">
        <ele>1282</ele>
        <time>2025-09-27T10:22:03.000Z</time>
      </trkpt>
      <trkpt lat="42.81218" lon="1.38783">
        <ele>1282</ele>
        <time>2025-09-27T10:22:04.000Z</time>
      </trkpt>
      <trkpt lat="42.81215" lon="1.38781">
        <ele>1282</ele>
        <time>2025-09-27T10:22:05.000Z</time>
      </trkpt>
      <trkpt lat="42.81212" lon="1.38779">
        <ele>1283</ele>
        <time>2025-09-27T10:22:06.000Z</time>
      </trkpt>
      <trkpt lat="42.81209" lon="1.38777">
        <ele>1283</ele>
        <time>2025-09-27T10:22:07.000Z</time>
      </trkpt>
      <trkpt lat="42.81207" lon="1.38775">
        <ele>1284</ele>
        <time>2025-09-27T10:22:08.000Z</time>
      </trkpt>
      <trkpt lat="42.81203" lon="1.38773">
        <ele>1284</ele>
        <time>2025-09-27T10:22:09.000Z</time>
      </trkpt>
      <trkpt lat="42.81201" lon="1.38771">
        <ele>1284</ele>
        <time>2025-09-27T10:22:10.000Z</time>
      </trkpt>
      <trkpt lat="42.81199" lon="1.38769">
        <ele>1285</ele>
        <time>2025-09-27T10:22:11.000Z</time>
      </trkpt>
      <trkpt lat="42.81197" lon="1.38768">
        <ele>1286</ele>
        <time>2025-09-27T10:22:12.000Z</time>
      </trkpt>
      <trkpt lat="42.81194" lon="1.38767">
        <ele>1286</ele>
        <time>2025-09-27T10:22:13.000Z</time>
      </trkpt>
      <trkpt lat="42.81192" lon="1.38765">
        <ele>1286</ele>
        <time>2025-09-27T10:22:14.000Z</time>
      </trkpt>
      <trkpt lat="42.8119" lon="1.38764">
        <ele>1287</ele>
        <time>2025-09-27T10:22:15.000Z</time>
      </trkpt>
      <trkpt lat="42.81188" lon="1.38762">
        <ele>1287</ele>
        <time>2025-09-27T10:22:16.000Z</time>
      </trkpt>
      <trkpt lat="42.81185" lon="1.38761">
        <ele>1287</ele>
        <time>2025-09-27T10:22:17.000Z</time>
      </trkpt>
      <trkpt lat="42.81183" lon="1.38759">
        <ele>1288</ele>
        <time>2025-09-27T10:22:18.000Z</time>
      </trkpt>
      <trkpt lat="42.8118" lon="1.38758">
        <ele>1288</ele>
        <time>2025-09-27T10:22:19.000Z</time>
      </trkpt>
      <trkpt lat="42.81178" lon="1.38757">
        <ele>1289</ele>
        <time>2025-09-27T10:22:20.000Z</time>
      </trkpt>
      <trkpt lat="42.81176" lon="1.38756">
        <ele>1289</ele>
        <time>2025-09-27T10:22:21.000Z</time>
      </trkpt>
      <trkpt lat="42.81173" lon="1.38755">
        <ele>1290</ele>
        <time>2025-09-27T10:22:22.000Z</time>
      </trkpt>
      <trkpt lat="42.81171" lon="1.38753">
        <ele>1290</ele>
        <time>2025-09-27T10:22:23.000Z</time>
      </trkpt>
      <trkpt lat="42.81169" lon="1.38752">
        <ele>1291</ele>
        <time>2025-09-27T10:22:24.000Z</time>
      </trkpt>
      <trkpt lat="42.81167" lon="1.38751">
        <ele>1292</ele>
        <time>2025-09-27T10:22:25.000Z</time>
      </trkpt>
      <trkpt lat="42.81165" lon="1.38751">
        <ele>1293</ele>
        <time>2025-09-27T10:22:26.000Z</time>
      </trkpt>
      <trkpt lat="42.81163" lon="1.3875">
        <ele>1293</ele>
        <time>2025-09-27T10:22:27.000Z</time>
      </trkpt>
      <trkpt lat="42.81161" lon="1.38749">
        <ele>1293</ele>
        <time>2025-09-27T10:22:28.000Z</time>
      </trkpt>
      <trkpt lat="42.81158" lon="1.38749">
        <ele>1294</ele>
        <time>2025-09-27T10:22:29.000Z</time>
      </trkpt>
      <trkpt lat="42.81156" lon="1.38748">
        <ele>1294</ele>
        <time>2025-09-27T10:22:30.000Z</time>
      </trkpt>
      <trkpt lat="42.81153" lon="1.38748">
        <ele>1294</ele>
        <time>2025-09-27T10:22:31.000Z</time>
      </trkpt>
      <trkpt lat="42.81151" lon="1.38748">
        <ele>1295</ele>
        <time>2025-09-27T10:22:32.000Z</time>
      </trkpt>
      <trkpt lat="42.81148" lon="1.38747">
        <ele>1295</ele>
        <time>2025-09-27T10:22:33.000Z</time>
      </trkpt>
      <trkpt lat="42.81146" lon="1.38747">
        <ele>1296</ele>
        <time>2025-09-27T10:22:34.000Z</time>
      </trkpt>
      <trkpt lat="42.81144" lon="1.38746">
        <ele>1296</ele>
        <time>2025-09-27T10:22:35.000Z</time>
      </trkpt>
      <trkpt lat="42.81141" lon="1.38746">
        <ele>1295</ele>
        <time>2025-09-27T10:22:36.000Z</time>
      </trkpt>
      <trkpt lat="42.81139" lon="1.38746">
        <ele>1296</ele>
        <time>2025-09-27T10:22:37.000Z</time>
      </trkpt>
      <trkpt lat="42.81136" lon="1.38745">
        <ele>1296</ele>
        <time>2025-09-27T10:22:38.000Z</time>
      </trkpt>
      <trkpt lat="42.81133" lon="1.38744">
        <ele>1296</ele>
        <time>2025-09-27T10:22:39.000Z</time>
      </trkpt>
      <trkpt lat="42.8113" lon="1.38743">
        <ele>1297</ele>
        <time>2025-09-27T10:22:40.000Z</time>
      </trkpt>
      <trkpt lat="42.81127" lon="1.38742">
        <ele>1298</ele>
        <time>2025-09-27T10:22:41.000Z</time>
      </trkpt>
      <trkpt lat="42.81125" lon="1.38739">
        <ele>1298</ele>
        <time>2025-09-27T10:22:42.000Z</time>
      </trkpt>
      <trkpt lat="42.81124" lon="1.38736">
        <ele>1299</ele>
        <time>2025-09-27T10:22:43.000Z</time>
      </trkpt>
      <trkpt lat="42.81123" lon="1.38732">
        <ele>1300</ele>
        <time>2025-09-27T10:22:44.000Z</time>
      </trkpt>
      <trkpt lat="42.81122" lon="1.38727">
        <ele>1300</ele>
        <time>2025-09-27T10:22:45.000Z</time>
      </trkpt>
      <trkpt lat="42.81122" lon="1.38723">
        <ele>1300</ele>
        <time>2025-09-27T10:22:46.000Z</time>
      </trkpt>
      <trkpt lat="42.81123" lon="1.38719">
        <ele>1300</ele>
        <time>2025-09-27T10:22:47.000Z</time>
      </trkpt>
      <trkpt lat="42.81124" lon="1.38716">
        <ele>1300</ele>
        <time>2025-09-27T10:22:48.000Z</time>
      </trkpt>
      <trkpt lat="42.81126" lon="1.38713">
        <ele>1300</ele>
        <time>2025-09-27T10:22:49.000Z</time>
      </trkpt>
      <trkpt lat="42.81128" lon="1.3871">
        <ele>1301</ele>
        <time>2025-09-27T10:22:50.000Z</time>
      </trkpt>
      <trkpt lat="42.8113" lon="1.38706">
        <ele>1301</ele>
        <time>2025-09-27T10:22:51.000Z</time>
      </trkpt>
      <trkpt lat="42.81133" lon="1.38702">
        <ele>1302</ele>
        <time>2025-09-27T10:22:52.000Z</time>
      </trkpt>
      <trkpt lat="42.81135" lon="1.38697">
        <ele>1302</ele>
        <time>2025-09-27T10:22:53.000Z</time>
      </trkpt>
      <trkpt lat="42.81137" lon="1.38693">
        <ele>1303</ele>
        <time>2025-09-27T10:22:54.000Z</time>
      </trkpt>
      <trkpt lat="42.81138" lon="1.38688">
        <ele>1303</ele>
        <time>2025-09-27T10:22:55.000Z</time>
      </trkpt>
      <trkpt lat="42.81139" lon="1.38684">
        <ele>1303</ele>
        <time>2025-09-27T10:22:56.000Z</time>
      </trkpt>
      <trkpt lat="42.81141" lon="1.3868">
        <ele>1304</ele>
        <time>2025-09-27T10:22:57.000Z</time>
      </trkpt>
      <trkpt lat="42.81142" lon="1.38676">
        <ele>1305</ele>
        <time>2025-09-27T10:22:58.000Z</time>
      </trkpt>
      <trkpt lat="42.81143" lon="1.38672">
        <ele>1305</ele>
        <time>2025-09-27T10:22:59.000Z</time>
      </trkpt>
      <trkpt lat="42.81142" lon="1.38667">
        <ele>1306</ele>
        <time>2025-09-27T10:23:00.000Z</time>
      </trkpt>
      <trkpt lat="42.81142" lon="1.38663">
        <ele>1306</ele>
        <time>2025-09-27T10:23:01.000Z</time>
      </trkpt>
      <trkpt lat="42.81141" lon="1.38658">
        <ele>1307</ele>
        <time>2025-09-27T10:23:02.000Z</time>
      </trkpt>
      <trkpt lat="42.81139" lon="1.38654">
        <ele>1306</ele>
        <time>2025-09-27T10:23:03.000Z</time>
      </trkpt>
      <trkpt lat="42.81137" lon="1.3865">
        <ele>1306</ele>
        <time>2025-09-27T10:23:04.000Z</time>
      </trkpt>
      <trkpt lat="42.81135" lon="1.38646">
        <ele>1306</ele>
        <time>2025-09-27T10:23:05.000Z</time>
      </trkpt>
      <trkpt lat="42.81132" lon="1.38643">
        <ele>1306</ele>
        <time>2025-09-27T10:23:06.000Z</time>
      </trkpt>
      <trkpt lat="42.8113" lon="1.3864">
        <ele>1306</ele>
        <time>2025-09-27T10:23:07.000Z</time>
      </trkpt>
      <trkpt lat="42.81127" lon="1.38639">
        <ele>1306</ele>
        <time>2025-09-27T10:23:08.000Z</time>
      </trkpt>
      <trkpt lat="42.81124" lon="1.38637">
        <ele>1307</ele>
        <time>2025-09-27T10:23:09.000Z</time>
      </trkpt>
      <trkpt lat="42.81121" lon="1.38635">
        <ele>1307</ele>
        <time>2025-09-27T10:23:10.000Z</time>
      </trkpt>
      <trkpt lat="42.81118" lon="1.38633">
        <ele>1307</ele>
        <time>2025-09-27T10:23:11.000Z</time>
      </trkpt>
      <trkpt lat="42.81116" lon="1.3863">
        <ele>1307</ele>
        <time>2025-09-27T10:23:12.000Z</time>
      </trkpt>
      <trkpt lat="42.81114" lon="1.38628">
        <ele>1308</ele>
        <time>2025-09-27T10:23:13.000Z</time>
      </trkpt>
      <trkpt lat="42.81111" lon="1.38626">
        <ele>1308</ele>
        <time>2025-09-27T10:23:14.000Z</time>
      </trkpt>
      <trkpt lat="42.81109" lon="1.38624">
        <ele>1308</ele>
        <time>2025-09-27T10:23:15.000Z</time>
      </trkpt>
      <trkpt lat="42.81106" lon="1.38622">
        <ele>1308</ele>
        <time>2025-09-27T10:23:16.000Z</time>
      </trkpt>
      <trkpt lat="42.81103" lon="1.3862">
        <ele>1309</ele>
        <time>2025-09-27T10:23:17.000Z</time>
      </trkpt>
      <trkpt lat="42.81101" lon="1.38617">
        <ele>1309</ele>
        <time>2025-09-27T10:23:18.000Z</time>
      </trkpt>
      <trkpt lat="42.81098" lon="1.38616">
        <ele>1310</ele>
        <time>2025-09-27T10:23:19.000Z</time>
      </trkpt>
      <trkpt lat="42.81095" lon="1.38614">
        <ele>1310</ele>
        <time>2025-09-27T10:23:20.000Z</time>
      </trkpt>
      <trkpt lat="42.81092" lon="1.38613">
        <ele>1310</ele>
        <time>2025-09-27T10:23:21.000Z</time>
      </trkpt>
      <trkpt lat="42.81089" lon="1.38611">
        <ele>1311</ele>
        <time>2025-09-27T10:23:22.000Z</time>
      </trkpt>
      <trkpt lat="42.81086" lon="1.3861">
        <ele>1311</ele>
        <time>2025-09-27T10:23:23.000Z</time>
      </trkpt>
      <trkpt lat="42.81083" lon="1.38608">
        <ele>1311</ele>
        <time>2025-09-27T10:23:24.000Z</time>
      </trkpt>
      <trkpt lat="42.81081" lon="1.38606">
        <ele>1310</ele>
        <time>2025-09-27T10:23:25.000Z</time>
      </trkpt>
      <trkpt lat="42.81078" lon="1.38605">
        <ele>1311</ele>
        <time>2025-09-27T10:23:26.000Z</time>
      </trkpt>
      <trkpt lat="42.81075" lon="1.38604">
        <ele>1311</ele>
        <time>2025-09-27T10:23:27.000Z</time>
      </trkpt>
      <trkpt lat="42.81072" lon="1.38602">
        <ele>1311</ele>
        <time>2025-09-27T10:23:28.000Z</time>
      </trkpt>
      <trkpt lat="42.81069" lon="1.38601">
        <ele>1311</ele>
        <time>2025-09-27T10:23:29.000Z</time>
      </trkpt>
      <trkpt lat="42.81065" lon="1.386">
        <ele>1312</ele>
        <time>2025-09-27T10:23:30.000Z</time>
      </trkpt>
      <trkpt lat="42.81062" lon="1.38599">
        <ele>1312</ele>
        <time>2025-09-27T10:23:31.000Z</time>
      </trkpt>
      <trkpt lat="42.81059" lon="1.38597">
        <ele>1312</ele>
        <time>2025-09-27T10:23:32.000Z</time>
      </trkpt>
      <trkpt lat="42.81056" lon="1.38596">
        <ele>1312</ele>
        <time>2025-09-27T10:23:33.000Z</time>
      </trkpt>
      <trkpt lat="42.81053" lon="1.38595">
        <ele>1313</ele>
        <time>2025-09-27T10:23:34.000Z</time>
      </trkpt>
      <trkpt lat="42.8105" lon="1.38595">
        <ele>1312</ele>
        <time>2025-09-27T10:23:35.000Z</time>
      </trkpt>
      <trkpt lat="42.81047" lon="1.38594">
        <ele>1312</ele>
        <time>2025-09-27T10:23:36.000Z</time>
      </trkpt>
      <trkpt lat="42.81043" lon="1.38593">
        <ele>1312</ele>
        <time>2025-09-27T10:23:37.000Z</time>
      </trkpt>
      <trkpt lat="42.8104" lon="1.38591">
        <ele>1312</ele>
        <time>2025-09-27T10:23:38.000Z</time>
      </trkpt>
      <trkpt lat="42.81037" lon="1.38591">
        <ele>1312</ele>
        <time>2025-09-27T10:23:39.000Z</time>
      </trkpt>
      <trkpt lat="42.81034" lon="1.3859">
        <ele>1312</ele>
        <time>2025-09-27T10:23:40.000Z</time>
      </trkpt>
      <trkpt lat="42.81031" lon="1.38589">
        <ele>1311</ele>
        <time>2025-09-27T10:23:41.000Z</time>
      </trkpt>
      <trkpt lat="42.81028" lon="1.38589">
        <ele>1312</ele>
        <time>2025-09-27T10:23:42.000Z</time>
      </trkpt>
      <trkpt lat="42.81025" lon="1.38588">
        <ele>1312</ele>
        <time>2025-09-27T10:23:43.000Z</time>
      </trkpt>
      <trkpt lat="42.81022" lon="1.38588">
        <ele>1313</ele>
        <time>2025-09-27T10:23:44.000Z</time>
      </trkpt>
      <trkpt lat="42.81019" lon="1.38588">
        <ele>1313</ele>
        <time>2025-09-27T10:23:45.000Z</time>
      </trkpt>
      <trkpt lat="42.81016" lon="1.38587">
        <ele>1314</ele>
        <time>2025-09-27T10:23:46.000Z</time>
      </trkpt>
      <trkpt lat="42.81013" lon="1.38586">
        <ele>1314</ele>
        <time>2025-09-27T10:23:47.000Z</time>
      </trkpt>
      <trkpt lat="42.81011" lon="1.38583">
        <ele>1314</ele>
        <time>2025-09-27T10:23:48.000Z</time>
      </trkpt>
      <trkpt lat="42.8101" lon="1.3858">
        <ele>1314</ele>
        <time>2025-09-27T10:23:49.000Z</time>
      </trkpt>
      <trkpt lat="42.8101" lon="1.38576">
        <ele>1314</ele>
        <time>2025-09-27T10:23:50.000Z</time>
      </trkpt>
      <trkpt lat="42.81011" lon="1.38574">
        <ele>1315</ele>
        <time>2025-09-27T10:23:51.000Z</time>
      </trkpt>
      <trkpt lat="42.81014" lon="1.38573">
        <ele>1315</ele>
        <time>2025-09-27T10:23:52.000Z</time>
      </trkpt>
      <trkpt lat="42.81017" lon="1.38573">
        <ele>1315</ele>
        <time>2025-09-27T10:23:53.000Z</time>
      </trkpt>
      <trkpt lat="42.81021" lon="1.38573">
        <ele>1316</ele>
        <time>2025-09-27T10:23:54.000Z</time>
      </trkpt>
      <trkpt lat="42.81024" lon="1.38573">
        <ele>1316</ele>
        <time>2025-09-27T10:23:55.000Z</time>
      </trkpt>
      <trkpt lat="42.81028" lon="1.38573">
        <ele>1317</ele>
        <time>2025-09-27T10:23:56.000Z</time>
      </trkpt>
      <trkpt lat="42.81031" lon="1.38573">
        <ele>1317</ele>
        <time>2025-09-27T10:23:57.000Z</time>
      </trkpt>
      <trkpt lat="42.81035" lon="1.38573">
        <ele>1318</ele>
        <time>2025-09-27T10:23:58.000Z</time>
      </trkpt>
      <trkpt lat="42.81038" lon="1.38572">
        <ele>1318</ele>
        <time>2025-09-27T10:23:59.000Z</time>
      </trkpt>
      <trkpt lat="42.81042" lon="1.38571">
        <ele>1319</ele>
        <time>2025-09-27T10:24:00.000Z</time>
      </trkpt>
      <trkpt lat="42.81045" lon="1.3857">
        <ele>1319</ele>
        <time>2025-09-27T10:24:01.000Z</time>
      </trkpt>
      <trkpt lat="42.81048" lon="1.38568">
        <ele>1319</ele>
        <time>2025-09-27T10:24:02.000Z</time>
      </trkpt>
      <trkpt lat="42.81051" lon="1.38567">
        <ele>1319</ele>
        <time>2025-09-27T10:24:03.000Z</time>
      </trkpt>
      <trkpt lat="42.81055" lon="1.38566">
        <ele>1319</ele>
        <time>2025-09-27T10:24:04.000Z</time>
      </trkpt>
      <trkpt lat="42.81058" lon="1.38566">
        <ele>1320</ele>
        <time>2025-09-27T10:24:05.000Z</time>
      </trkpt>
      <trkpt lat="42.8106" lon="1.38565">
        <ele>1320</ele>
        <time>2025-09-27T10:24:06.000Z</time>
      </trkpt>
      <trkpt lat="42.81064" lon="1.38564">
        <ele>1320</ele>
        <time>2025-09-27T10:24:07.000Z</time>
      </trkpt>
      <trkpt lat="42.81068" lon="1.38564">
        <ele>1320</ele>
        <time>2025-09-27T10:24:08.000Z</time>
      </trkpt>
      <trkpt lat="42.81072" lon="1.38563">
        <ele>1321</ele>
        <time>2025-09-27T10:24:09.000Z</time>
      </trkpt>
      <trkpt lat="42.81076" lon="1.38563">
        <ele>1320</ele>
        <time>2025-09-27T10:24:10.000Z</time>
      </trkpt>
      <trkpt lat="42.81079" lon="1.38563">
        <ele>1320</ele>
        <time>2025-09-27T10:24:11.000Z</time>
      </trkpt>
      <trkpt lat="42.81083" lon="1.38563">
        <ele>1321</ele>
        <time>2025-09-27T10:24:12.000Z</time>
      </trkpt>
      <trkpt lat="42.81086" lon="1.38563">
        <ele>1321</ele>
        <time>2025-09-27T10:24:13.000Z</time>
      </trkpt>
      <trkpt lat="42.8109" lon="1.38563">
        <ele>1321</ele>
        <time>2025-09-27T10:24:14.000Z</time>
      </trkpt>
      <trkpt lat="42.81093" lon="1.38563">
        <ele>1322</ele>
        <time>2025-09-27T10:24:15.000Z</time>
      </trkpt>
      <trkpt lat="42.81096" lon="1.38563">
        <ele>1322</ele>
        <time>2025-09-27T10:24:16.000Z</time>
      </trkpt>
      <trkpt lat="42.811" lon="1.38564">
        <ele>1322</ele>
        <time>2025-09-27T10:24:17.000Z</time>
      </trkpt>
      <trkpt lat="42.81102" lon="1.38564">
        <ele>1322</ele>
        <time>2025-09-27T10:24:18.000Z</time>
      </trkpt>
      <trkpt lat="42.81106" lon="1.38564">
        <ele>1322</ele>
        <time>2025-09-27T10:24:19.000Z</time>
      </trkpt>
      <trkpt lat="42.81109" lon="1.38565">
        <ele>1323</ele>
        <time>2025-09-27T10:24:20.000Z</time>
      </trkpt>
      <trkpt lat="42.81112" lon="1.38566">
        <ele>1323</ele>
        <time>2025-09-27T10:24:21.000Z</time>
      </trkpt>
      <trkpt lat="42.81115" lon="1.38566">
        <ele>1323</ele>
        <time>2025-09-27T10:24:22.000Z</time>
      </trkpt>
      <trkpt lat="42.81119" lon="1.38566">
        <ele>1324</ele>
        <time>2025-09-27T10:24:23.000Z</time>
      </trkpt>
      <trkpt lat="42.81122" lon="1.38566">
        <ele>1324</ele>
        <time>2025-09-27T10:24:24.000Z</time>
      </trkpt>
      <trkpt lat="42.81125" lon="1.38565">
        <ele>1324</ele>
        <time>2025-09-27T10:24:25.000Z</time>
      </trkpt>
      <trkpt lat="42.81128" lon="1.38563">
        <ele>1324</ele>
        <time>2025-09-27T10:24:26.000Z</time>
      </trkpt>
      <trkpt lat="42.8113" lon="1.3856">
        <ele>1324</ele>
        <time>2025-09-27T10:24:27.000Z</time>
      </trkpt>
      <trkpt lat="42.81132" lon="1.38556">
        <ele>1325</ele>
        <time>2025-09-27T10:24:28.000Z</time>
      </trkpt>
      <trkpt lat="42.81131" lon="1.38551">
        <ele>1325</ele>
        <time>2025-09-27T10:24:29.000Z</time>
      </trkpt>
      <trkpt lat="42.81129" lon="1.38548">
        <ele>1325</ele>
        <time>2025-09-27T10:24:30.000Z</time>
      </trkpt>
      <trkpt lat="42.81126" lon="1.38545">
        <ele>1325</ele>
        <time>2025-09-27T10:24:31.000Z</time>
      </trkpt>
      <trkpt lat="42.81124" lon="1.38544">
        <ele>1325</ele>
        <time>2025-09-27T10:24:32.000Z</time>
      </trkpt>
      <trkpt lat="42.81123" lon="1.38542">
        <ele>1325</ele>
        <time>2025-09-27T10:24:33.000Z</time>
      </trkpt>
      <trkpt lat="42.8112" lon="1.38539">
        <ele>1325</ele>
        <time>2025-09-27T10:24:34.000Z</time>
      </trkpt>
      <trkpt lat="42.81117" lon="1.38538">
        <ele>1325</ele>
        <time>2025-09-27T10:24:35.000Z</time>
      </trkpt>
      <trkpt lat="42.81114" lon="1.38538">
        <ele>1325</ele>
        <time>2025-09-27T10:24:36.000Z</time>
      </trkpt>
      <trkpt lat="42.81111" lon="1.38538">
        <ele>1325</ele>
        <time>2025-09-27T10:24:37.000Z</time>
      </trkpt>
      <trkpt lat="42.81108" lon="1.38537">
        <ele>1326</ele>
        <time>2025-09-27T10:24:38.000Z</time>
      </trkpt>
      <trkpt lat="42.81104" lon="1.38538">
        <ele>1326</ele>
        <time>2025-09-27T10:24:39.000Z</time>
      </trkpt>
      <trkpt lat="42.81101" lon="1.38537">
        <ele>1327</ele>
        <time>2025-09-27T10:24:40.000Z</time>
      </trkpt>
      <trkpt lat="42.81098" lon="1.38537">
        <ele>1327</ele>
        <time>2025-09-27T10:24:41.000Z</time>
      </trkpt>
      <trkpt lat="42.81095" lon="1.38536">
        <ele>1328</ele>
        <time>2025-09-27T10:24:42.000Z</time>
      </trkpt>
      <trkpt lat="42.81091" lon="1.38535">
        <ele>1328</ele>
        <time>2025-09-27T10:24:43.000Z</time>
      </trkpt>
      <trkpt lat="42.81089" lon="1.38534">
        <ele>1328</ele>
        <time>2025-09-27T10:24:44.000Z</time>
      </trkpt>
      <trkpt lat="42.81086" lon="1.38533">
        <ele>1328</ele>
        <time>2025-09-27T10:24:45.000Z</time>
      </trkpt>
      <trkpt lat="42.81083" lon="1.38532">
        <ele>1328</ele>
        <time>2025-09-27T10:24:46.000Z</time>
      </trkpt>
      <trkpt lat="42.8108" lon="1.3853">
        <ele>1329</ele>
        <time>2025-09-27T10:24:47.000Z</time>
      </trkpt>
      <trkpt lat="42.81077" lon="1.38528">
        <ele>1329</ele>
        <time>2025-09-27T10:24:48.000Z</time>
      </trkpt>
      <trkpt lat="42.81073" lon="1.38527">
        <ele>1329</ele>
        <time>2025-09-27T10:24:49.000Z</time>
      </trkpt>
      <trkpt lat="42.8107" lon="1.38526">
        <ele>1329</ele>
        <time>2025-09-27T10:24:50.000Z</time>
      </trkpt>
      <trkpt lat="42.81067" lon="1.38525">
        <ele>1329</ele>
        <time>2025-09-27T10:24:51.000Z</time>
      </trkpt>
      <trkpt lat="42.81064" lon="1.38524">
        <ele>1330</ele>
        <time>2025-09-27T10:24:52.000Z</time>
      </trkpt>
      <trkpt lat="42.81062" lon="1.38523">
        <ele>1330</ele>
        <time>2025-09-27T10:24:53.000Z</time>
      </trkpt>
      <trkpt lat="42.81059" lon="1.38522">
        <ele>1330</ele>
        <time>2025-09-27T10:24:54.000Z</time>
      </trkpt>
      <trkpt lat="42.81055" lon="1.3852">
        <ele>1330</ele>
        <time>2025-09-27T10:24:55.000Z</time>
      </trkpt>
      <trkpt lat="42.81053" lon="1.38519">
        <ele>1330</ele>
        <time>2025-09-27T10:24:56.000Z</time>
      </trkpt>
      <trkpt lat="42.8105" lon="1.38519">
        <ele>1330</ele>
        <time>2025-09-27T10:24:57.000Z</time>
      </trkpt>
      <trkpt lat="42.81047" lon="1.38517">
        <ele>1330</ele>
        <time>2025-09-27T10:24:58.000Z</time>
      </trkpt>
      <trkpt lat="42.81044" lon="1.38517">
        <ele>1330</ele>
        <time>2025-09-27T10:24:59.000Z</time>
      </trkpt>
      <trkpt lat="42.81041" lon="1.38515">
        <ele>1330</ele>
        <time>2025-09-27T10:25:00.000Z</time>
      </trkpt>
      <trkpt lat="42.81038" lon="1.38514">
        <ele>1330</ele>
        <time>2025-09-27T10:25:01.000Z</time>
      </trkpt>
      <trkpt lat="42.81035" lon="1.38513">
        <ele>1330</ele>
        <time>2025-09-27T10:25:02.000Z</time>
      </trkpt>
      <trkpt lat="42.81032" lon="1.38512">
        <ele>1331</ele>
        <time>2025-09-27T10:25:03.000Z</time>
      </trkpt>
      <trkpt lat="42.8103" lon="1.3851">
        <ele>1330</ele>
        <time>2025-09-27T10:25:04.000Z</time>
      </trkpt>
      <trkpt lat="42.81027" lon="1.38509">
        <ele>1331</ele>
        <time>2025-09-27T10:25:05.000Z</time>
      </trkpt>
      <trkpt lat="42.81025" lon="1.38508">
        <ele>1331</ele>
        <time>2025-09-27T10:25:06.000Z</time>
      </trkpt>
      <trkpt lat="42.81022" lon="1.38506">
        <ele>1331</ele>
        <time>2025-09-27T10:25:07.000Z</time>
      </trkpt>
      <trkpt lat="42.8102" lon="1.38505">
        <ele>1332</ele>
        <time>2025-09-27T10:25:08.000Z</time>
      </trkpt>
      <trkpt lat="42.81017" lon="1.38503">
        <ele>1332</ele>
        <time>2025-09-27T10:25:09.000Z</time>
      </trkpt>
      <trkpt lat="42.81014" lon="1.38501">
        <ele>1332</ele>
        <time>2025-09-27T10:25:10.000Z</time>
      </trkpt>
      <trkpt lat="42.81012" lon="1.38499">
        <ele>1332</ele>
        <time>2025-09-27T10:25:11.000Z</time>
      </trkpt>
      <trkpt lat="42.8101" lon="1.38497">
        <ele>1332</ele>
        <time>2025-09-27T10:25:12.000Z</time>
      </trkpt>
      <trkpt lat="42.81008" lon="1.38496">
        <ele>1333</ele>
        <time>2025-09-27T10:25:13.000Z</time>
      </trkpt>
      <trkpt lat="42.81006" lon="1.38493">
        <ele>1333</ele>
        <time>2025-09-27T10:25:14.000Z</time>
      </trkpt>
      <trkpt lat="42.81004" lon="1.38491">
        <ele>1334</ele>
        <time>2025-09-27T10:25:15.000Z</time>
      </trkpt>
      <trkpt lat="42.81002" lon="1.38488">
        <ele>1334</ele>
        <time>2025-09-27T10:25:16.000Z</time>
      </trkpt>
      <trkpt lat="42.81" lon="1.38485">
        <ele>1334</ele>
        <time>2025-09-27T10:25:17.000Z</time>
      </trkpt>
      <trkpt lat="42.80999" lon="1.38482">
        <ele>1334</ele>
        <time>2025-09-27T10:25:18.000Z</time>
      </trkpt>
      <trkpt lat="42.80997" lon="1.38479">
        <ele>1334</ele>
        <time>2025-09-27T10:25:19.000Z</time>
      </trkpt>
      <trkpt lat="42.80996" lon="1.38476">
        <ele>1334</ele>
        <time>2025-09-27T10:25:20.000Z</time>
      </trkpt>
      <trkpt lat="42.80994" lon="1.38473">
        <ele>1334</ele>
        <time>2025-09-27T10:25:21.000Z</time>
      </trkpt>
      <trkpt lat="42.80993" lon="1.3847">
        <ele>1334</ele>
        <time>2025-09-27T10:25:22.000Z</time>
      </trkpt>
      <trkpt lat="42.80991" lon="1.38467">
        <ele>1335</ele>
        <time>2025-09-27T10:25:23.000Z</time>
      </trkpt>
      <trkpt lat="42.8099" lon="1.38464">
        <ele>1335</ele>
        <time>2025-09-27T10:25:24.000Z</time>
      </trkpt>
      <trkpt lat="42.80989" lon="1.3846">
        <ele>1335</ele>
        <time>2025-09-27T10:25:25.000Z</time>
      </trkpt>
      <trkpt lat="42.80987" lon="1.38457">
        <ele>1335</ele>
        <time>2025-09-27T10:25:26.000Z</time>
      </trkpt>
      <trkpt lat="42.80985" lon="1.38454">
        <ele>1335</ele>
        <time>2025-09-27T10:25:27.000Z</time>
      </trkpt>
      <trkpt lat="42.80984" lon="1.3845">
        <ele>1335</ele>
        <time>2025-09-27T10:25:28.000Z</time>
      </trkpt>
      <trkpt lat="42.80983" lon="1.38448">
        <ele>1335</ele>
        <time>2025-09-27T10:25:29.000Z</time>
      </trkpt>
      <trkpt lat="42.80981" lon="1.38445">
        <ele>1336</ele>
        <time>2025-09-27T10:25:30.000Z</time>
      </trkpt>
      <trkpt lat="42.80979" lon="1.38442">
        <ele>1336</ele>
        <time>2025-09-27T10:25:31.000Z</time>
      </trkpt>
      <trkpt lat="42.80977" lon="1.38438">
        <ele>1336</ele>
        <time>2025-09-27T10:25:32.000Z</time>
      </trkpt>
      <trkpt lat="42.80976" lon="1.38436">
        <ele>1335</ele>
        <time>2025-09-27T10:25:33.000Z</time>
      </trkpt>
      <trkpt lat="42.80974" lon="1.38433">
        <ele>1335</ele>
        <time>2025-09-27T10:25:34.000Z</time>
      </trkpt>
      <trkpt lat="42.80972" lon="1.38431">
        <ele>1336</ele>
        <time>2025-09-27T10:25:35.000Z</time>
      </trkpt>
      <trkpt lat="42.8097" lon="1.38429">
        <ele>1336</ele>
        <time>2025-09-27T10:25:36.000Z</time>
      </trkpt>
      <trkpt lat="42.80968" lon="1.38426">
        <ele>1336</ele>
        <time>2025-09-27T10:25:37.000Z</time>
      </trkpt>
      <trkpt lat="42.80966" lon="1.38423">
        <ele>1336</ele>
        <time>2025-09-27T10:25:38.000Z</time>
      </trkpt>
      <trkpt lat="42.80963" lon="1.38421">
        <ele>1336</ele>
        <time>2025-09-27T10:25:39.000Z</time>
      </trkpt>
      <trkpt lat="42.80961" lon="1.38419">
        <ele>1336</ele>
        <time>2025-09-27T10:25:40.000Z</time>
      </trkpt>
      <trkpt lat="42.80959" lon="1.38416">
        <ele>1337</ele>
        <time>2025-09-27T10:25:41.000Z</time>
      </trkpt>
      <trkpt lat="42.80957" lon="1.38413">
        <ele>1337</ele>
        <time>2025-09-27T10:25:42.000Z</time>
      </trkpt>
      <trkpt lat="42.80955" lon="1.38411">
        <ele>1337</ele>
        <time>2025-09-27T10:25:43.000Z</time>
      </trkpt>
      <trkpt lat="42.80953" lon="1.38409">
        <ele>1338</ele>
        <time>2025-09-27T10:25:44.000Z</time>
      </trkpt>
      <trkpt lat="42.80951" lon="1.38408">
        <ele>1339</ele>
        <time>2025-09-27T10:25:45.000Z</time>
      </trkpt>
      <trkpt lat="42.80948" lon="1.38406">
        <ele>1339</ele>
        <time>2025-09-27T10:25:46.000Z</time>
      </trkpt>
      <trkpt lat="42.80946" lon="1.38405">
        <ele>1339</ele>
        <time>2025-09-27T10:25:47.000Z</time>
      </trkpt>
      <trkpt lat="42.80943" lon="1.38403">
        <ele>1339</ele>
        <time>2025-09-27T10:25:48.000Z</time>
      </trkpt>
      <trkpt lat="42.80941" lon="1.38401">
        <ele>1340</ele>
        <time>2025-09-27T10:25:49.000Z</time>
      </trkpt>
      <trkpt lat="42.80939" lon="1.384">
        <ele>1339</ele>
        <time>2025-09-27T10:25:50.000Z</time>
      </trkpt>
      <trkpt lat="42.80937" lon="1.38397">
        <ele>1340</ele>
        <time>2025-09-27T10:25:51.000Z</time>
      </trkpt>
      <trkpt lat="42.80934" lon="1.38396">
        <ele>1340</ele>
        <time>2025-09-27T10:25:52.000Z</time>
      </trkpt>
      <trkpt lat="42.80932" lon="1.38394">
        <ele>1340</ele>
        <time>2025-09-27T10:25:53.000Z</time>
      </trkpt>
      <trkpt lat="42.8093" lon="1.38392">
        <ele>1340</ele>
        <time>2025-09-27T10:25:54.000Z</time>
      </trkpt>
      <trkpt lat="42.80929" lon="1.38389">
        <ele>1340</ele>
        <time>2025-09-27T10:25:55.000Z</time>
      </trkpt>
      <trkpt lat="42.80928" lon="1.38385">
        <ele>1340</ele>
        <time>2025-09-27T10:25:56.000Z</time>
      </trkpt>
      <trkpt lat="42.80926" lon="1.38383">
        <ele>1340</ele>
        <time>2025-09-27T10:25:57.000Z</time>
      </trkpt>
      <trkpt lat="42.80923" lon="1.38382">
        <ele>1341</ele>
        <time>2025-09-27T10:25:58.000Z</time>
      </trkpt>
      <trkpt lat="42.8092" lon="1.38381">
        <ele>1341</ele>
        <time>2025-09-27T10:25:59.000Z</time>
      </trkpt>
      <trkpt lat="42.80917" lon="1.3838">
        <ele>1341</ele>
        <time>2025-09-27T10:26:00.000Z</time>
      </trkpt>
      <trkpt lat="42.80915" lon="1.38379">
        <ele>1341</ele>
        <time>2025-09-27T10:26:01.000Z</time>
      </trkpt>
      <trkpt lat="42.80913" lon="1.38377">
        <ele>1342</ele>
        <time>2025-09-27T10:26:02.000Z</time>
      </trkpt>
      <trkpt lat="42.8091" lon="1.38376">
        <ele>1342</ele>
        <time>2025-09-27T10:26:03.000Z</time>
      </trkpt>
      <trkpt lat="42.80908" lon="1.38375">
        <ele>1342</ele>
        <time>2025-09-27T10:26:04.000Z</time>
      </trkpt>
      <trkpt lat="42.80906" lon="1.38373">
        <ele>1342</ele>
        <time>2025-09-27T10:26:05.000Z</time>
      </trkpt>
      <trkpt lat="42.80903" lon="1.38371">
        <ele>1342</ele>
        <time>2025-09-27T10:26:06.000Z</time>
      </trkpt>
      <trkpt lat="42.80901" lon="1.3837">
        <ele>1342</ele>
        <time>2025-09-27T10:26:07.000Z</time>
      </trkpt>
      <trkpt lat="42.80898" lon="1.38369">
        <ele>1342</ele>
        <time>2025-09-27T10:26:08.000Z</time>
      </trkpt>
      <trkpt lat="42.80896" lon="1.38366">
        <ele>1342</ele>
        <time>2025-09-27T10:26:09.000Z</time>
      </trkpt>
      <trkpt lat="42.80894" lon="1.38365">
        <ele>1342</ele>
        <time>2025-09-27T10:26:10.000Z</time>
      </trkpt>
      <trkpt lat="42.80891" lon="1.38363">
        <ele>1343</ele>
        <time>2025-09-27T10:26:11.000Z</time>
      </trkpt>
      <trkpt lat="42.80888" lon="1.38362">
        <ele>1343</ele>
        <time>2025-09-27T10:26:12.000Z</time>
      </trkpt>
      <trkpt lat="42.80886" lon="1.3836">
        <ele>1343</ele>
        <time>2025-09-27T10:26:13.000Z</time>
      </trkpt>
      <trkpt lat="42.80883" lon="1.38359">
        <ele>1344</ele>
        <time>2025-09-27T10:26:14.000Z</time>
      </trkpt>
      <trkpt lat="42.80881" lon="1.38358">
        <ele>1344</ele>
        <time>2025-09-27T10:26:15.000Z</time>
      </trkpt>
      <trkpt lat="42.80878" lon="1.38357">
        <ele>1345</ele>
        <time>2025-09-27T10:26:16.000Z</time>
      </trkpt>
      <trkpt lat="42.80876" lon="1.38356">
        <ele>1345</ele>
        <time>2025-09-27T10:26:17.000Z</time>
      </trkpt>
      <trkpt lat="42.80873" lon="1.38354">
        <ele>1346</ele>
        <time>2025-09-27T10:26:18.000Z</time>
      </trkpt>
      <trkpt lat="42.80871" lon="1.38353">
        <ele>1346</ele>
        <time>2025-09-27T10:26:19.000Z</time>
      </trkpt>
      <trkpt lat="42.80868" lon="1.38352">
        <ele>1346</ele>
        <time>2025-09-27T10:26:20.000Z</time>
      </trkpt>
      <trkpt lat="42.80865" lon="1.38351">
        <ele>1346</ele>
        <time>2025-09-27T10:26:21.000Z</time>
      </trkpt>
      <trkpt lat="42.80862" lon="1.3835">
        <ele>1347</ele>
        <time>2025-09-27T10:26:22.000Z</time>
      </trkpt>
      <trkpt lat="42.8086" lon="1.38349">
        <ele>1346</ele>
        <time>2025-09-27T10:26:23.000Z</time>
      </trkpt>
      <trkpt lat="42.80857" lon="1.38348">
        <ele>1347</ele>
        <time>2025-09-27T10:26:24.000Z</time>
      </trkpt>
      <trkpt lat="42.80855" lon="1.38347">
        <ele>1347</ele>
        <time>2025-09-27T10:26:25.000Z</time>
      </trkpt>
      <trkpt lat="42.80852" lon="1.38346">
        <ele>1347</ele>
        <time>2025-09-27T10:26:26.000Z</time>
      </trkpt>
      <trkpt lat="42.8085" lon="1.38345">
        <ele>1348</ele>
        <time>2025-09-27T10:26:27.000Z</time>
      </trkpt>
      <trkpt lat="42.80847" lon="1.38344">
        <ele>1348</ele>
        <time>2025-09-27T10:26:28.000Z</time>
      </trkpt>
      <trkpt lat="42.80845" lon="1.38344">
        <ele>1348</ele>
        <time>2025-09-27T10:26:29.000Z</time>
      </trkpt>
      <trkpt lat="42.80842" lon="1.38343">
        <ele>1348</ele>
        <time>2025-09-27T10:26:30.000Z</time>
      </trkpt>
      <trkpt lat="42.8084" lon="1.38342">
        <ele>1349</ele>
        <time>2025-09-27T10:26:31.000Z</time>
      </trkpt>
      <trkpt lat="42.80838" lon="1.3834">
        <ele>1349</ele>
        <time>2025-09-27T10:26:32.000Z</time>
      </trkpt>
      <trkpt lat="42.80835" lon="1.38339">
        <ele>1349</ele>
        <time>2025-09-27T10:26:33.000Z</time>
      </trkpt>
      <trkpt lat="42.80833" lon="1.38338">
        <ele>1349</ele>
        <time>2025-09-27T10:26:34.000Z</time>
      </trkpt>
      <trkpt lat="42.80831" lon="1.38336">
        <ele>1349</ele>
        <time>2025-09-27T10:26:35.000Z</time>
      </trkpt>
      <trkpt lat="42.80829" lon="1.38333">
        <ele>1350</ele>
        <time>2025-09-27T10:26:36.000Z</time>
      </trkpt>
      <trkpt lat="42.80828" lon="1.38331">
        <ele>1349</ele>
        <time>2025-09-27T10:26:37.000Z</time>
      </trkpt>
      <trkpt lat="42.80827" lon="1.38328">
        <ele>1350</ele>
        <time>2025-09-27T10:26:38.000Z</time>
      </trkpt>
      <trkpt lat="42.80825" lon="1.38325">
        <ele>1350</ele>
        <time>2025-09-27T10:26:39.000Z</time>
      </trkpt>
      <trkpt lat="42.80825" lon="1.38321">
        <ele>1350</ele>
        <time>2025-09-27T10:26:40.000Z</time>
      </trkpt>
      <trkpt lat="42.80825" lon="1.38318">
        <ele>1350</ele>
        <time>2025-09-27T10:26:41.000Z</time>
      </trkpt>
      <trkpt lat="42.80825" lon="1.38313">
        <ele>1350</ele>
        <time>2025-09-27T10:26:42.000Z</time>
      </trkpt>
      <trkpt lat="42.80825" lon="1.3831">
        <ele>1350</ele>
        <time>2025-09-27T10:26:43.000Z</time>
      </trkpt>
      <trkpt lat="42.80825" lon="1.38306">
        <ele>1350</ele>
        <time>2025-09-27T10:26:44.000Z</time>
      </trkpt>
      <trkpt lat="42.80824" lon="1.38302">
        <ele>1350</ele>
        <time>2025-09-27T10:26:45.000Z</time>
      </trkpt>
      <trkpt lat="42.80823" lon="1.383">
        <ele>1350</ele>
        <time>2025-09-27T10:26:46.000Z</time>
      </trkpt>
      <trkpt lat="42.80821" lon="1.38297">
        <ele>1351</ele>
        <time>2025-09-27T10:26:47.000Z</time>
      </trkpt>
      <trkpt lat="42.80818" lon="1.38295">
        <ele>1351</ele>
        <time>2025-09-27T10:26:48.000Z</time>
      </trkpt>
      <trkpt lat="42.80816" lon="1.38292">
        <ele>1351</ele>
        <time>2025-09-27T10:26:49.000Z</time>
      </trkpt>
      <trkpt lat="42.80815" lon="1.38289">
        <ele>1351</ele>
        <time>2025-09-27T10:26:50.000Z</time>
      </trkpt>
      <trkpt lat="42.80815" lon="1.38285">
        <ele>1351</ele>
        <time>2025-09-27T10:26:51.000Z</time>
      </trkpt>
      <trkpt lat="42.80815" lon="1.38282">
        <ele>1351</ele>
        <time>2025-09-27T10:26:52.000Z</time>
      </trkpt>
      <trkpt lat="42.80816" lon="1.38278">
        <ele>1351</ele>
        <time>2025-09-27T10:26:53.000Z</time>
      </trkpt>
      <trkpt lat="42.80815" lon="1.38274">
        <ele>1351</ele>
        <time>2025-09-27T10:26:54.000Z</time>
      </trkpt>
      <trkpt lat="42.80815" lon="1.38271">
        <ele>1351</ele>
        <time>2025-09-27T10:26:55.000Z</time>
      </trkpt>
      <trkpt lat="42.80814" lon="1.38267">
        <ele>1351</ele>
        <time>2025-09-27T10:26:56.000Z</time>
      </trkpt>
      <trkpt lat="42.80814" lon="1.38264">
        <ele>1351</ele>
        <time>2025-09-27T10:26:57.000Z</time>
      </trkpt>
      <trkpt lat="42.80814" lon="1.38261">
        <ele>1351</ele>
        <time>2025-09-27T10:26:58.000Z</time>
      </trkpt>
      <trkpt lat="42.80814" lon="1.38257">
        <ele>1352</ele>
        <time>2025-09-27T10:26:59.000Z</time>
      </trkpt>
      <trkpt lat="42.80814" lon="1.38254">
        <ele>1352</ele>
        <time>2025-09-27T10:27:00.000Z</time>
      </trkpt>
      <trkpt lat="42.80814" lon="1.38252">
        <ele>1353</ele>
        <time>2025-09-27T10:27:01.000Z</time>
      </trkpt>
      <trkpt lat="42.80813" lon="1.38249">
        <ele>1353</ele>
        <time>2025-09-27T10:27:02.000Z</time>
      </trkpt>
      <trkpt lat="42.80812" lon="1.38248">
        <ele>1353</ele>
        <time>2025-09-27T10:27:03.000Z</time>
      </trkpt>
      <trkpt lat="42.8081" lon="1.38247">
        <ele>1353</ele>
        <time>2025-09-27T10:27:04.000Z</time>
      </trkpt>
      <trkpt lat="42.80808" lon="1.38245">
        <ele>1353</ele>
        <time>2025-09-27T10:27:05.000Z</time>
      </trkpt>
      <trkpt lat="42.80807" lon="1.38243">
        <ele>1353</ele>
        <time>2025-09-27T10:27:06.000Z</time>
      </trkpt>
      <trkpt lat="42.80805" lon="1.38242">
        <ele>1353</ele>
        <time>2025-09-27T10:27:07.000Z</time>
      </trkpt>
      <trkpt lat="42.80803" lon="1.3824">
        <ele>1353</ele>
        <time>2025-09-27T10:27:08.000Z</time>
      </trkpt>
      <trkpt lat="42.80802" lon="1.38238">
        <ele>1353</ele>
        <time>2025-09-27T10:27:09.000Z</time>
      </trkpt>
      <trkpt lat="42.808" lon="1.38236">
        <ele>1353</ele>
        <time>2025-09-27T10:27:10.000Z</time>
      </trkpt>
      <trkpt lat="42.80799" lon="1.38234">
        <ele>1353</ele>
        <time>2025-09-27T10:27:11.000Z</time>
      </trkpt>
      <trkpt lat="42.80798" lon="1.38233">
        <ele>1354</ele>
        <time>2025-09-27T10:27:12.000Z</time>
      </trkpt>
      <trkpt lat="42.80797" lon="1.38231">
        <ele>1354</ele>
        <time>2025-09-27T10:27:13.000Z</time>
      </trkpt>
      <trkpt lat="42.80798" lon="1.38229">
        <ele>1354</ele>
        <time>2025-09-27T10:27:14.000Z</time>
      </trkpt>
      <trkpt lat="42.80799" lon="1.38228">
        <ele>1354</ele>
        <time>2025-09-27T10:27:15.000Z</time>
      </trkpt>
      <trkpt lat="42.80802" lon="1.38228">
        <ele>1354</ele>
        <time>2025-09-27T10:27:16.000Z</time>
      </trkpt>
      <trkpt lat="42.80804" lon="1.38229">
        <ele>1354</ele>
        <time>2025-09-27T10:27:17.000Z</time>
      </trkpt>
      <trkpt lat="42.80806" lon="1.38229">
        <ele>1354</ele>
        <time>2025-09-27T10:27:18.000Z</time>
      </trkpt>
      <trkpt lat="42.80809" lon="1.3823">
        <ele>1354</ele>
        <time>2025-09-27T10:27:19.000Z</time>
      </trkpt>
      <trkpt lat="42.8081" lon="1.3823">
        <ele>1354</ele>
        <time>2025-09-27T10:27:20.000Z</time>
      </trkpt>
      <trkpt lat="42.80812" lon="1.3823">
        <ele>1353</ele>
        <time>2025-09-27T10:27:21.000Z</time>
      </trkpt>
      <trkpt lat="42.80814" lon="1.38231">
        <ele>1353</ele>
        <time>2025-09-27T10:27:22.000Z</time>
      </trkpt>
      <trkpt lat="42.80816" lon="1.38231">
        <ele>1353</ele>
        <time>2025-09-27T10:27:23.000Z</time>
      </trkpt>
      <trkpt lat="42.80818" lon="1.38231">
        <ele>1353</ele>
        <time>2025-09-27T10:27:24.000Z</time>
      </trkpt>
      <trkpt lat="42.80819" lon="1.38231">
        <ele>1353</ele>
        <time>2025-09-27T10:27:25.000Z</time>
      </trkpt>
      <trkpt lat="42.8082" lon="1.3823">
        <ele>1353</ele>
        <time>2025-09-27T10:27:26.000Z</time>
      </trkpt>
      <trkpt lat="42.80822" lon="1.38228">
        <ele>1353</ele>
        <time>2025-09-27T10:27:27.000Z</time>
      </trkpt>
      <trkpt lat="42.80822" lon="1.38226">
        <ele>1353</ele>
        <time>2025-09-27T10:27:28.000Z</time>
      </trkpt>
      <trkpt lat="42.80822" lon="1.38223">
        <ele>1353</ele>
        <time>2025-09-27T10:27:29.000Z</time>
      </trkpt>
      <trkpt lat="42.80822" lon="1.38221">
        <ele>1353</ele>
        <time>2025-09-27T10:27:30.000Z</time>
      </trkpt>
      <trkpt lat="42.80822" lon="1.38219">
        <ele>1353</ele>
        <time>2025-09-27T10:27:31.000Z</time>
      </trkpt>
      <trkpt lat="42.80822" lon="1.38216">
        <ele>1354</ele>
        <time>2025-09-27T10:27:32.000Z</time>
      </trkpt>
      <trkpt lat="42.80823" lon="1.38214">
        <ele>1353</ele>
        <time>2025-09-27T10:27:33.000Z</time>
      </trkpt>
      <trkpt lat="42.80823" lon="1.38212">
        <ele>1353</ele>
        <time>2025-09-27T10:27:34.000Z</time>
      </trkpt>
      <trkpt lat="42.80823" lon="1.38209">
        <ele>1353</ele>
        <time>2025-09-27T10:27:35.000Z</time>
      </trkpt>
      <trkpt lat="42.80824" lon="1.38206">
        <ele>1353</ele>
        <time>2025-09-27T10:27:36.000Z</time>
      </trkpt>
      <trkpt lat="42.80825" lon="1.38203">
        <ele>1353</ele>
        <time>2025-09-27T10:27:37.000Z</time>
      </trkpt>
      <trkpt lat="42.80825" lon="1.38199">
        <ele>1353</ele>
        <time>2025-09-27T10:27:38.000Z</time>
      </trkpt>
      <trkpt lat="42.80826" lon="1.38196">
        <ele>1353</ele>
        <time>2025-09-27T10:27:39.000Z</time>
      </trkpt>
      <trkpt lat="42.80827" lon="1.38193">
        <ele>1352</ele>
        <time>2025-09-27T10:27:40.000Z</time>
      </trkpt>
      <trkpt lat="42.80827" lon="1.38189">
        <ele>1352</ele>
        <time>2025-09-27T10:27:41.000Z</time>
      </trkpt>
      <trkpt lat="42.80828" lon="1.38185">
        <ele>1351</ele>
        <time>2025-09-27T10:27:42.000Z</time>
      </trkpt>
      <trkpt lat="42.8083" lon="1.38181">
        <ele>1351</ele>
        <time>2025-09-27T10:27:43.000Z</time>
      </trkpt>
      <trkpt lat="42.80831" lon="1.38177">
        <ele>1351</ele>
        <time>2025-09-27T10:27:44.000Z</time>
      </trkpt>
      <trkpt lat="42.80831" lon="1.38173">
        <ele>1352</ele>
        <time>2025-09-27T10:27:45.000Z</time>
      </trkpt>
      <trkpt lat="42.80832" lon="1.3817">
        <ele>1352</ele>
        <time>2025-09-27T10:27:46.000Z</time>
      </trkpt>
      <trkpt lat="42.80833" lon="1.38166">
        <ele>1352</ele>
        <time>2025-09-27T10:27:47.000Z</time>
      </trkpt>
      <trkpt lat="42.80834" lon="1.38163">
        <ele>1352</ele>
        <time>2025-09-27T10:27:48.000Z</time>
      </trkpt>
      <trkpt lat="42.80835" lon="1.3816">
        <ele>1352</ele>
        <time>2025-09-27T10:27:49.000Z</time>
      </trkpt>
      <trkpt lat="42.80835" lon="1.38158">
        <ele>1352</ele>
        <time>2025-09-27T10:27:50.000Z</time>
      </trkpt>
      <trkpt lat="42.80835" lon="1.38155">
        <ele>1352</ele>
        <time>2025-09-27T10:27:51.000Z</time>
      </trkpt>
      <trkpt lat="42.80836" lon="1.38153">
        <ele>1352</ele>
        <time>2025-09-27T10:27:52.000Z</time>
      </trkpt>
      <trkpt lat="42.80836" lon="1.38151">
        <ele>1352</ele>
        <time>2025-09-27T10:27:53.000Z</time>
      </trkpt>
      <trkpt lat="42.80837" lon="1.38149">
        <ele>1352</ele>
        <time>2025-09-27T10:27:54.000Z</time>
      </trkpt>
      <trkpt lat="42.80838" lon="1.38147">
        <ele>1352</ele>
        <time>2025-09-27T10:27:55.000Z</time>
      </trkpt>
      <trkpt lat="42.80838" lon="1.38146">
        <ele>1352</ele>
        <time>2025-09-27T10:27:56.000Z</time>
      </trkpt>
      <trkpt lat="42.80838" lon="1.38144">
        <ele>1352</ele>
        <time>2025-09-27T10:27:57.000Z</time>
      </trkpt>
      <trkpt lat="42.80839" lon="1.38141">
        <ele>1352</ele>
        <time>2025-09-27T10:27:58.000Z</time>
      </trkpt>
      <trkpt lat="42.80839" lon="1.38139">
        <ele>1352</ele>
        <time>2025-09-27T10:27:59.000Z</time>
      </trkpt>
      <trkpt lat="42.8084" lon="1.38137">
        <ele>1352</ele>
        <time>2025-09-27T10:28:00.000Z</time>
      </trkpt>
      <trkpt lat="42.8084" lon="1.38136">
        <ele>1353</ele>
        <time>2025-09-27T10:28:01.000Z</time>
      </trkpt>
      <trkpt lat="42.80841" lon="1.38134">
        <ele>1353</ele>
        <time>2025-09-27T10:28:02.000Z</time>
      </trkpt>
      <trkpt lat="42.80841" lon="1.38133">
        <ele>1353</ele>
        <time>2025-09-27T10:28:03.000Z</time>
      </trkpt>
      <trkpt lat="42.80841" lon="1.38131">
        <ele>1353</ele>
        <time>2025-09-27T10:28:04.000Z</time>
      </trkpt>
      <trkpt lat="42.80839" lon="1.3813">
        <ele>1353</ele>
        <time>2025-09-27T10:28:05.000Z</time>
      </trkpt>
      <trkpt lat="42.80838" lon="1.38129">
        <ele>1353</ele>
        <time>2025-09-27T10:28:06.000Z</time>
      </trkpt>
      <trkpt lat="42.80836" lon="1.38128">
        <ele>1353</ele>
        <time>2025-09-27T10:28:07.000Z</time>
      </trkpt>
      <trkpt lat="42.80834" lon="1.38128">
        <ele>1353</ele>
        <time>2025-09-27T10:28:08.000Z</time>
      </trkpt>
      <trkpt lat="42.80833" lon="1.38127">
        <ele>1352</ele>
        <time>2025-09-27T10:28:09.000Z</time>
      </trkpt>
      <trkpt lat="42.80831" lon="1.38124">
        <ele>1352</ele>
        <time>2025-09-27T10:28:10.000Z</time>
      </trkpt>
      <trkpt lat="42.8083" lon="1.38119">
        <ele>1351</ele>
        <time>2025-09-27T10:28:11.000Z</time>
      </trkpt>
      <trkpt lat="42.80829" lon="1.38115">
        <ele>1351</ele>
        <time>2025-09-27T10:28:12.000Z</time>
      </trkpt>
      <trkpt lat="42.80828" lon="1.38107">
        <ele>1350</ele>
        <time>2025-09-27T10:28:13.000Z</time>
      </trkpt>
      <trkpt lat="42.80826" lon="1.38101">
        <ele>1350</ele>
        <time>2025-09-27T10:28:14.000Z</time>
      </trkpt>
      <trkpt lat="42.80824" lon="1.38095">
        <ele>1350</ele>
        <time>2025-09-27T10:28:15.000Z</time>
      </trkpt>
      <trkpt lat="42.80822" lon="1.38091">
        <ele>1349</ele>
        <time>2025-09-27T10:28:16.000Z</time>
      </trkpt>
      <trkpt lat="42.80821" lon="1.38085">
        <ele>1349</ele>
        <time>2025-09-27T10:28:17.000Z</time>
      </trkpt>
      <trkpt lat="42.8082" lon="1.38081">
        <ele>1349</ele>
        <time>2025-09-27T10:28:18.000Z</time>
      </trkpt>
      <trkpt lat="42.80818" lon="1.38079">
        <ele>1349</ele>
        <time>2025-09-27T10:28:19.000Z</time>
      </trkpt>
      <trkpt lat="42.80817" lon="1.38078">
        <ele>1349</ele>
        <time>2025-09-27T10:28:20.000Z</time>
      </trkpt>
      <trkpt lat="42.80816" lon="1.38078">
        <ele>1349</ele>
        <time>2025-09-27T10:28:21.000Z</time>
      </trkpt>
      <trkpt lat="42.80816" lon="1.38078">
        <ele>1349</ele>
        <time>2025-09-27T10:28:22.000Z</time>
      </trkpt>
      <trkpt lat="42.80816" lon="1.38076">
        <ele>1349</ele>
        <time>2025-09-27T10:28:23.000Z</time>
      </trkpt>
      <trkpt lat="42.80815" lon="1.38076">
        <ele>1348</ele>
        <time>2025-09-27T10:28:24.000Z</time>
      </trkpt>
      <trkpt lat="42.80816" lon="1.38072">
        <ele>1349</ele>
        <time>2025-09-27T10:29:55.000Z</time>
      </trkpt>
      <trkpt lat="42.80817" lon="1.38071">
        <ele>1349</ele>
        <time>2025-09-27T10:29:56.000Z</time>
      </trkpt>
      <trkpt lat="42.80818" lon="1.3807">
        <ele>1349</ele>
        <time>2025-09-27T10:29:57.000Z</time>
      </trkpt>
      <trkpt lat="42.8082" lon="1.38068">
        <ele>1349</ele>
        <time>2025-09-27T10:29:58.000Z</time>
      </trkpt>
      <trkpt lat="42.80821" lon="1.38066">
        <ele>1349</ele>
        <time>2025-09-27T10:29:59.000Z</time>
      </trkpt>
      <trkpt lat="42.80823" lon="1.38063">
        <ele>1349</ele>
        <time>2025-09-27T10:30:00.000Z</time>
      </trkpt>
      <trkpt lat="42.80825" lon="1.38061">
        <ele>1349</ele>
        <time>2025-09-27T10:30:01.000Z</time>
      </trkpt>
      <trkpt lat="42.80827" lon="1.38059">
        <ele>1350</ele>
        <time>2025-09-27T10:30:02.000Z</time>
      </trkpt>
      <trkpt lat="42.80829" lon="1.38058">
        <ele>1350</ele>
        <time>2025-09-27T10:30:03.000Z</time>
      </trkpt>
      <trkpt lat="42.80831" lon="1.38058">
        <ele>1351</ele>
        <time>2025-09-27T10:30:04.000Z</time>
      </trkpt>
      <trkpt lat="42.80832" lon="1.38058">
        <ele>1351</ele>
        <time>2025-09-27T10:30:05.000Z</time>
      </trkpt>
      <trkpt lat="42.80833" lon="1.38058">
        <ele>1351</ele>
        <time>2025-09-27T10:30:06.000Z</time>
      </trkpt>
      <trkpt lat="42.80833" lon="1.38057">
        <ele>1351</ele>
        <time>2025-09-27T10:30:07.000Z</time>
      </trkpt>
      <trkpt lat="42.80834" lon="1.38062">
        <ele>1352</ele>
        <time>2025-09-27T10:30:25.000Z</time>
      </trkpt>
      <trkpt lat="42.80835" lon="1.38062">
        <ele>1352</ele>
        <time>2025-09-27T10:30:26.000Z</time>
      </trkpt>
      <trkpt lat="42.80835" lon="1.38063">
        <ele>1352</ele>
        <time>2025-09-27T10:30:27.000Z</time>
      </trkpt>
      <trkpt lat="42.80835" lon="1.38064">
        <ele>1353</ele>
        <time>2025-09-27T10:30:28.000Z</time>
      </trkpt>
      <trkpt lat="42.80835" lon="1.38065">
        <ele>1353</ele>
        <time>2025-09-27T10:30:29.000Z</time>
      </trkpt>
      <trkpt lat="42.80836" lon="1.38066">
        <ele>1353</ele>
        <time>2025-09-27T10:30:30.000Z</time>
      </trkpt>
      <trkpt lat="42.80836" lon="1.38067">
        <ele>1353</ele>
        <time>2025-09-27T10:30:31.000Z</time>
      </trkpt>
      <trkpt lat="42.80836" lon="1.38068">
        <ele>1353</ele>
        <time>2025-09-27T10:30:32.000Z</time>
      </trkpt>
      <trkpt lat="42.80836" lon="1.38068">
        <ele>1353</ele>
        <time>2025-09-27T10:30:33.000Z</time>
      </trkpt>
      <trkpt lat="42.80836" lon="1.38069">
        <ele>1353</ele>
        <time>2025-09-27T10:30:34.000Z</time>
      </trkpt>
      <trkpt lat="42.80836" lon="1.3807">
        <ele>1353</ele>
        <time>2025-09-27T10:30:35.000Z</time>
      </trkpt>
      <trkpt lat="42.80837" lon="1.38071">
        <ele>1354</ele>
        <time>2025-09-27T10:30:36.000Z</time>
      </trkpt>
      <trkpt lat="42.80837" lon="1.38071">
        <ele>1354</ele>
        <time>2025-09-27T10:30:37.000Z</time>
      </trkpt>
      <trkpt lat="42.80837" lon="1.38071">
        <ele>1354</ele>
        <time>2025-09-27T10:30:38.000Z</time>
      </trkpt>
      <trkpt lat="42.80837" lon="1.38071">
        <ele>1353</ele>
        <time>2025-09-27T10:30:39.000Z</time>
      </trkpt>
      <trkpt lat="42.80837" lon="1.38071">
        <ele>1353</ele>
        <time>2025-09-27T10:30:40.000Z</time>
      </trkpt>
      <trkpt lat="42.80838" lon="1.38071">
        <ele>1354</ele>
        <time>2025-09-27T10:30:41.000Z</time>
      </trkpt>
      <trkpt lat="42.80838" lon="1.38071">
        <ele>1354</ele>
        <time>2025-09-27T10:30:42.000Z</time>
      </trkpt>
      <trkpt lat="42.80839" lon="1.38072">
        <ele>1353</ele>
        <time>2025-09-27T10:30:43.000Z</time>
      </trkpt>
      <trkpt lat="42.8084" lon="1.38073">
        <ele>1353</ele>
        <time>2025-09-27T10:30:44.000Z</time>
      </trkpt>
      <trkpt lat="42.8084" lon="1.38074">
        <ele>1353</ele>
        <time>2025-09-27T10:30:45.000Z</time>
      </trkpt>
      <trkpt lat="42.8084" lon="1.38075">
        <ele>1353</ele>
        <time>2025-09-27T10:30:46.000Z</time>
      </trkpt>
      <trkpt lat="42.8084" lon="1.38076">
        <ele>1353</ele>
        <time>2025-09-27T10:30:47.000Z</time>
      </trkpt>
      <trkpt lat="42.8084" lon="1.38077">
        <ele>1353</ele>
        <time>2025-09-27T10:30:48.000Z</time>
      </trkpt>
      <trkpt lat="42.80841" lon="1.38079">
        <ele>1353</ele>
        <time>2025-09-27T10:30:49.000Z</time>
      </trkpt>
      <trkpt lat="42.80841" lon="1.3808">
        <ele>1352</ele>
        <time>2025-09-27T10:30:50.000Z</time>
      </trkpt>
      <trkpt lat="42.80842" lon="1.38082">
        <ele>1353</ele>
        <time>2025-09-27T10:30:51.000Z</time>
      </trkpt>
      <trkpt lat="42.80842" lon="1.38083">
        <ele>1353</ele>
        <time>2025-09-27T10:30:52.000Z</time>
      </trkpt>
      <trkpt lat="42.80842" lon="1.38084">
        <ele>1353</ele>
        <time>2025-09-27T10:30:53.000Z</time>
      </trkpt>
      <trkpt lat="42.80843" lon="1.38084">
        <ele>1353</ele>
        <time>2025-09-27T10:30:54.000Z</time>
      </trkpt>
      <trkpt lat="42.80843" lon="1.38085">
        <ele>1353</ele>
        <time>2025-09-27T10:30:55.000Z</time>
      </trkpt>
      <trkpt lat="42.80844" lon="1.38086">
        <ele>1353</ele>
        <time>2025-09-27T10:30:56.000Z</time>
      </trkpt>
      <trkpt lat="42.80844" lon="1.38087">
        <ele>1353</ele>
        <time>2025-09-27T10:30:57.000Z</time>
      </trkpt>
      <trkpt lat="42.80844" lon="1.38088">
        <ele>1352</ele>
        <time>2025-09-27T10:30:58.000Z</time>
      </trkpt>
      <trkpt lat="42.80845" lon="1.38089">
        <ele>1353</ele>
        <time>2025-09-27T10:30:59.000Z</time>
      </trkpt>
      <trkpt lat="42.80845" lon="1.3809">
        <ele>1353</ele>
        <time>2025-09-27T10:31:00.000Z</time>
      </trkpt>
      <trkpt lat="42.80845" lon="1.38087">
        <ele>1353</ele>
        <time>2025-09-27T10:33:04.000Z</time>
      </trkpt>
      <trkpt lat="42.80845" lon="1.38085">
        <ele>1353</ele>
        <time>2025-09-27T10:33:05.000Z</time>
      </trkpt>
      <trkpt lat="42.80844" lon="1.38085">
        <ele>1353</ele>
        <time>2025-09-27T10:33:06.000Z</time>
      </trkpt>
      <trkpt lat="42.80843" lon="1.38085">
        <ele>1353</ele>
        <time>2025-09-27T10:33:07.000Z</time>
      </trkpt>
      <trkpt lat="42.80842" lon="1.38084">
        <ele>1353</ele>
        <time>2025-09-27T10:33:08.000Z</time>
      </trkpt>
      <trkpt lat="42.80842" lon="1.38083">
        <ele>1353</ele>
        <time>2025-09-27T10:33:09.000Z</time>
      </trkpt>
      <trkpt lat="42.80841" lon="1.38082">
        <ele>1353</ele>
        <time>2025-09-27T10:33:10.000Z</time>
      </trkpt>
      <trkpt lat="42.80841" lon="1.38082">
        <ele>1352</ele>
        <time>2025-09-27T10:33:11.000Z</time>
      </trkpt>
      <trkpt lat="42.8084" lon="1.38082">
        <ele>1352</ele>
        <time>2025-09-27T10:33:12.000Z</time>
      </trkpt>
      <trkpt lat="42.8084" lon="1.38082">
        <ele>1352</ele>
        <time>2025-09-27T10:33:13.000Z</time>
      </trkpt>
      <trkpt lat="42.80839" lon="1.38081">
        <ele>1352</ele>
        <time>2025-09-27T10:33:14.000Z</time>
      </trkpt>
      <trkpt lat="42.80812" lon="1.38086">
        <ele>1357</ele>
        <time>2025-09-27T10:35:06.000Z</time>
      </trkpt>
      <trkpt lat="42.80814" lon="1.38084">
        <ele>1353</ele>
        <time>2025-09-27T10:35:07.000Z</time>
      </trkpt>
      <trkpt lat="42.80815" lon="1.38083">
        <ele>1351</ele>
        <time>2025-09-27T10:35:08.000Z</time>
      </trkpt>
      <trkpt lat="42.80815" lon="1.38082">
        <ele>1346</ele>
        <time>2025-09-27T10:35:09.000Z</time>
      </trkpt>
      <trkpt lat="42.80814" lon="1.38082">
        <ele>1344</ele>
        <time>2025-09-27T10:35:10.000Z</time>
      </trkpt>
      <trkpt lat="42.80814" lon="1.38083">
        <ele>1343</ele>
        <time>2025-09-27T10:35:11.000Z</time>
      </trkpt>
      <trkpt lat="42.80817" lon="1.38083">
        <ele>1342</ele>
        <time>2025-09-27T10:35:12.000Z</time>
      </trkpt>
      <trkpt lat="42.80823" lon="1.38079">
        <ele>1334</ele>
        <time>2025-09-27T10:35:13.000Z</time>
      </trkpt>
      <trkpt lat="42.80821" lon="1.38078">
        <ele>1332</ele>
        <time>2025-09-27T10:35:14.000Z</time>
      </trkpt>
      <trkpt lat="42.8082" lon="1.38078">
        <ele>1331</ele>
        <time>2025-09-27T10:35:15.000Z</time>
      </trkpt>
      <trkpt lat="42.80819" lon="1.3808">
        <ele>1331</ele>
        <time>2025-09-27T10:35:16.000Z</time>
      </trkpt>
      <trkpt lat="42.80819" lon="1.38081">
        <ele>1333</ele>
        <time>2025-09-27T10:35:17.000Z</time>
      </trkpt>
      <trkpt lat="42.80817" lon="1.38085">
        <ele>1340</ele>
        <time>2025-09-27T10:35:18.000Z</time>
      </trkpt>
      <trkpt lat="42.80816" lon="1.38087">
        <ele>1342</ele>
        <time>2025-09-27T10:35:19.000Z</time>
      </trkpt>
      <trkpt lat="42.80817" lon="1.38091">
        <ele>1345</ele>
        <time>2025-09-27T10:35:20.000Z</time>
      </trkpt>
      <trkpt lat="42.80816" lon="1.38092">
        <ele>1348</ele>
        <time>2025-09-27T10:35:21.000Z</time>
      </trkpt>
      <trkpt lat="42.80816" lon="1.38093">
        <ele>1349</ele>
        <time>2025-09-27T10:35:22.000Z</time>
      </trkpt>
      <trkpt lat="42.80819" lon="1.38088">
        <ele>1344</ele>
        <time>2025-09-27T10:35:23.000Z</time>
      </trkpt>
      <trkpt lat="42.80819" lon="1.38088">
        <ele>1344</ele>
        <time>2025-09-27T10:35:24.000Z</time>
      </trkpt>
      <trkpt lat="42.80821" lon="1.38087">
        <ele>1347</ele>
        <time>2025-09-27T10:35:25.000Z</time>
      </trkpt>
      <trkpt lat="42.80823" lon="1.38085">
        <ele>1347</ele>
        <time>2025-09-27T10:35:26.000Z</time>
      </trkpt>
      <trkpt lat="42.80823" lon="1.38085">
        <ele>1350</ele>
        <time>2025-09-27T10:35:27.000Z</time>
      </trkpt>
      <trkpt lat="42.80824" lon="1.38084">
        <ele>1350</ele>
        <time>2025-09-27T10:35:28.000Z</time>
      </trkpt>
      <trkpt lat="42.80825" lon="1.38083">
        <ele>1349</ele>
        <time>2025-09-27T10:35:29.000Z</time>
      </trkpt>
      <trkpt lat="42.80824" lon="1.38084">
        <ele>1350</ele>
        <time>2025-09-27T10:35:30.000Z</time>
      </trkpt>
      <trkpt lat="42.80824" lon="1.38083">
        <ele>1350</ele>
        <time>2025-09-27T10:35:31.000Z</time>
      </trkpt>
      <trkpt lat="42.80824" lon="1.38081">
        <ele>1350</ele>
        <time>2025-09-27T10:35:32.000Z</time>
      </trkpt>
      <trkpt lat="42.80824" lon="1.38081">
        <ele>1350</ele>
        <time>2025-09-27T10:35:33.000Z</time>
      </trkpt>
      <trkpt lat="42.80827" lon="1.38078">
        <ele>1357</ele>
        <time>2025-09-27T11:37:34.000Z</time>
      </trkpt>
      <trkpt lat="42.80828" lon="1.38078">
        <ele>1357</ele>
        <time>2025-09-27T11:37:35.000Z</time>
      </trkpt>
      <trkpt lat="42.80828" lon="1.38078">
        <ele>1358</ele>
        <time>2025-09-27T11:37:36.000Z</time>
      </trkpt>
      <trkpt lat="42.80828" lon="1.38077">
        <ele>1359</ele>
        <time>2025-09-27T11:37:37.000Z</time>
      </trkpt>
      <trkpt lat="42.80829" lon="1.38078">
        <ele>1358</ele>
        <time>2025-09-27T11:37:38.000Z</time>
      </trkpt>
      <trkpt lat="42.80829" lon="1.38078">
        <ele>1358</ele>
        <time>2025-09-27T11:37:39.000Z</time>
      </trkpt>
      <trkpt lat="42.80829" lon="1.38079">
        <ele>1358</ele>
        <time>2025-09-27T11:37:40.000Z</time>
      </trkpt>
      <trkpt lat="42.8083" lon="1.3808">
        <ele>1357</ele>
        <time>2025-09-27T11:37:41.000Z</time>
      </trkpt>
      <trkpt lat="42.8083" lon="1.38081">
        <ele>1358</ele>
        <time>2025-09-27T11:37:42.000Z</time>
      </trkpt>
      <trkpt lat="42.80831" lon="1.38082">
        <ele>1358</ele>
        <time>2025-09-27T11:37:43.000Z</time>
      </trkpt>
      <trkpt lat="42.80831" lon="1.38083">
        <ele>1357</ele>
        <time>2025-09-27T11:37:44.000Z</time>
      </trkpt>
      <trkpt lat="42.80832" lon="1.38083">
        <ele>1356</ele>
        <time>2025-09-27T11:37:45.000Z</time>
      </trkpt>
      <trkpt lat="42.80832" lon="1.38083">
        <ele>1356</ele>
        <time>2025-09-27T11:37:46.000Z</time>
      </trkpt>
      <trkpt lat="42.80846" lon="1.38089">
        <ele>1353</ele>
        <time>2025-09-27T11:43:10.000Z</time>
      </trkpt>
      <trkpt lat="42.80846" lon="1.38089">
        <ele>1353</ele>
        <time>2025-09-27T11:43:11.000Z</time>
      </trkpt>
      <trkpt lat="42.80847" lon="1.38088">
        <ele>1354</ele>
        <time>2025-09-27T11:43:12.000Z</time>
      </trkpt>
      <trkpt lat="42.80846" lon="1.38088">
        <ele>1353</ele>
        <time>2025-09-27T11:43:13.000Z</time>
      </trkpt>
      <trkpt lat="42.80847" lon="1.38088">
        <ele>1353</ele>
        <time>2025-09-27T11:43:14.000Z</time>
      </trkpt>
      <trkpt lat="42.80846" lon="1.38087">
        <ele>1355</ele>
        <time>2025-09-27T11:44:25.000Z</time>
      </trkpt>
      <trkpt lat="42.80846" lon="1.38085">
        <ele>1355</ele>
        <time>2025-09-27T11:44:26.000Z</time>
      </trkpt>
      <trkpt lat="42.80846" lon="1.38084">
        <ele>1355</ele>
        <time>2025-09-27T11:44:27.000Z</time>
      </trkpt>
      <trkpt lat="42.80845" lon="1.38084">
        <ele>1355</ele>
        <time>2025-09-27T11:44:28.000Z</time>
      </trkpt>
      <trkpt lat="42.80845" lon="1.38083">
        <ele>1355</ele>
        <time>2025-09-27T11:44:29.000Z</time>
      </trkpt>
      <trkpt lat="42.80845" lon="1.38082">
        <ele>1355</ele>
        <time>2025-09-27T11:44:30.000Z</time>
      </trkpt>
      <trkpt lat="42.80844" lon="1.38081">
        <ele>1355</ele>
        <time>2025-09-27T11:44:31.000Z</time>
      </trkpt>
      <trkpt lat="42.80843" lon="1.38079">
        <ele>1355</ele>
        <time>2025-09-27T11:44:32.000Z</time>
      </trkpt>
      <trkpt lat="42.80842" lon="1.38078">
        <ele>1355</ele>
        <time>2025-09-27T11:44:33.000Z</time>
      </trkpt>
      <trkpt lat="42.80842" lon="1.38077">
        <ele>1355</ele>
        <time>2025-09-27T11:44:34.000Z</time>
      </trkpt>
      <trkpt lat="42.80842" lon="1.38076">
        <ele>1355</ele>
        <time>2025-09-27T11:44:35.000Z</time>
      </trkpt>
      <trkpt lat="42.80842" lon="1.38074">
        <ele>1355</ele>
        <time>2025-09-27T11:44:36.000Z</time>
      </trkpt>
      <trkpt lat="42.80841" lon="1.38071">
        <ele>1355</ele>
        <time>2025-09-27T11:44:37.000Z</time>
      </trkpt>
      <trkpt lat="42.8084" lon="1.38069">
        <ele>1355</ele>
        <time>2025-09-27T11:44:38.000Z</time>
      </trkpt>
      <trkpt lat="42.80839" lon="1.38066">
        <ele>1355</ele>
        <time>2025-09-27T11:44:39.000Z</time>
      </trkpt>
      <trkpt lat="42.80838" lon="1.38065">
        <ele>1356</ele>
        <time>2025-09-27T11:44:40.000Z</time>
      </trkpt>
      <trkpt lat="42.80837" lon="1.38063">
        <ele>1356</ele>
        <time>2025-09-27T11:44:41.000Z</time>
      </trkpt>
      <trkpt lat="42.80837" lon="1.38061">
        <ele>1356</ele>
        <time>2025-09-27T11:44:42.000Z</time>
      </trkpt>
      <trkpt lat="42.80836" lon="1.38061">
        <ele>1355</ele>
        <time>2025-09-27T11:44:43.000Z</time>
      </trkpt>
      <trkpt lat="42.80836" lon="1.3806">
        <ele>1354</ele>
        <time>2025-09-27T11:44:44.000Z</time>
      </trkpt>
      <trkpt lat="42.80835" lon="1.38059">
        <ele>1354</ele>
        <time>2025-09-27T11:44:45.000Z</time>
      </trkpt>
      <trkpt lat="42.80833" lon="1.38058">
        <ele>1354</ele>
        <time>2025-09-27T11:44:46.000Z</time>
      </trkpt>
      <trkpt lat="42.80831" lon="1.38056">
        <ele>1354</ele>
        <time>2025-09-27T11:44:47.000Z</time>
      </trkpt>
      <trkpt lat="42.80829" lon="1.38057">
        <ele>1354</ele>
        <time>2025-09-27T11:44:48.000Z</time>
      </trkpt>
      <trkpt lat="42.80825" lon="1.38059">
        <ele>1354</ele>
        <time>2025-09-27T11:44:49.000Z</time>
      </trkpt>
      <trkpt lat="42.80823" lon="1.38063">
        <ele>1353</ele>
        <time>2025-09-27T11:44:50.000Z</time>
      </trkpt>
      <trkpt lat="42.80822" lon="1.38068">
        <ele>1352</ele>
        <time>2025-09-27T11:44:51.000Z</time>
      </trkpt>
      <trkpt lat="42.8082" lon="1.38067">
        <ele>1353</ele>
        <time>2025-09-27T11:44:52.000Z</time>
      </trkpt>
      <trkpt lat="42.80819" lon="1.38063">
        <ele>1352</ele>
        <time>2025-09-27T11:44:53.000Z</time>
      </trkpt>
      <trkpt lat="42.8082" lon="1.38059">
        <ele>1352</ele>
        <time>2025-09-27T11:44:54.000Z</time>
      </trkpt>
      <trkpt lat="42.8082" lon="1.38054">
        <ele>1351</ele>
        <time>2025-09-27T11:44:55.000Z</time>
      </trkpt>
      <trkpt lat="42.8082" lon="1.38049">
        <ele>1349</ele>
        <time>2025-09-27T11:44:56.000Z</time>
      </trkpt>
      <trkpt lat="42.80821" lon="1.38044">
        <ele>1348</ele>
        <time>2025-09-27T11:44:57.000Z</time>
      </trkpt>
      <trkpt lat="42.80823" lon="1.38039">
        <ele>1348</ele>
        <time>2025-09-27T11:44:58.000Z</time>
      </trkpt>
      <trkpt lat="42.80826" lon="1.38034">
        <ele>1348</ele>
        <time>2025-09-27T11:44:59.000Z</time>
      </trkpt>
      <trkpt lat="42.80828" lon="1.3803">
        <ele>1349</ele>
        <time>2025-09-27T11:45:00.000Z</time>
      </trkpt>
      <trkpt lat="42.8083" lon="1.38028">
        <ele>1349</ele>
        <time>2025-09-27T11:45:01.000Z</time>
      </trkpt>
      <trkpt lat="42.80832" lon="1.38025">
        <ele>1349</ele>
        <time>2025-09-27T11:45:02.000Z</time>
      </trkpt>
      <trkpt lat="42.80833" lon="1.38023">
        <ele>1349</ele>
        <time>2025-09-27T11:45:03.000Z</time>
      </trkpt>
      <trkpt lat="42.80835" lon="1.3802">
        <ele>1349</ele>
        <time>2025-09-27T11:45:04.000Z</time>
      </trkpt>
      <trkpt lat="42.80836" lon="1.38019">
        <ele>1349</ele>
        <time>2025-09-27T11:45:05.000Z</time>
      </trkpt>
      <trkpt lat="42.80838" lon="1.38019">
        <ele>1349</ele>
        <time>2025-09-27T11:45:06.000Z</time>
      </trkpt>
      <trkpt lat="42.80839" lon="1.38019">
        <ele>1349</ele>
        <time>2025-09-27T11:45:07.000Z</time>
      </trkpt>
      <trkpt lat="42.8084" lon="1.38019">
        <ele>1349</ele>
        <time>2025-09-27T11:45:08.000Z</time>
      </trkpt>
      <trkpt lat="42.80842" lon="1.3802">
        <ele>1350</ele>
        <time>2025-09-27T11:45:09.000Z</time>
      </trkpt>
      <trkpt lat="42.80844" lon="1.38021">
        <ele>1350</ele>
        <time>2025-09-27T11:45:10.000Z</time>
      </trkpt>
      <trkpt lat="42.80845" lon="1.38022">
        <ele>1350</ele>
        <time>2025-09-27T11:45:11.000Z</time>
      </trkpt>
      <trkpt lat="42.80847" lon="1.38024">
        <ele>1350</ele>
        <time>2025-09-27T11:45:12.000Z</time>
      </trkpt>
      <trkpt lat="42.80848" lon="1.38026">
        <ele>1350</ele>
        <time>2025-09-27T11:45:13.000Z</time>
      </trkpt>
      <trkpt lat="42.8085" lon="1.38027">
        <ele>1350</ele>
        <time>2025-09-27T11:45:14.000Z</time>
      </trkpt>
      <trkpt lat="42.80852" lon="1.38029">
        <ele>1350</ele>
        <time>2025-09-27T11:45:15.000Z</time>
      </trkpt>
      <trkpt lat="42.80855" lon="1.38029">
        <ele>1350</ele>
        <time>2025-09-27T11:45:16.000Z</time>
      </trkpt>
      <trkpt lat="42.80856" lon="1.3803">
        <ele>1350</ele>
        <time>2025-09-27T11:45:17.000Z</time>
      </trkpt>
      <trkpt lat="42.80857" lon="1.38032">
        <ele>1350</ele>
        <time>2025-09-27T11:45:18.000Z</time>
      </trkpt>
      <trkpt lat="42.80858" lon="1.38032">
        <ele>1350</ele>
        <time>2025-09-27T11:45:19.000Z</time>
      </trkpt>
      <trkpt lat="42.8086" lon="1.38033">
        <ele>1350</ele>
        <time>2025-09-27T11:45:20.000Z</time>
      </trkpt>
      <trkpt lat="42.80862" lon="1.38034">
        <ele>1349</ele>
        <time>2025-09-27T11:45:21.000Z</time>
      </trkpt>
      <trkpt lat="42.80864" lon="1.38036">
        <ele>1350</ele>
        <time>2025-09-27T11:45:22.000Z</time>
      </trkpt>
      <trkpt lat="42.80866" lon="1.38037">
        <ele>1350</ele>
        <time>2025-09-27T11:45:23.000Z</time>
      </trkpt>
      <trkpt lat="42.80868" lon="1.38037">
        <ele>1350</ele>
        <time>2025-09-27T11:45:24.000Z</time>
      </trkpt>
      <trkpt lat="42.80869" lon="1.38038">
        <ele>1350</ele>
        <time>2025-09-27T11:45:25.000Z</time>
      </trkpt>
      <trkpt lat="42.80871" lon="1.38038">
        <ele>1350</ele>
        <time>2025-09-27T11:45:26.000Z</time>
      </trkpt>
      <trkpt lat="42.80873" lon="1.38039">
        <ele>1350</ele>
        <time>2025-09-27T11:45:27.000Z</time>
      </trkpt>
      <trkpt lat="42.80874" lon="1.38039">
        <ele>1350</ele>
        <time>2025-09-27T11:45:28.000Z</time>
      </trkpt>
      <trkpt lat="42.80876" lon="1.38038">
        <ele>1349</ele>
        <time>2025-09-27T11:45:29.000Z</time>
      </trkpt>
      <trkpt lat="42.80878" lon="1.38038">
        <ele>1349</ele>
        <time>2025-09-27T11:45:30.000Z</time>
      </trkpt>
      <trkpt lat="42.8088" lon="1.38039">
        <ele>1349</ele>
        <time>2025-09-27T11:45:31.000Z</time>
      </trkpt>
      <trkpt lat="42.80883" lon="1.3804">
        <ele>1349</ele>
        <time>2025-09-27T11:45:32.000Z</time>
      </trkpt>
      <trkpt lat="42.80886" lon="1.38043">
        <ele>1349</ele>
        <time>2025-09-27T11:45:33.000Z</time>
      </trkpt>
      <trkpt lat="42.80888" lon="1.38045">
        <ele>1349</ele>
        <time>2025-09-27T11:45:34.000Z</time>
      </trkpt>
      <trkpt lat="42.8089" lon="1.38048">
        <ele>1349</ele>
        <time>2025-09-27T11:45:35.000Z</time>
      </trkpt>
      <trkpt lat="42.80891" lon="1.38052">
        <ele>1349</ele>
        <time>2025-09-27T11:45:36.000Z</time>
      </trkpt>
      <trkpt lat="42.80891" lon="1.38056">
        <ele>1349</ele>
        <time>2025-09-27T11:45:37.000Z</time>
      </trkpt>
      <trkpt lat="42.8089" lon="1.3806">
        <ele>1349</ele>
        <time>2025-09-27T11:45:38.000Z</time>
      </trkpt>
      <trkpt lat="42.8089" lon="1.38063">
        <ele>1349</ele>
        <time>2025-09-27T11:45:39.000Z</time>
      </trkpt>
      <trkpt lat="42.80891" lon="1.38064">
        <ele>1349</ele>
        <time>2025-09-27T11:45:40.000Z</time>
      </trkpt>
      <trkpt lat="42.80893" lon="1.38064">
        <ele>1349</ele>
        <time>2025-09-27T11:45:41.000Z</time>
      </trkpt>
      <trkpt lat="42.80895" lon="1.38064">
        <ele>1350</ele>
        <time>2025-09-27T11:45:42.000Z</time>
      </trkpt>
      <trkpt lat="42.80897" lon="1.38065">
        <ele>1349</ele>
        <time>2025-09-27T11:45:43.000Z</time>
      </trkpt>
      <trkpt lat="42.80899" lon="1.38066">
        <ele>1349</ele>
        <time>2025-09-27T11:45:44.000Z</time>
      </trkpt>
      <trkpt lat="42.80902" lon="1.38066">
        <ele>1348</ele>
        <time>2025-09-27T11:45:45.000Z</time>
      </trkpt>
      <trkpt lat="42.80905" lon="1.38063">
        <ele>1348</ele>
        <time>2025-09-27T11:45:46.000Z</time>
      </trkpt>
      <trkpt lat="42.80908" lon="1.3806">
        <ele>1348</ele>
        <time>2025-09-27T11:45:47.000Z</time>
      </trkpt>
      <trkpt lat="42.80911" lon="1.38058">
        <ele>1348</ele>
        <time>2025-09-27T11:45:48.000Z</time>
      </trkpt>
      <trkpt lat="42.80914" lon="1.38054">
        <ele>1347</ele>
        <time>2025-09-27T11:45:49.000Z</time>
      </trkpt>
      <trkpt lat="42.80917" lon="1.38051">
        <ele>1347</ele>
        <time>2025-09-27T11:45:50.000Z</time>
      </trkpt>
      <trkpt lat="42.8092" lon="1.38048">
        <ele>1346</ele>
        <time>2025-09-27T11:45:51.000Z</time>
      </trkpt>
      <trkpt lat="42.80923" lon="1.38045">
        <ele>1346</ele>
        <time>2025-09-27T11:45:52.000Z</time>
      </trkpt>
      <trkpt lat="42.80927" lon="1.38042">
        <ele>1345</ele>
        <time>2025-09-27T11:45:53.000Z</time>
      </trkpt>
      <trkpt lat="42.80932" lon="1.38039">
        <ele>1344</ele>
        <time>2025-09-27T11:45:54.000Z</time>
      </trkpt>
      <trkpt lat="42.80936" lon="1.38036">
        <ele>1344</ele>
        <time>2025-09-27T11:45:55.000Z</time>
      </trkpt>
      <trkpt lat="42.8094" lon="1.38035">
        <ele>1344</ele>
        <time>2025-09-27T11:45:56.000Z</time>
      </trkpt>
      <trkpt lat="42.80944" lon="1.38034">
        <ele>1343</ele>
        <time>2025-09-27T11:45:57.000Z</time>
      </trkpt>
      <trkpt lat="42.80947" lon="1.38032">
        <ele>1343</ele>
        <time>2025-09-27T11:45:58.000Z</time>
      </trkpt>
      <trkpt lat="42.80949" lon="1.38029">
        <ele>1343</ele>
        <time>2025-09-27T11:45:59.000Z</time>
      </trkpt>
      <trkpt lat="42.8095" lon="1.38025">
        <ele>1342</ele>
        <time>2025-09-27T11:46:00.000Z</time>
      </trkpt>
      <trkpt lat="42.80949" lon="1.38021">
        <ele>1342</ele>
        <time>2025-09-27T11:46:01.000Z</time>
      </trkpt>
      <trkpt lat="42.80946" lon="1.38019">
        <ele>1342</ele>
        <time>2025-09-27T11:46:02.000Z</time>
      </trkpt>
      <trkpt lat="42.80943" lon="1.38019">
        <ele>1341</ele>
        <time>2025-09-27T11:46:03.000Z</time>
      </trkpt>
      <trkpt lat="42.8094" lon="1.38018">
        <ele>1340</ele>
        <time>2025-09-27T11:46:04.000Z</time>
      </trkpt>
      <trkpt lat="42.80937" lon="1.38017">
        <ele>1340</ele>
        <time>2025-09-27T11:46:05.000Z</time>
      </trkpt>
      <trkpt lat="42.80934" lon="1.38014">
        <ele>1340</ele>
        <time>2025-09-27T11:46:06.000Z</time>
      </trkpt>
      <trkpt lat="42.80931" lon="1.38011">
        <ele>1340</ele>
        <time>2025-09-27T11:46:07.000Z</time>
      </trkpt>
      <trkpt lat="42.80928" lon="1.38009">
        <ele>1340</ele>
        <time>2025-09-27T11:46:08.000Z</time>
      </trkpt>
      <trkpt lat="42.80925" lon="1.38006">
        <ele>1339</ele>
        <time>2025-09-27T11:46:09.000Z</time>
      </trkpt>
      <trkpt lat="42.80924" lon="1.38003">
        <ele>1339</ele>
        <time>2025-09-27T11:46:10.000Z</time>
      </trkpt>
      <trkpt lat="42.80925" lon="1.37998">
        <ele>1339</ele>
        <time>2025-09-27T11:46:11.000Z</time>
      </trkpt>
      <trkpt lat="42.80926" lon="1.37995">
        <ele>1339</ele>
        <time>2025-09-27T11:46:12.000Z</time>
      </trkpt>
      <trkpt lat="42.80927" lon="1.37993">
        <ele>1339</ele>
        <time>2025-09-27T11:46:13.000Z</time>
      </trkpt>
      <trkpt lat="42.80928" lon="1.37991">
        <ele>1339</ele>
        <time>2025-09-27T11:46:14.000Z</time>
      </trkpt>
      <trkpt lat="42.8093" lon="1.3799">
        <ele>1339</ele>
        <time>2025-09-27T11:46:15.000Z</time>
      </trkpt>
      <trkpt lat="42.80932" lon="1.37989">
        <ele>1338</ele>
        <time>2025-09-27T11:46:16.000Z</time>
      </trkpt>
      <trkpt lat="42.80934" lon="1.37987">
        <ele>1338</ele>
        <time>2025-09-27T11:46:17.000Z</time>
      </trkpt>
      <trkpt lat="42.80937" lon="1.37986">
        <ele>1337</ele>
        <time>2025-09-27T11:46:18.000Z</time>
      </trkpt>
      <trkpt lat="42.80939" lon="1.37986">
        <ele>1336</ele>
        <time>2025-09-27T11:46:19.000Z</time>
      </trkpt>
      <trkpt lat="42.80942" lon="1.37984">
        <ele>1336</ele>
        <time>2025-09-27T11:46:20.000Z</time>
      </trkpt>
      <trkpt lat="42.80945" lon="1.37984">
        <ele>1335</ele>
        <time>2025-09-27T11:46:21.000Z</time>
      </trkpt>
      <trkpt lat="42.80948" lon="1.37983">
        <ele>1335</ele>
        <time>2025-09-27T11:46:22.000Z</time>
      </trkpt>
      <trkpt lat="42.80951" lon="1.37982">
        <ele>1334</ele>
        <time>2025-09-27T11:46:23.000Z</time>
      </trkpt>
      <trkpt lat="42.80953" lon="1.37982">
        <ele>1334</ele>
        <time>2025-09-27T11:46:24.000Z</time>
      </trkpt>
      <trkpt lat="42.80955" lon="1.37983">
        <ele>1334</ele>
        <time>2025-09-27T11:46:25.000Z</time>
      </trkpt>
      <trkpt lat="42.80956" lon="1.37983">
        <ele>1335</ele>
        <time>2025-09-27T11:46:26.000Z</time>
      </trkpt>
      <trkpt lat="42.80948" lon="1.37982">
        <ele>1333</ele>
        <time>2025-09-27T11:46:46.000Z</time>
      </trkpt>
      <trkpt lat="42.80946" lon="1.37982">
        <ele>1333</ele>
        <time>2025-09-27T11:46:47.000Z</time>
      </trkpt>
      <trkpt lat="42.80944" lon="1.37983">
        <ele>1333</ele>
        <time>2025-09-27T11:46:48.000Z</time>
      </trkpt>
      <trkpt lat="42.80942" lon="1.37984">
        <ele>1334</ele>
        <time>2025-09-27T11:46:49.000Z</time>
      </trkpt>
      <trkpt lat="42.80941" lon="1.37985">
        <ele>1334</ele>
        <time>2025-09-27T11:46:50.000Z</time>
      </trkpt>
      <trkpt lat="42.80938" lon="1.37986">
        <ele>1334</ele>
        <time>2025-09-27T11:46:51.000Z</time>
      </trkpt>
      <trkpt lat="42.80936" lon="1.37987">
        <ele>1334</ele>
        <time>2025-09-27T11:46:52.000Z</time>
      </trkpt>
      <trkpt lat="42.80934" lon="1.37988">
        <ele>1334</ele>
        <time>2025-09-27T11:46:53.000Z</time>
      </trkpt>
      <trkpt lat="42.80931" lon="1.37988">
        <ele>1334</ele>
        <time>2025-09-27T11:46:54.000Z</time>
      </trkpt>
      <trkpt lat="42.80929" lon="1.37989">
        <ele>1335</ele>
        <time>2025-09-27T11:46:55.000Z</time>
      </trkpt>
      <trkpt lat="42.80927" lon="1.37992">
        <ele>1335</ele>
        <time>2025-09-27T11:46:56.000Z</time>
      </trkpt>
      <trkpt lat="42.80926" lon="1.37996">
        <ele>1335</ele>
        <time>2025-09-27T11:46:57.000Z</time>
      </trkpt>
      <trkpt lat="42.80925" lon="1.37999">
        <ele>1335</ele>
        <time>2025-09-27T11:46:58.000Z</time>
      </trkpt>
      <trkpt lat="42.80926" lon="1.38002">
        <ele>1335</ele>
        <time>2025-09-27T11:46:59.000Z</time>
      </trkpt>
      <trkpt lat="42.80927" lon="1.38005">
        <ele>1335</ele>
        <time>2025-09-27T11:47:00.000Z</time>
      </trkpt>
      <trkpt lat="42.80929" lon="1.38007">
        <ele>1335</ele>
        <time>2025-09-27T11:47:01.000Z</time>
      </trkpt>
      <trkpt lat="42.80931" lon="1.3801">
        <ele>1335</ele>
        <time>2025-09-27T11:47:02.000Z</time>
      </trkpt>
      <trkpt lat="42.80932" lon="1.38012">
        <ele>1335</ele>
        <time>2025-09-27T11:47:03.000Z</time>
      </trkpt>
      <trkpt lat="42.80934" lon="1.38014">
        <ele>1335</ele>
        <time>2025-09-27T11:47:04.000Z</time>
      </trkpt>
      <trkpt lat="42.80936" lon="1.38017">
        <ele>1335</ele>
        <time>2025-09-27T11:47:05.000Z</time>
      </trkpt>
      <trkpt lat="42.80938" lon="1.38019">
        <ele>1335</ele>
        <time>2025-09-27T11:47:06.000Z</time>
      </trkpt>
      <trkpt lat="42.8094" lon="1.3802">
        <ele>1335</ele>
        <time>2025-09-27T11:47:07.000Z</time>
      </trkpt>
      <trkpt lat="42.80942" lon="1.38021">
        <ele>1336</ele>
        <time>2025-09-27T11:47:08.000Z</time>
      </trkpt>
      <trkpt lat="42.80944" lon="1.38023">
        <ele>1336</ele>
        <time>2025-09-27T11:47:09.000Z</time>
      </trkpt>
      <trkpt lat="42.80945" lon="1.38026">
        <ele>1337</ele>
        <time>2025-09-27T11:47:10.000Z</time>
      </trkpt>
      <trkpt lat="42.80945" lon="1.3803">
        <ele>1337</ele>
        <time>2025-09-27T11:47:11.000Z</time>
      </trkpt>
      <trkpt lat="42.80945" lon="1.38032">
        <ele>1337</ele>
        <time>2025-09-27T11:47:12.000Z</time>
      </trkpt>
      <trkpt lat="42.80945" lon="1.38035">
        <ele>1337</ele>
        <time>2025-09-27T11:47:13.000Z</time>
      </trkpt>
      <trkpt lat="42.80943" lon="1.38036">
        <ele>1337</ele>
        <time>2025-09-27T11:47:14.000Z</time>
      </trkpt>
      <trkpt lat="42.8094" lon="1.38037">
        <ele>1337</ele>
        <time>2025-09-27T11:47:15.000Z</time>
      </trkpt>
      <trkpt lat="42.80938" lon="1.38038">
        <ele>1337</ele>
        <time>2025-09-27T11:47:16.000Z</time>
      </trkpt>
      <trkpt lat="42.80936" lon="1.38039">
        <ele>1337</ele>
        <time>2025-09-27T11:47:17.000Z</time>
      </trkpt>
      <trkpt lat="42.80933" lon="1.3804">
        <ele>1338</ele>
        <time>2025-09-27T11:47:18.000Z</time>
      </trkpt>
      <trkpt lat="42.80931" lon="1.38041">
        <ele>1338</ele>
        <time>2025-09-27T11:47:19.000Z</time>
      </trkpt>
      <trkpt lat="42.80929" lon="1.38042">
        <ele>1338</ele>
        <time>2025-09-27T11:47:20.000Z</time>
      </trkpt>
      <trkpt lat="42.80927" lon="1.38043">
        <ele>1338</ele>
        <time>2025-09-27T11:47:21.000Z</time>
      </trkpt>
      <trkpt lat="42.80925" lon="1.38044">
        <ele>1338</ele>
        <time>2025-09-27T11:47:22.000Z</time>
      </trkpt>
      <trkpt lat="42.80923" lon="1.38045">
        <ele>1339</ele>
        <time>2025-09-27T11:47:23.000Z</time>
      </trkpt>
      <trkpt lat="42.80921" lon="1.38047">
        <ele>1340</ele>
        <time>2025-09-27T11:47:24.000Z</time>
      </trkpt>
      <trkpt lat="42.80919" lon="1.38048">
        <ele>1340</ele>
        <time>2025-09-27T11:47:25.000Z</time>
      </trkpt>
      <trkpt lat="42.80918" lon="1.38049">
        <ele>1341</ele>
        <time>2025-09-27T11:47:26.000Z</time>
      </trkpt>
      <trkpt lat="42.80916" lon="1.38051">
        <ele>1342</ele>
        <time>2025-09-27T11:47:27.000Z</time>
      </trkpt>
      <trkpt lat="42.80914" lon="1.38053">
        <ele>1342</ele>
        <time>2025-09-27T11:47:28.000Z</time>
      </trkpt>
      <trkpt lat="42.80912" lon="1.38055">
        <ele>1343</ele>
        <time>2025-09-27T11:47:29.000Z</time>
      </trkpt>
      <trkpt lat="42.8091" lon="1.38057">
        <ele>1343</ele>
        <time>2025-09-27T11:47:30.000Z</time>
      </trkpt>
      <trkpt lat="42.80909" lon="1.38059">
        <ele>1343</ele>
        <time>2025-09-27T11:47:31.000Z</time>
      </trkpt>
      <trkpt lat="42.80907" lon="1.38061">
        <ele>1343</ele>
        <time>2025-09-27T11:47:32.000Z</time>
      </trkpt>
      <trkpt lat="42.80904" lon="1.38062">
        <ele>1343</ele>
        <time>2025-09-27T11:47:33.000Z</time>
      </trkpt>
      <trkpt lat="42.80901" lon="1.38063">
        <ele>1343</ele>
        <time>2025-09-27T11:47:34.000Z</time>
      </trkpt>
      <trkpt lat="42.80899" lon="1.38064">
        <ele>1343</ele>
        <time>2025-09-27T11:47:35.000Z</time>
      </trkpt>
      <trkpt lat="42.80896" lon="1.38063">
        <ele>1343</ele>
        <time>2025-09-27T11:47:36.000Z</time>
      </trkpt>
      <trkpt lat="42.80894" lon="1.38061">
        <ele>1344</ele>
        <time>2025-09-27T11:47:37.000Z</time>
      </trkpt>
      <trkpt lat="42.80892" lon="1.38059">
        <ele>1344</ele>
        <time>2025-09-27T11:47:38.000Z</time>
      </trkpt>
      <trkpt lat="42.80892" lon="1.38057">
        <ele>1344</ele>
        <time>2025-09-27T11:47:39.000Z</time>
      </trkpt>
      <trkpt lat="42.80892" lon="1.38054">
        <ele>1344</ele>
        <time>2025-09-27T11:47:40.000Z</time>
      </trkpt>
      <trkpt lat="42.80892" lon="1.38051">
        <ele>1345</ele>
        <time>2025-09-27T11:47:41.000Z</time>
      </trkpt>
      <trkpt lat="42.80892" lon="1.38046">
        <ele>1346</ele>
        <time>2025-09-27T11:47:42.000Z</time>
      </trkpt>
      <trkpt lat="42.8089" lon="1.38042">
        <ele>1346</ele>
        <time>2025-09-27T11:47:43.000Z</time>
      </trkpt>
      <trkpt lat="42.80888" lon="1.38039">
        <ele>1346</ele>
        <time>2025-09-27T11:47:44.000Z</time>
      </trkpt>
      <trkpt lat="42.80885" lon="1.38036">
        <ele>1346</ele>
        <time>2025-09-27T11:47:45.000Z</time>
      </trkpt>
      <trkpt lat="42.80883" lon="1.38034">
        <ele>1346</ele>
        <time>2025-09-27T11:47:46.000Z</time>
      </trkpt>
      <trkpt lat="42.80881" lon="1.38033">
        <ele>1347</ele>
        <time>2025-09-27T11:47:47.000Z</time>
      </trkpt>
      <trkpt lat="42.80879" lon="1.38033">
        <ele>1347</ele>
        <time>2025-09-27T11:47:48.000Z</time>
      </trkpt>
      <trkpt lat="42.80877" lon="1.38033">
        <ele>1347</ele>
        <time>2025-09-27T11:47:49.000Z</time>
      </trkpt>
      <trkpt lat="42.80875" lon="1.38033">
        <ele>1347</ele>
        <time>2025-09-27T11:47:50.000Z</time>
      </trkpt>
      <trkpt lat="42.80873" lon="1.38033">
        <ele>1348</ele>
        <time>2025-09-27T11:47:51.000Z</time>
      </trkpt>
      <trkpt lat="42.80871" lon="1.38033">
        <ele>1348</ele>
        <time>2025-09-27T11:47:52.000Z</time>
      </trkpt>
      <trkpt lat="42.80869" lon="1.38033">
        <ele>1348</ele>
        <time>2025-09-27T11:47:53.000Z</time>
      </trkpt>
      <trkpt lat="42.80867" lon="1.38034">
        <ele>1348</ele>
        <time>2025-09-27T11:47:54.000Z</time>
      </trkpt>
      <trkpt lat="42.80865" lon="1.38033">
        <ele>1348</ele>
        <time>2025-09-27T11:47:55.000Z</time>
      </trkpt>
      <trkpt lat="42.80861" lon="1.38033">
        <ele>1348</ele>
        <time>2025-09-27T11:47:56.000Z</time>
      </trkpt>
      <trkpt lat="42.80859" lon="1.38032">
        <ele>1348</ele>
        <time>2025-09-27T11:47:57.000Z</time>
      </trkpt>
      <trkpt lat="42.80855" lon="1.38031">
        <ele>1348</ele>
        <time>2025-09-27T11:47:58.000Z</time>
      </trkpt>
      <trkpt lat="42.80852" lon="1.38029">
        <ele>1348</ele>
        <time>2025-09-27T11:47:59.000Z</time>
      </trkpt>
      <trkpt lat="42.80849" lon="1.38026">
        <ele>1348</ele>
        <time>2025-09-27T11:48:00.000Z</time>
      </trkpt>
      <trkpt lat="42.80847" lon="1.38023">
        <ele>1348</ele>
        <time>2025-09-27T11:48:01.000Z</time>
      </trkpt>
      <trkpt lat="42.80843" lon="1.38022">
        <ele>1348</ele>
        <time>2025-09-27T11:48:02.000Z</time>
      </trkpt>
      <trkpt lat="42.8084" lon="1.38022">
        <ele>1348</ele>
        <time>2025-09-27T11:48:03.000Z</time>
      </trkpt>
      <trkpt lat="42.80838" lon="1.38022">
        <ele>1348</ele>
        <time>2025-09-27T11:48:04.000Z</time>
      </trkpt>
      <trkpt lat="42.80836" lon="1.3802">
        <ele>1347</ele>
        <time>2025-09-27T11:48:05.000Z</time>
      </trkpt>
      <trkpt lat="42.80836" lon="1.38019">
        <ele>1347</ele>
        <time>2025-09-27T11:48:06.000Z</time>
      </trkpt>
      <trkpt lat="42.80838" lon="1.38014">
        <ele>1345</ele>
        <time>2025-09-27T11:48:37.000Z</time>
      </trkpt>
      <trkpt lat="42.80839" lon="1.38012">
        <ele>1345</ele>
        <time>2025-09-27T11:48:38.000Z</time>
      </trkpt>
      <trkpt lat="42.80839" lon="1.38011">
        <ele>1345</ele>
        <time>2025-09-27T11:48:39.000Z</time>
      </trkpt>
      <trkpt lat="42.80838" lon="1.38009">
        <ele>1345</ele>
        <time>2025-09-27T11:48:40.000Z</time>
      </trkpt>
      <trkpt lat="42.80836" lon="1.38007">
        <ele>1344</ele>
        <time>2025-09-27T11:48:41.000Z</time>
      </trkpt>
      <trkpt lat="42.80836" lon="1.38006">
        <ele>1344</ele>
        <time>2025-09-27T11:48:42.000Z</time>
      </trkpt>
      <trkpt lat="42.80835" lon="1.38004">
        <ele>1344</ele>
        <time>2025-09-27T11:48:43.000Z</time>
      </trkpt>
      <trkpt lat="42.80835" lon="1.38003">
        <ele>1343</ele>
        <time>2025-09-27T11:48:44.000Z</time>
      </trkpt>
      <trkpt lat="42.80835" lon="1.38003">
        <ele>1343</ele>
        <time>2025-09-27T11:48:45.000Z</time>
      </trkpt>
      <trkpt lat="42.80835" lon="1.38003">
        <ele>1342</ele>
        <time>2025-09-27T11:48:46.000Z</time>
      </trkpt>
      <trkpt lat="42.80835" lon="1.38003">
        <ele>1342</ele>
        <time>2025-09-27T11:48:47.000Z</time>
      </trkpt>
      <trkpt lat="42.80836" lon="1.38002">
        <ele>1342</ele>
        <time>2025-09-27T11:48:48.000Z</time>
      </trkpt>
      <trkpt lat="42.80835" lon="1.38002">
        <ele>1342</ele>
        <time>2025-09-27T11:48:49.000Z</time>
      </trkpt>
      <trkpt lat="42.80836" lon="1.38002">
        <ele>1342</ele>
        <time>2025-09-27T11:48:50.000Z</time>
      </trkpt>
      <trkpt lat="42.80836" lon="1.38002">
        <ele>1342</ele>
        <time>2025-09-27T11:48:51.000Z</time>
      </trkpt>
      <trkpt lat="42.80837" lon="1.38001">
        <ele>1342</ele>
        <time>2025-09-27T11:48:52.000Z</time>
      </trkpt>
      <trkpt lat="42.80837" lon="1.38001">
        <ele>1342</ele>
        <time>2025-09-27T11:48:53.000Z</time>
      </trkpt>
      <trkpt lat="42.80838" lon="1.38">
        <ele>1342</ele>
        <time>2025-09-27T11:48:54.000Z</time>
      </trkpt>
      <trkpt lat="42.80838" lon="1.37999">
        <ele>1342</ele>
        <time>2025-09-27T11:48:55.000Z</time>
      </trkpt>
      <trkpt lat="42.80839" lon="1.37999">
        <ele>1342</ele>
        <time>2025-09-27T11:48:56.000Z</time>
      </trkpt>
      <trkpt lat="42.80839" lon="1.37999">
        <ele>1342</ele>
        <time>2025-09-27T11:48:57.000Z</time>
      </trkpt>
      <trkpt lat="42.8084" lon="1.37998">
        <ele>1342</ele>
        <time>2025-09-27T11:48:58.000Z</time>
      </trkpt>
      <trkpt lat="42.80841" lon="1.37996">
        <ele>1342</ele>
        <time>2025-09-27T11:48:59.000Z</time>
      </trkpt>
      <trkpt lat="42.8084" lon="1.37995">
        <ele>1342</ele>
        <time>2025-09-27T11:49:00.000Z</time>
      </trkpt>
      <trkpt lat="42.80841" lon="1.37994">
        <ele>1341</ele>
        <time>2025-09-27T11:49:01.000Z</time>
      </trkpt>
      <trkpt lat="42.80841" lon="1.37992">
        <ele>1340</ele>
        <time>2025-09-27T11:49:02.000Z</time>
      </trkpt>
      <trkpt lat="42.80841" lon="1.37988">
        <ele>1340</ele>
        <time>2025-09-27T11:49:03.000Z</time>
      </trkpt>
      <trkpt lat="42.80843" lon="1.37982">
        <ele>1339</ele>
        <time>2025-09-27T11:49:04.000Z</time>
      </trkpt>
      <trkpt lat="42.80843" lon="1.37975">
        <ele>1339</ele>
        <time>2025-09-27T11:49:05.000Z</time>
      </trkpt>
      <trkpt lat="42.80842" lon="1.3797">
        <ele>1339</ele>
        <time>2025-09-27T11:49:06.000Z</time>
      </trkpt>
      <trkpt lat="42.80839" lon="1.37968">
        <ele>1339</ele>
        <time>2025-09-27T11:49:07.000Z</time>
      </trkpt>
      <trkpt lat="42.80836" lon="1.37968">
        <ele>1340</ele>
        <time>2025-09-27T11:49:08.000Z</time>
      </trkpt>
      <trkpt lat="42.80834" lon="1.37968">
        <ele>1340</ele>
        <time>2025-09-27T11:49:09.000Z</time>
      </trkpt>
      <trkpt lat="42.80833" lon="1.37967">
        <ele>1340</ele>
        <time>2025-09-27T11:49:10.000Z</time>
      </trkpt>
      <trkpt lat="42.80833" lon="1.37965">
        <ele>1340</ele>
        <time>2025-09-27T11:49:11.000Z</time>
      </trkpt>
      <trkpt lat="42.80833" lon="1.37965">
        <ele>1339</ele>
        <time>2025-09-27T11:49:12.000Z</time>
      </trkpt>
      <trkpt lat="42.80832" lon="1.37963">
        <ele>1339</ele>
        <time>2025-09-27T11:49:13.000Z</time>
      </trkpt>
      <trkpt lat="42.80832" lon="1.37962">
        <ele>1339</ele>
        <time>2025-09-27T11:49:14.000Z</time>
      </trkpt>
      <trkpt lat="42.80831" lon="1.37959">
        <ele>1339</ele>
        <time>2025-09-27T11:49:15.000Z</time>
      </trkpt>
      <trkpt lat="42.80831" lon="1.37957">
        <ele>1339</ele>
        <time>2025-09-27T11:49:16.000Z</time>
      </trkpt>
      <trkpt lat="42.80829" lon="1.37956">
        <ele>1339</ele>
        <time>2025-09-27T11:49:17.000Z</time>
      </trkpt>
      <trkpt lat="42.80828" lon="1.37955">
        <ele>1339</ele>
        <time>2025-09-27T11:49:18.000Z</time>
      </trkpt>
      <trkpt lat="42.80827" lon="1.37954">
        <ele>1338</ele>
        <time>2025-09-27T11:49:19.000Z</time>
      </trkpt>
      <trkpt lat="42.80826" lon="1.37952">
        <ele>1337</ele>
        <time>2025-09-27T11:49:20.000Z</time>
      </trkpt>
      <trkpt lat="42.80826" lon="1.37951">
        <ele>1337</ele>
        <time>2025-09-27T11:49:21.000Z</time>
      </trkpt>
      <trkpt lat="42.80826" lon="1.37951">
        <ele>1338</ele>
        <time>2025-09-27T11:49:22.000Z</time>
      </trkpt>
      <trkpt lat="42.80825" lon="1.37951">
        <ele>1337</ele>
        <time>2025-09-27T11:49:23.000Z</time>
      </trkpt>
      <trkpt lat="42.80825" lon="1.3795">
        <ele>1337</ele>
        <time>2025-09-27T11:49:24.000Z</time>
      </trkpt>
      <trkpt lat="42.80825" lon="1.37949">
        <ele>1337</ele>
        <time>2025-09-27T11:49:25.000Z</time>
      </trkpt>
      <trkpt lat="42.80824" lon="1.37947">
        <ele>1337</ele>
        <time>2025-09-27T11:49:26.000Z</time>
      </trkpt>
      <trkpt lat="42.80824" lon="1.37946">
        <ele>1336</ele>
        <time>2025-09-27T11:49:27.000Z</time>
      </trkpt>
      <trkpt lat="42.80824" lon="1.37945">
        <ele>1336</ele>
        <time>2025-09-27T11:49:28.000Z</time>
      </trkpt>
      <trkpt lat="42.80824" lon="1.37945">
        <ele>1337</ele>
        <time>2025-09-27T11:49:29.000Z</time>
      </trkpt>
      <trkpt lat="42.80824" lon="1.37944">
        <ele>1336</ele>
        <time>2025-09-27T11:49:30.000Z</time>
      </trkpt>
      <trkpt lat="42.80824" lon="1.37943">
        <ele>1336</ele>
        <time>2025-09-27T11:49:31.000Z</time>
      </trkpt>
      <trkpt lat="42.80823" lon="1.37943">
        <ele>1335</ele>
        <time>2025-09-27T11:49:32.000Z</time>
      </trkpt>
      <trkpt lat="42.80823" lon="1.37942">
        <ele>1335</ele>
        <time>2025-09-27T11:49:33.000Z</time>
      </trkpt>
      <trkpt lat="42.80823" lon="1.37941">
        <ele>1335</ele>
        <time>2025-09-27T11:49:34.000Z</time>
      </trkpt>
      <trkpt lat="42.80822" lon="1.3794">
        <ele>1335</ele>
        <time>2025-09-27T11:49:35.000Z</time>
      </trkpt>
      <trkpt lat="42.80822" lon="1.37938">
        <ele>1335</ele>
        <time>2025-09-27T11:49:36.000Z</time>
      </trkpt>
      <trkpt lat="42.8082" lon="1.37931">
        <ele>1334</ele>
        <time>2025-09-27T11:49:51.000Z</time>
      </trkpt>
      <trkpt lat="42.80819" lon="1.3793">
        <ele>1334</ele>
        <time>2025-09-27T11:49:52.000Z</time>
      </trkpt>
      <trkpt lat="42.80819" lon="1.37929">
        <ele>1333</ele>
        <time>2025-09-27T11:49:53.000Z</time>
      </trkpt>
      <trkpt lat="42.80819" lon="1.37928">
        <ele>1333</ele>
        <time>2025-09-27T11:49:54.000Z</time>
      </trkpt>
      <trkpt lat="42.80819" lon="1.37927">
        <ele>1333</ele>
        <time>2025-09-27T11:49:55.000Z</time>
      </trkpt>
      <trkpt lat="42.80818" lon="1.37926">
        <ele>1334</ele>
        <time>2025-09-27T11:49:56.000Z</time>
      </trkpt>
      <trkpt lat="42.80818" lon="1.37925">
        <ele>1334</ele>
        <time>2025-09-27T11:49:57.000Z</time>
      </trkpt>
      <trkpt lat="42.80818" lon="1.37923">
        <ele>1334</ele>
        <time>2025-09-27T11:49:58.000Z</time>
      </trkpt>
      <trkpt lat="42.80818" lon="1.37923">
        <ele>1334</ele>
        <time>2025-09-27T11:49:59.000Z</time>
      </trkpt>
      <trkpt lat="42.80818" lon="1.37923">
        <ele>1335</ele>
        <time>2025-09-27T11:50:00.000Z</time>
      </trkpt>
      <trkpt lat="42.80817" lon="1.37922">
        <ele>1335</ele>
        <time>2025-09-27T11:50:01.000Z</time>
      </trkpt>
      <trkpt lat="42.80817" lon="1.37922">
        <ele>1335</ele>
        <time>2025-09-27T11:50:02.000Z</time>
      </trkpt>
      <trkpt lat="42.80817" lon="1.37922">
        <ele>1335</ele>
        <time>2025-09-27T11:50:03.000Z</time>
      </trkpt>
      <trkpt lat="42.80817" lon="1.3792">
        <ele>1335</ele>
        <time>2025-09-27T11:50:04.000Z</time>
      </trkpt>
      <trkpt lat="42.80816" lon="1.37919">
        <ele>1335</ele>
        <time>2025-09-27T11:50:05.000Z</time>
      </trkpt>
      <trkpt lat="42.80816" lon="1.37918">
        <ele>1335</ele>
        <time>2025-09-27T11:50:06.000Z</time>
      </trkpt>
      <trkpt lat="42.80817" lon="1.37916">
        <ele>1334</ele>
        <time>2025-09-27T11:50:07.000Z</time>
      </trkpt>
      <trkpt lat="42.80816" lon="1.37915">
        <ele>1334</ele>
        <time>2025-09-27T11:50:08.000Z</time>
      </trkpt>
      <trkpt lat="42.80816" lon="1.37913">
        <ele>1334</ele>
        <time>2025-09-27T11:50:09.000Z</time>
      </trkpt>
      <trkpt lat="42.80816" lon="1.37912">
        <ele>1334</ele>
        <time>2025-09-27T11:50:10.000Z</time>
      </trkpt>
      <trkpt lat="42.80815" lon="1.37911">
        <ele>1333</ele>
        <time>2025-09-27T11:50:11.000Z</time>
      </trkpt>
      <trkpt lat="42.80815" lon="1.3791">
        <ele>1333</ele>
        <time>2025-09-27T11:50:12.000Z</time>
      </trkpt>
      <trkpt lat="42.80815" lon="1.37909">
        <ele>1333</ele>
        <time>2025-09-27T11:50:13.000Z</time>
      </trkpt>
      <trkpt lat="42.80815" lon="1.37909">
        <ele>1333</ele>
        <time>2025-09-27T11:50:14.000Z</time>
      </trkpt>
      <trkpt lat="42.80815" lon="1.37909">
        <ele>1333</ele>
        <time>2025-09-27T11:50:15.000Z</time>
      </trkpt>
      <trkpt lat="42.80815" lon="1.37908">
        <ele>1333</ele>
        <time>2025-09-27T11:50:16.000Z</time>
      </trkpt>
      <trkpt lat="42.80816" lon="1.37907">
        <ele>1333</ele>
        <time>2025-09-27T11:50:17.000Z</time>
      </trkpt>
      <trkpt lat="42.80817" lon="1.37906">
        <ele>1332</ele>
        <time>2025-09-27T11:50:18.000Z</time>
      </trkpt>
      <trkpt lat="42.80818" lon="1.37905">
        <ele>1332</ele>
        <time>2025-09-27T11:50:19.000Z</time>
      </trkpt>
      <trkpt lat="42.80818" lon="1.37904">
        <ele>1332</ele>
        <time>2025-09-27T11:50:20.000Z</time>
      </trkpt>
      <trkpt lat="42.80819" lon="1.37903">
        <ele>1332</ele>
        <time>2025-09-27T11:50:21.000Z</time>
      </trkpt>
      <trkpt lat="42.80819" lon="1.37902">
        <ele>1332</ele>
        <time>2025-09-27T11:50:22.000Z</time>
      </trkpt>
      <trkpt lat="42.8082" lon="1.379">
        <ele>1332</ele>
        <time>2025-09-27T11:50:23.000Z</time>
      </trkpt>
      <trkpt lat="42.80819" lon="1.37899">
        <ele>1332</ele>
        <time>2025-09-27T11:50:24.000Z</time>
      </trkpt>
      <trkpt lat="42.80819" lon="1.37899">
        <ele>1332</ele>
        <time>2025-09-27T11:50:25.000Z</time>
      </trkpt>
      <trkpt lat="42.80818" lon="1.37897">
        <ele>1332</ele>
        <time>2025-09-27T11:50:26.000Z</time>
      </trkpt>
      <trkpt lat="42.80818" lon="1.37896">
        <ele>1331</ele>
        <time>2025-09-27T11:50:27.000Z</time>
      </trkpt>
      <trkpt lat="42.80818" lon="1.37895">
        <ele>1331</ele>
        <time>2025-09-27T11:50:28.000Z</time>
      </trkpt>
      <trkpt lat="42.80819" lon="1.37893">
        <ele>1331</ele>
        <time>2025-09-27T11:50:29.000Z</time>
      </trkpt>
      <trkpt lat="42.80819" lon="1.37892">
        <ele>1332</ele>
        <time>2025-09-27T11:50:30.000Z</time>
      </trkpt>
      <trkpt lat="42.8082" lon="1.3789">
        <ele>1331</ele>
        <time>2025-09-27T11:50:31.000Z</time>
      </trkpt>
      <trkpt lat="42.8082" lon="1.3789">
        <ele>1332</ele>
        <time>2025-09-27T11:50:32.000Z</time>
      </trkpt>
      <trkpt lat="42.80821" lon="1.37889">
        <ele>1332</ele>
        <time>2025-09-27T11:50:33.000Z</time>
      </trkpt>
      <trkpt lat="42.80821" lon="1.37888">
        <ele>1331</ele>
        <time>2025-09-27T11:50:34.000Z</time>
      </trkpt>
      <trkpt lat="42.80821" lon="1.37887">
        <ele>1331</ele>
        <time>2025-09-27T11:50:35.000Z</time>
      </trkpt>
      <trkpt lat="42.80821" lon="1.37887">
        <ele>1330</ele>
        <time>2025-09-27T11:50:36.000Z</time>
      </trkpt>
      <trkpt lat="42.8082" lon="1.37886">
        <ele>1330</ele>
        <time>2025-09-27T11:50:37.000Z</time>
      </trkpt>
      <trkpt lat="42.8082" lon="1.37885">
        <ele>1330</ele>
        <time>2025-09-27T11:50:38.000Z</time>
      </trkpt>
      <trkpt lat="42.8082" lon="1.37884">
        <ele>1330</ele>
        <time>2025-09-27T11:50:39.000Z</time>
      </trkpt>
      <trkpt lat="42.8082" lon="1.37883">
        <ele>1329</ele>
        <time>2025-09-27T11:50:40.000Z</time>
      </trkpt>
      <trkpt lat="42.80821" lon="1.37881">
        <ele>1329</ele>
        <time>2025-09-27T11:50:41.000Z</time>
      </trkpt>
      <trkpt lat="42.80821" lon="1.37879">
        <ele>1329</ele>
        <time>2025-09-27T11:50:42.000Z</time>
      </trkpt>
      <trkpt lat="42.80821" lon="1.37879">
        <ele>1328</ele>
        <time>2025-09-27T11:50:43.000Z</time>
      </trkpt>
      <trkpt lat="42.80821" lon="1.37878">
        <ele>1329</ele>
        <time>2025-09-27T11:50:44.000Z</time>
      </trkpt>
      <trkpt lat="42.80822" lon="1.37876">
        <ele>1329</ele>
        <time>2025-09-27T11:50:45.000Z</time>
      </trkpt>
      <trkpt lat="42.80822" lon="1.37876">
        <ele>1328</ele>
        <time>2025-09-27T11:50:46.000Z</time>
      </trkpt>
      <trkpt lat="42.80823" lon="1.37875">
        <ele>1329</ele>
        <time>2025-09-27T11:50:47.000Z</time>
      </trkpt>
      <trkpt lat="42.80823" lon="1.37874">
        <ele>1328</ele>
        <time>2025-09-27T11:50:48.000Z</time>
      </trkpt>
      <trkpt lat="42.80821" lon="1.37864">
        <ele>1327</ele>
        <time>2025-09-27T11:51:13.000Z</time>
      </trkpt>
      <trkpt lat="42.80821" lon="1.37864">
        <ele>1326</ele>
        <time>2025-09-27T11:51:14.000Z</time>
      </trkpt>
      <trkpt lat="42.8082" lon="1.37865">
        <ele>1325</ele>
        <time>2025-09-27T11:51:15.000Z</time>
      </trkpt>
      <trkpt lat="42.8082" lon="1.37865">
        <ele>1325</ele>
        <time>2025-09-27T11:51:16.000Z</time>
      </trkpt>
      <trkpt lat="42.80815" lon="1.3786">
        <ele>1324</ele>
        <time>2025-09-27T11:51:45.000Z</time>
      </trkpt>
      <trkpt lat="42.80816" lon="1.37859">
        <ele>1323</ele>
        <time>2025-09-27T11:51:46.000Z</time>
      </trkpt>
      <trkpt lat="42.80815" lon="1.37858">
        <ele>1322</ele>
        <time>2025-09-27T11:51:47.000Z</time>
      </trkpt>
      <trkpt lat="42.80815" lon="1.37858">
        <ele>1321</ele>
        <time>2025-09-27T11:51:48.000Z</time>
      </trkpt>
      <trkpt lat="42.80816" lon="1.37857">
        <ele>1321</ele>
        <time>2025-09-27T11:51:49.000Z</time>
      </trkpt>
      <trkpt lat="42.80816" lon="1.37857">
        <ele>1321</ele>
        <time>2025-09-27T11:51:50.000Z</time>
      </trkpt>
      <trkpt lat="42.80815" lon="1.37857">
        <ele>1321</ele>
        <time>2025-09-27T11:51:51.000Z</time>
      </trkpt>
      <trkpt lat="42.80816" lon="1.37857">
        <ele>1321</ele>
        <time>2025-09-27T11:51:52.000Z</time>
      </trkpt>
      <trkpt lat="42.80816" lon="1.37856">
        <ele>1321</ele>
        <time>2025-09-27T11:51:53.000Z</time>
      </trkpt>
      <trkpt lat="42.80816" lon="1.37855">
        <ele>1321</ele>
        <time>2025-09-27T11:51:54.000Z</time>
      </trkpt>
      <trkpt lat="42.80817" lon="1.37854">
        <ele>1321</ele>
        <time>2025-09-27T11:51:55.000Z</time>
      </trkpt>
      <trkpt lat="42.80817" lon="1.37853">
        <ele>1321</ele>
        <time>2025-09-27T11:51:56.000Z</time>
      </trkpt>
      <trkpt lat="42.80817" lon="1.37851">
        <ele>1321</ele>
        <time>2025-09-27T11:51:57.000Z</time>
      </trkpt>
      <trkpt lat="42.80818" lon="1.37851">
        <ele>1323</ele>
        <time>2025-09-27T11:51:58.000Z</time>
      </trkpt>
      <trkpt lat="42.80818" lon="1.37851">
        <ele>1323</ele>
        <time>2025-09-27T11:51:59.000Z</time>
      </trkpt>
      <trkpt lat="42.80818" lon="1.37851">
        <ele>1323</ele>
        <time>2025-09-27T11:52:00.000Z</time>
      </trkpt>
      <trkpt lat="42.80818" lon="1.3785">
        <ele>1323</ele>
        <time>2025-09-27T11:52:01.000Z</time>
      </trkpt>
      <trkpt lat="42.80819" lon="1.37849">
        <ele>1324</ele>
        <time>2025-09-27T11:52:02.000Z</time>
      </trkpt>
      <trkpt lat="42.80819" lon="1.37848">
        <ele>1323</ele>
        <time>2025-09-27T11:52:03.000Z</time>
      </trkpt>
      <trkpt lat="42.8082" lon="1.37847">
        <ele>1323</ele>
        <time>2025-09-27T11:52:04.000Z</time>
      </trkpt>
      <trkpt lat="42.80821" lon="1.37844">
        <ele>1323</ele>
        <time>2025-09-27T11:52:05.000Z</time>
      </trkpt>
      <trkpt lat="42.80822" lon="1.37843">
        <ele>1323</ele>
        <time>2025-09-27T11:52:06.000Z</time>
      </trkpt>
      <trkpt lat="42.80822" lon="1.37841">
        <ele>1324</ele>
        <time>2025-09-27T11:52:07.000Z</time>
      </trkpt>
      <trkpt lat="42.80823" lon="1.37839">
        <ele>1324</ele>
        <time>2025-09-27T11:52:08.000Z</time>
      </trkpt>
      <trkpt lat="42.80823" lon="1.37839">
        <ele>1325</ele>
        <time>2025-09-27T11:52:09.000Z</time>
      </trkpt>
      <trkpt lat="42.80824" lon="1.37838">
        <ele>1325</ele>
        <time>2025-09-27T11:52:10.000Z</time>
      </trkpt>
      <trkpt lat="42.80824" lon="1.37838">
        <ele>1325</ele>
        <time>2025-09-27T11:52:11.000Z</time>
      </trkpt>
      <trkpt lat="42.80824" lon="1.37837">
        <ele>1325</ele>
        <time>2025-09-27T11:52:12.000Z</time>
      </trkpt>
      <trkpt lat="42.80825" lon="1.37836">
        <ele>1325</ele>
        <time>2025-09-27T11:52:13.000Z</time>
      </trkpt>
      <trkpt lat="42.80825" lon="1.37835">
        <ele>1326</ele>
        <time>2025-09-27T11:52:14.000Z</time>
      </trkpt>
      <trkpt lat="42.80826" lon="1.37834">
        <ele>1326</ele>
        <time>2025-09-27T11:52:15.000Z</time>
      </trkpt>
      <trkpt lat="42.80826" lon="1.37833">
        <ele>1326</ele>
        <time>2025-09-27T11:52:16.000Z</time>
      </trkpt>
      <trkpt lat="42.80827" lon="1.37831">
        <ele>1325</ele>
        <time>2025-09-27T11:52:17.000Z</time>
      </trkpt>
      <trkpt lat="42.80827" lon="1.3783">
        <ele>1325</ele>
        <time>2025-09-27T11:52:18.000Z</time>
      </trkpt>
      <trkpt lat="42.80828" lon="1.37829">
        <ele>1324</ele>
        <time>2025-09-27T11:52:19.000Z</time>
      </trkpt>
      <trkpt lat="42.80829" lon="1.37828">
        <ele>1324</ele>
        <time>2025-09-27T11:52:20.000Z</time>
      </trkpt>
      <trkpt lat="42.80829" lon="1.37828">
        <ele>1324</ele>
        <time>2025-09-27T11:52:21.000Z</time>
      </trkpt>
      <trkpt lat="42.8083" lon="1.37827">
        <ele>1324</ele>
        <time>2025-09-27T11:52:22.000Z</time>
      </trkpt>
      <trkpt lat="42.8083" lon="1.37826">
        <ele>1325</ele>
        <time>2025-09-27T11:52:23.000Z</time>
      </trkpt>
      <trkpt lat="42.80831" lon="1.37825">
        <ele>1325</ele>
        <time>2025-09-27T11:52:24.000Z</time>
      </trkpt>
      <trkpt lat="42.80831" lon="1.37824">
        <ele>1325</ele>
        <time>2025-09-27T11:52:25.000Z</time>
      </trkpt>
      <trkpt lat="42.80832" lon="1.37824">
        <ele>1326</ele>
        <time>2025-09-27T11:52:26.000Z</time>
      </trkpt>
      <trkpt lat="42.80831" lon="1.37823">
        <ele>1326</ele>
        <time>2025-09-27T11:52:27.000Z</time>
      </trkpt>
      <trkpt lat="42.80831" lon="1.37823">
        <ele>1326</ele>
        <time>2025-09-27T11:52:28.000Z</time>
      </trkpt>
      <trkpt lat="42.80831" lon="1.37823">
        <ele>1326</ele>
        <time>2025-09-27T11:52:29.000Z</time>
      </trkpt>
      <trkpt lat="42.80831" lon="1.37823">
        <ele>1325</ele>
        <time>2025-09-27T11:52:30.000Z</time>
      </trkpt>
      <trkpt lat="42.80831" lon="1.37822">
        <ele>1325</ele>
        <time>2025-09-27T11:52:31.000Z</time>
      </trkpt>
      <trkpt lat="42.8083" lon="1.37821">
        <ele>1325</ele>
        <time>2025-09-27T11:52:32.000Z</time>
      </trkpt>
      <trkpt lat="42.8083" lon="1.3782">
        <ele>1326</ele>
        <time>2025-09-27T11:52:33.000Z</time>
      </trkpt>
      <trkpt lat="42.8083" lon="1.37818">
        <ele>1325</ele>
        <time>2025-09-27T11:52:34.000Z</time>
      </trkpt>
      <trkpt lat="42.80829" lon="1.37819">
        <ele>1324</ele>
        <time>2025-09-27T11:52:35.000Z</time>
      </trkpt>
      <trkpt lat="42.8083" lon="1.37818">
        <ele>1324</ele>
        <time>2025-09-27T11:52:36.000Z</time>
      </trkpt>
      <trkpt lat="42.80828" lon="1.37816">
        <ele>1323</ele>
        <time>2025-09-27T11:52:37.000Z</time>
      </trkpt>
      <trkpt lat="42.80828" lon="1.37816">
        <ele>1323</ele>
        <time>2025-09-27T11:52:38.000Z</time>
      </trkpt>
      <trkpt lat="42.80828" lon="1.37815">
        <ele>1322</ele>
        <time>2025-09-27T11:52:39.000Z</time>
      </trkpt>
      <trkpt lat="42.80828" lon="1.37814">
        <ele>1322</ele>
        <time>2025-09-27T11:52:40.000Z</time>
      </trkpt>
      <trkpt lat="42.80828" lon="1.37813">
        <ele>1323</ele>
        <time>2025-09-27T11:52:41.000Z</time>
      </trkpt>
      <trkpt lat="42.80828" lon="1.37812">
        <ele>1322</ele>
        <time>2025-09-27T11:52:42.000Z</time>
      </trkpt>
      <trkpt lat="42.80828" lon="1.3781">
        <ele>1322</ele>
        <time>2025-09-27T11:52:43.000Z</time>
      </trkpt>
      <trkpt lat="42.80828" lon="1.3781">
        <ele>1322</ele>
        <time>2025-09-27T11:52:44.000Z</time>
      </trkpt>
      <trkpt lat="42.80828" lon="1.37811">
        <ele>1321</ele>
        <time>2025-09-27T11:52:45.000Z</time>
      </trkpt>
      <trkpt lat="42.80828" lon="1.37811">
        <ele>1321</ele>
        <time>2025-09-27T11:52:46.000Z</time>
      </trkpt>
      <trkpt lat="42.80828" lon="1.37809">
        <ele>1320</ele>
        <time>2025-09-27T11:52:47.000Z</time>
      </trkpt>
      <trkpt lat="42.80828" lon="1.37808">
        <ele>1320</ele>
        <time>2025-09-27T11:52:48.000Z</time>
      </trkpt>
      <trkpt lat="42.80828" lon="1.37807">
        <ele>1320</ele>
        <time>2025-09-27T11:52:49.000Z</time>
      </trkpt>
      <trkpt lat="42.80828" lon="1.37806">
        <ele>1320</ele>
        <time>2025-09-27T11:52:50.000Z</time>
      </trkpt>
      <trkpt lat="42.80828" lon="1.37805">
        <ele>1320</ele>
        <time>2025-09-27T11:52:51.000Z</time>
      </trkpt>
      <trkpt lat="42.80827" lon="1.37805">
        <ele>1320</ele>
        <time>2025-09-27T11:52:52.000Z</time>
      </trkpt>
      <trkpt lat="42.80827" lon="1.37805">
        <ele>1321</ele>
        <time>2025-09-27T11:52:53.000Z</time>
      </trkpt>
      <trkpt lat="42.80827" lon="1.37804">
        <ele>1321</ele>
        <time>2025-09-27T11:52:54.000Z</time>
      </trkpt>
      <trkpt lat="42.80827" lon="1.37803">
        <ele>1322</ele>
        <time>2025-09-27T11:52:55.000Z</time>
      </trkpt>
      <trkpt lat="42.80827" lon="1.37802">
        <ele>1323</ele>
        <time>2025-09-27T11:52:56.000Z</time>
      </trkpt>
      <trkpt lat="42.80827" lon="1.37801">
        <ele>1324</ele>
        <time>2025-09-27T11:52:57.000Z</time>
      </trkpt>
      <trkpt lat="42.80827" lon="1.378">
        <ele>1324</ele>
        <time>2025-09-27T11:52:58.000Z</time>
      </trkpt>
      <trkpt lat="42.80827" lon="1.37799">
        <ele>1324</ele>
        <time>2025-09-27T11:52:59.000Z</time>
      </trkpt>
      <trkpt lat="42.80827" lon="1.37798">
        <ele>1325</ele>
        <time>2025-09-27T11:53:00.000Z</time>
      </trkpt>
      <trkpt lat="42.80827" lon="1.37798">
        <ele>1325</ele>
        <time>2025-09-27T11:53:01.000Z</time>
      </trkpt>
      <trkpt lat="42.80827" lon="1.37797">
        <ele>1326</ele>
        <time>2025-09-27T11:53:02.000Z</time>
      </trkpt>
      <trkpt lat="42.80827" lon="1.37794">
        <ele>1327</ele>
        <time>2025-09-27T11:53:03.000Z</time>
      </trkpt>
      <trkpt lat="42.80828" lon="1.37791">
        <ele>1327</ele>
        <time>2025-09-27T11:53:04.000Z</time>
      </trkpt>
      <trkpt lat="42.80828" lon="1.37788">
        <ele>1327</ele>
        <time>2025-09-27T11:53:05.000Z</time>
      </trkpt>
      <trkpt lat="42.80828" lon="1.37785">
        <ele>1328</ele>
        <time>2025-09-27T11:53:06.000Z</time>
      </trkpt>
      <trkpt lat="42.80828" lon="1.37783">
        <ele>1329</ele>
        <time>2025-09-27T11:53:07.000Z</time>
      </trkpt>
      <trkpt lat="42.80829" lon="1.3778">
        <ele>1329</ele>
        <time>2025-09-27T11:53:08.000Z</time>
      </trkpt>
      <trkpt lat="42.80829" lon="1.37778">
        <ele>1329</ele>
        <time>2025-09-27T11:53:09.000Z</time>
      </trkpt>
      <trkpt lat="42.80828" lon="1.37775">
        <ele>1329</ele>
        <time>2025-09-27T11:53:10.000Z</time>
      </trkpt>
      <trkpt lat="42.80827" lon="1.37772">
        <ele>1328</ele>
        <time>2025-09-27T11:53:11.000Z</time>
      </trkpt>
      <trkpt lat="42.80827" lon="1.37768">
        <ele>1328</ele>
        <time>2025-09-27T11:53:12.000Z</time>
      </trkpt>
      <trkpt lat="42.80827" lon="1.37764">
        <ele>1327</ele>
        <time>2025-09-27T11:53:13.000Z</time>
      </trkpt>
      <trkpt lat="42.80827" lon="1.37762">
        <ele>1328</ele>
        <time>2025-09-27T11:53:14.000Z</time>
      </trkpt>
      <trkpt lat="42.80828" lon="1.3776">
        <ele>1327</ele>
        <time>2025-09-27T11:53:15.000Z</time>
      </trkpt>
      <trkpt lat="42.80827" lon="1.37757">
        <ele>1327</ele>
        <time>2025-09-27T11:53:16.000Z</time>
      </trkpt>
      <trkpt lat="42.80827" lon="1.37754">
        <ele>1327</ele>
        <time>2025-09-27T11:53:17.000Z</time>
      </trkpt>
      <trkpt lat="42.80828" lon="1.37752">
        <ele>1327</ele>
        <time>2025-09-27T11:53:18.000Z</time>
      </trkpt>
      <trkpt lat="42.80828" lon="1.37752">
        <ele>1327</ele>
        <time>2025-09-27T11:53:19.000Z</time>
      </trkpt>
      <trkpt lat="42.80829" lon="1.3775">
        <ele>1326</ele>
        <time>2025-09-27T11:53:20.000Z</time>
      </trkpt>
      <trkpt lat="42.80828" lon="1.37749">
        <ele>1325</ele>
        <time>2025-09-27T11:53:21.000Z</time>
      </trkpt>
      <trkpt lat="42.80828" lon="1.37748">
        <ele>1325</ele>
        <time>2025-09-27T11:53:22.000Z</time>
      </trkpt>
      <trkpt lat="42.80829" lon="1.37748">
        <ele>1325</ele>
        <time>2025-09-27T11:53:23.000Z</time>
      </trkpt>
      <trkpt lat="42.8083" lon="1.37747">
        <ele>1326</ele>
        <time>2025-09-27T11:53:24.000Z</time>
      </trkpt>
      <trkpt lat="42.8083" lon="1.37747">
        <ele>1326</ele>
        <time>2025-09-27T11:53:25.000Z</time>
      </trkpt>
      <trkpt lat="42.8083" lon="1.37746">
        <ele>1325</ele>
        <time>2025-09-27T11:53:26.000Z</time>
      </trkpt>
      <trkpt lat="42.8083" lon="1.37746">
        <ele>1326</ele>
        <time>2025-09-27T11:53:27.000Z</time>
      </trkpt>
      <trkpt lat="42.8083" lon="1.37745">
        <ele>1326</ele>
        <time>2025-09-27T11:53:28.000Z</time>
      </trkpt>
      <trkpt lat="42.80829" lon="1.37744">
        <ele>1326</ele>
        <time>2025-09-27T11:53:29.000Z</time>
      </trkpt>
      <trkpt lat="42.80829" lon="1.37743">
        <ele>1325</ele>
        <time>2025-09-27T11:53:30.000Z</time>
      </trkpt>
      <trkpt lat="42.80829" lon="1.37742">
        <ele>1325</ele>
        <time>2025-09-27T11:53:31.000Z</time>
      </trkpt>
      <trkpt lat="42.80829" lon="1.37741">
        <ele>1325</ele>
        <time>2025-09-27T11:53:32.000Z</time>
      </trkpt>
      <trkpt lat="42.80828" lon="1.3774">
        <ele>1324</ele>
        <time>2025-09-27T11:53:33.000Z</time>
      </trkpt>
      <trkpt lat="42.80828" lon="1.37739">
        <ele>1324</ele>
        <time>2025-09-27T11:53:34.000Z</time>
      </trkpt>
      <trkpt lat="42.80827" lon="1.37731">
        <ele>1323</ele>
        <time>2025-09-27T11:53:48.000Z</time>
      </trkpt>
      <trkpt lat="42.80828" lon="1.37729">
        <ele>1323</ele>
        <time>2025-09-27T11:53:49.000Z</time>
      </trkpt>
      <trkpt lat="42.80828" lon="1.37728">
        <ele>1323</ele>
        <time>2025-09-27T11:53:50.000Z</time>
      </trkpt>
      <trkpt lat="42.80828" lon="1.37727">
        <ele>1323</ele>
        <time>2025-09-27T11:53:51.000Z</time>
      </trkpt>
      <trkpt lat="42.80828" lon="1.37727">
        <ele>1323</ele>
        <time>2025-09-27T11:53:52.000Z</time>
      </trkpt>
      <trkpt lat="42.80828" lon="1.37727">
        <ele>1323</ele>
        <time>2025-09-27T11:53:53.000Z</time>
      </trkpt>
      <trkpt lat="42.80828" lon="1.37724">
        <ele>1323</ele>
        <time>2025-09-27T11:53:54.000Z</time>
      </trkpt>
      <trkpt lat="42.80829" lon="1.37723">
        <ele>1323</ele>
        <time>2025-09-27T11:53:55.000Z</time>
      </trkpt>
      <trkpt lat="42.8083" lon="1.37721">
        <ele>1323</ele>
        <time>2025-09-27T11:53:56.000Z</time>
      </trkpt>
      <trkpt lat="42.8083" lon="1.37721">
        <ele>1323</ele>
        <time>2025-09-27T11:53:57.000Z</time>
      </trkpt>
      <trkpt lat="42.8083" lon="1.37721">
        <ele>1324</ele>
        <time>2025-09-27T11:53:58.000Z</time>
      </trkpt>
      <trkpt lat="42.8083" lon="1.37721">
        <ele>1324</ele>
        <time>2025-09-27T11:53:59.000Z</time>
      </trkpt>
      <trkpt lat="42.8083" lon="1.37721">
        <ele>1323</ele>
        <time>2025-09-27T11:54:00.000Z</time>
      </trkpt>
      <trkpt lat="42.80831" lon="1.37719">
        <ele>1323</ele>
        <time>2025-09-27T11:54:01.000Z</time>
      </trkpt>
      <trkpt lat="42.80832" lon="1.37716">
        <ele>1323</ele>
        <time>2025-09-27T11:54:02.000Z</time>
      </trkpt>
      <trkpt lat="42.80834" lon="1.37714">
        <ele>1323</ele>
        <time>2025-09-27T11:54:03.000Z</time>
      </trkpt>
      <trkpt lat="42.80834" lon="1.37712">
        <ele>1323</ele>
        <time>2025-09-27T11:54:04.000Z</time>
      </trkpt>
      <trkpt lat="42.80835" lon="1.3771">
        <ele>1324</ele>
        <time>2025-09-27T11:54:05.000Z</time>
      </trkpt>
      <trkpt lat="42.80836" lon="1.37709">
        <ele>1324</ele>
        <time>2025-09-27T11:54:06.000Z</time>
      </trkpt>
      <trkpt lat="42.80836" lon="1.37708">
        <ele>1324</ele>
        <time>2025-09-27T11:54:07.000Z</time>
      </trkpt>
      <trkpt lat="42.80837" lon="1.37706">
        <ele>1324</ele>
        <time>2025-09-27T11:54:08.000Z</time>
      </trkpt>
      <trkpt lat="42.80839" lon="1.37705">
        <ele>1324</ele>
        <time>2025-09-27T11:54:09.000Z</time>
      </trkpt>
      <trkpt lat="42.80839" lon="1.37704">
        <ele>1325</ele>
        <time>2025-09-27T11:54:10.000Z</time>
      </trkpt>
      <trkpt lat="42.80839" lon="1.37704">
        <ele>1324</ele>
        <time>2025-09-27T11:54:11.000Z</time>
      </trkpt>
      <trkpt lat="42.80839" lon="1.37703">
        <ele>1324</ele>
        <time>2025-09-27T11:54:12.000Z</time>
      </trkpt>
      <trkpt lat="42.80839" lon="1.37703">
        <ele>1324</ele>
        <time>2025-09-27T11:54:13.000Z</time>
      </trkpt>
      <trkpt lat="42.8084" lon="1.37702">
        <ele>1324</ele>
        <time>2025-09-27T11:54:14.000Z</time>
      </trkpt>
      <trkpt lat="42.8084" lon="1.37702">
        <ele>1324</ele>
        <time>2025-09-27T11:54:15.000Z</time>
      </trkpt>
      <trkpt lat="42.8084" lon="1.37702">
        <ele>1325</ele>
        <time>2025-09-27T11:54:16.000Z</time>
      </trkpt>
      <trkpt lat="42.8084" lon="1.377">
        <ele>1324</ele>
        <time>2025-09-27T11:54:17.000Z</time>
      </trkpt>
      <trkpt lat="42.80841" lon="1.37699">
        <ele>1324</ele>
        <time>2025-09-27T11:54:18.000Z</time>
      </trkpt>
      <trkpt lat="42.80842" lon="1.37698">
        <ele>1323</ele>
        <time>2025-09-27T11:54:19.000Z</time>
      </trkpt>
      <trkpt lat="42.80843" lon="1.37698">
        <ele>1322</ele>
        <time>2025-09-27T11:54:20.000Z</time>
      </trkpt>
      <trkpt lat="42.80843" lon="1.37697">
        <ele>1322</ele>
        <time>2025-09-27T11:54:21.000Z</time>
      </trkpt>
      <trkpt lat="42.80843" lon="1.37696">
        <ele>1323</ele>
        <time>2025-09-27T11:54:22.000Z</time>
      </trkpt>
      <trkpt lat="42.80843" lon="1.37695">
        <ele>1323</ele>
        <time>2025-09-27T11:54:23.000Z</time>
      </trkpt>
      <trkpt lat="42.80844" lon="1.37694">
        <ele>1323</ele>
        <time>2025-09-27T11:54:24.000Z</time>
      </trkpt>
      <trkpt lat="42.80845" lon="1.37693">
        <ele>1324</ele>
        <time>2025-09-27T11:54:25.000Z</time>
      </trkpt>
      <trkpt lat="42.80845" lon="1.37693">
        <ele>1323</ele>
        <time>2025-09-27T11:54:26.000Z</time>
      </trkpt>
      <trkpt lat="42.80846" lon="1.37693">
        <ele>1323</ele>
        <time>2025-09-27T11:54:27.000Z</time>
      </trkpt>
      <trkpt lat="42.80847" lon="1.37692">
        <ele>1323</ele>
        <time>2025-09-27T11:54:28.000Z</time>
      </trkpt>
      <trkpt lat="42.80847" lon="1.37692">
        <ele>1322</ele>
        <time>2025-09-27T11:54:29.000Z</time>
      </trkpt>
      <trkpt lat="42.80847" lon="1.37692">
        <ele>1321</ele>
        <time>2025-09-27T11:54:30.000Z</time>
      </trkpt>
      <trkpt lat="42.80846" lon="1.37691">
        <ele>1321</ele>
        <time>2025-09-27T11:54:31.000Z</time>
      </trkpt>
      <trkpt lat="42.80846" lon="1.3769">
        <ele>1320</ele>
        <time>2025-09-27T11:54:32.000Z</time>
      </trkpt>
      <trkpt lat="42.80846" lon="1.37689">
        <ele>1320</ele>
        <time>2025-09-27T11:54:33.000Z</time>
      </trkpt>
      <trkpt lat="42.80847" lon="1.37687">
        <ele>1320</ele>
        <time>2025-09-27T11:54:34.000Z</time>
      </trkpt>
      <trkpt lat="42.80847" lon="1.37686">
        <ele>1320</ele>
        <time>2025-09-27T11:54:35.000Z</time>
      </trkpt>
      <trkpt lat="42.80847" lon="1.37684">
        <ele>1321</ele>
        <time>2025-09-27T11:54:36.000Z</time>
      </trkpt>
      <trkpt lat="42.80847" lon="1.37683">
        <ele>1321</ele>
        <time>2025-09-27T11:54:37.000Z</time>
      </trkpt>
      <trkpt lat="42.80848" lon="1.37683">
        <ele>1321</ele>
        <time>2025-09-27T11:54:38.000Z</time>
      </trkpt>
      <trkpt lat="42.80848" lon="1.37682">
        <ele>1321</ele>
        <time>2025-09-27T11:54:39.000Z</time>
      </trkpt>
      <trkpt lat="42.80849" lon="1.3768">
        <ele>1321</ele>
        <time>2025-09-27T11:54:40.000Z</time>
      </trkpt>
      <trkpt lat="42.80849" lon="1.37679">
        <ele>1322</ele>
        <time>2025-09-27T11:54:41.000Z</time>
      </trkpt>
      <trkpt lat="42.80849" lon="1.37678">
        <ele>1321</ele>
        <time>2025-09-27T11:54:42.000Z</time>
      </trkpt>
      <trkpt lat="42.80849" lon="1.37677">
        <ele>1321</ele>
        <time>2025-09-27T11:54:43.000Z</time>
      </trkpt>
      <trkpt lat="42.80849" lon="1.37677">
        <ele>1321</ele>
        <time>2025-09-27T11:54:44.000Z</time>
      </trkpt>
      <trkpt lat="42.80849" lon="1.37676">
        <ele>1322</ele>
        <time>2025-09-27T11:54:45.000Z</time>
      </trkpt>
      <trkpt lat="42.80849" lon="1.37675">
        <ele>1322</ele>
        <time>2025-09-27T11:54:46.000Z</time>
      </trkpt>
      <trkpt lat="42.8085" lon="1.37674">
        <ele>1322</ele>
        <time>2025-09-27T11:54:47.000Z</time>
      </trkpt>
      <trkpt lat="42.8085" lon="1.37674">
        <ele>1322</ele>
        <time>2025-09-27T11:54:48.000Z</time>
      </trkpt>
      <trkpt lat="42.8085" lon="1.37673">
        <ele>1321</ele>
        <time>2025-09-27T11:54:49.000Z</time>
      </trkpt>
      <trkpt lat="42.80851" lon="1.37673">
        <ele>1321</ele>
        <time>2025-09-27T11:54:50.000Z</time>
      </trkpt>
      <trkpt lat="42.80851" lon="1.37673">
        <ele>1322</ele>
        <time>2025-09-27T11:54:51.000Z</time>
      </trkpt>
      <trkpt lat="42.80852" lon="1.37673">
        <ele>1323</ele>
        <time>2025-09-27T11:54:52.000Z</time>
      </trkpt>
      <trkpt lat="42.80852" lon="1.37672">
        <ele>1323</ele>
        <time>2025-09-27T11:54:53.000Z</time>
      </trkpt>
      <trkpt lat="42.80852" lon="1.37673">
        <ele>1323</ele>
        <time>2025-09-27T11:54:54.000Z</time>
      </trkpt>
      <trkpt lat="42.80851" lon="1.37672">
        <ele>1324</ele>
        <time>2025-09-27T11:54:55.000Z</time>
      </trkpt>
      <trkpt lat="42.80852" lon="1.3767">
        <ele>1323</ele>
        <time>2025-09-27T11:54:56.000Z</time>
      </trkpt>
      <trkpt lat="42.80851" lon="1.3767">
        <ele>1322</ele>
        <time>2025-09-27T11:54:57.000Z</time>
      </trkpt>
      <trkpt lat="42.8085" lon="1.37669">
        <ele>1323</ele>
        <time>2025-09-27T11:54:58.000Z</time>
      </trkpt>
      <trkpt lat="42.80851" lon="1.37667">
        <ele>1323</ele>
        <time>2025-09-27T11:54:59.000Z</time>
      </trkpt>
      <trkpt lat="42.80851" lon="1.37666">
        <ele>1323</ele>
        <time>2025-09-27T11:55:00.000Z</time>
      </trkpt>
      <trkpt lat="42.80852" lon="1.37665">
        <ele>1323</ele>
        <time>2025-09-27T11:55:01.000Z</time>
      </trkpt>
      <trkpt lat="42.80853" lon="1.37664">
        <ele>1324</ele>
        <time>2025-09-27T11:55:02.000Z</time>
      </trkpt>
      <trkpt lat="42.80854" lon="1.37663">
        <ele>1325</ele>
        <time>2025-09-27T11:55:03.000Z</time>
      </trkpt>
      <trkpt lat="42.80855" lon="1.37661">
        <ele>1325</ele>
        <time>2025-09-27T11:55:04.000Z</time>
      </trkpt>
      <trkpt lat="42.80855" lon="1.3766">
        <ele>1326</ele>
        <time>2025-09-27T11:55:05.000Z</time>
      </trkpt>
      <trkpt lat="42.80855" lon="1.3766">
        <ele>1325</ele>
        <time>2025-09-27T11:55:06.000Z</time>
      </trkpt>
      <trkpt lat="42.80856" lon="1.37659">
        <ele>1324</ele>
        <time>2025-09-27T11:55:07.000Z</time>
      </trkpt>
      <trkpt lat="42.80856" lon="1.37658">
        <ele>1325</ele>
        <time>2025-09-27T11:55:08.000Z</time>
      </trkpt>
      <trkpt lat="42.80858" lon="1.37651">
        <ele>1324</ele>
        <time>2025-09-27T11:55:21.000Z</time>
      </trkpt>
      <trkpt lat="42.80859" lon="1.37649">
        <ele>1324</ele>
        <time>2025-09-27T11:55:22.000Z</time>
      </trkpt>
      <trkpt lat="42.80859" lon="1.37647">
        <ele>1324</ele>
        <time>2025-09-27T11:55:23.000Z</time>
      </trkpt>
      <trkpt lat="42.80859" lon="1.37646">
        <ele>1323</ele>
        <time>2025-09-27T11:55:24.000Z</time>
      </trkpt>
      <trkpt lat="42.80859" lon="1.37645">
        <ele>1323</ele>
        <time>2025-09-27T11:55:25.000Z</time>
      </trkpt>
      <trkpt lat="42.80859" lon="1.37644">
        <ele>1323</ele>
        <time>2025-09-27T11:55:26.000Z</time>
      </trkpt>
      <trkpt lat="42.8086" lon="1.37643">
        <ele>1323</ele>
        <time>2025-09-27T11:55:27.000Z</time>
      </trkpt>
      <trkpt lat="42.8086" lon="1.37641">
        <ele>1323</ele>
        <time>2025-09-27T11:55:28.000Z</time>
      </trkpt>
      <trkpt lat="42.8086" lon="1.3764">
        <ele>1323</ele>
        <time>2025-09-27T11:55:29.000Z</time>
      </trkpt>
      <trkpt lat="42.80861" lon="1.37639">
        <ele>1323</ele>
        <time>2025-09-27T11:55:30.000Z</time>
      </trkpt>
      <trkpt lat="42.80861" lon="1.37637">
        <ele>1323</ele>
        <time>2025-09-27T11:55:31.000Z</time>
      </trkpt>
      <trkpt lat="42.80861" lon="1.37635">
        <ele>1323</ele>
        <time>2025-09-27T11:55:32.000Z</time>
      </trkpt>
      <trkpt lat="42.80862" lon="1.37634">
        <ele>1325</ele>
        <time>2025-09-27T11:55:33.000Z</time>
      </trkpt>
      <trkpt lat="42.80862" lon="1.37632">
        <ele>1325</ele>
        <time>2025-09-27T11:55:34.000Z</time>
      </trkpt>
      <trkpt lat="42.80862" lon="1.37631">
        <ele>1325</ele>
        <time>2025-09-27T11:55:35.000Z</time>
      </trkpt>
      <trkpt lat="42.80862" lon="1.3763">
        <ele>1325</ele>
        <time>2025-09-27T11:55:36.000Z</time>
      </trkpt>
      <trkpt lat="42.80862" lon="1.37628">
        <ele>1324</ele>
        <time>2025-09-27T11:55:37.000Z</time>
      </trkpt>
      <trkpt lat="42.80861" lon="1.37627">
        <ele>1324</ele>
        <time>2025-09-27T11:55:38.000Z</time>
      </trkpt>
      <trkpt lat="42.80862" lon="1.37626">
        <ele>1325</ele>
        <time>2025-09-27T11:55:39.000Z</time>
      </trkpt>
      <trkpt lat="42.80861" lon="1.37625">
        <ele>1325</ele>
        <time>2025-09-27T11:55:40.000Z</time>
      </trkpt>
      <trkpt lat="42.80862" lon="1.37624">
        <ele>1325</ele>
        <time>2025-09-27T11:55:41.000Z</time>
      </trkpt>
      <trkpt lat="42.80863" lon="1.37623">
        <ele>1324</ele>
        <time>2025-09-27T11:55:42.000Z</time>
      </trkpt>
      <trkpt lat="42.80863" lon="1.37621">
        <ele>1322</ele>
        <time>2025-09-27T11:55:43.000Z</time>
      </trkpt>
      <trkpt lat="42.80863" lon="1.37621">
        <ele>1322</ele>
        <time>2025-09-27T11:55:44.000Z</time>
      </trkpt>
      <trkpt lat="42.80864" lon="1.37622">
        <ele>1321</ele>
        <time>2025-09-27T11:55:45.000Z</time>
      </trkpt>
      <trkpt lat="42.80865" lon="1.37621">
        <ele>1321</ele>
        <time>2025-09-27T11:55:46.000Z</time>
      </trkpt>
      <trkpt lat="42.80865" lon="1.3762">
        <ele>1321</ele>
        <time>2025-09-27T11:55:47.000Z</time>
      </trkpt>
      <trkpt lat="42.80866" lon="1.37618">
        <ele>1322</ele>
        <time>2025-09-27T11:55:48.000Z</time>
      </trkpt>
      <trkpt lat="42.80866" lon="1.37617">
        <ele>1322</ele>
        <time>2025-09-27T11:55:49.000Z</time>
      </trkpt>
      <trkpt lat="42.80866" lon="1.37615">
        <ele>1322</ele>
        <time>2025-09-27T11:55:50.000Z</time>
      </trkpt>
      <trkpt lat="42.80866" lon="1.37614">
        <ele>1322</ele>
        <time>2025-09-27T11:55:51.000Z</time>
      </trkpt>
      <trkpt lat="42.80866" lon="1.37613">
        <ele>1321</ele>
        <time>2025-09-27T11:55:52.000Z</time>
      </trkpt>
      <trkpt lat="42.80866" lon="1.37612">
        <ele>1321</ele>
        <time>2025-09-27T11:55:53.000Z</time>
      </trkpt>
      <trkpt lat="42.80866" lon="1.37612">
        <ele>1321</ele>
        <time>2025-09-27T11:55:54.000Z</time>
      </trkpt>
      <trkpt lat="42.80866" lon="1.37611">
        <ele>1321</ele>
        <time>2025-09-27T11:55:55.000Z</time>
      </trkpt>
      <trkpt lat="42.80865" lon="1.3761">
        <ele>1321</ele>
        <time>2025-09-27T11:55:56.000Z</time>
      </trkpt>
      <trkpt lat="42.80865" lon="1.37608">
        <ele>1321</ele>
        <time>2025-09-27T11:55:57.000Z</time>
      </trkpt>
      <trkpt lat="42.80865" lon="1.37606">
        <ele>1321</ele>
        <time>2025-09-27T11:55:58.000Z</time>
      </trkpt>
      <trkpt lat="42.80866" lon="1.37605">
        <ele>1321</ele>
        <time>2025-09-27T11:55:59.000Z</time>
      </trkpt>
      <trkpt lat="42.80866" lon="1.37603">
        <ele>1322</ele>
        <time>2025-09-27T11:56:00.000Z</time>
      </trkpt>
      <trkpt lat="42.80866" lon="1.37603">
        <ele>1322</ele>
        <time>2025-09-27T11:56:01.000Z</time>
      </trkpt>
      <trkpt lat="42.80866" lon="1.37602">
        <ele>1322</ele>
        <time>2025-09-27T11:56:02.000Z</time>
      </trkpt>
      <trkpt lat="42.80866" lon="1.37601">
        <ele>1323</ele>
        <time>2025-09-27T11:56:03.000Z</time>
      </trkpt>
      <trkpt lat="42.80866" lon="1.376">
        <ele>1324</ele>
        <time>2025-09-27T11:56:04.000Z</time>
      </trkpt>
      <trkpt lat="42.80865" lon="1.37599">
        <ele>1324</ele>
        <time>2025-09-27T11:56:05.000Z</time>
      </trkpt>
      <trkpt lat="42.80864" lon="1.37598">
        <ele>1324</ele>
        <time>2025-09-27T11:56:06.000Z</time>
      </trkpt>
      <trkpt lat="42.80865" lon="1.37598">
        <ele>1324</ele>
        <time>2025-09-27T11:56:07.000Z</time>
      </trkpt>
      <trkpt lat="42.80865" lon="1.37597">
        <ele>1324</ele>
        <time>2025-09-27T11:56:08.000Z</time>
      </trkpt>
      <trkpt lat="42.80865" lon="1.37596">
        <ele>1324</ele>
        <time>2025-09-27T11:56:09.000Z</time>
      </trkpt>
      <trkpt lat="42.80864" lon="1.37595">
        <ele>1323</ele>
        <time>2025-09-27T11:56:10.000Z</time>
      </trkpt>
      <trkpt lat="42.80863" lon="1.37594">
        <ele>1323</ele>
        <time>2025-09-27T11:56:11.000Z</time>
      </trkpt>
      <trkpt lat="42.80863" lon="1.37593">
        <ele>1323</ele>
        <time>2025-09-27T11:56:12.000Z</time>
      </trkpt>
      <trkpt lat="42.80863" lon="1.37593">
        <ele>1323</ele>
        <time>2025-09-27T11:56:13.000Z</time>
      </trkpt>
      <trkpt lat="42.80863" lon="1.37593">
        <ele>1322</ele>
        <time>2025-09-27T11:56:14.000Z</time>
      </trkpt>
      <trkpt lat="42.80862" lon="1.37593">
        <ele>1323</ele>
        <time>2025-09-27T11:56:15.000Z</time>
      </trkpt>
      <trkpt lat="42.80861" lon="1.37591">
        <ele>1324</ele>
        <time>2025-09-27T11:56:16.000Z</time>
      </trkpt>
      <trkpt lat="42.80859" lon="1.37588">
        <ele>1324</ele>
        <time>2025-09-27T11:56:17.000Z</time>
      </trkpt>
      <trkpt lat="42.80856" lon="1.37585">
        <ele>1324</ele>
        <time>2025-09-27T11:56:18.000Z</time>
      </trkpt>
      <trkpt lat="42.80855" lon="1.37581">
        <ele>1324</ele>
        <time>2025-09-27T11:56:19.000Z</time>
      </trkpt>
      <trkpt lat="42.80854" lon="1.37579">
        <ele>1323</ele>
        <time>2025-09-27T11:56:20.000Z</time>
      </trkpt>
      <trkpt lat="42.80852" lon="1.37577">
        <ele>1323</ele>
        <time>2025-09-27T11:56:21.000Z</time>
      </trkpt>
      <trkpt lat="42.80852" lon="1.37577">
        <ele>1322</ele>
        <time>2025-09-27T11:56:22.000Z</time>
      </trkpt>
      <trkpt lat="42.80851" lon="1.37574">
        <ele>1322</ele>
        <time>2025-09-27T11:56:23.000Z</time>
      </trkpt>
      <trkpt lat="42.80849" lon="1.37571">
        <ele>1321</ele>
        <time>2025-09-27T11:56:24.000Z</time>
      </trkpt>
      <trkpt lat="42.8085" lon="1.37568">
        <ele>1321</ele>
        <time>2025-09-27T11:56:25.000Z</time>
      </trkpt>
      <trkpt lat="42.80852" lon="1.37565">
        <ele>1321</ele>
        <time>2025-09-27T11:56:26.000Z</time>
      </trkpt>
      <trkpt lat="42.80852" lon="1.37565">
        <ele>1322</ele>
        <time>2025-09-27T11:56:27.000Z</time>
      </trkpt>
      <trkpt lat="42.80852" lon="1.37567">
        <ele>1322</ele>
        <time>2025-09-27T11:56:28.000Z</time>
      </trkpt>
      <trkpt lat="42.80852" lon="1.37566">
        <ele>1323</ele>
        <time>2025-09-27T11:56:29.000Z</time>
      </trkpt>
      <trkpt lat="42.80852" lon="1.37567">
        <ele>1324</ele>
        <time>2025-09-27T11:56:30.000Z</time>
      </trkpt>
      <trkpt lat="42.80852" lon="1.37566">
        <ele>1325</ele>
        <time>2025-09-27T11:56:31.000Z</time>
      </trkpt>
      <trkpt lat="42.80852" lon="1.37566">
        <ele>1324</ele>
        <time>2025-09-27T11:56:32.000Z</time>
      </trkpt>
      <trkpt lat="42.80853" lon="1.37565">
        <ele>1323</ele>
        <time>2025-09-27T11:56:33.000Z</time>
      </trkpt>
      <trkpt lat="42.80853" lon="1.37565">
        <ele>1324</ele>
        <time>2025-09-27T11:56:34.000Z</time>
      </trkpt>
      <trkpt lat="42.80854" lon="1.37564">
        <ele>1323</ele>
        <time>2025-09-27T11:56:35.000Z</time>
      </trkpt>
      <trkpt lat="42.80854" lon="1.37563">
        <ele>1322</ele>
        <time>2025-09-27T11:56:36.000Z</time>
      </trkpt>
      <trkpt lat="42.80854" lon="1.37563">
        <ele>1323</ele>
        <time>2025-09-27T11:56:37.000Z</time>
      </trkpt>
      <trkpt lat="42.80855" lon="1.37561">
        <ele>1323</ele>
        <time>2025-09-27T11:56:38.000Z</time>
      </trkpt>
      <trkpt lat="42.80856" lon="1.37561">
        <ele>1323</ele>
        <time>2025-09-27T11:56:39.000Z</time>
      </trkpt>
      <trkpt lat="42.80857" lon="1.37561">
        <ele>1323</ele>
        <time>2025-09-27T11:56:40.000Z</time>
      </trkpt>
      <trkpt lat="42.80856" lon="1.37561">
        <ele>1323</ele>
        <time>2025-09-27T11:56:41.000Z</time>
      </trkpt>
      <trkpt lat="42.80856" lon="1.37561">
        <ele>1323</ele>
        <time>2025-09-27T11:56:42.000Z</time>
      </trkpt>
      <trkpt lat="42.80856" lon="1.37561">
        <ele>1323</ele>
        <time>2025-09-27T11:56:43.000Z</time>
      </trkpt>
      <trkpt lat="42.80857" lon="1.3756">
        <ele>1322</ele>
        <time>2025-09-27T11:56:44.000Z</time>
      </trkpt>
      <trkpt lat="42.80858" lon="1.37559">
        <ele>1322</ele>
        <time>2025-09-27T11:56:45.000Z</time>
      </trkpt>
      <trkpt lat="42.8086" lon="1.37558">
        <ele>1322</ele>
        <time>2025-09-27T11:56:46.000Z</time>
      </trkpt>
      <trkpt lat="42.8086" lon="1.37558">
        <ele>1322</ele>
        <time>2025-09-27T11:56:47.000Z</time>
      </trkpt>
      <trkpt lat="42.8086" lon="1.37559">
        <ele>1323</ele>
        <time>2025-09-27T11:56:48.000Z</time>
      </trkpt>
      <trkpt lat="42.8086" lon="1.37558">
        <ele>1322</ele>
        <time>2025-09-27T11:56:49.000Z</time>
      </trkpt>
      <trkpt lat="42.80861" lon="1.37558">
        <ele>1321</ele>
        <time>2025-09-27T11:56:50.000Z</time>
      </trkpt>
      <trkpt lat="42.80862" lon="1.37557">
        <ele>1321</ele>
        <time>2025-09-27T11:56:51.000Z</time>
      </trkpt>
      <trkpt lat="42.80863" lon="1.37557">
        <ele>1321</ele>
        <time>2025-09-27T11:56:52.000Z</time>
      </trkpt>
      <trkpt lat="42.80864" lon="1.37557">
        <ele>1321</ele>
        <time>2025-09-27T11:56:53.000Z</time>
      </trkpt>
      <trkpt lat="42.80865" lon="1.37556">
        <ele>1321</ele>
        <time>2025-09-27T11:56:54.000Z</time>
      </trkpt>
      <trkpt lat="42.80865" lon="1.37556">
        <ele>1321</ele>
        <time>2025-09-27T11:56:55.000Z</time>
      </trkpt>
      <trkpt lat="42.80866" lon="1.37555">
        <ele>1320</ele>
        <time>2025-09-27T11:56:56.000Z</time>
      </trkpt>
      <trkpt lat="42.80867" lon="1.37554">
        <ele>1321</ele>
        <time>2025-09-27T11:56:57.000Z</time>
      </trkpt>
      <trkpt lat="42.80867" lon="1.37554">
        <ele>1322</ele>
        <time>2025-09-27T11:56:58.000Z</time>
      </trkpt>
      <trkpt lat="42.80866" lon="1.37554">
        <ele>1322</ele>
        <time>2025-09-27T11:56:59.000Z</time>
      </trkpt>
      <trkpt lat="42.80868" lon="1.37554">
        <ele>1322</ele>
        <time>2025-09-27T11:57:00.000Z</time>
      </trkpt>
      <trkpt lat="42.80869" lon="1.37553">
        <ele>1323</ele>
        <time>2025-09-27T11:57:01.000Z</time>
      </trkpt>
      <trkpt lat="42.80871" lon="1.37552">
        <ele>1324</ele>
        <time>2025-09-27T11:57:02.000Z</time>
      </trkpt>
      <trkpt lat="42.80873" lon="1.37551">
        <ele>1323</ele>
        <time>2025-09-27T11:57:03.000Z</time>
      </trkpt>
      <trkpt lat="42.80875" lon="1.37551">
        <ele>1323</ele>
        <time>2025-09-27T11:57:04.000Z</time>
      </trkpt>
      <trkpt lat="42.80877" lon="1.37551">
        <ele>1323</ele>
        <time>2025-09-27T11:57:05.000Z</time>
      </trkpt>
      <trkpt lat="42.80879" lon="1.37549">
        <ele>1323</ele>
        <time>2025-09-27T11:57:06.000Z</time>
      </trkpt>
      <trkpt lat="42.80881" lon="1.37548">
        <ele>1323</ele>
        <time>2025-09-27T11:57:07.000Z</time>
      </trkpt>
      <trkpt lat="42.80882" lon="1.37546">
        <ele>1323</ele>
        <time>2025-09-27T11:57:08.000Z</time>
      </trkpt>
      <trkpt lat="42.80883" lon="1.37543">
        <ele>1324</ele>
        <time>2025-09-27T11:57:09.000Z</time>
      </trkpt>
      <trkpt lat="42.80883" lon="1.3754">
        <ele>1324</ele>
        <time>2025-09-27T11:57:10.000Z</time>
      </trkpt>
      <trkpt lat="42.80884" lon="1.37538">
        <ele>1325</ele>
        <time>2025-09-27T11:57:11.000Z</time>
      </trkpt>
      <trkpt lat="42.80885" lon="1.37537">
        <ele>1325</ele>
        <time>2025-09-27T11:57:12.000Z</time>
      </trkpt>
      <trkpt lat="42.80885" lon="1.37535">
        <ele>1324</ele>
        <time>2025-09-27T11:57:13.000Z</time>
      </trkpt>
      <trkpt lat="42.80883" lon="1.37534">
        <ele>1324</ele>
        <time>2025-09-27T11:57:14.000Z</time>
      </trkpt>
      <trkpt lat="42.80881" lon="1.37533">
        <ele>1324</ele>
        <time>2025-09-27T11:57:15.000Z</time>
      </trkpt>
      <trkpt lat="42.8088" lon="1.3753">
        <ele>1324</ele>
        <time>2025-09-27T11:57:16.000Z</time>
      </trkpt>
      <trkpt lat="42.8088" lon="1.37528">
        <ele>1324</ele>
        <time>2025-09-27T11:57:17.000Z</time>
      </trkpt>
      <trkpt lat="42.80879" lon="1.37524">
        <ele>1324</ele>
        <time>2025-09-27T11:57:18.000Z</time>
      </trkpt>
      <trkpt lat="42.80877" lon="1.37521">
        <ele>1324</ele>
        <time>2025-09-27T11:57:19.000Z</time>
      </trkpt>
      <trkpt lat="42.80875" lon="1.37518">
        <ele>1324</ele>
        <time>2025-09-27T11:57:20.000Z</time>
      </trkpt>
      <trkpt lat="42.80874" lon="1.37516">
        <ele>1323</ele>
        <time>2025-09-27T11:57:21.000Z</time>
      </trkpt>
      <trkpt lat="42.80872" lon="1.37515">
        <ele>1322</ele>
        <time>2025-09-27T11:57:22.000Z</time>
      </trkpt>
      <trkpt lat="42.80871" lon="1.37513">
        <ele>1322</ele>
        <time>2025-09-27T11:57:23.000Z</time>
      </trkpt>
      <trkpt lat="42.8087" lon="1.37511">
        <ele>1323</ele>
        <time>2025-09-27T11:57:24.000Z</time>
      </trkpt>
      <trkpt lat="42.80868" lon="1.37508">
        <ele>1323</ele>
        <time>2025-09-27T11:57:25.000Z</time>
      </trkpt>
      <trkpt lat="42.80866" lon="1.37505">
        <ele>1323</ele>
        <time>2025-09-27T11:57:26.000Z</time>
      </trkpt>
      <trkpt lat="42.80864" lon="1.37502">
        <ele>1323</ele>
        <time>2025-09-27T11:57:27.000Z</time>
      </trkpt>
      <trkpt lat="42.80861" lon="1.375">
        <ele>1324</ele>
        <time>2025-09-27T11:57:28.000Z</time>
      </trkpt>
      <trkpt lat="42.80859" lon="1.37497">
        <ele>1325</ele>
        <time>2025-09-27T11:57:29.000Z</time>
      </trkpt>
      <trkpt lat="42.80856" lon="1.37495">
        <ele>1325</ele>
        <time>2025-09-27T11:57:30.000Z</time>
      </trkpt>
      <trkpt lat="42.80853" lon="1.37492">
        <ele>1324</ele>
        <time>2025-09-27T11:57:31.000Z</time>
      </trkpt>
      <trkpt lat="42.8085" lon="1.37488">
        <ele>1324</ele>
        <time>2025-09-27T11:57:32.000Z</time>
      </trkpt>
      <trkpt lat="42.80847" lon="1.37486">
        <ele>1323</ele>
        <time>2025-09-27T11:57:33.000Z</time>
      </trkpt>
      <trkpt lat="42.80845" lon="1.37483">
        <ele>1323</ele>
        <time>2025-09-27T11:57:34.000Z</time>
      </trkpt>
      <trkpt lat="42.80843" lon="1.3748">
        <ele>1323</ele>
        <time>2025-09-27T11:57:35.000Z</time>
      </trkpt>
      <trkpt lat="42.80841" lon="1.37478">
        <ele>1323</ele>
        <time>2025-09-27T11:57:36.000Z</time>
      </trkpt>
      <trkpt lat="42.80841" lon="1.37475">
        <ele>1323</ele>
        <time>2025-09-27T11:57:37.000Z</time>
      </trkpt>
      <trkpt lat="42.80839" lon="1.37473">
        <ele>1323</ele>
        <time>2025-09-27T11:57:38.000Z</time>
      </trkpt>
      <trkpt lat="42.80838" lon="1.37471">
        <ele>1323</ele>
        <time>2025-09-27T11:57:39.000Z</time>
      </trkpt>
      <trkpt lat="42.80836" lon="1.37468">
        <ele>1323</ele>
        <time>2025-09-27T11:57:40.000Z</time>
      </trkpt>
      <trkpt lat="42.80834" lon="1.37466">
        <ele>1323</ele>
        <time>2025-09-27T11:57:41.000Z</time>
      </trkpt>
      <trkpt lat="42.80832" lon="1.37462">
        <ele>1322</ele>
        <time>2025-09-27T11:57:42.000Z</time>
      </trkpt>
      <trkpt lat="42.8083" lon="1.37458">
        <ele>1323</ele>
        <time>2025-09-27T11:57:43.000Z</time>
      </trkpt>
      <trkpt lat="42.80829" lon="1.37454">
        <ele>1323</ele>
        <time>2025-09-27T11:57:44.000Z</time>
      </trkpt>
      <trkpt lat="42.80827" lon="1.3745">
        <ele>1323</ele>
        <time>2025-09-27T11:57:45.000Z</time>
      </trkpt>
      <trkpt lat="42.80825" lon="1.37446">
        <ele>1322</ele>
        <time>2025-09-27T11:57:46.000Z</time>
      </trkpt>
      <trkpt lat="42.80824" lon="1.37442">
        <ele>1322</ele>
        <time>2025-09-27T11:57:47.000Z</time>
      </trkpt>
      <trkpt lat="42.80823" lon="1.3744">
        <ele>1323</ele>
        <time>2025-09-27T11:57:48.000Z</time>
      </trkpt>
      <trkpt lat="42.80822" lon="1.37438">
        <ele>1322</ele>
        <time>2025-09-27T11:57:49.000Z</time>
      </trkpt>
      <trkpt lat="42.8082" lon="1.37437">
        <ele>1322</ele>
        <time>2025-09-27T11:57:50.000Z</time>
      </trkpt>
      <trkpt lat="42.80819" lon="1.37436">
        <ele>1322</ele>
        <time>2025-09-27T11:57:51.000Z</time>
      </trkpt>
      <trkpt lat="42.80818" lon="1.37437">
        <ele>1322</ele>
        <time>2025-09-27T11:57:52.000Z</time>
      </trkpt>
      <trkpt lat="42.80818" lon="1.37438">
        <ele>1321</ele>
        <time>2025-09-27T11:58:31.000Z</time>
      </trkpt>
      <trkpt lat="42.80817" lon="1.37437">
        <ele>1321</ele>
        <time>2025-09-27T11:58:32.000Z</time>
      </trkpt>
      <trkpt lat="42.80816" lon="1.37435">
        <ele>1321</ele>
        <time>2025-09-27T11:58:33.000Z</time>
      </trkpt>
      <trkpt lat="42.80816" lon="1.37433">
        <ele>1321</ele>
        <time>2025-09-27T11:58:34.000Z</time>
      </trkpt>
      <trkpt lat="42.80817" lon="1.37431">
        <ele>1321</ele>
        <time>2025-09-27T11:58:35.000Z</time>
      </trkpt>
      <trkpt lat="42.80817" lon="1.37428">
        <ele>1321</ele>
        <time>2025-09-27T11:58:36.000Z</time>
      </trkpt>
      <trkpt lat="42.80818" lon="1.37426">
        <ele>1321</ele>
        <time>2025-09-27T11:58:37.000Z</time>
      </trkpt>
      <trkpt lat="42.80819" lon="1.37426">
        <ele>1321</ele>
        <time>2025-09-27T11:58:38.000Z</time>
      </trkpt>
      <trkpt lat="42.80821" lon="1.37425">
        <ele>1321</ele>
        <time>2025-09-27T11:58:39.000Z</time>
      </trkpt>
      <trkpt lat="42.80823" lon="1.37424">
        <ele>1322</ele>
        <time>2025-09-27T11:58:40.000Z</time>
      </trkpt>
      <trkpt lat="42.80825" lon="1.37423">
        <ele>1322</ele>
        <time>2025-09-27T11:58:41.000Z</time>
      </trkpt>
      <trkpt lat="42.80828" lon="1.3742">
        <ele>1322</ele>
        <time>2025-09-27T11:58:42.000Z</time>
      </trkpt>
      <trkpt lat="42.8083" lon="1.37419">
        <ele>1322</ele>
        <time>2025-09-27T11:58:43.000Z</time>
      </trkpt>
      <trkpt lat="42.80833" lon="1.37419">
        <ele>1322</ele>
        <time>2025-09-27T11:58:44.000Z</time>
      </trkpt>
      <trkpt lat="42.80836" lon="1.37419">
        <ele>1323</ele>
        <time>2025-09-27T11:58:45.000Z</time>
      </trkpt>
      <trkpt lat="42.80839" lon="1.37419">
        <ele>1323</ele>
        <time>2025-09-27T11:58:46.000Z</time>
      </trkpt>
      <trkpt lat="42.80841" lon="1.3742">
        <ele>1322</ele>
        <time>2025-09-27T11:58:47.000Z</time>
      </trkpt>
      <trkpt lat="42.80844" lon="1.37421">
        <ele>1323</ele>
        <time>2025-09-27T11:58:48.000Z</time>
      </trkpt>
      <trkpt lat="42.80846" lon="1.37422">
        <ele>1322</ele>
        <time>2025-09-27T11:58:49.000Z</time>
      </trkpt>
      <trkpt lat="42.80849" lon="1.37422">
        <ele>1322</ele>
        <time>2025-09-27T11:58:50.000Z</time>
      </trkpt>
      <trkpt lat="42.80852" lon="1.37422">
        <ele>1323</ele>
        <time>2025-09-27T11:58:51.000Z</time>
      </trkpt>
      <trkpt lat="42.80854" lon="1.37423">
        <ele>1323</ele>
        <time>2025-09-27T11:58:52.000Z</time>
      </trkpt>
      <trkpt lat="42.80856" lon="1.37424">
        <ele>1324</ele>
        <time>2025-09-27T11:58:53.000Z</time>
      </trkpt>
      <trkpt lat="42.80859" lon="1.37424">
        <ele>1324</ele>
        <time>2025-09-27T11:58:54.000Z</time>
      </trkpt>
      <trkpt lat="42.80862" lon="1.37425">
        <ele>1324</ele>
        <time>2025-09-27T11:58:55.000Z</time>
      </trkpt>
      <trkpt lat="42.80866" lon="1.37426">
        <ele>1325</ele>
        <time>2025-09-27T11:58:56.000Z</time>
      </trkpt>
      <trkpt lat="42.80871" lon="1.37427">
        <ele>1326</ele>
        <time>2025-09-27T11:58:57.000Z</time>
      </trkpt>
      <trkpt lat="42.80876" lon="1.37428">
        <ele>1326</ele>
        <time>2025-09-27T11:58:58.000Z</time>
      </trkpt>
      <trkpt lat="42.80879" lon="1.37429">
        <ele>1326</ele>
        <time>2025-09-27T11:58:59.000Z</time>
      </trkpt>
      <trkpt lat="42.80882" lon="1.37432">
        <ele>1326</ele>
        <time>2025-09-27T11:59:00.000Z</time>
      </trkpt>
      <trkpt lat="42.80884" lon="1.37436">
        <ele>1326</ele>
        <time>2025-09-27T11:59:01.000Z</time>
      </trkpt>
      <trkpt lat="42.80887" lon="1.37438">
        <ele>1326</ele>
        <time>2025-09-27T11:59:02.000Z</time>
      </trkpt>
      <trkpt lat="42.80889" lon="1.37439">
        <ele>1326</ele>
        <time>2025-09-27T11:59:03.000Z</time>
      </trkpt>
      <trkpt lat="42.80891" lon="1.37437">
        <ele>1326</ele>
        <time>2025-09-27T11:59:04.000Z</time>
      </trkpt>
      <trkpt lat="42.80892" lon="1.37433">
        <ele>1326</ele>
        <time>2025-09-27T11:59:05.000Z</time>
      </trkpt>
      <trkpt lat="42.80889" lon="1.3743">
        <ele>1325</ele>
        <time>2025-09-27T11:59:06.000Z</time>
      </trkpt>
      <trkpt lat="42.80886" lon="1.37428">
        <ele>1326</ele>
        <time>2025-09-27T11:59:07.000Z</time>
      </trkpt>
      <trkpt lat="42.80882" lon="1.37426">
        <ele>1326</ele>
        <time>2025-09-27T11:59:08.000Z</time>
      </trkpt>
      <trkpt lat="42.80878" lon="1.37422">
        <ele>1325</ele>
        <time>2025-09-27T11:59:09.000Z</time>
      </trkpt>
      <trkpt lat="42.80874" lon="1.37418">
        <ele>1325</ele>
        <time>2025-09-27T11:59:10.000Z</time>
      </trkpt>
      <trkpt lat="42.8087" lon="1.37413">
        <ele>1324</ele>
        <time>2025-09-27T11:59:11.000Z</time>
      </trkpt>
      <trkpt lat="42.80866" lon="1.37407">
        <ele>1324</ele>
        <time>2025-09-27T11:59:12.000Z</time>
      </trkpt>
      <trkpt lat="42.80864" lon="1.37401">
        <ele>1324</ele>
        <time>2025-09-27T11:59:13.000Z</time>
      </trkpt>
      <trkpt lat="42.80862" lon="1.37394">
        <ele>1324</ele>
        <time>2025-09-27T11:59:14.000Z</time>
      </trkpt>
      <trkpt lat="42.80861" lon="1.37387">
        <ele>1324</ele>
        <time>2025-09-27T11:59:15.000Z</time>
      </trkpt>
      <trkpt lat="42.8086" lon="1.37381">
        <ele>1324</ele>
        <time>2025-09-27T11:59:16.000Z</time>
      </trkpt>
      <trkpt lat="42.80859" lon="1.37376">
        <ele>1324</ele>
        <time>2025-09-27T11:59:17.000Z</time>
      </trkpt>
      <trkpt lat="42.80858" lon="1.37373">
        <ele>1325</ele>
        <time>2025-09-27T11:59:18.000Z</time>
      </trkpt>
      <trkpt lat="42.80857" lon="1.3737">
        <ele>1325</ele>
        <time>2025-09-27T11:59:19.000Z</time>
      </trkpt>
      <trkpt lat="42.80856" lon="1.37367">
        <ele>1326</ele>
        <time>2025-09-27T11:59:20.000Z</time>
      </trkpt>
      <trkpt lat="42.80855" lon="1.37363">
        <ele>1326</ele>
        <time>2025-09-27T11:59:21.000Z</time>
      </trkpt>
      <trkpt lat="42.80854" lon="1.37359">
        <ele>1327</ele>
        <time>2025-09-27T11:59:22.000Z</time>
      </trkpt>
      <trkpt lat="42.80854" lon="1.37355">
        <ele>1327</ele>
        <time>2025-09-27T11:59:23.000Z</time>
      </trkpt>
      <trkpt lat="42.80853" lon="1.37352">
        <ele>1327</ele>
        <time>2025-09-27T11:59:24.000Z</time>
      </trkpt>
      <trkpt lat="42.80852" lon="1.37348">
        <ele>1326</ele>
        <time>2025-09-27T11:59:25.000Z</time>
      </trkpt>
      <trkpt lat="42.80852" lon="1.37345">
        <ele>1326</ele>
        <time>2025-09-27T11:59:26.000Z</time>
      </trkpt>
      <trkpt lat="42.80851" lon="1.37343">
        <ele>1326</ele>
        <time>2025-09-27T11:59:27.000Z</time>
      </trkpt>
      <trkpt lat="42.80851" lon="1.3734">
        <ele>1326</ele>
        <time>2025-09-27T11:59:28.000Z</time>
      </trkpt>
      <trkpt lat="42.8085" lon="1.37337">
        <ele>1326</ele>
        <time>2025-09-27T11:59:29.000Z</time>
      </trkpt>
      <trkpt lat="42.8085" lon="1.37334">
        <ele>1326</ele>
        <time>2025-09-27T11:59:30.000Z</time>
      </trkpt>
      <trkpt lat="42.80849" lon="1.37331">
        <ele>1326</ele>
        <time>2025-09-27T11:59:31.000Z</time>
      </trkpt>
      <trkpt lat="42.80848" lon="1.37327">
        <ele>1326</ele>
        <time>2025-09-27T11:59:32.000Z</time>
      </trkpt>
      <trkpt lat="42.80847" lon="1.37323">
        <ele>1326</ele>
        <time>2025-09-27T11:59:33.000Z</time>
      </trkpt>
      <trkpt lat="42.80846" lon="1.37319">
        <ele>1326</ele>
        <time>2025-09-27T11:59:34.000Z</time>
      </trkpt>
      <trkpt lat="42.80845" lon="1.37315">
        <ele>1326</ele>
        <time>2025-09-27T11:59:35.000Z</time>
      </trkpt>
      <trkpt lat="42.80844" lon="1.37311">
        <ele>1326</ele>
        <time>2025-09-27T11:59:36.000Z</time>
      </trkpt>
      <trkpt lat="42.80842" lon="1.37306">
        <ele>1326</ele>
        <time>2025-09-27T11:59:37.000Z</time>
      </trkpt>
      <trkpt lat="42.80842" lon="1.37302">
        <ele>1326</ele>
        <time>2025-09-27T11:59:38.000Z</time>
      </trkpt>
      <trkpt lat="42.80841" lon="1.37296">
        <ele>1326</ele>
        <time>2025-09-27T11:59:39.000Z</time>
      </trkpt>
      <trkpt lat="42.80839" lon="1.37291">
        <ele>1326</ele>
        <time>2025-09-27T11:59:40.000Z</time>
      </trkpt>
      <trkpt lat="42.80838" lon="1.37285">
        <ele>1326</ele>
        <time>2025-09-27T11:59:41.000Z</time>
      </trkpt>
      <trkpt lat="42.80835" lon="1.37281">
        <ele>1326</ele>
        <time>2025-09-27T11:59:42.000Z</time>
      </trkpt>
      <trkpt lat="42.80833" lon="1.37277">
        <ele>1326</ele>
        <time>2025-09-27T11:59:43.000Z</time>
      </trkpt>
      <trkpt lat="42.80829" lon="1.37273">
        <ele>1327</ele>
        <time>2025-09-27T11:59:44.000Z</time>
      </trkpt>
      <trkpt lat="42.80826" lon="1.37269">
        <ele>1327</ele>
        <time>2025-09-27T11:59:45.000Z</time>
      </trkpt>
      <trkpt lat="42.80824" lon="1.37265">
        <ele>1327</ele>
        <time>2025-09-27T11:59:46.000Z</time>
      </trkpt>
      <trkpt lat="42.80822" lon="1.37261">
        <ele>1327</ele>
        <time>2025-09-27T11:59:47.000Z</time>
      </trkpt>
      <trkpt lat="42.8082" lon="1.37257">
        <ele>1328</ele>
        <time>2025-09-27T11:59:48.000Z</time>
      </trkpt>
      <trkpt lat="42.80818" lon="1.37253">
        <ele>1328</ele>
        <time>2025-09-27T11:59:49.000Z</time>
      </trkpt>
      <trkpt lat="42.80817" lon="1.37247">
        <ele>1328</ele>
        <time>2025-09-27T11:59:50.000Z</time>
      </trkpt>
      <trkpt lat="42.80816" lon="1.37242">
        <ele>1329</ele>
        <time>2025-09-27T11:59:51.000Z</time>
      </trkpt>
      <trkpt lat="42.80816" lon="1.37237">
        <ele>1330</ele>
        <time>2025-09-27T11:59:52.000Z</time>
      </trkpt>
      <trkpt lat="42.80816" lon="1.37231">
        <ele>1331</ele>
        <time>2025-09-27T11:59:53.000Z</time>
      </trkpt>
      <trkpt lat="42.80817" lon="1.37226">
        <ele>1331</ele>
        <time>2025-09-27T11:59:54.000Z</time>
      </trkpt>
      <trkpt lat="42.80818" lon="1.37221">
        <ele>1332</ele>
        <time>2025-09-27T11:59:55.000Z</time>
      </trkpt>
      <trkpt lat="42.8082" lon="1.37217">
        <ele>1332</ele>
        <time>2025-09-27T11:59:56.000Z</time>
      </trkpt>
      <trkpt lat="42.80823" lon="1.37214">
        <ele>1332</ele>
        <time>2025-09-27T11:59:57.000Z</time>
      </trkpt>
      <trkpt lat="42.80825" lon="1.37212">
        <ele>1332</ele>
        <time>2025-09-27T11:59:58.000Z</time>
      </trkpt>
      <trkpt lat="42.80829" lon="1.3721">
        <ele>1331</ele>
        <time>2025-09-27T11:59:59.000Z</time>
      </trkpt>
      <trkpt lat="42.80832" lon="1.37208">
        <ele>1331</ele>
        <time>2025-09-27T12:00:00.000Z</time>
      </trkpt>
      <trkpt lat="42.80835" lon="1.37206">
        <ele>1331</ele>
        <time>2025-09-27T12:00:01.000Z</time>
      </trkpt>
      <trkpt lat="42.80838" lon="1.37205">
        <ele>1330</ele>
        <time>2025-09-27T12:00:02.000Z</time>
      </trkpt>
      <trkpt lat="42.80842" lon="1.37203">
        <ele>1330</ele>
        <time>2025-09-27T12:00:03.000Z</time>
      </trkpt>
      <trkpt lat="42.80846" lon="1.37203">
        <ele>1331</ele>
        <time>2025-09-27T12:00:04.000Z</time>
      </trkpt>
      <trkpt lat="42.80849" lon="1.372">
        <ele>1331</ele>
        <time>2025-09-27T12:00:05.000Z</time>
      </trkpt>
      <trkpt lat="42.80852" lon="1.37197">
        <ele>1331</ele>
        <time>2025-09-27T12:00:06.000Z</time>
      </trkpt>
      <trkpt lat="42.80855" lon="1.37194">
        <ele>1331</ele>
        <time>2025-09-27T12:00:07.000Z</time>
      </trkpt>
      <trkpt lat="42.80856" lon="1.37191">
        <ele>1331</ele>
        <time>2025-09-27T12:00:08.000Z</time>
      </trkpt>
      <trkpt lat="42.80858" lon="1.37188">
        <ele>1331</ele>
        <time>2025-09-27T12:00:09.000Z</time>
      </trkpt>
      <trkpt lat="42.80858" lon="1.37184">
        <ele>1331</ele>
        <time>2025-09-27T12:00:10.000Z</time>
      </trkpt>
      <trkpt lat="42.80858" lon="1.3718">
        <ele>1331</ele>
        <time>2025-09-27T12:00:11.000Z</time>
      </trkpt>
      <trkpt lat="42.80858" lon="1.37175">
        <ele>1330</ele>
        <time>2025-09-27T12:00:12.000Z</time>
      </trkpt>
      <trkpt lat="42.80859" lon="1.3717">
        <ele>1330</ele>
        <time>2025-09-27T12:00:13.000Z</time>
      </trkpt>
      <trkpt lat="42.80861" lon="1.37163">
        <ele>1330</ele>
        <time>2025-09-27T12:00:14.000Z</time>
      </trkpt>
      <trkpt lat="42.80862" lon="1.37158">
        <ele>1330</ele>
        <time>2025-09-27T12:00:15.000Z</time>
      </trkpt>
      <trkpt lat="42.80864" lon="1.37153">
        <ele>1330</ele>
        <time>2025-09-27T12:00:16.000Z</time>
      </trkpt>
      <trkpt lat="42.80867" lon="1.37148">
        <ele>1329</ele>
        <time>2025-09-27T12:00:17.000Z</time>
      </trkpt>
      <trkpt lat="42.80869" lon="1.37144">
        <ele>1330</ele>
        <time>2025-09-27T12:00:18.000Z</time>
      </trkpt>
      <trkpt lat="42.80872" lon="1.3714">
        <ele>1329</ele>
        <time>2025-09-27T12:00:19.000Z</time>
      </trkpt>
      <trkpt lat="42.80875" lon="1.37136">
        <ele>1329</ele>
        <time>2025-09-27T12:00:20.000Z</time>
      </trkpt>
      <trkpt lat="42.80878" lon="1.37133">
        <ele>1330</ele>
        <time>2025-09-27T12:00:21.000Z</time>
      </trkpt>
      <trkpt lat="42.80882" lon="1.3713">
        <ele>1330</ele>
        <time>2025-09-27T12:00:22.000Z</time>
      </trkpt>
      <trkpt lat="42.80886" lon="1.37128">
        <ele>1330</ele>
        <time>2025-09-27T12:00:23.000Z</time>
      </trkpt>
      <trkpt lat="42.8089" lon="1.37128">
        <ele>1329</ele>
        <time>2025-09-27T12:00:24.000Z</time>
      </trkpt>
      <trkpt lat="42.80895" lon="1.37127">
        <ele>1329</ele>
        <time>2025-09-27T12:00:25.000Z</time>
      </trkpt>
      <trkpt lat="42.809" lon="1.37128">
        <ele>1329</ele>
        <time>2025-09-27T12:00:26.000Z</time>
      </trkpt>
      <trkpt lat="42.80905" lon="1.37129">
        <ele>1329</ele>
        <time>2025-09-27T12:00:27.000Z</time>
      </trkpt>
      <trkpt lat="42.80909" lon="1.37129">
        <ele>1328</ele>
        <time>2025-09-27T12:00:28.000Z</time>
      </trkpt>
      <trkpt lat="42.80914" lon="1.3713">
        <ele>1329</ele>
        <time>2025-09-27T12:00:29.000Z</time>
      </trkpt>
      <trkpt lat="42.80918" lon="1.37131">
        <ele>1328</ele>
        <time>2025-09-27T12:00:30.000Z</time>
      </trkpt>
      <trkpt lat="42.80923" lon="1.37131">
        <ele>1328</ele>
        <time>2025-09-27T12:00:31.000Z</time>
      </trkpt>
      <trkpt lat="42.80927" lon="1.37131">
        <ele>1328</ele>
        <time>2025-09-27T12:00:32.000Z</time>
      </trkpt>
      <trkpt lat="42.80931" lon="1.37132">
        <ele>1328</ele>
        <time>2025-09-27T12:00:33.000Z</time>
      </trkpt>
      <trkpt lat="42.80936" lon="1.37133">
        <ele>1328</ele>
        <time>2025-09-27T12:00:34.000Z</time>
      </trkpt>
      <trkpt lat="42.80941" lon="1.37134">
        <ele>1328</ele>
        <time>2025-09-27T12:00:35.000Z</time>
      </trkpt>
      <trkpt lat="42.80945" lon="1.37134">
        <ele>1327</ele>
        <time>2025-09-27T12:00:36.000Z</time>
      </trkpt>
      <trkpt lat="42.8095" lon="1.37135">
        <ele>1327</ele>
        <time>2025-09-27T12:00:37.000Z</time>
      </trkpt>
      <trkpt lat="42.80954" lon="1.37136">
        <ele>1328</ele>
        <time>2025-09-27T12:00:38.000Z</time>
      </trkpt>
      <trkpt lat="42.80959" lon="1.37137">
        <ele>1328</ele>
        <time>2025-09-27T12:00:39.000Z</time>
      </trkpt>
      <trkpt lat="42.80964" lon="1.37138">
        <ele>1328</ele>
        <time>2025-09-27T12:00:40.000Z</time>
      </trkpt>
      <trkpt lat="42.80968" lon="1.37139">
        <ele>1328</ele>
        <time>2025-09-27T12:00:41.000Z</time>
      </trkpt>
      <trkpt lat="42.80972" lon="1.3714">
        <ele>1327</ele>
        <time>2025-09-27T12:00:42.000Z</time>
      </trkpt>
      <trkpt lat="42.80976" lon="1.37141">
        <ele>1328</ele>
        <time>2025-09-27T12:00:43.000Z</time>
      </trkpt>
      <trkpt lat="42.80979" lon="1.37142">
        <ele>1328</ele>
        <time>2025-09-27T12:00:44.000Z</time>
      </trkpt>
      <trkpt lat="42.80983" lon="1.37142">
        <ele>1328</ele>
        <time>2025-09-27T12:00:45.000Z</time>
      </trkpt>
      <trkpt lat="42.80987" lon="1.37143">
        <ele>1328</ele>
        <time>2025-09-27T12:00:46.000Z</time>
      </trkpt>
      <trkpt lat="42.8099" lon="1.37143">
        <ele>1328</ele>
        <time>2025-09-27T12:00:47.000Z</time>
      </trkpt>
      <trkpt lat="42.80994" lon="1.37143">
        <ele>1328</ele>
        <time>2025-09-27T12:00:48.000Z</time>
      </trkpt>
      <trkpt lat="42.80998" lon="1.37143">
        <ele>1328</ele>
        <time>2025-09-27T12:00:49.000Z</time>
      </trkpt>
      <trkpt lat="42.81002" lon="1.37143">
        <ele>1328</ele>
        <time>2025-09-27T12:00:50.000Z</time>
      </trkpt>
      <trkpt lat="42.81005" lon="1.37145">
        <ele>1328</ele>
        <time>2025-09-27T12:00:51.000Z</time>
      </trkpt>
      <trkpt lat="42.81007" lon="1.37147">
        <ele>1328</ele>
        <time>2025-09-27T12:00:52.000Z</time>
      </trkpt>
      <trkpt lat="42.8101" lon="1.3715">
        <ele>1328</ele>
        <time>2025-09-27T12:00:53.000Z</time>
      </trkpt>
      <trkpt lat="42.81012" lon="1.37153">
        <ele>1328</ele>
        <time>2025-09-27T12:00:54.000Z</time>
      </trkpt>
      <trkpt lat="42.81013" lon="1.37158">
        <ele>1329</ele>
        <time>2025-09-27T12:00:55.000Z</time>
      </trkpt>
      <trkpt lat="42.81014" lon="1.37162">
        <ele>1329</ele>
        <time>2025-09-27T12:00:56.000Z</time>
      </trkpt>
      <trkpt lat="42.81015" lon="1.37167">
        <ele>1329</ele>
        <time>2025-09-27T12:00:57.000Z</time>
      </trkpt>
      <trkpt lat="42.81017" lon="1.37171">
        <ele>1329</ele>
        <time>2025-09-27T12:00:58.000Z</time>
      </trkpt>
      <trkpt lat="42.81018" lon="1.37175">
        <ele>1330</ele>
        <time>2025-09-27T12:00:59.000Z</time>
      </trkpt>
      <trkpt lat="42.8102" lon="1.37179">
        <ele>1330</ele>
        <time>2025-09-27T12:01:00.000Z</time>
      </trkpt>
      <trkpt lat="42.81022" lon="1.37183">
        <ele>1330</ele>
        <time>2025-09-27T12:01:01.000Z</time>
      </trkpt>
      <trkpt lat="42.81025" lon="1.37186">
        <ele>1330</ele>
        <time>2025-09-27T12:01:02.000Z</time>
      </trkpt>
      <trkpt lat="42.81027" lon="1.37189">
        <ele>1330</ele>
        <time>2025-09-27T12:01:03.000Z</time>
      </trkpt>
      <trkpt lat="42.8103" lon="1.37192">
        <ele>1331</ele>
        <time>2025-09-27T12:01:04.000Z</time>
      </trkpt>
      <trkpt lat="42.81032" lon="1.37194">
        <ele>1330</ele>
        <time>2025-09-27T12:01:05.000Z</time>
      </trkpt>
      <trkpt lat="42.81034" lon="1.37196">
        <ele>1331</ele>
        <time>2025-09-27T12:01:06.000Z</time>
      </trkpt>
      <trkpt lat="42.81037" lon="1.37195">
        <ele>1331</ele>
        <time>2025-09-27T12:01:07.000Z</time>
      </trkpt>
      <trkpt lat="42.81041" lon="1.37194">
        <ele>1331</ele>
        <time>2025-09-27T12:01:08.000Z</time>
      </trkpt>
      <trkpt lat="42.81044" lon="1.37193">
        <ele>1331</ele>
        <time>2025-09-27T12:01:09.000Z</time>
      </trkpt>
      <trkpt lat="42.81046" lon="1.37191">
        <ele>1331</ele>
        <time>2025-09-27T12:01:10.000Z</time>
      </trkpt>
      <trkpt lat="42.81049" lon="1.37189">
        <ele>1330</ele>
        <time>2025-09-27T12:01:11.000Z</time>
      </trkpt>
      <trkpt lat="42.81052" lon="1.37186">
        <ele>1330</ele>
        <time>2025-09-27T12:01:12.000Z</time>
      </trkpt>
      <trkpt lat="42.81055" lon="1.37183">
        <ele>1331</ele>
        <time>2025-09-27T12:01:13.000Z</time>
      </trkpt>
      <trkpt lat="42.81057" lon="1.3718">
        <ele>1331</ele>
        <time>2025-09-27T12:01:14.000Z</time>
      </trkpt>
      <trkpt lat="42.8106" lon="1.37176">
        <ele>1332</ele>
        <time>2025-09-27T12:01:15.000Z</time>
      </trkpt>
      <trkpt lat="42.81062" lon="1.37173">
        <ele>1332</ele>
        <time>2025-09-27T12:01:16.000Z</time>
      </trkpt>
      <trkpt lat="42.81065" lon="1.37169">
        <ele>1332</ele>
        <time>2025-09-27T12:01:17.000Z</time>
      </trkpt>
      <trkpt lat="42.81067" lon="1.37165">
        <ele>1333</ele>
        <time>2025-09-27T12:01:18.000Z</time>
      </trkpt>
      <trkpt lat="42.81069" lon="1.37161">
        <ele>1333</ele>
        <time>2025-09-27T12:01:19.000Z</time>
      </trkpt>
      <trkpt lat="42.81071" lon="1.37155">
        <ele>1333</ele>
        <time>2025-09-27T12:01:20.000Z</time>
      </trkpt>
      <trkpt lat="42.81073" lon="1.37151">
        <ele>1333</ele>
        <time>2025-09-27T12:01:21.000Z</time>
      </trkpt>
      <trkpt lat="42.81075" lon="1.37147">
        <ele>1333</ele>
        <time>2025-09-27T12:01:22.000Z</time>
      </trkpt>
      <trkpt lat="42.81077" lon="1.37142">
        <ele>1333</ele>
        <time>2025-09-27T12:01:23.000Z</time>
      </trkpt>
      <trkpt lat="42.81078" lon="1.37137">
        <ele>1334</ele>
        <time>2025-09-27T12:01:24.000Z</time>
      </trkpt>
      <trkpt lat="42.8108" lon="1.37133">
        <ele>1334</ele>
        <time>2025-09-27T12:01:25.000Z</time>
      </trkpt>
      <trkpt lat="42.81081" lon="1.37128">
        <ele>1334</ele>
        <time>2025-09-27T12:01:26.000Z</time>
      </trkpt>
      <trkpt lat="42.81082" lon="1.37123">
        <ele>1335</ele>
        <time>2025-09-27T12:01:27.000Z</time>
      </trkpt>
      <trkpt lat="42.81084" lon="1.37119">
        <ele>1335</ele>
        <time>2025-09-27T12:01:28.000Z</time>
      </trkpt>
      <trkpt lat="42.81087" lon="1.37114">
        <ele>1335</ele>
        <time>2025-09-27T12:01:29.000Z</time>
      </trkpt>
      <trkpt lat="42.81088" lon="1.37109">
        <ele>1336</ele>
        <time>2025-09-27T12:01:30.000Z</time>
      </trkpt>
      <trkpt lat="42.8109" lon="1.37104">
        <ele>1335</ele>
        <time>2025-09-27T12:01:31.000Z</time>
      </trkpt>
      <trkpt lat="42.81092" lon="1.37099">
        <ele>1336</ele>
        <time>2025-09-27T12:01:32.000Z</time>
      </trkpt>
      <trkpt lat="42.81093" lon="1.37094">
        <ele>1336</ele>
        <time>2025-09-27T12:01:33.000Z</time>
      </trkpt>
      <trkpt lat="42.81095" lon="1.3709">
        <ele>1336</ele>
        <time>2025-09-27T12:01:34.000Z</time>
      </trkpt>
      <trkpt lat="42.81096" lon="1.37087">
        <ele>1336</ele>
        <time>2025-09-27T12:01:35.000Z</time>
      </trkpt>
      <trkpt lat="42.81099" lon="1.37084">
        <ele>1337</ele>
        <time>2025-09-27T12:01:36.000Z</time>
      </trkpt>
      <trkpt lat="42.81102" lon="1.37083">
        <ele>1337</ele>
        <time>2025-09-27T12:01:37.000Z</time>
      </trkpt>
      <trkpt lat="42.81105" lon="1.37082">
        <ele>1337</ele>
        <time>2025-09-27T12:01:38.000Z</time>
      </trkpt>
      <trkpt lat="42.81109" lon="1.37082">
        <ele>1336</ele>
        <time>2025-09-27T12:01:39.000Z</time>
      </trkpt>
      <trkpt lat="42.81113" lon="1.37082">
        <ele>1336</ele>
        <time>2025-09-27T12:01:40.000Z</time>
      </trkpt>
      <trkpt lat="42.81117" lon="1.37082">
        <ele>1336</ele>
        <time>2025-09-27T12:01:41.000Z</time>
      </trkpt>
      <trkpt lat="42.8112" lon="1.37084">
        <ele>1336</ele>
        <time>2025-09-27T12:01:42.000Z</time>
      </trkpt>
      <trkpt lat="42.81125" lon="1.37085">
        <ele>1337</ele>
        <time>2025-09-27T12:01:43.000Z</time>
      </trkpt>
      <trkpt lat="42.8113" lon="1.37085">
        <ele>1336</ele>
        <time>2025-09-27T12:01:44.000Z</time>
      </trkpt>
      <trkpt lat="42.81134" lon="1.37085">
        <ele>1336</ele>
        <time>2025-09-27T12:01:45.000Z</time>
      </trkpt>
      <trkpt lat="42.81139" lon="1.37086">
        <ele>1337</ele>
        <time>2025-09-27T12:01:46.000Z</time>
      </trkpt>
      <trkpt lat="42.81144" lon="1.37087">
        <ele>1337</ele>
        <time>2025-09-27T12:01:47.000Z</time>
      </trkpt>
      <trkpt lat="42.81148" lon="1.37088">
        <ele>1338</ele>
        <time>2025-09-27T12:01:48.000Z</time>
      </trkpt>
      <trkpt lat="42.81151" lon="1.37088">
        <ele>1338</ele>
        <time>2025-09-27T12:01:49.000Z</time>
      </trkpt>
      <trkpt lat="42.81155" lon="1.37088">
        <ele>1338</ele>
        <time>2025-09-27T12:01:50.000Z</time>
      </trkpt>
      <trkpt lat="42.81159" lon="1.37088">
        <ele>1338</ele>
        <time>2025-09-27T12:01:51.000Z</time>
      </trkpt>
      <trkpt lat="42.81163" lon="1.37088">
        <ele>1339</ele>
        <time>2025-09-27T12:01:52.000Z</time>
      </trkpt>
      <trkpt lat="42.81167" lon="1.37088">
        <ele>1339</ele>
        <time>2025-09-27T12:01:53.000Z</time>
      </trkpt>
      <trkpt lat="42.81172" lon="1.3709">
        <ele>1339</ele>
        <time>2025-09-27T12:01:54.000Z</time>
      </trkpt>
      <trkpt lat="42.81174" lon="1.37092">
        <ele>1338</ele>
        <time>2025-09-27T12:01:55.000Z</time>
      </trkpt>
      <trkpt lat="42.81175" lon="1.37093">
        <ele>1339</ele>
        <time>2025-09-27T12:01:56.000Z</time>
      </trkpt>
      <trkpt lat="42.81176" lon="1.37093">
        <ele>1339</ele>
        <time>2025-09-27T12:01:57.000Z</time>
      </trkpt>
      <trkpt lat="42.81175" lon="1.37093">
        <ele>1340</ele>
        <time>2025-09-27T12:01:58.000Z</time>
      </trkpt>
      <trkpt lat="42.81175" lon="1.37093">
        <ele>1340</ele>
        <time>2025-09-27T12:01:59.000Z</time>
      </trkpt>
      <trkpt lat="42.81175" lon="1.37094">
        <ele>1340</ele>
        <time>2025-09-27T12:02:00.000Z</time>
      </trkpt>
      <trkpt lat="42.81175" lon="1.37095">
        <ele>1340</ele>
        <time>2025-09-27T12:02:01.000Z</time>
      </trkpt>
      <trkpt lat="42.81176" lon="1.37096">
        <ele>1340</ele>
        <time>2025-09-27T12:02:02.000Z</time>
      </trkpt>
      <trkpt lat="42.81178" lon="1.37097">
        <ele>1342</ele>
        <time>2025-09-27T12:02:17.000Z</time>
      </trkpt>
      <trkpt lat="42.81179" lon="1.37098">
        <ele>1342</ele>
        <time>2025-09-27T12:02:18.000Z</time>
      </trkpt>
      <trkpt lat="42.8118" lon="1.371">
        <ele>1342</ele>
        <time>2025-09-27T12:02:19.000Z</time>
      </trkpt>
      <trkpt lat="42.81182" lon="1.37101">
        <ele>1342</ele>
        <time>2025-09-27T12:02:20.000Z</time>
      </trkpt>
      <trkpt lat="42.81184" lon="1.37103">
        <ele>1342</ele>
        <time>2025-09-27T12:02:21.000Z</time>
      </trkpt>
      <trkpt lat="42.81186" lon="1.37105">
        <ele>1342</ele>
        <time>2025-09-27T12:02:22.000Z</time>
      </trkpt>
      <trkpt lat="42.81188" lon="1.37107">
        <ele>1342</ele>
        <time>2025-09-27T12:02:23.000Z</time>
      </trkpt>
      <trkpt lat="42.8119" lon="1.37109">
        <ele>1342</ele>
        <time>2025-09-27T12:02:24.000Z</time>
      </trkpt>
      <trkpt lat="42.81191" lon="1.37112">
        <ele>1342</ele>
        <time>2025-09-27T12:02:25.000Z</time>
      </trkpt>
      <trkpt lat="42.81192" lon="1.37115">
        <ele>1342</ele>
        <time>2025-09-27T12:02:26.000Z</time>
      </trkpt>
      <trkpt lat="42.81193" lon="1.37118">
        <ele>1342</ele>
        <time>2025-09-27T12:02:27.000Z</time>
      </trkpt>
      <trkpt lat="42.81194" lon="1.3712">
        <ele>1343</ele>
        <time>2025-09-27T12:02:28.000Z</time>
      </trkpt>
      <trkpt lat="42.81196" lon="1.37122">
        <ele>1343</ele>
        <time>2025-09-27T12:02:29.000Z</time>
      </trkpt>
      <trkpt lat="42.81198" lon="1.37124">
        <ele>1343</ele>
        <time>2025-09-27T12:02:30.000Z</time>
      </trkpt>
      <trkpt lat="42.812" lon="1.37127">
        <ele>1343</ele>
        <time>2025-09-27T12:02:31.000Z</time>
      </trkpt>
      <trkpt lat="42.81203" lon="1.37129">
        <ele>1343</ele>
        <time>2025-09-27T12:02:32.000Z</time>
      </trkpt>
      <trkpt lat="42.81205" lon="1.37132">
        <ele>1343</ele>
        <time>2025-09-27T12:02:33.000Z</time>
      </trkpt>
      <trkpt lat="42.81207" lon="1.37134">
        <ele>1343</ele>
        <time>2025-09-27T12:02:34.000Z</time>
      </trkpt>
      <trkpt lat="42.8121" lon="1.37138">
        <ele>1342</ele>
        <time>2025-09-27T12:02:35.000Z</time>
      </trkpt>
      <trkpt lat="42.81212" lon="1.37141">
        <ele>1342</ele>
        <time>2025-09-27T12:02:36.000Z</time>
      </trkpt>
      <trkpt lat="42.81214" lon="1.37144">
        <ele>1342</ele>
        <time>2025-09-27T12:02:37.000Z</time>
      </trkpt>
      <trkpt lat="42.81216" lon="1.37148">
        <ele>1342</ele>
        <time>2025-09-27T12:02:38.000Z</time>
      </trkpt>
      <trkpt lat="42.81218" lon="1.37151">
        <ele>1342</ele>
        <time>2025-09-27T12:02:39.000Z</time>
      </trkpt>
      <trkpt lat="42.81219" lon="1.37154">
        <ele>1342</ele>
        <time>2025-09-27T12:02:40.000Z</time>
      </trkpt>
      <trkpt lat="42.81221" lon="1.37157">
        <ele>1342</ele>
        <time>2025-09-27T12:02:41.000Z</time>
      </trkpt>
      <trkpt lat="42.81223" lon="1.37159">
        <ele>1341</ele>
        <time>2025-09-27T12:02:42.000Z</time>
      </trkpt>
      <trkpt lat="42.81225" lon="1.37161">
        <ele>1341</ele>
        <time>2025-09-27T12:02:43.000Z</time>
      </trkpt>
      <trkpt lat="42.81227" lon="1.37163">
        <ele>1341</ele>
        <time>2025-09-27T12:02:44.000Z</time>
      </trkpt>
      <trkpt lat="42.8123" lon="1.37164">
        <ele>1341</ele>
        <time>2025-09-27T12:02:45.000Z</time>
      </trkpt>
      <trkpt lat="42.81232" lon="1.37165">
        <ele>1341</ele>
        <time>2025-09-27T12:02:46.000Z</time>
      </trkpt>
      <trkpt lat="42.81234" lon="1.37166">
        <ele>1341</ele>
        <time>2025-09-27T12:02:47.000Z</time>
      </trkpt>
      <trkpt lat="42.81237" lon="1.37165">
        <ele>1341</ele>
        <time>2025-09-27T12:02:48.000Z</time>
      </trkpt>
      <trkpt lat="42.8124" lon="1.37164">
        <ele>1341</ele>
        <time>2025-09-27T12:02:49.000Z</time>
      </trkpt>
      <trkpt lat="42.81243" lon="1.37163">
        <ele>1340</ele>
        <time>2025-09-27T12:02:50.000Z</time>
      </trkpt>
      <trkpt lat="42.81246" lon="1.37162">
        <ele>1340</ele>
        <time>2025-09-27T12:02:51.000Z</time>
      </trkpt>
      <trkpt lat="42.81248" lon="1.3716">
        <ele>1339</ele>
        <time>2025-09-27T12:02:52.000Z</time>
      </trkpt>
      <trkpt lat="42.81252" lon="1.37158">
        <ele>1338</ele>
        <time>2025-09-27T12:02:53.000Z</time>
      </trkpt>
      <trkpt lat="42.81255" lon="1.37157">
        <ele>1338</ele>
        <time>2025-09-27T12:02:54.000Z</time>
      </trkpt>
      <trkpt lat="42.81258" lon="1.37155">
        <ele>1338</ele>
        <time>2025-09-27T12:02:55.000Z</time>
      </trkpt>
      <trkpt lat="42.8126" lon="1.37152">
        <ele>1338</ele>
        <time>2025-09-27T12:02:56.000Z</time>
      </trkpt>
      <trkpt lat="42.81263" lon="1.3715">
        <ele>1339</ele>
        <time>2025-09-27T12:02:57.000Z</time>
      </trkpt>
      <trkpt lat="42.81265" lon="1.37147">
        <ele>1339</ele>
        <time>2025-09-27T12:02:58.000Z</time>
      </trkpt>
      <trkpt lat="42.81267" lon="1.37146">
        <ele>1339</ele>
        <time>2025-09-27T12:02:59.000Z</time>
      </trkpt>
      <trkpt lat="42.8127" lon="1.37143">
        <ele>1339</ele>
        <time>2025-09-27T12:03:00.000Z</time>
      </trkpt>
      <trkpt lat="42.81273" lon="1.3714">
        <ele>1339</ele>
        <time>2025-09-27T12:03:01.000Z</time>
      </trkpt>
      <trkpt lat="42.81277" lon="1.37137">
        <ele>1339</ele>
        <time>2025-09-27T12:03:02.000Z</time>
      </trkpt>
      <trkpt lat="42.8128" lon="1.37134">
        <ele>1339</ele>
        <time>2025-09-27T12:03:03.000Z</time>
      </trkpt>
      <trkpt lat="42.81283" lon="1.37132">
        <ele>1339</ele>
        <time>2025-09-27T12:03:04.000Z</time>
      </trkpt>
      <trkpt lat="42.81286" lon="1.37129">
        <ele>1339</ele>
        <time>2025-09-27T12:03:05.000Z</time>
      </trkpt>
      <trkpt lat="42.81289" lon="1.37127">
        <ele>1339</ele>
        <time>2025-09-27T12:03:06.000Z</time>
      </trkpt>
      <trkpt lat="42.81293" lon="1.37126">
        <ele>1339</ele>
        <time>2025-09-27T12:03:07.000Z</time>
      </trkpt>
      <trkpt lat="42.81297" lon="1.37127">
        <ele>1340</ele>
        <time>2025-09-27T12:03:08.000Z</time>
      </trkpt>
      <trkpt lat="42.813" lon="1.37133">
        <ele>1340</ele>
        <time>2025-09-27T12:03:09.000Z</time>
      </trkpt>
      <trkpt lat="42.81301" lon="1.37139">
        <ele>1341</ele>
        <time>2025-09-27T12:03:10.000Z</time>
      </trkpt>
      <trkpt lat="42.81301" lon="1.37144">
        <ele>1341</ele>
        <time>2025-09-27T12:03:11.000Z</time>
      </trkpt>
      <trkpt lat="42.81301" lon="1.37149">
        <ele>1341</ele>
        <time>2025-09-27T12:03:12.000Z</time>
      </trkpt>
      <trkpt lat="42.81302" lon="1.37156">
        <ele>1341</ele>
        <time>2025-09-27T12:03:13.000Z</time>
      </trkpt>
      <trkpt lat="42.81303" lon="1.37162">
        <ele>1341</ele>
        <time>2025-09-27T12:03:14.000Z</time>
      </trkpt>
      <trkpt lat="42.81303" lon="1.37168">
        <ele>1342</ele>
        <time>2025-09-27T12:03:15.000Z</time>
      </trkpt>
      <trkpt lat="42.81304" lon="1.37174">
        <ele>1343</ele>
        <time>2025-09-27T12:03:16.000Z</time>
      </trkpt>
      <trkpt lat="42.81305" lon="1.3718">
        <ele>1344</ele>
        <time>2025-09-27T12:03:17.000Z</time>
      </trkpt>
      <trkpt lat="42.81306" lon="1.37185">
        <ele>1344</ele>
        <time>2025-09-27T12:03:18.000Z</time>
      </trkpt>
      <trkpt lat="42.81307" lon="1.37192">
        <ele>1344</ele>
        <time>2025-09-27T12:03:19.000Z</time>
      </trkpt>
      <trkpt lat="42.81307" lon="1.37198">
        <ele>1344</ele>
        <time>2025-09-27T12:03:20.000Z</time>
      </trkpt>
      <trkpt lat="42.81308" lon="1.37204">
        <ele>1344</ele>
        <time>2025-09-27T12:03:21.000Z</time>
      </trkpt>
      <trkpt lat="42.8131" lon="1.37211">
        <ele>1345</ele>
        <time>2025-09-27T12:03:22.000Z</time>
      </trkpt>
      <trkpt lat="42.81312" lon="1.37218">
        <ele>1345</ele>
        <time>2025-09-27T12:03:23.000Z</time>
      </trkpt>
      <trkpt lat="42.81314" lon="1.37224">
        <ele>1344</ele>
        <time>2025-09-27T12:03:24.000Z</time>
      </trkpt>
      <trkpt lat="42.81317" lon="1.3723">
        <ele>1344</ele>
        <time>2025-09-27T12:03:25.000Z</time>
      </trkpt>
      <trkpt lat="42.81319" lon="1.37236">
        <ele>1344</ele>
        <time>2025-09-27T12:03:26.000Z</time>
      </trkpt>
      <trkpt lat="42.81322" lon="1.37242">
        <ele>1344</ele>
        <time>2025-09-27T12:03:27.000Z</time>
      </trkpt>
      <trkpt lat="42.81325" lon="1.37247">
        <ele>1345</ele>
        <time>2025-09-27T12:03:28.000Z</time>
      </trkpt>
      <trkpt lat="42.81329" lon="1.37254">
        <ele>1345</ele>
        <time>2025-09-27T12:03:29.000Z</time>
      </trkpt>
      <trkpt lat="42.81332" lon="1.37259">
        <ele>1345</ele>
        <time>2025-09-27T12:03:30.000Z</time>
      </trkpt>
      <trkpt lat="42.81335" lon="1.37265">
        <ele>1345</ele>
        <time>2025-09-27T12:03:31.000Z</time>
      </trkpt>
      <trkpt lat="42.81339" lon="1.3727">
        <ele>1345</ele>
        <time>2025-09-27T12:03:32.000Z</time>
      </trkpt>
      <trkpt lat="42.81343" lon="1.37276">
        <ele>1345</ele>
        <time>2025-09-27T12:03:33.000Z</time>
      </trkpt>
      <trkpt lat="42.81346" lon="1.37281">
        <ele>1345</ele>
        <time>2025-09-27T12:03:34.000Z</time>
      </trkpt>
      <trkpt lat="42.8135" lon="1.37286">
        <ele>1345</ele>
        <time>2025-09-27T12:03:35.000Z</time>
      </trkpt>
      <trkpt lat="42.81353" lon="1.37292">
        <ele>1345</ele>
        <time>2025-09-27T12:03:36.000Z</time>
      </trkpt>
      <trkpt lat="42.81355" lon="1.37298">
        <ele>1345</ele>
        <time>2025-09-27T12:03:37.000Z</time>
      </trkpt>
      <trkpt lat="42.81358" lon="1.37304">
        <ele>1345</ele>
        <time>2025-09-27T12:03:38.000Z</time>
      </trkpt>
      <trkpt lat="42.81361" lon="1.3731">
        <ele>1345</ele>
        <time>2025-09-27T12:03:39.000Z</time>
      </trkpt>
      <trkpt lat="42.81363" lon="1.37316">
        <ele>1346</ele>
        <time>2025-09-27T12:03:40.000Z</time>
      </trkpt>
      <trkpt lat="42.81365" lon="1.37322">
        <ele>1346</ele>
        <time>2025-09-27T12:03:41.000Z</time>
      </trkpt>
      <trkpt lat="42.81368" lon="1.37329">
        <ele>1345</ele>
        <time>2025-09-27T12:03:42.000Z</time>
      </trkpt>
      <trkpt lat="42.8137" lon="1.37335">
        <ele>1346</ele>
        <time>2025-09-27T12:03:43.000Z</time>
      </trkpt>
      <trkpt lat="42.81373" lon="1.37341">
        <ele>1346</ele>
        <time>2025-09-27T12:03:44.000Z</time>
      </trkpt>
      <trkpt lat="42.81375" lon="1.37347">
        <ele>1347</ele>
        <time>2025-09-27T12:03:45.000Z</time>
      </trkpt>
      <trkpt lat="42.81377" lon="1.37354">
        <ele>1346</ele>
        <time>2025-09-27T12:03:46.000Z</time>
      </trkpt>
      <trkpt lat="42.8138" lon="1.37359">
        <ele>1346</ele>
        <time>2025-09-27T12:03:47.000Z</time>
      </trkpt>
      <trkpt lat="42.81383" lon="1.37364">
        <ele>1347</ele>
        <time>2025-09-27T12:03:48.000Z</time>
      </trkpt>
      <trkpt lat="42.81386" lon="1.37371">
        <ele>1347</ele>
        <time>2025-09-27T12:03:49.000Z</time>
      </trkpt>
      <trkpt lat="42.81389" lon="1.37375">
        <ele>1347</ele>
        <time>2025-09-27T12:03:50.000Z</time>
      </trkpt>
      <trkpt lat="42.81392" lon="1.37381">
        <ele>1348</ele>
        <time>2025-09-27T12:03:51.000Z</time>
      </trkpt>
      <trkpt lat="42.81395" lon="1.37386">
        <ele>1348</ele>
        <time>2025-09-27T12:03:52.000Z</time>
      </trkpt>
      <trkpt lat="42.81398" lon="1.3739">
        <ele>1348</ele>
        <time>2025-09-27T12:03:53.000Z</time>
      </trkpt>
      <trkpt lat="42.81402" lon="1.37394">
        <ele>1348</ele>
        <time>2025-09-27T12:03:54.000Z</time>
      </trkpt>
      <trkpt lat="42.81406" lon="1.37398">
        <ele>1349</ele>
        <time>2025-09-27T12:03:55.000Z</time>
      </trkpt>
      <trkpt lat="42.8141" lon="1.37402">
        <ele>1348</ele>
        <time>2025-09-27T12:03:56.000Z</time>
      </trkpt>
      <trkpt lat="42.81415" lon="1.37406">
        <ele>1348</ele>
        <time>2025-09-27T12:03:57.000Z</time>
      </trkpt>
      <trkpt lat="42.81419" lon="1.37409">
        <ele>1349</ele>
        <time>2025-09-27T12:03:58.000Z</time>
      </trkpt>
      <trkpt lat="42.81423" lon="1.37413">
        <ele>1349</ele>
        <time>2025-09-27T12:03:59.000Z</time>
      </trkpt>
      <trkpt lat="42.81426" lon="1.37418">
        <ele>1350</ele>
        <time>2025-09-27T12:04:00.000Z</time>
      </trkpt>
      <trkpt lat="42.81429" lon="1.37421">
        <ele>1350</ele>
        <time>2025-09-27T12:04:01.000Z</time>
      </trkpt>
      <trkpt lat="42.81431" lon="1.37423">
        <ele>1350</ele>
        <time>2025-09-27T12:04:02.000Z</time>
      </trkpt>
      <trkpt lat="42.81433" lon="1.37425">
        <ele>1350</ele>
        <time>2025-09-27T12:04:03.000Z</time>
      </trkpt>
      <trkpt lat="42.81435" lon="1.37427">
        <ele>1350</ele>
        <time>2025-09-27T12:04:04.000Z</time>
      </trkpt>
      <trkpt lat="42.81435" lon="1.37426">
        <ele>1350</ele>
        <time>2025-09-27T12:04:05.000Z</time>
      </trkpt>
      <trkpt lat="42.81434" lon="1.37426">
        <ele>1349</ele>
        <time>2025-09-27T12:04:06.000Z</time>
      </trkpt>
      <trkpt lat="42.81434" lon="1.37426">
        <ele>1349</ele>
        <time>2025-09-27T12:04:07.000Z</time>
      </trkpt>
      <trkpt lat="42.81433" lon="1.3743">
        <ele>1351</ele>
        <time>2025-09-27T12:04:22.000Z</time>
      </trkpt>
      <trkpt lat="42.81434" lon="1.37431">
        <ele>1351</ele>
        <time>2025-09-27T12:04:23.000Z</time>
      </trkpt>
      <trkpt lat="42.81434" lon="1.37432">
        <ele>1351</ele>
        <time>2025-09-27T12:04:24.000Z</time>
      </trkpt>
      <trkpt lat="42.81436" lon="1.37435">
        <ele>1352</ele>
        <time>2025-09-27T12:05:45.000Z</time>
      </trkpt>
      <trkpt lat="42.81438" lon="1.37436">
        <ele>1351</ele>
        <time>2025-09-27T12:05:46.000Z</time>
      </trkpt>
      <trkpt lat="42.8144" lon="1.37436">
        <ele>1351</ele>
        <time>2025-09-27T12:05:47.000Z</time>
      </trkpt>
      <trkpt lat="42.81442" lon="1.37436">
        <ele>1352</ele>
        <time>2025-09-27T12:05:48.000Z</time>
      </trkpt>
      <trkpt lat="42.81445" lon="1.37437">
        <ele>1351</ele>
        <time>2025-09-27T12:05:49.000Z</time>
      </trkpt>
      <trkpt lat="42.81447" lon="1.37437">
        <ele>1351</ele>
        <time>2025-09-27T12:05:50.000Z</time>
      </trkpt>
      <trkpt lat="42.8145" lon="1.37438">
        <ele>1351</ele>
        <time>2025-09-27T12:05:51.000Z</time>
      </trkpt>
      <trkpt lat="42.81453" lon="1.37439">
        <ele>1352</ele>
        <time>2025-09-27T12:05:52.000Z</time>
      </trkpt>
      <trkpt lat="42.81456" lon="1.37439">
        <ele>1352</ele>
        <time>2025-09-27T12:05:53.000Z</time>
      </trkpt>
      <trkpt lat="42.81459" lon="1.3744">
        <ele>1352</ele>
        <time>2025-09-27T12:05:54.000Z</time>
      </trkpt>
      <trkpt lat="42.81462" lon="1.37441">
        <ele>1352</ele>
        <time>2025-09-27T12:05:55.000Z</time>
      </trkpt>
      <trkpt lat="42.81465" lon="1.37443">
        <ele>1352</ele>
        <time>2025-09-27T12:05:56.000Z</time>
      </trkpt>
      <trkpt lat="42.81468" lon="1.37444">
        <ele>1352</ele>
        <time>2025-09-27T12:05:57.000Z</time>
      </trkpt>
      <trkpt lat="42.81471" lon="1.37445">
        <ele>1352</ele>
        <time>2025-09-27T12:05:58.000Z</time>
      </trkpt>
      <trkpt lat="42.81475" lon="1.37446">
        <ele>1352</ele>
        <time>2025-09-27T12:05:59.000Z</time>
      </trkpt>
      <trkpt lat="42.81478" lon="1.37446">
        <ele>1352</ele>
        <time>2025-09-27T12:06:00.000Z</time>
      </trkpt>
      <trkpt lat="42.81481" lon="1.37446">
        <ele>1353</ele>
        <time>2025-09-27T12:06:01.000Z</time>
      </trkpt>
      <trkpt lat="42.81485" lon="1.37445">
        <ele>1353</ele>
        <time>2025-09-27T12:06:02.000Z</time>
      </trkpt>
      <trkpt lat="42.81489" lon="1.37445">
        <ele>1354</ele>
        <time>2025-09-27T12:06:03.000Z</time>
      </trkpt>
      <trkpt lat="42.81492" lon="1.37444">
        <ele>1354</ele>
        <time>2025-09-27T12:06:04.000Z</time>
      </trkpt>
      <trkpt lat="42.81495" lon="1.37443">
        <ele>1355</ele>
        <time>2025-09-27T12:06:05.000Z</time>
      </trkpt>
      <trkpt lat="42.81498" lon="1.37441">
        <ele>1354</ele>
        <time>2025-09-27T12:06:06.000Z</time>
      </trkpt>
      <trkpt lat="42.815" lon="1.3744">
        <ele>1354</ele>
        <time>2025-09-27T12:06:07.000Z</time>
      </trkpt>
      <trkpt lat="42.81502" lon="1.37439">
        <ele>1354</ele>
        <time>2025-09-27T12:06:08.000Z</time>
      </trkpt>
      <trkpt lat="42.81505" lon="1.37438">
        <ele>1355</ele>
        <time>2025-09-27T12:06:09.000Z</time>
      </trkpt>
      <trkpt lat="42.81508" lon="1.37436">
        <ele>1355</ele>
        <time>2025-09-27T12:06:10.000Z</time>
      </trkpt>
      <trkpt lat="42.81511" lon="1.37436">
        <ele>1356</ele>
        <time>2025-09-27T12:06:11.000Z</time>
      </trkpt>
      <trkpt lat="42.81513" lon="1.37436">
        <ele>1356</ele>
        <time>2025-09-27T12:06:12.000Z</time>
      </trkpt>
      <trkpt lat="42.81516" lon="1.37437">
        <ele>1357</ele>
        <time>2025-09-27T12:06:13.000Z</time>
      </trkpt>
      <trkpt lat="42.81518" lon="1.37438">
        <ele>1357</ele>
        <time>2025-09-27T12:06:14.000Z</time>
      </trkpt>
      <trkpt lat="42.81521" lon="1.37439">
        <ele>1356</ele>
        <time>2025-09-27T12:06:15.000Z</time>
      </trkpt>
      <trkpt lat="42.81522" lon="1.3744">
        <ele>1356</ele>
        <time>2025-09-27T12:06:16.000Z</time>
      </trkpt>
      <trkpt lat="42.81524" lon="1.37441">
        <ele>1356</ele>
        <time>2025-09-27T12:06:17.000Z</time>
      </trkpt>
      <trkpt lat="42.81526" lon="1.37442">
        <ele>1357</ele>
        <time>2025-09-27T12:06:18.000Z</time>
      </trkpt>
      <trkpt lat="42.81529" lon="1.37441">
        <ele>1357</ele>
        <time>2025-09-27T12:06:19.000Z</time>
      </trkpt>
      <trkpt lat="42.81531" lon="1.37441">
        <ele>1357</ele>
        <time>2025-09-27T12:06:20.000Z</time>
      </trkpt>
      <trkpt lat="42.81532" lon="1.37441">
        <ele>1357</ele>
        <time>2025-09-27T12:06:21.000Z</time>
      </trkpt>
      <trkpt lat="42.81535" lon="1.37442">
        <ele>1358</ele>
        <time>2025-09-27T12:06:22.000Z</time>
      </trkpt>
      <trkpt lat="42.81537" lon="1.37442">
        <ele>1358</ele>
        <time>2025-09-27T12:06:23.000Z</time>
      </trkpt>
      <trkpt lat="42.81539" lon="1.37443">
        <ele>1358</ele>
        <time>2025-09-27T12:06:24.000Z</time>
      </trkpt>
      <trkpt lat="42.81541" lon="1.37443">
        <ele>1358</ele>
        <time>2025-09-27T12:06:25.000Z</time>
      </trkpt>
      <trkpt lat="42.81544" lon="1.37443">
        <ele>1358</ele>
        <time>2025-09-27T12:06:26.000Z</time>
      </trkpt>
      <trkpt lat="42.81547" lon="1.37443">
        <ele>1358</ele>
        <time>2025-09-27T12:06:27.000Z</time>
      </trkpt>
      <trkpt lat="42.81551" lon="1.37443">
        <ele>1358</ele>
        <time>2025-09-27T12:06:28.000Z</time>
      </trkpt>
      <trkpt lat="42.81554" lon="1.37444">
        <ele>1358</ele>
        <time>2025-09-27T12:06:29.000Z</time>
      </trkpt>
      <trkpt lat="42.81557" lon="1.37444">
        <ele>1359</ele>
        <time>2025-09-27T12:06:30.000Z</time>
      </trkpt>
      <trkpt lat="42.8156" lon="1.37445">
        <ele>1360</ele>
        <time>2025-09-27T12:06:31.000Z</time>
      </trkpt>
      <trkpt lat="42.81563" lon="1.37444">
        <ele>1360</ele>
        <time>2025-09-27T12:06:32.000Z</time>
      </trkpt>
      <trkpt lat="42.81565" lon="1.37443">
        <ele>1360</ele>
        <time>2025-09-27T12:06:33.000Z</time>
      </trkpt>
      <trkpt lat="42.81568" lon="1.37443">
        <ele>1361</ele>
        <time>2025-09-27T12:06:34.000Z</time>
      </trkpt>
      <trkpt lat="42.81572" lon="1.37442">
        <ele>1361</ele>
        <time>2025-09-27T12:06:35.000Z</time>
      </trkpt>
      <trkpt lat="42.81574" lon="1.37441">
        <ele>1361</ele>
        <time>2025-09-27T12:06:36.000Z</time>
      </trkpt>
      <trkpt lat="42.81576" lon="1.37438">
        <ele>1361</ele>
        <time>2025-09-27T12:06:37.000Z</time>
      </trkpt>
      <trkpt lat="42.81578" lon="1.37437">
        <ele>1361</ele>
        <time>2025-09-27T12:06:38.000Z</time>
      </trkpt>
      <trkpt lat="42.81582" lon="1.37436">
        <ele>1362</ele>
        <time>2025-09-27T12:06:39.000Z</time>
      </trkpt>
      <trkpt lat="42.81585" lon="1.37434">
        <ele>1362</ele>
        <time>2025-09-27T12:06:40.000Z</time>
      </trkpt>
      <trkpt lat="42.81588" lon="1.37433">
        <ele>1362</ele>
        <time>2025-09-27T12:06:41.000Z</time>
      </trkpt>
      <trkpt lat="42.8159" lon="1.37432">
        <ele>1362</ele>
        <time>2025-09-27T12:06:42.000Z</time>
      </trkpt>
      <trkpt lat="42.81592" lon="1.37431">
        <ele>1363</ele>
        <time>2025-09-27T12:06:43.000Z</time>
      </trkpt>
      <trkpt lat="42.81596" lon="1.37429">
        <ele>1363</ele>
        <time>2025-09-27T12:06:44.000Z</time>
      </trkpt>
      <trkpt lat="42.81598" lon="1.37428">
        <ele>1364</ele>
        <time>2025-09-27T12:06:45.000Z</time>
      </trkpt>
      <trkpt lat="42.81601" lon="1.37427">
        <ele>1364</ele>
        <time>2025-09-27T12:06:46.000Z</time>
      </trkpt>
      <trkpt lat="42.81605" lon="1.37426">
        <ele>1364</ele>
        <time>2025-09-27T12:06:47.000Z</time>
      </trkpt>
      <trkpt lat="42.81609" lon="1.37424">
        <ele>1364</ele>
        <time>2025-09-27T12:06:48.000Z</time>
      </trkpt>
      <trkpt lat="42.81612" lon="1.37424">
        <ele>1365</ele>
        <time>2025-09-27T12:06:49.000Z</time>
      </trkpt>
      <trkpt lat="42.81615" lon="1.37424">
        <ele>1365</ele>
        <time>2025-09-27T12:06:50.000Z</time>
      </trkpt>
      <trkpt lat="42.81618" lon="1.37423">
        <ele>1366</ele>
        <time>2025-09-27T12:06:51.000Z</time>
      </trkpt>
      <trkpt lat="42.81621" lon="1.37422">
        <ele>1366</ele>
        <time>2025-09-27T12:06:52.000Z</time>
      </trkpt>
      <trkpt lat="42.81623" lon="1.3742">
        <ele>1367</ele>
        <time>2025-09-27T12:06:53.000Z</time>
      </trkpt>
      <trkpt lat="42.81625" lon="1.37418">
        <ele>1367</ele>
        <time>2025-09-27T12:06:54.000Z</time>
      </trkpt>
      <trkpt lat="42.81624" lon="1.37416">
        <ele>1368</ele>
        <time>2025-09-27T12:06:55.000Z</time>
      </trkpt>
      <trkpt lat="42.81623" lon="1.37413">
        <ele>1368</ele>
        <time>2025-09-27T12:06:56.000Z</time>
      </trkpt>
      <trkpt lat="42.81622" lon="1.3741">
        <ele>1369</ele>
        <time>2025-09-27T12:06:57.000Z</time>
      </trkpt>
      <trkpt lat="42.81621" lon="1.37406">
        <ele>1369</ele>
        <time>2025-09-27T12:06:58.000Z</time>
      </trkpt>
      <trkpt lat="42.8162" lon="1.37404">
        <ele>1370</ele>
        <time>2025-09-27T12:06:59.000Z</time>
      </trkpt>
      <trkpt lat="42.81618" lon="1.37401">
        <ele>1372</ele>
        <time>2025-09-27T12:07:00.000Z</time>
      </trkpt>
      <trkpt lat="42.81616" lon="1.37398">
        <ele>1372</ele>
        <time>2025-09-27T12:07:01.000Z</time>
      </trkpt>
      <trkpt lat="42.81614" lon="1.37396">
        <ele>1373</ele>
        <time>2025-09-27T12:07:02.000Z</time>
      </trkpt>
      <trkpt lat="42.81613" lon="1.37394">
        <ele>1374</ele>
        <time>2025-09-27T12:07:03.000Z</time>
      </trkpt>
      <trkpt lat="42.81611" lon="1.37392">
        <ele>1374</ele>
        <time>2025-09-27T12:07:04.000Z</time>
      </trkpt>
      <trkpt lat="42.81608" lon="1.37389">
        <ele>1374</ele>
        <time>2025-09-27T12:07:05.000Z</time>
      </trkpt>
      <trkpt lat="42.81606" lon="1.37387">
        <ele>1375</ele>
        <time>2025-09-27T12:07:06.000Z</time>
      </trkpt>
      <trkpt lat="42.81604" lon="1.37386">
        <ele>1376</ele>
        <time>2025-09-27T12:07:07.000Z</time>
      </trkpt>
      <trkpt lat="42.81603" lon="1.37384">
        <ele>1376</ele>
        <time>2025-09-27T12:07:08.000Z</time>
      </trkpt>
      <trkpt lat="42.816" lon="1.37382">
        <ele>1376</ele>
        <time>2025-09-27T12:07:09.000Z</time>
      </trkpt>
      <trkpt lat="42.81598" lon="1.3738">
        <ele>1376</ele>
        <time>2025-09-27T12:07:10.000Z</time>
      </trkpt>
      <trkpt lat="42.81596" lon="1.37378">
        <ele>1377</ele>
        <time>2025-09-27T12:07:11.000Z</time>
      </trkpt>
      <trkpt lat="42.81594" lon="1.37377">
        <ele>1377</ele>
        <time>2025-09-27T12:07:12.000Z</time>
      </trkpt>
      <trkpt lat="42.81592" lon="1.37374">
        <ele>1378</ele>
        <time>2025-09-27T12:07:13.000Z</time>
      </trkpt>
      <trkpt lat="42.8159" lon="1.37373">
        <ele>1378</ele>
        <time>2025-09-27T12:07:14.000Z</time>
      </trkpt>
      <trkpt lat="42.81588" lon="1.37371">
        <ele>1379</ele>
        <time>2025-09-27T12:07:15.000Z</time>
      </trkpt>
      <trkpt lat="42.81586" lon="1.37369">
        <ele>1379</ele>
        <time>2025-09-27T12:07:16.000Z</time>
      </trkpt>
      <trkpt lat="42.81585" lon="1.37367">
        <ele>1380</ele>
        <time>2025-09-27T12:07:17.000Z</time>
      </trkpt>
      <trkpt lat="42.81584" lon="1.37365">
        <ele>1380</ele>
        <time>2025-09-27T12:07:18.000Z</time>
      </trkpt>
      <trkpt lat="42.81583" lon="1.37362">
        <ele>1381</ele>
        <time>2025-09-27T12:07:19.000Z</time>
      </trkpt>
      <trkpt lat="42.81583" lon="1.37359">
        <ele>1381</ele>
        <time>2025-09-27T12:07:20.000Z</time>
      </trkpt>
      <trkpt lat="42.81582" lon="1.37357">
        <ele>1381</ele>
        <time>2025-09-27T12:07:21.000Z</time>
      </trkpt>
      <trkpt lat="42.8158" lon="1.37354">
        <ele>1381</ele>
        <time>2025-09-27T12:07:22.000Z</time>
      </trkpt>
      <trkpt lat="42.81579" lon="1.3735">
        <ele>1382</ele>
        <time>2025-09-27T12:07:23.000Z</time>
      </trkpt>
      <trkpt lat="42.81577" lon="1.37348">
        <ele>1383</ele>
        <time>2025-09-27T12:07:24.000Z</time>
      </trkpt>
      <trkpt lat="42.81576" lon="1.37345">
        <ele>1384</ele>
        <time>2025-09-27T12:07:25.000Z</time>
      </trkpt>
      <trkpt lat="42.81575" lon="1.37342">
        <ele>1384</ele>
        <time>2025-09-27T12:07:26.000Z</time>
      </trkpt>
      <trkpt lat="42.81573" lon="1.3734">
        <ele>1384</ele>
        <time>2025-09-27T12:07:27.000Z</time>
      </trkpt>
      <trkpt lat="42.81571" lon="1.37337">
        <ele>1385</ele>
        <time>2025-09-27T12:07:28.000Z</time>
      </trkpt>
      <trkpt lat="42.81569" lon="1.37335">
        <ele>1385</ele>
        <time>2025-09-27T12:07:29.000Z</time>
      </trkpt>
      <trkpt lat="42.81568" lon="1.37333">
        <ele>1386</ele>
        <time>2025-09-27T12:07:30.000Z</time>
      </trkpt>
      <trkpt lat="42.81566" lon="1.37331">
        <ele>1386</ele>
        <time>2025-09-27T12:07:31.000Z</time>
      </trkpt>
      <trkpt lat="42.81564" lon="1.37328">
        <ele>1387</ele>
        <time>2025-09-27T12:07:32.000Z</time>
      </trkpt>
      <trkpt lat="42.81562" lon="1.37326">
        <ele>1387</ele>
        <time>2025-09-27T12:07:33.000Z</time>
      </trkpt>
      <trkpt lat="42.8156" lon="1.37324">
        <ele>1387</ele>
        <time>2025-09-27T12:07:34.000Z</time>
      </trkpt>
      <trkpt lat="42.81558" lon="1.37322">
        <ele>1387</ele>
        <time>2025-09-27T12:07:35.000Z</time>
      </trkpt>
      <trkpt lat="42.81556" lon="1.37321">
        <ele>1387</ele>
        <time>2025-09-27T12:07:36.000Z</time>
      </trkpt>
      <trkpt lat="42.81554" lon="1.37319">
        <ele>1387</ele>
        <time>2025-09-27T12:07:37.000Z</time>
      </trkpt>
      <trkpt lat="42.81552" lon="1.37317">
        <ele>1388</ele>
        <time>2025-09-27T12:07:38.000Z</time>
      </trkpt>
      <trkpt lat="42.8155" lon="1.37315">
        <ele>1388</ele>
        <time>2025-09-27T12:07:39.000Z</time>
      </trkpt>
      <trkpt lat="42.81548" lon="1.37313">
        <ele>1388</ele>
        <time>2025-09-27T12:07:40.000Z</time>
      </trkpt>
      <trkpt lat="42.81545" lon="1.37312">
        <ele>1389</ele>
        <time>2025-09-27T12:07:41.000Z</time>
      </trkpt>
      <trkpt lat="42.81543" lon="1.37311">
        <ele>1390</ele>
        <time>2025-09-27T12:07:42.000Z</time>
      </trkpt>
      <trkpt lat="42.81541" lon="1.3731">
        <ele>1390</ele>
        <time>2025-09-27T12:07:43.000Z</time>
      </trkpt>
      <trkpt lat="42.81538" lon="1.37309">
        <ele>1390</ele>
        <time>2025-09-27T12:07:44.000Z</time>
      </trkpt>
      <trkpt lat="42.81536" lon="1.37308">
        <ele>1391</ele>
        <time>2025-09-27T12:07:45.000Z</time>
      </trkpt>
      <trkpt lat="42.81532" lon="1.37309">
        <ele>1392</ele>
        <time>2025-09-27T12:07:46.000Z</time>
      </trkpt>
      <trkpt lat="42.81529" lon="1.3731">
        <ele>1392</ele>
        <time>2025-09-27T12:07:47.000Z</time>
      </trkpt>
      <trkpt lat="42.81527" lon="1.37311">
        <ele>1392</ele>
        <time>2025-09-27T12:07:48.000Z</time>
      </trkpt>
      <trkpt lat="42.81526" lon="1.37312">
        <ele>1392</ele>
        <time>2025-09-27T12:07:49.000Z</time>
      </trkpt>
      <trkpt lat="42.81525" lon="1.37313">
        <ele>1391</ele>
        <time>2025-09-27T12:07:50.000Z</time>
      </trkpt>
      <trkpt lat="42.81524" lon="1.37314">
        <ele>1391</ele>
        <time>2025-09-27T12:07:51.000Z</time>
      </trkpt>
      <trkpt lat="42.81522" lon="1.37315">
        <ele>1391</ele>
        <time>2025-09-27T12:07:52.000Z</time>
      </trkpt>
      <trkpt lat="42.81521" lon="1.37318">
        <ele>1391</ele>
        <time>2025-09-27T12:07:53.000Z</time>
      </trkpt>
      <trkpt lat="42.81519" lon="1.3732">
        <ele>1391</ele>
        <time>2025-09-27T12:07:54.000Z</time>
      </trkpt>
      <trkpt lat="42.81516" lon="1.37322">
        <ele>1391</ele>
        <time>2025-09-27T12:07:55.000Z</time>
      </trkpt>
      <trkpt lat="42.81514" lon="1.37324">
        <ele>1391</ele>
        <time>2025-09-27T12:07:56.000Z</time>
      </trkpt>
      <trkpt lat="42.81512" lon="1.37324">
        <ele>1391</ele>
        <time>2025-09-27T12:07:57.000Z</time>
      </trkpt>
      <trkpt lat="42.81511" lon="1.37322">
        <ele>1391</ele>
        <time>2025-09-27T12:07:58.000Z</time>
      </trkpt>
      <trkpt lat="42.81511" lon="1.3732">
        <ele>1391</ele>
        <time>2025-09-27T12:07:59.000Z</time>
      </trkpt>
      <trkpt lat="42.8151" lon="1.37318">
        <ele>1391</ele>
        <time>2025-09-27T12:08:00.000Z</time>
      </trkpt>
      <trkpt lat="42.8151" lon="1.37317">
        <ele>1392</ele>
        <time>2025-09-27T12:08:01.000Z</time>
      </trkpt>
      <trkpt lat="42.8151" lon="1.37315">
        <ele>1392</ele>
        <time>2025-09-27T12:08:02.000Z</time>
      </trkpt>
      <trkpt lat="42.81511" lon="1.37313">
        <ele>1393</ele>
        <time>2025-09-27T12:08:03.000Z</time>
      </trkpt>
      <trkpt lat="42.81511" lon="1.37311">
        <ele>1393</ele>
        <time>2025-09-27T12:08:04.000Z</time>
      </trkpt>
      <trkpt lat="42.81512" lon="1.37308">
        <ele>1392</ele>
        <time>2025-09-27T12:08:05.000Z</time>
      </trkpt>
      <trkpt lat="42.81513" lon="1.37305">
        <ele>1392</ele>
        <time>2025-09-27T12:08:06.000Z</time>
      </trkpt>
      <trkpt lat="42.81513" lon="1.37302">
        <ele>1392</ele>
        <time>2025-09-27T12:08:07.000Z</time>
      </trkpt>
      <trkpt lat="42.81513" lon="1.373">
        <ele>1392</ele>
        <time>2025-09-27T12:08:08.000Z</time>
      </trkpt>
      <trkpt lat="42.81514" lon="1.37298">
        <ele>1392</ele>
        <time>2025-09-27T12:08:09.000Z</time>
      </trkpt>
      <trkpt lat="42.81514" lon="1.37297">
        <ele>1392</ele>
        <time>2025-09-27T12:08:10.000Z</time>
      </trkpt>
      <trkpt lat="42.81516" lon="1.37295">
        <ele>1391</ele>
        <time>2025-09-27T12:08:11.000Z</time>
      </trkpt>
      <trkpt lat="42.81518" lon="1.37293">
        <ele>1391</ele>
        <time>2025-09-27T12:08:12.000Z</time>
      </trkpt>
      <trkpt lat="42.81519" lon="1.37291">
        <ele>1391</ele>
        <time>2025-09-27T12:08:13.000Z</time>
      </trkpt>
      <trkpt lat="42.8152" lon="1.37289">
        <ele>1391</ele>
        <time>2025-09-27T12:08:14.000Z</time>
      </trkpt>
      <trkpt lat="42.81521" lon="1.37288">
        <ele>1391</ele>
        <time>2025-09-27T12:08:15.000Z</time>
      </trkpt>
      <trkpt lat="42.81523" lon="1.37287">
        <ele>1392</ele>
        <time>2025-09-27T12:08:16.000Z</time>
      </trkpt>
      <trkpt lat="42.81527" lon="1.37286">
        <ele>1393</ele>
        <time>2025-09-27T12:08:17.000Z</time>
      </trkpt>
      <trkpt lat="42.8153" lon="1.37286">
        <ele>1393</ele>
        <time>2025-09-27T12:08:18.000Z</time>
      </trkpt>
      <trkpt lat="42.81534" lon="1.37286">
        <ele>1392</ele>
        <time>2025-09-27T12:08:19.000Z</time>
      </trkpt>
      <trkpt lat="42.81537" lon="1.37286">
        <ele>1392</ele>
        <time>2025-09-27T12:08:20.000Z</time>
      </trkpt>
      <trkpt lat="42.8154" lon="1.37285">
        <ele>1392</ele>
        <time>2025-09-27T12:08:21.000Z</time>
      </trkpt>
      <trkpt lat="42.81545" lon="1.37284">
        <ele>1393</ele>
        <time>2025-09-27T12:08:22.000Z</time>
      </trkpt>
      <trkpt lat="42.81549" lon="1.37283">
        <ele>1393</ele>
        <time>2025-09-27T12:08:23.000Z</time>
      </trkpt>
      <trkpt lat="42.81553" lon="1.37283">
        <ele>1393</ele>
        <time>2025-09-27T12:08:24.000Z</time>
      </trkpt>
      <trkpt lat="42.81556" lon="1.37283">
        <ele>1394</ele>
        <time>2025-09-27T12:08:25.000Z</time>
      </trkpt>
      <trkpt lat="42.8156" lon="1.37283">
        <ele>1394</ele>
        <time>2025-09-27T12:08:26.000Z</time>
      </trkpt>
      <trkpt lat="42.81564" lon="1.37282">
        <ele>1394</ele>
        <time>2025-09-27T12:08:27.000Z</time>
      </trkpt>
      <trkpt lat="42.81568" lon="1.37282">
        <ele>1395</ele>
        <time>2025-09-27T12:08:28.000Z</time>
      </trkpt>
      <trkpt lat="42.81571" lon="1.37282">
        <ele>1395</ele>
        <time>2025-09-27T12:08:29.000Z</time>
      </trkpt>
      <trkpt lat="42.81574" lon="1.37282">
        <ele>1395</ele>
        <time>2025-09-27T12:08:30.000Z</time>
      </trkpt>
      <trkpt lat="42.81576" lon="1.37283">
        <ele>1395</ele>
        <time>2025-09-27T12:08:31.000Z</time>
      </trkpt>
      <trkpt lat="42.81578" lon="1.37283">
        <ele>1396</ele>
        <time>2025-09-27T12:08:32.000Z</time>
      </trkpt>
      <trkpt lat="42.81581" lon="1.37284">
        <ele>1397</ele>
        <time>2025-09-27T12:08:33.000Z</time>
      </trkpt>
      <trkpt lat="42.81584" lon="1.37284">
        <ele>1397</ele>
        <time>2025-09-27T12:08:34.000Z</time>
      </trkpt>
      <trkpt lat="42.81588" lon="1.37284">
        <ele>1397</ele>
        <time>2025-09-27T12:08:35.000Z</time>
      </trkpt>
      <trkpt lat="42.8159" lon="1.37284">
        <ele>1398</ele>
        <time>2025-09-27T12:08:36.000Z</time>
      </trkpt>
      <trkpt lat="42.81593" lon="1.37284">
        <ele>1399</ele>
        <time>2025-09-27T12:08:37.000Z</time>
      </trkpt>
      <trkpt lat="42.81596" lon="1.37284">
        <ele>1399</ele>
        <time>2025-09-27T12:08:38.000Z</time>
      </trkpt>
      <trkpt lat="42.81598" lon="1.37285">
        <ele>1401</ele>
        <time>2025-09-27T12:08:39.000Z</time>
      </trkpt>
      <trkpt lat="42.81601" lon="1.37287">
        <ele>1401</ele>
        <time>2025-09-27T12:08:40.000Z</time>
      </trkpt>
      <trkpt lat="42.81605" lon="1.37288">
        <ele>1402</ele>
        <time>2025-09-27T12:08:41.000Z</time>
      </trkpt>
      <trkpt lat="42.81608" lon="1.37289">
        <ele>1402</ele>
        <time>2025-09-27T12:08:42.000Z</time>
      </trkpt>
      <trkpt lat="42.8161" lon="1.37291">
        <ele>1403</ele>
        <time>2025-09-27T12:08:43.000Z</time>
      </trkpt>
      <trkpt lat="42.81613" lon="1.37292">
        <ele>1403</ele>
        <time>2025-09-27T12:08:44.000Z</time>
      </trkpt>
      <trkpt lat="42.81616" lon="1.37292">
        <ele>1404</ele>
        <time>2025-09-27T12:08:45.000Z</time>
      </trkpt>
      <trkpt lat="42.81619" lon="1.37292">
        <ele>1405</ele>
        <time>2025-09-27T12:08:46.000Z</time>
      </trkpt>
      <trkpt lat="42.81623" lon="1.37291">
        <ele>1405</ele>
        <time>2025-09-27T12:08:47.000Z</time>
      </trkpt>
      <trkpt lat="42.81624" lon="1.3729">
        <ele>1405</ele>
        <time>2025-09-27T12:08:48.000Z</time>
      </trkpt>
      <trkpt lat="42.81627" lon="1.37289">
        <ele>1406</ele>
        <time>2025-09-27T12:08:49.000Z</time>
      </trkpt>
      <trkpt lat="42.81629" lon="1.37288">
        <ele>1406</ele>
        <time>2025-09-27T12:08:50.000Z</time>
      </trkpt>
      <trkpt lat="42.81631" lon="1.37286">
        <ele>1407</ele>
        <time>2025-09-27T12:08:51.000Z</time>
      </trkpt>
      <trkpt lat="42.81634" lon="1.37285">
        <ele>1408</ele>
        <time>2025-09-27T12:08:52.000Z</time>
      </trkpt>
      <trkpt lat="42.81636" lon="1.37284">
        <ele>1408</ele>
        <time>2025-09-27T12:08:53.000Z</time>
      </trkpt>
      <trkpt lat="42.81638" lon="1.37282">
        <ele>1408</ele>
        <time>2025-09-27T12:08:54.000Z</time>
      </trkpt>
      <trkpt lat="42.8164" lon="1.3728">
        <ele>1407</ele>
        <time>2025-09-27T12:08:55.000Z</time>
      </trkpt>
      <trkpt lat="42.81642" lon="1.3728">
        <ele>1407</ele>
        <time>2025-09-27T12:08:56.000Z</time>
      </trkpt>
      <trkpt lat="42.81644" lon="1.37279">
        <ele>1406</ele>
        <time>2025-09-27T12:08:57.000Z</time>
      </trkpt>
      <trkpt lat="42.81645" lon="1.37278">
        <ele>1406</ele>
        <time>2025-09-27T12:08:58.000Z</time>
      </trkpt>
      <trkpt lat="42.81647" lon="1.37278">
        <ele>1406</ele>
        <time>2025-09-27T12:08:59.000Z</time>
      </trkpt>
      <trkpt lat="42.8165" lon="1.37278">
        <ele>1406</ele>
        <time>2025-09-27T12:09:00.000Z</time>
      </trkpt>
      <trkpt lat="42.81653" lon="1.37279">
        <ele>1406</ele>
        <time>2025-09-27T12:09:01.000Z</time>
      </trkpt>
      <trkpt lat="42.81655" lon="1.3728">
        <ele>1406</ele>
        <time>2025-09-27T12:09:02.000Z</time>
      </trkpt>
      <trkpt lat="42.81658" lon="1.37281">
        <ele>1406</ele>
        <time>2025-09-27T12:09:03.000Z</time>
      </trkpt>
      <trkpt lat="42.8166" lon="1.37283">
        <ele>1407</ele>
        <time>2025-09-27T12:09:04.000Z</time>
      </trkpt>
      <trkpt lat="42.81662" lon="1.37284">
        <ele>1407</ele>
        <time>2025-09-27T12:09:05.000Z</time>
      </trkpt>
      <trkpt lat="42.81665" lon="1.37284">
        <ele>1408</ele>
        <time>2025-09-27T12:09:06.000Z</time>
      </trkpt>
      <trkpt lat="42.81667" lon="1.37286">
        <ele>1408</ele>
        <time>2025-09-27T12:09:07.000Z</time>
      </trkpt>
      <trkpt lat="42.81671" lon="1.37287">
        <ele>1408</ele>
        <time>2025-09-27T12:09:08.000Z</time>
      </trkpt>
      <trkpt lat="42.81673" lon="1.37287">
        <ele>1409</ele>
        <time>2025-09-27T12:09:09.000Z</time>
      </trkpt>
      <trkpt lat="42.81677" lon="1.37287">
        <ele>1410</ele>
        <time>2025-09-27T12:09:10.000Z</time>
      </trkpt>
      <trkpt lat="42.8168" lon="1.37286">
        <ele>1410</ele>
        <time>2025-09-27T12:09:11.000Z</time>
      </trkpt>
      <trkpt lat="42.81682" lon="1.37285">
        <ele>1410</ele>
        <time>2025-09-27T12:09:12.000Z</time>
      </trkpt>
      <trkpt lat="42.81685" lon="1.37283">
        <ele>1411</ele>
        <time>2025-09-27T12:09:13.000Z</time>
      </trkpt>
      <trkpt lat="42.81687" lon="1.37282">
        <ele>1411</ele>
        <time>2025-09-27T12:09:14.000Z</time>
      </trkpt>
      <trkpt lat="42.81688" lon="1.37279">
        <ele>1410</ele>
        <time>2025-09-27T12:09:15.000Z</time>
      </trkpt>
      <trkpt lat="42.81691" lon="1.37277">
        <ele>1411</ele>
        <time>2025-09-27T12:09:16.000Z</time>
      </trkpt>
      <trkpt lat="42.81692" lon="1.37274">
        <ele>1412</ele>
        <time>2025-09-27T12:09:17.000Z</time>
      </trkpt>
      <trkpt lat="42.81691" lon="1.37271">
        <ele>1412</ele>
        <time>2025-09-27T12:09:18.000Z</time>
      </trkpt>
      <trkpt lat="42.81691" lon="1.37267">
        <ele>1412</ele>
        <time>2025-09-27T12:09:19.000Z</time>
      </trkpt>
      <trkpt lat="42.81689" lon="1.37265">
        <ele>1413</ele>
        <time>2025-09-27T12:09:20.000Z</time>
      </trkpt>
      <trkpt lat="42.81688" lon="1.37264">
        <ele>1413</ele>
        <time>2025-09-27T12:09:21.000Z</time>
      </trkpt>
      <trkpt lat="42.81687" lon="1.37263">
        <ele>1413</ele>
        <time>2025-09-27T12:09:22.000Z</time>
      </trkpt>
      <trkpt lat="42.81685" lon="1.37262">
        <ele>1414</ele>
        <time>2025-09-27T12:09:23.000Z</time>
      </trkpt>
      <trkpt lat="42.81683" lon="1.37261">
        <ele>1414</ele>
        <time>2025-09-27T12:09:24.000Z</time>
      </trkpt>
      <trkpt lat="42.81681" lon="1.37259">
        <ele>1415</ele>
        <time>2025-09-27T12:09:25.000Z</time>
      </trkpt>
      <trkpt lat="42.8168" lon="1.37256">
        <ele>1416</ele>
        <time>2025-09-27T12:09:26.000Z</time>
      </trkpt>
      <trkpt lat="42.81678" lon="1.37255">
        <ele>1416</ele>
        <time>2025-09-27T12:09:27.000Z</time>
      </trkpt>
      <trkpt lat="42.81677" lon="1.37254">
        <ele>1416</ele>
        <time>2025-09-27T12:09:28.000Z</time>
      </trkpt>
      <trkpt lat="42.81675" lon="1.37253">
        <ele>1416</ele>
        <time>2025-09-27T12:09:29.000Z</time>
      </trkpt>
      <trkpt lat="42.81673" lon="1.37251">
        <ele>1416</ele>
        <time>2025-09-27T12:09:30.000Z</time>
      </trkpt>
      <trkpt lat="42.81672" lon="1.37248">
        <ele>1416</ele>
        <time>2025-09-27T12:09:31.000Z</time>
      </trkpt>
      <trkpt lat="42.8167" lon="1.37246">
        <ele>1416</ele>
        <time>2025-09-27T12:09:32.000Z</time>
      </trkpt>
      <trkpt lat="42.81668" lon="1.37244">
        <ele>1416</ele>
        <time>2025-09-27T12:09:33.000Z</time>
      </trkpt>
      <trkpt lat="42.81667" lon="1.37243">
        <ele>1417</ele>
        <time>2025-09-27T12:09:34.000Z</time>
      </trkpt>
      <trkpt lat="42.81667" lon="1.37244">
        <ele>1417</ele>
        <time>2025-09-27T12:09:35.000Z</time>
      </trkpt>
      <trkpt lat="42.81668" lon="1.37251">
        <ele>1419</ele>
        <time>2025-09-27T12:09:49.000Z</time>
      </trkpt>
      <trkpt lat="42.81669" lon="1.37251">
        <ele>1418</ele>
        <time>2025-09-27T12:09:50.000Z</time>
      </trkpt>
      <trkpt lat="42.8167" lon="1.37251">
        <ele>1417</ele>
        <time>2025-09-27T12:09:51.000Z</time>
      </trkpt>
      <trkpt lat="42.81671" lon="1.37251">
        <ele>1417</ele>
        <time>2025-09-27T12:09:52.000Z</time>
      </trkpt>
      <trkpt lat="42.81669" lon="1.37248">
        <ele>1415</ele>
        <time>2025-09-27T12:10:08.000Z</time>
      </trkpt>
      <trkpt lat="42.81668" lon="1.37247">
        <ele>1415</ele>
        <time>2025-09-27T12:10:09.000Z</time>
      </trkpt>
      <trkpt lat="42.81668" lon="1.37246">
        <ele>1415</ele>
        <time>2025-09-27T12:10:10.000Z</time>
      </trkpt>
      <trkpt lat="42.81668" lon="1.37246">
        <ele>1415</ele>
        <time>2025-09-27T12:10:11.000Z</time>
      </trkpt>
      <trkpt lat="42.81667" lon="1.37245">
        <ele>1415</ele>
        <time>2025-09-27T12:10:12.000Z</time>
      </trkpt>
      <trkpt lat="42.81666" lon="1.37243">
        <ele>1416</ele>
        <time>2025-09-27T12:10:32.000Z</time>
      </trkpt>
      <trkpt lat="42.81666" lon="1.37242">
        <ele>1416</ele>
        <time>2025-09-27T12:10:33.000Z</time>
      </trkpt>
      <trkpt lat="42.81665" lon="1.37241">
        <ele>1416</ele>
        <time>2025-09-27T12:10:34.000Z</time>
      </trkpt>
      <trkpt lat="42.81665" lon="1.37239">
        <ele>1416</ele>
        <time>2025-09-27T12:10:35.000Z</time>
      </trkpt>
      <trkpt lat="42.81664" lon="1.37237">
        <ele>1417</ele>
        <time>2025-09-27T12:10:36.000Z</time>
      </trkpt>
      <trkpt lat="42.81662" lon="1.37235">
        <ele>1417</ele>
        <time>2025-09-27T12:10:37.000Z</time>
      </trkpt>
      <trkpt lat="42.81661" lon="1.37234">
        <ele>1417</ele>
        <time>2025-09-27T12:10:38.000Z</time>
      </trkpt>
      <trkpt lat="42.8166" lon="1.37234">
        <ele>1418</ele>
        <time>2025-09-27T12:10:39.000Z</time>
      </trkpt>
      <trkpt lat="42.81659" lon="1.37232">
        <ele>1418</ele>
        <time>2025-09-27T12:10:40.000Z</time>
      </trkpt>
      <trkpt lat="42.81658" lon="1.37231">
        <ele>1418</ele>
        <time>2025-09-27T12:10:41.000Z</time>
      </trkpt>
      <trkpt lat="42.81657" lon="1.37229">
        <ele>1418</ele>
        <time>2025-09-27T12:10:42.000Z</time>
      </trkpt>
      <trkpt lat="42.81656" lon="1.37227">
        <ele>1418</ele>
        <time>2025-09-27T12:10:43.000Z</time>
      </trkpt>
      <trkpt lat="42.81655" lon="1.37224">
        <ele>1419</ele>
        <time>2025-09-27T12:10:44.000Z</time>
      </trkpt>
      <trkpt lat="42.81654" lon="1.37222">
        <ele>1419</ele>
        <time>2025-09-27T12:10:45.000Z</time>
      </trkpt>
      <trkpt lat="42.81654" lon="1.3722">
        <ele>1420</ele>
        <time>2025-09-27T12:10:46.000Z</time>
      </trkpt>
      <trkpt lat="42.81654" lon="1.37217">
        <ele>1420</ele>
        <time>2025-09-27T12:10:47.000Z</time>
      </trkpt>
      <trkpt lat="42.81655" lon="1.37214">
        <ele>1420</ele>
        <time>2025-09-27T12:10:48.000Z</time>
      </trkpt>
      <trkpt lat="42.81656" lon="1.37212">
        <ele>1420</ele>
        <time>2025-09-27T12:10:49.000Z</time>
      </trkpt>
      <trkpt lat="42.81656" lon="1.37211">
        <ele>1420</ele>
        <time>2025-09-27T12:10:50.000Z</time>
      </trkpt>
      <trkpt lat="42.81657" lon="1.37211">
        <ele>1420</ele>
        <time>2025-09-27T12:10:51.000Z</time>
      </trkpt>
      <trkpt lat="42.81659" lon="1.3721">
        <ele>1420</ele>
        <time>2025-09-27T12:10:52.000Z</time>
      </trkpt>
      <trkpt lat="42.8166" lon="1.37208">
        <ele>1420</ele>
        <time>2025-09-27T12:10:53.000Z</time>
      </trkpt>
      <trkpt lat="42.81662" lon="1.37207">
        <ele>1421</ele>
        <time>2025-09-27T12:10:54.000Z</time>
      </trkpt>
      <trkpt lat="42.81664" lon="1.37207">
        <ele>1421</ele>
        <time>2025-09-27T12:10:55.000Z</time>
      </trkpt>
      <trkpt lat="42.81666" lon="1.37205">
        <ele>1422</ele>
        <time>2025-09-27T12:10:56.000Z</time>
      </trkpt>
      <trkpt lat="42.81668" lon="1.37204">
        <ele>1422</ele>
        <time>2025-09-27T12:10:57.000Z</time>
      </trkpt>
      <trkpt lat="42.8167" lon="1.37203">
        <ele>1422</ele>
        <time>2025-09-27T12:10:58.000Z</time>
      </trkpt>
      <trkpt lat="42.81672" lon="1.37201">
        <ele>1422</ele>
        <time>2025-09-27T12:10:59.000Z</time>
      </trkpt>
      <trkpt lat="42.81674" lon="1.37201">
        <ele>1423</ele>
        <time>2025-09-27T12:11:00.000Z</time>
      </trkpt>
      <trkpt lat="42.81676" lon="1.372">
        <ele>1423</ele>
        <time>2025-09-27T12:11:01.000Z</time>
      </trkpt>
      <trkpt lat="42.81679" lon="1.37198">
        <ele>1423</ele>
        <time>2025-09-27T12:11:02.000Z</time>
      </trkpt>
      <trkpt lat="42.81682" lon="1.37197">
        <ele>1423</ele>
        <time>2025-09-27T12:11:03.000Z</time>
      </trkpt>
      <trkpt lat="42.81683" lon="1.37195">
        <ele>1424</ele>
        <time>2025-09-27T12:11:04.000Z</time>
      </trkpt>
      <trkpt lat="42.81685" lon="1.37192">
        <ele>1424</ele>
        <time>2025-09-27T12:11:05.000Z</time>
      </trkpt>
      <trkpt lat="42.81687" lon="1.3719">
        <ele>1424</ele>
        <time>2025-09-27T12:11:06.000Z</time>
      </trkpt>
      <trkpt lat="42.8169" lon="1.37188">
        <ele>1425</ele>
        <time>2025-09-27T12:11:07.000Z</time>
      </trkpt>
      <trkpt lat="42.81692" lon="1.37186">
        <ele>1424</ele>
        <time>2025-09-27T12:11:08.000Z</time>
      </trkpt>
      <trkpt lat="42.81694" lon="1.37183">
        <ele>1424</ele>
        <time>2025-09-27T12:11:09.000Z</time>
      </trkpt>
      <trkpt lat="42.81695" lon="1.37183">
        <ele>1424</ele>
        <time>2025-09-27T12:11:10.000Z</time>
      </trkpt>
      <trkpt lat="42.81696" lon="1.37182">
        <ele>1424</ele>
        <time>2025-09-27T12:11:11.000Z</time>
      </trkpt>
      <trkpt lat="42.81698" lon="1.3718">
        <ele>1424</ele>
        <time>2025-09-27T12:11:12.000Z</time>
      </trkpt>
      <trkpt lat="42.81699" lon="1.37179">
        <ele>1424</ele>
        <time>2025-09-27T12:11:13.000Z</time>
      </trkpt>
      <trkpt lat="42.817" lon="1.37178">
        <ele>1424</ele>
        <time>2025-09-27T12:11:14.000Z</time>
      </trkpt>
      <trkpt lat="42.81702" lon="1.37176">
        <ele>1423</ele>
        <time>2025-09-27T12:11:15.000Z</time>
      </trkpt>
      <trkpt lat="42.81704" lon="1.37174">
        <ele>1423</ele>
        <time>2025-09-27T12:11:16.000Z</time>
      </trkpt>
      <trkpt lat="42.81707" lon="1.37172">
        <ele>1424</ele>
        <time>2025-09-27T12:11:17.000Z</time>
      </trkpt>
      <trkpt lat="42.8171" lon="1.37169">
        <ele>1424</ele>
        <time>2025-09-27T12:11:18.000Z</time>
      </trkpt>
      <trkpt lat="42.81713" lon="1.37168">
        <ele>1424</ele>
        <time>2025-09-27T12:11:19.000Z</time>
      </trkpt>
      <trkpt lat="42.81715" lon="1.37166">
        <ele>1425</ele>
        <time>2025-09-27T12:11:20.000Z</time>
      </trkpt>
      <trkpt lat="42.81717" lon="1.37163">
        <ele>1425</ele>
        <time>2025-09-27T12:11:21.000Z</time>
      </trkpt>
      <trkpt lat="42.81718" lon="1.37161">
        <ele>1426</ele>
        <time>2025-09-27T12:11:22.000Z</time>
      </trkpt>
      <trkpt lat="42.81719" lon="1.37159">
        <ele>1426</ele>
        <time>2025-09-27T12:11:23.000Z</time>
      </trkpt>
      <trkpt lat="42.81721" lon="1.37157">
        <ele>1427</ele>
        <time>2025-09-27T12:11:24.000Z</time>
      </trkpt>
      <trkpt lat="42.81722" lon="1.37154">
        <ele>1428</ele>
        <time>2025-09-27T12:11:25.000Z</time>
      </trkpt>
      <trkpt lat="42.81724" lon="1.37151">
        <ele>1429</ele>
        <time>2025-09-27T12:11:26.000Z</time>
      </trkpt>
      <trkpt lat="42.81724" lon="1.37149">
        <ele>1430</ele>
        <time>2025-09-27T12:11:27.000Z</time>
      </trkpt>
      <trkpt lat="42.81725" lon="1.37146">
        <ele>1431</ele>
        <time>2025-09-27T12:11:28.000Z</time>
      </trkpt>
      <trkpt lat="42.81725" lon="1.37144">
        <ele>1432</ele>
        <time>2025-09-27T12:11:29.000Z</time>
      </trkpt>
      <trkpt lat="42.81725" lon="1.37142">
        <ele>1432</ele>
        <time>2025-09-27T12:11:30.000Z</time>
      </trkpt>
      <trkpt lat="42.81725" lon="1.3714">
        <ele>1432</ele>
        <time>2025-09-27T12:11:31.000Z</time>
      </trkpt>
      <trkpt lat="42.81725" lon="1.37139">
        <ele>1432</ele>
        <time>2025-09-27T12:11:32.000Z</time>
      </trkpt>
      <trkpt lat="42.81724" lon="1.37136">
        <ele>1433</ele>
        <time>2025-09-27T12:11:33.000Z</time>
      </trkpt>
      <trkpt lat="42.81723" lon="1.37134">
        <ele>1433</ele>
        <time>2025-09-27T12:11:34.000Z</time>
      </trkpt>
      <trkpt lat="42.81722" lon="1.37132">
        <ele>1433</ele>
        <time>2025-09-27T12:11:35.000Z</time>
      </trkpt>
      <trkpt lat="42.81721" lon="1.3713">
        <ele>1433</ele>
        <time>2025-09-27T12:11:36.000Z</time>
      </trkpt>
      <trkpt lat="42.8172" lon="1.37128">
        <ele>1433</ele>
        <time>2025-09-27T12:11:37.000Z</time>
      </trkpt>
      <trkpt lat="42.81719" lon="1.37126">
        <ele>1433</ele>
        <time>2025-09-27T12:11:38.000Z</time>
      </trkpt>
      <trkpt lat="42.81718" lon="1.37124">
        <ele>1434</ele>
        <time>2025-09-27T12:11:39.000Z</time>
      </trkpt>
      <trkpt lat="42.81717" lon="1.37123">
        <ele>1434</ele>
        <time>2025-09-27T12:11:40.000Z</time>
      </trkpt>
      <trkpt lat="42.81716" lon="1.37121">
        <ele>1434</ele>
        <time>2025-09-27T12:11:41.000Z</time>
      </trkpt>
      <trkpt lat="42.81715" lon="1.37118">
        <ele>1435</ele>
        <time>2025-09-27T12:11:42.000Z</time>
      </trkpt>
      <trkpt lat="42.81715" lon="1.37117">
        <ele>1435</ele>
        <time>2025-09-27T12:11:43.000Z</time>
      </trkpt>
      <trkpt lat="42.81715" lon="1.37114">
        <ele>1434</ele>
        <time>2025-09-27T12:11:44.000Z</time>
      </trkpt>
      <trkpt lat="42.81714" lon="1.37111">
        <ele>1434</ele>
        <time>2025-09-27T12:11:45.000Z</time>
      </trkpt>
      <trkpt lat="42.81715" lon="1.37108">
        <ele>1434</ele>
        <time>2025-09-27T12:11:46.000Z</time>
      </trkpt>
      <trkpt lat="42.81716" lon="1.37105">
        <ele>1434</ele>
        <time>2025-09-27T12:11:47.000Z</time>
      </trkpt>
      <trkpt lat="42.81716" lon="1.37101">
        <ele>1434</ele>
        <time>2025-09-27T12:11:48.000Z</time>
      </trkpt>
      <trkpt lat="42.81717" lon="1.37098">
        <ele>1435</ele>
        <time>2025-09-27T12:11:49.000Z</time>
      </trkpt>
      <trkpt lat="42.81718" lon="1.37095">
        <ele>1435</ele>
        <time>2025-09-27T12:11:50.000Z</time>
      </trkpt>
      <trkpt lat="42.81718" lon="1.37093">
        <ele>1436</ele>
        <time>2025-09-27T12:11:51.000Z</time>
      </trkpt>
      <trkpt lat="42.81719" lon="1.3709">
        <ele>1437</ele>
        <time>2025-09-27T12:11:52.000Z</time>
      </trkpt>
      <trkpt lat="42.81721" lon="1.37088">
        <ele>1437</ele>
        <time>2025-09-27T12:11:53.000Z</time>
      </trkpt>
      <trkpt lat="42.81722" lon="1.37084">
        <ele>1436</ele>
        <time>2025-09-27T12:11:54.000Z</time>
      </trkpt>
      <trkpt lat="42.81723" lon="1.37082">
        <ele>1437</ele>
        <time>2025-09-27T12:11:55.000Z</time>
      </trkpt>
      <trkpt lat="42.81725" lon="1.3708">
        <ele>1437</ele>
        <time>2025-09-27T12:11:56.000Z</time>
      </trkpt>
      <trkpt lat="42.81726" lon="1.37078">
        <ele>1437</ele>
        <time>2025-09-27T12:11:57.000Z</time>
      </trkpt>
      <trkpt lat="42.81728" lon="1.37076">
        <ele>1436</ele>
        <time>2025-09-27T12:11:58.000Z</time>
      </trkpt>
      <trkpt lat="42.81731" lon="1.37074">
        <ele>1437</ele>
        <time>2025-09-27T12:11:59.000Z</time>
      </trkpt>
      <trkpt lat="42.81732" lon="1.37072">
        <ele>1436</ele>
        <time>2025-09-27T12:12:00.000Z</time>
      </trkpt>
      <trkpt lat="42.81733" lon="1.37069">
        <ele>1437</ele>
        <time>2025-09-27T12:12:01.000Z</time>
      </trkpt>
      <trkpt lat="42.81734" lon="1.37065">
        <ele>1438</ele>
        <time>2025-09-27T12:12:02.000Z</time>
      </trkpt>
      <trkpt lat="42.81735" lon="1.37063">
        <ele>1437</ele>
        <time>2025-09-27T12:12:03.000Z</time>
      </trkpt>
      <trkpt lat="42.81736" lon="1.3706">
        <ele>1438</ele>
        <time>2025-09-27T12:12:04.000Z</time>
      </trkpt>
      <trkpt lat="42.81737" lon="1.37057">
        <ele>1438</ele>
        <time>2025-09-27T12:12:05.000Z</time>
      </trkpt>
      <trkpt lat="42.81739" lon="1.37055">
        <ele>1438</ele>
        <time>2025-09-27T12:12:06.000Z</time>
      </trkpt>
      <trkpt lat="42.8174" lon="1.37053">
        <ele>1438</ele>
        <time>2025-09-27T12:12:07.000Z</time>
      </trkpt>
      <trkpt lat="42.81741" lon="1.37051">
        <ele>1438</ele>
        <time>2025-09-27T12:12:08.000Z</time>
      </trkpt>
      <trkpt lat="42.81742" lon="1.37048">
        <ele>1438</ele>
        <time>2025-09-27T12:12:09.000Z</time>
      </trkpt>
      <trkpt lat="42.81744" lon="1.37046">
        <ele>1438</ele>
        <time>2025-09-27T12:12:10.000Z</time>
      </trkpt>
      <trkpt lat="42.81746" lon="1.37043">
        <ele>1438</ele>
        <time>2025-09-27T12:12:11.000Z</time>
      </trkpt>
      <trkpt lat="42.81747" lon="1.37041">
        <ele>1438</ele>
        <time>2025-09-27T12:12:12.000Z</time>
      </trkpt>
      <trkpt lat="42.81749" lon="1.37039">
        <ele>1438</ele>
        <time>2025-09-27T12:12:13.000Z</time>
      </trkpt>
      <trkpt lat="42.8175" lon="1.37036">
        <ele>1438</ele>
        <time>2025-09-27T12:12:14.000Z</time>
      </trkpt>
      <trkpt lat="42.81751" lon="1.37033">
        <ele>1438</ele>
        <time>2025-09-27T12:12:15.000Z</time>
      </trkpt>
      <trkpt lat="42.81752" lon="1.37031">
        <ele>1437</ele>
        <time>2025-09-27T12:12:16.000Z</time>
      </trkpt>
      <trkpt lat="42.81753" lon="1.37028">
        <ele>1438</ele>
        <time>2025-09-27T12:12:17.000Z</time>
      </trkpt>
      <trkpt lat="42.81755" lon="1.37026">
        <ele>1438</ele>
        <time>2025-09-27T12:12:18.000Z</time>
      </trkpt>
      <trkpt lat="42.81756" lon="1.37023">
        <ele>1438</ele>
        <time>2025-09-27T12:12:19.000Z</time>
      </trkpt>
      <trkpt lat="42.81757" lon="1.37021">
        <ele>1438</ele>
        <time>2025-09-27T12:12:20.000Z</time>
      </trkpt>
      <trkpt lat="42.81758" lon="1.37018">
        <ele>1439</ele>
        <time>2025-09-27T12:12:21.000Z</time>
      </trkpt>
      <trkpt lat="42.81759" lon="1.37015">
        <ele>1439</ele>
        <time>2025-09-27T12:12:22.000Z</time>
      </trkpt>
      <trkpt lat="42.81759" lon="1.37012">
        <ele>1438</ele>
        <time>2025-09-27T12:12:23.000Z</time>
      </trkpt>
      <trkpt lat="42.8176" lon="1.37009">
        <ele>1438</ele>
        <time>2025-09-27T12:12:24.000Z</time>
      </trkpt>
      <trkpt lat="42.81761" lon="1.37007">
        <ele>1438</ele>
        <time>2025-09-27T12:12:25.000Z</time>
      </trkpt>
      <trkpt lat="42.81762" lon="1.37004">
        <ele>1439</ele>
        <time>2025-09-27T12:12:26.000Z</time>
      </trkpt>
      <trkpt lat="42.81763" lon="1.37002">
        <ele>1439</ele>
        <time>2025-09-27T12:12:27.000Z</time>
      </trkpt>
      <trkpt lat="42.81764" lon="1.36999">
        <ele>1439</ele>
        <time>2025-09-27T12:12:28.000Z</time>
      </trkpt>
      <trkpt lat="42.81764" lon="1.36996">
        <ele>1439</ele>
        <time>2025-09-27T12:12:29.000Z</time>
      </trkpt>
      <trkpt lat="42.81765" lon="1.36995">
        <ele>1440</ele>
        <time>2025-09-27T12:12:30.000Z</time>
      </trkpt>
      <trkpt lat="42.81765" lon="1.36995">
        <ele>1440</ele>
        <time>2025-09-27T12:12:31.000Z</time>
      </trkpt>
      <trkpt lat="42.81765" lon="1.36993">
        <ele>1440</ele>
        <time>2025-09-27T12:12:32.000Z</time>
      </trkpt>
      <trkpt lat="42.81765" lon="1.36992">
        <ele>1439</ele>
        <time>2025-09-27T12:12:33.000Z</time>
      </trkpt>
      <trkpt lat="42.81765" lon="1.36991">
        <ele>1439</ele>
        <time>2025-09-27T12:12:34.000Z</time>
      </trkpt>
      <trkpt lat="42.81766" lon="1.36991">
        <ele>1439</ele>
        <time>2025-09-27T12:12:35.000Z</time>
      </trkpt>
      <trkpt lat="42.81767" lon="1.3699">
        <ele>1439</ele>
        <time>2025-09-27T12:12:36.000Z</time>
      </trkpt>
      <trkpt lat="42.81768" lon="1.36988">
        <ele>1439</ele>
        <time>2025-09-27T12:12:37.000Z</time>
      </trkpt>
      <trkpt lat="42.81768" lon="1.36986">
        <ele>1440</ele>
        <time>2025-09-27T12:12:38.000Z</time>
      </trkpt>
      <trkpt lat="42.81768" lon="1.36983">
        <ele>1440</ele>
        <time>2025-09-27T12:12:39.000Z</time>
      </trkpt>
      <trkpt lat="42.81768" lon="1.36981">
        <ele>1440</ele>
        <time>2025-09-27T12:12:40.000Z</time>
      </trkpt>
      <trkpt lat="42.81768" lon="1.36979">
        <ele>1440</ele>
        <time>2025-09-27T12:12:41.000Z</time>
      </trkpt>
      <trkpt lat="42.81768" lon="1.36976">
        <ele>1440</ele>
        <time>2025-09-27T12:12:42.000Z</time>
      </trkpt>
      <trkpt lat="42.81767" lon="1.36973">
        <ele>1440</ele>
        <time>2025-09-27T12:12:43.000Z</time>
      </trkpt>
      <trkpt lat="42.81767" lon="1.36969">
        <ele>1440</ele>
        <time>2025-09-27T12:12:44.000Z</time>
      </trkpt>
      <trkpt lat="42.81767" lon="1.36965">
        <ele>1440</ele>
        <time>2025-09-27T12:12:45.000Z</time>
      </trkpt>
      <trkpt lat="42.81767" lon="1.36962">
        <ele>1440</ele>
        <time>2025-09-27T12:12:46.000Z</time>
      </trkpt>
      <trkpt lat="42.81767" lon="1.36959">
        <ele>1440</ele>
        <time>2025-09-27T12:12:47.000Z</time>
      </trkpt>
      <trkpt lat="42.81766" lon="1.36954">
        <ele>1440</ele>
        <time>2025-09-27T12:12:48.000Z</time>
      </trkpt>
      <trkpt lat="42.81766" lon="1.3695">
        <ele>1439</ele>
        <time>2025-09-27T12:12:49.000Z</time>
      </trkpt>
      <trkpt lat="42.81766" lon="1.36946">
        <ele>1440</ele>
        <time>2025-09-27T12:12:50.000Z</time>
      </trkpt>
      <trkpt lat="42.81767" lon="1.36942">
        <ele>1440</ele>
        <time>2025-09-27T12:12:51.000Z</time>
      </trkpt>
      <trkpt lat="42.81768" lon="1.36938">
        <ele>1440</ele>
        <time>2025-09-27T12:12:52.000Z</time>
      </trkpt>
      <trkpt lat="42.81769" lon="1.36935">
        <ele>1440</ele>
        <time>2025-09-27T12:12:53.000Z</time>
      </trkpt>
      <trkpt lat="42.81771" lon="1.3693">
        <ele>1441</ele>
        <time>2025-09-27T12:12:54.000Z</time>
      </trkpt>
      <trkpt lat="42.81773" lon="1.36924">
        <ele>1441</ele>
        <time>2025-09-27T12:12:55.000Z</time>
      </trkpt>
      <trkpt lat="42.81775" lon="1.36918">
        <ele>1440</ele>
        <time>2025-09-27T12:12:56.000Z</time>
      </trkpt>
      <trkpt lat="42.81777" lon="1.36913">
        <ele>1440</ele>
        <time>2025-09-27T12:12:57.000Z</time>
      </trkpt>
      <trkpt lat="42.81778" lon="1.36908">
        <ele>1439</ele>
        <time>2025-09-27T12:12:58.000Z</time>
      </trkpt>
      <trkpt lat="42.81781" lon="1.36903">
        <ele>1439</ele>
        <time>2025-09-27T12:12:59.000Z</time>
      </trkpt>
      <trkpt lat="42.81783" lon="1.36897">
        <ele>1439</ele>
        <time>2025-09-27T12:13:00.000Z</time>
      </trkpt>
      <trkpt lat="42.81786" lon="1.36893">
        <ele>1439</ele>
        <time>2025-09-27T12:13:01.000Z</time>
      </trkpt>
      <trkpt lat="42.81789" lon="1.36888">
        <ele>1438</ele>
        <time>2025-09-27T12:13:02.000Z</time>
      </trkpt>
      <trkpt lat="42.81791" lon="1.36881">
        <ele>1438</ele>
        <time>2025-09-27T12:13:03.000Z</time>
      </trkpt>
      <trkpt lat="42.81793" lon="1.36875">
        <ele>1438</ele>
        <time>2025-09-27T12:13:04.000Z</time>
      </trkpt>
      <trkpt lat="42.81795" lon="1.36868">
        <ele>1437</ele>
        <time>2025-09-27T12:13:05.000Z</time>
      </trkpt>
      <trkpt lat="42.81797" lon="1.36861">
        <ele>1438</ele>
        <time>2025-09-27T12:13:06.000Z</time>
      </trkpt>
      <trkpt lat="42.81799" lon="1.36856">
        <ele>1438</ele>
        <time>2025-09-27T12:13:07.000Z</time>
      </trkpt>
      <trkpt lat="42.818" lon="1.36851">
        <ele>1438</ele>
        <time>2025-09-27T12:13:08.000Z</time>
      </trkpt>
      <trkpt lat="42.81801" lon="1.36845">
        <ele>1438</ele>
        <time>2025-09-27T12:13:09.000Z</time>
      </trkpt>
      <trkpt lat="42.81802" lon="1.36839">
        <ele>1439</ele>
        <time>2025-09-27T12:13:10.000Z</time>
      </trkpt>
      <trkpt lat="42.81803" lon="1.36833">
        <ele>1439</ele>
        <time>2025-09-27T12:13:11.000Z</time>
      </trkpt>
      <trkpt lat="42.81804" lon="1.36829">
        <ele>1439</ele>
        <time>2025-09-27T12:13:12.000Z</time>
      </trkpt>
      <trkpt lat="42.81804" lon="1.36825">
        <ele>1439</ele>
        <time>2025-09-27T12:13:13.000Z</time>
      </trkpt>
      <trkpt lat="42.81804" lon="1.36821">
        <ele>1440</ele>
        <time>2025-09-27T12:13:14.000Z</time>
      </trkpt>
      <trkpt lat="42.81803" lon="1.36817">
        <ele>1440</ele>
        <time>2025-09-27T12:13:15.000Z</time>
      </trkpt>
      <trkpt lat="42.81803" lon="1.36812">
        <ele>1439</ele>
        <time>2025-09-27T12:13:16.000Z</time>
      </trkpt>
      <trkpt lat="42.81803" lon="1.36807">
        <ele>1439</ele>
        <time>2025-09-27T12:13:17.000Z</time>
      </trkpt>
      <trkpt lat="42.81803" lon="1.36802">
        <ele>1439</ele>
        <time>2025-09-27T12:13:18.000Z</time>
      </trkpt>
      <trkpt lat="42.81803" lon="1.36796">
        <ele>1439</ele>
        <time>2025-09-27T12:13:19.000Z</time>
      </trkpt>
      <trkpt lat="42.81806" lon="1.3679">
        <ele>1439</ele>
        <time>2025-09-27T12:13:20.000Z</time>
      </trkpt>
      <trkpt lat="42.8181" lon="1.36783">
        <ele>1438</ele>
        <time>2025-09-27T12:13:21.000Z</time>
      </trkpt>
      <trkpt lat="42.81813" lon="1.36777">
        <ele>1438</ele>
        <time>2025-09-27T12:13:22.000Z</time>
      </trkpt>
      <trkpt lat="42.81816" lon="1.36772">
        <ele>1437</ele>
        <time>2025-09-27T12:13:23.000Z</time>
      </trkpt>
      <trkpt lat="42.81819" lon="1.36766">
        <ele>1437</ele>
        <time>2025-09-27T12:13:24.000Z</time>
      </trkpt>
      <trkpt lat="42.81821" lon="1.36761">
        <ele>1437</ele>
        <time>2025-09-27T12:13:25.000Z</time>
      </trkpt>
      <trkpt lat="42.81823" lon="1.36757">
        <ele>1437</ele>
        <time>2025-09-27T12:13:26.000Z</time>
      </trkpt>
      <trkpt lat="42.81824" lon="1.36752">
        <ele>1437</ele>
        <time>2025-09-27T12:13:27.000Z</time>
      </trkpt>
      <trkpt lat="42.81826" lon="1.36747">
        <ele>1438</ele>
        <time>2025-09-27T12:13:28.000Z</time>
      </trkpt>
      <trkpt lat="42.81828" lon="1.36741">
        <ele>1438</ele>
        <time>2025-09-27T12:13:29.000Z</time>
      </trkpt>
      <trkpt lat="42.8183" lon="1.36737">
        <ele>1437</ele>
        <time>2025-09-27T12:13:30.000Z</time>
      </trkpt>
      <trkpt lat="42.81832" lon="1.36731">
        <ele>1437</ele>
        <time>2025-09-27T12:13:31.000Z</time>
      </trkpt>
      <trkpt lat="42.81833" lon="1.36725">
        <ele>1437</ele>
        <time>2025-09-27T12:13:32.000Z</time>
      </trkpt>
      <trkpt lat="42.81835" lon="1.3672">
        <ele>1437</ele>
        <time>2025-09-27T12:13:33.000Z</time>
      </trkpt>
      <trkpt lat="42.81837" lon="1.36714">
        <ele>1437</ele>
        <time>2025-09-27T12:13:34.000Z</time>
      </trkpt>
      <trkpt lat="42.81839" lon="1.36707">
        <ele>1437</ele>
        <time>2025-09-27T12:13:35.000Z</time>
      </trkpt>
      <trkpt lat="42.81841" lon="1.36701">
        <ele>1436</ele>
        <time>2025-09-27T12:13:36.000Z</time>
      </trkpt>
      <trkpt lat="42.81843" lon="1.36694">
        <ele>1436</ele>
        <time>2025-09-27T12:13:37.000Z</time>
      </trkpt>
      <trkpt lat="42.81845" lon="1.36687">
        <ele>1436</ele>
        <time>2025-09-27T12:13:38.000Z</time>
      </trkpt>
      <trkpt lat="42.81846" lon="1.36679">
        <ele>1436</ele>
        <time>2025-09-27T12:13:39.000Z</time>
      </trkpt>
      <trkpt lat="42.81847" lon="1.36671">
        <ele>1435</ele>
        <time>2025-09-27T12:13:40.000Z</time>
      </trkpt>
      <trkpt lat="42.81849" lon="1.36663">
        <ele>1435</ele>
        <time>2025-09-27T12:13:41.000Z</time>
      </trkpt>
      <trkpt lat="42.81851" lon="1.36656">
        <ele>1435</ele>
        <time>2025-09-27T12:13:42.000Z</time>
      </trkpt>
      <trkpt lat="42.81853" lon="1.3665">
        <ele>1436</ele>
        <time>2025-09-27T12:13:43.000Z</time>
      </trkpt>
      <trkpt lat="42.81854" lon="1.36645">
        <ele>1435</ele>
        <time>2025-09-27T12:13:44.000Z</time>
      </trkpt>
      <trkpt lat="42.81855" lon="1.36641">
        <ele>1435</ele>
        <time>2025-09-27T12:13:45.000Z</time>
      </trkpt>
      <trkpt lat="42.81857" lon="1.36638">
        <ele>1435</ele>
        <time>2025-09-27T12:13:46.000Z</time>
      </trkpt>
      <trkpt lat="42.81858" lon="1.36635">
        <ele>1435</ele>
        <time>2025-09-27T12:13:47.000Z</time>
      </trkpt>
      <trkpt lat="42.81859" lon="1.36631">
        <ele>1436</ele>
        <time>2025-09-27T12:13:48.000Z</time>
      </trkpt>
      <trkpt lat="42.8186" lon="1.36628">
        <ele>1436</ele>
        <time>2025-09-27T12:13:49.000Z</time>
      </trkpt>
      <trkpt lat="42.8186" lon="1.36625">
        <ele>1437</ele>
        <time>2025-09-27T12:13:50.000Z</time>
      </trkpt>
      <trkpt lat="42.81861" lon="1.36622">
        <ele>1437</ele>
        <time>2025-09-27T12:13:51.000Z</time>
      </trkpt>
      <trkpt lat="42.81862" lon="1.36619">
        <ele>1437</ele>
        <time>2025-09-27T12:13:52.000Z</time>
      </trkpt>
      <trkpt lat="42.81862" lon="1.36616">
        <ele>1438</ele>
        <time>2025-09-27T12:13:53.000Z</time>
      </trkpt>
      <trkpt lat="42.81863" lon="1.36614">
        <ele>1438</ele>
        <time>2025-09-27T12:13:54.000Z</time>
      </trkpt>
      <trkpt lat="42.81864" lon="1.3661">
        <ele>1438</ele>
        <time>2025-09-27T12:13:55.000Z</time>
      </trkpt>
      <trkpt lat="42.81864" lon="1.36607">
        <ele>1438</ele>
        <time>2025-09-27T12:13:56.000Z</time>
      </trkpt>
      <trkpt lat="42.81864" lon="1.36603">
        <ele>1438</ele>
        <time>2025-09-27T12:13:57.000Z</time>
      </trkpt>
      <trkpt lat="42.81865" lon="1.36601">
        <ele>1439</ele>
        <time>2025-09-27T12:13:58.000Z</time>
      </trkpt>
      <trkpt lat="42.81865" lon="1.36597">
        <ele>1439</ele>
        <time>2025-09-27T12:13:59.000Z</time>
      </trkpt>
      <trkpt lat="42.81864" lon="1.36594">
        <ele>1439</ele>
        <time>2025-09-27T12:14:00.000Z</time>
      </trkpt>
      <trkpt lat="42.81864" lon="1.36591">
        <ele>1440</ele>
        <time>2025-09-27T12:14:01.000Z</time>
      </trkpt>
      <trkpt lat="42.81864" lon="1.36588">
        <ele>1440</ele>
        <time>2025-09-27T12:14:02.000Z</time>
      </trkpt>
      <trkpt lat="42.81864" lon="1.36585">
        <ele>1441</ele>
        <time>2025-09-27T12:14:03.000Z</time>
      </trkpt>
      <trkpt lat="42.81864" lon="1.36582">
        <ele>1441</ele>
        <time>2025-09-27T12:14:04.000Z</time>
      </trkpt>
      <trkpt lat="42.81863" lon="1.36579">
        <ele>1442</ele>
        <time>2025-09-27T12:14:05.000Z</time>
      </trkpt>
      <trkpt lat="42.81863" lon="1.36575">
        <ele>1442</ele>
        <time>2025-09-27T12:14:06.000Z</time>
      </trkpt>
      <trkpt lat="42.81863" lon="1.36572">
        <ele>1442</ele>
        <time>2025-09-27T12:14:07.000Z</time>
      </trkpt>
      <trkpt lat="42.81863" lon="1.3657">
        <ele>1442</ele>
        <time>2025-09-27T12:14:08.000Z</time>
      </trkpt>
      <trkpt lat="42.81863" lon="1.36566">
        <ele>1443</ele>
        <time>2025-09-27T12:14:09.000Z</time>
      </trkpt>
      <trkpt lat="42.81862" lon="1.36563">
        <ele>1443</ele>
        <time>2025-09-27T12:14:10.000Z</time>
      </trkpt>
      <trkpt lat="42.81862" lon="1.3656">
        <ele>1444</ele>
        <time>2025-09-27T12:14:11.000Z</time>
      </trkpt>
      <trkpt lat="42.81862" lon="1.36557">
        <ele>1444</ele>
        <time>2025-09-27T12:14:12.000Z</time>
      </trkpt>
      <trkpt lat="42.81861" lon="1.36554">
        <ele>1444</ele>
        <time>2025-09-27T12:14:13.000Z</time>
      </trkpt>
      <trkpt lat="42.8186" lon="1.3655">
        <ele>1444</ele>
        <time>2025-09-27T12:14:14.000Z</time>
      </trkpt>
      <trkpt lat="42.8186" lon="1.36547">
        <ele>1444</ele>
        <time>2025-09-27T12:14:15.000Z</time>
      </trkpt>
      <trkpt lat="42.81859" lon="1.36544">
        <ele>1444</ele>
        <time>2025-09-27T12:14:16.000Z</time>
      </trkpt>
      <trkpt lat="42.81859" lon="1.36542">
        <ele>1443</ele>
        <time>2025-09-27T12:14:17.000Z</time>
      </trkpt>
      <trkpt lat="42.81859" lon="1.36539">
        <ele>1443</ele>
        <time>2025-09-27T12:14:18.000Z</time>
      </trkpt>
      <trkpt lat="42.81859" lon="1.36536">
        <ele>1443</ele>
        <time>2025-09-27T12:14:19.000Z</time>
      </trkpt>
      <trkpt lat="42.81859" lon="1.36532">
        <ele>1444</ele>
        <time>2025-09-27T12:14:20.000Z</time>
      </trkpt>
      <trkpt lat="42.81859" lon="1.3653">
        <ele>1444</ele>
        <time>2025-09-27T12:14:21.000Z</time>
      </trkpt>
      <trkpt lat="42.81859" lon="1.36527">
        <ele>1444</ele>
        <time>2025-09-27T12:14:22.000Z</time>
      </trkpt>
      <trkpt lat="42.8186" lon="1.36524">
        <ele>1444</ele>
        <time>2025-09-27T12:14:23.000Z</time>
      </trkpt>
      <trkpt lat="42.8186" lon="1.36521">
        <ele>1444</ele>
        <time>2025-09-27T12:14:24.000Z</time>
      </trkpt>
      <trkpt lat="42.81861" lon="1.36518">
        <ele>1444</ele>
        <time>2025-09-27T12:14:25.000Z</time>
      </trkpt>
      <trkpt lat="42.81861" lon="1.36514">
        <ele>1444</ele>
        <time>2025-09-27T12:14:26.000Z</time>
      </trkpt>
      <trkpt lat="42.81862" lon="1.36511">
        <ele>1444</ele>
        <time>2025-09-27T12:14:27.000Z</time>
      </trkpt>
      <trkpt lat="42.81862" lon="1.36508">
        <ele>1445</ele>
        <time>2025-09-27T12:14:28.000Z</time>
      </trkpt>
      <trkpt lat="42.81863" lon="1.36505">
        <ele>1445</ele>
        <time>2025-09-27T12:14:29.000Z</time>
      </trkpt>
      <trkpt lat="42.81863" lon="1.36502">
        <ele>1446</ele>
        <time>2025-09-27T12:14:30.000Z</time>
      </trkpt>
      <trkpt lat="42.81864" lon="1.36499">
        <ele>1446</ele>
        <time>2025-09-27T12:14:31.000Z</time>
      </trkpt>
      <trkpt lat="42.81866" lon="1.36497">
        <ele>1447</ele>
        <time>2025-09-27T12:14:32.000Z</time>
      </trkpt>
      <trkpt lat="42.81869" lon="1.36495">
        <ele>1447</ele>
        <time>2025-09-27T12:14:33.000Z</time>
      </trkpt>
      <trkpt lat="42.81873" lon="1.36493">
        <ele>1447</ele>
        <time>2025-09-27T12:14:34.000Z</time>
      </trkpt>
      <trkpt lat="42.81877" lon="1.36491">
        <ele>1447</ele>
        <time>2025-09-27T12:14:35.000Z</time>
      </trkpt>
      <trkpt lat="42.8188" lon="1.36489">
        <ele>1448</ele>
        <time>2025-09-27T12:14:36.000Z</time>
      </trkpt>
      <trkpt lat="42.81883" lon="1.36488">
        <ele>1448</ele>
        <time>2025-09-27T12:14:37.000Z</time>
      </trkpt>
      <trkpt lat="42.81885" lon="1.36486">
        <ele>1448</ele>
        <time>2025-09-27T12:14:38.000Z</time>
      </trkpt>
      <trkpt lat="42.81888" lon="1.36484">
        <ele>1448</ele>
        <time>2025-09-27T12:14:39.000Z</time>
      </trkpt>
      <trkpt lat="42.81891" lon="1.36483">
        <ele>1448</ele>
        <time>2025-09-27T12:14:40.000Z</time>
      </trkpt>
      <trkpt lat="42.81894" lon="1.36481">
        <ele>1449</ele>
        <time>2025-09-27T12:14:41.000Z</time>
      </trkpt>
      <trkpt lat="42.81897" lon="1.3648">
        <ele>1449</ele>
        <time>2025-09-27T12:14:42.000Z</time>
      </trkpt>
      <trkpt lat="42.819" lon="1.36477">
        <ele>1449</ele>
        <time>2025-09-27T12:14:43.000Z</time>
      </trkpt>
      <trkpt lat="42.81903" lon="1.36476">
        <ele>1449</ele>
        <time>2025-09-27T12:14:44.000Z</time>
      </trkpt>
      <trkpt lat="42.81905" lon="1.36474">
        <ele>1449</ele>
        <time>2025-09-27T12:14:45.000Z</time>
      </trkpt>
      <trkpt lat="42.81908" lon="1.36473">
        <ele>1449</ele>
        <time>2025-09-27T12:14:46.000Z</time>
      </trkpt>
      <trkpt lat="42.81911" lon="1.36471">
        <ele>1449</ele>
        <time>2025-09-27T12:14:47.000Z</time>
      </trkpt>
      <trkpt lat="42.81914" lon="1.36469">
        <ele>1449</ele>
        <time>2025-09-27T12:14:48.000Z</time>
      </trkpt>
      <trkpt lat="42.81917" lon="1.36468">
        <ele>1449</ele>
        <time>2025-09-27T12:14:49.000Z</time>
      </trkpt>
      <trkpt lat="42.8192" lon="1.36466">
        <ele>1449</ele>
        <time>2025-09-27T12:14:50.000Z</time>
      </trkpt>
      <trkpt lat="42.81922" lon="1.36465">
        <ele>1449</ele>
        <time>2025-09-27T12:14:51.000Z</time>
      </trkpt>
      <trkpt lat="42.81925" lon="1.36465">
        <ele>1449</ele>
        <time>2025-09-27T12:14:52.000Z</time>
      </trkpt>
      <trkpt lat="42.81928" lon="1.36464">
        <ele>1450</ele>
        <time>2025-09-27T12:14:53.000Z</time>
      </trkpt>
      <trkpt lat="42.81931" lon="1.36464">
        <ele>1450</ele>
        <time>2025-09-27T12:14:54.000Z</time>
      </trkpt>
      <trkpt lat="42.81935" lon="1.36464">
        <ele>1450</ele>
        <time>2025-09-27T12:14:55.000Z</time>
      </trkpt>
      <trkpt lat="42.81937" lon="1.36464">
        <ele>1451</ele>
        <time>2025-09-27T12:14:56.000Z</time>
      </trkpt>
      <trkpt lat="42.8194" lon="1.36465">
        <ele>1451</ele>
        <time>2025-09-27T12:14:57.000Z</time>
      </trkpt>
      <trkpt lat="42.81943" lon="1.36465">
        <ele>1451</ele>
        <time>2025-09-27T12:14:58.000Z</time>
      </trkpt>
      <trkpt lat="42.81946" lon="1.36466">
        <ele>1451</ele>
        <time>2025-09-27T12:14:59.000Z</time>
      </trkpt>
      <trkpt lat="42.81948" lon="1.36466">
        <ele>1451</ele>
        <time>2025-09-27T12:15:00.000Z</time>
      </trkpt>
      <trkpt lat="42.81951" lon="1.36465">
        <ele>1452</ele>
        <time>2025-09-27T12:15:01.000Z</time>
      </trkpt>
      <trkpt lat="42.81955" lon="1.36465">
        <ele>1452</ele>
        <time>2025-09-27T12:15:02.000Z</time>
      </trkpt>
      <trkpt lat="42.81958" lon="1.36466">
        <ele>1452</ele>
        <time>2025-09-27T12:15:03.000Z</time>
      </trkpt>
      <trkpt lat="42.81961" lon="1.36468">
        <ele>1453</ele>
        <time>2025-09-27T12:15:04.000Z</time>
      </trkpt>
      <trkpt lat="42.81963" lon="1.36471">
        <ele>1452</ele>
        <time>2025-09-27T12:15:05.000Z</time>
      </trkpt>
      <trkpt lat="42.81966" lon="1.36474">
        <ele>1453</ele>
        <time>2025-09-27T12:15:06.000Z</time>
      </trkpt>
      <trkpt lat="42.81969" lon="1.36476">
        <ele>1453</ele>
        <time>2025-09-27T12:15:07.000Z</time>
      </trkpt>
      <trkpt lat="42.81971" lon="1.36479">
        <ele>1453</ele>
        <time>2025-09-27T12:15:08.000Z</time>
      </trkpt>
      <trkpt lat="42.81973" lon="1.36482">
        <ele>1454</ele>
        <time>2025-09-27T12:15:09.000Z</time>
      </trkpt>
      <trkpt lat="42.81975" lon="1.36483">
        <ele>1454</ele>
        <time>2025-09-27T12:15:10.000Z</time>
      </trkpt>
      <trkpt lat="42.81977" lon="1.36485">
        <ele>1455</ele>
        <time>2025-09-27T12:15:11.000Z</time>
      </trkpt>
      <trkpt lat="42.8198" lon="1.36487">
        <ele>1455</ele>
        <time>2025-09-27T12:15:12.000Z</time>
      </trkpt>
      <trkpt lat="42.81982" lon="1.36489">
        <ele>1455</ele>
        <time>2025-09-27T12:15:13.000Z</time>
      </trkpt>
      <trkpt lat="42.81985" lon="1.36491">
        <ele>1456</ele>
        <time>2025-09-27T12:15:14.000Z</time>
      </trkpt>
      <trkpt lat="42.81987" lon="1.36493">
        <ele>1456</ele>
        <time>2025-09-27T12:15:15.000Z</time>
      </trkpt>
      <trkpt lat="42.8199" lon="1.36495">
        <ele>1457</ele>
        <time>2025-09-27T12:15:16.000Z</time>
      </trkpt>
      <trkpt lat="42.81993" lon="1.36497">
        <ele>1457</ele>
        <time>2025-09-27T12:15:17.000Z</time>
      </trkpt>
      <trkpt lat="42.81995" lon="1.36499">
        <ele>1457</ele>
        <time>2025-09-27T12:15:18.000Z</time>
      </trkpt>
      <trkpt lat="42.81998" lon="1.36501">
        <ele>1457</ele>
        <time>2025-09-27T12:15:19.000Z</time>
      </trkpt>
      <trkpt lat="42.82001" lon="1.36503">
        <ele>1458</ele>
        <time>2025-09-27T12:15:20.000Z</time>
      </trkpt>
      <trkpt lat="42.82004" lon="1.36505">
        <ele>1458</ele>
        <time>2025-09-27T12:15:21.000Z</time>
      </trkpt>
      <trkpt lat="42.82006" lon="1.36507">
        <ele>1458</ele>
        <time>2025-09-27T12:15:22.000Z</time>
      </trkpt>
      <trkpt lat="42.82009" lon="1.36509">
        <ele>1459</ele>
        <time>2025-09-27T12:15:23.000Z</time>
      </trkpt>
      <trkpt lat="42.82012" lon="1.36511">
        <ele>1459</ele>
        <time>2025-09-27T12:15:24.000Z</time>
      </trkpt>
      <trkpt lat="42.82014" lon="1.36512">
        <ele>1460</ele>
        <time>2025-09-27T12:15:25.000Z</time>
      </trkpt>
      <trkpt lat="42.82017" lon="1.36515">
        <ele>1460</ele>
        <time>2025-09-27T12:15:26.000Z</time>
      </trkpt>
      <trkpt lat="42.82019" lon="1.36517">
        <ele>1461</ele>
        <time>2025-09-27T12:15:27.000Z</time>
      </trkpt>
      <trkpt lat="42.82021" lon="1.36519">
        <ele>1461</ele>
        <time>2025-09-27T12:15:28.000Z</time>
      </trkpt>
      <trkpt lat="42.82024" lon="1.36521">
        <ele>1461</ele>
        <time>2025-09-27T12:15:29.000Z</time>
      </trkpt>
      <trkpt lat="42.82026" lon="1.36523">
        <ele>1461</ele>
        <time>2025-09-27T12:15:30.000Z</time>
      </trkpt>
      <trkpt lat="42.82028" lon="1.36525">
        <ele>1462</ele>
        <time>2025-09-27T12:15:31.000Z</time>
      </trkpt>
      <trkpt lat="42.8203" lon="1.36527">
        <ele>1462</ele>
        <time>2025-09-27T12:15:32.000Z</time>
      </trkpt>
      <trkpt lat="42.82033" lon="1.3653">
        <ele>1462</ele>
        <time>2025-09-27T12:15:33.000Z</time>
      </trkpt>
      <trkpt lat="42.82035" lon="1.36533">
        <ele>1463</ele>
        <time>2025-09-27T12:15:34.000Z</time>
      </trkpt>
      <trkpt lat="42.82037" lon="1.36535">
        <ele>1463</ele>
        <time>2025-09-27T12:15:35.000Z</time>
      </trkpt>
      <trkpt lat="42.82039" lon="1.36537">
        <ele>1464</ele>
        <time>2025-09-27T12:15:36.000Z</time>
      </trkpt>
      <trkpt lat="42.82042" lon="1.36539">
        <ele>1464</ele>
        <time>2025-09-27T12:15:37.000Z</time>
      </trkpt>
      <trkpt lat="42.82044" lon="1.36541">
        <ele>1464</ele>
        <time>2025-09-27T12:15:38.000Z</time>
      </trkpt>
      <trkpt lat="42.82046" lon="1.36543">
        <ele>1464</ele>
        <time>2025-09-27T12:15:39.000Z</time>
      </trkpt>
      <trkpt lat="42.82048" lon="1.36545">
        <ele>1465</ele>
        <time>2025-09-27T12:15:40.000Z</time>
      </trkpt>
      <trkpt lat="42.8205" lon="1.36547">
        <ele>1465</ele>
        <time>2025-09-27T12:15:41.000Z</time>
      </trkpt>
      <trkpt lat="42.82053" lon="1.36549">
        <ele>1465</ele>
        <time>2025-09-27T12:15:42.000Z</time>
      </trkpt>
      <trkpt lat="42.82055" lon="1.36549">
        <ele>1465</ele>
        <time>2025-09-27T12:15:43.000Z</time>
      </trkpt>
      <trkpt lat="42.82058" lon="1.3655">
        <ele>1465</ele>
        <time>2025-09-27T12:15:44.000Z</time>
      </trkpt>
      <trkpt lat="42.8206" lon="1.36551">
        <ele>1465</ele>
        <time>2025-09-27T12:15:45.000Z</time>
      </trkpt>
      <trkpt lat="42.82063" lon="1.3655">
        <ele>1465</ele>
        <time>2025-09-27T12:15:46.000Z</time>
      </trkpt>
      <trkpt lat="42.82066" lon="1.36548">
        <ele>1466</ele>
        <time>2025-09-27T12:15:47.000Z</time>
      </trkpt>
      <trkpt lat="42.82069" lon="1.36547">
        <ele>1467</ele>
        <time>2025-09-27T12:15:48.000Z</time>
      </trkpt>
      <trkpt lat="42.8207" lon="1.36545">
        <ele>1468</ele>
        <time>2025-09-27T12:15:49.000Z</time>
      </trkpt>
      <trkpt lat="42.8207" lon="1.36543">
        <ele>1468</ele>
        <time>2025-09-27T12:15:50.000Z</time>
      </trkpt>
      <trkpt lat="42.82068" lon="1.36542">
        <ele>1468</ele>
        <time>2025-09-27T12:15:51.000Z</time>
      </trkpt>
      <trkpt lat="42.82067" lon="1.36541">
        <ele>1468</ele>
        <time>2025-09-27T12:15:52.000Z</time>
      </trkpt>
      <trkpt lat="42.82065" lon="1.36539">
        <ele>1468</ele>
        <time>2025-09-27T12:15:53.000Z</time>
      </trkpt>
      <trkpt lat="42.82063" lon="1.36538">
        <ele>1468</ele>
        <time>2025-09-27T12:15:54.000Z</time>
      </trkpt>
      <trkpt lat="42.82061" lon="1.36536">
        <ele>1468</ele>
        <time>2025-09-27T12:15:55.000Z</time>
      </trkpt>
      <trkpt lat="42.8206" lon="1.36534">
        <ele>1469</ele>
        <time>2025-09-27T12:15:56.000Z</time>
      </trkpt>
      <trkpt lat="42.82058" lon="1.36533">
        <ele>1469</ele>
        <time>2025-09-27T12:15:57.000Z</time>
      </trkpt>
      <trkpt lat="42.82057" lon="1.36531">
        <ele>1469</ele>
        <time>2025-09-27T12:15:58.000Z</time>
      </trkpt>
      <trkpt lat="42.82056" lon="1.36529">
        <ele>1469</ele>
        <time>2025-09-27T12:15:59.000Z</time>
      </trkpt>
      <trkpt lat="42.82054" lon="1.36526">
        <ele>1469</ele>
        <time>2025-09-27T12:16:00.000Z</time>
      </trkpt>
      <trkpt lat="42.82053" lon="1.36523">
        <ele>1470</ele>
        <time>2025-09-27T12:16:01.000Z</time>
      </trkpt>
      <trkpt lat="42.82052" lon="1.3652">
        <ele>1471</ele>
        <time>2025-09-27T12:16:02.000Z</time>
      </trkpt>
      <trkpt lat="42.8205" lon="1.36517">
        <ele>1471</ele>
        <time>2025-09-27T12:16:03.000Z</time>
      </trkpt>
      <trkpt lat="42.82049" lon="1.36513">
        <ele>1471</ele>
        <time>2025-09-27T12:16:04.000Z</time>
      </trkpt>
      <trkpt lat="42.82049" lon="1.3651">
        <ele>1471</ele>
        <time>2025-09-27T12:16:05.000Z</time>
      </trkpt>
      <trkpt lat="42.82048" lon="1.36507">
        <ele>1471</ele>
        <time>2025-09-27T12:16:06.000Z</time>
      </trkpt>
      <trkpt lat="42.82047" lon="1.36505">
        <ele>1471</ele>
        <time>2025-09-27T12:16:07.000Z</time>
      </trkpt>
      <trkpt lat="42.82045" lon="1.36501">
        <ele>1471</ele>
        <time>2025-09-27T12:16:08.000Z</time>
      </trkpt>
      <trkpt lat="42.82044" lon="1.365">
        <ele>1472</ele>
        <time>2025-09-27T12:16:09.000Z</time>
      </trkpt>
      <trkpt lat="42.82042" lon="1.36497">
        <ele>1473</ele>
        <time>2025-09-27T12:16:10.000Z</time>
      </trkpt>
      <trkpt lat="42.8204" lon="1.36495">
        <ele>1473</ele>
        <time>2025-09-27T12:16:11.000Z</time>
      </trkpt>
      <trkpt lat="42.82039" lon="1.36493">
        <ele>1474</ele>
        <time>2025-09-27T12:16:12.000Z</time>
      </trkpt>
      <trkpt lat="42.82037" lon="1.36491">
        <ele>1474</ele>
        <time>2025-09-27T12:16:13.000Z</time>
      </trkpt>
      <trkpt lat="42.82036" lon="1.36488">
        <ele>1475</ele>
        <time>2025-09-27T12:16:14.000Z</time>
      </trkpt>
      <trkpt lat="42.82035" lon="1.36486">
        <ele>1475</ele>
        <time>2025-09-27T12:16:15.000Z</time>
      </trkpt>
      <trkpt lat="42.82033" lon="1.36484">
        <ele>1476</ele>
        <time>2025-09-27T12:16:16.000Z</time>
      </trkpt>
      <trkpt lat="42.82032" lon="1.36483">
        <ele>1477</ele>
        <time>2025-09-27T12:16:17.000Z</time>
      </trkpt>
      <trkpt lat="42.8203" lon="1.3648">
        <ele>1477</ele>
        <time>2025-09-27T12:16:18.000Z</time>
      </trkpt>
      <trkpt lat="42.82028" lon="1.36478">
        <ele>1477</ele>
        <time>2025-09-27T12:16:19.000Z</time>
      </trkpt>
      <trkpt lat="42.82026" lon="1.36477">
        <ele>1477</ele>
        <time>2025-09-27T12:16:20.000Z</time>
      </trkpt>
      <trkpt lat="42.82025" lon="1.36474">
        <ele>1477</ele>
        <time>2025-09-27T12:16:21.000Z</time>
      </trkpt>
      <trkpt lat="42.82023" lon="1.36472">
        <ele>1478</ele>
        <time>2025-09-27T12:16:22.000Z</time>
      </trkpt>
      <trkpt lat="42.82022" lon="1.3647">
        <ele>1478</ele>
        <time>2025-09-27T12:16:23.000Z</time>
      </trkpt>
      <trkpt lat="42.8202" lon="1.36468">
        <ele>1478</ele>
        <time>2025-09-27T12:16:24.000Z</time>
      </trkpt>
      <trkpt lat="42.82019" lon="1.36466">
        <ele>1478</ele>
        <time>2025-09-27T12:16:25.000Z</time>
      </trkpt>
      <trkpt lat="42.82019" lon="1.36463">
        <ele>1478</ele>
        <time>2025-09-27T12:16:26.000Z</time>
      </trkpt>
      <trkpt lat="42.82018" lon="1.36459">
        <ele>1478</ele>
        <time>2025-09-27T12:16:27.000Z</time>
      </trkpt>
      <trkpt lat="42.82016" lon="1.36457">
        <ele>1479</ele>
        <time>2025-09-27T12:16:28.000Z</time>
      </trkpt>
      <trkpt lat="42.82015" lon="1.36455">
        <ele>1479</ele>
        <time>2025-09-27T12:16:29.000Z</time>
      </trkpt>
      <trkpt lat="42.82013" lon="1.36452">
        <ele>1479</ele>
        <time>2025-09-27T12:16:30.000Z</time>
      </trkpt>
      <trkpt lat="42.82012" lon="1.36449">
        <ele>1479</ele>
        <time>2025-09-27T12:16:31.000Z</time>
      </trkpt>
      <trkpt lat="42.82011" lon="1.36447">
        <ele>1480</ele>
        <time>2025-09-27T12:16:32.000Z</time>
      </trkpt>
      <trkpt lat="42.8201" lon="1.36444">
        <ele>1480</ele>
        <time>2025-09-27T12:16:33.000Z</time>
      </trkpt>
      <trkpt lat="42.82009" lon="1.36442">
        <ele>1480</ele>
        <time>2025-09-27T12:16:34.000Z</time>
      </trkpt>
      <trkpt lat="42.82008" lon="1.3644">
        <ele>1481</ele>
        <time>2025-09-27T12:16:35.000Z</time>
      </trkpt>
      <trkpt lat="42.82008" lon="1.36437">
        <ele>1481</ele>
        <time>2025-09-27T12:16:36.000Z</time>
      </trkpt>
      <trkpt lat="42.82007" lon="1.36435">
        <ele>1481</ele>
        <time>2025-09-27T12:16:37.000Z</time>
      </trkpt>
      <trkpt lat="42.82005" lon="1.36433">
        <ele>1482</ele>
        <time>2025-09-27T12:16:38.000Z</time>
      </trkpt>
      <trkpt lat="42.82005" lon="1.36431">
        <ele>1482</ele>
        <time>2025-09-27T12:16:39.000Z</time>
      </trkpt>
      <trkpt lat="42.82004" lon="1.36428">
        <ele>1483</ele>
        <time>2025-09-27T12:16:40.000Z</time>
      </trkpt>
      <trkpt lat="42.82003" lon="1.36425">
        <ele>1483</ele>
        <time>2025-09-27T12:16:41.000Z</time>
      </trkpt>
      <trkpt lat="42.82002" lon="1.36422">
        <ele>1483</ele>
        <time>2025-09-27T12:16:42.000Z</time>
      </trkpt>
      <trkpt lat="42.82002" lon="1.36419">
        <ele>1484</ele>
        <time>2025-09-27T12:16:43.000Z</time>
      </trkpt>
      <trkpt lat="42.82001" lon="1.36416">
        <ele>1484</ele>
        <time>2025-09-27T12:16:44.000Z</time>
      </trkpt>
      <trkpt lat="42.82001" lon="1.36414">
        <ele>1485</ele>
        <time>2025-09-27T12:16:45.000Z</time>
      </trkpt>
      <trkpt lat="42.82001" lon="1.36411">
        <ele>1485</ele>
        <time>2025-09-27T12:16:46.000Z</time>
      </trkpt>
      <trkpt lat="42.82002" lon="1.36408">
        <ele>1486</ele>
        <time>2025-09-27T12:16:47.000Z</time>
      </trkpt>
      <trkpt lat="42.82002" lon="1.36405">
        <ele>1487</ele>
        <time>2025-09-27T12:16:48.000Z</time>
      </trkpt>
      <trkpt lat="42.82003" lon="1.36404">
        <ele>1487</ele>
        <time>2025-09-27T12:16:49.000Z</time>
      </trkpt>
      <trkpt lat="42.82005" lon="1.36403">
        <ele>1486</ele>
        <time>2025-09-27T12:16:50.000Z</time>
      </trkpt>
      <trkpt lat="42.82006" lon="1.36401">
        <ele>1487</ele>
        <time>2025-09-27T12:16:51.000Z</time>
      </trkpt>
      <trkpt lat="42.82007" lon="1.364">
        <ele>1487</ele>
        <time>2025-09-27T12:16:52.000Z</time>
      </trkpt>
      <trkpt lat="42.82008" lon="1.36399">
        <ele>1486</ele>
        <time>2025-09-27T12:16:53.000Z</time>
      </trkpt>
      <trkpt lat="42.8201" lon="1.36398">
        <ele>1487</ele>
        <time>2025-09-27T12:16:54.000Z</time>
      </trkpt>
      <trkpt lat="42.8201" lon="1.36398">
        <ele>1487</ele>
        <time>2025-09-27T12:16:55.000Z</time>
      </trkpt>
      <trkpt lat="42.82011" lon="1.36398">
        <ele>1488</ele>
        <time>2025-09-27T12:16:56.000Z</time>
      </trkpt>
      <trkpt lat="42.82013" lon="1.36398">
        <ele>1488</ele>
        <time>2025-09-27T12:16:57.000Z</time>
      </trkpt>
      <trkpt lat="42.82013" lon="1.36399">
        <ele>1488</ele>
        <time>2025-09-27T12:16:58.000Z</time>
      </trkpt>
      <trkpt lat="42.82015" lon="1.36399">
        <ele>1487</ele>
        <time>2025-09-27T12:16:59.000Z</time>
      </trkpt>
      <trkpt lat="42.82017" lon="1.364">
        <ele>1487</ele>
        <time>2025-09-27T12:17:00.000Z</time>
      </trkpt>
      <trkpt lat="42.82019" lon="1.36402">
        <ele>1487</ele>
        <time>2025-09-27T12:17:01.000Z</time>
      </trkpt>
      <trkpt lat="42.8202" lon="1.36402">
        <ele>1487</ele>
        <time>2025-09-27T12:17:02.000Z</time>
      </trkpt>
      <trkpt lat="42.82022" lon="1.36402">
        <ele>1487</ele>
        <time>2025-09-27T12:17:03.000Z</time>
      </trkpt>
      <trkpt lat="42.82024" lon="1.36404">
        <ele>1487</ele>
        <time>2025-09-27T12:17:04.000Z</time>
      </trkpt>
      <trkpt lat="42.82026" lon="1.36405">
        <ele>1487</ele>
        <time>2025-09-27T12:17:05.000Z</time>
      </trkpt>
      <trkpt lat="42.82028" lon="1.36407">
        <ele>1487</ele>
        <time>2025-09-27T12:17:06.000Z</time>
      </trkpt>
      <trkpt lat="42.82031" lon="1.36408">
        <ele>1488</ele>
        <time>2025-09-27T12:17:07.000Z</time>
      </trkpt>
      <trkpt lat="42.82034" lon="1.3641">
        <ele>1489</ele>
        <time>2025-09-27T12:17:08.000Z</time>
      </trkpt>
      <trkpt lat="42.82035" lon="1.36412">
        <ele>1490</ele>
        <time>2025-09-27T12:17:09.000Z</time>
      </trkpt>
      <trkpt lat="42.82038" lon="1.36412">
        <ele>1491</ele>
        <time>2025-09-27T12:17:10.000Z</time>
      </trkpt>
      <trkpt lat="42.82039" lon="1.36414">
        <ele>1491</ele>
        <time>2025-09-27T12:17:11.000Z</time>
      </trkpt>
      <trkpt lat="42.82042" lon="1.36416">
        <ele>1492</ele>
        <time>2025-09-27T12:17:12.000Z</time>
      </trkpt>
      <trkpt lat="42.82044" lon="1.36418">
        <ele>1493</ele>
        <time>2025-09-27T12:17:13.000Z</time>
      </trkpt>
      <trkpt lat="42.82046" lon="1.36419">
        <ele>1493</ele>
        <time>2025-09-27T12:17:14.000Z</time>
      </trkpt>
      <trkpt lat="42.82049" lon="1.3642">
        <ele>1494</ele>
        <time>2025-09-27T12:17:15.000Z</time>
      </trkpt>
      <trkpt lat="42.82051" lon="1.36421">
        <ele>1494</ele>
        <time>2025-09-27T12:17:16.000Z</time>
      </trkpt>
      <trkpt lat="42.82052" lon="1.36423">
        <ele>1495</ele>
        <time>2025-09-27T12:17:17.000Z</time>
      </trkpt>
      <trkpt lat="42.82055" lon="1.36424">
        <ele>1495</ele>
        <time>2025-09-27T12:17:18.000Z</time>
      </trkpt>
      <trkpt lat="42.82058" lon="1.36426">
        <ele>1495</ele>
        <time>2025-09-27T12:17:19.000Z</time>
      </trkpt>
      <trkpt lat="42.8206" lon="1.36428">
        <ele>1496</ele>
        <time>2025-09-27T12:17:20.000Z</time>
      </trkpt>
      <trkpt lat="42.82063" lon="1.3643">
        <ele>1497</ele>
        <time>2025-09-27T12:17:21.000Z</time>
      </trkpt>
      <trkpt lat="42.82065" lon="1.36431">
        <ele>1498</ele>
        <time>2025-09-27T12:17:22.000Z</time>
      </trkpt>
      <trkpt lat="42.82067" lon="1.36433">
        <ele>1498</ele>
        <time>2025-09-27T12:17:23.000Z</time>
      </trkpt>
      <trkpt lat="42.82069" lon="1.36436">
        <ele>1499</ele>
        <time>2025-09-27T12:17:24.000Z</time>
      </trkpt>
      <trkpt lat="42.8207" lon="1.36438">
        <ele>1499</ele>
        <time>2025-09-27T12:17:25.000Z</time>
      </trkpt>
      <trkpt lat="42.82071" lon="1.3644">
        <ele>1500</ele>
        <time>2025-09-27T12:17:26.000Z</time>
      </trkpt>
      <trkpt lat="42.82073" lon="1.36442">
        <ele>1500</ele>
        <time>2025-09-27T12:17:27.000Z</time>
      </trkpt>
      <trkpt lat="42.82074" lon="1.36444">
        <ele>1501</ele>
        <time>2025-09-27T12:17:28.000Z</time>
      </trkpt>
      <trkpt lat="42.82075" lon="1.36446">
        <ele>1501</ele>
        <time>2025-09-27T12:17:29.000Z</time>
      </trkpt>
      <trkpt lat="42.82077" lon="1.36447">
        <ele>1502</ele>
        <time>2025-09-27T12:17:30.000Z</time>
      </trkpt>
      <trkpt lat="42.82078" lon="1.3645">
        <ele>1502</ele>
        <time>2025-09-27T12:17:31.000Z</time>
      </trkpt>
      <trkpt lat="42.8208" lon="1.36452">
        <ele>1502</ele>
        <time>2025-09-27T12:17:32.000Z</time>
      </trkpt>
      <trkpt lat="42.82082" lon="1.36454">
        <ele>1503</ele>
        <time>2025-09-27T12:17:33.000Z</time>
      </trkpt>
      <trkpt lat="42.82084" lon="1.36456">
        <ele>1503</ele>
        <time>2025-09-27T12:17:34.000Z</time>
      </trkpt>
      <trkpt lat="42.82086" lon="1.36459">
        <ele>1504</ele>
        <time>2025-09-27T12:17:35.000Z</time>
      </trkpt>
      <trkpt lat="42.82088" lon="1.36459">
        <ele>1504</ele>
        <time>2025-09-27T12:17:36.000Z</time>
      </trkpt>
      <trkpt lat="42.8209" lon="1.3646">
        <ele>1504</ele>
        <time>2025-09-27T12:17:37.000Z</time>
      </trkpt>
      <trkpt lat="42.82092" lon="1.36461">
        <ele>1505</ele>
        <time>2025-09-27T12:17:38.000Z</time>
      </trkpt>
      <trkpt lat="42.82093" lon="1.36461">
        <ele>1505</ele>
        <time>2025-09-27T12:17:39.000Z</time>
      </trkpt>
      <trkpt lat="42.82096" lon="1.36461">
        <ele>1505</ele>
        <time>2025-09-27T12:17:40.000Z</time>
      </trkpt>
      <trkpt lat="42.82098" lon="1.3646">
        <ele>1505</ele>
        <time>2025-09-27T12:17:41.000Z</time>
      </trkpt>
      <trkpt lat="42.821" lon="1.36459">
        <ele>1506</ele>
        <time>2025-09-27T12:17:42.000Z</time>
      </trkpt>
      <trkpt lat="42.82102" lon="1.36457">
        <ele>1506</ele>
        <time>2025-09-27T12:17:43.000Z</time>
      </trkpt>
      <trkpt lat="42.82103" lon="1.36455">
        <ele>1506</ele>
        <time>2025-09-27T12:17:44.000Z</time>
      </trkpt>
      <trkpt lat="42.82104" lon="1.36452">
        <ele>1506</ele>
        <time>2025-09-27T12:17:45.000Z</time>
      </trkpt>
      <trkpt lat="42.82104" lon="1.3645">
        <ele>1506</ele>
        <time>2025-09-27T12:17:46.000Z</time>
      </trkpt>
      <trkpt lat="42.82105" lon="1.36447">
        <ele>1506</ele>
        <time>2025-09-27T12:17:47.000Z</time>
      </trkpt>
      <trkpt lat="42.82105" lon="1.36445">
        <ele>1506</ele>
        <time>2025-09-27T12:17:48.000Z</time>
      </trkpt>
      <trkpt lat="42.82105" lon="1.36441">
        <ele>1507</ele>
        <time>2025-09-27T12:17:49.000Z</time>
      </trkpt>
      <trkpt lat="42.82106" lon="1.36439">
        <ele>1507</ele>
        <time>2025-09-27T12:17:50.000Z</time>
      </trkpt>
      <trkpt lat="42.82107" lon="1.36436">
        <ele>1508</ele>
        <time>2025-09-27T12:17:51.000Z</time>
      </trkpt>
      <trkpt lat="42.82108" lon="1.36434">
        <ele>1508</ele>
        <time>2025-09-27T12:17:52.000Z</time>
      </trkpt>
      <trkpt lat="42.8211" lon="1.36431">
        <ele>1509</ele>
        <time>2025-09-27T12:17:53.000Z</time>
      </trkpt>
      <trkpt lat="42.82111" lon="1.36428">
        <ele>1509</ele>
        <time>2025-09-27T12:17:54.000Z</time>
      </trkpt>
      <trkpt lat="42.82112" lon="1.36426">
        <ele>1510</ele>
        <time>2025-09-27T12:17:55.000Z</time>
      </trkpt>
      <trkpt lat="42.82113" lon="1.36423">
        <ele>1510</ele>
        <time>2025-09-27T12:17:56.000Z</time>
      </trkpt>
      <trkpt lat="42.82114" lon="1.3642">
        <ele>1511</ele>
        <time>2025-09-27T12:17:57.000Z</time>
      </trkpt>
      <trkpt lat="42.82115" lon="1.36417">
        <ele>1511</ele>
        <time>2025-09-27T12:17:58.000Z</time>
      </trkpt>
      <trkpt lat="42.82116" lon="1.36414">
        <ele>1511</ele>
        <time>2025-09-27T12:17:59.000Z</time>
      </trkpt>
      <trkpt lat="42.82116" lon="1.36412">
        <ele>1512</ele>
        <time>2025-09-27T12:18:00.000Z</time>
      </trkpt>
      <trkpt lat="42.82117" lon="1.36409">
        <ele>1512</ele>
        <time>2025-09-27T12:18:01.000Z</time>
      </trkpt>
      <trkpt lat="42.82118" lon="1.36406">
        <ele>1513</ele>
        <time>2025-09-27T12:18:02.000Z</time>
      </trkpt>
      <trkpt lat="42.82119" lon="1.36402">
        <ele>1513</ele>
        <time>2025-09-27T12:18:03.000Z</time>
      </trkpt>
      <trkpt lat="42.8212" lon="1.36399">
        <ele>1513</ele>
        <time>2025-09-27T12:18:04.000Z</time>
      </trkpt>
      <trkpt lat="42.82121" lon="1.36396">
        <ele>1513</ele>
        <time>2025-09-27T12:18:05.000Z</time>
      </trkpt>
      <trkpt lat="42.82121" lon="1.36393">
        <ele>1514</ele>
        <time>2025-09-27T12:18:06.000Z</time>
      </trkpt>
      <trkpt lat="42.82122" lon="1.3639">
        <ele>1514</ele>
        <time>2025-09-27T12:18:07.000Z</time>
      </trkpt>
      <trkpt lat="42.82123" lon="1.36387">
        <ele>1514</ele>
        <time>2025-09-27T12:18:08.000Z</time>
      </trkpt>
      <trkpt lat="42.82124" lon="1.36384">
        <ele>1514</ele>
        <time>2025-09-27T12:18:09.000Z</time>
      </trkpt>
      <trkpt lat="42.82125" lon="1.36381">
        <ele>1514</ele>
        <time>2025-09-27T12:18:10.000Z</time>
      </trkpt>
      <trkpt lat="42.82126" lon="1.36379">
        <ele>1515</ele>
        <time>2025-09-27T12:18:11.000Z</time>
      </trkpt>
      <trkpt lat="42.82127" lon="1.36376">
        <ele>1515</ele>
        <time>2025-09-27T12:18:12.000Z</time>
      </trkpt>
      <trkpt lat="42.82128" lon="1.36373">
        <ele>1515</ele>
        <time>2025-09-27T12:18:13.000Z</time>
      </trkpt>
      <trkpt lat="42.82128" lon="1.3637">
        <ele>1515</ele>
        <time>2025-09-27T12:18:14.000Z</time>
      </trkpt>
      <trkpt lat="42.82128" lon="1.36367">
        <ele>1515</ele>
        <time>2025-09-27T12:18:15.000Z</time>
      </trkpt>
      <trkpt lat="42.82129" lon="1.36364">
        <ele>1515</ele>
        <time>2025-09-27T12:18:16.000Z</time>
      </trkpt>
      <trkpt lat="42.8213" lon="1.36361">
        <ele>1515</ele>
        <time>2025-09-27T12:18:17.000Z</time>
      </trkpt>
      <trkpt lat="42.82131" lon="1.36358">
        <ele>1515</ele>
        <time>2025-09-27T12:18:18.000Z</time>
      </trkpt>
      <trkpt lat="42.82132" lon="1.36355">
        <ele>1515</ele>
        <time>2025-09-27T12:18:19.000Z</time>
      </trkpt>
      <trkpt lat="42.82132" lon="1.36351">
        <ele>1515</ele>
        <time>2025-09-27T12:18:20.000Z</time>
      </trkpt>
      <trkpt lat="42.82133" lon="1.36349">
        <ele>1515</ele>
        <time>2025-09-27T12:18:21.000Z</time>
      </trkpt>
      <trkpt lat="42.82133" lon="1.36346">
        <ele>1516</ele>
        <time>2025-09-27T12:18:22.000Z</time>
      </trkpt>
      <trkpt lat="42.82134" lon="1.36342">
        <ele>1516</ele>
        <time>2025-09-27T12:18:23.000Z</time>
      </trkpt>
      <trkpt lat="42.82135" lon="1.3634">
        <ele>1516</ele>
        <time>2025-09-27T12:18:24.000Z</time>
      </trkpt>
      <trkpt lat="42.82135" lon="1.36336">
        <ele>1517</ele>
        <time>2025-09-27T12:18:25.000Z</time>
      </trkpt>
      <trkpt lat="42.82135" lon="1.36333">
        <ele>1517</ele>
        <time>2025-09-27T12:18:26.000Z</time>
      </trkpt>
      <trkpt lat="42.82137" lon="1.3633">
        <ele>1517</ele>
        <time>2025-09-27T12:18:27.000Z</time>
      </trkpt>
      <trkpt lat="42.82138" lon="1.36327">
        <ele>1517</ele>
        <time>2025-09-27T12:18:28.000Z</time>
      </trkpt>
      <trkpt lat="42.82138" lon="1.36324">
        <ele>1517</ele>
        <time>2025-09-27T12:18:29.000Z</time>
      </trkpt>
      <trkpt lat="42.82139" lon="1.3632">
        <ele>1518</ele>
        <time>2025-09-27T12:18:30.000Z</time>
      </trkpt>
      <trkpt lat="42.82139" lon="1.36317">
        <ele>1518</ele>
        <time>2025-09-27T12:18:31.000Z</time>
      </trkpt>
      <trkpt lat="42.82139" lon="1.36314">
        <ele>1519</ele>
        <time>2025-09-27T12:18:32.000Z</time>
      </trkpt>
      <trkpt lat="42.8214" lon="1.36311">
        <ele>1519</ele>
        <time>2025-09-27T12:18:33.000Z</time>
      </trkpt>
      <trkpt lat="42.8214" lon="1.36309">
        <ele>1519</ele>
        <time>2025-09-27T12:18:34.000Z</time>
      </trkpt>
      <trkpt lat="42.82141" lon="1.36306">
        <ele>1519</ele>
        <time>2025-09-27T12:18:35.000Z</time>
      </trkpt>
      <trkpt lat="42.82142" lon="1.36303">
        <ele>1519</ele>
        <time>2025-09-27T12:18:36.000Z</time>
      </trkpt>
      <trkpt lat="42.82142" lon="1.363">
        <ele>1520</ele>
        <time>2025-09-27T12:18:37.000Z</time>
      </trkpt>
      <trkpt lat="42.82143" lon="1.36297">
        <ele>1520</ele>
        <time>2025-09-27T12:18:38.000Z</time>
      </trkpt>
      <trkpt lat="42.82144" lon="1.36295">
        <ele>1520</ele>
        <time>2025-09-27T12:18:39.000Z</time>
      </trkpt>
      <trkpt lat="42.82145" lon="1.36292">
        <ele>1521</ele>
        <time>2025-09-27T12:18:40.000Z</time>
      </trkpt>
      <trkpt lat="42.82146" lon="1.3629">
        <ele>1521</ele>
        <time>2025-09-27T12:18:41.000Z</time>
      </trkpt>
      <trkpt lat="42.82147" lon="1.36287">
        <ele>1521</ele>
        <time>2025-09-27T12:18:42.000Z</time>
      </trkpt>
      <trkpt lat="42.82148" lon="1.36285">
        <ele>1522</ele>
        <time>2025-09-27T12:18:43.000Z</time>
      </trkpt>
      <trkpt lat="42.82149" lon="1.36282">
        <ele>1523</ele>
        <time>2025-09-27T12:18:44.000Z</time>
      </trkpt>
      <trkpt lat="42.82149" lon="1.3628">
        <ele>1523</ele>
        <time>2025-09-27T12:18:45.000Z</time>
      </trkpt>
      <trkpt lat="42.8215" lon="1.36278">
        <ele>1524</ele>
        <time>2025-09-27T12:18:46.000Z</time>
      </trkpt>
      <trkpt lat="42.82151" lon="1.36276">
        <ele>1524</ele>
        <time>2025-09-27T12:18:47.000Z</time>
      </trkpt>
      <trkpt lat="42.82151" lon="1.36273">
        <ele>1524</ele>
        <time>2025-09-27T12:18:48.000Z</time>
      </trkpt>
      <trkpt lat="42.82151" lon="1.36271">
        <ele>1525</ele>
        <time>2025-09-27T12:18:49.000Z</time>
      </trkpt>
      <trkpt lat="42.82152" lon="1.36268">
        <ele>1526</ele>
        <time>2025-09-27T12:18:50.000Z</time>
      </trkpt>
      <trkpt lat="42.82152" lon="1.36266">
        <ele>1527</ele>
        <time>2025-09-27T12:18:51.000Z</time>
      </trkpt>
      <trkpt lat="42.82153" lon="1.36264">
        <ele>1527</ele>
        <time>2025-09-27T12:18:52.000Z</time>
      </trkpt>
      <trkpt lat="42.82154" lon="1.36261">
        <ele>1527</ele>
        <time>2025-09-27T12:18:53.000Z</time>
      </trkpt>
      <trkpt lat="42.82155" lon="1.36259">
        <ele>1527</ele>
        <time>2025-09-27T12:18:54.000Z</time>
      </trkpt>
      <trkpt lat="42.82155" lon="1.36256">
        <ele>1527</ele>
        <time>2025-09-27T12:18:55.000Z</time>
      </trkpt>
      <trkpt lat="42.82156" lon="1.36253">
        <ele>1528</ele>
        <time>2025-09-27T12:18:56.000Z</time>
      </trkpt>
      <trkpt lat="42.82157" lon="1.3625">
        <ele>1528</ele>
        <time>2025-09-27T12:18:57.000Z</time>
      </trkpt>
      <trkpt lat="42.82159" lon="1.36248">
        <ele>1528</ele>
        <time>2025-09-27T12:18:58.000Z</time>
      </trkpt>
      <trkpt lat="42.82159" lon="1.36245">
        <ele>1528</ele>
        <time>2025-09-27T12:18:59.000Z</time>
      </trkpt>
      <trkpt lat="42.8216" lon="1.36243">
        <ele>1528</ele>
        <time>2025-09-27T12:19:00.000Z</time>
      </trkpt>
      <trkpt lat="42.82161" lon="1.3624">
        <ele>1529</ele>
        <time>2025-09-27T12:19:01.000Z</time>
      </trkpt>
      <trkpt lat="42.82162" lon="1.36237">
        <ele>1529</ele>
        <time>2025-09-27T12:19:02.000Z</time>
      </trkpt>
      <trkpt lat="42.82163" lon="1.36235">
        <ele>1529</ele>
        <time>2025-09-27T12:19:03.000Z</time>
      </trkpt>
      <trkpt lat="42.82164" lon="1.36232">
        <ele>1530</ele>
        <time>2025-09-27T12:19:04.000Z</time>
      </trkpt>
      <trkpt lat="42.82165" lon="1.36229">
        <ele>1531</ele>
        <time>2025-09-27T12:19:05.000Z</time>
      </trkpt>
      <trkpt lat="42.82166" lon="1.36226">
        <ele>1531</ele>
        <time>2025-09-27T12:19:06.000Z</time>
      </trkpt>
      <trkpt lat="42.82167" lon="1.36223">
        <ele>1531</ele>
        <time>2025-09-27T12:19:07.000Z</time>
      </trkpt>
      <trkpt lat="42.82168" lon="1.36221">
        <ele>1532</ele>
        <time>2025-09-27T12:19:08.000Z</time>
      </trkpt>
      <trkpt lat="42.82169" lon="1.36218">
        <ele>1532</ele>
        <time>2025-09-27T12:19:09.000Z</time>
      </trkpt>
      <trkpt lat="42.8217" lon="1.36215">
        <ele>1532</ele>
        <time>2025-09-27T12:19:10.000Z</time>
      </trkpt>
      <trkpt lat="42.8217" lon="1.36212">
        <ele>1533</ele>
        <time>2025-09-27T12:19:11.000Z</time>
      </trkpt>
      <trkpt lat="42.82171" lon="1.3621">
        <ele>1534</ele>
        <time>2025-09-27T12:19:12.000Z</time>
      </trkpt>
      <trkpt lat="42.82172" lon="1.36208">
        <ele>1534</ele>
        <time>2025-09-27T12:19:13.000Z</time>
      </trkpt>
      <trkpt lat="42.82174" lon="1.36205">
        <ele>1535</ele>
        <time>2025-09-27T12:19:14.000Z</time>
      </trkpt>
      <trkpt lat="42.82175" lon="1.36203">
        <ele>1535</ele>
        <time>2025-09-27T12:19:15.000Z</time>
      </trkpt>
      <trkpt lat="42.82176" lon="1.362">
        <ele>1535</ele>
        <time>2025-09-27T12:19:16.000Z</time>
      </trkpt>
      <trkpt lat="42.82177" lon="1.36198">
        <ele>1536</ele>
        <time>2025-09-27T12:19:17.000Z</time>
      </trkpt>
      <trkpt lat="42.82178" lon="1.36195">
        <ele>1536</ele>
        <time>2025-09-27T12:19:18.000Z</time>
      </trkpt>
      <trkpt lat="42.82179" lon="1.36192">
        <ele>1536</ele>
        <time>2025-09-27T12:19:19.000Z</time>
      </trkpt>
      <trkpt lat="42.8218" lon="1.36189">
        <ele>1537</ele>
        <time>2025-09-27T12:19:20.000Z</time>
      </trkpt>
      <trkpt lat="42.82181" lon="1.36186">
        <ele>1537</ele>
        <time>2025-09-27T12:19:21.000Z</time>
      </trkpt>
      <trkpt lat="42.82182" lon="1.36183">
        <ele>1538</ele>
        <time>2025-09-27T12:19:22.000Z</time>
      </trkpt>
      <trkpt lat="42.82183" lon="1.36179">
        <ele>1538</ele>
        <time>2025-09-27T12:19:23.000Z</time>
      </trkpt>
      <trkpt lat="42.82185" lon="1.36176">
        <ele>1539</ele>
        <time>2025-09-27T12:19:24.000Z</time>
      </trkpt>
      <trkpt lat="42.82186" lon="1.36173">
        <ele>1539</ele>
        <time>2025-09-27T12:19:25.000Z</time>
      </trkpt>
      <trkpt lat="42.82187" lon="1.36171">
        <ele>1539</ele>
        <time>2025-09-27T12:19:26.000Z</time>
      </trkpt>
      <trkpt lat="42.82188" lon="1.36168">
        <ele>1539</ele>
        <time>2025-09-27T12:19:27.000Z</time>
      </trkpt>
      <trkpt lat="42.82189" lon="1.36165">
        <ele>1540</ele>
        <time>2025-09-27T12:19:28.000Z</time>
      </trkpt>
      <trkpt lat="42.82189" lon="1.36162">
        <ele>1540</ele>
        <time>2025-09-27T12:19:29.000Z</time>
      </trkpt>
      <trkpt lat="42.8219" lon="1.36159">
        <ele>1541</ele>
        <time>2025-09-27T12:19:30.000Z</time>
      </trkpt>
      <trkpt lat="42.82191" lon="1.36157">
        <ele>1541</ele>
        <time>2025-09-27T12:19:31.000Z</time>
      </trkpt>
      <trkpt lat="42.82192" lon="1.36154">
        <ele>1542</ele>
        <time>2025-09-27T12:19:32.000Z</time>
      </trkpt>
      <trkpt lat="42.82192" lon="1.36152">
        <ele>1542</ele>
        <time>2025-09-27T12:19:33.000Z</time>
      </trkpt>
      <trkpt lat="42.82192" lon="1.36149">
        <ele>1542</ele>
        <time>2025-09-27T12:19:34.000Z</time>
      </trkpt>
      <trkpt lat="42.82193" lon="1.36147">
        <ele>1543</ele>
        <time>2025-09-27T12:19:35.000Z</time>
      </trkpt>
      <trkpt lat="42.82193" lon="1.36144">
        <ele>1543</ele>
        <time>2025-09-27T12:19:36.000Z</time>
      </trkpt>
      <trkpt lat="42.82194" lon="1.36141">
        <ele>1543</ele>
        <time>2025-09-27T12:19:37.000Z</time>
      </trkpt>
      <trkpt lat="42.82195" lon="1.36138">
        <ele>1543</ele>
        <time>2025-09-27T12:19:38.000Z</time>
      </trkpt>
      <trkpt lat="42.82195" lon="1.36135">
        <ele>1544</ele>
        <time>2025-09-27T12:19:39.000Z</time>
      </trkpt>
      <trkpt lat="42.82196" lon="1.36132">
        <ele>1544</ele>
        <time>2025-09-27T12:19:40.000Z</time>
      </trkpt>
      <trkpt lat="42.82196" lon="1.36129">
        <ele>1545</ele>
        <time>2025-09-27T12:19:41.000Z</time>
      </trkpt>
      <trkpt lat="42.82197" lon="1.36126">
        <ele>1545</ele>
        <time>2025-09-27T12:19:42.000Z</time>
      </trkpt>
      <trkpt lat="42.82197" lon="1.36123">
        <ele>1545</ele>
        <time>2025-09-27T12:19:43.000Z</time>
      </trkpt>
      <trkpt lat="42.82198" lon="1.3612">
        <ele>1546</ele>
        <time>2025-09-27T12:19:44.000Z</time>
      </trkpt>
      <trkpt lat="42.82199" lon="1.36118">
        <ele>1546</ele>
        <time>2025-09-27T12:19:45.000Z</time>
      </trkpt>
      <trkpt lat="42.82199" lon="1.36115">
        <ele>1546</ele>
        <time>2025-09-27T12:19:46.000Z</time>
      </trkpt>
      <trkpt lat="42.82199" lon="1.36112">
        <ele>1546</ele>
        <time>2025-09-27T12:19:47.000Z</time>
      </trkpt>
      <trkpt lat="42.82199" lon="1.3611">
        <ele>1546</ele>
        <time>2025-09-27T12:19:48.000Z</time>
      </trkpt>
      <trkpt lat="42.822" lon="1.36107">
        <ele>1545</ele>
        <time>2025-09-27T12:19:49.000Z</time>
      </trkpt>
      <trkpt lat="42.822" lon="1.36104">
        <ele>1546</ele>
        <time>2025-09-27T12:19:50.000Z</time>
      </trkpt>
      <trkpt lat="42.82201" lon="1.36101">
        <ele>1547</ele>
        <time>2025-09-27T12:19:51.000Z</time>
      </trkpt>
      <trkpt lat="42.82201" lon="1.36098">
        <ele>1547</ele>
        <time>2025-09-27T12:19:52.000Z</time>
      </trkpt>
      <trkpt lat="42.82202" lon="1.36096">
        <ele>1547</ele>
        <time>2025-09-27T12:19:53.000Z</time>
      </trkpt>
      <trkpt lat="42.82202" lon="1.36093">
        <ele>1548</ele>
        <time>2025-09-27T12:19:54.000Z</time>
      </trkpt>
      <trkpt lat="42.82202" lon="1.36091">
        <ele>1548</ele>
        <time>2025-09-27T12:19:55.000Z</time>
      </trkpt>
      <trkpt lat="42.82202" lon="1.36088">
        <ele>1549</ele>
        <time>2025-09-27T12:19:56.000Z</time>
      </trkpt>
      <trkpt lat="42.82202" lon="1.36085">
        <ele>1550</ele>
        <time>2025-09-27T12:19:57.000Z</time>
      </trkpt>
      <trkpt lat="42.82201" lon="1.36082">
        <ele>1550</ele>
        <time>2025-09-27T12:19:58.000Z</time>
      </trkpt>
      <trkpt lat="42.822" lon="1.3608">
        <ele>1551</ele>
        <time>2025-09-27T12:19:59.000Z</time>
      </trkpt>
      <trkpt lat="42.82199" lon="1.36078">
        <ele>1550</ele>
        <time>2025-09-27T12:20:00.000Z</time>
      </trkpt>
      <trkpt lat="42.822" lon="1.36077">
        <ele>1551</ele>
        <time>2025-09-27T12:20:01.000Z</time>
      </trkpt>
      <trkpt lat="42.822" lon="1.36074">
        <ele>1552</ele>
        <time>2025-09-27T12:20:02.000Z</time>
      </trkpt>
      <trkpt lat="42.822" lon="1.36072">
        <ele>1552</ele>
        <time>2025-09-27T12:20:03.000Z</time>
      </trkpt>
      <trkpt lat="42.82199" lon="1.36072">
        <ele>1552</ele>
        <time>2025-09-27T12:20:04.000Z</time>
      </trkpt>
      <trkpt lat="42.822" lon="1.36073">
        <ele>1549</ele>
        <time>2025-09-27T12:20:48.000Z</time>
      </trkpt>
      <trkpt lat="42.82201" lon="1.36071">
        <ele>1549</ele>
        <time>2025-09-27T12:20:49.000Z</time>
      </trkpt>
      <trkpt lat="42.82202" lon="1.3607">
        <ele>1549</ele>
        <time>2025-09-27T12:20:50.000Z</time>
      </trkpt>
      <trkpt lat="42.82202" lon="1.36068">
        <ele>1549</ele>
        <time>2025-09-27T12:20:51.000Z</time>
      </trkpt>
      <trkpt lat="42.82203" lon="1.36065">
        <ele>1550</ele>
        <time>2025-09-27T12:20:52.000Z</time>
      </trkpt>
      <trkpt lat="42.82204" lon="1.36063">
        <ele>1550</ele>
        <time>2025-09-27T12:20:53.000Z</time>
      </trkpt>
      <trkpt lat="42.82204" lon="1.36062">
        <ele>1550</ele>
        <time>2025-09-27T12:20:54.000Z</time>
      </trkpt>
      <trkpt lat="42.82204" lon="1.3606">
        <ele>1550</ele>
        <time>2025-09-27T12:20:55.000Z</time>
      </trkpt>
      <trkpt lat="42.82205" lon="1.36058">
        <ele>1550</ele>
        <time>2025-09-27T12:20:56.000Z</time>
      </trkpt>
      <trkpt lat="42.82205" lon="1.36057">
        <ele>1551</ele>
        <time>2025-09-27T12:20:57.000Z</time>
      </trkpt>
      <trkpt lat="42.82205" lon="1.36056">
        <ele>1551</ele>
        <time>2025-09-27T12:20:58.000Z</time>
      </trkpt>
      <trkpt lat="42.82205" lon="1.36056">
        <ele>1550</ele>
        <time>2025-09-27T12:20:59.000Z</time>
      </trkpt>
      <trkpt lat="42.82205" lon="1.36055">
        <ele>1551</ele>
        <time>2025-09-27T12:21:00.000Z</time>
      </trkpt>
      <trkpt lat="42.82206" lon="1.36054">
        <ele>1551</ele>
        <time>2025-09-27T12:21:01.000Z</time>
      </trkpt>
      <trkpt lat="42.82206" lon="1.36053">
        <ele>1551</ele>
        <time>2025-09-27T12:21:02.000Z</time>
      </trkpt>
      <trkpt lat="42.82206" lon="1.36052">
        <ele>1551</ele>
        <time>2025-09-27T12:21:03.000Z</time>
      </trkpt>
      <trkpt lat="42.82206" lon="1.3605">
        <ele>1551</ele>
        <time>2025-09-27T12:21:04.000Z</time>
      </trkpt>
      <trkpt lat="42.82207" lon="1.36049">
        <ele>1551</ele>
        <time>2025-09-27T12:21:05.000Z</time>
      </trkpt>
      <trkpt lat="42.82207" lon="1.36048">
        <ele>1551</ele>
        <time>2025-09-27T12:21:06.000Z</time>
      </trkpt>
      <trkpt lat="42.82207" lon="1.36047">
        <ele>1551</ele>
        <time>2025-09-27T12:21:07.000Z</time>
      </trkpt>
      <trkpt lat="42.82207" lon="1.36046">
        <ele>1552</ele>
        <time>2025-09-27T12:21:08.000Z</time>
      </trkpt>
      <trkpt lat="42.82207" lon="1.36045">
        <ele>1552</ele>
        <time>2025-09-27T12:21:09.000Z</time>
      </trkpt>
      <trkpt lat="42.82207" lon="1.36043">
        <ele>1552</ele>
        <time>2025-09-27T12:21:10.000Z</time>
      </trkpt>
      <trkpt lat="42.82208" lon="1.36042">
        <ele>1553</ele>
        <time>2025-09-27T12:21:11.000Z</time>
      </trkpt>
      <trkpt lat="42.82209" lon="1.36042">
        <ele>1553</ele>
        <time>2025-09-27T12:21:12.000Z</time>
      </trkpt>
      <trkpt lat="42.82209" lon="1.36041">
        <ele>1553</ele>
        <time>2025-09-27T12:21:13.000Z</time>
      </trkpt>
      <trkpt lat="42.8221" lon="1.3604">
        <ele>1553</ele>
        <time>2025-09-27T12:21:14.000Z</time>
      </trkpt>
      <trkpt lat="42.8221" lon="1.36039">
        <ele>1553</ele>
        <time>2025-09-27T12:21:15.000Z</time>
      </trkpt>
      <trkpt lat="42.82211" lon="1.36038">
        <ele>1554</ele>
        <time>2025-09-27T12:21:16.000Z</time>
      </trkpt>
      <trkpt lat="42.82212" lon="1.36037">
        <ele>1555</ele>
        <time>2025-09-27T12:21:17.000Z</time>
      </trkpt>
      <trkpt lat="42.82212" lon="1.36036">
        <ele>1555</ele>
        <time>2025-09-27T12:21:18.000Z</time>
      </trkpt>
      <trkpt lat="42.82212" lon="1.36035">
        <ele>1556</ele>
        <time>2025-09-27T12:21:19.000Z</time>
      </trkpt>
      <trkpt lat="42.82213" lon="1.36034">
        <ele>1556</ele>
        <time>2025-09-27T12:21:20.000Z</time>
      </trkpt>
      <trkpt lat="42.82213" lon="1.36033">
        <ele>1557</ele>
        <time>2025-09-27T12:21:21.000Z</time>
      </trkpt>
      <trkpt lat="42.82214" lon="1.36032">
        <ele>1557</ele>
        <time>2025-09-27T12:21:22.000Z</time>
      </trkpt>
      <trkpt lat="42.82214" lon="1.36032">
        <ele>1557</ele>
        <time>2025-09-27T12:21:23.000Z</time>
      </trkpt>
      <trkpt lat="42.82215" lon="1.36031">
        <ele>1557</ele>
        <time>2025-09-27T12:21:24.000Z</time>
      </trkpt>
      <trkpt lat="42.82216" lon="1.36031">
        <ele>1557</ele>
        <time>2025-09-27T12:21:25.000Z</time>
      </trkpt>
      <trkpt lat="42.82217" lon="1.3603">
        <ele>1558</ele>
        <time>2025-09-27T12:21:26.000Z</time>
      </trkpt>
      <trkpt lat="42.82217" lon="1.3603">
        <ele>1558</ele>
        <time>2025-09-27T12:21:27.000Z</time>
      </trkpt>
      <trkpt lat="42.82218" lon="1.36029">
        <ele>1558</ele>
        <time>2025-09-27T12:21:28.000Z</time>
      </trkpt>
      <trkpt lat="42.82218" lon="1.36028">
        <ele>1558</ele>
        <time>2025-09-27T12:21:29.000Z</time>
      </trkpt>
      <trkpt lat="42.82219" lon="1.36027">
        <ele>1559</ele>
        <time>2025-09-27T12:21:30.000Z</time>
      </trkpt>
      <trkpt lat="42.8222" lon="1.36027">
        <ele>1559</ele>
        <time>2025-09-27T12:21:31.000Z</time>
      </trkpt>
      <trkpt lat="42.8222" lon="1.36027">
        <ele>1559</ele>
        <time>2025-09-27T12:21:32.000Z</time>
      </trkpt>
      <trkpt lat="42.82221" lon="1.36026">
        <ele>1560</ele>
        <time>2025-09-27T12:21:33.000Z</time>
      </trkpt>
      <trkpt lat="42.82222" lon="1.36026">
        <ele>1560</ele>
        <time>2025-09-27T12:21:34.000Z</time>
      </trkpt>
      <trkpt lat="42.82223" lon="1.36025">
        <ele>1560</ele>
        <time>2025-09-27T12:21:35.000Z</time>
      </trkpt>
      <trkpt lat="42.82224" lon="1.36025">
        <ele>1561</ele>
        <time>2025-09-27T12:21:36.000Z</time>
      </trkpt>
      <trkpt lat="42.82224" lon="1.36025">
        <ele>1561</ele>
        <time>2025-09-27T12:21:37.000Z</time>
      </trkpt>
      <trkpt lat="42.82224" lon="1.36025">
        <ele>1561</ele>
        <time>2025-09-27T12:21:38.000Z</time>
      </trkpt>
      <trkpt lat="42.82226" lon="1.36024">
        <ele>1561</ele>
        <time>2025-09-27T12:21:39.000Z</time>
      </trkpt>
      <trkpt lat="42.82226" lon="1.36023">
        <ele>1562</ele>
        <time>2025-09-27T12:21:40.000Z</time>
      </trkpt>
      <trkpt lat="42.82227" lon="1.36023">
        <ele>1562</ele>
        <time>2025-09-27T12:21:41.000Z</time>
      </trkpt>
      <trkpt lat="42.82227" lon="1.36023">
        <ele>1562</ele>
        <time>2025-09-27T12:21:42.000Z</time>
      </trkpt>
      <trkpt lat="42.82228" lon="1.36023">
        <ele>1562</ele>
        <time>2025-09-27T12:21:43.000Z</time>
      </trkpt>
      <trkpt lat="42.82228" lon="1.36022">
        <ele>1562</ele>
        <time>2025-09-27T12:21:44.000Z</time>
      </trkpt>
      <trkpt lat="42.82229" lon="1.36023">
        <ele>1562</ele>
        <time>2025-09-27T12:21:45.000Z</time>
      </trkpt>
      <trkpt lat="42.8223" lon="1.36022">
        <ele>1563</ele>
        <time>2025-09-27T12:21:46.000Z</time>
      </trkpt>
      <trkpt lat="42.8223" lon="1.36021">
        <ele>1562</ele>
        <time>2025-09-27T12:21:47.000Z</time>
      </trkpt>
      <trkpt lat="42.82231" lon="1.3602">
        <ele>1562</ele>
        <time>2025-09-27T12:21:48.000Z</time>
      </trkpt>
      <trkpt lat="42.82231" lon="1.3602">
        <ele>1562</ele>
        <time>2025-09-27T12:21:49.000Z</time>
      </trkpt>
      <trkpt lat="42.82231" lon="1.3602">
        <ele>1562</ele>
        <time>2025-09-27T12:21:50.000Z</time>
      </trkpt>
      <trkpt lat="42.82231" lon="1.36019">
        <ele>1562</ele>
        <time>2025-09-27T12:21:51.000Z</time>
      </trkpt>
      <trkpt lat="42.82235" lon="1.36017">
        <ele>1565</ele>
        <time>2025-09-27T12:23:07.000Z</time>
      </trkpt>
      <trkpt lat="42.82235" lon="1.36016">
        <ele>1565</ele>
        <time>2025-09-27T12:23:08.000Z</time>
      </trkpt>
      <trkpt lat="42.82236" lon="1.36016">
        <ele>1565</ele>
        <time>2025-09-27T12:23:09.000Z</time>
      </trkpt>
      <trkpt lat="42.82236" lon="1.36015">
        <ele>1566</ele>
        <time>2025-09-27T12:23:10.000Z</time>
      </trkpt>
      <trkpt lat="42.82237" lon="1.36014">
        <ele>1567</ele>
        <time>2025-09-27T12:23:11.000Z</time>
      </trkpt>
      <trkpt lat="42.82237" lon="1.36014">
        <ele>1566</ele>
        <time>2025-09-27T12:23:12.000Z</time>
      </trkpt>
      <trkpt lat="42.82237" lon="1.36013">
        <ele>1566</ele>
        <time>2025-09-27T12:23:13.000Z</time>
      </trkpt>
      <trkpt lat="42.82238" lon="1.36013">
        <ele>1567</ele>
        <time>2025-09-27T12:23:14.000Z</time>
      </trkpt>
      <trkpt lat="42.82238" lon="1.36013">
        <ele>1569</ele>
        <time>2025-09-27T12:23:15.000Z</time>
      </trkpt>
      <trkpt lat="42.82238" lon="1.36012">
        <ele>1570</ele>
        <time>2025-09-27T12:23:16.000Z</time>
      </trkpt>
      <trkpt lat="42.82238" lon="1.36013">
        <ele>1569</ele>
        <time>2025-09-27T12:23:17.000Z</time>
      </trkpt>
      <trkpt lat="42.82239" lon="1.36013">
        <ele>1570</ele>
        <time>2025-09-27T12:23:18.000Z</time>
      </trkpt>
      <trkpt lat="42.82239" lon="1.36012">
        <ele>1571</ele>
        <time>2025-09-27T12:23:19.000Z</time>
      </trkpt>
      <trkpt lat="42.8224" lon="1.36012">
        <ele>1571</ele>
        <time>2025-09-27T12:23:20.000Z</time>
      </trkpt>
      <trkpt lat="42.82241" lon="1.36012">
        <ele>1572</ele>
        <time>2025-09-27T12:23:21.000Z</time>
      </trkpt>
      <trkpt lat="42.82242" lon="1.36011">
        <ele>1573</ele>
        <time>2025-09-27T12:23:22.000Z</time>
      </trkpt>
      <trkpt lat="42.82242" lon="1.36011">
        <ele>1573</ele>
        <time>2025-09-27T12:23:23.000Z</time>
      </trkpt>
      <trkpt lat="42.82243" lon="1.36011">
        <ele>1573</ele>
        <time>2025-09-27T12:23:24.000Z</time>
      </trkpt>
      <trkpt lat="42.82244" lon="1.3601">
        <ele>1574</ele>
        <time>2025-09-27T12:23:25.000Z</time>
      </trkpt>
      <trkpt lat="42.82244" lon="1.3601">
        <ele>1574</ele>
        <time>2025-09-27T12:23:26.000Z</time>
      </trkpt>
      <trkpt lat="42.82245" lon="1.36009">
        <ele>1574</ele>
        <time>2025-09-27T12:23:27.000Z</time>
      </trkpt>
      <trkpt lat="42.82246" lon="1.36009">
        <ele>1574</ele>
        <time>2025-09-27T12:23:28.000Z</time>
      </trkpt>
      <trkpt lat="42.82246" lon="1.36008">
        <ele>1575</ele>
        <time>2025-09-27T12:23:29.000Z</time>
      </trkpt>
      <trkpt lat="42.82247" lon="1.36008">
        <ele>1575</ele>
        <time>2025-09-27T12:23:30.000Z</time>
      </trkpt>
      <trkpt lat="42.82248" lon="1.36008">
        <ele>1575</ele>
        <time>2025-09-27T12:23:31.000Z</time>
      </trkpt>
      <trkpt lat="42.82248" lon="1.36008">
        <ele>1575</ele>
        <time>2025-09-27T12:23:32.000Z</time>
      </trkpt>
      <trkpt lat="42.82248" lon="1.36008">
        <ele>1576</ele>
        <time>2025-09-27T12:23:33.000Z</time>
      </trkpt>
      <trkpt lat="42.82249" lon="1.36008">
        <ele>1576</ele>
        <time>2025-09-27T12:23:34.000Z</time>
      </trkpt>
      <trkpt lat="42.82249" lon="1.36008">
        <ele>1577</ele>
        <time>2025-09-27T12:23:35.000Z</time>
      </trkpt>
      <trkpt lat="42.82249" lon="1.36007">
        <ele>1577</ele>
        <time>2025-09-27T12:23:36.000Z</time>
      </trkpt>
      <trkpt lat="42.82249" lon="1.36007">
        <ele>1577</ele>
        <time>2025-09-27T12:23:37.000Z</time>
      </trkpt>
      <trkpt lat="42.8225" lon="1.36006">
        <ele>1577</ele>
        <time>2025-09-27T12:23:38.000Z</time>
      </trkpt>
      <trkpt lat="42.82251" lon="1.36006">
        <ele>1577</ele>
        <time>2025-09-27T12:23:39.000Z</time>
      </trkpt>
      <trkpt lat="42.82252" lon="1.36005">
        <ele>1577</ele>
        <time>2025-09-27T12:23:40.000Z</time>
      </trkpt>
      <trkpt lat="42.82252" lon="1.36005">
        <ele>1577</ele>
        <time>2025-09-27T12:23:41.000Z</time>
      </trkpt>
      <trkpt lat="42.82253" lon="1.36004">
        <ele>1577</ele>
        <time>2025-09-27T12:23:42.000Z</time>
      </trkpt>
      <trkpt lat="42.82254" lon="1.36004">
        <ele>1578</ele>
        <time>2025-09-27T12:23:43.000Z</time>
      </trkpt>
      <trkpt lat="42.82255" lon="1.36005">
        <ele>1578</ele>
        <time>2025-09-27T12:23:44.000Z</time>
      </trkpt>
      <trkpt lat="42.82256" lon="1.36004">
        <ele>1578</ele>
        <time>2025-09-27T12:23:45.000Z</time>
      </trkpt>
      <trkpt lat="42.82257" lon="1.36004">
        <ele>1578</ele>
        <time>2025-09-27T12:23:46.000Z</time>
      </trkpt>
      <trkpt lat="42.82257" lon="1.36004">
        <ele>1578</ele>
        <time>2025-09-27T12:23:47.000Z</time>
      </trkpt>
      <trkpt lat="42.82258" lon="1.36004">
        <ele>1578</ele>
        <time>2025-09-27T12:23:48.000Z</time>
      </trkpt>
      <trkpt lat="42.82258" lon="1.36003">
        <ele>1578</ele>
        <time>2025-09-27T12:23:49.000Z</time>
      </trkpt>
      <trkpt lat="42.82258" lon="1.36003">
        <ele>1578</ele>
        <time>2025-09-27T12:23:50.000Z</time>
      </trkpt>
      <trkpt lat="42.82259" lon="1.36004">
        <ele>1578</ele>
        <time>2025-09-27T12:23:51.000Z</time>
      </trkpt>
      <trkpt lat="42.82262" lon="1.36002">
        <ele>1579</ele>
        <time>2025-09-27T12:24:05.000Z</time>
      </trkpt>
      <trkpt lat="42.82263" lon="1.36001">
        <ele>1579</ele>
        <time>2025-09-27T12:24:06.000Z</time>
      </trkpt>
      <trkpt lat="42.82263" lon="1.36001">
        <ele>1580</ele>
        <time>2025-09-27T12:24:07.000Z</time>
      </trkpt>
      <trkpt lat="42.82264" lon="1.36">
        <ele>1580</ele>
        <time>2025-09-27T12:24:08.000Z</time>
      </trkpt>
      <trkpt lat="42.82265" lon="1.35999">
        <ele>1579</ele>
        <time>2025-09-27T12:24:09.000Z</time>
      </trkpt>
      <trkpt lat="42.82265" lon="1.35998">
        <ele>1580</ele>
        <time>2025-09-27T12:24:10.000Z</time>
      </trkpt>
      <trkpt lat="42.82266" lon="1.35996">
        <ele>1580</ele>
        <time>2025-09-27T12:24:11.000Z</time>
      </trkpt>
      <trkpt lat="42.82266" lon="1.35996">
        <ele>1580</ele>
        <time>2025-09-27T12:24:12.000Z</time>
      </trkpt>
      <trkpt lat="42.82267" lon="1.35995">
        <ele>1580</ele>
        <time>2025-09-27T12:24:13.000Z</time>
      </trkpt>
      <trkpt lat="42.82267" lon="1.35994">
        <ele>1580</ele>
        <time>2025-09-27T12:24:14.000Z</time>
      </trkpt>
      <trkpt lat="42.82268" lon="1.35993">
        <ele>1581</ele>
        <time>2025-09-27T12:24:15.000Z</time>
      </trkpt>
      <trkpt lat="42.82268" lon="1.35993">
        <ele>1580</ele>
        <time>2025-09-27T12:24:16.000Z</time>
      </trkpt>
      <trkpt lat="42.82269" lon="1.35993">
        <ele>1580</ele>
        <time>2025-09-27T12:24:17.000Z</time>
      </trkpt>
      <trkpt lat="42.8227" lon="1.35993">
        <ele>1581</ele>
        <time>2025-09-27T12:24:18.000Z</time>
      </trkpt>
      <trkpt lat="42.82268" lon="1.35995">
        <ele>1585</ele>
        <time>2025-09-27T12:25:08.000Z</time>
      </trkpt>
      <trkpt lat="42.82268" lon="1.35995">
        <ele>1585</ele>
        <time>2025-09-27T12:25:09.000Z</time>
      </trkpt>
      <trkpt lat="42.82267" lon="1.35996">
        <ele>1585</ele>
        <time>2025-09-27T12:25:10.000Z</time>
      </trkpt>
      <trkpt lat="42.82266" lon="1.35997">
        <ele>1584</ele>
        <time>2025-09-27T12:25:11.000Z</time>
      </trkpt>
      <trkpt lat="42.82265" lon="1.35997">
        <ele>1584</ele>
        <time>2025-09-27T12:25:12.000Z</time>
      </trkpt>
      <trkpt lat="42.82265" lon="1.35999">
        <ele>1584</ele>
        <time>2025-09-27T12:25:13.000Z</time>
      </trkpt>
      <trkpt lat="42.82264" lon="1.35999">
        <ele>1585</ele>
        <time>2025-09-27T12:25:14.000Z</time>
      </trkpt>
      <trkpt lat="42.82264" lon="1.36">
        <ele>1585</ele>
        <time>2025-09-27T12:25:15.000Z</time>
      </trkpt>
      <trkpt lat="42.82263" lon="1.36001">
        <ele>1585</ele>
        <time>2025-09-27T12:25:16.000Z</time>
      </trkpt>
      <trkpt lat="42.82263" lon="1.36003">
        <ele>1584</ele>
        <time>2025-09-27T12:25:17.000Z</time>
      </trkpt>
      <trkpt lat="42.82263" lon="1.36004">
        <ele>1584</ele>
        <time>2025-09-27T12:25:18.000Z</time>
      </trkpt>
      <trkpt lat="42.82264" lon="1.36">
        <ele>1582</ele>
        <time>2025-09-27T12:25:55.000Z</time>
      </trkpt>
      <trkpt lat="42.82265" lon="1.35999">
        <ele>1581</ele>
        <time>2025-09-27T12:25:56.000Z</time>
      </trkpt>
      <trkpt lat="42.82265" lon="1.35998">
        <ele>1581</ele>
        <time>2025-09-27T12:25:57.000Z</time>
      </trkpt>
      <trkpt lat="42.82266" lon="1.35997">
        <ele>1581</ele>
        <time>2025-09-27T12:25:58.000Z</time>
      </trkpt>
      <trkpt lat="42.82267" lon="1.35997">
        <ele>1580</ele>
        <time>2025-09-27T12:25:59.000Z</time>
      </trkpt>
      <trkpt lat="42.82267" lon="1.35996">
        <ele>1580</ele>
        <time>2025-09-27T12:26:00.000Z</time>
      </trkpt>
      <trkpt lat="42.82268" lon="1.35995">
        <ele>1581</ele>
        <time>2025-09-27T12:26:01.000Z</time>
      </trkpt>
      <trkpt lat="42.82269" lon="1.35994">
        <ele>1580</ele>
        <time>2025-09-27T12:26:02.000Z</time>
      </trkpt>
      <trkpt lat="42.82269" lon="1.35993">
        <ele>1581</ele>
        <time>2025-09-27T12:26:03.000Z</time>
      </trkpt>
      <trkpt lat="42.8227" lon="1.35993">
        <ele>1581</ele>
        <time>2025-09-27T12:26:04.000Z</time>
      </trkpt>
      <trkpt lat="42.82271" lon="1.35993">
        <ele>1581</ele>
        <time>2025-09-27T12:26:05.000Z</time>
      </trkpt>
      <trkpt lat="42.82271" lon="1.35993">
        <ele>1580</ele>
        <time>2025-09-27T12:26:06.000Z</time>
      </trkpt>
      <trkpt lat="42.82272" lon="1.35993">
        <ele>1580</ele>
        <time>2025-09-27T12:26:07.000Z</time>
      </trkpt>
      <trkpt lat="42.82273" lon="1.35993">
        <ele>1587</ele>
        <time>2025-09-27T12:32:26.000Z</time>
      </trkpt>
      <trkpt lat="42.82275" lon="1.35992">
        <ele>1587</ele>
        <time>2025-09-27T12:32:27.000Z</time>
      </trkpt>
      <trkpt lat="42.82277" lon="1.3599">
        <ele>1587</ele>
        <time>2025-09-27T12:32:28.000Z</time>
      </trkpt>
      <trkpt lat="42.82278" lon="1.35988">
        <ele>1587</ele>
        <time>2025-09-27T12:32:29.000Z</time>
      </trkpt>
      <trkpt lat="42.8228" lon="1.35988">
        <ele>1588</ele>
        <time>2025-09-27T12:32:30.000Z</time>
      </trkpt>
      <trkpt lat="42.82283" lon="1.35988">
        <ele>1588</ele>
        <time>2025-09-27T12:32:31.000Z</time>
      </trkpt>
      <trkpt lat="42.82284" lon="1.35988">
        <ele>1588</ele>
        <time>2025-09-27T12:32:32.000Z</time>
      </trkpt>
      <trkpt lat="42.82285" lon="1.35987">
        <ele>1588</ele>
        <time>2025-09-27T12:32:33.000Z</time>
      </trkpt>
      <trkpt lat="42.82286" lon="1.35987">
        <ele>1588</ele>
        <time>2025-09-27T12:32:34.000Z</time>
      </trkpt>
      <trkpt lat="42.82287" lon="1.35985">
        <ele>1587</ele>
        <time>2025-09-27T12:32:35.000Z</time>
      </trkpt>
      <trkpt lat="42.82287" lon="1.35984">
        <ele>1588</ele>
        <time>2025-09-27T12:32:36.000Z</time>
      </trkpt>
      <trkpt lat="42.82288" lon="1.35984">
        <ele>1589</ele>
        <time>2025-09-27T12:32:37.000Z</time>
      </trkpt>
      <trkpt lat="42.8229" lon="1.35983">
        <ele>1588</ele>
        <time>2025-09-27T12:32:38.000Z</time>
      </trkpt>
      <trkpt lat="42.82291" lon="1.35982">
        <ele>1588</ele>
        <time>2025-09-27T12:32:39.000Z</time>
      </trkpt>
      <trkpt lat="42.82293" lon="1.35981">
        <ele>1589</ele>
        <time>2025-09-27T12:32:40.000Z</time>
      </trkpt>
      <trkpt lat="42.82294" lon="1.3598">
        <ele>1589</ele>
        <time>2025-09-27T12:32:41.000Z</time>
      </trkpt>
      <trkpt lat="42.82296" lon="1.35979">
        <ele>1588</ele>
        <time>2025-09-27T12:32:42.000Z</time>
      </trkpt>
      <trkpt lat="42.82297" lon="1.35977">
        <ele>1588</ele>
        <time>2025-09-27T12:32:43.000Z</time>
      </trkpt>
      <trkpt lat="42.82298" lon="1.35976">
        <ele>1588</ele>
        <time>2025-09-27T12:32:44.000Z</time>
      </trkpt>
      <trkpt lat="42.82299" lon="1.35975">
        <ele>1588</ele>
        <time>2025-09-27T12:32:45.000Z</time>
      </trkpt>
      <trkpt lat="42.823" lon="1.35973">
        <ele>1589</ele>
        <time>2025-09-27T12:32:46.000Z</time>
      </trkpt>
      <trkpt lat="42.82302" lon="1.35971">
        <ele>1589</ele>
        <time>2025-09-27T12:32:47.000Z</time>
      </trkpt>
      <trkpt lat="42.82303" lon="1.3597">
        <ele>1589</ele>
        <time>2025-09-27T12:32:48.000Z</time>
      </trkpt>
      <trkpt lat="42.82304" lon="1.3597">
        <ele>1590</ele>
        <time>2025-09-27T12:32:49.000Z</time>
      </trkpt>
      <trkpt lat="42.82305" lon="1.35969">
        <ele>1590</ele>
        <time>2025-09-27T12:32:50.000Z</time>
      </trkpt>
      <trkpt lat="42.82307" lon="1.35968">
        <ele>1591</ele>
        <time>2025-09-27T12:32:51.000Z</time>
      </trkpt>
      <trkpt lat="42.82309" lon="1.35967">
        <ele>1591</ele>
        <time>2025-09-27T12:32:52.000Z</time>
      </trkpt>
      <trkpt lat="42.82311" lon="1.35966">
        <ele>1591</ele>
        <time>2025-09-27T12:32:53.000Z</time>
      </trkpt>
      <trkpt lat="42.82313" lon="1.35965">
        <ele>1591</ele>
        <time>2025-09-27T12:32:54.000Z</time>
      </trkpt>
      <trkpt lat="42.82314" lon="1.35964">
        <ele>1591</ele>
        <time>2025-09-27T12:32:55.000Z</time>
      </trkpt>
      <trkpt lat="42.82315" lon="1.35963">
        <ele>1591</ele>
        <time>2025-09-27T12:32:56.000Z</time>
      </trkpt>
      <trkpt lat="42.82316" lon="1.35962">
        <ele>1591</ele>
        <time>2025-09-27T12:32:57.000Z</time>
      </trkpt>
      <trkpt lat="42.82318" lon="1.35961">
        <ele>1592</ele>
        <time>2025-09-27T12:32:58.000Z</time>
      </trkpt>
      <trkpt lat="42.82319" lon="1.3596">
        <ele>1592</ele>
        <time>2025-09-27T12:32:59.000Z</time>
      </trkpt>
      <trkpt lat="42.8232" lon="1.35958">
        <ele>1592</ele>
        <time>2025-09-27T12:33:00.000Z</time>
      </trkpt>
      <trkpt lat="42.82321" lon="1.35957">
        <ele>1592</ele>
        <time>2025-09-27T12:33:01.000Z</time>
      </trkpt>
      <trkpt lat="42.82322" lon="1.35955">
        <ele>1592</ele>
        <time>2025-09-27T12:33:02.000Z</time>
      </trkpt>
      <trkpt lat="42.82324" lon="1.35953">
        <ele>1592</ele>
        <time>2025-09-27T12:33:03.000Z</time>
      </trkpt>
      <trkpt lat="42.82325" lon="1.35952">
        <ele>1593</ele>
        <time>2025-09-27T12:33:04.000Z</time>
      </trkpt>
      <trkpt lat="42.82324" lon="1.35951">
        <ele>1593</ele>
        <time>2025-09-27T12:33:05.000Z</time>
      </trkpt>
      <trkpt lat="42.82325" lon="1.35951">
        <ele>1593</ele>
        <time>2025-09-27T12:33:06.000Z</time>
      </trkpt>
      <trkpt lat="42.82326" lon="1.35949">
        <ele>1592</ele>
        <time>2025-09-27T12:33:07.000Z</time>
      </trkpt>
      <trkpt lat="42.82326" lon="1.35947">
        <ele>1592</ele>
        <time>2025-09-27T12:33:08.000Z</time>
      </trkpt>
      <trkpt lat="42.82327" lon="1.35946">
        <ele>1592</ele>
        <time>2025-09-27T12:33:09.000Z</time>
      </trkpt>
      <trkpt lat="42.82328" lon="1.35944">
        <ele>1593</ele>
        <time>2025-09-27T12:33:10.000Z</time>
      </trkpt>
      <trkpt lat="42.82329" lon="1.35942">
        <ele>1593</ele>
        <time>2025-09-27T12:33:11.000Z</time>
      </trkpt>
      <trkpt lat="42.8233" lon="1.35941">
        <ele>1593</ele>
        <time>2025-09-27T12:33:12.000Z</time>
      </trkpt>
      <trkpt lat="42.82331" lon="1.35939">
        <ele>1593</ele>
        <time>2025-09-27T12:33:13.000Z</time>
      </trkpt>
      <trkpt lat="42.82332" lon="1.35938">
        <ele>1593</ele>
        <time>2025-09-27T12:33:14.000Z</time>
      </trkpt>
      <trkpt lat="42.82334" lon="1.35936">
        <ele>1593</ele>
        <time>2025-09-27T12:33:15.000Z</time>
      </trkpt>
      <trkpt lat="42.82335" lon="1.35934">
        <ele>1593</ele>
        <time>2025-09-27T12:33:16.000Z</time>
      </trkpt>
      <trkpt lat="42.82336" lon="1.35933">
        <ele>1594</ele>
        <time>2025-09-27T12:33:17.000Z</time>
      </trkpt>
      <trkpt lat="42.82337" lon="1.35931">
        <ele>1594</ele>
        <time>2025-09-27T12:33:18.000Z</time>
      </trkpt>
      <trkpt lat="42.82339" lon="1.35929">
        <ele>1594</ele>
        <time>2025-09-27T12:33:19.000Z</time>
      </trkpt>
      <trkpt lat="42.8234" lon="1.35928">
        <ele>1594</ele>
        <time>2025-09-27T12:33:20.000Z</time>
      </trkpt>
      <trkpt lat="42.82341" lon="1.35925">
        <ele>1594</ele>
        <time>2025-09-27T12:33:21.000Z</time>
      </trkpt>
      <trkpt lat="42.82341" lon="1.35925">
        <ele>1594</ele>
        <time>2025-09-27T12:33:22.000Z</time>
      </trkpt>
      <trkpt lat="42.82341" lon="1.35924">
        <ele>1594</ele>
        <time>2025-09-27T12:33:23.000Z</time>
      </trkpt>
      <trkpt lat="42.82341" lon="1.35925">
        <ele>1594</ele>
        <time>2025-09-27T12:33:24.000Z</time>
      </trkpt>
      <trkpt lat="42.82341" lon="1.35925">
        <ele>1595</ele>
        <time>2025-09-27T12:33:25.000Z</time>
      </trkpt>
      <trkpt lat="42.82341" lon="1.35924">
        <ele>1595</ele>
        <time>2025-09-27T12:33:26.000Z</time>
      </trkpt>
      <trkpt lat="42.82342" lon="1.35922">
        <ele>1595</ele>
        <time>2025-09-27T12:33:27.000Z</time>
      </trkpt>
      <trkpt lat="42.82343" lon="1.35919">
        <ele>1595</ele>
        <time>2025-09-27T12:33:28.000Z</time>
      </trkpt>
      <trkpt lat="42.82344" lon="1.35917">
        <ele>1595</ele>
        <time>2025-09-27T12:33:29.000Z</time>
      </trkpt>
      <trkpt lat="42.82345" lon="1.35914">
        <ele>1596</ele>
        <time>2025-09-27T12:33:30.000Z</time>
      </trkpt>
      <trkpt lat="42.82346" lon="1.35912">
        <ele>1596</ele>
        <time>2025-09-27T12:33:31.000Z</time>
      </trkpt>
      <trkpt lat="42.82347" lon="1.3591">
        <ele>1597</ele>
        <time>2025-09-27T12:33:32.000Z</time>
      </trkpt>
      <trkpt lat="42.82348" lon="1.35908">
        <ele>1597</ele>
        <time>2025-09-27T12:33:33.000Z</time>
      </trkpt>
      <trkpt lat="42.82348" lon="1.35906">
        <ele>1598</ele>
        <time>2025-09-27T12:33:34.000Z</time>
      </trkpt>
      <trkpt lat="42.82348" lon="1.35904">
        <ele>1599</ele>
        <time>2025-09-27T12:33:35.000Z</time>
      </trkpt>
      <trkpt lat="42.82349" lon="1.35902">
        <ele>1599</ele>
        <time>2025-09-27T12:33:36.000Z</time>
      </trkpt>
      <trkpt lat="42.82349" lon="1.35901">
        <ele>1598</ele>
        <time>2025-09-27T12:33:37.000Z</time>
      </trkpt>
      <trkpt lat="42.8235" lon="1.35898">
        <ele>1599</ele>
        <time>2025-09-27T12:33:38.000Z</time>
      </trkpt>
      <trkpt lat="42.8235" lon="1.35896">
        <ele>1598</ele>
        <time>2025-09-27T12:33:39.000Z</time>
      </trkpt>
      <trkpt lat="42.8235" lon="1.35894">
        <ele>1599</ele>
        <time>2025-09-27T12:33:40.000Z</time>
      </trkpt>
      <trkpt lat="42.82351" lon="1.35892">
        <ele>1600</ele>
        <time>2025-09-27T12:33:41.000Z</time>
      </trkpt>
      <trkpt lat="42.82351" lon="1.3589">
        <ele>1601</ele>
        <time>2025-09-27T12:33:42.000Z</time>
      </trkpt>
      <trkpt lat="42.82351" lon="1.35888">
        <ele>1601</ele>
        <time>2025-09-27T12:33:43.000Z</time>
      </trkpt>
      <trkpt lat="42.82351" lon="1.35885">
        <ele>1602</ele>
        <time>2025-09-27T12:33:44.000Z</time>
      </trkpt>
      <trkpt lat="42.82351" lon="1.35883">
        <ele>1603</ele>
        <time>2025-09-27T12:33:45.000Z</time>
      </trkpt>
      <trkpt lat="42.82352" lon="1.35881">
        <ele>1602</ele>
        <time>2025-09-27T12:33:46.000Z</time>
      </trkpt>
      <trkpt lat="42.82353" lon="1.35879">
        <ele>1603</ele>
        <time>2025-09-27T12:33:47.000Z</time>
      </trkpt>
      <trkpt lat="42.82354" lon="1.35877">
        <ele>1603</ele>
        <time>2025-09-27T12:33:48.000Z</time>
      </trkpt>
      <trkpt lat="42.82355" lon="1.35875">
        <ele>1603</ele>
        <time>2025-09-27T12:33:49.000Z</time>
      </trkpt>
      <trkpt lat="42.82355" lon="1.35874">
        <ele>1603</ele>
        <time>2025-09-27T12:33:50.000Z</time>
      </trkpt>
      <trkpt lat="42.82356" lon="1.35872">
        <ele>1603</ele>
        <time>2025-09-27T12:33:51.000Z</time>
      </trkpt>
      <trkpt lat="42.82357" lon="1.3587">
        <ele>1604</ele>
        <time>2025-09-27T12:33:52.000Z</time>
      </trkpt>
      <trkpt lat="42.82358" lon="1.35868">
        <ele>1604</ele>
        <time>2025-09-27T12:33:53.000Z</time>
      </trkpt>
      <trkpt lat="42.82359" lon="1.35866">
        <ele>1604</ele>
        <time>2025-09-27T12:33:54.000Z</time>
      </trkpt>
      <trkpt lat="42.8236" lon="1.35865">
        <ele>1605</ele>
        <time>2025-09-27T12:33:55.000Z</time>
      </trkpt>
      <trkpt lat="42.8236" lon="1.35863">
        <ele>1605</ele>
        <time>2025-09-27T12:33:56.000Z</time>
      </trkpt>
      <trkpt lat="42.82361" lon="1.35861">
        <ele>1605</ele>
        <time>2025-09-27T12:33:57.000Z</time>
      </trkpt>
      <trkpt lat="42.82362" lon="1.35859">
        <ele>1606</ele>
        <time>2025-09-27T12:33:58.000Z</time>
      </trkpt>
      <trkpt lat="42.82363" lon="1.35857">
        <ele>1606</ele>
        <time>2025-09-27T12:33:59.000Z</time>
      </trkpt>
      <trkpt lat="42.82363" lon="1.35855">
        <ele>1607</ele>
        <time>2025-09-27T12:34:00.000Z</time>
      </trkpt>
      <trkpt lat="42.82364" lon="1.35853">
        <ele>1607</ele>
        <time>2025-09-27T12:34:01.000Z</time>
      </trkpt>
      <trkpt lat="42.82366" lon="1.35852">
        <ele>1607</ele>
        <time>2025-09-27T12:34:02.000Z</time>
      </trkpt>
      <trkpt lat="42.82367" lon="1.3585">
        <ele>1607</ele>
        <time>2025-09-27T12:34:03.000Z</time>
      </trkpt>
      <trkpt lat="42.82368" lon="1.35849">
        <ele>1607</ele>
        <time>2025-09-27T12:34:04.000Z</time>
      </trkpt>
      <trkpt lat="42.8237" lon="1.35848">
        <ele>1608</ele>
        <time>2025-09-27T12:34:05.000Z</time>
      </trkpt>
      <trkpt lat="42.82371" lon="1.35846">
        <ele>1608</ele>
        <time>2025-09-27T12:34:06.000Z</time>
      </trkpt>
      <trkpt lat="42.82372" lon="1.35845">
        <ele>1608</ele>
        <time>2025-09-27T12:34:07.000Z</time>
      </trkpt>
      <trkpt lat="42.82372" lon="1.35844">
        <ele>1609</ele>
        <time>2025-09-27T12:34:08.000Z</time>
      </trkpt>
      <trkpt lat="42.82372" lon="1.35841">
        <ele>1609</ele>
        <time>2025-09-27T12:34:09.000Z</time>
      </trkpt>
      <trkpt lat="42.82373" lon="1.3584">
        <ele>1609</ele>
        <time>2025-09-27T12:34:10.000Z</time>
      </trkpt>
      <trkpt lat="42.82373" lon="1.35838">
        <ele>1610</ele>
        <time>2025-09-27T12:34:11.000Z</time>
      </trkpt>
      <trkpt lat="42.82373" lon="1.35836">
        <ele>1610</ele>
        <time>2025-09-27T12:34:12.000Z</time>
      </trkpt>
      <trkpt lat="42.82374" lon="1.35834">
        <ele>1611</ele>
        <time>2025-09-27T12:34:13.000Z</time>
      </trkpt>
      <trkpt lat="42.82375" lon="1.35832">
        <ele>1611</ele>
        <time>2025-09-27T12:34:14.000Z</time>
      </trkpt>
      <trkpt lat="42.82376" lon="1.35831">
        <ele>1611</ele>
        <time>2025-09-27T12:34:15.000Z</time>
      </trkpt>
      <trkpt lat="42.82377" lon="1.35829">
        <ele>1612</ele>
        <time>2025-09-27T12:34:16.000Z</time>
      </trkpt>
      <trkpt lat="42.82377" lon="1.35828">
        <ele>1611</ele>
        <time>2025-09-27T12:34:17.000Z</time>
      </trkpt>
      <trkpt lat="42.82378" lon="1.35826">
        <ele>1612</ele>
        <time>2025-09-27T12:34:18.000Z</time>
      </trkpt>
      <trkpt lat="42.82379" lon="1.35824">
        <ele>1613</ele>
        <time>2025-09-27T12:34:19.000Z</time>
      </trkpt>
      <trkpt lat="42.8238" lon="1.35822">
        <ele>1613</ele>
        <time>2025-09-27T12:34:20.000Z</time>
      </trkpt>
      <trkpt lat="42.82381" lon="1.3582">
        <ele>1613</ele>
        <time>2025-09-27T12:34:21.000Z</time>
      </trkpt>
      <trkpt lat="42.82382" lon="1.35819">
        <ele>1614</ele>
        <time>2025-09-27T12:34:22.000Z</time>
      </trkpt>
      <trkpt lat="42.82383" lon="1.35817">
        <ele>1613</ele>
        <time>2025-09-27T12:34:23.000Z</time>
      </trkpt>
      <trkpt lat="42.82383" lon="1.35815">
        <ele>1614</ele>
        <time>2025-09-27T12:34:24.000Z</time>
      </trkpt>
      <trkpt lat="42.82384" lon="1.35813">
        <ele>1614</ele>
        <time>2025-09-27T12:34:25.000Z</time>
      </trkpt>
      <trkpt lat="42.82385" lon="1.35811">
        <ele>1615</ele>
        <time>2025-09-27T12:34:26.000Z</time>
      </trkpt>
      <trkpt lat="42.82386" lon="1.3581">
        <ele>1615</ele>
        <time>2025-09-27T12:34:27.000Z</time>
      </trkpt>
      <trkpt lat="42.82387" lon="1.35808">
        <ele>1616</ele>
        <time>2025-09-27T12:34:28.000Z</time>
      </trkpt>
      <trkpt lat="42.82388" lon="1.35806">
        <ele>1617</ele>
        <time>2025-09-27T12:34:29.000Z</time>
      </trkpt>
      <trkpt lat="42.82388" lon="1.35804">
        <ele>1617</ele>
        <time>2025-09-27T12:34:30.000Z</time>
      </trkpt>
      <trkpt lat="42.82389" lon="1.35801">
        <ele>1617</ele>
        <time>2025-09-27T12:34:31.000Z</time>
      </trkpt>
      <trkpt lat="42.8239" lon="1.35799">
        <ele>1617</ele>
        <time>2025-09-27T12:34:32.000Z</time>
      </trkpt>
      <trkpt lat="42.8239" lon="1.35797">
        <ele>1618</ele>
        <time>2025-09-27T12:34:33.000Z</time>
      </trkpt>
      <trkpt lat="42.82391" lon="1.35795">
        <ele>1619</ele>
        <time>2025-09-27T12:34:34.000Z</time>
      </trkpt>
      <trkpt lat="42.82392" lon="1.35793">
        <ele>1619</ele>
        <time>2025-09-27T12:34:35.000Z</time>
      </trkpt>
      <trkpt lat="42.82392" lon="1.35791">
        <ele>1620</ele>
        <time>2025-09-27T12:34:36.000Z</time>
      </trkpt>
      <trkpt lat="42.82392" lon="1.35789">
        <ele>1620</ele>
        <time>2025-09-27T12:34:37.000Z</time>
      </trkpt>
      <trkpt lat="42.82393" lon="1.35788">
        <ele>1620</ele>
        <time>2025-09-27T12:34:38.000Z</time>
      </trkpt>
      <trkpt lat="42.82393" lon="1.35786">
        <ele>1620</ele>
        <time>2025-09-27T12:34:39.000Z</time>
      </trkpt>
      <trkpt lat="42.82395" lon="1.35785">
        <ele>1620</ele>
        <time>2025-09-27T12:34:40.000Z</time>
      </trkpt>
      <trkpt lat="42.82395" lon="1.35782">
        <ele>1621</ele>
        <time>2025-09-27T12:34:41.000Z</time>
      </trkpt>
      <trkpt lat="42.82395" lon="1.35781">
        <ele>1622</ele>
        <time>2025-09-27T12:34:42.000Z</time>
      </trkpt>
      <trkpt lat="42.82396" lon="1.35779">
        <ele>1622</ele>
        <time>2025-09-27T12:34:43.000Z</time>
      </trkpt>
      <trkpt lat="42.82396" lon="1.35777">
        <ele>1622</ele>
        <time>2025-09-27T12:34:44.000Z</time>
      </trkpt>
      <trkpt lat="42.82397" lon="1.35776">
        <ele>1622</ele>
        <time>2025-09-27T12:34:45.000Z</time>
      </trkpt>
      <trkpt lat="42.82398" lon="1.35774">
        <ele>1623</ele>
        <time>2025-09-27T12:34:46.000Z</time>
      </trkpt>
      <trkpt lat="42.82399" lon="1.35773">
        <ele>1623</ele>
        <time>2025-09-27T12:34:47.000Z</time>
      </trkpt>
      <trkpt lat="42.824" lon="1.35771">
        <ele>1624</ele>
        <time>2025-09-27T12:34:48.000Z</time>
      </trkpt>
      <trkpt lat="42.82401" lon="1.35769">
        <ele>1624</ele>
        <time>2025-09-27T12:34:49.000Z</time>
      </trkpt>
      <trkpt lat="42.82401" lon="1.35768">
        <ele>1624</ele>
        <time>2025-09-27T12:34:50.000Z</time>
      </trkpt>
      <trkpt lat="42.82401" lon="1.35767">
        <ele>1625</ele>
        <time>2025-09-27T12:34:51.000Z</time>
      </trkpt>
      <trkpt lat="42.82402" lon="1.35766">
        <ele>1627</ele>
        <time>2025-09-27T12:34:52.000Z</time>
      </trkpt>
      <trkpt lat="42.82402" lon="1.35764">
        <ele>1627</ele>
        <time>2025-09-27T12:34:53.000Z</time>
      </trkpt>
      <trkpt lat="42.82402" lon="1.35763">
        <ele>1627</ele>
        <time>2025-09-27T12:34:54.000Z</time>
      </trkpt>
      <trkpt lat="42.82403" lon="1.35762">
        <ele>1627</ele>
        <time>2025-09-27T12:34:55.000Z</time>
      </trkpt>
      <trkpt lat="42.82404" lon="1.35762">
        <ele>1627</ele>
        <time>2025-09-27T12:34:56.000Z</time>
      </trkpt>
      <trkpt lat="42.82405" lon="1.35762">
        <ele>1626</ele>
        <time>2025-09-27T12:34:57.000Z</time>
      </trkpt>
      <trkpt lat="42.82404" lon="1.35762">
        <ele>1626</ele>
        <time>2025-09-27T12:34:58.000Z</time>
      </trkpt>
      <trkpt lat="42.82407" lon="1.35761">
        <ele>1629</ele>
        <time>2025-09-27T12:35:12.000Z</time>
      </trkpt>
      <trkpt lat="42.82408" lon="1.35759">
        <ele>1629</ele>
        <time>2025-09-27T12:35:13.000Z</time>
      </trkpt>
      <trkpt lat="42.82408" lon="1.35757">
        <ele>1630</ele>
        <time>2025-09-27T12:35:14.000Z</time>
      </trkpt>
      <trkpt lat="42.82408" lon="1.35756">
        <ele>1631</ele>
        <time>2025-09-27T12:35:15.000Z</time>
      </trkpt>
      <trkpt lat="42.8241" lon="1.35755">
        <ele>1631</ele>
        <time>2025-09-27T12:35:16.000Z</time>
      </trkpt>
      <trkpt lat="42.82411" lon="1.35754">
        <ele>1631</ele>
        <time>2025-09-27T12:35:17.000Z</time>
      </trkpt>
      <trkpt lat="42.82412" lon="1.35753">
        <ele>1631</ele>
        <time>2025-09-27T12:35:18.000Z</time>
      </trkpt>
      <trkpt lat="42.82412" lon="1.35752">
        <ele>1632</ele>
        <time>2025-09-27T12:35:19.000Z</time>
      </trkpt>
      <trkpt lat="42.82411" lon="1.35752">
        <ele>1633</ele>
        <time>2025-09-27T12:35:20.000Z</time>
      </trkpt>
      <trkpt lat="42.82412" lon="1.35747">
        <ele>1634</ele>
        <time>2025-09-27T12:35:59.000Z</time>
      </trkpt>
      <trkpt lat="42.82412" lon="1.35746">
        <ele>1635</ele>
        <time>2025-09-27T12:36:00.000Z</time>
      </trkpt>
      <trkpt lat="42.82412" lon="1.35744">
        <ele>1635</ele>
        <time>2025-09-27T12:36:01.000Z</time>
      </trkpt>
      <trkpt lat="42.82412" lon="1.35744">
        <ele>1635</ele>
        <time>2025-09-27T12:36:02.000Z</time>
      </trkpt>
      <trkpt lat="42.82412" lon="1.35743">
        <ele>1636</ele>
        <time>2025-09-27T12:36:03.000Z</time>
      </trkpt>
      <trkpt lat="42.82412" lon="1.35743">
        <ele>1636</ele>
        <time>2025-09-27T12:36:04.000Z</time>
      </trkpt>
      <trkpt lat="42.82412" lon="1.35742">
        <ele>1637</ele>
        <time>2025-09-27T12:36:05.000Z</time>
      </trkpt>
      <trkpt lat="42.82413" lon="1.35741">
        <ele>1637</ele>
        <time>2025-09-27T12:36:06.000Z</time>
      </trkpt>
      <trkpt lat="42.82413" lon="1.3574">
        <ele>1637</ele>
        <time>2025-09-27T12:36:07.000Z</time>
      </trkpt>
      <trkpt lat="42.82413" lon="1.35739">
        <ele>1638</ele>
        <time>2025-09-27T12:36:08.000Z</time>
      </trkpt>
      <trkpt lat="42.82414" lon="1.35738">
        <ele>1638</ele>
        <time>2025-09-27T12:36:09.000Z</time>
      </trkpt>
      <trkpt lat="42.82414" lon="1.35738">
        <ele>1638</ele>
        <time>2025-09-27T12:36:10.000Z</time>
      </trkpt>
      <trkpt lat="42.82413" lon="1.35738">
        <ele>1638</ele>
        <time>2025-09-27T12:36:11.000Z</time>
      </trkpt>
      <trkpt lat="42.82413" lon="1.35738">
        <ele>1638</ele>
        <time>2025-09-27T12:36:12.000Z</time>
      </trkpt>
      <trkpt lat="42.82412" lon="1.35738">
        <ele>1638</ele>
        <time>2025-09-27T12:36:13.000Z</time>
      </trkpt>
      <trkpt lat="42.82415" lon="1.35735">
        <ele>1638</ele>
        <time>2025-09-27T12:37:52.000Z</time>
      </trkpt>
      <trkpt lat="42.82416" lon="1.35733">
        <ele>1639</ele>
        <time>2025-09-27T12:37:53.000Z</time>
      </trkpt>
      <trkpt lat="42.82416" lon="1.3573">
        <ele>1639</ele>
        <time>2025-09-27T12:37:54.000Z</time>
      </trkpt>
      <trkpt lat="42.82416" lon="1.35727">
        <ele>1640</ele>
        <time>2025-09-27T12:37:55.000Z</time>
      </trkpt>
      <trkpt lat="42.82417" lon="1.35725">
        <ele>1640</ele>
        <time>2025-09-27T12:37:56.000Z</time>
      </trkpt>
      <trkpt lat="42.82418" lon="1.35722">
        <ele>1641</ele>
        <time>2025-09-27T12:37:57.000Z</time>
      </trkpt>
      <trkpt lat="42.82418" lon="1.35719">
        <ele>1641</ele>
        <time>2025-09-27T12:37:58.000Z</time>
      </trkpt>
      <trkpt lat="42.82419" lon="1.35716">
        <ele>1641</ele>
        <time>2025-09-27T12:37:59.000Z</time>
      </trkpt>
      <trkpt lat="42.82419" lon="1.35714">
        <ele>1641</ele>
        <time>2025-09-27T12:38:00.000Z</time>
      </trkpt>
      <trkpt lat="42.82419" lon="1.35711">
        <ele>1641</ele>
        <time>2025-09-27T12:38:01.000Z</time>
      </trkpt>
      <trkpt lat="42.82419" lon="1.35709">
        <ele>1642</ele>
        <time>2025-09-27T12:38:02.000Z</time>
      </trkpt>
      <trkpt lat="42.82419" lon="1.35706">
        <ele>1643</ele>
        <time>2025-09-27T12:38:03.000Z</time>
      </trkpt>
      <trkpt lat="42.82418" lon="1.35704">
        <ele>1644</ele>
        <time>2025-09-27T12:38:04.000Z</time>
      </trkpt>
      <trkpt lat="42.82418" lon="1.35702">
        <ele>1645</ele>
        <time>2025-09-27T12:38:05.000Z</time>
      </trkpt>
      <trkpt lat="42.82418" lon="1.357">
        <ele>1645</ele>
        <time>2025-09-27T12:38:06.000Z</time>
      </trkpt>
      <trkpt lat="42.82417" lon="1.35697">
        <ele>1646</ele>
        <time>2025-09-27T12:38:07.000Z</time>
      </trkpt>
      <trkpt lat="42.82417" lon="1.35695">
        <ele>1646</ele>
        <time>2025-09-27T12:38:08.000Z</time>
      </trkpt>
      <trkpt lat="42.82416" lon="1.35693">
        <ele>1646</ele>
        <time>2025-09-27T12:38:09.000Z</time>
      </trkpt>
      <trkpt lat="42.82416" lon="1.35691">
        <ele>1647</ele>
        <time>2025-09-27T12:38:10.000Z</time>
      </trkpt>
      <trkpt lat="42.82415" lon="1.35689">
        <ele>1647</ele>
        <time>2025-09-27T12:38:11.000Z</time>
      </trkpt>
      <trkpt lat="42.82414" lon="1.35686">
        <ele>1647</ele>
        <time>2025-09-27T12:38:12.000Z</time>
      </trkpt>
      <trkpt lat="42.82413" lon="1.35684">
        <ele>1647</ele>
        <time>2025-09-27T12:38:13.000Z</time>
      </trkpt>
      <trkpt lat="42.82412" lon="1.35682">
        <ele>1647</ele>
        <time>2025-09-27T12:38:14.000Z</time>
      </trkpt>
      <trkpt lat="42.82412" lon="1.3568">
        <ele>1647</ele>
        <time>2025-09-27T12:38:15.000Z</time>
      </trkpt>
      <trkpt lat="42.82412" lon="1.35678">
        <ele>1648</ele>
        <time>2025-09-27T12:38:16.000Z</time>
      </trkpt>
      <trkpt lat="42.82412" lon="1.35677">
        <ele>1649</ele>
        <time>2025-09-27T12:38:17.000Z</time>
      </trkpt>
      <trkpt lat="42.82411" lon="1.35675">
        <ele>1650</ele>
        <time>2025-09-27T12:38:18.000Z</time>
      </trkpt>
      <trkpt lat="42.82411" lon="1.35672">
        <ele>1650</ele>
        <time>2025-09-27T12:38:19.000Z</time>
      </trkpt>
      <trkpt lat="42.82412" lon="1.3567">
        <ele>1651</ele>
        <time>2025-09-27T12:38:20.000Z</time>
      </trkpt>
      <trkpt lat="42.82411" lon="1.35668">
        <ele>1651</ele>
        <time>2025-09-27T12:38:21.000Z</time>
      </trkpt>
      <trkpt lat="42.82411" lon="1.35666">
        <ele>1652</ele>
        <time>2025-09-27T12:38:22.000Z</time>
      </trkpt>
      <trkpt lat="42.82411" lon="1.35664">
        <ele>1652</ele>
        <time>2025-09-27T12:38:23.000Z</time>
      </trkpt>
      <trkpt lat="42.82411" lon="1.35662">
        <ele>1653</ele>
        <time>2025-09-27T12:38:24.000Z</time>
      </trkpt>
      <trkpt lat="42.82411" lon="1.35659">
        <ele>1653</ele>
        <time>2025-09-27T12:38:25.000Z</time>
      </trkpt>
      <trkpt lat="42.8241" lon="1.35657">
        <ele>1653</ele>
        <time>2025-09-27T12:38:26.000Z</time>
      </trkpt>
      <trkpt lat="42.8241" lon="1.35655">
        <ele>1653</ele>
        <time>2025-09-27T12:38:27.000Z</time>
      </trkpt>
      <trkpt lat="42.82409" lon="1.35654">
        <ele>1654</ele>
        <time>2025-09-27T12:38:28.000Z</time>
      </trkpt>
      <trkpt lat="42.82409" lon="1.35653">
        <ele>1655</ele>
        <time>2025-09-27T12:38:29.000Z</time>
      </trkpt>
      <trkpt lat="42.82409" lon="1.3565">
        <ele>1655</ele>
        <time>2025-09-27T12:38:57.000Z</time>
      </trkpt>
      <trkpt lat="42.82409" lon="1.35649">
        <ele>1655</ele>
        <time>2025-09-27T12:38:58.000Z</time>
      </trkpt>
      <trkpt lat="42.82408" lon="1.35647">
        <ele>1654</ele>
        <time>2025-09-27T12:38:59.000Z</time>
      </trkpt>
      <trkpt lat="42.82408" lon="1.35646">
        <ele>1654</ele>
        <time>2025-09-27T12:39:00.000Z</time>
      </trkpt>
      <trkpt lat="42.82408" lon="1.35644">
        <ele>1653</ele>
        <time>2025-09-27T12:39:01.000Z</time>
      </trkpt>
      <trkpt lat="42.82408" lon="1.35641">
        <ele>1653</ele>
        <time>2025-09-27T12:39:02.000Z</time>
      </trkpt>
      <trkpt lat="42.82407" lon="1.35639">
        <ele>1653</ele>
        <time>2025-09-27T12:39:03.000Z</time>
      </trkpt>
      <trkpt lat="42.82407" lon="1.35637">
        <ele>1653</ele>
        <time>2025-09-27T12:39:04.000Z</time>
      </trkpt>
      <trkpt lat="42.82407" lon="1.35634">
        <ele>1653</ele>
        <time>2025-09-27T12:39:05.000Z</time>
      </trkpt>
      <trkpt lat="42.82407" lon="1.35632">
        <ele>1654</ele>
        <time>2025-09-27T12:39:06.000Z</time>
      </trkpt>
      <trkpt lat="42.82406" lon="1.35631">
        <ele>1654</ele>
        <time>2025-09-27T12:39:07.000Z</time>
      </trkpt>
      <trkpt lat="42.82405" lon="1.35629">
        <ele>1654</ele>
        <time>2025-09-27T12:39:08.000Z</time>
      </trkpt>
      <trkpt lat="42.82404" lon="1.35627">
        <ele>1654</ele>
        <time>2025-09-27T12:39:09.000Z</time>
      </trkpt>
      <trkpt lat="42.82403" lon="1.35625">
        <ele>1654</ele>
        <time>2025-09-27T12:39:10.000Z</time>
      </trkpt>
      <trkpt lat="42.82403" lon="1.35624">
        <ele>1653</ele>
        <time>2025-09-27T12:39:11.000Z</time>
      </trkpt>
      <trkpt lat="42.82406" lon="1.35631">
        <ele>1654</ele>
        <time>2025-09-27T12:40:37.000Z</time>
      </trkpt>
      <trkpt lat="42.82407" lon="1.35632">
        <ele>1655</ele>
        <time>2025-09-27T12:40:38.000Z</time>
      </trkpt>
      <trkpt lat="42.82407" lon="1.35633">
        <ele>1655</ele>
        <time>2025-09-27T12:40:39.000Z</time>
      </trkpt>
      <trkpt lat="42.82406" lon="1.35633">
        <ele>1655</ele>
        <time>2025-09-27T12:40:40.000Z</time>
      </trkpt>
      <trkpt lat="42.82406" lon="1.35634">
        <ele>1655</ele>
        <time>2025-09-27T12:40:41.000Z</time>
      </trkpt>
      <trkpt lat="42.82407" lon="1.35634">
        <ele>1655</ele>
        <time>2025-09-27T12:40:42.000Z</time>
      </trkpt>
      <trkpt lat="42.82407" lon="1.35635">
        <ele>1655</ele>
        <time>2025-09-27T12:40:43.000Z</time>
      </trkpt>
      <trkpt lat="42.82408" lon="1.35635">
        <ele>1655</ele>
        <time>2025-09-27T12:40:44.000Z</time>
      </trkpt>
      <trkpt lat="42.82408" lon="1.35636">
        <ele>1655</ele>
        <time>2025-09-27T12:40:45.000Z</time>
      </trkpt>
      <trkpt lat="42.82408" lon="1.35637">
        <ele>1655</ele>
        <time>2025-09-27T12:40:46.000Z</time>
      </trkpt>
      <trkpt lat="42.82408" lon="1.35639">
        <ele>1655</ele>
        <time>2025-09-27T12:40:47.000Z</time>
      </trkpt>
      <trkpt lat="42.82408" lon="1.35642">
        <ele>1656</ele>
        <time>2025-09-27T12:40:48.000Z</time>
      </trkpt>
      <trkpt lat="42.82408" lon="1.35643">
        <ele>1655</ele>
        <time>2025-09-27T12:40:49.000Z</time>
      </trkpt>
      <trkpt lat="42.82408" lon="1.35645">
        <ele>1655</ele>
        <time>2025-09-27T12:40:50.000Z</time>
      </trkpt>
      <trkpt lat="42.82408" lon="1.35645">
        <ele>1655</ele>
        <time>2025-09-27T12:40:51.000Z</time>
      </trkpt>
      <trkpt lat="42.82407" lon="1.35646">
        <ele>1656</ele>
        <time>2025-09-27T12:40:52.000Z</time>
      </trkpt>
      <trkpt lat="42.82407" lon="1.35647">
        <ele>1655</ele>
        <time>2025-09-27T12:40:53.000Z</time>
      </trkpt>
      <trkpt lat="42.82406" lon="1.35642">
        <ele>1655</ele>
        <time>2025-09-27T12:41:22.000Z</time>
      </trkpt>
      <trkpt lat="42.82407" lon="1.35641">
        <ele>1655</ele>
        <time>2025-09-27T12:41:23.000Z</time>
      </trkpt>
      <trkpt lat="42.82406" lon="1.3564">
        <ele>1654</ele>
        <time>2025-09-27T12:41:24.000Z</time>
      </trkpt>
      <trkpt lat="42.82406" lon="1.35639">
        <ele>1654</ele>
        <time>2025-09-27T12:41:25.000Z</time>
      </trkpt>
      <trkpt lat="42.82407" lon="1.35638">
        <ele>1653</ele>
        <time>2025-09-27T12:41:26.000Z</time>
      </trkpt>
      <trkpt lat="42.82407" lon="1.35638">
        <ele>1653</ele>
        <time>2025-09-27T12:41:27.000Z</time>
      </trkpt>
      <trkpt lat="42.82407" lon="1.35637">
        <ele>1653</ele>
        <time>2025-09-27T12:41:28.000Z</time>
      </trkpt>
      <trkpt lat="42.82406" lon="1.35637">
        <ele>1653</ele>
        <time>2025-09-27T12:41:29.000Z</time>
      </trkpt>
      <trkpt lat="42.82405" lon="1.35636">
        <ele>1653</ele>
        <time>2025-09-27T12:41:30.000Z</time>
      </trkpt>
      <trkpt lat="42.82405" lon="1.35635">
        <ele>1653</ele>
        <time>2025-09-27T12:41:31.000Z</time>
      </trkpt>
      <trkpt lat="42.82405" lon="1.35634">
        <ele>1653</ele>
        <time>2025-09-27T12:41:32.000Z</time>
      </trkpt>
      <trkpt lat="42.82405" lon="1.35633">
        <ele>1653</ele>
        <time>2025-09-27T12:41:33.000Z</time>
      </trkpt>
      <trkpt lat="42.82405" lon="1.35632">
        <ele>1654</ele>
        <time>2025-09-27T12:41:34.000Z</time>
      </trkpt>
      <trkpt lat="42.82405" lon="1.35631">
        <ele>1654</ele>
        <time>2025-09-27T12:41:35.000Z</time>
      </trkpt>
      <trkpt lat="42.82405" lon="1.35631">
        <ele>1653</ele>
        <time>2025-09-27T12:41:36.000Z</time>
      </trkpt>
      <trkpt lat="42.82405" lon="1.35631">
        <ele>1653</ele>
        <time>2025-09-27T12:41:37.000Z</time>
      </trkpt>
      <trkpt lat="42.82406" lon="1.3563">
        <ele>1652</ele>
        <time>2025-09-27T12:41:38.000Z</time>
      </trkpt>
      <trkpt lat="42.82406" lon="1.3563">
        <ele>1652</ele>
        <time>2025-09-27T12:41:39.000Z</time>
      </trkpt>
      <trkpt lat="42.82406" lon="1.35628">
        <ele>1652</ele>
        <time>2025-09-27T12:41:40.000Z</time>
      </trkpt>
      <trkpt lat="42.82406" lon="1.35627">
        <ele>1653</ele>
        <time>2025-09-27T12:41:41.000Z</time>
      </trkpt>
      <trkpt lat="42.82406" lon="1.35626">
        <ele>1654</ele>
        <time>2025-09-27T12:41:42.000Z</time>
      </trkpt>
      <trkpt lat="42.82406" lon="1.35626">
        <ele>1654</ele>
        <time>2025-09-27T12:41:43.000Z</time>
      </trkpt>
      <trkpt lat="42.82406" lon="1.35625">
        <ele>1654</ele>
        <time>2025-09-27T12:41:44.000Z</time>
      </trkpt>
      <trkpt lat="42.82406" lon="1.35624">
        <ele>1654</ele>
        <time>2025-09-27T12:41:45.000Z</time>
      </trkpt>
      <trkpt lat="42.82407" lon="1.35623">
        <ele>1654</ele>
        <time>2025-09-27T12:41:46.000Z</time>
      </trkpt>
      <trkpt lat="42.82407" lon="1.35622">
        <ele>1654</ele>
        <time>2025-09-27T12:41:47.000Z</time>
      </trkpt>
      <trkpt lat="42.82407" lon="1.35622">
        <ele>1654</ele>
        <time>2025-09-27T12:41:48.000Z</time>
      </trkpt>
      <trkpt lat="42.82407" lon="1.35623">
        <ele>1652</ele>
        <time>2025-09-27T12:42:12.000Z</time>
      </trkpt>
      <trkpt lat="42.82407" lon="1.35624">
        <ele>1651</ele>
        <time>2025-09-27T12:42:13.000Z</time>
      </trkpt>
      <trkpt lat="42.82408" lon="1.35624">
        <ele>1651</ele>
        <time>2025-09-27T12:42:14.000Z</time>
      </trkpt>
      <trkpt lat="42.82408" lon="1.35623">
        <ele>1651</ele>
        <time>2025-09-27T12:42:15.000Z</time>
      </trkpt>
      <trkpt lat="42.82408" lon="1.35624">
        <ele>1651</ele>
        <time>2025-09-27T12:42:16.000Z</time>
      </trkpt>
      <trkpt lat="42.82406" lon="1.35625">
        <ele>1654</ele>
        <time>2025-09-27T12:43:07.000Z</time>
      </trkpt>
      <trkpt lat="42.82405" lon="1.35625">
        <ele>1654</ele>
        <time>2025-09-27T12:43:08.000Z</time>
      </trkpt>
      <trkpt lat="42.82405" lon="1.35625">
        <ele>1653</ele>
        <time>2025-09-27T12:43:09.000Z</time>
      </trkpt>
      <trkpt lat="42.82404" lon="1.35626">
        <ele>1654</ele>
        <time>2025-09-27T12:45:03.000Z</time>
      </trkpt>
      <trkpt lat="42.82404" lon="1.35626">
        <ele>1654</ele>
        <time>2025-09-27T12:45:04.000Z</time>
      </trkpt>
      <trkpt lat="42.82405" lon="1.35625">
        <ele>1654</ele>
        <time>2025-09-27T12:45:05.000Z</time>
      </trkpt>
      <trkpt lat="42.82404" lon="1.35624">
        <ele>1654</ele>
        <time>2025-09-27T12:45:06.000Z</time>
      </trkpt>
      <trkpt lat="42.82404" lon="1.35623">
        <ele>1655</ele>
        <time>2025-09-27T12:55:08.000Z</time>
      </trkpt>
      <trkpt lat="42.82404" lon="1.35622">
        <ele>1654</ele>
        <time>2025-09-27T12:55:09.000Z</time>
      </trkpt>
      <trkpt lat="42.82403" lon="1.35622">
        <ele>1654</ele>
        <time>2025-09-27T12:55:10.000Z</time>
      </trkpt>
      <trkpt lat="42.82403" lon="1.35622">
        <ele>1654</ele>
        <time>2025-09-27T12:55:11.000Z</time>
      </trkpt>
      <trkpt lat="42.82404" lon="1.35622">
        <ele>1654</ele>
        <time>2025-09-27T12:55:12.000Z</time>
      </trkpt>
      <trkpt lat="42.82404" lon="1.35621">
        <ele>1654</ele>
        <time>2025-09-27T12:55:13.000Z</time>
      </trkpt>
      <trkpt lat="42.82404" lon="1.35619">
        <ele>1654</ele>
        <time>2025-09-27T12:55:14.000Z</time>
      </trkpt>
      <trkpt lat="42.82404" lon="1.35616">
        <ele>1654</ele>
        <time>2025-09-27T12:55:15.000Z</time>
      </trkpt>
      <trkpt lat="42.82403" lon="1.35612">
        <ele>1654</ele>
        <time>2025-09-27T12:55:16.000Z</time>
      </trkpt>
      <trkpt lat="42.82403" lon="1.35609">
        <ele>1654</ele>
        <time>2025-09-27T12:55:17.000Z</time>
      </trkpt>
      <trkpt lat="42.82403" lon="1.35606">
        <ele>1654</ele>
        <time>2025-09-27T12:55:18.000Z</time>
      </trkpt>
      <trkpt lat="42.82403" lon="1.35604">
        <ele>1654</ele>
        <time>2025-09-27T12:55:19.000Z</time>
      </trkpt>
      <trkpt lat="42.82403" lon="1.35602">
        <ele>1654</ele>
        <time>2025-09-27T12:55:20.000Z</time>
      </trkpt>
      <trkpt lat="42.82403" lon="1.35599">
        <ele>1654</ele>
        <time>2025-09-27T12:55:21.000Z</time>
      </trkpt>
      <trkpt lat="42.82403" lon="1.35598">
        <ele>1654</ele>
        <time>2025-09-27T12:55:22.000Z</time>
      </trkpt>
      <trkpt lat="42.82403" lon="1.35598">
        <ele>1654</ele>
        <time>2025-09-27T12:55:23.000Z</time>
      </trkpt>
      <trkpt lat="42.824" lon="1.35588">
        <ele>1649</ele>
        <time>2025-09-27T12:56:08.000Z</time>
      </trkpt>
      <trkpt lat="42.82399" lon="1.35585">
        <ele>1649</ele>
        <time>2025-09-27T12:56:09.000Z</time>
      </trkpt>
      <trkpt lat="42.82399" lon="1.3558">
        <ele>1648</ele>
        <time>2025-09-27T12:56:10.000Z</time>
      </trkpt>
      <trkpt lat="42.82398" lon="1.35576">
        <ele>1648</ele>
        <time>2025-09-27T12:56:11.000Z</time>
      </trkpt>
      <trkpt lat="42.82397" lon="1.35573">
        <ele>1647</ele>
        <time>2025-09-27T12:56:12.000Z</time>
      </trkpt>
      <trkpt lat="42.82397" lon="1.35569">
        <ele>1647</ele>
        <time>2025-09-27T12:56:13.000Z</time>
      </trkpt>
      <trkpt lat="42.82398" lon="1.35566">
        <ele>1647</ele>
        <time>2025-09-27T12:56:14.000Z</time>
      </trkpt>
      <trkpt lat="42.82397" lon="1.35563">
        <ele>1646</ele>
        <time>2025-09-27T12:56:15.000Z</time>
      </trkpt>
      <trkpt lat="42.82396" lon="1.35559">
        <ele>1646</ele>
        <time>2025-09-27T12:56:16.000Z</time>
      </trkpt>
      <trkpt lat="42.82395" lon="1.35554">
        <ele>1647</ele>
        <time>2025-09-27T12:56:17.000Z</time>
      </trkpt>
      <trkpt lat="42.82394" lon="1.35549">
        <ele>1646</ele>
        <time>2025-09-27T12:56:18.000Z</time>
      </trkpt>
      <trkpt lat="42.82392" lon="1.35544">
        <ele>1647</ele>
        <time>2025-09-27T12:56:19.000Z</time>
      </trkpt>
      <trkpt lat="42.8239" lon="1.35539">
        <ele>1647</ele>
        <time>2025-09-27T12:56:20.000Z</time>
      </trkpt>
      <trkpt lat="42.82388" lon="1.35534">
        <ele>1647</ele>
        <time>2025-09-27T12:56:21.000Z</time>
      </trkpt>
      <trkpt lat="42.82387" lon="1.35529">
        <ele>1645</ele>
        <time>2025-09-27T12:56:22.000Z</time>
      </trkpt>
      <trkpt lat="42.82385" lon="1.35524">
        <ele>1645</ele>
        <time>2025-09-27T12:56:23.000Z</time>
      </trkpt>
      <trkpt lat="42.82382" lon="1.35519">
        <ele>1644</ele>
        <time>2025-09-27T12:56:24.000Z</time>
      </trkpt>
      <trkpt lat="42.8238" lon="1.35515">
        <ele>1643</ele>
        <time>2025-09-27T12:56:25.000Z</time>
      </trkpt>
      <trkpt lat="42.82377" lon="1.35511">
        <ele>1642</ele>
        <time>2025-09-27T12:56:26.000Z</time>
      </trkpt>
      <trkpt lat="42.82375" lon="1.35506">
        <ele>1641</ele>
        <time>2025-09-27T12:56:27.000Z</time>
      </trkpt>
      <trkpt lat="42.82374" lon="1.35498">
        <ele>1641</ele>
        <time>2025-09-27T12:56:28.000Z</time>
      </trkpt>
      <trkpt lat="42.82373" lon="1.35488">
        <ele>1639</ele>
        <time>2025-09-27T12:56:29.000Z</time>
      </trkpt>
      <trkpt lat="42.82373" lon="1.35477">
        <ele>1638</ele>
        <time>2025-09-27T12:56:30.000Z</time>
      </trkpt>
      <trkpt lat="42.82373" lon="1.35468">
        <ele>1635</ele>
        <time>2025-09-27T12:56:31.000Z</time>
      </trkpt>
      <trkpt lat="42.82372" lon="1.35458">
        <ele>1634</ele>
        <time>2025-09-27T12:56:32.000Z</time>
      </trkpt>
      <trkpt lat="42.82369" lon="1.35449">
        <ele>1633</ele>
        <time>2025-09-27T12:56:33.000Z</time>
      </trkpt>
      <trkpt lat="42.82367" lon="1.35442">
        <ele>1632</ele>
        <time>2025-09-27T12:56:34.000Z</time>
      </trkpt>
      <trkpt lat="42.82366" lon="1.35437">
        <ele>1632</ele>
        <time>2025-09-27T12:56:35.000Z</time>
      </trkpt>
      <trkpt lat="42.82365" lon="1.35434">
        <ele>1631</ele>
        <time>2025-09-27T12:56:36.000Z</time>
      </trkpt>
      <trkpt lat="42.82365" lon="1.35431">
        <ele>1630</ele>
        <time>2025-09-27T12:56:37.000Z</time>
      </trkpt>
      <trkpt lat="42.82364" lon="1.35429">
        <ele>1630</ele>
        <time>2025-09-27T12:56:38.000Z</time>
      </trkpt>
      <trkpt lat="42.82364" lon="1.35426">
        <ele>1629</ele>
        <time>2025-09-27T12:56:39.000Z</time>
      </trkpt>
      <trkpt lat="42.82362" lon="1.35424">
        <ele>1629</ele>
        <time>2025-09-27T12:56:40.000Z</time>
      </trkpt>
      <trkpt lat="42.82362" lon="1.35423">
        <ele>1630</ele>
        <time>2025-09-27T12:56:41.000Z</time>
      </trkpt>
      <trkpt lat="42.82361" lon="1.35421">
        <ele>1624</ele>
        <time>2025-09-27T12:57:45.000Z</time>
      </trkpt>
      <trkpt lat="42.82362" lon="1.3542">
        <ele>1624</ele>
        <time>2025-09-27T12:57:46.000Z</time>
      </trkpt>
      <trkpt lat="42.82363" lon="1.35419">
        <ele>1624</ele>
        <time>2025-09-27T12:57:47.000Z</time>
      </trkpt>
      <trkpt lat="42.82364" lon="1.35419">
        <ele>1624</ele>
        <time>2025-09-27T12:57:48.000Z</time>
      </trkpt>
      <trkpt lat="42.82365" lon="1.35417">
        <ele>1624</ele>
        <time>2025-09-27T12:57:49.000Z</time>
      </trkpt>
      <trkpt lat="42.82367" lon="1.35416">
        <ele>1623</ele>
        <time>2025-09-27T12:57:50.000Z</time>
      </trkpt>
      <trkpt lat="42.82369" lon="1.35414">
        <ele>1623</ele>
        <time>2025-09-27T12:57:51.000Z</time>
      </trkpt>
      <trkpt lat="42.82371" lon="1.35412">
        <ele>1623</ele>
        <time>2025-09-27T12:57:52.000Z</time>
      </trkpt>
      <trkpt lat="42.82373" lon="1.3541">
        <ele>1622</ele>
        <time>2025-09-27T12:57:53.000Z</time>
      </trkpt>
      <trkpt lat="42.82376" lon="1.3541">
        <ele>1622</ele>
        <time>2025-09-27T12:57:54.000Z</time>
      </trkpt>
      <trkpt lat="42.82378" lon="1.35408">
        <ele>1622</ele>
        <time>2025-09-27T12:57:55.000Z</time>
      </trkpt>
      <trkpt lat="42.8238" lon="1.35407">
        <ele>1622</ele>
        <time>2025-09-27T12:57:56.000Z</time>
      </trkpt>
      <trkpt lat="42.82383" lon="1.35405">
        <ele>1622</ele>
        <time>2025-09-27T12:57:57.000Z</time>
      </trkpt>
      <trkpt lat="42.82385" lon="1.35403">
        <ele>1622</ele>
        <time>2025-09-27T12:57:58.000Z</time>
      </trkpt>
      <trkpt lat="42.82388" lon="1.35401">
        <ele>1622</ele>
        <time>2025-09-27T12:57:59.000Z</time>
      </trkpt>
      <trkpt lat="42.8239" lon="1.35399">
        <ele>1622</ele>
        <time>2025-09-27T12:58:00.000Z</time>
      </trkpt>
      <trkpt lat="42.82393" lon="1.35398">
        <ele>1622</ele>
        <time>2025-09-27T12:58:01.000Z</time>
      </trkpt>
      <trkpt lat="42.82396" lon="1.35396">
        <ele>1622</ele>
        <time>2025-09-27T12:58:02.000Z</time>
      </trkpt>
      <trkpt lat="42.82399" lon="1.35394">
        <ele>1621</ele>
        <time>2025-09-27T12:58:03.000Z</time>
      </trkpt>
      <trkpt lat="42.82402" lon="1.35392">
        <ele>1621</ele>
        <time>2025-09-27T12:58:04.000Z</time>
      </trkpt>
      <trkpt lat="42.82404" lon="1.3539">
        <ele>1621</ele>
        <time>2025-09-27T12:58:05.000Z</time>
      </trkpt>
      <trkpt lat="42.82407" lon="1.35388">
        <ele>1620</ele>
        <time>2025-09-27T12:58:06.000Z</time>
      </trkpt>
      <trkpt lat="42.8241" lon="1.35386">
        <ele>1620</ele>
        <time>2025-09-27T12:58:07.000Z</time>
      </trkpt>
      <trkpt lat="42.82413" lon="1.35384">
        <ele>1620</ele>
        <time>2025-09-27T12:58:08.000Z</time>
      </trkpt>
      <trkpt lat="42.82416" lon="1.35382">
        <ele>1619</ele>
        <time>2025-09-27T12:58:09.000Z</time>
      </trkpt>
      <trkpt lat="42.82419" lon="1.35379">
        <ele>1619</ele>
        <time>2025-09-27T12:58:10.000Z</time>
      </trkpt>
      <trkpt lat="42.82423" lon="1.35377">
        <ele>1619</ele>
        <time>2025-09-27T12:58:11.000Z</time>
      </trkpt>
      <trkpt lat="42.82426" lon="1.35375">
        <ele>1619</ele>
        <time>2025-09-27T12:58:12.000Z</time>
      </trkpt>
      <trkpt lat="42.82429" lon="1.35373">
        <ele>1619</ele>
        <time>2025-09-27T12:58:13.000Z</time>
      </trkpt>
      <trkpt lat="42.82432" lon="1.3537">
        <ele>1619</ele>
        <time>2025-09-27T12:58:14.000Z</time>
      </trkpt>
      <trkpt lat="42.82435" lon="1.35368">
        <ele>1619</ele>
        <time>2025-09-27T12:58:15.000Z</time>
      </trkpt>
      <trkpt lat="42.82438" lon="1.35365">
        <ele>1619</ele>
        <time>2025-09-27T12:58:16.000Z</time>
      </trkpt>
      <trkpt lat="42.8244" lon="1.35362">
        <ele>1620</ele>
        <time>2025-09-27T12:58:17.000Z</time>
      </trkpt>
      <trkpt lat="42.82442" lon="1.35359">
        <ele>1619</ele>
        <time>2025-09-27T12:58:18.000Z</time>
      </trkpt>
      <trkpt lat="42.82443" lon="1.35355">
        <ele>1619</ele>
        <time>2025-09-27T12:58:19.000Z</time>
      </trkpt>
      <trkpt lat="42.82445" lon="1.35352">
        <ele>1619</ele>
        <time>2025-09-27T12:58:20.000Z</time>
      </trkpt>
      <trkpt lat="42.82447" lon="1.35349">
        <ele>1619</ele>
        <time>2025-09-27T12:58:21.000Z</time>
      </trkpt>
      <trkpt lat="42.82448" lon="1.35345">
        <ele>1618</ele>
        <time>2025-09-27T12:58:22.000Z</time>
      </trkpt>
      <trkpt lat="42.82451" lon="1.35341">
        <ele>1619</ele>
        <time>2025-09-27T12:58:23.000Z</time>
      </trkpt>
      <trkpt lat="42.82453" lon="1.35337">
        <ele>1618</ele>
        <time>2025-09-27T12:58:24.000Z</time>
      </trkpt>
      <trkpt lat="42.82455" lon="1.35332">
        <ele>1618</ele>
        <time>2025-09-27T12:58:25.000Z</time>
      </trkpt>
      <trkpt lat="42.82457" lon="1.35328">
        <ele>1618</ele>
        <time>2025-09-27T12:58:26.000Z</time>
      </trkpt>
      <trkpt lat="42.82458" lon="1.35323">
        <ele>1619</ele>
        <time>2025-09-27T12:58:27.000Z</time>
      </trkpt>
      <trkpt lat="42.8246" lon="1.3532">
        <ele>1619</ele>
        <time>2025-09-27T12:58:28.000Z</time>
      </trkpt>
      <trkpt lat="42.82462" lon="1.35317">
        <ele>1619</ele>
        <time>2025-09-27T12:58:29.000Z</time>
      </trkpt>
      <trkpt lat="42.82464" lon="1.35314">
        <ele>1619</ele>
        <time>2025-09-27T12:58:30.000Z</time>
      </trkpt>
      <trkpt lat="42.82466" lon="1.35312">
        <ele>1619</ele>
        <time>2025-09-27T12:58:31.000Z</time>
      </trkpt>
      <trkpt lat="42.82468" lon="1.35309">
        <ele>1619</ele>
        <time>2025-09-27T12:58:32.000Z</time>
      </trkpt>
      <trkpt lat="42.8247" lon="1.35307">
        <ele>1620</ele>
        <time>2025-09-27T12:58:33.000Z</time>
      </trkpt>
      <trkpt lat="42.82473" lon="1.35305">
        <ele>1620</ele>
        <time>2025-09-27T12:58:34.000Z</time>
      </trkpt>
      <trkpt lat="42.82475" lon="1.35303">
        <ele>1620</ele>
        <time>2025-09-27T12:58:35.000Z</time>
      </trkpt>
      <trkpt lat="42.82478" lon="1.35301">
        <ele>1621</ele>
        <time>2025-09-27T12:58:36.000Z</time>
      </trkpt>
      <trkpt lat="42.82479" lon="1.35299">
        <ele>1621</ele>
        <time>2025-09-27T12:58:37.000Z</time>
      </trkpt>
      <trkpt lat="42.82481" lon="1.35298">
        <ele>1622</ele>
        <time>2025-09-27T12:58:38.000Z</time>
      </trkpt>
      <trkpt lat="42.82483" lon="1.35296">
        <ele>1622</ele>
        <time>2025-09-27T12:58:39.000Z</time>
      </trkpt>
      <trkpt lat="42.82485" lon="1.35294">
        <ele>1623</ele>
        <time>2025-09-27T12:58:40.000Z</time>
      </trkpt>
      <trkpt lat="42.82486" lon="1.35292">
        <ele>1623</ele>
        <time>2025-09-27T12:58:41.000Z</time>
      </trkpt>
      <trkpt lat="42.82488" lon="1.3529">
        <ele>1624</ele>
        <time>2025-09-27T12:58:42.000Z</time>
      </trkpt>
      <trkpt lat="42.8249" lon="1.35288">
        <ele>1624</ele>
        <time>2025-09-27T12:58:43.000Z</time>
      </trkpt>
      <trkpt lat="42.82492" lon="1.35286">
        <ele>1624</ele>
        <time>2025-09-27T12:58:44.000Z</time>
      </trkpt>
      <trkpt lat="42.82494" lon="1.35285">
        <ele>1624</ele>
        <time>2025-09-27T12:58:45.000Z</time>
      </trkpt>
      <trkpt lat="42.82496" lon="1.35283">
        <ele>1625</ele>
        <time>2025-09-27T12:58:46.000Z</time>
      </trkpt>
      <trkpt lat="42.82498" lon="1.35281">
        <ele>1625</ele>
        <time>2025-09-27T12:58:47.000Z</time>
      </trkpt>
      <trkpt lat="42.825" lon="1.35279">
        <ele>1625</ele>
        <time>2025-09-27T12:58:48.000Z</time>
      </trkpt>
      <trkpt lat="42.82502" lon="1.35278">
        <ele>1625</ele>
        <time>2025-09-27T12:58:49.000Z</time>
      </trkpt>
      <trkpt lat="42.82505" lon="1.35276">
        <ele>1625</ele>
        <time>2025-09-27T12:58:50.000Z</time>
      </trkpt>
      <trkpt lat="42.82507" lon="1.35274">
        <ele>1626</ele>
        <time>2025-09-27T12:58:51.000Z</time>
      </trkpt>
      <trkpt lat="42.82509" lon="1.35272">
        <ele>1626</ele>
        <time>2025-09-27T12:58:52.000Z</time>
      </trkpt>
      <trkpt lat="42.82511" lon="1.3527">
        <ele>1627</ele>
        <time>2025-09-27T12:58:53.000Z</time>
      </trkpt>
      <trkpt lat="42.82512" lon="1.35269">
        <ele>1627</ele>
        <time>2025-09-27T12:58:54.000Z</time>
      </trkpt>
      <trkpt lat="42.82514" lon="1.35267">
        <ele>1627</ele>
        <time>2025-09-27T12:58:55.000Z</time>
      </trkpt>
      <trkpt lat="42.82516" lon="1.35266">
        <ele>1627</ele>
        <time>2025-09-27T12:58:56.000Z</time>
      </trkpt>
      <trkpt lat="42.82518" lon="1.35266">
        <ele>1627</ele>
        <time>2025-09-27T12:58:57.000Z</time>
      </trkpt>
      <trkpt lat="42.82521" lon="1.35265">
        <ele>1627</ele>
        <time>2025-09-27T12:58:58.000Z</time>
      </trkpt>
      <trkpt lat="42.82523" lon="1.35264">
        <ele>1627</ele>
        <time>2025-09-27T12:58:59.000Z</time>
      </trkpt>
      <trkpt lat="42.82526" lon="1.35263">
        <ele>1628</ele>
        <time>2025-09-27T12:59:00.000Z</time>
      </trkpt>
      <trkpt lat="42.82528" lon="1.35261">
        <ele>1628</ele>
        <time>2025-09-27T12:59:01.000Z</time>
      </trkpt>
      <trkpt lat="42.8253" lon="1.35259">
        <ele>1628</ele>
        <time>2025-09-27T12:59:02.000Z</time>
      </trkpt>
      <trkpt lat="42.82533" lon="1.35258">
        <ele>1627</ele>
        <time>2025-09-27T12:59:03.000Z</time>
      </trkpt>
      <trkpt lat="42.82535" lon="1.35257">
        <ele>1627</ele>
        <time>2025-09-27T12:59:04.000Z</time>
      </trkpt>
      <trkpt lat="42.82537" lon="1.35254">
        <ele>1627</ele>
        <time>2025-09-27T12:59:05.000Z</time>
      </trkpt>
      <trkpt lat="42.8254" lon="1.35251">
        <ele>1627</ele>
        <time>2025-09-27T12:59:06.000Z</time>
      </trkpt>
      <trkpt lat="42.82542" lon="1.35249">
        <ele>1627</ele>
        <time>2025-09-27T12:59:07.000Z</time>
      </trkpt>
      <trkpt lat="42.82545" lon="1.35246">
        <ele>1627</ele>
        <time>2025-09-27T12:59:08.000Z</time>
      </trkpt>
      <trkpt lat="42.82547" lon="1.35243">
        <ele>1627</ele>
        <time>2025-09-27T12:59:09.000Z</time>
      </trkpt>
      <trkpt lat="42.82549" lon="1.3524">
        <ele>1627</ele>
        <time>2025-09-27T12:59:10.000Z</time>
      </trkpt>
      <trkpt lat="42.82551" lon="1.35237">
        <ele>1627</ele>
        <time>2025-09-27T12:59:11.000Z</time>
      </trkpt>
      <trkpt lat="42.82554" lon="1.35235">
        <ele>1627</ele>
        <time>2025-09-27T12:59:12.000Z</time>
      </trkpt>
      <trkpt lat="42.82556" lon="1.35231">
        <ele>1627</ele>
        <time>2025-09-27T12:59:13.000Z</time>
      </trkpt>
      <trkpt lat="42.82558" lon="1.35228">
        <ele>1627</ele>
        <time>2025-09-27T12:59:14.000Z</time>
      </trkpt>
      <trkpt lat="42.82561" lon="1.35225">
        <ele>1627</ele>
        <time>2025-09-27T12:59:15.000Z</time>
      </trkpt>
      <trkpt lat="42.82563" lon="1.35222">
        <ele>1627</ele>
        <time>2025-09-27T12:59:16.000Z</time>
      </trkpt>
      <trkpt lat="42.82565" lon="1.35218">
        <ele>1627</ele>
        <time>2025-09-27T12:59:17.000Z</time>
      </trkpt>
      <trkpt lat="42.82567" lon="1.35216">
        <ele>1627</ele>
        <time>2025-09-27T12:59:18.000Z</time>
      </trkpt>
      <trkpt lat="42.82568" lon="1.35213">
        <ele>1627</ele>
        <time>2025-09-27T12:59:19.000Z</time>
      </trkpt>
      <trkpt lat="42.8257" lon="1.35209">
        <ele>1627</ele>
        <time>2025-09-27T12:59:20.000Z</time>
      </trkpt>
      <trkpt lat="42.82571" lon="1.35206">
        <ele>1627</ele>
        <time>2025-09-27T12:59:21.000Z</time>
      </trkpt>
      <trkpt lat="42.82573" lon="1.35204">
        <ele>1627</ele>
        <time>2025-09-27T12:59:22.000Z</time>
      </trkpt>
      <trkpt lat="42.82575" lon="1.35201">
        <ele>1627</ele>
        <time>2025-09-27T12:59:23.000Z</time>
      </trkpt>
      <trkpt lat="42.82576" lon="1.35199">
        <ele>1627</ele>
        <time>2025-09-27T12:59:24.000Z</time>
      </trkpt>
      <trkpt lat="42.82577" lon="1.35197">
        <ele>1628</ele>
        <time>2025-09-27T12:59:25.000Z</time>
      </trkpt>
      <trkpt lat="42.82578" lon="1.35194">
        <ele>1627</ele>
        <time>2025-09-27T12:59:26.000Z</time>
      </trkpt>
      <trkpt lat="42.82579" lon="1.35191">
        <ele>1628</ele>
        <time>2025-09-27T12:59:27.000Z</time>
      </trkpt>
      <trkpt lat="42.8258" lon="1.35189">
        <ele>1628</ele>
        <time>2025-09-27T12:59:28.000Z</time>
      </trkpt>
      <trkpt lat="42.82582" lon="1.35186">
        <ele>1628</ele>
        <time>2025-09-27T12:59:29.000Z</time>
      </trkpt>
      <trkpt lat="42.82583" lon="1.35183">
        <ele>1628</ele>
        <time>2025-09-27T12:59:30.000Z</time>
      </trkpt>
      <trkpt lat="42.82584" lon="1.35179">
        <ele>1628</ele>
        <time>2025-09-27T12:59:31.000Z</time>
      </trkpt>
      <trkpt lat="42.82584" lon="1.35176">
        <ele>1627</ele>
        <time>2025-09-27T12:59:32.000Z</time>
      </trkpt>
      <trkpt lat="42.82584" lon="1.35173">
        <ele>1627</ele>
        <time>2025-09-27T12:59:33.000Z</time>
      </trkpt>
      <trkpt lat="42.82585" lon="1.3517">
        <ele>1628</ele>
        <time>2025-09-27T12:59:34.000Z</time>
      </trkpt>
      <trkpt lat="42.82585" lon="1.35167">
        <ele>1628</ele>
        <time>2025-09-27T12:59:35.000Z</time>
      </trkpt>
      <trkpt lat="42.82586" lon="1.35164">
        <ele>1628</ele>
        <time>2025-09-27T12:59:36.000Z</time>
      </trkpt>
      <trkpt lat="42.82587" lon="1.35161">
        <ele>1628</ele>
        <time>2025-09-27T12:59:37.000Z</time>
      </trkpt>
      <trkpt lat="42.82588" lon="1.35157">
        <ele>1627</ele>
        <time>2025-09-27T12:59:38.000Z</time>
      </trkpt>
      <trkpt lat="42.82588" lon="1.35154">
        <ele>1626</ele>
        <time>2025-09-27T12:59:39.000Z</time>
      </trkpt>
      <trkpt lat="42.82588" lon="1.3515">
        <ele>1626</ele>
        <time>2025-09-27T12:59:40.000Z</time>
      </trkpt>
      <trkpt lat="42.82588" lon="1.35146">
        <ele>1626</ele>
        <time>2025-09-27T12:59:41.000Z</time>
      </trkpt>
      <trkpt lat="42.82588" lon="1.35142">
        <ele>1626</ele>
        <time>2025-09-27T12:59:42.000Z</time>
      </trkpt>
      <trkpt lat="42.82589" lon="1.35137">
        <ele>1625</ele>
        <time>2025-09-27T12:59:43.000Z</time>
      </trkpt>
      <trkpt lat="42.8259" lon="1.35132">
        <ele>1625</ele>
        <time>2025-09-27T12:59:44.000Z</time>
      </trkpt>
      <trkpt lat="42.82591" lon="1.35127">
        <ele>1624</ele>
        <time>2025-09-27T12:59:45.000Z</time>
      </trkpt>
      <trkpt lat="42.82591" lon="1.35121">
        <ele>1624</ele>
        <time>2025-09-27T12:59:46.000Z</time>
      </trkpt>
      <trkpt lat="42.82591" lon="1.35116">
        <ele>1625</ele>
        <time>2025-09-27T12:59:47.000Z</time>
      </trkpt>
      <trkpt lat="42.82592" lon="1.35112">
        <ele>1626</ele>
        <time>2025-09-27T12:59:48.000Z</time>
      </trkpt>
      <trkpt lat="42.82593" lon="1.35108">
        <ele>1625</ele>
        <time>2025-09-27T12:59:49.000Z</time>
      </trkpt>
      <trkpt lat="42.82594" lon="1.35105">
        <ele>1625</ele>
        <time>2025-09-27T12:59:50.000Z</time>
      </trkpt>
      <trkpt lat="42.82595" lon="1.35101">
        <ele>1625</ele>
        <time>2025-09-27T12:59:51.000Z</time>
      </trkpt>
      <trkpt lat="42.82596" lon="1.35097">
        <ele>1625</ele>
        <time>2025-09-27T12:59:52.000Z</time>
      </trkpt>
      <trkpt lat="42.82597" lon="1.35093">
        <ele>1624</ele>
        <time>2025-09-27T12:59:53.000Z</time>
      </trkpt>
      <trkpt lat="42.82597" lon="1.35089">
        <ele>1624</ele>
        <time>2025-09-27T12:59:54.000Z</time>
      </trkpt>
      <trkpt lat="42.82598" lon="1.35086">
        <ele>1624</ele>
        <time>2025-09-27T12:59:55.000Z</time>
      </trkpt>
      <trkpt lat="42.82599" lon="1.35081">
        <ele>1624</ele>
        <time>2025-09-27T12:59:56.000Z</time>
      </trkpt>
      <trkpt lat="42.82598" lon="1.35077">
        <ele>1623</ele>
        <time>2025-09-27T12:59:57.000Z</time>
      </trkpt>
      <trkpt lat="42.82598" lon="1.35073">
        <ele>1623</ele>
        <time>2025-09-27T12:59:58.000Z</time>
      </trkpt>
      <trkpt lat="42.82598" lon="1.35069">
        <ele>1623</ele>
        <time>2025-09-27T12:59:59.000Z</time>
      </trkpt>
      <trkpt lat="42.82598" lon="1.35065">
        <ele>1622</ele>
        <time>2025-09-27T13:00:00.000Z</time>
      </trkpt>
      <trkpt lat="42.82598" lon="1.35061">
        <ele>1622</ele>
        <time>2025-09-27T13:00:01.000Z</time>
      </trkpt>
      <trkpt lat="42.82598" lon="1.35056">
        <ele>1621</ele>
        <time>2025-09-27T13:00:02.000Z</time>
      </trkpt>
      <trkpt lat="42.82598" lon="1.35052">
        <ele>1621</ele>
        <time>2025-09-27T13:00:03.000Z</time>
      </trkpt>
      <trkpt lat="42.82598" lon="1.35048">
        <ele>1621</ele>
        <time>2025-09-27T13:00:04.000Z</time>
      </trkpt>
      <trkpt lat="42.82598" lon="1.35044">
        <ele>1621</ele>
        <time>2025-09-27T13:00:05.000Z</time>
      </trkpt>
      <trkpt lat="42.82598" lon="1.3504">
        <ele>1620</ele>
        <time>2025-09-27T13:00:06.000Z</time>
      </trkpt>
      <trkpt lat="42.82599" lon="1.35036">
        <ele>1620</ele>
        <time>2025-09-27T13:00:07.000Z</time>
      </trkpt>
      <trkpt lat="42.82599" lon="1.35031">
        <ele>1620</ele>
        <time>2025-09-27T13:00:08.000Z</time>
      </trkpt>
      <trkpt lat="42.826" lon="1.35026">
        <ele>1619</ele>
        <time>2025-09-27T13:00:09.000Z</time>
      </trkpt>
      <trkpt lat="42.82599" lon="1.3502">
        <ele>1619</ele>
        <time>2025-09-27T13:00:10.000Z</time>
      </trkpt>
      <trkpt lat="42.82598" lon="1.35014">
        <ele>1619</ele>
        <time>2025-09-27T13:00:11.000Z</time>
      </trkpt>
      <trkpt lat="42.82597" lon="1.35007">
        <ele>1618</ele>
        <time>2025-09-27T13:00:12.000Z</time>
      </trkpt>
      <trkpt lat="42.82597" lon="1.35">
        <ele>1617</ele>
        <time>2025-09-27T13:00:13.000Z</time>
      </trkpt>
      <trkpt lat="42.82598" lon="1.34992">
        <ele>1617</ele>
        <time>2025-09-27T13:00:14.000Z</time>
      </trkpt>
      <trkpt lat="42.82599" lon="1.34984">
        <ele>1616</ele>
        <time>2025-09-27T13:00:15.000Z</time>
      </trkpt>
      <trkpt lat="42.826" lon="1.34977">
        <ele>1616</ele>
        <time>2025-09-27T13:00:16.000Z</time>
      </trkpt>
      <trkpt lat="42.82601" lon="1.34969">
        <ele>1615</ele>
        <time>2025-09-27T13:00:17.000Z</time>
      </trkpt>
      <trkpt lat="42.82601" lon="1.34963">
        <ele>1615</ele>
        <time>2025-09-27T13:00:18.000Z</time>
      </trkpt>
      <trkpt lat="42.82601" lon="1.34957">
        <ele>1614</ele>
        <time>2025-09-27T13:00:19.000Z</time>
      </trkpt>
      <trkpt lat="42.82602" lon="1.34951">
        <ele>1614</ele>
        <time>2025-09-27T13:00:20.000Z</time>
      </trkpt>
      <trkpt lat="42.82602" lon="1.34945">
        <ele>1614</ele>
        <time>2025-09-27T13:00:21.000Z</time>
      </trkpt>
      <trkpt lat="42.82602" lon="1.3494">
        <ele>1613</ele>
        <time>2025-09-27T13:00:22.000Z</time>
      </trkpt>
      <trkpt lat="42.82602" lon="1.34935">
        <ele>1613</ele>
        <time>2025-09-27T13:00:23.000Z</time>
      </trkpt>
      <trkpt lat="42.82603" lon="1.34931">
        <ele>1613</ele>
        <time>2025-09-27T13:00:24.000Z</time>
      </trkpt>
      <trkpt lat="42.82603" lon="1.34927">
        <ele>1613</ele>
        <time>2025-09-27T13:00:25.000Z</time>
      </trkpt>
      <trkpt lat="42.82602" lon="1.34923">
        <ele>1613</ele>
        <time>2025-09-27T13:00:26.000Z</time>
      </trkpt>
      <trkpt lat="42.82602" lon="1.34919">
        <ele>1613</ele>
        <time>2025-09-27T13:00:27.000Z</time>
      </trkpt>
      <trkpt lat="42.82602" lon="1.34914">
        <ele>1613</ele>
        <time>2025-09-27T13:00:28.000Z</time>
      </trkpt>
      <trkpt lat="42.82602" lon="1.3491">
        <ele>1613</ele>
        <time>2025-09-27T13:00:29.000Z</time>
      </trkpt>
      <trkpt lat="42.82603" lon="1.34906">
        <ele>1613</ele>
        <time>2025-09-27T13:00:30.000Z</time>
      </trkpt>
      <trkpt lat="42.82603" lon="1.34902">
        <ele>1613</ele>
        <time>2025-09-27T13:00:31.000Z</time>
      </trkpt>
      <trkpt lat="42.82604" lon="1.34899">
        <ele>1613</ele>
        <time>2025-09-27T13:00:32.000Z</time>
      </trkpt>
      <trkpt lat="42.82605" lon="1.34895">
        <ele>1613</ele>
        <time>2025-09-27T13:00:33.000Z</time>
      </trkpt>
      <trkpt lat="42.82606" lon="1.34892">
        <ele>1612</ele>
        <time>2025-09-27T13:00:34.000Z</time>
      </trkpt>
      <trkpt lat="42.82607" lon="1.34889">
        <ele>1612</ele>
        <time>2025-09-27T13:00:35.000Z</time>
      </trkpt>
      <trkpt lat="42.82607" lon="1.34886">
        <ele>1612</ele>
        <time>2025-09-27T13:00:36.000Z</time>
      </trkpt>
      <trkpt lat="42.82608" lon="1.34884">
        <ele>1611</ele>
        <time>2025-09-27T13:00:37.000Z</time>
      </trkpt>
      <trkpt lat="42.82608" lon="1.34881">
        <ele>1611</ele>
        <time>2025-09-27T13:00:38.000Z</time>
      </trkpt>
      <trkpt lat="42.82608" lon="1.34878">
        <ele>1611</ele>
        <time>2025-09-27T13:00:39.000Z</time>
      </trkpt>
      <trkpt lat="42.82609" lon="1.34876">
        <ele>1611</ele>
        <time>2025-09-27T13:00:40.000Z</time>
      </trkpt>
      <trkpt lat="42.82609" lon="1.34873">
        <ele>1611</ele>
        <time>2025-09-27T13:00:41.000Z</time>
      </trkpt>
      <trkpt lat="42.82609" lon="1.34869">
        <ele>1611</ele>
        <time>2025-09-27T13:00:42.000Z</time>
      </trkpt>
      <trkpt lat="42.82608" lon="1.34866">
        <ele>1611</ele>
        <time>2025-09-27T13:00:43.000Z</time>
      </trkpt>
      <trkpt lat="42.82609" lon="1.34862">
        <ele>1610</ele>
        <time>2025-09-27T13:00:44.000Z</time>
      </trkpt>
      <trkpt lat="42.82609" lon="1.34857">
        <ele>1610</ele>
        <time>2025-09-27T13:00:45.000Z</time>
      </trkpt>
      <trkpt lat="42.82609" lon="1.34855">
        <ele>1610</ele>
        <time>2025-09-27T13:00:46.000Z</time>
      </trkpt>
      <trkpt lat="42.8261" lon="1.34853">
        <ele>1611</ele>
        <time>2025-09-27T13:00:47.000Z</time>
      </trkpt>
      <trkpt lat="42.82611" lon="1.3485">
        <ele>1610</ele>
        <time>2025-09-27T13:00:48.000Z</time>
      </trkpt>
      <trkpt lat="42.82611" lon="1.34849">
        <ele>1610</ele>
        <time>2025-09-27T13:00:49.000Z</time>
      </trkpt>
      <trkpt lat="42.82611" lon="1.34846">
        <ele>1610</ele>
        <time>2025-09-27T13:00:50.000Z</time>
      </trkpt>
      <trkpt lat="42.82611" lon="1.34843">
        <ele>1610</ele>
        <time>2025-09-27T13:00:51.000Z</time>
      </trkpt>
      <trkpt lat="42.82611" lon="1.3484">
        <ele>1610</ele>
        <time>2025-09-27T13:00:52.000Z</time>
      </trkpt>
      <trkpt lat="42.82612" lon="1.34837">
        <ele>1610</ele>
        <time>2025-09-27T13:00:53.000Z</time>
      </trkpt>
      <trkpt lat="42.82612" lon="1.34834">
        <ele>1610</ele>
        <time>2025-09-27T13:00:54.000Z</time>
      </trkpt>
      <trkpt lat="42.82613" lon="1.34832">
        <ele>1610</ele>
        <time>2025-09-27T13:00:55.000Z</time>
      </trkpt>
      <trkpt lat="42.82613" lon="1.3483">
        <ele>1610</ele>
        <time>2025-09-27T13:00:56.000Z</time>
      </trkpt>
      <trkpt lat="42.82613" lon="1.34827">
        <ele>1609</ele>
        <time>2025-09-27T13:00:57.000Z</time>
      </trkpt>
      <trkpt lat="42.82613" lon="1.34824">
        <ele>1609</ele>
        <time>2025-09-27T13:00:58.000Z</time>
      </trkpt>
      <trkpt lat="42.82613" lon="1.34821">
        <ele>1609</ele>
        <time>2025-09-27T13:00:59.000Z</time>
      </trkpt>
      <trkpt lat="42.82614" lon="1.34819">
        <ele>1608</ele>
        <time>2025-09-27T13:01:00.000Z</time>
      </trkpt>
      <trkpt lat="42.82614" lon="1.34818">
        <ele>1608</ele>
        <time>2025-09-27T13:01:01.000Z</time>
      </trkpt>
      <trkpt lat="42.82614" lon="1.34818">
        <ele>1608</ele>
        <time>2025-09-27T13:01:02.000Z</time>
      </trkpt>
      <trkpt lat="42.82614" lon="1.34816">
        <ele>1608</ele>
        <time>2025-09-27T13:01:03.000Z</time>
      </trkpt>
      <trkpt lat="42.82615" lon="1.34814">
        <ele>1608</ele>
        <time>2025-09-27T13:01:04.000Z</time>
      </trkpt>
      <trkpt lat="42.82615" lon="1.3481">
        <ele>1608</ele>
        <time>2025-09-27T13:01:05.000Z</time>
      </trkpt>
      <trkpt lat="42.82616" lon="1.34808">
        <ele>1608</ele>
        <time>2025-09-27T13:01:06.000Z</time>
      </trkpt>
      <trkpt lat="42.82616" lon="1.34805">
        <ele>1608</ele>
        <time>2025-09-27T13:01:07.000Z</time>
      </trkpt>
      <trkpt lat="42.82617" lon="1.34803">
        <ele>1608</ele>
        <time>2025-09-27T13:01:08.000Z</time>
      </trkpt>
      <trkpt lat="42.82618" lon="1.34802">
        <ele>1608</ele>
        <time>2025-09-27T13:01:09.000Z</time>
      </trkpt>
      <trkpt lat="42.82618" lon="1.34802">
        <ele>1608</ele>
        <time>2025-09-27T13:01:10.000Z</time>
      </trkpt>
      <trkpt lat="42.82618" lon="1.34801">
        <ele>1608</ele>
        <time>2025-09-27T13:01:11.000Z</time>
      </trkpt>
      <trkpt lat="42.82619" lon="1.34798">
        <ele>1608</ele>
        <time>2025-09-27T13:01:12.000Z</time>
      </trkpt>
      <trkpt lat="42.82619" lon="1.34796">
        <ele>1608</ele>
        <time>2025-09-27T13:01:13.000Z</time>
      </trkpt>
      <trkpt lat="42.82621" lon="1.34792">
        <ele>1608</ele>
        <time>2025-09-27T13:01:14.000Z</time>
      </trkpt>
      <trkpt lat="42.82622" lon="1.34789">
        <ele>1608</ele>
        <time>2025-09-27T13:01:15.000Z</time>
      </trkpt>
      <trkpt lat="42.82624" lon="1.34787">
        <ele>1608</ele>
        <time>2025-09-27T13:01:16.000Z</time>
      </trkpt>
      <trkpt lat="42.82625" lon="1.34785">
        <ele>1608</ele>
        <time>2025-09-27T13:01:17.000Z</time>
      </trkpt>
      <trkpt lat="42.82626" lon="1.34786">
        <ele>1607</ele>
        <time>2025-09-27T13:01:18.000Z</time>
      </trkpt>
      <trkpt lat="42.82626" lon="1.34786">
        <ele>1607</ele>
        <time>2025-09-27T13:01:19.000Z</time>
      </trkpt>
      <trkpt lat="42.82626" lon="1.34785">
        <ele>1607</ele>
        <time>2025-09-27T13:01:20.000Z</time>
      </trkpt>
      <trkpt lat="42.82627" lon="1.34784">
        <ele>1607</ele>
        <time>2025-09-27T13:01:21.000Z</time>
      </trkpt>
      <trkpt lat="42.82627" lon="1.34783">
        <ele>1607</ele>
        <time>2025-09-27T13:01:22.000Z</time>
      </trkpt>
      <trkpt lat="42.82627" lon="1.34782">
        <ele>1607</ele>
        <time>2025-09-27T13:01:23.000Z</time>
      </trkpt>
      <trkpt lat="42.82627" lon="1.34782">
        <ele>1607</ele>
        <time>2025-09-27T13:01:24.000Z</time>
      </trkpt>
      <trkpt lat="42.82627" lon="1.34782">
        <ele>1607</ele>
        <time>2025-09-27T13:01:25.000Z</time>
      </trkpt>
      <trkpt lat="42.82627" lon="1.34783">
        <ele>1607</ele>
        <time>2025-09-27T13:01:26.000Z</time>
      </trkpt>
      <trkpt lat="42.82627" lon="1.34782">
        <ele>1606</ele>
        <time>2025-09-27T13:01:27.000Z</time>
      </trkpt>
      <trkpt lat="42.82628" lon="1.34781">
        <ele>1606</ele>
        <time>2025-09-27T13:01:28.000Z</time>
      </trkpt>
      <trkpt lat="42.82628" lon="1.3478">
        <ele>1606</ele>
        <time>2025-09-27T13:01:29.000Z</time>
      </trkpt>
      <trkpt lat="42.82628" lon="1.34779">
        <ele>1606</ele>
        <time>2025-09-27T13:01:30.000Z</time>
      </trkpt>
      <trkpt lat="42.82629" lon="1.34778">
        <ele>1606</ele>
        <time>2025-09-27T13:01:31.000Z</time>
      </trkpt>
      <trkpt lat="42.82629" lon="1.34776">
        <ele>1606</ele>
        <time>2025-09-27T13:01:32.000Z</time>
      </trkpt>
      <trkpt lat="42.8263" lon="1.34774">
        <ele>1606</ele>
        <time>2025-09-27T13:01:33.000Z</time>
      </trkpt>
      <trkpt lat="42.8263" lon="1.34773">
        <ele>1606</ele>
        <time>2025-09-27T13:01:34.000Z</time>
      </trkpt>
      <trkpt lat="42.82631" lon="1.34772">
        <ele>1606</ele>
        <time>2025-09-27T13:01:35.000Z</time>
      </trkpt>
      <trkpt lat="42.82631" lon="1.34771">
        <ele>1606</ele>
        <time>2025-09-27T13:01:36.000Z</time>
      </trkpt>
      <trkpt lat="42.82632" lon="1.3477">
        <ele>1606</ele>
        <time>2025-09-27T13:01:37.000Z</time>
      </trkpt>
      <trkpt lat="42.82632" lon="1.34769">
        <ele>1606</ele>
        <time>2025-09-27T13:01:38.000Z</time>
      </trkpt>
      <trkpt lat="42.82632" lon="1.34768">
        <ele>1606</ele>
        <time>2025-09-27T13:01:39.000Z</time>
      </trkpt>
      <trkpt lat="42.82632" lon="1.34767">
        <ele>1606</ele>
        <time>2025-09-27T13:01:40.000Z</time>
      </trkpt>
      <trkpt lat="42.82632" lon="1.34765">
        <ele>1606</ele>
        <time>2025-09-27T13:01:41.000Z</time>
      </trkpt>
      <trkpt lat="42.82632" lon="1.34764">
        <ele>1607</ele>
        <time>2025-09-27T13:01:42.000Z</time>
      </trkpt>
      <trkpt lat="42.82632" lon="1.34764">
        <ele>1607</ele>
        <time>2025-09-27T13:01:43.000Z</time>
      </trkpt>
      <trkpt lat="42.82633" lon="1.34763">
        <ele>1607</ele>
        <time>2025-09-27T13:01:44.000Z</time>
      </trkpt>
      <trkpt lat="42.82633" lon="1.34762">
        <ele>1608</ele>
        <time>2025-09-27T13:01:45.000Z</time>
      </trkpt>
      <trkpt lat="42.82633" lon="1.34762">
        <ele>1608</ele>
        <time>2025-09-27T13:01:46.000Z</time>
      </trkpt>
      <trkpt lat="42.82633" lon="1.34762">
        <ele>1609</ele>
        <time>2025-09-27T13:01:47.000Z</time>
      </trkpt>
      <trkpt lat="42.82633" lon="1.34761">
        <ele>1608</ele>
        <time>2025-09-27T13:01:48.000Z</time>
      </trkpt>
      <trkpt lat="42.82634" lon="1.3476">
        <ele>1608</ele>
        <time>2025-09-27T13:01:49.000Z</time>
      </trkpt>
      <trkpt lat="42.82635" lon="1.34759">
        <ele>1608</ele>
        <time>2025-09-27T13:01:50.000Z</time>
      </trkpt>
      <trkpt lat="42.82635" lon="1.34758">
        <ele>1608</ele>
        <time>2025-09-27T13:01:51.000Z</time>
      </trkpt>
      <trkpt lat="42.82635" lon="1.34757">
        <ele>1608</ele>
        <time>2025-09-27T13:01:52.000Z</time>
      </trkpt>
      <trkpt lat="42.82635" lon="1.34757">
        <ele>1608</ele>
        <time>2025-09-27T13:01:53.000Z</time>
      </trkpt>
      <trkpt lat="42.82635" lon="1.34757">
        <ele>1608</ele>
        <time>2025-09-27T13:01:54.000Z</time>
      </trkpt>
      <trkpt lat="42.82635" lon="1.34757">
        <ele>1608</ele>
        <time>2025-09-27T13:01:55.000Z</time>
      </trkpt>
      <trkpt lat="42.82635" lon="1.34756">
        <ele>1608</ele>
        <time>2025-09-27T13:01:56.000Z</time>
      </trkpt>
      <trkpt lat="42.82634" lon="1.34755">
        <ele>1608</ele>
        <time>2025-09-27T13:01:57.000Z</time>
      </trkpt>
      <trkpt lat="42.82634" lon="1.34753">
        <ele>1609</ele>
        <time>2025-09-27T13:01:58.000Z</time>
      </trkpt>
      <trkpt lat="42.82635" lon="1.34751">
        <ele>1609</ele>
        <time>2025-09-27T13:01:59.000Z</time>
      </trkpt>
      <trkpt lat="42.82636" lon="1.34749">
        <ele>1608</ele>
        <time>2025-09-27T13:02:00.000Z</time>
      </trkpt>
      <trkpt lat="42.82637" lon="1.34748">
        <ele>1609</ele>
        <time>2025-09-27T13:02:01.000Z</time>
      </trkpt>
      <trkpt lat="42.82637" lon="1.34745">
        <ele>1609</ele>
        <time>2025-09-27T13:02:02.000Z</time>
      </trkpt>
      <trkpt lat="42.82638" lon="1.34742">
        <ele>1608</ele>
        <time>2025-09-27T13:02:03.000Z</time>
      </trkpt>
      <trkpt lat="42.82638" lon="1.34739">
        <ele>1608</ele>
        <time>2025-09-27T13:02:04.000Z</time>
      </trkpt>
      <trkpt lat="42.8264" lon="1.34736">
        <ele>1608</ele>
        <time>2025-09-27T13:02:05.000Z</time>
      </trkpt>
      <trkpt lat="42.82641" lon="1.34733">
        <ele>1607</ele>
        <time>2025-09-27T13:02:06.000Z</time>
      </trkpt>
      <trkpt lat="42.82642" lon="1.3473">
        <ele>1608</ele>
        <time>2025-09-27T13:02:07.000Z</time>
      </trkpt>
      <trkpt lat="42.82643" lon="1.34728">
        <ele>1608</ele>
        <time>2025-09-27T13:02:08.000Z</time>
      </trkpt>
      <trkpt lat="42.82643" lon="1.34727">
        <ele>1608</ele>
        <time>2025-09-27T13:02:09.000Z</time>
      </trkpt>
      <trkpt lat="42.82644" lon="1.34728">
        <ele>1607</ele>
        <time>2025-09-27T13:02:10.000Z</time>
      </trkpt>
      <trkpt lat="42.82645" lon="1.34728">
        <ele>1607</ele>
        <time>2025-09-27T13:02:11.000Z</time>
      </trkpt>
      <trkpt lat="42.82646" lon="1.34727">
        <ele>1606</ele>
        <time>2025-09-27T13:02:12.000Z</time>
      </trkpt>
      <trkpt lat="42.82645" lon="1.34726">
        <ele>1606</ele>
        <time>2025-09-27T13:02:13.000Z</time>
      </trkpt>
      <trkpt lat="42.82646" lon="1.34726">
        <ele>1606</ele>
        <time>2025-09-27T13:02:14.000Z</time>
      </trkpt>
      <trkpt lat="42.82646" lon="1.34724">
        <ele>1606</ele>
        <time>2025-09-27T13:02:15.000Z</time>
      </trkpt>
      <trkpt lat="42.82646" lon="1.34723">
        <ele>1607</ele>
        <time>2025-09-27T13:02:16.000Z</time>
      </trkpt>
      <trkpt lat="42.82646" lon="1.34722">
        <ele>1607</ele>
        <time>2025-09-27T13:02:17.000Z</time>
      </trkpt>
      <trkpt lat="42.82646" lon="1.34721">
        <ele>1606</ele>
        <time>2025-09-27T13:02:18.000Z</time>
      </trkpt>
      <trkpt lat="42.82646" lon="1.34719">
        <ele>1606</ele>
        <time>2025-09-27T13:02:19.000Z</time>
      </trkpt>
      <trkpt lat="42.82647" lon="1.34718">
        <ele>1606</ele>
        <time>2025-09-27T13:02:20.000Z</time>
      </trkpt>
      <trkpt lat="42.82648" lon="1.34717">
        <ele>1605</ele>
        <time>2025-09-27T13:02:21.000Z</time>
      </trkpt>
      <trkpt lat="42.82648" lon="1.34715">
        <ele>1605</ele>
        <time>2025-09-27T13:02:22.000Z</time>
      </trkpt>
      <trkpt lat="42.82649" lon="1.34713">
        <ele>1605</ele>
        <time>2025-09-27T13:02:23.000Z</time>
      </trkpt>
      <trkpt lat="42.8265" lon="1.34712">
        <ele>1605</ele>
        <time>2025-09-27T13:02:24.000Z</time>
      </trkpt>
      <trkpt lat="42.82651" lon="1.34711">
        <ele>1606</ele>
        <time>2025-09-27T13:02:25.000Z</time>
      </trkpt>
      <trkpt lat="42.82651" lon="1.3471">
        <ele>1606</ele>
        <time>2025-09-27T13:02:26.000Z</time>
      </trkpt>
      <trkpt lat="42.82651" lon="1.34709">
        <ele>1605</ele>
        <time>2025-09-27T13:02:27.000Z</time>
      </trkpt>
      <trkpt lat="42.82652" lon="1.34708">
        <ele>1605</ele>
        <time>2025-09-27T13:02:28.000Z</time>
      </trkpt>
      <trkpt lat="42.82653" lon="1.34706">
        <ele>1605</ele>
        <time>2025-09-27T13:02:29.000Z</time>
      </trkpt>
      <trkpt lat="42.82653" lon="1.34705">
        <ele>1604</ele>
        <time>2025-09-27T13:02:30.000Z</time>
      </trkpt>
      <trkpt lat="42.82654" lon="1.34703">
        <ele>1605</ele>
        <time>2025-09-27T13:02:31.000Z</time>
      </trkpt>
      <trkpt lat="42.82654" lon="1.34702">
        <ele>1605</ele>
        <time>2025-09-27T13:02:32.000Z</time>
      </trkpt>
      <trkpt lat="42.82655" lon="1.347">
        <ele>1605</ele>
        <time>2025-09-27T13:02:33.000Z</time>
      </trkpt>
      <trkpt lat="42.82655" lon="1.34699">
        <ele>1606</ele>
        <time>2025-09-27T13:02:34.000Z</time>
      </trkpt>
      <trkpt lat="42.82655" lon="1.34698">
        <ele>1606</ele>
        <time>2025-09-27T13:02:35.000Z</time>
      </trkpt>
      <trkpt lat="42.82656" lon="1.34697">
        <ele>1605</ele>
        <time>2025-09-27T13:02:36.000Z</time>
      </trkpt>
      <trkpt lat="42.82656" lon="1.34695">
        <ele>1606</ele>
        <time>2025-09-27T13:02:37.000Z</time>
      </trkpt>
      <trkpt lat="42.82657" lon="1.34694">
        <ele>1605</ele>
        <time>2025-09-27T13:02:38.000Z</time>
      </trkpt>
      <trkpt lat="42.82656" lon="1.34693">
        <ele>1605</ele>
        <time>2025-09-27T13:02:39.000Z</time>
      </trkpt>
      <trkpt lat="42.82656" lon="1.34693">
        <ele>1605</ele>
        <time>2025-09-27T13:02:40.000Z</time>
      </trkpt>
      <trkpt lat="42.82656" lon="1.34693">
        <ele>1605</ele>
        <time>2025-09-27T13:02:41.000Z</time>
      </trkpt>
      <trkpt lat="42.82656" lon="1.34693">
        <ele>1605</ele>
        <time>2025-09-27T13:02:42.000Z</time>
      </trkpt>
      <trkpt lat="42.82656" lon="1.34693">
        <ele>1605</ele>
        <time>2025-09-27T13:02:43.000Z</time>
      </trkpt>
      <trkpt lat="42.82656" lon="1.34692">
        <ele>1605</ele>
        <time>2025-09-27T13:02:44.000Z</time>
      </trkpt>
      <trkpt lat="42.82656" lon="1.3469">
        <ele>1605</ele>
        <time>2025-09-27T13:02:45.000Z</time>
      </trkpt>
      <trkpt lat="42.82656" lon="1.34686">
        <ele>1605</ele>
        <time>2025-09-27T13:02:46.000Z</time>
      </trkpt>
      <trkpt lat="42.82656" lon="1.34682">
        <ele>1605</ele>
        <time>2025-09-27T13:02:47.000Z</time>
      </trkpt>
      <trkpt lat="42.82655" lon="1.34678">
        <ele>1604</ele>
        <time>2025-09-27T13:02:48.000Z</time>
      </trkpt>
      <trkpt lat="42.82656" lon="1.34673">
        <ele>1604</ele>
        <time>2025-09-27T13:02:49.000Z</time>
      </trkpt>
      <trkpt lat="42.82656" lon="1.34668">
        <ele>1603</ele>
        <time>2025-09-27T13:02:50.000Z</time>
      </trkpt>
      <trkpt lat="42.82657" lon="1.34665">
        <ele>1603</ele>
        <time>2025-09-27T13:02:51.000Z</time>
      </trkpt>
      <trkpt lat="42.82657" lon="1.34661">
        <ele>1603</ele>
        <time>2025-09-27T13:02:52.000Z</time>
      </trkpt>
      <trkpt lat="42.82658" lon="1.34658">
        <ele>1603</ele>
        <time>2025-09-27T13:02:53.000Z</time>
      </trkpt>
      <trkpt lat="42.82659" lon="1.34655">
        <ele>1603</ele>
        <time>2025-09-27T13:02:54.000Z</time>
      </trkpt>
      <trkpt lat="42.8266" lon="1.34652">
        <ele>1603</ele>
        <time>2025-09-27T13:02:55.000Z</time>
      </trkpt>
      <trkpt lat="42.8266" lon="1.34649">
        <ele>1603</ele>
        <time>2025-09-27T13:02:56.000Z</time>
      </trkpt>
      <trkpt lat="42.82661" lon="1.34646">
        <ele>1603</ele>
        <time>2025-09-27T13:02:57.000Z</time>
      </trkpt>
      <trkpt lat="42.82663" lon="1.34643">
        <ele>1603</ele>
        <time>2025-09-27T13:02:58.000Z</time>
      </trkpt>
      <trkpt lat="42.82664" lon="1.34641">
        <ele>1604</ele>
        <time>2025-09-27T13:02:59.000Z</time>
      </trkpt>
      <trkpt lat="42.82666" lon="1.34639">
        <ele>1604</ele>
        <time>2025-09-27T13:03:00.000Z</time>
      </trkpt>
      <trkpt lat="42.82668" lon="1.34638">
        <ele>1604</ele>
        <time>2025-09-27T13:03:01.000Z</time>
      </trkpt>
      <trkpt lat="42.8267" lon="1.34637">
        <ele>1605</ele>
        <time>2025-09-27T13:03:02.000Z</time>
      </trkpt>
      <trkpt lat="42.82671" lon="1.34635">
        <ele>1605</ele>
        <time>2025-09-27T13:03:03.000Z</time>
      </trkpt>
      <trkpt lat="42.82672" lon="1.34633">
        <ele>1605</ele>
        <time>2025-09-27T13:03:04.000Z</time>
      </trkpt>
      <trkpt lat="42.82673" lon="1.34632">
        <ele>1605</ele>
        <time>2025-09-27T13:03:05.000Z</time>
      </trkpt>
      <trkpt lat="42.82674" lon="1.3463">
        <ele>1606</ele>
        <time>2025-09-27T13:03:06.000Z</time>
      </trkpt>
      <trkpt lat="42.82674" lon="1.34628">
        <ele>1606</ele>
        <time>2025-09-27T13:03:07.000Z</time>
      </trkpt>
      <trkpt lat="42.82675" lon="1.34627">
        <ele>1606</ele>
        <time>2025-09-27T13:03:08.000Z</time>
      </trkpt>
      <trkpt lat="42.82675" lon="1.34625">
        <ele>1607</ele>
        <time>2025-09-27T13:03:09.000Z</time>
      </trkpt>
      <trkpt lat="42.82676" lon="1.34623">
        <ele>1607</ele>
        <time>2025-09-27T13:03:10.000Z</time>
      </trkpt>
      <trkpt lat="42.82677" lon="1.3462">
        <ele>1606</ele>
        <time>2025-09-27T13:03:11.000Z</time>
      </trkpt>
      <trkpt lat="42.82678" lon="1.34619">
        <ele>1607</ele>
        <time>2025-09-27T13:03:12.000Z</time>
      </trkpt>
      <trkpt lat="42.82679" lon="1.34617">
        <ele>1608</ele>
        <time>2025-09-27T13:03:13.000Z</time>
      </trkpt>
      <trkpt lat="42.82681" lon="1.34617">
        <ele>1608</ele>
        <time>2025-09-27T13:03:14.000Z</time>
      </trkpt>
      <trkpt lat="42.82683" lon="1.34616">
        <ele>1607</ele>
        <time>2025-09-27T13:03:15.000Z</time>
      </trkpt>
      <trkpt lat="42.82685" lon="1.34615">
        <ele>1608</ele>
        <time>2025-09-27T13:03:16.000Z</time>
      </trkpt>
      <trkpt lat="42.82687" lon="1.34612">
        <ele>1608</ele>
        <time>2025-09-27T13:03:17.000Z</time>
      </trkpt>
      <trkpt lat="42.82688" lon="1.34611">
        <ele>1607</ele>
        <time>2025-09-27T13:03:18.000Z</time>
      </trkpt>
      <trkpt lat="42.8269" lon="1.34609">
        <ele>1608</ele>
        <time>2025-09-27T13:03:19.000Z</time>
      </trkpt>
      <trkpt lat="42.82691" lon="1.34608">
        <ele>1608</ele>
        <time>2025-09-27T13:03:20.000Z</time>
      </trkpt>
      <trkpt lat="42.82691" lon="1.34608">
        <ele>1608</ele>
        <time>2025-09-27T13:03:21.000Z</time>
      </trkpt>
      <trkpt lat="42.82691" lon="1.34609">
        <ele>1608</ele>
        <time>2025-09-27T13:03:22.000Z</time>
      </trkpt>
      <trkpt lat="42.82691" lon="1.34609">
        <ele>1609</ele>
        <time>2025-09-27T13:03:23.000Z</time>
      </trkpt>
      <trkpt lat="42.82691" lon="1.34609">
        <ele>1608</ele>
        <time>2025-09-27T13:03:24.000Z</time>
      </trkpt>
      <trkpt lat="42.82692" lon="1.34607">
        <ele>1608</ele>
        <time>2025-09-27T13:03:25.000Z</time>
      </trkpt>
      <trkpt lat="42.82693" lon="1.34606">
        <ele>1608</ele>
        <time>2025-09-27T13:03:26.000Z</time>
      </trkpt>
      <trkpt lat="42.82693" lon="1.34606">
        <ele>1607</ele>
        <time>2025-09-27T13:03:27.000Z</time>
      </trkpt>
      <trkpt lat="42.82693" lon="1.34605">
        <ele>1607</ele>
        <time>2025-09-27T13:03:28.000Z</time>
      </trkpt>
      <trkpt lat="42.82693" lon="1.34605">
        <ele>1607</ele>
        <time>2025-09-27T13:03:29.000Z</time>
      </trkpt>
      <trkpt lat="42.82694" lon="1.34604">
        <ele>1607</ele>
        <time>2025-09-27T13:03:30.000Z</time>
      </trkpt>
      <trkpt lat="42.82694" lon="1.34604">
        <ele>1606</ele>
        <time>2025-09-27T13:03:31.000Z</time>
      </trkpt>
      <trkpt lat="42.82695" lon="1.34603">
        <ele>1606</ele>
        <time>2025-09-27T13:03:32.000Z</time>
      </trkpt>
      <trkpt lat="42.82696" lon="1.34602">
        <ele>1606</ele>
        <time>2025-09-27T13:03:33.000Z</time>
      </trkpt>
      <trkpt lat="42.82696" lon="1.34602">
        <ele>1606</ele>
        <time>2025-09-27T13:03:34.000Z</time>
      </trkpt>
      <trkpt lat="42.82697" lon="1.34602">
        <ele>1605</ele>
        <time>2025-09-27T13:03:35.000Z</time>
      </trkpt>
      <trkpt lat="42.82698" lon="1.34601">
        <ele>1605</ele>
        <time>2025-09-27T13:03:36.000Z</time>
      </trkpt>
      <trkpt lat="42.82699" lon="1.34601">
        <ele>1606</ele>
        <time>2025-09-27T13:03:37.000Z</time>
      </trkpt>
      <trkpt lat="42.82699" lon="1.346">
        <ele>1606</ele>
        <time>2025-09-27T13:03:38.000Z</time>
      </trkpt>
      <trkpt lat="42.82699" lon="1.34599">
        <ele>1606</ele>
        <time>2025-09-27T13:03:39.000Z</time>
      </trkpt>
      <trkpt lat="42.827" lon="1.34598">
        <ele>1605</ele>
        <time>2025-09-27T13:03:40.000Z</time>
      </trkpt>
      <trkpt lat="42.82701" lon="1.34597">
        <ele>1605</ele>
        <time>2025-09-27T13:03:41.000Z</time>
      </trkpt>
      <trkpt lat="42.82702" lon="1.34595">
        <ele>1605</ele>
        <time>2025-09-27T13:03:42.000Z</time>
      </trkpt>
      <trkpt lat="42.82702" lon="1.34595">
        <ele>1606</ele>
        <time>2025-09-27T13:03:43.000Z</time>
      </trkpt>
      <trkpt lat="42.82703" lon="1.34595">
        <ele>1605</ele>
        <time>2025-09-27T13:03:44.000Z</time>
      </trkpt>
      <trkpt lat="42.82703" lon="1.34594">
        <ele>1605</ele>
        <time>2025-09-27T13:03:45.000Z</time>
      </trkpt>
      <trkpt lat="42.82704" lon="1.34594">
        <ele>1606</ele>
        <time>2025-09-27T13:03:46.000Z</time>
      </trkpt>
      <trkpt lat="42.82704" lon="1.34594">
        <ele>1606</ele>
        <time>2025-09-27T13:03:47.000Z</time>
      </trkpt>
      <trkpt lat="42.82706" lon="1.34593">
        <ele>1605</ele>
        <time>2025-09-27T13:03:48.000Z</time>
      </trkpt>
      <trkpt lat="42.82706" lon="1.34592">
        <ele>1606</ele>
        <time>2025-09-27T13:03:49.000Z</time>
      </trkpt>
      <trkpt lat="42.82707" lon="1.34592">
        <ele>1606</ele>
        <time>2025-09-27T13:03:50.000Z</time>
      </trkpt>
      <trkpt lat="42.82707" lon="1.34591">
        <ele>1606</ele>
        <time>2025-09-27T13:03:51.000Z</time>
      </trkpt>
      <trkpt lat="42.82707" lon="1.34588">
        <ele>1605</ele>
        <time>2025-09-27T13:04:05.000Z</time>
      </trkpt>
      <trkpt lat="42.82708" lon="1.34588">
        <ele>1606</ele>
        <time>2025-09-27T13:04:06.000Z</time>
      </trkpt>
      <trkpt lat="42.82709" lon="1.34587">
        <ele>1606</ele>
        <time>2025-09-27T13:04:07.000Z</time>
      </trkpt>
      <trkpt lat="42.8271" lon="1.34587">
        <ele>1607</ele>
        <time>2025-09-27T13:04:08.000Z</time>
      </trkpt>
      <trkpt lat="42.82711" lon="1.34586">
        <ele>1607</ele>
        <time>2025-09-27T13:04:09.000Z</time>
      </trkpt>
      <trkpt lat="42.82711" lon="1.34586">
        <ele>1606</ele>
        <time>2025-09-27T13:04:10.000Z</time>
      </trkpt>
      <trkpt lat="42.82712" lon="1.34585">
        <ele>1606</ele>
        <time>2025-09-27T13:04:11.000Z</time>
      </trkpt>
      <trkpt lat="42.82712" lon="1.34585">
        <ele>1606</ele>
        <time>2025-09-27T13:04:12.000Z</time>
      </trkpt>
      <trkpt lat="42.82712" lon="1.34584">
        <ele>1605</ele>
        <time>2025-09-27T13:04:13.000Z</time>
      </trkpt>
      <trkpt lat="42.82712" lon="1.34583">
        <ele>1606</ele>
        <time>2025-09-27T13:04:14.000Z</time>
      </trkpt>
      <trkpt lat="42.82713" lon="1.34582">
        <ele>1605</ele>
        <time>2025-09-27T13:04:15.000Z</time>
      </trkpt>
      <trkpt lat="42.82713" lon="1.34581">
        <ele>1606</ele>
        <time>2025-09-27T13:04:16.000Z</time>
      </trkpt>
      <trkpt lat="42.82713" lon="1.3458">
        <ele>1606</ele>
        <time>2025-09-27T13:04:17.000Z</time>
      </trkpt>
      <trkpt lat="42.82714" lon="1.3458">
        <ele>1606</ele>
        <time>2025-09-27T13:04:18.000Z</time>
      </trkpt>
      <trkpt lat="42.82714" lon="1.34579">
        <ele>1606</ele>
        <time>2025-09-27T13:04:19.000Z</time>
      </trkpt>
      <trkpt lat="42.82714" lon="1.34577">
        <ele>1606</ele>
        <time>2025-09-27T13:04:20.000Z</time>
      </trkpt>
      <trkpt lat="42.82715" lon="1.34576">
        <ele>1606</ele>
        <time>2025-09-27T13:04:21.000Z</time>
      </trkpt>
      <trkpt lat="42.82715" lon="1.34575">
        <ele>1606</ele>
        <time>2025-09-27T13:04:22.000Z</time>
      </trkpt>
      <trkpt lat="42.82715" lon="1.34575">
        <ele>1606</ele>
        <time>2025-09-27T13:04:23.000Z</time>
      </trkpt>
      <trkpt lat="42.82715" lon="1.34575">
        <ele>1606</ele>
        <time>2025-09-27T13:04:24.000Z</time>
      </trkpt>
      <trkpt lat="42.82715" lon="1.34575">
        <ele>1606</ele>
        <time>2025-09-27T13:04:25.000Z</time>
      </trkpt>
      <trkpt lat="42.82715" lon="1.34574">
        <ele>1606</ele>
        <time>2025-09-27T13:04:26.000Z</time>
      </trkpt>
      <trkpt lat="42.82715" lon="1.34573">
        <ele>1606</ele>
        <time>2025-09-27T13:04:27.000Z</time>
      </trkpt>
      <trkpt lat="42.82716" lon="1.34572">
        <ele>1606</ele>
        <time>2025-09-27T13:04:28.000Z</time>
      </trkpt>
      <trkpt lat="42.82716" lon="1.34572">
        <ele>1607</ele>
        <time>2025-09-27T13:04:29.000Z</time>
      </trkpt>
      <trkpt lat="42.82716" lon="1.34571">
        <ele>1607</ele>
        <time>2025-09-27T13:04:30.000Z</time>
      </trkpt>
      <trkpt lat="42.82716" lon="1.34571">
        <ele>1607</ele>
        <time>2025-09-27T13:04:31.000Z</time>
      </trkpt>
      <trkpt lat="42.82716" lon="1.3457">
        <ele>1607</ele>
        <time>2025-09-27T13:04:32.000Z</time>
      </trkpt>
      <trkpt lat="42.82716" lon="1.34569">
        <ele>1607</ele>
        <time>2025-09-27T13:04:33.000Z</time>
      </trkpt>
      <trkpt lat="42.82717" lon="1.34568">
        <ele>1607</ele>
        <time>2025-09-27T13:04:34.000Z</time>
      </trkpt>
      <trkpt lat="42.82718" lon="1.34567">
        <ele>1607</ele>
        <time>2025-09-27T13:04:35.000Z</time>
      </trkpt>
      <trkpt lat="42.82718" lon="1.34566">
        <ele>1607</ele>
        <time>2025-09-27T13:04:36.000Z</time>
      </trkpt>
      <trkpt lat="42.82718" lon="1.34565">
        <ele>1607</ele>
        <time>2025-09-27T13:04:37.000Z</time>
      </trkpt>
      <trkpt lat="42.82719" lon="1.34564">
        <ele>1608</ele>
        <time>2025-09-27T13:04:38.000Z</time>
      </trkpt>
      <trkpt lat="42.82719" lon="1.34564">
        <ele>1609</ele>
        <time>2025-09-27T13:04:39.000Z</time>
      </trkpt>
      <trkpt lat="42.8272" lon="1.34562">
        <ele>1609</ele>
        <time>2025-09-27T13:04:40.000Z</time>
      </trkpt>
      <trkpt lat="42.82723" lon="1.34554">
        <ele>1610</ele>
        <time>2025-09-27T13:04:53.000Z</time>
      </trkpt>
      <trkpt lat="42.82724" lon="1.34553">
        <ele>1610</ele>
        <time>2025-09-27T13:04:54.000Z</time>
      </trkpt>
      <trkpt lat="42.82724" lon="1.34552">
        <ele>1611</ele>
        <time>2025-09-27T13:04:55.000Z</time>
      </trkpt>
      <trkpt lat="42.82725" lon="1.34552">
        <ele>1610</ele>
        <time>2025-09-27T13:04:56.000Z</time>
      </trkpt>
      <trkpt lat="42.82725" lon="1.34551">
        <ele>1610</ele>
        <time>2025-09-27T13:04:57.000Z</time>
      </trkpt>
      <trkpt lat="42.82725" lon="1.34551">
        <ele>1610</ele>
        <time>2025-09-27T13:04:58.000Z</time>
      </trkpt>
      <trkpt lat="42.82726" lon="1.3455">
        <ele>1611</ele>
        <time>2025-09-27T13:04:59.000Z</time>
      </trkpt>
      <trkpt lat="42.82726" lon="1.34549">
        <ele>1611</ele>
        <time>2025-09-27T13:05:00.000Z</time>
      </trkpt>
      <trkpt lat="42.82726" lon="1.34548">
        <ele>1611</ele>
        <time>2025-09-27T13:05:01.000Z</time>
      </trkpt>
      <trkpt lat="42.82726" lon="1.34547">
        <ele>1611</ele>
        <time>2025-09-27T13:05:02.000Z</time>
      </trkpt>
      <trkpt lat="42.82726" lon="1.34546">
        <ele>1611</ele>
        <time>2025-09-27T13:05:03.000Z</time>
      </trkpt>
      <trkpt lat="42.82726" lon="1.34546">
        <ele>1610</ele>
        <time>2025-09-27T13:05:04.000Z</time>
      </trkpt>
      <trkpt lat="42.82726" lon="1.34546">
        <ele>1610</ele>
        <time>2025-09-27T13:05:05.000Z</time>
      </trkpt>
      <trkpt lat="42.82726" lon="1.34545">
        <ele>1610</ele>
        <time>2025-09-27T13:05:06.000Z</time>
      </trkpt>
      <trkpt lat="42.82726" lon="1.34544">
        <ele>1610</ele>
        <time>2025-09-27T13:05:07.000Z</time>
      </trkpt>
      <trkpt lat="42.82727" lon="1.34543">
        <ele>1611</ele>
        <time>2025-09-27T13:05:08.000Z</time>
      </trkpt>
      <trkpt lat="42.82727" lon="1.34543">
        <ele>1611</ele>
        <time>2025-09-27T13:05:09.000Z</time>
      </trkpt>
      <trkpt lat="42.82728" lon="1.34541">
        <ele>1611</ele>
        <time>2025-09-27T13:05:10.000Z</time>
      </trkpt>
      <trkpt lat="42.82728" lon="1.3454">
        <ele>1611</ele>
        <time>2025-09-27T13:05:11.000Z</time>
      </trkpt>
      <trkpt lat="42.82729" lon="1.34539">
        <ele>1611</ele>
        <time>2025-09-27T13:05:12.000Z</time>
      </trkpt>
      <trkpt lat="42.82729" lon="1.34538">
        <ele>1611</ele>
        <time>2025-09-27T13:05:13.000Z</time>
      </trkpt>
      <trkpt lat="42.8273" lon="1.34538">
        <ele>1611</ele>
        <time>2025-09-27T13:05:14.000Z</time>
      </trkpt>
      <trkpt lat="42.8273" lon="1.34537">
        <ele>1611</ele>
        <time>2025-09-27T13:05:15.000Z</time>
      </trkpt>
      <trkpt lat="42.8273" lon="1.34536">
        <ele>1612</ele>
        <time>2025-09-27T13:05:16.000Z</time>
      </trkpt>
      <trkpt lat="42.8273" lon="1.34536">
        <ele>1611</ele>
        <time>2025-09-27T13:05:17.000Z</time>
      </trkpt>
      <trkpt lat="42.82731" lon="1.34536">
        <ele>1612</ele>
        <time>2025-09-27T13:05:18.000Z</time>
      </trkpt>
      <trkpt lat="42.82731" lon="1.34536">
        <ele>1612</ele>
        <time>2025-09-27T13:05:19.000Z</time>
      </trkpt>
      <trkpt lat="42.82731" lon="1.34536">
        <ele>1612</ele>
        <time>2025-09-27T13:05:20.000Z</time>
      </trkpt>
      <trkpt lat="42.82731" lon="1.34535">
        <ele>1613</ele>
        <time>2025-09-27T13:05:21.000Z</time>
      </trkpt>
      <trkpt lat="42.82732" lon="1.34535">
        <ele>1613</ele>
        <time>2025-09-27T13:05:22.000Z</time>
      </trkpt>
      <trkpt lat="42.82733" lon="1.34534">
        <ele>1612</ele>
        <time>2025-09-27T13:05:23.000Z</time>
      </trkpt>
      <trkpt lat="42.82733" lon="1.34533">
        <ele>1612</ele>
        <time>2025-09-27T13:05:24.000Z</time>
      </trkpt>
      <trkpt lat="42.82734" lon="1.34532">
        <ele>1612</ele>
        <time>2025-09-27T13:05:25.000Z</time>
      </trkpt>
      <trkpt lat="42.82734" lon="1.34532">
        <ele>1612</ele>
        <time>2025-09-27T13:05:26.000Z</time>
      </trkpt>
      <trkpt lat="42.82735" lon="1.34531">
        <ele>1612</ele>
        <time>2025-09-27T13:05:27.000Z</time>
      </trkpt>
      <trkpt lat="42.82736" lon="1.3453">
        <ele>1612</ele>
        <time>2025-09-27T13:05:28.000Z</time>
      </trkpt>
      <trkpt lat="42.82737" lon="1.34529">
        <ele>1613</ele>
        <time>2025-09-27T13:05:29.000Z</time>
      </trkpt>
      <trkpt lat="42.82738" lon="1.34528">
        <ele>1612</ele>
        <time>2025-09-27T13:05:30.000Z</time>
      </trkpt>
      <trkpt lat="42.82738" lon="1.34527">
        <ele>1612</ele>
        <time>2025-09-27T13:05:31.000Z</time>
      </trkpt>
      <trkpt lat="42.82739" lon="1.34527">
        <ele>1613</ele>
        <time>2025-09-27T13:05:32.000Z</time>
      </trkpt>
      <trkpt lat="42.82739" lon="1.34526">
        <ele>1612</ele>
        <time>2025-09-27T13:05:33.000Z</time>
      </trkpt>
      <trkpt lat="42.8274" lon="1.34526">
        <ele>1613</ele>
        <time>2025-09-27T13:05:34.000Z</time>
      </trkpt>
      <trkpt lat="42.82741" lon="1.34525">
        <ele>1612</ele>
        <time>2025-09-27T13:05:35.000Z</time>
      </trkpt>
      <trkpt lat="42.82742" lon="1.34524">
        <ele>1612</ele>
        <time>2025-09-27T13:05:36.000Z</time>
      </trkpt>
      <trkpt lat="42.82742" lon="1.34524">
        <ele>1612</ele>
        <time>2025-09-27T13:05:37.000Z</time>
      </trkpt>
      <trkpt lat="42.82743" lon="1.34524">
        <ele>1612</ele>
        <time>2025-09-27T13:05:38.000Z</time>
      </trkpt>
      <trkpt lat="42.82744" lon="1.34524">
        <ele>1613</ele>
        <time>2025-09-27T13:05:39.000Z</time>
      </trkpt>
      <trkpt lat="42.82744" lon="1.34524">
        <ele>1613</ele>
        <time>2025-09-27T13:05:40.000Z</time>
      </trkpt>
      <trkpt lat="42.82744" lon="1.34523">
        <ele>1613</ele>
        <time>2025-09-27T13:05:41.000Z</time>
      </trkpt>
      <trkpt lat="42.82745" lon="1.34522">
        <ele>1613</ele>
        <time>2025-09-27T13:05:42.000Z</time>
      </trkpt>
      <trkpt lat="42.82746" lon="1.34521">
        <ele>1613</ele>
        <time>2025-09-27T13:05:43.000Z</time>
      </trkpt>
      <trkpt lat="42.82748" lon="1.34519">
        <ele>1613</ele>
        <time>2025-09-27T13:05:44.000Z</time>
      </trkpt>
      <trkpt lat="42.8275" lon="1.34517">
        <ele>1613</ele>
        <time>2025-09-27T13:05:45.000Z</time>
      </trkpt>
      <trkpt lat="42.82751" lon="1.34516">
        <ele>1613</ele>
        <time>2025-09-27T13:05:46.000Z</time>
      </trkpt>
      <trkpt lat="42.82751" lon="1.34515">
        <ele>1614</ele>
        <time>2025-09-27T13:05:47.000Z</time>
      </trkpt>
      <trkpt lat="42.82752" lon="1.34514">
        <ele>1614</ele>
        <time>2025-09-27T13:05:48.000Z</time>
      </trkpt>
      <trkpt lat="42.82758" lon="1.3451">
        <ele>1613</ele>
        <time>2025-09-27T13:06:02.000Z</time>
      </trkpt>
      <trkpt lat="42.82758" lon="1.3451">
        <ele>1613</ele>
        <time>2025-09-27T13:06:03.000Z</time>
      </trkpt>
      <trkpt lat="42.82758" lon="1.34509">
        <ele>1614</ele>
        <time>2025-09-27T13:06:04.000Z</time>
      </trkpt>
      <trkpt lat="42.82759" lon="1.34508">
        <ele>1614</ele>
        <time>2025-09-27T13:06:05.000Z</time>
      </trkpt>
      <trkpt lat="42.8276" lon="1.34506">
        <ele>1615</ele>
        <time>2025-09-27T13:06:06.000Z</time>
      </trkpt>
      <trkpt lat="42.82762" lon="1.34504">
        <ele>1615</ele>
        <time>2025-09-27T13:06:07.000Z</time>
      </trkpt>
      <trkpt lat="42.82763" lon="1.34502">
        <ele>1615</ele>
        <time>2025-09-27T13:06:08.000Z</time>
      </trkpt>
      <trkpt lat="42.82764" lon="1.345">
        <ele>1615</ele>
        <time>2025-09-27T13:06:09.000Z</time>
      </trkpt>
      <trkpt lat="42.82764" lon="1.34497">
        <ele>1614</ele>
        <time>2025-09-27T13:06:10.000Z</time>
      </trkpt>
      <trkpt lat="42.82765" lon="1.34496">
        <ele>1615</ele>
        <time>2025-09-27T13:06:11.000Z</time>
      </trkpt>
      <trkpt lat="42.82765" lon="1.34495">
        <ele>1615</ele>
        <time>2025-09-27T13:06:12.000Z</time>
      </trkpt>
      <trkpt lat="42.82765" lon="1.34494">
        <ele>1615</ele>
        <time>2025-09-27T13:06:13.000Z</time>
      </trkpt>
      <trkpt lat="42.82766" lon="1.34494">
        <ele>1615</ele>
        <time>2025-09-27T13:06:14.000Z</time>
      </trkpt>
      <trkpt lat="42.82767" lon="1.34492">
        <ele>1615</ele>
        <time>2025-09-27T13:06:15.000Z</time>
      </trkpt>
      <trkpt lat="42.82767" lon="1.34491">
        <ele>1615</ele>
        <time>2025-09-27T13:06:16.000Z</time>
      </trkpt>
      <trkpt lat="42.82768" lon="1.3449">
        <ele>1615</ele>
        <time>2025-09-27T13:06:17.000Z</time>
      </trkpt>
      <trkpt lat="42.82768" lon="1.34489">
        <ele>1616</ele>
        <time>2025-09-27T13:06:18.000Z</time>
      </trkpt>
      <trkpt lat="42.82768" lon="1.34488">
        <ele>1616</ele>
        <time>2025-09-27T13:06:19.000Z</time>
      </trkpt>
      <trkpt lat="42.82769" lon="1.34487">
        <ele>1616</ele>
        <time>2025-09-27T13:06:20.000Z</time>
      </trkpt>
      <trkpt lat="42.82769" lon="1.34486">
        <ele>1616</ele>
        <time>2025-09-27T13:06:21.000Z</time>
      </trkpt>
      <trkpt lat="42.82769" lon="1.34485">
        <ele>1617</ele>
        <time>2025-09-27T13:06:22.000Z</time>
      </trkpt>
      <trkpt lat="42.82769" lon="1.34484">
        <ele>1616</ele>
        <time>2025-09-27T13:06:23.000Z</time>
      </trkpt>
      <trkpt lat="42.8277" lon="1.34483">
        <ele>1616</ele>
        <time>2025-09-27T13:06:24.000Z</time>
      </trkpt>
      <trkpt lat="42.8277" lon="1.34483">
        <ele>1616</ele>
        <time>2025-09-27T13:06:25.000Z</time>
      </trkpt>
      <trkpt lat="42.8277" lon="1.34482">
        <ele>1616</ele>
        <time>2025-09-27T13:06:26.000Z</time>
      </trkpt>
      <trkpt lat="42.8277" lon="1.34481">
        <ele>1616</ele>
        <time>2025-09-27T13:06:27.000Z</time>
      </trkpt>
      <trkpt lat="42.8277" lon="1.3448">
        <ele>1615</ele>
        <time>2025-09-27T13:06:28.000Z</time>
      </trkpt>
      <trkpt lat="42.82771" lon="1.34479">
        <ele>1615</ele>
        <time>2025-09-27T13:06:29.000Z</time>
      </trkpt>
      <trkpt lat="42.82772" lon="1.34479">
        <ele>1616</ele>
        <time>2025-09-27T13:06:30.000Z</time>
      </trkpt>
      <trkpt lat="42.82773" lon="1.34478">
        <ele>1615</ele>
        <time>2025-09-27T13:06:31.000Z</time>
      </trkpt>
      <trkpt lat="42.82773" lon="1.34478">
        <ele>1615</ele>
        <time>2025-09-27T13:06:32.000Z</time>
      </trkpt>
      <trkpt lat="42.82774" lon="1.34477">
        <ele>1615</ele>
        <time>2025-09-27T13:06:33.000Z</time>
      </trkpt>
      <trkpt lat="42.82775" lon="1.34477">
        <ele>1616</ele>
        <time>2025-09-27T13:06:34.000Z</time>
      </trkpt>
      <trkpt lat="42.82776" lon="1.34476">
        <ele>1616</ele>
        <time>2025-09-27T13:06:35.000Z</time>
      </trkpt>
      <trkpt lat="42.82776" lon="1.34476">
        <ele>1616</ele>
        <time>2025-09-27T13:06:36.000Z</time>
      </trkpt>
      <trkpt lat="42.82777" lon="1.34476">
        <ele>1615</ele>
        <time>2025-09-27T13:06:37.000Z</time>
      </trkpt>
      <trkpt lat="42.82777" lon="1.34475">
        <ele>1615</ele>
        <time>2025-09-27T13:06:38.000Z</time>
      </trkpt>
      <trkpt lat="42.82782" lon="1.34471">
        <ele>1615</ele>
        <time>2025-09-27T13:06:52.000Z</time>
      </trkpt>
      <trkpt lat="42.82782" lon="1.34471">
        <ele>1615</ele>
        <time>2025-09-27T13:06:53.000Z</time>
      </trkpt>
      <trkpt lat="42.82783" lon="1.34469">
        <ele>1615</ele>
        <time>2025-09-27T13:06:54.000Z</time>
      </trkpt>
      <trkpt lat="42.82784" lon="1.34468">
        <ele>1615</ele>
        <time>2025-09-27T13:06:55.000Z</time>
      </trkpt>
      <trkpt lat="42.82784" lon="1.34467">
        <ele>1615</ele>
        <time>2025-09-27T13:06:56.000Z</time>
      </trkpt>
      <trkpt lat="42.82785" lon="1.34467">
        <ele>1615</ele>
        <time>2025-09-27T13:06:57.000Z</time>
      </trkpt>
      <trkpt lat="42.82786" lon="1.34466">
        <ele>1614</ele>
        <time>2025-09-27T13:06:58.000Z</time>
      </trkpt>
      <trkpt lat="42.82786" lon="1.34465">
        <ele>1615</ele>
        <time>2025-09-27T13:06:59.000Z</time>
      </trkpt>
      <trkpt lat="42.82786" lon="1.34464">
        <ele>1615</ele>
        <time>2025-09-27T13:07:00.000Z</time>
      </trkpt>
      <trkpt lat="42.82785" lon="1.34463">
        <ele>1615</ele>
        <time>2025-09-27T13:07:01.000Z</time>
      </trkpt>
      <trkpt lat="42.82785" lon="1.34463">
        <ele>1614</ele>
        <time>2025-09-27T13:07:02.000Z</time>
      </trkpt>
      <trkpt lat="42.82788" lon="1.34463">
        <ele>1614</ele>
        <time>2025-09-27T13:07:57.000Z</time>
      </trkpt>
      <trkpt lat="42.82788" lon="1.34462">
        <ele>1614</ele>
        <time>2025-09-27T13:07:58.000Z</time>
      </trkpt>
      <trkpt lat="42.82789" lon="1.34462">
        <ele>1614</ele>
        <time>2025-09-27T13:07:59.000Z</time>
      </trkpt>
      <trkpt lat="42.82789" lon="1.34462">
        <ele>1613</ele>
        <time>2025-09-27T13:08:00.000Z</time>
      </trkpt>
      <trkpt lat="42.82789" lon="1.34462">
        <ele>1612</ele>
        <time>2025-09-27T13:08:01.000Z</time>
      </trkpt>
      <trkpt lat="42.82789" lon="1.34463">
        <ele>1611</ele>
        <time>2025-09-27T13:08:02.000Z</time>
      </trkpt>
      <trkpt lat="42.82791" lon="1.34462">
        <ele>1612</ele>
        <time>2025-09-27T13:08:03.000Z</time>
      </trkpt>
      <trkpt lat="42.82791" lon="1.3446">
        <ele>1612</ele>
        <time>2025-09-27T13:08:04.000Z</time>
      </trkpt>
      <trkpt lat="42.82792" lon="1.34459">
        <ele>1612</ele>
        <time>2025-09-27T13:08:05.000Z</time>
      </trkpt>
      <trkpt lat="42.82794" lon="1.34455">
        <ele>1611</ele>
        <time>2025-09-27T13:08:06.000Z</time>
      </trkpt>
      <trkpt lat="42.82795" lon="1.34452">
        <ele>1613</ele>
        <time>2025-09-27T13:08:07.000Z</time>
      </trkpt>
      <trkpt lat="42.82796" lon="1.34448">
        <ele>1613</ele>
        <time>2025-09-27T13:08:08.000Z</time>
      </trkpt>
      <trkpt lat="42.82797" lon="1.34445">
        <ele>1613</ele>
        <time>2025-09-27T13:08:09.000Z</time>
      </trkpt>
      <trkpt lat="42.82798" lon="1.34443">
        <ele>1613</ele>
        <time>2025-09-27T13:08:10.000Z</time>
      </trkpt>
      <trkpt lat="42.82799" lon="1.3444">
        <ele>1613</ele>
        <time>2025-09-27T13:08:11.000Z</time>
      </trkpt>
      <trkpt lat="42.82799" lon="1.34437">
        <ele>1613</ele>
        <time>2025-09-27T13:08:12.000Z</time>
      </trkpt>
      <trkpt lat="42.828" lon="1.34434">
        <ele>1613</ele>
        <time>2025-09-27T13:08:13.000Z</time>
      </trkpt>
      <trkpt lat="42.828" lon="1.3443">
        <ele>1614</ele>
        <time>2025-09-27T13:08:14.000Z</time>
      </trkpt>
      <trkpt lat="42.828" lon="1.34427">
        <ele>1614</ele>
        <time>2025-09-27T13:08:15.000Z</time>
      </trkpt>
      <trkpt lat="42.82801" lon="1.34425">
        <ele>1614</ele>
        <time>2025-09-27T13:08:16.000Z</time>
      </trkpt>
      <trkpt lat="42.82801" lon="1.34422">
        <ele>1615</ele>
        <time>2025-09-27T13:08:17.000Z</time>
      </trkpt>
      <trkpt lat="42.82802" lon="1.3442">
        <ele>1616</ele>
        <time>2025-09-27T13:08:18.000Z</time>
      </trkpt>
      <trkpt lat="42.82802" lon="1.34417">
        <ele>1615</ele>
        <time>2025-09-27T13:08:19.000Z</time>
      </trkpt>
      <trkpt lat="42.82803" lon="1.34414">
        <ele>1615</ele>
        <time>2025-09-27T13:08:20.000Z</time>
      </trkpt>
      <trkpt lat="42.82805" lon="1.3441">
        <ele>1614</ele>
        <time>2025-09-27T13:08:21.000Z</time>
      </trkpt>
      <trkpt lat="42.82806" lon="1.34406">
        <ele>1613</ele>
        <time>2025-09-27T13:08:22.000Z</time>
      </trkpt>
      <trkpt lat="42.82807" lon="1.34402">
        <ele>1613</ele>
        <time>2025-09-27T13:08:23.000Z</time>
      </trkpt>
      <trkpt lat="42.82808" lon="1.34398">
        <ele>1612</ele>
        <time>2025-09-27T13:08:24.000Z</time>
      </trkpt>
      <trkpt lat="42.82809" lon="1.34394">
        <ele>1612</ele>
        <time>2025-09-27T13:08:25.000Z</time>
      </trkpt>
      <trkpt lat="42.82811" lon="1.3439">
        <ele>1612</ele>
        <time>2025-09-27T13:08:26.000Z</time>
      </trkpt>
      <trkpt lat="42.82813" lon="1.34387">
        <ele>1612</ele>
        <time>2025-09-27T13:08:27.000Z</time>
      </trkpt>
      <trkpt lat="42.82816" lon="1.34384">
        <ele>1612</ele>
        <time>2025-09-27T13:08:28.000Z</time>
      </trkpt>
      <trkpt lat="42.82818" lon="1.34382">
        <ele>1613</ele>
        <time>2025-09-27T13:08:29.000Z</time>
      </trkpt>
      <trkpt lat="42.8282" lon="1.3438">
        <ele>1613</ele>
        <time>2025-09-27T13:08:30.000Z</time>
      </trkpt>
      <trkpt lat="42.82822" lon="1.34377">
        <ele>1614</ele>
        <time>2025-09-27T13:08:31.000Z</time>
      </trkpt>
      <trkpt lat="42.82822" lon="1.34374">
        <ele>1613</ele>
        <time>2025-09-27T13:08:32.000Z</time>
      </trkpt>
      <trkpt lat="42.82824" lon="1.34372">
        <ele>1613</ele>
        <time>2025-09-27T13:08:33.000Z</time>
      </trkpt>
      <trkpt lat="42.82825" lon="1.3437">
        <ele>1613</ele>
        <time>2025-09-27T13:08:34.000Z</time>
      </trkpt>
      <trkpt lat="42.82827" lon="1.34368">
        <ele>1613</ele>
        <time>2025-09-27T13:08:35.000Z</time>
      </trkpt>
      <trkpt lat="42.82829" lon="1.34367">
        <ele>1614</ele>
        <time>2025-09-27T13:08:36.000Z</time>
      </trkpt>
      <trkpt lat="42.8283" lon="1.34365">
        <ele>1613</ele>
        <time>2025-09-27T13:08:37.000Z</time>
      </trkpt>
      <trkpt lat="42.82832" lon="1.34362">
        <ele>1613</ele>
        <time>2025-09-27T13:08:38.000Z</time>
      </trkpt>
      <trkpt lat="42.82834" lon="1.34359">
        <ele>1612</ele>
        <time>2025-09-27T13:08:39.000Z</time>
      </trkpt>
      <trkpt lat="42.82835" lon="1.34357">
        <ele>1611</ele>
        <time>2025-09-27T13:08:40.000Z</time>
      </trkpt>
      <trkpt lat="42.82837" lon="1.34355">
        <ele>1611</ele>
        <time>2025-09-27T13:08:41.000Z</time>
      </trkpt>
      <trkpt lat="42.82838" lon="1.34354">
        <ele>1611</ele>
        <time>2025-09-27T13:08:42.000Z</time>
      </trkpt>
      <trkpt lat="42.82839" lon="1.34352">
        <ele>1610</ele>
        <time>2025-09-27T13:08:43.000Z</time>
      </trkpt>
      <trkpt lat="42.82841" lon="1.34351">
        <ele>1610</ele>
        <time>2025-09-27T13:08:44.000Z</time>
      </trkpt>
      <trkpt lat="42.82842" lon="1.34349">
        <ele>1610</ele>
        <time>2025-09-27T13:08:45.000Z</time>
      </trkpt>
      <trkpt lat="42.82844" lon="1.34347">
        <ele>1610</ele>
        <time>2025-09-27T13:08:46.000Z</time>
      </trkpt>
      <trkpt lat="42.82846" lon="1.34345">
        <ele>1610</ele>
        <time>2025-09-27T13:08:47.000Z</time>
      </trkpt>
      <trkpt lat="42.82848" lon="1.34343">
        <ele>1610</ele>
        <time>2025-09-27T13:08:48.000Z</time>
      </trkpt>
      <trkpt lat="42.8285" lon="1.34342">
        <ele>1609</ele>
        <time>2025-09-27T13:08:49.000Z</time>
      </trkpt>
      <trkpt lat="42.82851" lon="1.3434">
        <ele>1609</ele>
        <time>2025-09-27T13:08:50.000Z</time>
      </trkpt>
      <trkpt lat="42.82853" lon="1.34338">
        <ele>1609</ele>
        <time>2025-09-27T13:08:51.000Z</time>
      </trkpt>
      <trkpt lat="42.82854" lon="1.34336">
        <ele>1609</ele>
        <time>2025-09-27T13:08:52.000Z</time>
      </trkpt>
      <trkpt lat="42.82856" lon="1.34333">
        <ele>1608</ele>
        <time>2025-09-27T13:08:53.000Z</time>
      </trkpt>
      <trkpt lat="42.82857" lon="1.3433">
        <ele>1608</ele>
        <time>2025-09-27T13:08:54.000Z</time>
      </trkpt>
      <trkpt lat="42.82858" lon="1.34328">
        <ele>1608</ele>
        <time>2025-09-27T13:08:55.000Z</time>
      </trkpt>
      <trkpt lat="42.8286" lon="1.34324">
        <ele>1608</ele>
        <time>2025-09-27T13:08:56.000Z</time>
      </trkpt>
      <trkpt lat="42.82862" lon="1.3432">
        <ele>1608</ele>
        <time>2025-09-27T13:08:57.000Z</time>
      </trkpt>
      <trkpt lat="42.82864" lon="1.34316">
        <ele>1608</ele>
        <time>2025-09-27T13:08:58.000Z</time>
      </trkpt>
      <trkpt lat="42.82865" lon="1.34313">
        <ele>1608</ele>
        <time>2025-09-27T13:08:59.000Z</time>
      </trkpt>
      <trkpt lat="42.82867" lon="1.3431">
        <ele>1607</ele>
        <time>2025-09-27T13:09:00.000Z</time>
      </trkpt>
      <trkpt lat="42.82869" lon="1.34307">
        <ele>1607</ele>
        <time>2025-09-27T13:09:01.000Z</time>
      </trkpt>
      <trkpt lat="42.8287" lon="1.34306">
        <ele>1607</ele>
        <time>2025-09-27T13:09:02.000Z</time>
      </trkpt>
      <trkpt lat="42.82871" lon="1.34304">
        <ele>1606</ele>
        <time>2025-09-27T13:09:03.000Z</time>
      </trkpt>
      <trkpt lat="42.82872" lon="1.34303">
        <ele>1605</ele>
        <time>2025-09-27T13:09:04.000Z</time>
      </trkpt>
      <trkpt lat="42.82873" lon="1.343">
        <ele>1604</ele>
        <time>2025-09-27T13:09:05.000Z</time>
      </trkpt>
      <trkpt lat="42.82875" lon="1.34298">
        <ele>1605</ele>
        <time>2025-09-27T13:09:06.000Z</time>
      </trkpt>
      <trkpt lat="42.82877" lon="1.34295">
        <ele>1605</ele>
        <time>2025-09-27T13:09:07.000Z</time>
      </trkpt>
      <trkpt lat="42.82878" lon="1.34293">
        <ele>1605</ele>
        <time>2025-09-27T13:09:08.000Z</time>
      </trkpt>
      <trkpt lat="42.8288" lon="1.34292">
        <ele>1604</ele>
        <time>2025-09-27T13:09:09.000Z</time>
      </trkpt>
      <trkpt lat="42.82882" lon="1.3429">
        <ele>1603</ele>
        <time>2025-09-27T13:09:10.000Z</time>
      </trkpt>
      <trkpt lat="42.82884" lon="1.34288">
        <ele>1603</ele>
        <time>2025-09-27T13:09:11.000Z</time>
      </trkpt>
      <trkpt lat="42.82886" lon="1.34286">
        <ele>1603</ele>
        <time>2025-09-27T13:09:12.000Z</time>
      </trkpt>
      <trkpt lat="42.82889" lon="1.34284">
        <ele>1603</ele>
        <time>2025-09-27T13:09:13.000Z</time>
      </trkpt>
      <trkpt lat="42.82891" lon="1.34282">
        <ele>1602</ele>
        <time>2025-09-27T13:09:14.000Z</time>
      </trkpt>
      <trkpt lat="42.82894" lon="1.3428">
        <ele>1602</ele>
        <time>2025-09-27T13:09:15.000Z</time>
      </trkpt>
      <trkpt lat="42.82896" lon="1.34277">
        <ele>1601</ele>
        <time>2025-09-27T13:09:16.000Z</time>
      </trkpt>
      <trkpt lat="42.82898" lon="1.34274">
        <ele>1601</ele>
        <time>2025-09-27T13:09:17.000Z</time>
      </trkpt>
      <trkpt lat="42.829" lon="1.34271">
        <ele>1600</ele>
        <time>2025-09-27T13:09:18.000Z</time>
      </trkpt>
      <trkpt lat="42.82901" lon="1.34268">
        <ele>1600</ele>
        <time>2025-09-27T13:09:19.000Z</time>
      </trkpt>
      <trkpt lat="42.82902" lon="1.34265">
        <ele>1600</ele>
        <time>2025-09-27T13:09:20.000Z</time>
      </trkpt>
      <trkpt lat="42.82903" lon="1.34262">
        <ele>1600</ele>
        <time>2025-09-27T13:09:21.000Z</time>
      </trkpt>
      <trkpt lat="42.82905" lon="1.3426">
        <ele>1600</ele>
        <time>2025-09-27T13:09:22.000Z</time>
      </trkpt>
      <trkpt lat="42.82906" lon="1.34259">
        <ele>1600</ele>
        <time>2025-09-27T13:09:23.000Z</time>
      </trkpt>
      <trkpt lat="42.82908" lon="1.34258">
        <ele>1600</ele>
        <time>2025-09-27T13:09:24.000Z</time>
      </trkpt>
      <trkpt lat="42.8291" lon="1.34256">
        <ele>1599</ele>
        <time>2025-09-27T13:09:25.000Z</time>
      </trkpt>
      <trkpt lat="42.82911" lon="1.34255">
        <ele>1598</ele>
        <time>2025-09-27T13:09:26.000Z</time>
      </trkpt>
      <trkpt lat="42.82912" lon="1.34254">
        <ele>1598</ele>
        <time>2025-09-27T13:09:27.000Z</time>
      </trkpt>
      <trkpt lat="42.82914" lon="1.34253">
        <ele>1598</ele>
        <time>2025-09-27T13:09:28.000Z</time>
      </trkpt>
      <trkpt lat="42.82916" lon="1.34252">
        <ele>1598</ele>
        <time>2025-09-27T13:09:29.000Z</time>
      </trkpt>
      <trkpt lat="42.82917" lon="1.3425">
        <ele>1598</ele>
        <time>2025-09-27T13:09:30.000Z</time>
      </trkpt>
      <trkpt lat="42.82918" lon="1.34247">
        <ele>1597</ele>
        <time>2025-09-27T13:09:31.000Z</time>
      </trkpt>
      <trkpt lat="42.8292" lon="1.34245">
        <ele>1597</ele>
        <time>2025-09-27T13:09:32.000Z</time>
      </trkpt>
      <trkpt lat="42.82922" lon="1.34244">
        <ele>1597</ele>
        <time>2025-09-27T13:09:33.000Z</time>
      </trkpt>
      <trkpt lat="42.82922" lon="1.34242">
        <ele>1596</ele>
        <time>2025-09-27T13:09:34.000Z</time>
      </trkpt>
      <trkpt lat="42.82923" lon="1.3424">
        <ele>1596</ele>
        <time>2025-09-27T13:09:35.000Z</time>
      </trkpt>
      <trkpt lat="42.82925" lon="1.34238">
        <ele>1596</ele>
        <time>2025-09-27T13:09:36.000Z</time>
      </trkpt>
      <trkpt lat="42.82926" lon="1.34235">
        <ele>1596</ele>
        <time>2025-09-27T13:09:37.000Z</time>
      </trkpt>
      <trkpt lat="42.82928" lon="1.34232">
        <ele>1595</ele>
        <time>2025-09-27T13:09:38.000Z</time>
      </trkpt>
      <trkpt lat="42.82929" lon="1.3423">
        <ele>1594</ele>
        <time>2025-09-27T13:09:39.000Z</time>
      </trkpt>
      <trkpt lat="42.82931" lon="1.34227">
        <ele>1595</ele>
        <time>2025-09-27T13:09:40.000Z</time>
      </trkpt>
      <trkpt lat="42.82932" lon="1.34225">
        <ele>1594</ele>
        <time>2025-09-27T13:09:41.000Z</time>
      </trkpt>
      <trkpt lat="42.82934" lon="1.34222">
        <ele>1594</ele>
        <time>2025-09-27T13:09:42.000Z</time>
      </trkpt>
      <trkpt lat="42.82935" lon="1.34219">
        <ele>1594</ele>
        <time>2025-09-27T13:09:43.000Z</time>
      </trkpt>
      <trkpt lat="42.82936" lon="1.34215">
        <ele>1594</ele>
        <time>2025-09-27T13:09:44.000Z</time>
      </trkpt>
      <trkpt lat="42.82938" lon="1.34211">
        <ele>1593</ele>
        <time>2025-09-27T13:09:45.000Z</time>
      </trkpt>
      <trkpt lat="42.8294" lon="1.34206">
        <ele>1592</ele>
        <time>2025-09-27T13:09:46.000Z</time>
      </trkpt>
      <trkpt lat="42.82946" lon="1.34201">
        <ele>1593</ele>
        <time>2025-09-27T13:09:47.000Z</time>
      </trkpt>
      <trkpt lat="42.82948" lon="1.34198">
        <ele>1593</ele>
        <time>2025-09-27T13:09:48.000Z</time>
      </trkpt>
      <trkpt lat="42.82951" lon="1.34196">
        <ele>1593</ele>
        <time>2025-09-27T13:09:49.000Z</time>
      </trkpt>
      <trkpt lat="42.82953" lon="1.34193">
        <ele>1593</ele>
        <time>2025-09-27T13:09:50.000Z</time>
      </trkpt>
      <trkpt lat="42.82955" lon="1.3419">
        <ele>1593</ele>
        <time>2025-09-27T13:09:51.000Z</time>
      </trkpt>
      <trkpt lat="42.82957" lon="1.34187">
        <ele>1593</ele>
        <time>2025-09-27T13:09:52.000Z</time>
      </trkpt>
      <trkpt lat="42.82959" lon="1.34185">
        <ele>1593</ele>
        <time>2025-09-27T13:09:53.000Z</time>
      </trkpt>
      <trkpt lat="42.82961" lon="1.34182">
        <ele>1593</ele>
        <time>2025-09-27T13:09:54.000Z</time>
      </trkpt>
      <trkpt lat="42.82963" lon="1.34179">
        <ele>1593</ele>
        <time>2025-09-27T13:09:55.000Z</time>
      </trkpt>
      <trkpt lat="42.82965" lon="1.34176">
        <ele>1594</ele>
        <time>2025-09-27T13:09:56.000Z</time>
      </trkpt>
      <trkpt lat="42.82966" lon="1.34172">
        <ele>1595</ele>
        <time>2025-09-27T13:09:57.000Z</time>
      </trkpt>
      <trkpt lat="42.82967" lon="1.34169">
        <ele>1594</ele>
        <time>2025-09-27T13:09:58.000Z</time>
      </trkpt>
      <trkpt lat="42.82969" lon="1.34165">
        <ele>1594</ele>
        <time>2025-09-27T13:09:59.000Z</time>
      </trkpt>
      <trkpt lat="42.82971" lon="1.34161">
        <ele>1593</ele>
        <time>2025-09-27T13:10:00.000Z</time>
      </trkpt>
      <trkpt lat="42.82973" lon="1.34157">
        <ele>1594</ele>
        <time>2025-09-27T13:10:01.000Z</time>
      </trkpt>
      <trkpt lat="42.82975" lon="1.34153">
        <ele>1594</ele>
        <time>2025-09-27T13:10:02.000Z</time>
      </trkpt>
      <trkpt lat="42.82978" lon="1.34149">
        <ele>1593</ele>
        <time>2025-09-27T13:10:03.000Z</time>
      </trkpt>
      <trkpt lat="42.82982" lon="1.34144">
        <ele>1592</ele>
        <time>2025-09-27T13:10:04.000Z</time>
      </trkpt>
      <trkpt lat="42.82986" lon="1.34139">
        <ele>1592</ele>
        <time>2025-09-27T13:10:05.000Z</time>
      </trkpt>
      <trkpt lat="42.82989" lon="1.34134">
        <ele>1592</ele>
        <time>2025-09-27T13:10:06.000Z</time>
      </trkpt>
      <trkpt lat="42.82991" lon="1.34129">
        <ele>1592</ele>
        <time>2025-09-27T13:10:07.000Z</time>
      </trkpt>
      <trkpt lat="42.82992" lon="1.34124">
        <ele>1591</ele>
        <time>2025-09-27T13:10:08.000Z</time>
      </trkpt>
      <trkpt lat="42.82995" lon="1.3412">
        <ele>1591</ele>
        <time>2025-09-27T13:10:09.000Z</time>
      </trkpt>
      <trkpt lat="42.82998" lon="1.34117">
        <ele>1591</ele>
        <time>2025-09-27T13:10:10.000Z</time>
      </trkpt>
      <trkpt lat="42.83" lon="1.34113">
        <ele>1590</ele>
        <time>2025-09-27T13:10:11.000Z</time>
      </trkpt>
      <trkpt lat="42.83003" lon="1.3411">
        <ele>1590</ele>
        <time>2025-09-27T13:10:12.000Z</time>
      </trkpt>
      <trkpt lat="42.83005" lon="1.34107">
        <ele>1590</ele>
        <time>2025-09-27T13:10:13.000Z</time>
      </trkpt>
      <trkpt lat="42.83007" lon="1.34104">
        <ele>1590</ele>
        <time>2025-09-27T13:10:14.000Z</time>
      </trkpt>
      <trkpt lat="42.83009" lon="1.34101">
        <ele>1590</ele>
        <time>2025-09-27T13:10:15.000Z</time>
      </trkpt>
      <trkpt lat="42.83011" lon="1.34098">
        <ele>1590</ele>
        <time>2025-09-27T13:10:16.000Z</time>
      </trkpt>
      <trkpt lat="42.83013" lon="1.34094">
        <ele>1590</ele>
        <time>2025-09-27T13:10:17.000Z</time>
      </trkpt>
      <trkpt lat="42.83015" lon="1.3409">
        <ele>1590</ele>
        <time>2025-09-27T13:10:18.000Z</time>
      </trkpt>
      <trkpt lat="42.83016" lon="1.34087">
        <ele>1589</ele>
        <time>2025-09-27T13:10:19.000Z</time>
      </trkpt>
      <trkpt lat="42.83018" lon="1.34084">
        <ele>1589</ele>
        <time>2025-09-27T13:10:20.000Z</time>
      </trkpt>
      <trkpt lat="42.83019" lon="1.3408">
        <ele>1589</ele>
        <time>2025-09-27T13:10:21.000Z</time>
      </trkpt>
      <trkpt lat="42.83021" lon="1.34077">
        <ele>1589</ele>
        <time>2025-09-27T13:10:22.000Z</time>
      </trkpt>
      <trkpt lat="42.83022" lon="1.34074">
        <ele>1589</ele>
        <time>2025-09-27T13:10:23.000Z</time>
      </trkpt>
      <trkpt lat="42.83023" lon="1.34071">
        <ele>1589</ele>
        <time>2025-09-27T13:10:24.000Z</time>
      </trkpt>
      <trkpt lat="42.83024" lon="1.34067">
        <ele>1590</ele>
        <time>2025-09-27T13:10:25.000Z</time>
      </trkpt>
      <trkpt lat="42.83025" lon="1.34064">
        <ele>1590</ele>
        <time>2025-09-27T13:10:26.000Z</time>
      </trkpt>
      <trkpt lat="42.83027" lon="1.3406">
        <ele>1590</ele>
        <time>2025-09-27T13:10:27.000Z</time>
      </trkpt>
      <trkpt lat="42.83028" lon="1.34057">
        <ele>1590</ele>
        <time>2025-09-27T13:10:28.000Z</time>
      </trkpt>
      <trkpt lat="42.8303" lon="1.34055">
        <ele>1590</ele>
        <time>2025-09-27T13:10:29.000Z</time>
      </trkpt>
      <trkpt lat="42.83031" lon="1.34053">
        <ele>1589</ele>
        <time>2025-09-27T13:10:30.000Z</time>
      </trkpt>
      <trkpt lat="42.83033" lon="1.34051">
        <ele>1589</ele>
        <time>2025-09-27T13:10:31.000Z</time>
      </trkpt>
      <trkpt lat="42.83034" lon="1.34049">
        <ele>1588</ele>
        <time>2025-09-27T13:10:32.000Z</time>
      </trkpt>
      <trkpt lat="42.83035" lon="1.34046">
        <ele>1588</ele>
        <time>2025-09-27T13:10:33.000Z</time>
      </trkpt>
      <trkpt lat="42.83037" lon="1.34042">
        <ele>1588</ele>
        <time>2025-09-27T13:10:34.000Z</time>
      </trkpt>
      <trkpt lat="42.83039" lon="1.34039">
        <ele>1587</ele>
        <time>2025-09-27T13:10:35.000Z</time>
      </trkpt>
      <trkpt lat="42.83042" lon="1.34036">
        <ele>1587</ele>
        <time>2025-09-27T13:10:36.000Z</time>
      </trkpt>
      <trkpt lat="42.83045" lon="1.34034">
        <ele>1587</ele>
        <time>2025-09-27T13:10:37.000Z</time>
      </trkpt>
      <trkpt lat="42.83047" lon="1.34031">
        <ele>1587</ele>
        <time>2025-09-27T13:10:38.000Z</time>
      </trkpt>
      <trkpt lat="42.83049" lon="1.34027">
        <ele>1586</ele>
        <time>2025-09-27T13:10:39.000Z</time>
      </trkpt>
      <trkpt lat="42.83051" lon="1.34024">
        <ele>1586</ele>
        <time>2025-09-27T13:10:40.000Z</time>
      </trkpt>
      <trkpt lat="42.83053" lon="1.3402">
        <ele>1586</ele>
        <time>2025-09-27T13:10:41.000Z</time>
      </trkpt>
      <trkpt lat="42.83055" lon="1.34016">
        <ele>1585</ele>
        <time>2025-09-27T13:10:42.000Z</time>
      </trkpt>
      <trkpt lat="42.83056" lon="1.34012">
        <ele>1585</ele>
        <time>2025-09-27T13:10:43.000Z</time>
      </trkpt>
      <trkpt lat="42.83059" lon="1.34009">
        <ele>1585</ele>
        <time>2025-09-27T13:10:44.000Z</time>
      </trkpt>
      <trkpt lat="42.83062" lon="1.34006">
        <ele>1584</ele>
        <time>2025-09-27T13:10:45.000Z</time>
      </trkpt>
      <trkpt lat="42.83064" lon="1.34003">
        <ele>1584</ele>
        <time>2025-09-27T13:10:46.000Z</time>
      </trkpt>
      <trkpt lat="42.83066" lon="1.33998">
        <ele>1583</ele>
        <time>2025-09-27T13:10:47.000Z</time>
      </trkpt>
      <trkpt lat="42.8307" lon="1.33994">
        <ele>1583</ele>
        <time>2025-09-27T13:10:48.000Z</time>
      </trkpt>
      <trkpt lat="42.83073" lon="1.33989">
        <ele>1582</ele>
        <time>2025-09-27T13:10:49.000Z</time>
      </trkpt>
      <trkpt lat="42.83076" lon="1.33985">
        <ele>1582</ele>
        <time>2025-09-27T13:10:50.000Z</time>
      </trkpt>
      <trkpt lat="42.8308" lon="1.3398">
        <ele>1581</ele>
        <time>2025-09-27T13:10:51.000Z</time>
      </trkpt>
      <trkpt lat="42.83083" lon="1.33974">
        <ele>1580</ele>
        <time>2025-09-27T13:10:52.000Z</time>
      </trkpt>
      <trkpt lat="42.83087" lon="1.33968">
        <ele>1580</ele>
        <time>2025-09-27T13:10:53.000Z</time>
      </trkpt>
      <trkpt lat="42.83091" lon="1.33965">
        <ele>1580</ele>
        <time>2025-09-27T13:10:54.000Z</time>
      </trkpt>
      <trkpt lat="42.83093" lon="1.3396">
        <ele>1580</ele>
        <time>2025-09-27T13:10:55.000Z</time>
      </trkpt>
      <trkpt lat="42.83096" lon="1.33957">
        <ele>1579</ele>
        <time>2025-09-27T13:10:56.000Z</time>
      </trkpt>
      <trkpt lat="42.83099" lon="1.33955">
        <ele>1579</ele>
        <time>2025-09-27T13:10:57.000Z</time>
      </trkpt>
      <trkpt lat="42.83102" lon="1.33954">
        <ele>1579</ele>
        <time>2025-09-27T13:10:58.000Z</time>
      </trkpt>
      <trkpt lat="42.83103" lon="1.33952">
        <ele>1579</ele>
        <time>2025-09-27T13:10:59.000Z</time>
      </trkpt>
      <trkpt lat="42.83106" lon="1.33948">
        <ele>1579</ele>
        <time>2025-09-27T13:11:00.000Z</time>
      </trkpt>
      <trkpt lat="42.83109" lon="1.33946">
        <ele>1578</ele>
        <time>2025-09-27T13:11:01.000Z</time>
      </trkpt>
      <trkpt lat="42.83111" lon="1.33944">
        <ele>1578</ele>
        <time>2025-09-27T13:11:02.000Z</time>
      </trkpt>
      <trkpt lat="42.83114" lon="1.33943">
        <ele>1578</ele>
        <time>2025-09-27T13:11:03.000Z</time>
      </trkpt>
      <trkpt lat="42.83117" lon="1.33942">
        <ele>1578</ele>
        <time>2025-09-27T13:11:04.000Z</time>
      </trkpt>
      <trkpt lat="42.8312" lon="1.33939">
        <ele>1578</ele>
        <time>2025-09-27T13:11:05.000Z</time>
      </trkpt>
      <trkpt lat="42.83122" lon="1.33937">
        <ele>1578</ele>
        <time>2025-09-27T13:11:06.000Z</time>
      </trkpt>
      <trkpt lat="42.83124" lon="1.33934">
        <ele>1577</ele>
        <time>2025-09-27T13:11:07.000Z</time>
      </trkpt>
      <trkpt lat="42.83127" lon="1.3393">
        <ele>1577</ele>
        <time>2025-09-27T13:11:08.000Z</time>
      </trkpt>
      <trkpt lat="42.83128" lon="1.33928">
        <ele>1578</ele>
        <time>2025-09-27T13:11:09.000Z</time>
      </trkpt>
      <trkpt lat="42.8313" lon="1.33925">
        <ele>1578</ele>
        <time>2025-09-27T13:11:10.000Z</time>
      </trkpt>
      <trkpt lat="42.83132" lon="1.33922">
        <ele>1578</ele>
        <time>2025-09-27T13:11:11.000Z</time>
      </trkpt>
      <trkpt lat="42.83134" lon="1.33919">
        <ele>1578</ele>
        <time>2025-09-27T13:11:12.000Z</time>
      </trkpt>
      <trkpt lat="42.83136" lon="1.33915">
        <ele>1578</ele>
        <time>2025-09-27T13:11:13.000Z</time>
      </trkpt>
      <trkpt lat="42.83137" lon="1.3391">
        <ele>1577</ele>
        <time>2025-09-27T13:11:14.000Z</time>
      </trkpt>
      <trkpt lat="42.83139" lon="1.33907">
        <ele>1577</ele>
        <time>2025-09-27T13:11:15.000Z</time>
      </trkpt>
      <trkpt lat="42.83144" lon="1.33902">
        <ele>1576</ele>
        <time>2025-09-27T13:11:16.000Z</time>
      </trkpt>
      <trkpt lat="42.83146" lon="1.33898">
        <ele>1576</ele>
        <time>2025-09-27T13:11:17.000Z</time>
      </trkpt>
      <trkpt lat="42.83149" lon="1.33894">
        <ele>1575</ele>
        <time>2025-09-27T13:11:18.000Z</time>
      </trkpt>
      <trkpt lat="42.83151" lon="1.33889">
        <ele>1574</ele>
        <time>2025-09-27T13:11:19.000Z</time>
      </trkpt>
      <trkpt lat="42.83154" lon="1.33883">
        <ele>1574</ele>
        <time>2025-09-27T13:11:20.000Z</time>
      </trkpt>
      <trkpt lat="42.83157" lon="1.33876">
        <ele>1573</ele>
        <time>2025-09-27T13:11:21.000Z</time>
      </trkpt>
      <trkpt lat="42.8316" lon="1.33869">
        <ele>1572</ele>
        <time>2025-09-27T13:11:22.000Z</time>
      </trkpt>
      <trkpt lat="42.83164" lon="1.33864">
        <ele>1572</ele>
        <time>2025-09-27T13:11:23.000Z</time>
      </trkpt>
      <trkpt lat="42.83168" lon="1.33858">
        <ele>1572</ele>
        <time>2025-09-27T13:11:24.000Z</time>
      </trkpt>
      <trkpt lat="42.8317" lon="1.33854">
        <ele>1572</ele>
        <time>2025-09-27T13:11:25.000Z</time>
      </trkpt>
      <trkpt lat="42.83174" lon="1.33849">
        <ele>1572</ele>
        <time>2025-09-27T13:11:26.000Z</time>
      </trkpt>
      <trkpt lat="42.83179" lon="1.33845">
        <ele>1571</ele>
        <time>2025-09-27T13:11:27.000Z</time>
      </trkpt>
      <trkpt lat="42.83184" lon="1.33839">
        <ele>1570</ele>
        <time>2025-09-27T13:11:28.000Z</time>
      </trkpt>
      <trkpt lat="42.83187" lon="1.33834">
        <ele>1569</ele>
        <time>2025-09-27T13:11:29.000Z</time>
      </trkpt>
      <trkpt lat="42.83192" lon="1.33829">
        <ele>1569</ele>
        <time>2025-09-27T13:11:30.000Z</time>
      </trkpt>
      <trkpt lat="42.83196" lon="1.33825">
        <ele>1569</ele>
        <time>2025-09-27T13:11:31.000Z</time>
      </trkpt>
      <trkpt lat="42.832" lon="1.3382">
        <ele>1569</ele>
        <time>2025-09-27T13:11:32.000Z</time>
      </trkpt>
      <trkpt lat="42.83204" lon="1.33816">
        <ele>1569</ele>
        <time>2025-09-27T13:11:33.000Z</time>
      </trkpt>
      <trkpt lat="42.83207" lon="1.3381">
        <ele>1569</ele>
        <time>2025-09-27T13:11:34.000Z</time>
      </trkpt>
      <trkpt lat="42.83212" lon="1.33804">
        <ele>1568</ele>
        <time>2025-09-27T13:11:35.000Z</time>
      </trkpt>
      <trkpt lat="42.83216" lon="1.33799">
        <ele>1568</ele>
        <time>2025-09-27T13:11:36.000Z</time>
      </trkpt>
      <trkpt lat="42.83221" lon="1.33795">
        <ele>1568</ele>
        <time>2025-09-27T13:11:37.000Z</time>
      </trkpt>
      <trkpt lat="42.83225" lon="1.33791">
        <ele>1568</ele>
        <time>2025-09-27T13:11:38.000Z</time>
      </trkpt>
      <trkpt lat="42.83228" lon="1.33786">
        <ele>1568</ele>
        <time>2025-09-27T13:11:39.000Z</time>
      </trkpt>
      <trkpt lat="42.83231" lon="1.33782">
        <ele>1569</ele>
        <time>2025-09-27T13:11:40.000Z</time>
      </trkpt>
      <trkpt lat="42.83234" lon="1.33778">
        <ele>1569</ele>
        <time>2025-09-27T13:11:41.000Z</time>
      </trkpt>
      <trkpt lat="42.83237" lon="1.33774">
        <ele>1568</ele>
        <time>2025-09-27T13:11:42.000Z</time>
      </trkpt>
      <trkpt lat="42.83239" lon="1.3377">
        <ele>1568</ele>
        <time>2025-09-27T13:11:43.000Z</time>
      </trkpt>
      <trkpt lat="42.83241" lon="1.33766">
        <ele>1568</ele>
        <time>2025-09-27T13:11:44.000Z</time>
      </trkpt>
      <trkpt lat="42.83244" lon="1.33763">
        <ele>1568</ele>
        <time>2025-09-27T13:11:45.000Z</time>
      </trkpt>
      <trkpt lat="42.83245" lon="1.33759">
        <ele>1568</ele>
        <time>2025-09-27T13:11:46.000Z</time>
      </trkpt>
      <trkpt lat="42.83248" lon="1.33756">
        <ele>1567</ele>
        <time>2025-09-27T13:11:47.000Z</time>
      </trkpt>
      <trkpt lat="42.83251" lon="1.33754">
        <ele>1567</ele>
        <time>2025-09-27T13:11:48.000Z</time>
      </trkpt>
      <trkpt lat="42.83254" lon="1.33752">
        <ele>1567</ele>
        <time>2025-09-27T13:11:49.000Z</time>
      </trkpt>
      <trkpt lat="42.83256" lon="1.33749">
        <ele>1567</ele>
        <time>2025-09-27T13:11:50.000Z</time>
      </trkpt>
      <trkpt lat="42.83258" lon="1.33746">
        <ele>1567</ele>
        <time>2025-09-27T13:11:51.000Z</time>
      </trkpt>
      <trkpt lat="42.8326" lon="1.33743">
        <ele>1566</ele>
        <time>2025-09-27T13:11:52.000Z</time>
      </trkpt>
      <trkpt lat="42.83263" lon="1.33739">
        <ele>1566</ele>
        <time>2025-09-27T13:11:53.000Z</time>
      </trkpt>
      <trkpt lat="42.83266" lon="1.33736">
        <ele>1566</ele>
        <time>2025-09-27T13:11:54.000Z</time>
      </trkpt>
      <trkpt lat="42.83268" lon="1.33733">
        <ele>1565</ele>
        <time>2025-09-27T13:11:55.000Z</time>
      </trkpt>
      <trkpt lat="42.8327" lon="1.33731">
        <ele>1565</ele>
        <time>2025-09-27T13:11:56.000Z</time>
      </trkpt>
      <trkpt lat="42.83272" lon="1.33729">
        <ele>1565</ele>
        <time>2025-09-27T13:11:57.000Z</time>
      </trkpt>
      <trkpt lat="42.83274" lon="1.33728">
        <ele>1565</ele>
        <time>2025-09-27T13:11:58.000Z</time>
      </trkpt>
      <trkpt lat="42.83276" lon="1.33726">
        <ele>1564</ele>
        <time>2025-09-27T13:11:59.000Z</time>
      </trkpt>
      <trkpt lat="42.83279" lon="1.33724">
        <ele>1563</ele>
        <time>2025-09-27T13:12:00.000Z</time>
      </trkpt>
      <trkpt lat="42.83282" lon="1.33722">
        <ele>1563</ele>
        <time>2025-09-27T13:12:01.000Z</time>
      </trkpt>
      <trkpt lat="42.83286" lon="1.3372">
        <ele>1562</ele>
        <time>2025-09-27T13:12:02.000Z</time>
      </trkpt>
      <trkpt lat="42.83289" lon="1.33718">
        <ele>1562</ele>
        <time>2025-09-27T13:12:03.000Z</time>
      </trkpt>
      <trkpt lat="42.83293" lon="1.33716">
        <ele>1562</ele>
        <time>2025-09-27T13:12:04.000Z</time>
      </trkpt>
      <trkpt lat="42.83295" lon="1.33713">
        <ele>1561</ele>
        <time>2025-09-27T13:12:05.000Z</time>
      </trkpt>
      <trkpt lat="42.83298" lon="1.33709">
        <ele>1561</ele>
        <time>2025-09-27T13:12:06.000Z</time>
      </trkpt>
      <trkpt lat="42.83301" lon="1.33707">
        <ele>1560</ele>
        <time>2025-09-27T13:12:07.000Z</time>
      </trkpt>
      <trkpt lat="42.83305" lon="1.33704">
        <ele>1560</ele>
        <time>2025-09-27T13:12:08.000Z</time>
      </trkpt>
      <trkpt lat="42.83309" lon="1.337">
        <ele>1559</ele>
        <time>2025-09-27T13:12:09.000Z</time>
      </trkpt>
      <trkpt lat="42.83313" lon="1.33697">
        <ele>1559</ele>
        <time>2025-09-27T13:12:10.000Z</time>
      </trkpt>
      <trkpt lat="42.83316" lon="1.33695">
        <ele>1558</ele>
        <time>2025-09-27T13:12:11.000Z</time>
      </trkpt>
      <trkpt lat="42.8332" lon="1.33692">
        <ele>1558</ele>
        <time>2025-09-27T13:12:12.000Z</time>
      </trkpt>
      <trkpt lat="42.83324" lon="1.33689">
        <ele>1558</ele>
        <time>2025-09-27T13:12:13.000Z</time>
      </trkpt>
      <trkpt lat="42.83326" lon="1.33686">
        <ele>1558</ele>
        <time>2025-09-27T13:12:14.000Z</time>
      </trkpt>
      <trkpt lat="42.83329" lon="1.33681">
        <ele>1558</ele>
        <time>2025-09-27T13:12:15.000Z</time>
      </trkpt>
      <trkpt lat="42.83331" lon="1.33676">
        <ele>1557</ele>
        <time>2025-09-27T13:12:16.000Z</time>
      </trkpt>
      <trkpt lat="42.83334" lon="1.33672">
        <ele>1557</ele>
        <time>2025-09-27T13:12:17.000Z</time>
      </trkpt>
      <trkpt lat="42.83338" lon="1.33668">
        <ele>1556</ele>
        <time>2025-09-27T13:12:18.000Z</time>
      </trkpt>
      <trkpt lat="42.83341" lon="1.33664">
        <ele>1556</ele>
        <time>2025-09-27T13:12:19.000Z</time>
      </trkpt>
      <trkpt lat="42.83345" lon="1.33661">
        <ele>1556</ele>
        <time>2025-09-27T13:12:20.000Z</time>
      </trkpt>
      <trkpt lat="42.83347" lon="1.33657">
        <ele>1555</ele>
        <time>2025-09-27T13:12:21.000Z</time>
      </trkpt>
      <trkpt lat="42.8335" lon="1.33653">
        <ele>1555</ele>
        <time>2025-09-27T13:12:22.000Z</time>
      </trkpt>
      <trkpt lat="42.83352" lon="1.3365">
        <ele>1555</ele>
        <time>2025-09-27T13:12:23.000Z</time>
      </trkpt>
      <trkpt lat="42.83354" lon="1.33645">
        <ele>1555</ele>
        <time>2025-09-27T13:12:24.000Z</time>
      </trkpt>
      <trkpt lat="42.83356" lon="1.33643">
        <ele>1555</ele>
        <time>2025-09-27T13:12:25.000Z</time>
      </trkpt>
      <trkpt lat="42.83358" lon="1.33641">
        <ele>1555</ele>
        <time>2025-09-27T13:12:26.000Z</time>
      </trkpt>
      <trkpt lat="42.8336" lon="1.33638">
        <ele>1555</ele>
        <time>2025-09-27T13:12:27.000Z</time>
      </trkpt>
      <trkpt lat="42.83362" lon="1.33634">
        <ele>1555</ele>
        <time>2025-09-27T13:12:28.000Z</time>
      </trkpt>
      <trkpt lat="42.83364" lon="1.33631">
        <ele>1555</ele>
        <time>2025-09-27T13:12:29.000Z</time>
      </trkpt>
      <trkpt lat="42.83367" lon="1.33627">
        <ele>1555</ele>
        <time>2025-09-27T13:12:30.000Z</time>
      </trkpt>
      <trkpt lat="42.8337" lon="1.33621">
        <ele>1555</ele>
        <time>2025-09-27T13:12:31.000Z</time>
      </trkpt>
      <trkpt lat="42.83373" lon="1.33617">
        <ele>1556</ele>
        <time>2025-09-27T13:12:32.000Z</time>
      </trkpt>
      <trkpt lat="42.83376" lon="1.33613">
        <ele>1556</ele>
        <time>2025-09-27T13:12:33.000Z</time>
      </trkpt>
      <trkpt lat="42.83378" lon="1.3361">
        <ele>1556</ele>
        <time>2025-09-27T13:12:34.000Z</time>
      </trkpt>
      <trkpt lat="42.83381" lon="1.33607">
        <ele>1556</ele>
        <time>2025-09-27T13:12:35.000Z</time>
      </trkpt>
      <trkpt lat="42.83384" lon="1.33604">
        <ele>1555</ele>
        <time>2025-09-27T13:12:36.000Z</time>
      </trkpt>
      <trkpt lat="42.83387" lon="1.33601">
        <ele>1556</ele>
        <time>2025-09-27T13:12:37.000Z</time>
      </trkpt>
      <trkpt lat="42.8339" lon="1.336">
        <ele>1556</ele>
        <time>2025-09-27T13:12:38.000Z</time>
      </trkpt>
      <trkpt lat="42.83393" lon="1.33598">
        <ele>1556</ele>
        <time>2025-09-27T13:12:39.000Z</time>
      </trkpt>
      <trkpt lat="42.83396" lon="1.33597">
        <ele>1556</ele>
        <time>2025-09-27T13:12:40.000Z</time>
      </trkpt>
      <trkpt lat="42.834" lon="1.33596">
        <ele>1556</ele>
        <time>2025-09-27T13:12:41.000Z</time>
      </trkpt>
      <trkpt lat="42.83403" lon="1.33595">
        <ele>1555</ele>
        <time>2025-09-27T13:12:42.000Z</time>
      </trkpt>
      <trkpt lat="42.83408" lon="1.33593">
        <ele>1555</ele>
        <time>2025-09-27T13:12:43.000Z</time>
      </trkpt>
      <trkpt lat="42.83412" lon="1.33589">
        <ele>1555</ele>
        <time>2025-09-27T13:12:44.000Z</time>
      </trkpt>
      <trkpt lat="42.83416" lon="1.33586">
        <ele>1555</ele>
        <time>2025-09-27T13:12:45.000Z</time>
      </trkpt>
      <trkpt lat="42.83418" lon="1.33585">
        <ele>1555</ele>
        <time>2025-09-27T13:12:46.000Z</time>
      </trkpt>
      <trkpt lat="42.8342" lon="1.33584">
        <ele>1555</ele>
        <time>2025-09-27T13:12:47.000Z</time>
      </trkpt>
      <trkpt lat="42.83422" lon="1.33583">
        <ele>1555</ele>
        <time>2025-09-27T13:12:48.000Z</time>
      </trkpt>
      <trkpt lat="42.83424" lon="1.33583">
        <ele>1555</ele>
        <time>2025-09-27T13:12:49.000Z</time>
      </trkpt>
      <trkpt lat="42.83426" lon="1.33581">
        <ele>1555</ele>
        <time>2025-09-27T13:12:50.000Z</time>
      </trkpt>
      <trkpt lat="42.83428" lon="1.33578">
        <ele>1555</ele>
        <time>2025-09-27T13:12:51.000Z</time>
      </trkpt>
      <trkpt lat="42.83429" lon="1.33577">
        <ele>1555</ele>
        <time>2025-09-27T13:12:52.000Z</time>
      </trkpt>
      <trkpt lat="42.83431" lon="1.33576">
        <ele>1555</ele>
        <time>2025-09-27T13:12:53.000Z</time>
      </trkpt>
      <trkpt lat="42.83433" lon="1.33575">
        <ele>1555</ele>
        <time>2025-09-27T13:12:54.000Z</time>
      </trkpt>
      <trkpt lat="42.83434" lon="1.33574">
        <ele>1555</ele>
        <time>2025-09-27T13:12:55.000Z</time>
      </trkpt>
      <trkpt lat="42.83436" lon="1.33572">
        <ele>1555</ele>
        <time>2025-09-27T13:12:56.000Z</time>
      </trkpt>
      <trkpt lat="42.83439" lon="1.33572">
        <ele>1555</ele>
        <time>2025-09-27T13:12:57.000Z</time>
      </trkpt>
      <trkpt lat="42.83442" lon="1.3357">
        <ele>1556</ele>
        <time>2025-09-27T13:12:58.000Z</time>
      </trkpt>
      <trkpt lat="42.83444" lon="1.33568">
        <ele>1555</ele>
        <time>2025-09-27T13:12:59.000Z</time>
      </trkpt>
      <trkpt lat="42.83447" lon="1.33566">
        <ele>1555</ele>
        <time>2025-09-27T13:13:00.000Z</time>
      </trkpt>
      <trkpt lat="42.83449" lon="1.33564">
        <ele>1555</ele>
        <time>2025-09-27T13:13:01.000Z</time>
      </trkpt>
      <trkpt lat="42.8345" lon="1.33562">
        <ele>1555</ele>
        <time>2025-09-27T13:13:02.000Z</time>
      </trkpt>
      <trkpt lat="42.83453" lon="1.33561">
        <ele>1556</ele>
        <time>2025-09-27T13:13:03.000Z</time>
      </trkpt>
      <trkpt lat="42.83455" lon="1.3356">
        <ele>1556</ele>
        <time>2025-09-27T13:13:04.000Z</time>
      </trkpt>
      <trkpt lat="42.83457" lon="1.33559">
        <ele>1556</ele>
        <time>2025-09-27T13:13:05.000Z</time>
      </trkpt>
      <trkpt lat="42.83459" lon="1.33558">
        <ele>1555</ele>
        <time>2025-09-27T13:13:06.000Z</time>
      </trkpt>
      <trkpt lat="42.83461" lon="1.33557">
        <ele>1555</ele>
        <time>2025-09-27T13:13:07.000Z</time>
      </trkpt>
      <trkpt lat="42.83461" lon="1.33557">
        <ele>1556</ele>
        <time>2025-09-27T13:13:08.000Z</time>
      </trkpt>
      <trkpt lat="42.83463" lon="1.33556">
        <ele>1555</ele>
        <time>2025-09-27T13:13:09.000Z</time>
      </trkpt>
      <trkpt lat="42.83465" lon="1.33555">
        <ele>1556</ele>
        <time>2025-09-27T13:13:10.000Z</time>
      </trkpt>
      <trkpt lat="42.83467" lon="1.33553">
        <ele>1556</ele>
        <time>2025-09-27T13:13:11.000Z</time>
      </trkpt>
      <trkpt lat="42.83469" lon="1.33551">
        <ele>1557</ele>
        <time>2025-09-27T13:13:12.000Z</time>
      </trkpt>
      <trkpt lat="42.83471" lon="1.3355">
        <ele>1557</ele>
        <time>2025-09-27T13:13:13.000Z</time>
      </trkpt>
      <trkpt lat="42.83473" lon="1.33549">
        <ele>1556</ele>
        <time>2025-09-27T13:13:14.000Z</time>
      </trkpt>
      <trkpt lat="42.83474" lon="1.33548">
        <ele>1556</ele>
        <time>2025-09-27T13:13:15.000Z</time>
      </trkpt>
      <trkpt lat="42.83476" lon="1.33546">
        <ele>1556</ele>
        <time>2025-09-27T13:13:16.000Z</time>
      </trkpt>
      <trkpt lat="42.83477" lon="1.33544">
        <ele>1556</ele>
        <time>2025-09-27T13:13:17.000Z</time>
      </trkpt>
      <trkpt lat="42.83479" lon="1.33543">
        <ele>1556</ele>
        <time>2025-09-27T13:13:18.000Z</time>
      </trkpt>
      <trkpt lat="42.8348" lon="1.33541">
        <ele>1556</ele>
        <time>2025-09-27T13:13:19.000Z</time>
      </trkpt>
      <trkpt lat="42.8348" lon="1.33541">
        <ele>1557</ele>
        <time>2025-09-27T13:13:20.000Z</time>
      </trkpt>
      <trkpt lat="42.83481" lon="1.33542">
        <ele>1557</ele>
        <time>2025-09-27T13:13:21.000Z</time>
      </trkpt>
      <trkpt lat="42.8348" lon="1.33542">
        <ele>1557</ele>
        <time>2025-09-27T13:13:22.000Z</time>
      </trkpt>
      <trkpt lat="42.83481" lon="1.33542">
        <ele>1556</ele>
        <time>2025-09-27T13:13:23.000Z</time>
      </trkpt>
      <trkpt lat="42.83482" lon="1.33542">
        <ele>1556</ele>
        <time>2025-09-27T13:13:24.000Z</time>
      </trkpt>
      <trkpt lat="42.83483" lon="1.33542">
        <ele>1556</ele>
        <time>2025-09-27T13:13:25.000Z</time>
      </trkpt>
      <trkpt lat="42.83484" lon="1.33543">
        <ele>1557</ele>
        <time>2025-09-27T13:13:26.000Z</time>
      </trkpt>
      <trkpt lat="42.83485" lon="1.33543">
        <ele>1557</ele>
        <time>2025-09-27T13:13:27.000Z</time>
      </trkpt>
      <trkpt lat="42.83486" lon="1.33543">
        <ele>1557</ele>
        <time>2025-09-27T13:13:28.000Z</time>
      </trkpt>
      <trkpt lat="42.83486" lon="1.33542">
        <ele>1556</ele>
        <time>2025-09-27T13:13:29.000Z</time>
      </trkpt>
      <trkpt lat="42.83487" lon="1.33542">
        <ele>1557</ele>
        <time>2025-09-27T13:13:30.000Z</time>
      </trkpt>
      <trkpt lat="42.83487" lon="1.33538">
        <ele>1559</ele>
        <time>2025-09-27T13:13:47.000Z</time>
      </trkpt>
      <trkpt lat="42.83487" lon="1.33537">
        <ele>1559</ele>
        <time>2025-09-27T13:13:48.000Z</time>
      </trkpt>
      <trkpt lat="42.83488" lon="1.33538">
        <ele>1559</ele>
        <time>2025-09-27T13:13:49.000Z</time>
      </trkpt>
      <trkpt lat="42.83488" lon="1.33537">
        <ele>1559</ele>
        <time>2025-09-27T13:13:50.000Z</time>
      </trkpt>
      <trkpt lat="42.83488" lon="1.33537">
        <ele>1559</ele>
        <time>2025-09-27T13:13:51.000Z</time>
      </trkpt>
      <trkpt lat="42.83488" lon="1.33537">
        <ele>1559</ele>
        <time>2025-09-27T13:13:52.000Z</time>
      </trkpt>
      <trkpt lat="42.83488" lon="1.33537">
        <ele>1559</ele>
        <time>2025-09-27T13:13:53.000Z</time>
      </trkpt>
      <trkpt lat="42.83489" lon="1.33538">
        <ele>1559</ele>
        <time>2025-09-27T13:13:54.000Z</time>
      </trkpt>
      <trkpt lat="42.8349" lon="1.33538">
        <ele>1559</ele>
        <time>2025-09-27T13:13:55.000Z</time>
      </trkpt>
      <trkpt lat="42.83491" lon="1.33538">
        <ele>1559</ele>
        <time>2025-09-27T13:13:56.000Z</time>
      </trkpt>
      <trkpt lat="42.83491" lon="1.33537">
        <ele>1559</ele>
        <time>2025-09-27T13:13:57.000Z</time>
      </trkpt>
      <trkpt lat="42.83491" lon="1.33537">
        <ele>1559</ele>
        <time>2025-09-27T13:13:58.000Z</time>
      </trkpt>
      <trkpt lat="42.83492" lon="1.33536">
        <ele>1559</ele>
        <time>2025-09-27T13:13:59.000Z</time>
      </trkpt>
      <trkpt lat="42.83492" lon="1.33535">
        <ele>1559</ele>
        <time>2025-09-27T13:14:00.000Z</time>
      </trkpt>
      <trkpt lat="42.83492" lon="1.33534">
        <ele>1559</ele>
        <time>2025-09-27T13:14:01.000Z</time>
      </trkpt>
      <trkpt lat="42.83494" lon="1.33534">
        <ele>1559</ele>
        <time>2025-09-27T13:14:02.000Z</time>
      </trkpt>
      <trkpt lat="42.83494" lon="1.33534">
        <ele>1560</ele>
        <time>2025-09-27T13:14:03.000Z</time>
      </trkpt>
      <trkpt lat="42.83496" lon="1.33533">
        <ele>1559</ele>
        <time>2025-09-27T13:14:04.000Z</time>
      </trkpt>
      <trkpt lat="42.83497" lon="1.33532">
        <ele>1560</ele>
        <time>2025-09-27T13:14:05.000Z</time>
      </trkpt>
      <trkpt lat="42.83498" lon="1.33532">
        <ele>1559</ele>
        <time>2025-09-27T13:14:06.000Z</time>
      </trkpt>
      <trkpt lat="42.83499" lon="1.33532">
        <ele>1560</ele>
        <time>2025-09-27T13:14:07.000Z</time>
      </trkpt>
      <trkpt lat="42.835" lon="1.33531">
        <ele>1559</ele>
        <time>2025-09-27T13:14:08.000Z</time>
      </trkpt>
      <trkpt lat="42.83501" lon="1.3353">
        <ele>1559</ele>
        <time>2025-09-27T13:14:09.000Z</time>
      </trkpt>
      <trkpt lat="42.83503" lon="1.33529">
        <ele>1558</ele>
        <time>2025-09-27T13:14:10.000Z</time>
      </trkpt>
      <trkpt lat="42.83504" lon="1.33528">
        <ele>1559</ele>
        <time>2025-09-27T13:14:11.000Z</time>
      </trkpt>
      <trkpt lat="42.83504" lon="1.33527">
        <ele>1559</ele>
        <time>2025-09-27T13:14:12.000Z</time>
      </trkpt>
      <trkpt lat="42.83505" lon="1.33526">
        <ele>1559</ele>
        <time>2025-09-27T13:14:13.000Z</time>
      </trkpt>
      <trkpt lat="42.83506" lon="1.33524">
        <ele>1559</ele>
        <time>2025-09-27T13:14:14.000Z</time>
      </trkpt>
      <trkpt lat="42.83508" lon="1.33523">
        <ele>1559</ele>
        <time>2025-09-27T13:14:15.000Z</time>
      </trkpt>
      <trkpt lat="42.83509" lon="1.33521">
        <ele>1559</ele>
        <time>2025-09-27T13:14:16.000Z</time>
      </trkpt>
      <trkpt lat="42.83511" lon="1.33519">
        <ele>1559</ele>
        <time>2025-09-27T13:14:17.000Z</time>
      </trkpt>
      <trkpt lat="42.83512" lon="1.33518">
        <ele>1559</ele>
        <time>2025-09-27T13:14:18.000Z</time>
      </trkpt>
      <trkpt lat="42.83513" lon="1.33516">
        <ele>1560</ele>
        <time>2025-09-27T13:14:19.000Z</time>
      </trkpt>
      <trkpt lat="42.83515" lon="1.33514">
        <ele>1560</ele>
        <time>2025-09-27T13:14:20.000Z</time>
      </trkpt>
      <trkpt lat="42.83516" lon="1.33513">
        <ele>1561</ele>
        <time>2025-09-27T13:14:21.000Z</time>
      </trkpt>
      <trkpt lat="42.83518" lon="1.33511">
        <ele>1562</ele>
        <time>2025-09-27T13:14:22.000Z</time>
      </trkpt>
      <trkpt lat="42.83519" lon="1.33509">
        <ele>1562</ele>
        <time>2025-09-27T13:14:23.000Z</time>
      </trkpt>
      <trkpt lat="42.83521" lon="1.33507">
        <ele>1561</ele>
        <time>2025-09-27T13:14:24.000Z</time>
      </trkpt>
      <trkpt lat="42.83522" lon="1.33504">
        <ele>1562</ele>
        <time>2025-09-27T13:14:25.000Z</time>
      </trkpt>
      <trkpt lat="42.83524" lon="1.33502">
        <ele>1562</ele>
        <time>2025-09-27T13:14:26.000Z</time>
      </trkpt>
      <trkpt lat="42.83525" lon="1.335">
        <ele>1562</ele>
        <time>2025-09-27T13:14:27.000Z</time>
      </trkpt>
      <trkpt lat="42.83527" lon="1.33497">
        <ele>1562</ele>
        <time>2025-09-27T13:14:28.000Z</time>
      </trkpt>
      <trkpt lat="42.83528" lon="1.33495">
        <ele>1561</ele>
        <time>2025-09-27T13:14:29.000Z</time>
      </trkpt>
      <trkpt lat="42.83529" lon="1.33493">
        <ele>1561</ele>
        <time>2025-09-27T13:14:30.000Z</time>
      </trkpt>
      <trkpt lat="42.8353" lon="1.33491">
        <ele>1561</ele>
        <time>2025-09-27T13:14:31.000Z</time>
      </trkpt>
      <trkpt lat="42.83531" lon="1.33489">
        <ele>1562</ele>
        <time>2025-09-27T13:14:32.000Z</time>
      </trkpt>
      <trkpt lat="42.83532" lon="1.33487">
        <ele>1562</ele>
        <time>2025-09-27T13:14:33.000Z</time>
      </trkpt>
      <trkpt lat="42.83533" lon="1.33485">
        <ele>1562</ele>
        <time>2025-09-27T13:14:34.000Z</time>
      </trkpt>
      <trkpt lat="42.83534" lon="1.33483">
        <ele>1562</ele>
        <time>2025-09-27T13:14:35.000Z</time>
      </trkpt>
      <trkpt lat="42.83535" lon="1.33482">
        <ele>1563</ele>
        <time>2025-09-27T13:14:36.000Z</time>
      </trkpt>
      <trkpt lat="42.83536" lon="1.3348">
        <ele>1563</ele>
        <time>2025-09-27T13:14:37.000Z</time>
      </trkpt>
      <trkpt lat="42.83538" lon="1.33478">
        <ele>1563</ele>
        <time>2025-09-27T13:14:38.000Z</time>
      </trkpt>
      <trkpt lat="42.83539" lon="1.33476">
        <ele>1563</ele>
        <time>2025-09-27T13:14:39.000Z</time>
      </trkpt>
      <trkpt lat="42.83541" lon="1.33475">
        <ele>1563</ele>
        <time>2025-09-27T13:14:40.000Z</time>
      </trkpt>
      <trkpt lat="42.83542" lon="1.33473">
        <ele>1563</ele>
        <time>2025-09-27T13:14:41.000Z</time>
      </trkpt>
      <trkpt lat="42.83544" lon="1.3347">
        <ele>1563</ele>
        <time>2025-09-27T13:14:42.000Z</time>
      </trkpt>
      <trkpt lat="42.83545" lon="1.33469">
        <ele>1564</ele>
        <time>2025-09-27T13:14:43.000Z</time>
      </trkpt>
      <trkpt lat="42.83546" lon="1.33466">
        <ele>1563</ele>
        <time>2025-09-27T13:14:44.000Z</time>
      </trkpt>
      <trkpt lat="42.83547" lon="1.33463">
        <ele>1564</ele>
        <time>2025-09-27T13:14:45.000Z</time>
      </trkpt>
      <trkpt lat="42.83548" lon="1.3346">
        <ele>1563</ele>
        <time>2025-09-27T13:14:46.000Z</time>
      </trkpt>
      <trkpt lat="42.83549" lon="1.33458">
        <ele>1563</ele>
        <time>2025-09-27T13:14:47.000Z</time>
      </trkpt>
      <trkpt lat="42.83551" lon="1.33455">
        <ele>1563</ele>
        <time>2025-09-27T13:14:48.000Z</time>
      </trkpt>
      <trkpt lat="42.83553" lon="1.33453">
        <ele>1564</ele>
        <time>2025-09-27T13:14:49.000Z</time>
      </trkpt>
      <trkpt lat="42.83554" lon="1.33451">
        <ele>1564</ele>
        <time>2025-09-27T13:14:50.000Z</time>
      </trkpt>
      <trkpt lat="42.83556" lon="1.33448">
        <ele>1563</ele>
        <time>2025-09-27T13:14:51.000Z</time>
      </trkpt>
      <trkpt lat="42.83557" lon="1.33445">
        <ele>1563</ele>
        <time>2025-09-27T13:14:52.000Z</time>
      </trkpt>
      <trkpt lat="42.83559" lon="1.33442">
        <ele>1561</ele>
        <time>2025-09-27T13:14:53.000Z</time>
      </trkpt>
      <trkpt lat="42.8356" lon="1.3344">
        <ele>1560</ele>
        <time>2025-09-27T13:14:54.000Z</time>
      </trkpt>
      <trkpt lat="42.83562" lon="1.33438">
        <ele>1559</ele>
        <time>2025-09-27T13:14:55.000Z</time>
      </trkpt>
      <trkpt lat="42.83563" lon="1.33436">
        <ele>1558</ele>
        <time>2025-09-27T13:14:56.000Z</time>
      </trkpt>
      <trkpt lat="42.83565" lon="1.33433">
        <ele>1559</ele>
        <time>2025-09-27T13:14:57.000Z</time>
      </trkpt>
      <trkpt lat="42.83567" lon="1.3343">
        <ele>1558</ele>
        <time>2025-09-27T13:14:58.000Z</time>
      </trkpt>
      <trkpt lat="42.83568" lon="1.33428">
        <ele>1558</ele>
        <time>2025-09-27T13:14:59.000Z</time>
      </trkpt>
      <trkpt lat="42.8357" lon="1.33425">
        <ele>1557</ele>
        <time>2025-09-27T13:15:00.000Z</time>
      </trkpt>
      <trkpt lat="42.83571" lon="1.33423">
        <ele>1558</ele>
        <time>2025-09-27T13:15:01.000Z</time>
      </trkpt>
      <trkpt lat="42.83572" lon="1.33421">
        <ele>1558</ele>
        <time>2025-09-27T13:15:02.000Z</time>
      </trkpt>
      <trkpt lat="42.83573" lon="1.33419">
        <ele>1558</ele>
        <time>2025-09-27T13:15:03.000Z</time>
      </trkpt>
      <trkpt lat="42.83574" lon="1.33417">
        <ele>1559</ele>
        <time>2025-09-27T13:15:04.000Z</time>
      </trkpt>
      <trkpt lat="42.83575" lon="1.33414">
        <ele>1559</ele>
        <time>2025-09-27T13:15:05.000Z</time>
      </trkpt>
      <trkpt lat="42.83576" lon="1.33413">
        <ele>1559</ele>
        <time>2025-09-27T13:15:06.000Z</time>
      </trkpt>
      <trkpt lat="42.83577" lon="1.33412">
        <ele>1559</ele>
        <time>2025-09-27T13:15:07.000Z</time>
      </trkpt>
      <trkpt lat="42.83578" lon="1.3341">
        <ele>1559</ele>
        <time>2025-09-27T13:15:08.000Z</time>
      </trkpt>
      <trkpt lat="42.8358" lon="1.33408">
        <ele>1559</ele>
        <time>2025-09-27T13:15:09.000Z</time>
      </trkpt>
      <trkpt lat="42.83582" lon="1.33407">
        <ele>1560</ele>
        <time>2025-09-27T13:15:10.000Z</time>
      </trkpt>
      <trkpt lat="42.83583" lon="1.33405">
        <ele>1559</ele>
        <time>2025-09-27T13:15:11.000Z</time>
      </trkpt>
      <trkpt lat="42.83585" lon="1.33403">
        <ele>1559</ele>
        <time>2025-09-27T13:15:12.000Z</time>
      </trkpt>
      <trkpt lat="42.83587" lon="1.33402">
        <ele>1559</ele>
        <time>2025-09-27T13:15:13.000Z</time>
      </trkpt>
      <trkpt lat="42.83589" lon="1.33399">
        <ele>1559</ele>
        <time>2025-09-27T13:15:14.000Z</time>
      </trkpt>
      <trkpt lat="42.83592" lon="1.33396">
        <ele>1560</ele>
        <time>2025-09-27T13:15:15.000Z</time>
      </trkpt>
      <trkpt lat="42.83595" lon="1.33394">
        <ele>1560</ele>
        <time>2025-09-27T13:15:16.000Z</time>
      </trkpt>
      <trkpt lat="42.83598" lon="1.33392">
        <ele>1559</ele>
        <time>2025-09-27T13:15:17.000Z</time>
      </trkpt>
      <trkpt lat="42.83601" lon="1.33389">
        <ele>1560</ele>
        <time>2025-09-27T13:15:18.000Z</time>
      </trkpt>
      <trkpt lat="42.83604" lon="1.33387">
        <ele>1560</ele>
        <time>2025-09-27T13:15:19.000Z</time>
      </trkpt>
      <trkpt lat="42.83606" lon="1.33385">
        <ele>1559</ele>
        <time>2025-09-27T13:15:20.000Z</time>
      </trkpt>
      <trkpt lat="42.83608" lon="1.33383">
        <ele>1559</ele>
        <time>2025-09-27T13:15:21.000Z</time>
      </trkpt>
      <trkpt lat="42.83611" lon="1.33381">
        <ele>1559</ele>
        <time>2025-09-27T13:15:22.000Z</time>
      </trkpt>
      <trkpt lat="42.83614" lon="1.33378">
        <ele>1559</ele>
        <time>2025-09-27T13:15:23.000Z</time>
      </trkpt>
      <trkpt lat="42.83616" lon="1.33376">
        <ele>1559</ele>
        <time>2025-09-27T13:15:24.000Z</time>
      </trkpt>
      <trkpt lat="42.83617" lon="1.33373">
        <ele>1559</ele>
        <time>2025-09-27T13:15:25.000Z</time>
      </trkpt>
      <trkpt lat="42.83619" lon="1.3337">
        <ele>1558</ele>
        <time>2025-09-27T13:15:26.000Z</time>
      </trkpt>
      <trkpt lat="42.83621" lon="1.33366">
        <ele>1558</ele>
        <time>2025-09-27T13:15:27.000Z</time>
      </trkpt>
      <trkpt lat="42.83624" lon="1.33363">
        <ele>1557</ele>
        <time>2025-09-27T13:15:28.000Z</time>
      </trkpt>
      <trkpt lat="42.83627" lon="1.33361">
        <ele>1556</ele>
        <time>2025-09-27T13:15:29.000Z</time>
      </trkpt>
      <trkpt lat="42.83629" lon="1.33359">
        <ele>1556</ele>
        <time>2025-09-27T13:15:30.000Z</time>
      </trkpt>
      <trkpt lat="42.83632" lon="1.33357">
        <ele>1556</ele>
        <time>2025-09-27T13:15:31.000Z</time>
      </trkpt>
      <trkpt lat="42.83634" lon="1.33354">
        <ele>1555</ele>
        <time>2025-09-27T13:15:32.000Z</time>
      </trkpt>
      <trkpt lat="42.83638" lon="1.33352">
        <ele>1555</ele>
        <time>2025-09-27T13:15:33.000Z</time>
      </trkpt>
      <trkpt lat="42.83642" lon="1.3335">
        <ele>1555</ele>
        <time>2025-09-27T13:15:34.000Z</time>
      </trkpt>
      <trkpt lat="42.83644" lon="1.33348">
        <ele>1555</ele>
        <time>2025-09-27T13:15:35.000Z</time>
      </trkpt>
      <trkpt lat="42.83647" lon="1.33346">
        <ele>1554</ele>
        <time>2025-09-27T13:15:36.000Z</time>
      </trkpt>
      <trkpt lat="42.8365" lon="1.33344">
        <ele>1554</ele>
        <time>2025-09-27T13:15:37.000Z</time>
      </trkpt>
      <trkpt lat="42.83651" lon="1.33342">
        <ele>1554</ele>
        <time>2025-09-27T13:15:38.000Z</time>
      </trkpt>
      <trkpt lat="42.83653" lon="1.33341">
        <ele>1554</ele>
        <time>2025-09-27T13:15:39.000Z</time>
      </trkpt>
      <trkpt lat="42.83655" lon="1.33338">
        <ele>1554</ele>
        <time>2025-09-27T13:15:40.000Z</time>
      </trkpt>
      <trkpt lat="42.83657" lon="1.33337">
        <ele>1554</ele>
        <time>2025-09-27T13:15:41.000Z</time>
      </trkpt>
      <trkpt lat="42.83659" lon="1.33335">
        <ele>1553</ele>
        <time>2025-09-27T13:15:42.000Z</time>
      </trkpt>
      <trkpt lat="42.83662" lon="1.33334">
        <ele>1553</ele>
        <time>2025-09-27T13:15:43.000Z</time>
      </trkpt>
      <trkpt lat="42.83663" lon="1.33332">
        <ele>1554</ele>
        <time>2025-09-27T13:15:44.000Z</time>
      </trkpt>
      <trkpt lat="42.83666" lon="1.3333">
        <ele>1554</ele>
        <time>2025-09-27T13:15:45.000Z</time>
      </trkpt>
      <trkpt lat="42.83669" lon="1.33328">
        <ele>1553</ele>
        <time>2025-09-27T13:15:46.000Z</time>
      </trkpt>
      <trkpt lat="42.83673" lon="1.33325">
        <ele>1553</ele>
        <time>2025-09-27T13:15:47.000Z</time>
      </trkpt>
      <trkpt lat="42.83676" lon="1.33322">
        <ele>1553</ele>
        <time>2025-09-27T13:15:48.000Z</time>
      </trkpt>
      <trkpt lat="42.83679" lon="1.3332">
        <ele>1553</ele>
        <time>2025-09-27T13:15:49.000Z</time>
      </trkpt>
      <trkpt lat="42.83682" lon="1.33318">
        <ele>1553</ele>
        <time>2025-09-27T13:15:50.000Z</time>
      </trkpt>
      <trkpt lat="42.83684" lon="1.33315">
        <ele>1553</ele>
        <time>2025-09-27T13:15:51.000Z</time>
      </trkpt>
      <trkpt lat="42.83686" lon="1.33313">
        <ele>1554</ele>
        <time>2025-09-27T13:15:52.000Z</time>
      </trkpt>
      <trkpt lat="42.83688" lon="1.33311">
        <ele>1554</ele>
        <time>2025-09-27T13:15:53.000Z</time>
      </trkpt>
      <trkpt lat="42.8369" lon="1.33309">
        <ele>1554</ele>
        <time>2025-09-27T13:15:54.000Z</time>
      </trkpt>
      <trkpt lat="42.83692" lon="1.33305">
        <ele>1553</ele>
        <time>2025-09-27T13:15:55.000Z</time>
      </trkpt>
      <trkpt lat="42.83694" lon="1.33303">
        <ele>1553</ele>
        <time>2025-09-27T13:15:56.000Z</time>
      </trkpt>
      <trkpt lat="42.83696" lon="1.33301">
        <ele>1552</ele>
        <time>2025-09-27T13:15:57.000Z</time>
      </trkpt>
      <trkpt lat="42.83698" lon="1.33298">
        <ele>1552</ele>
        <time>2025-09-27T13:15:58.000Z</time>
      </trkpt>
      <trkpt lat="42.83699" lon="1.33296">
        <ele>1552</ele>
        <time>2025-09-27T13:15:59.000Z</time>
      </trkpt>
      <trkpt lat="42.83702" lon="1.33295">
        <ele>1552</ele>
        <time>2025-09-27T13:16:00.000Z</time>
      </trkpt>
      <trkpt lat="42.83705" lon="1.33293">
        <ele>1551</ele>
        <time>2025-09-27T13:16:01.000Z</time>
      </trkpt>
      <trkpt lat="42.83708" lon="1.33291">
        <ele>1550</ele>
        <time>2025-09-27T13:16:02.000Z</time>
      </trkpt>
      <trkpt lat="42.83711" lon="1.33288">
        <ele>1550</ele>
        <time>2025-09-27T13:16:03.000Z</time>
      </trkpt>
      <trkpt lat="42.83715" lon="1.33284">
        <ele>1549</ele>
        <time>2025-09-27T13:16:04.000Z</time>
      </trkpt>
      <trkpt lat="42.83719" lon="1.33282">
        <ele>1549</ele>
        <time>2025-09-27T13:16:05.000Z</time>
      </trkpt>
      <trkpt lat="42.83721" lon="1.33279">
        <ele>1549</ele>
        <time>2025-09-27T13:16:06.000Z</time>
      </trkpt>
      <trkpt lat="42.83724" lon="1.33276">
        <ele>1549</ele>
        <time>2025-09-27T13:16:07.000Z</time>
      </trkpt>
      <trkpt lat="42.83727" lon="1.33272">
        <ele>1550</ele>
        <time>2025-09-27T13:16:08.000Z</time>
      </trkpt>
      <trkpt lat="42.83729" lon="1.33269">
        <ele>1549</ele>
        <time>2025-09-27T13:16:09.000Z</time>
      </trkpt>
      <trkpt lat="42.83731" lon="1.33266">
        <ele>1549</ele>
        <time>2025-09-27T13:16:10.000Z</time>
      </trkpt>
      <trkpt lat="42.83733" lon="1.33263">
        <ele>1549</ele>
        <time>2025-09-27T13:16:11.000Z</time>
      </trkpt>
      <trkpt lat="42.83735" lon="1.33261">
        <ele>1548</ele>
        <time>2025-09-27T13:16:12.000Z</time>
      </trkpt>
      <trkpt lat="42.83738" lon="1.3326">
        <ele>1548</ele>
        <time>2025-09-27T13:16:13.000Z</time>
      </trkpt>
      <trkpt lat="42.83741" lon="1.3326">
        <ele>1548</ele>
        <time>2025-09-27T13:16:14.000Z</time>
      </trkpt>
      <trkpt lat="42.83744" lon="1.3326">
        <ele>1548</ele>
        <time>2025-09-27T13:16:15.000Z</time>
      </trkpt>
      <trkpt lat="42.83747" lon="1.3326">
        <ele>1549</ele>
        <time>2025-09-27T13:16:16.000Z</time>
      </trkpt>
      <trkpt lat="42.83749" lon="1.3326">
        <ele>1549</ele>
        <time>2025-09-27T13:16:17.000Z</time>
      </trkpt>
      <trkpt lat="42.83751" lon="1.33259">
        <ele>1549</ele>
        <time>2025-09-27T13:16:18.000Z</time>
      </trkpt>
      <trkpt lat="42.83752" lon="1.33258">
        <ele>1549</ele>
        <time>2025-09-27T13:16:19.000Z</time>
      </trkpt>
      <trkpt lat="42.83755" lon="1.33257">
        <ele>1550</ele>
        <time>2025-09-27T13:16:20.000Z</time>
      </trkpt>
      <trkpt lat="42.83756" lon="1.33256">
        <ele>1550</ele>
        <time>2025-09-27T13:16:21.000Z</time>
      </trkpt>
      <trkpt lat="42.83757" lon="1.33255">
        <ele>1550</ele>
        <time>2025-09-27T13:16:22.000Z</time>
      </trkpt>
      <trkpt lat="42.83758" lon="1.33253">
        <ele>1550</ele>
        <time>2025-09-27T13:16:23.000Z</time>
      </trkpt>
      <trkpt lat="42.8376" lon="1.33253">
        <ele>1550</ele>
        <time>2025-09-27T13:16:24.000Z</time>
      </trkpt>
      <trkpt lat="42.8376" lon="1.33252">
        <ele>1550</ele>
        <time>2025-09-27T13:16:25.000Z</time>
      </trkpt>
      <trkpt lat="42.8376" lon="1.3325">
        <ele>1551</ele>
        <time>2025-09-27T13:16:26.000Z</time>
      </trkpt>
      <trkpt lat="42.83761" lon="1.3325">
        <ele>1550</ele>
        <time>2025-09-27T13:16:27.000Z</time>
      </trkpt>
      <trkpt lat="42.83761" lon="1.33248">
        <ele>1550</ele>
        <time>2025-09-27T13:16:28.000Z</time>
      </trkpt>
      <trkpt lat="42.83762" lon="1.33248">
        <ele>1551</ele>
        <time>2025-09-27T13:16:29.000Z</time>
      </trkpt>
      <trkpt lat="42.83763" lon="1.33247">
        <ele>1551</ele>
        <time>2025-09-27T13:16:30.000Z</time>
      </trkpt>
      <trkpt lat="42.83766" lon="1.33238">
        <ele>1550</ele>
        <time>2025-09-27T13:17:14.000Z</time>
      </trkpt>
      <trkpt lat="42.83767" lon="1.33238">
        <ele>1549</ele>
        <time>2025-09-27T13:17:15.000Z</time>
      </trkpt>
      <trkpt lat="42.83767" lon="1.33237">
        <ele>1549</ele>
        <time>2025-09-27T13:17:16.000Z</time>
      </trkpt>
      <trkpt lat="42.83768" lon="1.33236">
        <ele>1549</ele>
        <time>2025-09-27T13:17:17.000Z</time>
      </trkpt>
      <trkpt lat="42.83768" lon="1.33236">
        <ele>1548</ele>
        <time>2025-09-27T13:17:18.000Z</time>
      </trkpt>
      <trkpt lat="42.83768" lon="1.33235">
        <ele>1548</ele>
        <time>2025-09-27T13:17:19.000Z</time>
      </trkpt>
      <trkpt lat="42.83768" lon="1.33233">
        <ele>1549</ele>
        <time>2025-09-27T13:17:20.000Z</time>
      </trkpt>
      <trkpt lat="42.83769" lon="1.33232">
        <ele>1549</ele>
        <time>2025-09-27T13:17:21.000Z</time>
      </trkpt>
      <trkpt lat="42.83769" lon="1.3323">
        <ele>1550</ele>
        <time>2025-09-27T13:17:22.000Z</time>
      </trkpt>
      <trkpt lat="42.8377" lon="1.33229">
        <ele>1550</ele>
        <time>2025-09-27T13:17:23.000Z</time>
      </trkpt>
      <trkpt lat="42.8377" lon="1.33229">
        <ele>1550</ele>
        <time>2025-09-27T13:17:24.000Z</time>
      </trkpt>
      <trkpt lat="42.8377" lon="1.3323">
        <ele>1550</ele>
        <time>2025-09-27T13:17:25.000Z</time>
      </trkpt>
      <trkpt lat="42.83771" lon="1.33229">
        <ele>1550</ele>
        <time>2025-09-27T13:17:26.000Z</time>
      </trkpt>
      <trkpt lat="42.83771" lon="1.3323">
        <ele>1549</ele>
        <time>2025-09-27T13:17:27.000Z</time>
      </trkpt>
      <trkpt lat="42.83772" lon="1.3323">
        <ele>1549</ele>
        <time>2025-09-27T13:17:28.000Z</time>
      </trkpt>
      <trkpt lat="42.83773" lon="1.33229">
        <ele>1549</ele>
        <time>2025-09-27T13:17:29.000Z</time>
      </trkpt>
      <trkpt lat="42.83773" lon="1.33228">
        <ele>1548</ele>
        <time>2025-09-27T13:17:30.000Z</time>
      </trkpt>
      <trkpt lat="42.83773" lon="1.33228">
        <ele>1548</ele>
        <time>2025-09-27T13:17:31.000Z</time>
      </trkpt>
      <trkpt lat="42.83773" lon="1.33227">
        <ele>1548</ele>
        <time>2025-09-27T13:17:32.000Z</time>
      </trkpt>
      <trkpt lat="42.83774" lon="1.33226">
        <ele>1547</ele>
        <time>2025-09-27T13:17:33.000Z</time>
      </trkpt>
      <trkpt lat="42.83774" lon="1.33226">
        <ele>1547</ele>
        <time>2025-09-27T13:17:34.000Z</time>
      </trkpt>
      <trkpt lat="42.83774" lon="1.33226">
        <ele>1547</ele>
        <time>2025-09-27T13:17:35.000Z</time>
      </trkpt>
      <trkpt lat="42.83775" lon="1.33225">
        <ele>1547</ele>
        <time>2025-09-27T13:17:36.000Z</time>
      </trkpt>
      <trkpt lat="42.83775" lon="1.33223">
        <ele>1546</ele>
        <time>2025-09-27T13:17:37.000Z</time>
      </trkpt>
      <trkpt lat="42.83776" lon="1.33222">
        <ele>1546</ele>
        <time>2025-09-27T13:17:38.000Z</time>
      </trkpt>
      <trkpt lat="42.83777" lon="1.33221">
        <ele>1546</ele>
        <time>2025-09-27T13:17:39.000Z</time>
      </trkpt>
      <trkpt lat="42.83778" lon="1.3322">
        <ele>1545</ele>
        <time>2025-09-27T13:17:40.000Z</time>
      </trkpt>
      <trkpt lat="42.83778" lon="1.33219">
        <ele>1545</ele>
        <time>2025-09-27T13:17:41.000Z</time>
      </trkpt>
      <trkpt lat="42.83778" lon="1.33218">
        <ele>1546</ele>
        <time>2025-09-27T13:17:42.000Z</time>
      </trkpt>
      <trkpt lat="42.83779" lon="1.33218">
        <ele>1546</ele>
        <time>2025-09-27T13:17:43.000Z</time>
      </trkpt>
      <trkpt lat="42.8378" lon="1.33217">
        <ele>1546</ele>
        <time>2025-09-27T13:17:44.000Z</time>
      </trkpt>
      <trkpt lat="42.8378" lon="1.33217">
        <ele>1545</ele>
        <time>2025-09-27T13:17:45.000Z</time>
      </trkpt>
      <trkpt lat="42.83781" lon="1.33217">
        <ele>1545</ele>
        <time>2025-09-27T13:17:46.000Z</time>
      </trkpt>
      <trkpt lat="42.83782" lon="1.33217">
        <ele>1546</ele>
        <time>2025-09-27T13:17:47.000Z</time>
      </trkpt>
      <trkpt lat="42.83782" lon="1.33216">
        <ele>1546</ele>
        <time>2025-09-27T13:17:48.000Z</time>
      </trkpt>
      <trkpt lat="42.83782" lon="1.33215">
        <ele>1547</ele>
        <time>2025-09-27T13:17:49.000Z</time>
      </trkpt>
      <trkpt lat="42.83782" lon="1.33215">
        <ele>1547</ele>
        <time>2025-09-27T13:17:50.000Z</time>
      </trkpt>
      <trkpt lat="42.83782" lon="1.33215">
        <ele>1546</ele>
        <time>2025-09-27T13:17:51.000Z</time>
      </trkpt>
      <trkpt lat="42.83781" lon="1.33214">
        <ele>1546</ele>
        <time>2025-09-27T13:17:52.000Z</time>
      </trkpt>
      <trkpt lat="42.83781" lon="1.33213">
        <ele>1547</ele>
        <time>2025-09-27T13:17:53.000Z</time>
      </trkpt>
      <trkpt lat="42.8378" lon="1.33211">
        <ele>1547</ele>
        <time>2025-09-27T13:17:54.000Z</time>
      </trkpt>
      <trkpt lat="42.8378" lon="1.3321">
        <ele>1547</ele>
        <time>2025-09-27T13:17:55.000Z</time>
      </trkpt>
      <trkpt lat="42.8378" lon="1.33208">
        <ele>1547</ele>
        <time>2025-09-27T13:17:56.000Z</time>
      </trkpt>
      <trkpt lat="42.8378" lon="1.33206">
        <ele>1547</ele>
        <time>2025-09-27T13:17:57.000Z</time>
      </trkpt>
      <trkpt lat="42.83779" lon="1.33205">
        <ele>1547</ele>
        <time>2025-09-27T13:17:58.000Z</time>
      </trkpt>
      <trkpt lat="42.83778" lon="1.33203">
        <ele>1547</ele>
        <time>2025-09-27T13:17:59.000Z</time>
      </trkpt>
      <trkpt lat="42.83778" lon="1.33201">
        <ele>1547</ele>
        <time>2025-09-27T13:18:00.000Z</time>
      </trkpt>
      <trkpt lat="42.83778" lon="1.33199">
        <ele>1547</ele>
        <time>2025-09-27T13:18:01.000Z</time>
      </trkpt>
      <trkpt lat="42.83778" lon="1.33197">
        <ele>1547</ele>
        <time>2025-09-27T13:18:02.000Z</time>
      </trkpt>
      <trkpt lat="42.83777" lon="1.33195">
        <ele>1547</ele>
        <time>2025-09-27T13:18:03.000Z</time>
      </trkpt>
      <trkpt lat="42.83776" lon="1.33192">
        <ele>1548</ele>
        <time>2025-09-27T13:18:04.000Z</time>
      </trkpt>
      <trkpt lat="42.83775" lon="1.3319">
        <ele>1548</ele>
        <time>2025-09-27T13:18:05.000Z</time>
      </trkpt>
      <trkpt lat="42.83775" lon="1.33188">
        <ele>1548</ele>
        <time>2025-09-27T13:18:06.000Z</time>
      </trkpt>
      <trkpt lat="42.83775" lon="1.33186">
        <ele>1548</ele>
        <time>2025-09-27T13:18:07.000Z</time>
      </trkpt>
      <trkpt lat="42.83775" lon="1.33183">
        <ele>1548</ele>
        <time>2025-09-27T13:18:08.000Z</time>
      </trkpt>
      <trkpt lat="42.83776" lon="1.33181">
        <ele>1548</ele>
        <time>2025-09-27T13:18:09.000Z</time>
      </trkpt>
      <trkpt lat="42.83778" lon="1.33178">
        <ele>1549</ele>
        <time>2025-09-27T13:18:10.000Z</time>
      </trkpt>
      <trkpt lat="42.83779" lon="1.33177">
        <ele>1548</ele>
        <time>2025-09-27T13:18:11.000Z</time>
      </trkpt>
      <trkpt lat="42.8378" lon="1.33175">
        <ele>1548</ele>
        <time>2025-09-27T13:18:12.000Z</time>
      </trkpt>
      <trkpt lat="42.8378" lon="1.33173">
        <ele>1549</ele>
        <time>2025-09-27T13:18:13.000Z</time>
      </trkpt>
      <trkpt lat="42.83781" lon="1.33172">
        <ele>1549</ele>
        <time>2025-09-27T13:18:14.000Z</time>
      </trkpt>
      <trkpt lat="42.83781" lon="1.33171">
        <ele>1548</ele>
        <time>2025-09-27T13:18:15.000Z</time>
      </trkpt>
      <trkpt lat="42.83781" lon="1.3317">
        <ele>1548</ele>
        <time>2025-09-27T13:18:16.000Z</time>
      </trkpt>
      <trkpt lat="42.83781" lon="1.33169">
        <ele>1548</ele>
        <time>2025-09-27T13:18:17.000Z</time>
      </trkpt>
      <trkpt lat="42.83781" lon="1.33166">
        <ele>1548</ele>
        <time>2025-09-27T13:18:18.000Z</time>
      </trkpt>
      <trkpt lat="42.83782" lon="1.33164">
        <ele>1549</ele>
        <time>2025-09-27T13:18:19.000Z</time>
      </trkpt>
      <trkpt lat="42.83783" lon="1.33162">
        <ele>1549</ele>
        <time>2025-09-27T13:18:20.000Z</time>
      </trkpt>
      <trkpt lat="42.83784" lon="1.33159">
        <ele>1549</ele>
        <time>2025-09-27T13:18:21.000Z</time>
      </trkpt>
      <trkpt lat="42.83785" lon="1.33157">
        <ele>1549</ele>
        <time>2025-09-27T13:18:22.000Z</time>
      </trkpt>
      <trkpt lat="42.83787" lon="1.33155">
        <ele>1549</ele>
        <time>2025-09-27T13:18:23.000Z</time>
      </trkpt>
      <trkpt lat="42.83788" lon="1.33153">
        <ele>1549</ele>
        <time>2025-09-27T13:18:24.000Z</time>
      </trkpt>
      <trkpt lat="42.83788" lon="1.33151">
        <ele>1549</ele>
        <time>2025-09-27T13:18:25.000Z</time>
      </trkpt>
      <trkpt lat="42.83789" lon="1.33148">
        <ele>1549</ele>
        <time>2025-09-27T13:18:26.000Z</time>
      </trkpt>
      <trkpt lat="42.8379" lon="1.33145">
        <ele>1549</ele>
        <time>2025-09-27T13:18:27.000Z</time>
      </trkpt>
      <trkpt lat="42.8379" lon="1.33142">
        <ele>1549</ele>
        <time>2025-09-27T13:18:28.000Z</time>
      </trkpt>
      <trkpt lat="42.83791" lon="1.33139">
        <ele>1548</ele>
        <time>2025-09-27T13:18:29.000Z</time>
      </trkpt>
      <trkpt lat="42.83792" lon="1.33137">
        <ele>1548</ele>
        <time>2025-09-27T13:18:30.000Z</time>
      </trkpt>
      <trkpt lat="42.83794" lon="1.33135">
        <ele>1548</ele>
        <time>2025-09-27T13:18:31.000Z</time>
      </trkpt>
      <trkpt lat="42.83795" lon="1.33134">
        <ele>1547</ele>
        <time>2025-09-27T13:18:32.000Z</time>
      </trkpt>
      <trkpt lat="42.83795" lon="1.33132">
        <ele>1546</ele>
        <time>2025-09-27T13:18:33.000Z</time>
      </trkpt>
      <trkpt lat="42.83796" lon="1.33129">
        <ele>1547</ele>
        <time>2025-09-27T13:18:34.000Z</time>
      </trkpt>
      <trkpt lat="42.83799" lon="1.33124">
        <ele>1546</ele>
        <time>2025-09-27T13:18:35.000Z</time>
      </trkpt>
      <trkpt lat="42.83803" lon="1.33121">
        <ele>1546</ele>
        <time>2025-09-27T13:18:36.000Z</time>
      </trkpt>
      <trkpt lat="42.83805" lon="1.33118">
        <ele>1545</ele>
        <time>2025-09-27T13:18:37.000Z</time>
      </trkpt>
      <trkpt lat="42.83806" lon="1.33116">
        <ele>1545</ele>
        <time>2025-09-27T13:18:38.000Z</time>
      </trkpt>
      <trkpt lat="42.83806" lon="1.33116">
        <ele>1545</ele>
        <time>2025-09-27T13:18:39.000Z</time>
      </trkpt>
      <trkpt lat="42.83806" lon="1.33115">
        <ele>1545</ele>
        <time>2025-09-27T13:18:40.000Z</time>
      </trkpt>
      <trkpt lat="42.83806" lon="1.33115">
        <ele>1545</ele>
        <time>2025-09-27T13:18:41.000Z</time>
      </trkpt>
      <trkpt lat="42.83806" lon="1.33115">
        <ele>1545</ele>
        <time>2025-09-27T13:18:42.000Z</time>
      </trkpt>
      <trkpt lat="42.83807" lon="1.33114">
        <ele>1545</ele>
        <time>2025-09-27T13:18:43.000Z</time>
      </trkpt>
      <trkpt lat="42.83808" lon="1.33113">
        <ele>1545</ele>
        <time>2025-09-27T13:18:44.000Z</time>
      </trkpt>
      <trkpt lat="42.83809" lon="1.33113">
        <ele>1545</ele>
        <time>2025-09-27T13:18:45.000Z</time>
      </trkpt>
      <trkpt lat="42.83809" lon="1.33111">
        <ele>1545</ele>
        <time>2025-09-27T13:18:46.000Z</time>
      </trkpt>
      <trkpt lat="42.83811" lon="1.33109">
        <ele>1545</ele>
        <time>2025-09-27T13:18:47.000Z</time>
      </trkpt>
      <trkpt lat="42.83811" lon="1.33108">
        <ele>1544</ele>
        <time>2025-09-27T13:18:48.000Z</time>
      </trkpt>
      <trkpt lat="42.83812" lon="1.33108">
        <ele>1544</ele>
        <time>2025-09-27T13:18:49.000Z</time>
      </trkpt>
      <trkpt lat="42.83812" lon="1.33108">
        <ele>1544</ele>
        <time>2025-09-27T13:18:50.000Z</time>
      </trkpt>
      <trkpt lat="42.83812" lon="1.33108">
        <ele>1544</ele>
        <time>2025-09-27T13:18:51.000Z</time>
      </trkpt>
      <trkpt lat="42.83812" lon="1.33107">
        <ele>1544</ele>
        <time>2025-09-27T13:18:52.000Z</time>
      </trkpt>
      <trkpt lat="42.83813" lon="1.33106">
        <ele>1544</ele>
        <time>2025-09-27T13:18:53.000Z</time>
      </trkpt>
      <trkpt lat="42.83814" lon="1.33105">
        <ele>1544</ele>
        <time>2025-09-27T13:18:54.000Z</time>
      </trkpt>
      <trkpt lat="42.83815" lon="1.33104">
        <ele>1544</ele>
        <time>2025-09-27T13:18:55.000Z</time>
      </trkpt>
      <trkpt lat="42.83815" lon="1.33104">
        <ele>1544</ele>
        <time>2025-09-27T13:18:56.000Z</time>
      </trkpt>
      <trkpt lat="42.83815" lon="1.33103">
        <ele>1543</ele>
        <time>2025-09-27T13:18:57.000Z</time>
      </trkpt>
      <trkpt lat="42.83815" lon="1.33102">
        <ele>1544</ele>
        <time>2025-09-27T13:18:58.000Z</time>
      </trkpt>
      <trkpt lat="42.83815" lon="1.33101">
        <ele>1544</ele>
        <time>2025-09-27T13:18:59.000Z</time>
      </trkpt>
      <trkpt lat="42.83815" lon="1.33099">
        <ele>1544</ele>
        <time>2025-09-27T13:19:00.000Z</time>
      </trkpt>
      <trkpt lat="42.83816" lon="1.33097">
        <ele>1544</ele>
        <time>2025-09-27T13:19:01.000Z</time>
      </trkpt>
      <trkpt lat="42.83818" lon="1.33095">
        <ele>1544</ele>
        <time>2025-09-27T13:19:02.000Z</time>
      </trkpt>
      <trkpt lat="42.83819" lon="1.33093">
        <ele>1544</ele>
        <time>2025-09-27T13:19:03.000Z</time>
      </trkpt>
      <trkpt lat="42.8382" lon="1.3309">
        <ele>1544</ele>
        <time>2025-09-27T13:19:04.000Z</time>
      </trkpt>
      <trkpt lat="42.83821" lon="1.33088">
        <ele>1544</ele>
        <time>2025-09-27T13:19:05.000Z</time>
      </trkpt>
      <trkpt lat="42.83822" lon="1.33085">
        <ele>1544</ele>
        <time>2025-09-27T13:19:06.000Z</time>
      </trkpt>
      <trkpt lat="42.83823" lon="1.33081">
        <ele>1543</ele>
        <time>2025-09-27T13:19:07.000Z</time>
      </trkpt>
      <trkpt lat="42.83825" lon="1.33076">
        <ele>1543</ele>
        <time>2025-09-27T13:19:08.000Z</time>
      </trkpt>
      <trkpt lat="42.83827" lon="1.3307">
        <ele>1544</ele>
        <time>2025-09-27T13:19:09.000Z</time>
      </trkpt>
      <trkpt lat="42.8383" lon="1.33065">
        <ele>1544</ele>
        <time>2025-09-27T13:19:10.000Z</time>
      </trkpt>
      <trkpt lat="42.83832" lon="1.3306">
        <ele>1544</ele>
        <time>2025-09-27T13:19:11.000Z</time>
      </trkpt>
      <trkpt lat="42.83833" lon="1.33056">
        <ele>1544</ele>
        <time>2025-09-27T13:19:12.000Z</time>
      </trkpt>
      <trkpt lat="42.83834" lon="1.33053">
        <ele>1544</ele>
        <time>2025-09-27T13:19:13.000Z</time>
      </trkpt>
      <trkpt lat="42.83835" lon="1.33051">
        <ele>1543</ele>
        <time>2025-09-27T13:19:14.000Z</time>
      </trkpt>
      <trkpt lat="42.83836" lon="1.33049">
        <ele>1543</ele>
        <time>2025-09-27T13:19:15.000Z</time>
      </trkpt>
      <trkpt lat="42.83838" lon="1.33047">
        <ele>1543</ele>
        <time>2025-09-27T13:19:16.000Z</time>
      </trkpt>
      <trkpt lat="42.83838" lon="1.33045">
        <ele>1543</ele>
        <time>2025-09-27T13:19:17.000Z</time>
      </trkpt>
      <trkpt lat="42.83839" lon="1.33042">
        <ele>1543</ele>
        <time>2025-09-27T13:19:18.000Z</time>
      </trkpt>
      <trkpt lat="42.83839" lon="1.33038">
        <ele>1542</ele>
        <time>2025-09-27T13:19:19.000Z</time>
      </trkpt>
      <trkpt lat="42.8384" lon="1.33035">
        <ele>1542</ele>
        <time>2025-09-27T13:19:20.000Z</time>
      </trkpt>
      <trkpt lat="42.8384" lon="1.33033">
        <ele>1541</ele>
        <time>2025-09-27T13:19:21.000Z</time>
      </trkpt>
      <trkpt lat="42.8384" lon="1.33032">
        <ele>1541</ele>
        <time>2025-09-27T13:19:22.000Z</time>
      </trkpt>
      <trkpt lat="42.83841" lon="1.3303">
        <ele>1541</ele>
        <time>2025-09-27T13:19:23.000Z</time>
      </trkpt>
      <trkpt lat="42.83841" lon="1.33029">
        <ele>1540</ele>
        <time>2025-09-27T13:19:24.000Z</time>
      </trkpt>
      <trkpt lat="42.83841" lon="1.33027">
        <ele>1540</ele>
        <time>2025-09-27T13:19:39.000Z</time>
      </trkpt>
      <trkpt lat="42.83841" lon="1.33026">
        <ele>1540</ele>
        <time>2025-09-27T13:19:40.000Z</time>
      </trkpt>
      <trkpt lat="42.8384" lon="1.33025">
        <ele>1539</ele>
        <time>2025-09-27T13:19:41.000Z</time>
      </trkpt>
      <trkpt lat="42.83841" lon="1.33022">
        <ele>1540</ele>
        <time>2025-09-27T13:19:42.000Z</time>
      </trkpt>
      <trkpt lat="42.8384" lon="1.3302">
        <ele>1540</ele>
        <time>2025-09-27T13:19:43.000Z</time>
      </trkpt>
      <trkpt lat="42.8384" lon="1.33017">
        <ele>1539</ele>
        <time>2025-09-27T13:19:44.000Z</time>
      </trkpt>
      <trkpt lat="42.83841" lon="1.33013">
        <ele>1539</ele>
        <time>2025-09-27T13:19:45.000Z</time>
      </trkpt>
      <trkpt lat="42.83842" lon="1.3301">
        <ele>1539</ele>
        <time>2025-09-27T13:19:46.000Z</time>
      </trkpt>
      <trkpt lat="42.83841" lon="1.33007">
        <ele>1538</ele>
        <time>2025-09-27T13:19:47.000Z</time>
      </trkpt>
      <trkpt lat="42.83841" lon="1.33004">
        <ele>1538</ele>
        <time>2025-09-27T13:19:48.000Z</time>
      </trkpt>
      <trkpt lat="42.83841" lon="1.33001">
        <ele>1538</ele>
        <time>2025-09-27T13:19:49.000Z</time>
      </trkpt>
      <trkpt lat="42.83841" lon="1.32996">
        <ele>1538</ele>
        <time>2025-09-27T13:19:50.000Z</time>
      </trkpt>
      <trkpt lat="42.83842" lon="1.32992">
        <ele>1538</ele>
        <time>2025-09-27T13:19:51.000Z</time>
      </trkpt>
      <trkpt lat="42.83842" lon="1.32989">
        <ele>1538</ele>
        <time>2025-09-27T13:19:52.000Z</time>
      </trkpt>
      <trkpt lat="42.83841" lon="1.32986">
        <ele>1538</ele>
        <time>2025-09-27T13:19:53.000Z</time>
      </trkpt>
      <trkpt lat="42.83842" lon="1.32984">
        <ele>1538</ele>
        <time>2025-09-27T13:19:54.000Z</time>
      </trkpt>
      <trkpt lat="42.83842" lon="1.32983">
        <ele>1538</ele>
        <time>2025-09-27T13:19:55.000Z</time>
      </trkpt>
      <trkpt lat="42.83842" lon="1.32982">
        <ele>1538</ele>
        <time>2025-09-27T13:19:56.000Z</time>
      </trkpt>
      <trkpt lat="42.83842" lon="1.32981">
        <ele>1538</ele>
        <time>2025-09-27T13:19:57.000Z</time>
      </trkpt>
      <trkpt lat="42.83842" lon="1.3298">
        <ele>1538</ele>
        <time>2025-09-27T13:19:58.000Z</time>
      </trkpt>
      <trkpt lat="42.83843" lon="1.3298">
        <ele>1538</ele>
        <time>2025-09-27T13:19:59.000Z</time>
      </trkpt>
      <trkpt lat="42.83844" lon="1.32978">
        <ele>1538</ele>
        <time>2025-09-27T13:20:00.000Z</time>
      </trkpt>
      <trkpt lat="42.83844" lon="1.32977">
        <ele>1537</ele>
        <time>2025-09-27T13:20:01.000Z</time>
      </trkpt>
      <trkpt lat="42.83844" lon="1.32976">
        <ele>1537</ele>
        <time>2025-09-27T13:20:02.000Z</time>
      </trkpt>
      <trkpt lat="42.83845" lon="1.32974">
        <ele>1538</ele>
        <time>2025-09-27T13:20:03.000Z</time>
      </trkpt>
      <trkpt lat="42.83845" lon="1.32973">
        <ele>1538</ele>
        <time>2025-09-27T13:20:04.000Z</time>
      </trkpt>
      <trkpt lat="42.83846" lon="1.32972">
        <ele>1538</ele>
        <time>2025-09-27T13:20:05.000Z</time>
      </trkpt>
      <trkpt lat="42.83846" lon="1.32972">
        <ele>1538</ele>
        <time>2025-09-27T13:20:06.000Z</time>
      </trkpt>
      <trkpt lat="42.83846" lon="1.32971">
        <ele>1538</ele>
        <time>2025-09-27T13:20:07.000Z</time>
      </trkpt>
      <trkpt lat="42.83846" lon="1.3297">
        <ele>1538</ele>
        <time>2025-09-27T13:20:08.000Z</time>
      </trkpt>
      <trkpt lat="42.83847" lon="1.32968">
        <ele>1538</ele>
        <time>2025-09-27T13:20:09.000Z</time>
      </trkpt>
      <trkpt lat="42.83847" lon="1.32966">
        <ele>1537</ele>
        <time>2025-09-27T13:20:10.000Z</time>
      </trkpt>
      <trkpt lat="42.83848" lon="1.32966">
        <ele>1537</ele>
        <time>2025-09-27T13:20:11.000Z</time>
      </trkpt>
      <trkpt lat="42.83848" lon="1.32966">
        <ele>1537</ele>
        <time>2025-09-27T13:20:12.000Z</time>
      </trkpt>
      <trkpt lat="42.83848" lon="1.32965">
        <ele>1537</ele>
        <time>2025-09-27T13:20:13.000Z</time>
      </trkpt>
      <trkpt lat="42.83848" lon="1.32963">
        <ele>1537</ele>
        <time>2025-09-27T13:20:14.000Z</time>
      </trkpt>
      <trkpt lat="42.83848" lon="1.32963">
        <ele>1537</ele>
        <time>2025-09-27T13:20:15.000Z</time>
      </trkpt>
      <trkpt lat="42.83848" lon="1.32962">
        <ele>1537</ele>
        <time>2025-09-27T13:20:16.000Z</time>
      </trkpt>
      <trkpt lat="42.83849" lon="1.32962">
        <ele>1537</ele>
        <time>2025-09-27T13:20:17.000Z</time>
      </trkpt>
      <trkpt lat="42.83849" lon="1.3296">
        <ele>1536</ele>
        <time>2025-09-27T13:20:18.000Z</time>
      </trkpt>
      <trkpt lat="42.83849" lon="1.32959">
        <ele>1537</ele>
        <time>2025-09-27T13:20:19.000Z</time>
      </trkpt>
      <trkpt lat="42.83849" lon="1.32959">
        <ele>1538</ele>
        <time>2025-09-27T13:20:20.000Z</time>
      </trkpt>
      <trkpt lat="42.83849" lon="1.32959">
        <ele>1537</ele>
        <time>2025-09-27T13:20:21.000Z</time>
      </trkpt>
      <trkpt lat="42.83849" lon="1.32959">
        <ele>1537</ele>
        <time>2025-09-27T13:20:22.000Z</time>
      </trkpt>
      <trkpt lat="42.83849" lon="1.32958">
        <ele>1537</ele>
        <time>2025-09-27T13:20:23.000Z</time>
      </trkpt>
      <trkpt lat="42.83849" lon="1.32956">
        <ele>1536</ele>
        <time>2025-09-27T13:20:24.000Z</time>
      </trkpt>
      <trkpt lat="42.83848" lon="1.32953">
        <ele>1536</ele>
        <time>2025-09-27T13:20:25.000Z</time>
      </trkpt>
      <trkpt lat="42.83848" lon="1.32951">
        <ele>1536</ele>
        <time>2025-09-27T13:20:26.000Z</time>
      </trkpt>
      <trkpt lat="42.83848" lon="1.32948">
        <ele>1536</ele>
        <time>2025-09-27T13:20:27.000Z</time>
      </trkpt>
      <trkpt lat="42.83848" lon="1.32947">
        <ele>1536</ele>
        <time>2025-09-27T13:20:28.000Z</time>
      </trkpt>
      <trkpt lat="42.83849" lon="1.32946">
        <ele>1536</ele>
        <time>2025-09-27T13:20:29.000Z</time>
      </trkpt>
      <trkpt lat="42.8385" lon="1.32945">
        <ele>1536</ele>
        <time>2025-09-27T13:20:30.000Z</time>
      </trkpt>
      <trkpt lat="42.8385" lon="1.32945">
        <ele>1535</ele>
        <time>2025-09-27T13:20:31.000Z</time>
      </trkpt>
      <trkpt lat="42.8385" lon="1.32944">
        <ele>1535</ele>
        <time>2025-09-27T13:20:32.000Z</time>
      </trkpt>
      <trkpt lat="42.8385" lon="1.32943">
        <ele>1535</ele>
        <time>2025-09-27T13:20:33.000Z</time>
      </trkpt>
      <trkpt lat="42.8385" lon="1.32941">
        <ele>1535</ele>
        <time>2025-09-27T13:20:34.000Z</time>
      </trkpt>
      <trkpt lat="42.8385" lon="1.32938">
        <ele>1535</ele>
        <time>2025-09-27T13:20:35.000Z</time>
      </trkpt>
      <trkpt lat="42.83851" lon="1.32936">
        <ele>1534</ele>
        <time>2025-09-27T13:20:36.000Z</time>
      </trkpt>
      <trkpt lat="42.83851" lon="1.32934">
        <ele>1534</ele>
        <time>2025-09-27T13:20:37.000Z</time>
      </trkpt>
      <trkpt lat="42.83852" lon="1.32931">
        <ele>1534</ele>
        <time>2025-09-27T13:20:38.000Z</time>
      </trkpt>
      <trkpt lat="42.83852" lon="1.32929">
        <ele>1535</ele>
        <time>2025-09-27T13:20:39.000Z</time>
      </trkpt>
      <trkpt lat="42.83851" lon="1.32927">
        <ele>1534</ele>
        <time>2025-09-27T13:20:40.000Z</time>
      </trkpt>
      <trkpt lat="42.83851" lon="1.32924">
        <ele>1535</ele>
        <time>2025-09-27T13:20:41.000Z</time>
      </trkpt>
      <trkpt lat="42.83852" lon="1.32922">
        <ele>1534</ele>
        <time>2025-09-27T13:20:42.000Z</time>
      </trkpt>
      <trkpt lat="42.83853" lon="1.32919">
        <ele>1534</ele>
        <time>2025-09-27T13:20:43.000Z</time>
      </trkpt>
      <trkpt lat="42.83854" lon="1.32916">
        <ele>1534</ele>
        <time>2025-09-27T13:20:44.000Z</time>
      </trkpt>
      <trkpt lat="42.83855" lon="1.32913">
        <ele>1534</ele>
        <time>2025-09-27T13:20:45.000Z</time>
      </trkpt>
      <trkpt lat="42.83856" lon="1.32911">
        <ele>1534</ele>
        <time>2025-09-27T13:20:46.000Z</time>
      </trkpt>
      <trkpt lat="42.83857" lon="1.32908">
        <ele>1533</ele>
        <time>2025-09-27T13:20:47.000Z</time>
      </trkpt>
      <trkpt lat="42.83857" lon="1.32906">
        <ele>1533</ele>
        <time>2025-09-27T13:20:48.000Z</time>
      </trkpt>
      <trkpt lat="42.83857" lon="1.32904">
        <ele>1532</ele>
        <time>2025-09-27T13:20:49.000Z</time>
      </trkpt>
      <trkpt lat="42.83857" lon="1.32901">
        <ele>1532</ele>
        <time>2025-09-27T13:20:50.000Z</time>
      </trkpt>
      <trkpt lat="42.83858" lon="1.32899">
        <ele>1531</ele>
        <time>2025-09-27T13:20:51.000Z</time>
      </trkpt>
      <trkpt lat="42.83859" lon="1.32896">
        <ele>1531</ele>
        <time>2025-09-27T13:20:52.000Z</time>
      </trkpt>
      <trkpt lat="42.8386" lon="1.32893">
        <ele>1531</ele>
        <time>2025-09-27T13:20:53.000Z</time>
      </trkpt>
      <trkpt lat="42.83861" lon="1.32891">
        <ele>1531</ele>
        <time>2025-09-27T13:20:54.000Z</time>
      </trkpt>
      <trkpt lat="42.83861" lon="1.32888">
        <ele>1531</ele>
        <time>2025-09-27T13:20:55.000Z</time>
      </trkpt>
      <trkpt lat="42.83861" lon="1.32885">
        <ele>1530</ele>
        <time>2025-09-27T13:20:56.000Z</time>
      </trkpt>
      <trkpt lat="42.83861" lon="1.32882">
        <ele>1530</ele>
        <time>2025-09-27T13:20:57.000Z</time>
      </trkpt>
      <trkpt lat="42.83861" lon="1.32879">
        <ele>1530</ele>
        <time>2025-09-27T13:20:58.000Z</time>
      </trkpt>
      <trkpt lat="42.83862" lon="1.32876">
        <ele>1531</ele>
        <time>2025-09-27T13:20:59.000Z</time>
      </trkpt>
      <trkpt lat="42.83863" lon="1.32872">
        <ele>1530</ele>
        <time>2025-09-27T13:21:00.000Z</time>
      </trkpt>
      <trkpt lat="42.83864" lon="1.32869">
        <ele>1530</ele>
        <time>2025-09-27T13:21:01.000Z</time>
      </trkpt>
      <trkpt lat="42.83865" lon="1.32867">
        <ele>1529</ele>
        <time>2025-09-27T13:21:02.000Z</time>
      </trkpt>
      <trkpt lat="42.83866" lon="1.32864">
        <ele>1528</ele>
        <time>2025-09-27T13:21:03.000Z</time>
      </trkpt>
      <trkpt lat="42.83867" lon="1.32861">
        <ele>1527</ele>
        <time>2025-09-27T13:21:04.000Z</time>
      </trkpt>
      <trkpt lat="42.83868" lon="1.3286">
        <ele>1526</ele>
        <time>2025-09-27T13:21:05.000Z</time>
      </trkpt>
      <trkpt lat="42.83869" lon="1.32859">
        <ele>1526</ele>
        <time>2025-09-27T13:21:06.000Z</time>
      </trkpt>
      <trkpt lat="42.83869" lon="1.32858">
        <ele>1525</ele>
        <time>2025-09-27T13:21:07.000Z</time>
      </trkpt>
      <trkpt lat="42.8387" lon="1.32856">
        <ele>1524</ele>
        <time>2025-09-27T13:21:08.000Z</time>
      </trkpt>
      <trkpt lat="42.8387" lon="1.32854">
        <ele>1524</ele>
        <time>2025-09-27T13:21:09.000Z</time>
      </trkpt>
      <trkpt lat="42.8387" lon="1.32853">
        <ele>1524</ele>
        <time>2025-09-27T13:21:10.000Z</time>
      </trkpt>
      <trkpt lat="42.8387" lon="1.32852">
        <ele>1525</ele>
        <time>2025-09-27T13:21:11.000Z</time>
      </trkpt>
      <trkpt lat="42.8387" lon="1.32852">
        <ele>1524</ele>
        <time>2025-09-27T13:21:12.000Z</time>
      </trkpt>
      <trkpt lat="42.83871" lon="1.32852">
        <ele>1525</ele>
        <time>2025-09-27T13:21:13.000Z</time>
      </trkpt>
      <trkpt lat="42.83871" lon="1.3285">
        <ele>1525</ele>
        <time>2025-09-27T13:21:14.000Z</time>
      </trkpt>
      <trkpt lat="42.83871" lon="1.32847">
        <ele>1525</ele>
        <time>2025-09-27T13:21:15.000Z</time>
      </trkpt>
      <trkpt lat="42.83872" lon="1.32845">
        <ele>1526</ele>
        <time>2025-09-27T13:21:16.000Z</time>
      </trkpt>
      <trkpt lat="42.83874" lon="1.32844">
        <ele>1525</ele>
        <time>2025-09-27T13:21:17.000Z</time>
      </trkpt>
      <trkpt lat="42.83875" lon="1.32841">
        <ele>1526</ele>
        <time>2025-09-27T13:21:18.000Z</time>
      </trkpt>
      <trkpt lat="42.83877" lon="1.32839">
        <ele>1527</ele>
        <time>2025-09-27T13:21:19.000Z</time>
      </trkpt>
      <trkpt lat="42.83878" lon="1.32837">
        <ele>1526</ele>
        <time>2025-09-27T13:21:20.000Z</time>
      </trkpt>
      <trkpt lat="42.8388" lon="1.32835">
        <ele>1524</ele>
        <time>2025-09-27T13:21:21.000Z</time>
      </trkpt>
      <trkpt lat="42.83881" lon="1.32832">
        <ele>1523</ele>
        <time>2025-09-27T13:21:22.000Z</time>
      </trkpt>
      <trkpt lat="42.83883" lon="1.32831">
        <ele>1524</ele>
        <time>2025-09-27T13:21:23.000Z</time>
      </trkpt>
      <trkpt lat="42.83885" lon="1.32829">
        <ele>1524</ele>
        <time>2025-09-27T13:21:24.000Z</time>
      </trkpt>
      <trkpt lat="42.83887" lon="1.32826">
        <ele>1524</ele>
        <time>2025-09-27T13:21:25.000Z</time>
      </trkpt>
      <trkpt lat="42.83888" lon="1.32824">
        <ele>1523</ele>
        <time>2025-09-27T13:21:26.000Z</time>
      </trkpt>
      <trkpt lat="42.8389" lon="1.32822">
        <ele>1522</ele>
        <time>2025-09-27T13:21:27.000Z</time>
      </trkpt>
      <trkpt lat="42.83893" lon="1.32819">
        <ele>1523</ele>
        <time>2025-09-27T13:21:28.000Z</time>
      </trkpt>
      <trkpt lat="42.83894" lon="1.32816">
        <ele>1522</ele>
        <time>2025-09-27T13:21:29.000Z</time>
      </trkpt>
      <trkpt lat="42.83897" lon="1.32812">
        <ele>1521</ele>
        <time>2025-09-27T13:21:30.000Z</time>
      </trkpt>
      <trkpt lat="42.83899" lon="1.32809">
        <ele>1520</ele>
        <time>2025-09-27T13:21:31.000Z</time>
      </trkpt>
      <trkpt lat="42.83902" lon="1.32805">
        <ele>1519</ele>
        <time>2025-09-27T13:21:32.000Z</time>
      </trkpt>
      <trkpt lat="42.83906" lon="1.32801">
        <ele>1519</ele>
        <time>2025-09-27T13:21:33.000Z</time>
      </trkpt>
      <trkpt lat="42.83908" lon="1.32796">
        <ele>1518</ele>
        <time>2025-09-27T13:21:34.000Z</time>
      </trkpt>
      <trkpt lat="42.83911" lon="1.32793">
        <ele>1517</ele>
        <time>2025-09-27T13:21:35.000Z</time>
      </trkpt>
      <trkpt lat="42.83914" lon="1.32789">
        <ele>1517</ele>
        <time>2025-09-27T13:21:36.000Z</time>
      </trkpt>
      <trkpt lat="42.83919" lon="1.32785">
        <ele>1516</ele>
        <time>2025-09-27T13:21:37.000Z</time>
      </trkpt>
      <trkpt lat="42.83923" lon="1.32781">
        <ele>1514</ele>
        <time>2025-09-27T13:21:38.000Z</time>
      </trkpt>
      <trkpt lat="42.83927" lon="1.32778">
        <ele>1514</ele>
        <time>2025-09-27T13:21:39.000Z</time>
      </trkpt>
      <trkpt lat="42.83932" lon="1.32774">
        <ele>1513</ele>
        <time>2025-09-27T13:21:40.000Z</time>
      </trkpt>
      <trkpt lat="42.83936" lon="1.32771">
        <ele>1512</ele>
        <time>2025-09-27T13:21:41.000Z</time>
      </trkpt>
      <trkpt lat="42.8394" lon="1.32769">
        <ele>1513</ele>
        <time>2025-09-27T13:21:42.000Z</time>
      </trkpt>
      <trkpt lat="42.83944" lon="1.32766">
        <ele>1513</ele>
        <time>2025-09-27T13:21:43.000Z</time>
      </trkpt>
      <trkpt lat="42.83948" lon="1.32764">
        <ele>1514</ele>
        <time>2025-09-27T13:21:44.000Z</time>
      </trkpt>
      <trkpt lat="42.83951" lon="1.32761">
        <ele>1514</ele>
        <time>2025-09-27T13:21:45.000Z</time>
      </trkpt>
      <trkpt lat="42.83955" lon="1.32759">
        <ele>1514</ele>
        <time>2025-09-27T13:21:46.000Z</time>
      </trkpt>
      <trkpt lat="42.8396" lon="1.32757">
        <ele>1511</ele>
        <time>2025-09-27T13:21:47.000Z</time>
      </trkpt>
      <trkpt lat="42.83966" lon="1.32755">
        <ele>1511</ele>
        <time>2025-09-27T13:21:48.000Z</time>
      </trkpt>
      <trkpt lat="42.83972" lon="1.32753">
        <ele>1512</ele>
        <time>2025-09-27T13:21:49.000Z</time>
      </trkpt>
      <trkpt lat="42.83976" lon="1.32751">
        <ele>1511</ele>
        <time>2025-09-27T13:21:50.000Z</time>
      </trkpt>
      <trkpt lat="42.83978" lon="1.3275">
        <ele>1511</ele>
        <time>2025-09-27T13:21:51.000Z</time>
      </trkpt>
      <trkpt lat="42.83981" lon="1.32748">
        <ele>1511</ele>
        <time>2025-09-27T13:21:52.000Z</time>
      </trkpt>
      <trkpt lat="42.83984" lon="1.32746">
        <ele>1511</ele>
        <time>2025-09-27T13:21:53.000Z</time>
      </trkpt>
      <trkpt lat="42.83987" lon="1.32745">
        <ele>1511</ele>
        <time>2025-09-27T13:21:54.000Z</time>
      </trkpt>
      <trkpt lat="42.8399" lon="1.32743">
        <ele>1511</ele>
        <time>2025-09-27T13:21:55.000Z</time>
      </trkpt>
      <trkpt lat="42.83993" lon="1.32741">
        <ele>1511</ele>
        <time>2025-09-27T13:21:56.000Z</time>
      </trkpt>
      <trkpt lat="42.83997" lon="1.32737">
        <ele>1510</ele>
        <time>2025-09-27T13:21:57.000Z</time>
      </trkpt>
      <trkpt lat="42.83999" lon="1.32735">
        <ele>1511</ele>
        <time>2025-09-27T13:21:58.000Z</time>
      </trkpt>
      <trkpt lat="42.84003" lon="1.32733">
        <ele>1511</ele>
        <time>2025-09-27T13:21:59.000Z</time>
      </trkpt>
      <trkpt lat="42.84005" lon="1.32732">
        <ele>1511</ele>
        <time>2025-09-27T13:22:00.000Z</time>
      </trkpt>
      <trkpt lat="42.84009" lon="1.3273">
        <ele>1510</ele>
        <time>2025-09-27T13:22:01.000Z</time>
      </trkpt>
      <trkpt lat="42.84013" lon="1.32728">
        <ele>1510</ele>
        <time>2025-09-27T13:22:02.000Z</time>
      </trkpt>
      <trkpt lat="42.84017" lon="1.32727">
        <ele>1510</ele>
        <time>2025-09-27T13:22:03.000Z</time>
      </trkpt>
      <trkpt lat="42.8402" lon="1.32724">
        <ele>1510</ele>
        <time>2025-09-27T13:22:04.000Z</time>
      </trkpt>
      <trkpt lat="42.84023" lon="1.32721">
        <ele>1510</ele>
        <time>2025-09-27T13:22:05.000Z</time>
      </trkpt>
      <trkpt lat="42.84025" lon="1.32717">
        <ele>1510</ele>
        <time>2025-09-27T13:22:06.000Z</time>
      </trkpt>
      <trkpt lat="42.8403" lon="1.32713">
        <ele>1510</ele>
        <time>2025-09-27T13:22:07.000Z</time>
      </trkpt>
      <trkpt lat="42.84034" lon="1.32709">
        <ele>1510</ele>
        <time>2025-09-27T13:22:08.000Z</time>
      </trkpt>
      <trkpt lat="42.8404" lon="1.32706">
        <ele>1509</ele>
        <time>2025-09-27T13:22:09.000Z</time>
      </trkpt>
      <trkpt lat="42.84046" lon="1.32701">
        <ele>1508</ele>
        <time>2025-09-27T13:22:10.000Z</time>
      </trkpt>
      <trkpt lat="42.84051" lon="1.32696">
        <ele>1507</ele>
        <time>2025-09-27T13:22:11.000Z</time>
      </trkpt>
      <trkpt lat="42.84054" lon="1.3269">
        <ele>1506</ele>
        <time>2025-09-27T13:22:12.000Z</time>
      </trkpt>
      <trkpt lat="42.84056" lon="1.32686">
        <ele>1505</ele>
        <time>2025-09-27T13:22:13.000Z</time>
      </trkpt>
      <trkpt lat="42.8406" lon="1.3268">
        <ele>1505</ele>
        <time>2025-09-27T13:22:14.000Z</time>
      </trkpt>
      <trkpt lat="42.84064" lon="1.32674">
        <ele>1505</ele>
        <time>2025-09-27T13:22:15.000Z</time>
      </trkpt>
      <trkpt lat="42.84069" lon="1.32668">
        <ele>1505</ele>
        <time>2025-09-27T13:22:16.000Z</time>
      </trkpt>
      <trkpt lat="42.84076" lon="1.32663">
        <ele>1505</ele>
        <time>2025-09-27T13:22:17.000Z</time>
      </trkpt>
      <trkpt lat="42.84082" lon="1.32656">
        <ele>1506</ele>
        <time>2025-09-27T13:22:18.000Z</time>
      </trkpt>
      <trkpt lat="42.84086" lon="1.32649">
        <ele>1507</ele>
        <time>2025-09-27T13:22:19.000Z</time>
      </trkpt>
      <trkpt lat="42.84089" lon="1.32645">
        <ele>1506</ele>
        <time>2025-09-27T13:22:20.000Z</time>
      </trkpt>
      <trkpt lat="42.84094" lon="1.32641">
        <ele>1507</ele>
        <time>2025-09-27T13:22:21.000Z</time>
      </trkpt>
      <trkpt lat="42.84099" lon="1.32637">
        <ele>1507</ele>
        <time>2025-09-27T13:22:22.000Z</time>
      </trkpt>
      <trkpt lat="42.84102" lon="1.32633">
        <ele>1508</ele>
        <time>2025-09-27T13:22:23.000Z</time>
      </trkpt>
      <trkpt lat="42.84105" lon="1.3263">
        <ele>1508</ele>
        <time>2025-09-27T13:22:24.000Z</time>
      </trkpt>
      <trkpt lat="42.84109" lon="1.32629">
        <ele>1509</ele>
        <time>2025-09-27T13:22:25.000Z</time>
      </trkpt>
      <trkpt lat="42.84112" lon="1.32628">
        <ele>1508</ele>
        <time>2025-09-27T13:22:26.000Z</time>
      </trkpt>
      <trkpt lat="42.84116" lon="1.32628">
        <ele>1508</ele>
        <time>2025-09-27T13:22:27.000Z</time>
      </trkpt>
      <trkpt lat="42.84119" lon="1.32629">
        <ele>1507</ele>
        <time>2025-09-27T13:22:28.000Z</time>
      </trkpt>
      <trkpt lat="42.8412" lon="1.3263">
        <ele>1507</ele>
        <time>2025-09-27T13:22:29.000Z</time>
      </trkpt>
      <trkpt lat="42.84122" lon="1.32631">
        <ele>1507</ele>
        <time>2025-09-27T13:22:30.000Z</time>
      </trkpt>
      <trkpt lat="42.84124" lon="1.32633">
        <ele>1507</ele>
        <time>2025-09-27T13:22:31.000Z</time>
      </trkpt>
      <trkpt lat="42.84126" lon="1.32635">
        <ele>1506</ele>
        <time>2025-09-27T13:22:32.000Z</time>
      </trkpt>
      <trkpt lat="42.84127" lon="1.32638">
        <ele>1505</ele>
        <time>2025-09-27T13:22:33.000Z</time>
      </trkpt>
      <trkpt lat="42.84129" lon="1.3264">
        <ele>1505</ele>
        <time>2025-09-27T13:22:34.000Z</time>
      </trkpt>
      <trkpt lat="42.84131" lon="1.32644">
        <ele>1504</ele>
        <time>2025-09-27T13:22:35.000Z</time>
      </trkpt>
      <trkpt lat="42.84133" lon="1.32647">
        <ele>1503</ele>
        <time>2025-09-27T13:22:36.000Z</time>
      </trkpt>
      <trkpt lat="42.84134" lon="1.3265">
        <ele>1503</ele>
        <time>2025-09-27T13:22:37.000Z</time>
      </trkpt>
      <trkpt lat="42.84136" lon="1.32655">
        <ele>1502</ele>
        <time>2025-09-27T13:22:38.000Z</time>
      </trkpt>
      <trkpt lat="42.84138" lon="1.32659">
        <ele>1501</ele>
        <time>2025-09-27T13:22:39.000Z</time>
      </trkpt>
      <trkpt lat="42.84139" lon="1.32662">
        <ele>1501</ele>
        <time>2025-09-27T13:22:40.000Z</time>
      </trkpt>
      <trkpt lat="42.84141" lon="1.32665">
        <ele>1500</ele>
        <time>2025-09-27T13:22:41.000Z</time>
      </trkpt>
      <trkpt lat="42.84142" lon="1.32668">
        <ele>1498</ele>
        <time>2025-09-27T13:22:42.000Z</time>
      </trkpt>
      <trkpt lat="42.84145" lon="1.32672">
        <ele>1497</ele>
        <time>2025-09-27T13:22:43.000Z</time>
      </trkpt>
      <trkpt lat="42.84147" lon="1.32675">
        <ele>1497</ele>
        <time>2025-09-27T13:22:44.000Z</time>
      </trkpt>
      <trkpt lat="42.84149" lon="1.3268">
        <ele>1496</ele>
        <time>2025-09-27T13:22:45.000Z</time>
      </trkpt>
      <trkpt lat="42.84151" lon="1.32684">
        <ele>1495</ele>
        <time>2025-09-27T13:22:46.000Z</time>
      </trkpt>
      <trkpt lat="42.84153" lon="1.32688">
        <ele>1495</ele>
        <time>2025-09-27T13:22:47.000Z</time>
      </trkpt>
      <trkpt lat="42.84156" lon="1.32692">
        <ele>1494</ele>
        <time>2025-09-27T13:22:48.000Z</time>
      </trkpt>
      <trkpt lat="42.84159" lon="1.32696">
        <ele>1493</ele>
        <time>2025-09-27T13:22:49.000Z</time>
      </trkpt>
      <trkpt lat="42.84162" lon="1.327">
        <ele>1491</ele>
        <time>2025-09-27T13:22:50.000Z</time>
      </trkpt>
      <trkpt lat="42.84164" lon="1.32705">
        <ele>1490</ele>
        <time>2025-09-27T13:22:51.000Z</time>
      </trkpt>
      <trkpt lat="42.84166" lon="1.32709">
        <ele>1488</ele>
        <time>2025-09-27T13:22:52.000Z</time>
      </trkpt>
      <trkpt lat="42.84169" lon="1.32713">
        <ele>1486</ele>
        <time>2025-09-27T13:22:53.000Z</time>
      </trkpt>
      <trkpt lat="42.84171" lon="1.32718">
        <ele>1485</ele>
        <time>2025-09-27T13:22:54.000Z</time>
      </trkpt>
      <trkpt lat="42.84172" lon="1.32722">
        <ele>1484</ele>
        <time>2025-09-27T13:22:55.000Z</time>
      </trkpt>
      <trkpt lat="42.84173" lon="1.32727">
        <ele>1483</ele>
        <time>2025-09-27T13:22:56.000Z</time>
      </trkpt>
      <trkpt lat="42.84173" lon="1.32732">
        <ele>1483</ele>
        <time>2025-09-27T13:22:57.000Z</time>
      </trkpt>
      <trkpt lat="42.84173" lon="1.32736">
        <ele>1482</ele>
        <time>2025-09-27T13:22:58.000Z</time>
      </trkpt>
      <trkpt lat="42.84174" lon="1.3274">
        <ele>1482</ele>
        <time>2025-09-27T13:22:59.000Z</time>
      </trkpt>
      <trkpt lat="42.84175" lon="1.32745">
        <ele>1481</ele>
        <time>2025-09-27T13:23:00.000Z</time>
      </trkpt>
      <trkpt lat="42.84175" lon="1.32752">
        <ele>1481</ele>
        <time>2025-09-27T13:23:01.000Z</time>
      </trkpt>
      <trkpt lat="42.84176" lon="1.32758">
        <ele>1480</ele>
        <time>2025-09-27T13:23:02.000Z</time>
      </trkpt>
      <trkpt lat="42.84174" lon="1.32767">
        <ele>1479</ele>
        <time>2025-09-27T13:23:03.000Z</time>
      </trkpt>
      <trkpt lat="42.84174" lon="1.32774">
        <ele>1479</ele>
        <time>2025-09-27T13:23:04.000Z</time>
      </trkpt>
      <trkpt lat="42.84174" lon="1.3278">
        <ele>1479</ele>
        <time>2025-09-27T13:23:05.000Z</time>
      </trkpt>
      <trkpt lat="42.84173" lon="1.32787">
        <ele>1478</ele>
        <time>2025-09-27T13:23:06.000Z</time>
      </trkpt>
      <trkpt lat="42.84173" lon="1.32793">
        <ele>1478</ele>
        <time>2025-09-27T13:23:07.000Z</time>
      </trkpt>
      <trkpt lat="42.84173" lon="1.328">
        <ele>1478</ele>
        <time>2025-09-27T13:23:08.000Z</time>
      </trkpt>
      <trkpt lat="42.84172" lon="1.32807">
        <ele>1477</ele>
        <time>2025-09-27T13:23:09.000Z</time>
      </trkpt>
      <trkpt lat="42.84171" lon="1.32813">
        <ele>1476</ele>
        <time>2025-09-27T13:23:10.000Z</time>
      </trkpt>
      <trkpt lat="42.8417" lon="1.32819">
        <ele>1477</ele>
        <time>2025-09-27T13:23:11.000Z</time>
      </trkpt>
      <trkpt lat="42.84171" lon="1.32825">
        <ele>1476</ele>
        <time>2025-09-27T13:23:12.000Z</time>
      </trkpt>
      <trkpt lat="42.84172" lon="1.3283">
        <ele>1476</ele>
        <time>2025-09-27T13:23:13.000Z</time>
      </trkpt>
      <trkpt lat="42.84173" lon="1.32838">
        <ele>1476</ele>
        <time>2025-09-27T13:23:14.000Z</time>
      </trkpt>
      <trkpt lat="42.84175" lon="1.32844">
        <ele>1476</ele>
        <time>2025-09-27T13:23:15.000Z</time>
      </trkpt>
      <trkpt lat="42.84179" lon="1.32849">
        <ele>1477</ele>
        <time>2025-09-27T13:23:16.000Z</time>
      </trkpt>
      <trkpt lat="42.84182" lon="1.32852">
        <ele>1477</ele>
        <time>2025-09-27T13:23:17.000Z</time>
      </trkpt>
      <trkpt lat="42.84183" lon="1.32853">
        <ele>1477</ele>
        <time>2025-09-27T13:23:18.000Z</time>
      </trkpt>
      <trkpt lat="42.84183" lon="1.32853">
        <ele>1477</ele>
        <time>2025-09-27T13:23:19.000Z</time>
      </trkpt>
      <trkpt lat="42.84183" lon="1.32853">
        <ele>1477</ele>
        <time>2025-09-27T13:23:20.000Z</time>
      </trkpt>
      <trkpt lat="42.84183" lon="1.32853">
        <ele>1477</ele>
        <time>2025-09-27T13:23:21.000Z</time>
      </trkpt>
      <trkpt lat="42.84184" lon="1.32855">
        <ele>1478</ele>
        <time>2025-09-27T13:23:22.000Z</time>
      </trkpt>
      <trkpt lat="42.84184" lon="1.32855">
        <ele>1478</ele>
        <time>2025-09-27T13:23:23.000Z</time>
      </trkpt>
      <trkpt lat="42.84185" lon="1.32855">
        <ele>1478</ele>
        <time>2025-09-27T13:23:24.000Z</time>
      </trkpt>
      <trkpt lat="42.84186" lon="1.32859">
        <ele>1476</ele>
        <time>2025-09-27T13:25:10.000Z</time>
      </trkpt>
      <trkpt lat="42.84188" lon="1.32862">
        <ele>1475</ele>
        <time>2025-09-27T13:25:11.000Z</time>
      </trkpt>
      <trkpt lat="42.8419" lon="1.32865">
        <ele>1475</ele>
        <time>2025-09-27T13:25:12.000Z</time>
      </trkpt>
      <trkpt lat="42.84191" lon="1.32869">
        <ele>1475</ele>
        <time>2025-09-27T13:25:13.000Z</time>
      </trkpt>
      <trkpt lat="42.84191" lon="1.32873">
        <ele>1475</ele>
        <time>2025-09-27T13:25:14.000Z</time>
      </trkpt>
      <trkpt lat="42.84193" lon="1.32876">
        <ele>1475</ele>
        <time>2025-09-27T13:25:15.000Z</time>
      </trkpt>
      <trkpt lat="42.84193" lon="1.3288">
        <ele>1475</ele>
        <time>2025-09-27T13:25:16.000Z</time>
      </trkpt>
      <trkpt lat="42.84193" lon="1.32885">
        <ele>1475</ele>
        <time>2025-09-27T13:25:17.000Z</time>
      </trkpt>
      <trkpt lat="42.84193" lon="1.3289">
        <ele>1475</ele>
        <time>2025-09-27T13:25:18.000Z</time>
      </trkpt>
      <trkpt lat="42.84194" lon="1.32894">
        <ele>1474</ele>
        <time>2025-09-27T13:25:19.000Z</time>
      </trkpt>
      <trkpt lat="42.84195" lon="1.32897">
        <ele>1474</ele>
        <time>2025-09-27T13:25:20.000Z</time>
      </trkpt>
      <trkpt lat="42.84195" lon="1.329">
        <ele>1474</ele>
        <time>2025-09-27T13:25:21.000Z</time>
      </trkpt>
      <trkpt lat="42.84196" lon="1.32901">
        <ele>1474</ele>
        <time>2025-09-27T13:25:22.000Z</time>
      </trkpt>
      <trkpt lat="42.84196" lon="1.32903">
        <ele>1475</ele>
        <time>2025-09-27T13:25:23.000Z</time>
      </trkpt>
      <trkpt lat="42.84198" lon="1.32904">
        <ele>1475</ele>
        <time>2025-09-27T13:25:24.000Z</time>
      </trkpt>
      <trkpt lat="42.84198" lon="1.32904">
        <ele>1475</ele>
        <time>2025-09-27T13:25:25.000Z</time>
      </trkpt>
      <trkpt lat="42.84199" lon="1.32903">
        <ele>1475</ele>
        <time>2025-09-27T13:25:26.000Z</time>
      </trkpt>
      <trkpt lat="42.842" lon="1.32903">
        <ele>1475</ele>
        <time>2025-09-27T13:25:27.000Z</time>
      </trkpt>
      <trkpt lat="42.84201" lon="1.32903">
        <ele>1475</ele>
        <time>2025-09-27T13:25:28.000Z</time>
      </trkpt>
      <trkpt lat="42.84201" lon="1.32903">
        <ele>1475</ele>
        <time>2025-09-27T13:25:29.000Z</time>
      </trkpt>
      <trkpt lat="42.84201" lon="1.32903">
        <ele>1475</ele>
        <time>2025-09-27T13:25:30.000Z</time>
      </trkpt>
      <trkpt lat="42.84201" lon="1.32903">
        <ele>1475</ele>
        <time>2025-09-27T13:25:31.000Z</time>
      </trkpt>
      <trkpt lat="42.84202" lon="1.32903">
        <ele>1475</ele>
        <time>2025-09-27T13:25:32.000Z</time>
      </trkpt>
      <trkpt lat="42.84202" lon="1.32903">
        <ele>1475</ele>
        <time>2025-09-27T13:25:33.000Z</time>
      </trkpt>
      <trkpt lat="42.84203" lon="1.32902">
        <ele>1475</ele>
        <time>2025-09-27T13:25:34.000Z</time>
      </trkpt>
      <trkpt lat="42.84204" lon="1.32901">
        <ele>1475</ele>
        <time>2025-09-27T13:25:35.000Z</time>
      </trkpt>
      <trkpt lat="42.84204" lon="1.32902">
        <ele>1476</ele>
        <time>2025-09-27T13:25:36.000Z</time>
      </trkpt>
      <trkpt lat="42.84205" lon="1.32902">
        <ele>1476</ele>
        <time>2025-09-27T13:25:37.000Z</time>
      </trkpt>
      <trkpt lat="42.84206" lon="1.32902">
        <ele>1475</ele>
        <time>2025-09-27T13:25:38.000Z</time>
      </trkpt>
      <trkpt lat="42.84207" lon="1.32902">
        <ele>1475</ele>
        <time>2025-09-27T13:25:39.000Z</time>
      </trkpt>
      <trkpt lat="42.84208" lon="1.32902">
        <ele>1475</ele>
        <time>2025-09-27T13:25:40.000Z</time>
      </trkpt>
      <trkpt lat="42.84209" lon="1.32902">
        <ele>1475</ele>
        <time>2025-09-27T13:25:41.000Z</time>
      </trkpt>
      <trkpt lat="42.84209" lon="1.32901">
        <ele>1475</ele>
        <time>2025-09-27T13:25:42.000Z</time>
      </trkpt>
      <trkpt lat="42.84209" lon="1.329">
        <ele>1475</ele>
        <time>2025-09-27T13:25:43.000Z</time>
      </trkpt>
      <trkpt lat="42.84209" lon="1.329">
        <ele>1475</ele>
        <time>2025-09-27T13:25:44.000Z</time>
      </trkpt>
      <trkpt lat="42.8421" lon="1.32901">
        <ele>1475</ele>
        <time>2025-09-27T13:25:45.000Z</time>
      </trkpt>
      <trkpt lat="42.84211" lon="1.32902">
        <ele>1474</ele>
        <time>2025-09-27T13:25:46.000Z</time>
      </trkpt>
      <trkpt lat="42.84212" lon="1.32902">
        <ele>1474</ele>
        <time>2025-09-27T13:25:47.000Z</time>
      </trkpt>
      <trkpt lat="42.84212" lon="1.32902">
        <ele>1474</ele>
        <time>2025-09-27T13:25:48.000Z</time>
      </trkpt>
      <trkpt lat="42.84212" lon="1.32902">
        <ele>1474</ele>
        <time>2025-09-27T13:25:49.000Z</time>
      </trkpt>
      <trkpt lat="42.84213" lon="1.32903">
        <ele>1473</ele>
        <time>2025-09-27T13:25:50.000Z</time>
      </trkpt>
      <trkpt lat="42.84213" lon="1.32903">
        <ele>1473</ele>
        <time>2025-09-27T13:25:51.000Z</time>
      </trkpt>
      <trkpt lat="42.84214" lon="1.32903">
        <ele>1473</ele>
        <time>2025-09-27T13:25:52.000Z</time>
      </trkpt>
      <trkpt lat="42.84215" lon="1.32904">
        <ele>1473</ele>
        <time>2025-09-27T13:25:53.000Z</time>
      </trkpt>
      <trkpt lat="42.84215" lon="1.32904">
        <ele>1474</ele>
        <time>2025-09-27T13:25:54.000Z</time>
      </trkpt>
      <trkpt lat="42.84216" lon="1.32904">
        <ele>1474</ele>
        <time>2025-09-27T13:25:55.000Z</time>
      </trkpt>
      <trkpt lat="42.84216" lon="1.32904">
        <ele>1474</ele>
        <time>2025-09-27T13:25:56.000Z</time>
      </trkpt>
      <trkpt lat="42.84217" lon="1.32905">
        <ele>1474</ele>
        <time>2025-09-27T13:25:57.000Z</time>
      </trkpt>
      <trkpt lat="42.84217" lon="1.32905">
        <ele>1474</ele>
        <time>2025-09-27T13:25:58.000Z</time>
      </trkpt>
      <trkpt lat="42.84216" lon="1.32906">
        <ele>1473</ele>
        <time>2025-09-27T13:25:59.000Z</time>
      </trkpt>
      <trkpt lat="42.84216" lon="1.32907">
        <ele>1474</ele>
        <time>2025-09-27T13:26:00.000Z</time>
      </trkpt>
      <trkpt lat="42.84217" lon="1.32907">
        <ele>1474</ele>
        <time>2025-09-27T13:26:01.000Z</time>
      </trkpt>
      <trkpt lat="42.84217" lon="1.32907">
        <ele>1474</ele>
        <time>2025-09-27T13:26:02.000Z</time>
      </trkpt>
      <trkpt lat="42.84217" lon="1.32907">
        <ele>1474</ele>
        <time>2025-09-27T13:26:03.000Z</time>
      </trkpt>
      <trkpt lat="42.84218" lon="1.32907">
        <ele>1475</ele>
        <time>2025-09-27T13:26:04.000Z</time>
      </trkpt>
      <trkpt lat="42.84219" lon="1.32908">
        <ele>1475</ele>
        <time>2025-09-27T13:26:05.000Z</time>
      </trkpt>
      <trkpt lat="42.8422" lon="1.32908">
        <ele>1475</ele>
        <time>2025-09-27T13:26:06.000Z</time>
      </trkpt>
      <trkpt lat="42.84221" lon="1.32908">
        <ele>1475</ele>
        <time>2025-09-27T13:26:07.000Z</time>
      </trkpt>
      <trkpt lat="42.84221" lon="1.32908">
        <ele>1475</ele>
        <time>2025-09-27T13:26:08.000Z</time>
      </trkpt>
      <trkpt lat="42.84221" lon="1.32908">
        <ele>1475</ele>
        <time>2025-09-27T13:26:09.000Z</time>
      </trkpt>
      <trkpt lat="42.84221" lon="1.32908">
        <ele>1475</ele>
        <time>2025-09-27T13:26:10.000Z</time>
      </trkpt>
      <trkpt lat="42.84222" lon="1.32907">
        <ele>1475</ele>
        <time>2025-09-27T13:26:11.000Z</time>
      </trkpt>
      <trkpt lat="42.84224" lon="1.32906">
        <ele>1475</ele>
        <time>2025-09-27T13:26:12.000Z</time>
      </trkpt>
      <trkpt lat="42.84226" lon="1.32906">
        <ele>1476</ele>
        <time>2025-09-27T13:26:13.000Z</time>
      </trkpt>
      <trkpt lat="42.84227" lon="1.32905">
        <ele>1476</ele>
        <time>2025-09-27T13:26:14.000Z</time>
      </trkpt>
      <trkpt lat="42.84229" lon="1.32903">
        <ele>1476</ele>
        <time>2025-09-27T13:26:15.000Z</time>
      </trkpt>
      <trkpt lat="42.8423" lon="1.32902">
        <ele>1476</ele>
        <time>2025-09-27T13:26:16.000Z</time>
      </trkpt>
      <trkpt lat="42.84231" lon="1.32901">
        <ele>1476</ele>
        <time>2025-09-27T13:26:17.000Z</time>
      </trkpt>
      <trkpt lat="42.84232" lon="1.32898">
        <ele>1475</ele>
        <time>2025-09-27T13:26:18.000Z</time>
      </trkpt>
      <trkpt lat="42.84234" lon="1.32895">
        <ele>1475</ele>
        <time>2025-09-27T13:26:19.000Z</time>
      </trkpt>
      <trkpt lat="42.84236" lon="1.32893">
        <ele>1475</ele>
        <time>2025-09-27T13:26:20.000Z</time>
      </trkpt>
      <trkpt lat="42.84237" lon="1.3289">
        <ele>1474</ele>
        <time>2025-09-27T13:26:21.000Z</time>
      </trkpt>
      <trkpt lat="42.84238" lon="1.32887">
        <ele>1474</ele>
        <time>2025-09-27T13:26:22.000Z</time>
      </trkpt>
      <trkpt lat="42.8424" lon="1.32884">
        <ele>1474</ele>
        <time>2025-09-27T13:26:23.000Z</time>
      </trkpt>
      <trkpt lat="42.84241" lon="1.32881">
        <ele>1474</ele>
        <time>2025-09-27T13:26:24.000Z</time>
      </trkpt>
      <trkpt lat="42.84242" lon="1.32879">
        <ele>1474</ele>
        <time>2025-09-27T13:26:25.000Z</time>
      </trkpt>
      <trkpt lat="42.84243" lon="1.32877">
        <ele>1474</ele>
        <time>2025-09-27T13:26:26.000Z</time>
      </trkpt>
      <trkpt lat="42.84244" lon="1.32874">
        <ele>1474</ele>
        <time>2025-09-27T13:26:27.000Z</time>
      </trkpt>
      <trkpt lat="42.84246" lon="1.32872">
        <ele>1474</ele>
        <time>2025-09-27T13:26:28.000Z</time>
      </trkpt>
      <trkpt lat="42.84247" lon="1.32869">
        <ele>1474</ele>
        <time>2025-09-27T13:26:29.000Z</time>
      </trkpt>
      <trkpt lat="42.84248" lon="1.32866">
        <ele>1474</ele>
        <time>2025-09-27T13:26:30.000Z</time>
      </trkpt>
      <trkpt lat="42.84249" lon="1.32864">
        <ele>1474</ele>
        <time>2025-09-27T13:26:31.000Z</time>
      </trkpt>
      <trkpt lat="42.84249" lon="1.32861">
        <ele>1473</ele>
        <time>2025-09-27T13:26:32.000Z</time>
      </trkpt>
      <trkpt lat="42.8425" lon="1.32858">
        <ele>1474</ele>
        <time>2025-09-27T13:26:33.000Z</time>
      </trkpt>
      <trkpt lat="42.84251" lon="1.32854">
        <ele>1474</ele>
        <time>2025-09-27T13:26:34.000Z</time>
      </trkpt>
      <trkpt lat="42.84252" lon="1.32852">
        <ele>1474</ele>
        <time>2025-09-27T13:26:35.000Z</time>
      </trkpt>
      <trkpt lat="42.84252" lon="1.32849">
        <ele>1474</ele>
        <time>2025-09-27T13:26:36.000Z</time>
      </trkpt>
      <trkpt lat="42.84254" lon="1.32846">
        <ele>1474</ele>
        <time>2025-09-27T13:26:37.000Z</time>
      </trkpt>
      <trkpt lat="42.84255" lon="1.32843">
        <ele>1474</ele>
        <time>2025-09-27T13:26:38.000Z</time>
      </trkpt>
      <trkpt lat="42.84257" lon="1.3284">
        <ele>1474</ele>
        <time>2025-09-27T13:26:39.000Z</time>
      </trkpt>
      <trkpt lat="42.84259" lon="1.32838">
        <ele>1474</ele>
        <time>2025-09-27T13:26:40.000Z</time>
      </trkpt>
      <trkpt lat="42.84261" lon="1.32836">
        <ele>1475</ele>
        <time>2025-09-27T13:26:41.000Z</time>
      </trkpt>
      <trkpt lat="42.84263" lon="1.32834">
        <ele>1474</ele>
        <time>2025-09-27T13:26:42.000Z</time>
      </trkpt>
      <trkpt lat="42.84266" lon="1.32832">
        <ele>1474</ele>
        <time>2025-09-27T13:26:43.000Z</time>
      </trkpt>
      <trkpt lat="42.84267" lon="1.3283">
        <ele>1474</ele>
        <time>2025-09-27T13:26:44.000Z</time>
      </trkpt>
      <trkpt lat="42.84269" lon="1.32828">
        <ele>1475</ele>
        <time>2025-09-27T13:26:45.000Z</time>
      </trkpt>
      <trkpt lat="42.84272" lon="1.32826">
        <ele>1475</ele>
        <time>2025-09-27T13:26:46.000Z</time>
      </trkpt>
      <trkpt lat="42.84274" lon="1.32823">
        <ele>1475</ele>
        <time>2025-09-27T13:26:47.000Z</time>
      </trkpt>
      <trkpt lat="42.84276" lon="1.32822">
        <ele>1475</ele>
        <time>2025-09-27T13:26:48.000Z</time>
      </trkpt>
      <trkpt lat="42.84278" lon="1.32821">
        <ele>1474</ele>
        <time>2025-09-27T13:26:49.000Z</time>
      </trkpt>
      <trkpt lat="42.8428" lon="1.3282">
        <ele>1475</ele>
        <time>2025-09-27T13:26:50.000Z</time>
      </trkpt>
      <trkpt lat="42.84282" lon="1.32819">
        <ele>1475</ele>
        <time>2025-09-27T13:26:51.000Z</time>
      </trkpt>
      <trkpt lat="42.84283" lon="1.32818">
        <ele>1475</ele>
        <time>2025-09-27T13:26:52.000Z</time>
      </trkpt>
      <trkpt lat="42.84285" lon="1.32817">
        <ele>1475</ele>
        <time>2025-09-27T13:26:53.000Z</time>
      </trkpt>
      <trkpt lat="42.84287" lon="1.32816">
        <ele>1474</ele>
        <time>2025-09-27T13:26:54.000Z</time>
      </trkpt>
      <trkpt lat="42.84289" lon="1.32814">
        <ele>1475</ele>
        <time>2025-09-27T13:26:55.000Z</time>
      </trkpt>
      <trkpt lat="42.8429" lon="1.32813">
        <ele>1475</ele>
        <time>2025-09-27T13:26:56.000Z</time>
      </trkpt>
      <trkpt lat="42.84291" lon="1.32811">
        <ele>1474</ele>
        <time>2025-09-27T13:26:57.000Z</time>
      </trkpt>
      <trkpt lat="42.84293" lon="1.3281">
        <ele>1474</ele>
        <time>2025-09-27T13:26:58.000Z</time>
      </trkpt>
      <trkpt lat="42.84293" lon="1.32809">
        <ele>1474</ele>
        <time>2025-09-27T13:26:59.000Z</time>
      </trkpt>
      <trkpt lat="42.84295" lon="1.32807">
        <ele>1474</ele>
        <time>2025-09-27T13:27:00.000Z</time>
      </trkpt>
      <trkpt lat="42.84296" lon="1.32806">
        <ele>1474</ele>
        <time>2025-09-27T13:27:01.000Z</time>
      </trkpt>
      <trkpt lat="42.84298" lon="1.32803">
        <ele>1474</ele>
        <time>2025-09-27T13:27:02.000Z</time>
      </trkpt>
      <trkpt lat="42.843" lon="1.32801">
        <ele>1474</ele>
        <time>2025-09-27T13:27:03.000Z</time>
      </trkpt>
      <trkpt lat="42.84302" lon="1.328">
        <ele>1474</ele>
        <time>2025-09-27T13:27:04.000Z</time>
      </trkpt>
      <trkpt lat="42.84304" lon="1.32798">
        <ele>1474</ele>
        <time>2025-09-27T13:27:05.000Z</time>
      </trkpt>
      <trkpt lat="42.84305" lon="1.32797">
        <ele>1473</ele>
        <time>2025-09-27T13:27:06.000Z</time>
      </trkpt>
      <trkpt lat="42.84307" lon="1.32795">
        <ele>1473</ele>
        <time>2025-09-27T13:27:07.000Z</time>
      </trkpt>
      <trkpt lat="42.8431" lon="1.32793">
        <ele>1473</ele>
        <time>2025-09-27T13:27:08.000Z</time>
      </trkpt>
      <trkpt lat="42.84314" lon="1.32789">
        <ele>1474</ele>
        <time>2025-09-27T13:27:09.000Z</time>
      </trkpt>
      <trkpt lat="42.84318" lon="1.32785">
        <ele>1473</ele>
        <time>2025-09-27T13:27:10.000Z</time>
      </trkpt>
      <trkpt lat="42.84322" lon="1.32781">
        <ele>1473</ele>
        <time>2025-09-27T13:27:11.000Z</time>
      </trkpt>
      <trkpt lat="42.84326" lon="1.32778">
        <ele>1473</ele>
        <time>2025-09-27T13:27:12.000Z</time>
      </trkpt>
      <trkpt lat="42.8433" lon="1.32773">
        <ele>1474</ele>
        <time>2025-09-27T13:27:13.000Z</time>
      </trkpt>
      <trkpt lat="42.84333" lon="1.32769">
        <ele>1474</ele>
        <time>2025-09-27T13:27:14.000Z</time>
      </trkpt>
      <trkpt lat="42.84338" lon="1.32767">
        <ele>1474</ele>
        <time>2025-09-27T13:27:15.000Z</time>
      </trkpt>
      <trkpt lat="42.84341" lon="1.32764">
        <ele>1474</ele>
        <time>2025-09-27T13:27:16.000Z</time>
      </trkpt>
      <trkpt lat="42.84344" lon="1.32761">
        <ele>1474</ele>
        <time>2025-09-27T13:27:17.000Z</time>
      </trkpt>
      <trkpt lat="42.84347" lon="1.3276">
        <ele>1473</ele>
        <time>2025-09-27T13:27:18.000Z</time>
      </trkpt>
      <trkpt lat="42.84351" lon="1.32758">
        <ele>1473</ele>
        <time>2025-09-27T13:27:19.000Z</time>
      </trkpt>
      <trkpt lat="42.84355" lon="1.32755">
        <ele>1473</ele>
        <time>2025-09-27T13:27:20.000Z</time>
      </trkpt>
      <trkpt lat="42.84358" lon="1.32753">
        <ele>1473</ele>
        <time>2025-09-27T13:27:21.000Z</time>
      </trkpt>
      <trkpt lat="42.84362" lon="1.3275">
        <ele>1472</ele>
        <time>2025-09-27T13:27:22.000Z</time>
      </trkpt>
      <trkpt lat="42.84365" lon="1.32748">
        <ele>1473</ele>
        <time>2025-09-27T13:27:23.000Z</time>
      </trkpt>
      <trkpt lat="42.84368" lon="1.32745">
        <ele>1472</ele>
        <time>2025-09-27T13:27:24.000Z</time>
      </trkpt>
      <trkpt lat="42.84372" lon="1.32744">
        <ele>1472</ele>
        <time>2025-09-27T13:27:25.000Z</time>
      </trkpt>
      <trkpt lat="42.84375" lon="1.32742">
        <ele>1472</ele>
        <time>2025-09-27T13:27:26.000Z</time>
      </trkpt>
      <trkpt lat="42.84379" lon="1.3274">
        <ele>1472</ele>
        <time>2025-09-27T13:27:27.000Z</time>
      </trkpt>
      <trkpt lat="42.84382" lon="1.32736">
        <ele>1471</ele>
        <time>2025-09-27T13:27:28.000Z</time>
      </trkpt>
      <trkpt lat="42.84386" lon="1.32733">
        <ele>1471</ele>
        <time>2025-09-27T13:27:29.000Z</time>
      </trkpt>
      <trkpt lat="42.8439" lon="1.32732">
        <ele>1471</ele>
        <time>2025-09-27T13:27:30.000Z</time>
      </trkpt>
      <trkpt lat="42.84394" lon="1.32729">
        <ele>1470</ele>
        <time>2025-09-27T13:27:31.000Z</time>
      </trkpt>
      <trkpt lat="42.84398" lon="1.32726">
        <ele>1470</ele>
        <time>2025-09-27T13:27:32.000Z</time>
      </trkpt>
      <trkpt lat="42.84403" lon="1.32723">
        <ele>1469</ele>
        <time>2025-09-27T13:27:33.000Z</time>
      </trkpt>
      <trkpt lat="42.84406" lon="1.3272">
        <ele>1469</ele>
        <time>2025-09-27T13:27:34.000Z</time>
      </trkpt>
      <trkpt lat="42.84411" lon="1.32716">
        <ele>1469</ele>
        <time>2025-09-27T13:27:35.000Z</time>
      </trkpt>
      <trkpt lat="42.84414" lon="1.32712">
        <ele>1469</ele>
        <time>2025-09-27T13:27:36.000Z</time>
      </trkpt>
      <trkpt lat="42.84418" lon="1.32709">
        <ele>1468</ele>
        <time>2025-09-27T13:27:37.000Z</time>
      </trkpt>
      <trkpt lat="42.84422" lon="1.32706">
        <ele>1467</ele>
        <time>2025-09-27T13:27:38.000Z</time>
      </trkpt>
      <trkpt lat="42.84427" lon="1.32702">
        <ele>1467</ele>
        <time>2025-09-27T13:27:39.000Z</time>
      </trkpt>
      <trkpt lat="42.84431" lon="1.32699">
        <ele>1467</ele>
        <time>2025-09-27T13:27:40.000Z</time>
      </trkpt>
      <trkpt lat="42.84434" lon="1.32697">
        <ele>1467</ele>
        <time>2025-09-27T13:27:41.000Z</time>
      </trkpt>
      <trkpt lat="42.84437" lon="1.32695">
        <ele>1467</ele>
        <time>2025-09-27T13:27:42.000Z</time>
      </trkpt>
      <trkpt lat="42.84439" lon="1.32693">
        <ele>1467</ele>
        <time>2025-09-27T13:27:43.000Z</time>
      </trkpt>
      <trkpt lat="42.84441" lon="1.32691">
        <ele>1467</ele>
        <time>2025-09-27T13:27:44.000Z</time>
      </trkpt>
      <trkpt lat="42.84443" lon="1.32688">
        <ele>1467</ele>
        <time>2025-09-27T13:27:45.000Z</time>
      </trkpt>
      <trkpt lat="42.84446" lon="1.32685">
        <ele>1467</ele>
        <time>2025-09-27T13:27:46.000Z</time>
      </trkpt>
      <trkpt lat="42.84449" lon="1.32682">
        <ele>1467</ele>
        <time>2025-09-27T13:27:47.000Z</time>
      </trkpt>
      <trkpt lat="42.84451" lon="1.32679">
        <ele>1467</ele>
        <time>2025-09-27T13:27:48.000Z</time>
      </trkpt>
      <trkpt lat="42.84454" lon="1.32676">
        <ele>1466</ele>
        <time>2025-09-27T13:27:49.000Z</time>
      </trkpt>
      <trkpt lat="42.84456" lon="1.32673">
        <ele>1466</ele>
        <time>2025-09-27T13:27:50.000Z</time>
      </trkpt>
      <trkpt lat="42.84459" lon="1.3267">
        <ele>1466</ele>
        <time>2025-09-27T13:27:51.000Z</time>
      </trkpt>
      <trkpt lat="42.84461" lon="1.32669">
        <ele>1466</ele>
        <time>2025-09-27T13:27:52.000Z</time>
      </trkpt>
      <trkpt lat="42.84464" lon="1.32669">
        <ele>1465</ele>
        <time>2025-09-27T13:27:53.000Z</time>
      </trkpt>
      <trkpt lat="42.84467" lon="1.32671">
        <ele>1465</ele>
        <time>2025-09-27T13:27:54.000Z</time>
      </trkpt>
      <trkpt lat="42.84471" lon="1.32672">
        <ele>1465</ele>
        <time>2025-09-27T13:27:55.000Z</time>
      </trkpt>
      <trkpt lat="42.84476" lon="1.32675">
        <ele>1464</ele>
        <time>2025-09-27T13:27:56.000Z</time>
      </trkpt>
      <trkpt lat="42.8448" lon="1.32677">
        <ele>1463</ele>
        <time>2025-09-27T13:27:57.000Z</time>
      </trkpt>
      <trkpt lat="42.84484" lon="1.32678">
        <ele>1463</ele>
        <time>2025-09-27T13:27:58.000Z</time>
      </trkpt>
      <trkpt lat="42.84487" lon="1.32676">
        <ele>1463</ele>
        <time>2025-09-27T13:27:59.000Z</time>
      </trkpt>
      <trkpt lat="42.84488" lon="1.32673">
        <ele>1462</ele>
        <time>2025-09-27T13:28:00.000Z</time>
      </trkpt>
      <trkpt lat="42.84489" lon="1.3267">
        <ele>1462</ele>
        <time>2025-09-27T13:28:01.000Z</time>
      </trkpt>
      <trkpt lat="42.8449" lon="1.32667">
        <ele>1462</ele>
        <time>2025-09-27T13:28:02.000Z</time>
      </trkpt>
      <trkpt lat="42.84491" lon="1.32663">
        <ele>1462</ele>
        <time>2025-09-27T13:28:03.000Z</time>
      </trkpt>
      <trkpt lat="42.84492" lon="1.3266">
        <ele>1462</ele>
        <time>2025-09-27T13:28:04.000Z</time>
      </trkpt>
      <trkpt lat="42.84493" lon="1.32656">
        <ele>1461</ele>
        <time>2025-09-27T13:28:05.000Z</time>
      </trkpt>
      <trkpt lat="42.84496" lon="1.32649">
        <ele>1460</ele>
        <time>2025-09-27T13:28:06.000Z</time>
      </trkpt>
      <trkpt lat="42.84498" lon="1.32643">
        <ele>1459</ele>
        <time>2025-09-27T13:28:07.000Z</time>
      </trkpt>
      <trkpt lat="42.845" lon="1.32638">
        <ele>1458</ele>
        <time>2025-09-27T13:28:08.000Z</time>
      </trkpt>
      <trkpt lat="42.84501" lon="1.32633">
        <ele>1458</ele>
        <time>2025-09-27T13:28:09.000Z</time>
      </trkpt>
      <trkpt lat="42.84502" lon="1.32629">
        <ele>1458</ele>
        <time>2025-09-27T13:28:10.000Z</time>
      </trkpt>
      <trkpt lat="42.84505" lon="1.32625">
        <ele>1458</ele>
        <time>2025-09-27T13:28:11.000Z</time>
      </trkpt>
      <trkpt lat="42.84508" lon="1.32622">
        <ele>1458</ele>
        <time>2025-09-27T13:28:12.000Z</time>
      </trkpt>
      <trkpt lat="42.8451" lon="1.32619">
        <ele>1458</ele>
        <time>2025-09-27T13:28:13.000Z</time>
      </trkpt>
      <trkpt lat="42.84513" lon="1.32615">
        <ele>1458</ele>
        <time>2025-09-27T13:28:14.000Z</time>
      </trkpt>
      <trkpt lat="42.84516" lon="1.32612">
        <ele>1457</ele>
        <time>2025-09-27T13:28:15.000Z</time>
      </trkpt>
      <trkpt lat="42.84518" lon="1.32609">
        <ele>1457</ele>
        <time>2025-09-27T13:28:16.000Z</time>
      </trkpt>
      <trkpt lat="42.84521" lon="1.32606">
        <ele>1456</ele>
        <time>2025-09-27T13:28:17.000Z</time>
      </trkpt>
      <trkpt lat="42.84523" lon="1.32603">
        <ele>1457</ele>
        <time>2025-09-27T13:28:18.000Z</time>
      </trkpt>
      <trkpt lat="42.84525" lon="1.326">
        <ele>1457</ele>
        <time>2025-09-27T13:28:19.000Z</time>
      </trkpt>
      <trkpt lat="42.84528" lon="1.32597">
        <ele>1456</ele>
        <time>2025-09-27T13:28:20.000Z</time>
      </trkpt>
      <trkpt lat="42.84529" lon="1.32594">
        <ele>1456</ele>
        <time>2025-09-27T13:28:21.000Z</time>
      </trkpt>
      <trkpt lat="42.84531" lon="1.32592">
        <ele>1456</ele>
        <time>2025-09-27T13:28:22.000Z</time>
      </trkpt>
      <trkpt lat="42.84533" lon="1.32589">
        <ele>1455</ele>
        <time>2025-09-27T13:28:23.000Z</time>
      </trkpt>
      <trkpt lat="42.84534" lon="1.32587">
        <ele>1455</ele>
        <time>2025-09-27T13:28:24.000Z</time>
      </trkpt>
      <trkpt lat="42.84536" lon="1.32585">
        <ele>1455</ele>
        <time>2025-09-27T13:28:25.000Z</time>
      </trkpt>
      <trkpt lat="42.84538" lon="1.32583">
        <ele>1454</ele>
        <time>2025-09-27T13:28:26.000Z</time>
      </trkpt>
      <trkpt lat="42.84541" lon="1.3258">
        <ele>1454</ele>
        <time>2025-09-27T13:28:27.000Z</time>
      </trkpt>
      <trkpt lat="42.84544" lon="1.32577">
        <ele>1454</ele>
        <time>2025-09-27T13:28:28.000Z</time>
      </trkpt>
      <trkpt lat="42.84546" lon="1.32574">
        <ele>1454</ele>
        <time>2025-09-27T13:28:29.000Z</time>
      </trkpt>
      <trkpt lat="42.84549" lon="1.32571">
        <ele>1453</ele>
        <time>2025-09-27T13:28:30.000Z</time>
      </trkpt>
      <trkpt lat="42.84551" lon="1.32568">
        <ele>1453</ele>
        <time>2025-09-27T13:28:31.000Z</time>
      </trkpt>
      <trkpt lat="42.84553" lon="1.32564">
        <ele>1453</ele>
        <time>2025-09-27T13:28:32.000Z</time>
      </trkpt>
      <trkpt lat="42.84555" lon="1.3256">
        <ele>1453</ele>
        <time>2025-09-27T13:28:33.000Z</time>
      </trkpt>
      <trkpt lat="42.84556" lon="1.32556">
        <ele>1452</ele>
        <time>2025-09-27T13:28:34.000Z</time>
      </trkpt>
      <trkpt lat="42.84557" lon="1.32552">
        <ele>1451</ele>
        <time>2025-09-27T13:28:35.000Z</time>
      </trkpt>
      <trkpt lat="42.84558" lon="1.32548">
        <ele>1451</ele>
        <time>2025-09-27T13:28:36.000Z</time>
      </trkpt>
      <trkpt lat="42.84559" lon="1.32545">
        <ele>1451</ele>
        <time>2025-09-27T13:28:37.000Z</time>
      </trkpt>
      <trkpt lat="42.84561" lon="1.32541">
        <ele>1451</ele>
        <time>2025-09-27T13:28:38.000Z</time>
      </trkpt>
      <trkpt lat="42.84562" lon="1.32539">
        <ele>1451</ele>
        <time>2025-09-27T13:28:39.000Z</time>
      </trkpt>
      <trkpt lat="42.84563" lon="1.32536">
        <ele>1451</ele>
        <time>2025-09-27T13:28:40.000Z</time>
      </trkpt>
      <trkpt lat="42.84564" lon="1.32534">
        <ele>1451</ele>
        <time>2025-09-27T13:28:41.000Z</time>
      </trkpt>
      <trkpt lat="42.84565" lon="1.32531">
        <ele>1451</ele>
        <time>2025-09-27T13:28:42.000Z</time>
      </trkpt>
      <trkpt lat="42.84567" lon="1.32527">
        <ele>1451</ele>
        <time>2025-09-27T13:28:43.000Z</time>
      </trkpt>
      <trkpt lat="42.84568" lon="1.32524">
        <ele>1450</ele>
        <time>2025-09-27T13:28:44.000Z</time>
      </trkpt>
      <trkpt lat="42.8457" lon="1.3252">
        <ele>1450</ele>
        <time>2025-09-27T13:28:45.000Z</time>
      </trkpt>
      <trkpt lat="42.84572" lon="1.32518">
        <ele>1450</ele>
        <time>2025-09-27T13:28:46.000Z</time>
      </trkpt>
      <trkpt lat="42.84573" lon="1.32515">
        <ele>1450</ele>
        <time>2025-09-27T13:28:47.000Z</time>
      </trkpt>
      <trkpt lat="42.84576" lon="1.32513">
        <ele>1450</ele>
        <time>2025-09-27T13:28:48.000Z</time>
      </trkpt>
      <trkpt lat="42.84578" lon="1.32511">
        <ele>1450</ele>
        <time>2025-09-27T13:28:49.000Z</time>
      </trkpt>
      <trkpt lat="42.84581" lon="1.3251">
        <ele>1450</ele>
        <time>2025-09-27T13:28:50.000Z</time>
      </trkpt>
      <trkpt lat="42.84583" lon="1.32509">
        <ele>1449</ele>
        <time>2025-09-27T13:28:51.000Z</time>
      </trkpt>
      <trkpt lat="42.84586" lon="1.32507">
        <ele>1449</ele>
        <time>2025-09-27T13:28:52.000Z</time>
      </trkpt>
      <trkpt lat="42.84589" lon="1.32505">
        <ele>1448</ele>
        <time>2025-09-27T13:28:53.000Z</time>
      </trkpt>
      <trkpt lat="42.84591" lon="1.32504">
        <ele>1449</ele>
        <time>2025-09-27T13:28:54.000Z</time>
      </trkpt>
      <trkpt lat="42.84594" lon="1.32501">
        <ele>1449</ele>
        <time>2025-09-27T13:28:55.000Z</time>
      </trkpt>
      <trkpt lat="42.84596" lon="1.325">
        <ele>1449</ele>
        <time>2025-09-27T13:28:56.000Z</time>
      </trkpt>
      <trkpt lat="42.84598" lon="1.32498">
        <ele>1449</ele>
        <time>2025-09-27T13:28:57.000Z</time>
      </trkpt>
      <trkpt lat="42.846" lon="1.32496">
        <ele>1448</ele>
        <time>2025-09-27T13:28:58.000Z</time>
      </trkpt>
      <trkpt lat="42.84602" lon="1.32495">
        <ele>1448</ele>
        <time>2025-09-27T13:28:59.000Z</time>
      </trkpt>
      <trkpt lat="42.84605" lon="1.32493">
        <ele>1448</ele>
        <time>2025-09-27T13:29:00.000Z</time>
      </trkpt>
      <trkpt lat="42.84607" lon="1.32491">
        <ele>1448</ele>
        <time>2025-09-27T13:29:01.000Z</time>
      </trkpt>
      <trkpt lat="42.8461" lon="1.32489">
        <ele>1448</ele>
        <time>2025-09-27T13:29:02.000Z</time>
      </trkpt>
      <trkpt lat="42.84613" lon="1.32487">
        <ele>1448</ele>
        <time>2025-09-27T13:29:03.000Z</time>
      </trkpt>
      <trkpt lat="42.84615" lon="1.32484">
        <ele>1447</ele>
        <time>2025-09-27T13:29:04.000Z</time>
      </trkpt>
      <trkpt lat="42.84618" lon="1.32481">
        <ele>1447</ele>
        <time>2025-09-27T13:29:05.000Z</time>
      </trkpt>
      <trkpt lat="42.8462" lon="1.32478">
        <ele>1447</ele>
        <time>2025-09-27T13:29:06.000Z</time>
      </trkpt>
      <trkpt lat="42.84621" lon="1.32474">
        <ele>1447</ele>
        <time>2025-09-27T13:29:07.000Z</time>
      </trkpt>
      <trkpt lat="42.84622" lon="1.3247">
        <ele>1447</ele>
        <time>2025-09-27T13:29:08.000Z</time>
      </trkpt>
      <trkpt lat="42.84623" lon="1.32466">
        <ele>1446</ele>
        <time>2025-09-27T13:29:09.000Z</time>
      </trkpt>
      <trkpt lat="42.84624" lon="1.32462">
        <ele>1446</ele>
        <time>2025-09-27T13:29:10.000Z</time>
      </trkpt>
      <trkpt lat="42.84624" lon="1.32459">
        <ele>1446</ele>
        <time>2025-09-27T13:29:11.000Z</time>
      </trkpt>
      <trkpt lat="42.84625" lon="1.32455">
        <ele>1446</ele>
        <time>2025-09-27T13:29:12.000Z</time>
      </trkpt>
      <trkpt lat="42.84627" lon="1.32452">
        <ele>1446</ele>
        <time>2025-09-27T13:29:13.000Z</time>
      </trkpt>
      <trkpt lat="42.84628" lon="1.32449">
        <ele>1445</ele>
        <time>2025-09-27T13:29:14.000Z</time>
      </trkpt>
      <trkpt lat="42.8463" lon="1.32446">
        <ele>1445</ele>
        <time>2025-09-27T13:29:15.000Z</time>
      </trkpt>
      <trkpt lat="42.84631" lon="1.32444">
        <ele>1446</ele>
        <time>2025-09-27T13:29:16.000Z</time>
      </trkpt>
      <trkpt lat="42.84632" lon="1.32442">
        <ele>1445</ele>
        <time>2025-09-27T13:29:17.000Z</time>
      </trkpt>
      <trkpt lat="42.84634" lon="1.3244">
        <ele>1445</ele>
        <time>2025-09-27T13:29:18.000Z</time>
      </trkpt>
      <trkpt lat="42.84636" lon="1.32437">
        <ele>1445</ele>
        <time>2025-09-27T13:29:19.000Z</time>
      </trkpt>
      <trkpt lat="42.84638" lon="1.32434">
        <ele>1445</ele>
        <time>2025-09-27T13:29:20.000Z</time>
      </trkpt>
      <trkpt lat="42.8464" lon="1.32431">
        <ele>1445</ele>
        <time>2025-09-27T13:29:21.000Z</time>
      </trkpt>
      <trkpt lat="42.84642" lon="1.32427">
        <ele>1445</ele>
        <time>2025-09-27T13:29:22.000Z</time>
      </trkpt>
      <trkpt lat="42.84644" lon="1.32425">
        <ele>1445</ele>
        <time>2025-09-27T13:29:23.000Z</time>
      </trkpt>
      <trkpt lat="42.84647" lon="1.32422">
        <ele>1444</ele>
        <time>2025-09-27T13:29:24.000Z</time>
      </trkpt>
      <trkpt lat="42.8465" lon="1.3242">
        <ele>1443</ele>
        <time>2025-09-27T13:29:25.000Z</time>
      </trkpt>
      <trkpt lat="42.84653" lon="1.32418">
        <ele>1443</ele>
        <time>2025-09-27T13:29:26.000Z</time>
      </trkpt>
      <trkpt lat="42.84657" lon="1.32416">
        <ele>1442</ele>
        <time>2025-09-27T13:29:27.000Z</time>
      </trkpt>
      <trkpt lat="42.84661" lon="1.32413">
        <ele>1441</ele>
        <time>2025-09-27T13:29:28.000Z</time>
      </trkpt>
      <trkpt lat="42.84665" lon="1.32411">
        <ele>1441</ele>
        <time>2025-09-27T13:29:29.000Z</time>
      </trkpt>
      <trkpt lat="42.84669" lon="1.3241">
        <ele>1440</ele>
        <time>2025-09-27T13:29:30.000Z</time>
      </trkpt>
      <trkpt lat="42.84674" lon="1.32411">
        <ele>1439</ele>
        <time>2025-09-27T13:29:31.000Z</time>
      </trkpt>
      <trkpt lat="42.8468" lon="1.32412">
        <ele>1439</ele>
        <time>2025-09-27T13:29:32.000Z</time>
      </trkpt>
      <trkpt lat="42.84684" lon="1.32411">
        <ele>1438</ele>
        <time>2025-09-27T13:29:33.000Z</time>
      </trkpt>
      <trkpt lat="42.84689" lon="1.32411">
        <ele>1437</ele>
        <time>2025-09-27T13:29:34.000Z</time>
      </trkpt>
      <trkpt lat="42.84692" lon="1.32411">
        <ele>1437</ele>
        <time>2025-09-27T13:29:35.000Z</time>
      </trkpt>
      <trkpt lat="42.84695" lon="1.32411">
        <ele>1436</ele>
        <time>2025-09-27T13:29:36.000Z</time>
      </trkpt>
      <trkpt lat="42.84698" lon="1.32411">
        <ele>1436</ele>
        <time>2025-09-27T13:29:37.000Z</time>
      </trkpt>
      <trkpt lat="42.847" lon="1.3241">
        <ele>1435</ele>
        <time>2025-09-27T13:29:38.000Z</time>
      </trkpt>
      <trkpt lat="42.84702" lon="1.32408">
        <ele>1435</ele>
        <time>2025-09-27T13:29:39.000Z</time>
      </trkpt>
      <trkpt lat="42.84704" lon="1.32407">
        <ele>1435</ele>
        <time>2025-09-27T13:29:40.000Z</time>
      </trkpt>
      <trkpt lat="42.84706" lon="1.32405">
        <ele>1435</ele>
        <time>2025-09-27T13:29:41.000Z</time>
      </trkpt>
      <trkpt lat="42.84709" lon="1.32404">
        <ele>1435</ele>
        <time>2025-09-27T13:29:42.000Z</time>
      </trkpt>
      <trkpt lat="42.84711" lon="1.32403">
        <ele>1434</ele>
        <time>2025-09-27T13:29:43.000Z</time>
      </trkpt>
      <trkpt lat="42.84714" lon="1.32402">
        <ele>1434</ele>
        <time>2025-09-27T13:29:44.000Z</time>
      </trkpt>
      <trkpt lat="42.84717" lon="1.32401">
        <ele>1434</ele>
        <time>2025-09-27T13:29:45.000Z</time>
      </trkpt>
      <trkpt lat="42.84719" lon="1.32398">
        <ele>1433</ele>
        <time>2025-09-27T13:29:46.000Z</time>
      </trkpt>
      <trkpt lat="42.84722" lon="1.32396">
        <ele>1432</ele>
        <time>2025-09-27T13:29:47.000Z</time>
      </trkpt>
      <trkpt lat="42.84724" lon="1.32395">
        <ele>1432</ele>
        <time>2025-09-27T13:29:48.000Z</time>
      </trkpt>
      <trkpt lat="42.84726" lon="1.32394">
        <ele>1432</ele>
        <time>2025-09-27T13:29:49.000Z</time>
      </trkpt>
      <trkpt lat="42.84728" lon="1.32394">
        <ele>1431</ele>
        <time>2025-09-27T13:29:50.000Z</time>
      </trkpt>
      <trkpt lat="42.84729" lon="1.32392">
        <ele>1431</ele>
        <time>2025-09-27T13:29:51.000Z</time>
      </trkpt>
      <trkpt lat="42.8473" lon="1.32391">
        <ele>1430</ele>
        <time>2025-09-27T13:29:52.000Z</time>
      </trkpt>
      <trkpt lat="42.84732" lon="1.32392">
        <ele>1430</ele>
        <time>2025-09-27T13:29:53.000Z</time>
      </trkpt>
      <trkpt lat="42.84733" lon="1.32391">
        <ele>1429</ele>
        <time>2025-09-27T13:29:54.000Z</time>
      </trkpt>
      <trkpt lat="42.84734" lon="1.3239">
        <ele>1428</ele>
        <time>2025-09-27T13:29:55.000Z</time>
      </trkpt>
      <trkpt lat="42.84734" lon="1.3239">
        <ele>1427</ele>
        <time>2025-09-27T13:29:56.000Z</time>
      </trkpt>
      <trkpt lat="42.84734" lon="1.3239">
        <ele>1427</ele>
        <time>2025-09-27T13:29:57.000Z</time>
      </trkpt>
      <trkpt lat="42.84737" lon="1.3239">
        <ele>1417</ele>
        <time>2025-09-27T13:30:34.000Z</time>
      </trkpt>
      <trkpt lat="42.84738" lon="1.3239">
        <ele>1417</ele>
        <time>2025-09-27T13:30:35.000Z</time>
      </trkpt>
      <trkpt lat="42.84739" lon="1.3239">
        <ele>1417</ele>
        <time>2025-09-27T13:30:36.000Z</time>
      </trkpt>
      <trkpt lat="42.84739" lon="1.32391">
        <ele>1417</ele>
        <time>2025-09-27T13:30:37.000Z</time>
      </trkpt>
      <trkpt lat="42.84739" lon="1.3239">
        <ele>1418</ele>
        <time>2025-09-27T13:30:38.000Z</time>
      </trkpt>
      <trkpt lat="42.8474" lon="1.3239">
        <ele>1418</ele>
        <time>2025-09-27T13:30:39.000Z</time>
      </trkpt>
      <trkpt lat="42.8474" lon="1.3239">
        <ele>1418</ele>
        <time>2025-09-27T13:30:40.000Z</time>
      </trkpt>
      <trkpt lat="42.8474" lon="1.3239">
        <ele>1417</ele>
        <time>2025-09-27T13:30:41.000Z</time>
      </trkpt>
      <trkpt lat="42.8474" lon="1.3239">
        <ele>1417</ele>
        <time>2025-09-27T13:30:42.000Z</time>
      </trkpt>
      <trkpt lat="42.8474" lon="1.3239">
        <ele>1417</ele>
        <time>2025-09-27T13:30:43.000Z</time>
      </trkpt>
      <trkpt lat="42.8474" lon="1.3239">
        <ele>1417</ele>
        <time>2025-09-27T13:30:44.000Z</time>
      </trkpt>
      <trkpt lat="42.84741" lon="1.3239">
        <ele>1416</ele>
        <time>2025-09-27T13:30:45.000Z</time>
      </trkpt>
      <trkpt lat="42.84742" lon="1.32389">
        <ele>1415</ele>
        <time>2025-09-27T13:30:46.000Z</time>
      </trkpt>
      <trkpt lat="42.84744" lon="1.32389">
        <ele>1416</ele>
        <time>2025-09-27T13:30:47.000Z</time>
      </trkpt>
      <trkpt lat="42.84745" lon="1.32388">
        <ele>1415</ele>
        <time>2025-09-27T13:30:48.000Z</time>
      </trkpt>
      <trkpt lat="42.84747" lon="1.32386">
        <ele>1414</ele>
        <time>2025-09-27T13:30:49.000Z</time>
      </trkpt>
      <trkpt lat="42.8475" lon="1.32385">
        <ele>1414</ele>
        <time>2025-09-27T13:30:50.000Z</time>
      </trkpt>
      <trkpt lat="42.84752" lon="1.32384">
        <ele>1414</ele>
        <time>2025-09-27T13:30:51.000Z</time>
      </trkpt>
      <trkpt lat="42.84755" lon="1.32383">
        <ele>1413</ele>
        <time>2025-09-27T13:30:52.000Z</time>
      </trkpt>
      <trkpt lat="42.84757" lon="1.32381">
        <ele>1412</ele>
        <time>2025-09-27T13:30:53.000Z</time>
      </trkpt>
      <trkpt lat="42.84759" lon="1.32379">
        <ele>1412</ele>
        <time>2025-09-27T13:30:54.000Z</time>
      </trkpt>
      <trkpt lat="42.84761" lon="1.32376">
        <ele>1411</ele>
        <time>2025-09-27T13:30:55.000Z</time>
      </trkpt>
      <trkpt lat="42.84764" lon="1.32373">
        <ele>1410</ele>
        <time>2025-09-27T13:30:56.000Z</time>
      </trkpt>
      <trkpt lat="42.84767" lon="1.3237">
        <ele>1409</ele>
        <time>2025-09-27T13:30:57.000Z</time>
      </trkpt>
      <trkpt lat="42.84771" lon="1.32367">
        <ele>1408</ele>
        <time>2025-09-27T13:30:58.000Z</time>
      </trkpt>
      <trkpt lat="42.84774" lon="1.32363">
        <ele>1406</ele>
        <time>2025-09-27T13:30:59.000Z</time>
      </trkpt>
      <trkpt lat="42.84777" lon="1.32358">
        <ele>1404</ele>
        <time>2025-09-27T13:31:00.000Z</time>
      </trkpt>
      <trkpt lat="42.84782" lon="1.3235">
        <ele>1401</ele>
        <time>2025-09-27T13:31:01.000Z</time>
      </trkpt>
      <trkpt lat="42.84786" lon="1.32343">
        <ele>1398</ele>
        <time>2025-09-27T13:31:02.000Z</time>
      </trkpt>
      <trkpt lat="42.8479" lon="1.32335">
        <ele>1394</ele>
        <time>2025-09-27T13:31:03.000Z</time>
      </trkpt>
      <trkpt lat="42.84793" lon="1.32327">
        <ele>1393</ele>
        <time>2025-09-27T13:31:04.000Z</time>
      </trkpt>
      <trkpt lat="42.84796" lon="1.3232">
        <ele>1392</ele>
        <time>2025-09-27T13:31:05.000Z</time>
      </trkpt>
      <trkpt lat="42.84799" lon="1.32313">
        <ele>1389</ele>
        <time>2025-09-27T13:31:06.000Z</time>
      </trkpt>
      <trkpt lat="42.84803" lon="1.32308">
        <ele>1388</ele>
        <time>2025-09-27T13:31:07.000Z</time>
      </trkpt>
      <trkpt lat="42.84809" lon="1.32306">
        <ele>1386</ele>
        <time>2025-09-27T13:31:08.000Z</time>
      </trkpt>
      <trkpt lat="42.84814" lon="1.32303">
        <ele>1385</ele>
        <time>2025-09-27T13:31:09.000Z</time>
      </trkpt>
      <trkpt lat="42.84818" lon="1.32299">
        <ele>1384</ele>
        <time>2025-09-27T13:31:10.000Z</time>
      </trkpt>
      <trkpt lat="42.8482" lon="1.32294">
        <ele>1381</ele>
        <time>2025-09-27T13:31:11.000Z</time>
      </trkpt>
      <trkpt lat="42.84824" lon="1.32287">
        <ele>1381</ele>
        <time>2025-09-27T13:31:12.000Z</time>
      </trkpt>
      <trkpt lat="42.84828" lon="1.32279">
        <ele>1380</ele>
        <time>2025-09-27T13:31:13.000Z</time>
      </trkpt>
      <trkpt lat="42.84833" lon="1.32272">
        <ele>1379</ele>
        <time>2025-09-27T13:31:14.000Z</time>
      </trkpt>
      <trkpt lat="42.84837" lon="1.32267">
        <ele>1378</ele>
        <time>2025-09-27T13:31:15.000Z</time>
      </trkpt>
      <trkpt lat="42.84842" lon="1.32262">
        <ele>1378</ele>
        <time>2025-09-27T13:31:16.000Z</time>
      </trkpt>
      <trkpt lat="42.84847" lon="1.32259">
        <ele>1377</ele>
        <time>2025-09-27T13:31:17.000Z</time>
      </trkpt>
      <trkpt lat="42.84853" lon="1.32255">
        <ele>1376</ele>
        <time>2025-09-27T13:31:18.000Z</time>
      </trkpt>
      <trkpt lat="42.84859" lon="1.32251">
        <ele>1375</ele>
        <time>2025-09-27T13:31:19.000Z</time>
      </trkpt>
      <trkpt lat="42.84866" lon="1.32248">
        <ele>1375</ele>
        <time>2025-09-27T13:31:20.000Z</time>
      </trkpt>
      <trkpt lat="42.84873" lon="1.32244">
        <ele>1375</ele>
        <time>2025-09-27T13:31:21.000Z</time>
      </trkpt>
      <trkpt lat="42.84879" lon="1.32242">
        <ele>1375</ele>
        <time>2025-09-27T13:31:22.000Z</time>
      </trkpt>
      <trkpt lat="42.84885" lon="1.32238">
        <ele>1374</ele>
        <time>2025-09-27T13:31:23.000Z</time>
      </trkpt>
      <trkpt lat="42.84891" lon="1.32234">
        <ele>1373</ele>
        <time>2025-09-27T13:31:24.000Z</time>
      </trkpt>
      <trkpt lat="42.84895" lon="1.3223">
        <ele>1373</ele>
        <time>2025-09-27T13:31:25.000Z</time>
      </trkpt>
      <trkpt lat="42.849" lon="1.32224">
        <ele>1372</ele>
        <time>2025-09-27T13:31:26.000Z</time>
      </trkpt>
      <trkpt lat="42.84905" lon="1.32216">
        <ele>1372</ele>
        <time>2025-09-27T13:31:27.000Z</time>
      </trkpt>
      <trkpt lat="42.84906" lon="1.32206">
        <ele>1371</ele>
        <time>2025-09-27T13:31:28.000Z</time>
      </trkpt>
      <trkpt lat="42.84907" lon="1.32198">
        <ele>1370</ele>
        <time>2025-09-27T13:31:29.000Z</time>
      </trkpt>
      <trkpt lat="42.84908" lon="1.32193">
        <ele>1370</ele>
        <time>2025-09-27T13:31:30.000Z</time>
      </trkpt>
      <trkpt lat="42.84909" lon="1.32189">
        <ele>1370</ele>
        <time>2025-09-27T13:31:31.000Z</time>
      </trkpt>
      <trkpt lat="42.84909" lon="1.32184">
        <ele>1368</ele>
        <time>2025-09-27T13:31:32.000Z</time>
      </trkpt>
      <trkpt lat="42.84908" lon="1.3218">
        <ele>1368</ele>
        <time>2025-09-27T13:31:33.000Z</time>
      </trkpt>
      <trkpt lat="42.84907" lon="1.32177">
        <ele>1368</ele>
        <time>2025-09-27T13:31:34.000Z</time>
      </trkpt>
      <trkpt lat="42.84906" lon="1.32173">
        <ele>1367</ele>
        <time>2025-09-27T13:31:35.000Z</time>
      </trkpt>
      <trkpt lat="42.84905" lon="1.32167">
        <ele>1367</ele>
        <time>2025-09-27T13:31:36.000Z</time>
      </trkpt>
      <trkpt lat="42.84903" lon="1.32162">
        <ele>1365</ele>
        <time>2025-09-27T13:31:37.000Z</time>
      </trkpt>
      <trkpt lat="42.84905" lon="1.32154">
        <ele>1363</ele>
        <time>2025-09-27T13:31:38.000Z</time>
      </trkpt>
      <trkpt lat="42.84905" lon="1.32147">
        <ele>1361</ele>
        <time>2025-09-27T13:31:39.000Z</time>
      </trkpt>
      <trkpt lat="42.84906" lon="1.32139">
        <ele>1361</ele>
        <time>2025-09-27T13:31:40.000Z</time>
      </trkpt>
      <trkpt lat="42.84906" lon="1.32131">
        <ele>1360</ele>
        <time>2025-09-27T13:31:41.000Z</time>
      </trkpt>
      <trkpt lat="42.84907" lon="1.32124">
        <ele>1360</ele>
        <time>2025-09-27T13:31:42.000Z</time>
      </trkpt>
      <trkpt lat="42.84908" lon="1.32116">
        <ele>1359</ele>
        <time>2025-09-27T13:31:43.000Z</time>
      </trkpt>
      <trkpt lat="42.84909" lon="1.32108">
        <ele>1358</ele>
        <time>2025-09-27T13:31:44.000Z</time>
      </trkpt>
      <trkpt lat="42.84911" lon="1.321">
        <ele>1357</ele>
        <time>2025-09-27T13:31:45.000Z</time>
      </trkpt>
      <trkpt lat="42.84912" lon="1.32092">
        <ele>1356</ele>
        <time>2025-09-27T13:31:46.000Z</time>
      </trkpt>
      <trkpt lat="42.84914" lon="1.32084">
        <ele>1354</ele>
        <time>2025-09-27T13:31:47.000Z</time>
      </trkpt>
      <trkpt lat="42.84917" lon="1.32077">
        <ele>1352</ele>
        <time>2025-09-27T13:31:48.000Z</time>
      </trkpt>
      <trkpt lat="42.84919" lon="1.32068">
        <ele>1351</ele>
        <time>2025-09-27T13:31:49.000Z</time>
      </trkpt>
      <trkpt lat="42.84923" lon="1.32061">
        <ele>1349</ele>
        <time>2025-09-27T13:31:50.000Z</time>
      </trkpt>
      <trkpt lat="42.84925" lon="1.32057">
        <ele>1349</ele>
        <time>2025-09-27T13:31:51.000Z</time>
      </trkpt>
      <trkpt lat="42.84926" lon="1.32051">
        <ele>1348</ele>
        <time>2025-09-27T13:31:52.000Z</time>
      </trkpt>
      <trkpt lat="42.84929" lon="1.32046">
        <ele>1347</ele>
        <time>2025-09-27T13:31:53.000Z</time>
      </trkpt>
      <trkpt lat="42.84932" lon="1.32037">
        <ele>1345</ele>
        <time>2025-09-27T13:31:54.000Z</time>
      </trkpt>
      <trkpt lat="42.84935" lon="1.3203">
        <ele>1344</ele>
        <time>2025-09-27T13:31:55.000Z</time>
      </trkpt>
      <trkpt lat="42.84938" lon="1.32025">
        <ele>1343</ele>
        <time>2025-09-27T13:31:56.000Z</time>
      </trkpt>
      <trkpt lat="42.8494" lon="1.3202">
        <ele>1342</ele>
        <time>2025-09-27T13:31:57.000Z</time>
      </trkpt>
      <trkpt lat="42.84945" lon="1.32015">
        <ele>1341</ele>
        <time>2025-09-27T13:31:58.000Z</time>
      </trkpt>
      <trkpt lat="42.84949" lon="1.32009">
        <ele>1340</ele>
        <time>2025-09-27T13:31:59.000Z</time>
      </trkpt>
      <trkpt lat="42.84953" lon="1.32002">
        <ele>1338</ele>
        <time>2025-09-27T13:32:00.000Z</time>
      </trkpt>
      <trkpt lat="42.84956" lon="1.31995">
        <ele>1337</ele>
        <time>2025-09-27T13:32:01.000Z</time>
      </trkpt>
      <trkpt lat="42.84958" lon="1.31988">
        <ele>1336</ele>
        <time>2025-09-27T13:32:02.000Z</time>
      </trkpt>
      <trkpt lat="42.84959" lon="1.31981">
        <ele>1334</ele>
        <time>2025-09-27T13:32:03.000Z</time>
      </trkpt>
      <trkpt lat="42.84958" lon="1.31973">
        <ele>1334</ele>
        <time>2025-09-27T13:32:04.000Z</time>
      </trkpt>
      <trkpt lat="42.84958" lon="1.31966">
        <ele>1333</ele>
        <time>2025-09-27T13:32:05.000Z</time>
      </trkpt>
      <trkpt lat="42.84956" lon="1.31959">
        <ele>1332</ele>
        <time>2025-09-27T13:32:06.000Z</time>
      </trkpt>
      <trkpt lat="42.84955" lon="1.31953">
        <ele>1331</ele>
        <time>2025-09-27T13:32:07.000Z</time>
      </trkpt>
      <trkpt lat="42.84952" lon="1.31946">
        <ele>1330</ele>
        <time>2025-09-27T13:32:08.000Z</time>
      </trkpt>
      <trkpt lat="42.84948" lon="1.31939">
        <ele>1329</ele>
        <time>2025-09-27T13:32:09.000Z</time>
      </trkpt>
      <trkpt lat="42.84945" lon="1.31931">
        <ele>1327</ele>
        <time>2025-09-27T13:32:10.000Z</time>
      </trkpt>
      <trkpt lat="42.84942" lon="1.31925">
        <ele>1326</ele>
        <time>2025-09-27T13:32:11.000Z</time>
      </trkpt>
      <trkpt lat="42.84939" lon="1.31919">
        <ele>1325</ele>
        <time>2025-09-27T13:32:12.000Z</time>
      </trkpt>
      <trkpt lat="42.84937" lon="1.31915">
        <ele>1323</ele>
        <time>2025-09-27T13:32:13.000Z</time>
      </trkpt>
      <trkpt lat="42.84936" lon="1.31914">
        <ele>1323</ele>
        <time>2025-09-27T13:32:14.000Z</time>
      </trkpt>
      <trkpt lat="42.84935" lon="1.31911">
        <ele>1322</ele>
        <time>2025-09-27T13:32:15.000Z</time>
      </trkpt>
      <trkpt lat="42.84933" lon="1.31909">
        <ele>1322</ele>
        <time>2025-09-27T13:32:16.000Z</time>
      </trkpt>
      <trkpt lat="42.84932" lon="1.31906">
        <ele>1321</ele>
        <time>2025-09-27T13:32:17.000Z</time>
      </trkpt>
      <trkpt lat="42.84931" lon="1.31906">
        <ele>1321</ele>
        <time>2025-09-27T13:32:18.000Z</time>
      </trkpt>
      <trkpt lat="42.8493" lon="1.31906">
        <ele>1321</ele>
        <time>2025-09-27T13:32:19.000Z</time>
      </trkpt>
      <trkpt lat="42.8493" lon="1.31906">
        <ele>1320</ele>
        <time>2025-09-27T13:32:20.000Z</time>
      </trkpt>
      <trkpt lat="42.8493" lon="1.31905">
        <ele>1319</ele>
        <time>2025-09-27T13:32:21.000Z</time>
      </trkpt>
      <trkpt lat="42.8493" lon="1.31905">
        <ele>1319</ele>
        <time>2025-09-27T13:32:22.000Z</time>
      </trkpt>
      <trkpt lat="42.8493" lon="1.31905">
        <ele>1319</ele>
        <time>2025-09-27T13:32:23.000Z</time>
      </trkpt>
      <trkpt lat="42.84931" lon="1.31904">
        <ele>1319</ele>
        <time>2025-09-27T13:32:24.000Z</time>
      </trkpt>
      <trkpt lat="42.84934" lon="1.31903">
        <ele>1319</ele>
        <time>2025-09-27T13:32:25.000Z</time>
      </trkpt>
      <trkpt lat="42.84933" lon="1.31903">
        <ele>1319</ele>
        <time>2025-09-27T13:32:26.000Z</time>
      </trkpt>
      <trkpt lat="42.84933" lon="1.31901">
        <ele>1318</ele>
        <time>2025-09-27T13:32:27.000Z</time>
      </trkpt>
      <trkpt lat="42.84933" lon="1.31901">
        <ele>1318</ele>
        <time>2025-09-27T13:32:28.000Z</time>
      </trkpt>
      <trkpt lat="42.84932" lon="1.319">
        <ele>1317</ele>
        <time>2025-09-27T13:32:29.000Z</time>
      </trkpt>
      <trkpt lat="42.84931" lon="1.31899">
        <ele>1317</ele>
        <time>2025-09-27T13:32:30.000Z</time>
      </trkpt>
      <trkpt lat="42.8493" lon="1.31898">
        <ele>1314</ele>
        <time>2025-09-27T13:32:31.000Z</time>
      </trkpt>
      <trkpt lat="42.84926" lon="1.31898">
        <ele>1303</ele>
        <time>2025-09-27T13:33:36.000Z</time>
      </trkpt>
      <trkpt lat="42.84927" lon="1.31898">
        <ele>1302</ele>
        <time>2025-09-27T13:33:37.000Z</time>
      </trkpt>
      <trkpt lat="42.84927" lon="1.31899">
        <ele>1301</ele>
        <time>2025-09-27T13:33:38.000Z</time>
      </trkpt>
      <trkpt lat="42.84928" lon="1.31899">
        <ele>1300</ele>
        <time>2025-09-27T13:33:39.000Z</time>
      </trkpt>
      <trkpt lat="42.84932" lon="1.319">
        <ele>1299</ele>
        <time>2025-09-27T13:34:10.000Z</time>
      </trkpt>
      <trkpt lat="42.84932" lon="1.31899">
        <ele>1299</ele>
        <time>2025-09-27T13:34:11.000Z</time>
      </trkpt>
      <trkpt lat="42.84931" lon="1.31897">
        <ele>1298</ele>
        <time>2025-09-27T13:34:12.000Z</time>
      </trkpt>
      <trkpt lat="42.84931" lon="1.31896">
        <ele>1298</ele>
        <time>2025-09-27T13:34:13.000Z</time>
      </trkpt>
      <trkpt lat="42.84931" lon="1.31895">
        <ele>1297</ele>
        <time>2025-09-27T13:34:14.000Z</time>
      </trkpt>
      <trkpt lat="42.84932" lon="1.31895">
        <ele>1296</ele>
        <time>2025-09-27T13:34:15.000Z</time>
      </trkpt>
      <trkpt lat="42.84932" lon="1.31894">
        <ele>1297</ele>
        <time>2025-09-27T13:34:16.000Z</time>
      </trkpt>
      <trkpt lat="42.84931" lon="1.31894">
        <ele>1296</ele>
        <time>2025-09-27T13:34:17.000Z</time>
      </trkpt>
      <trkpt lat="42.84931" lon="1.31894">
        <ele>1296</ele>
        <time>2025-09-27T13:34:18.000Z</time>
      </trkpt>
      <trkpt lat="42.8493" lon="1.31894">
        <ele>1295</ele>
        <time>2025-09-27T13:34:19.000Z</time>
      </trkpt>
      <trkpt lat="42.8493" lon="1.31895">
        <ele>1294</ele>
        <time>2025-09-27T13:34:20.000Z</time>
      </trkpt>
      <trkpt lat="42.84929" lon="1.31896">
        <ele>1293</ele>
        <time>2025-09-27T13:34:21.000Z</time>
      </trkpt>
      <trkpt lat="42.84931" lon="1.31897">
        <ele>1293</ele>
        <time>2025-09-27T13:34:22.000Z</time>
      </trkpt>
      <trkpt lat="42.84931" lon="1.31897">
        <ele>1293</ele>
        <time>2025-09-27T13:34:23.000Z</time>
      </trkpt>
      <trkpt lat="42.84931" lon="1.31896">
        <ele>1293</ele>
        <time>2025-09-27T13:34:24.000Z</time>
      </trkpt>
      <trkpt lat="42.84932" lon="1.31896">
        <ele>1293</ele>
        <time>2025-09-27T13:34:25.000Z</time>
      </trkpt>
      <trkpt lat="42.84932" lon="1.31895">
        <ele>1292</ele>
        <time>2025-09-27T13:34:26.000Z</time>
      </trkpt>
      <trkpt lat="42.84932" lon="1.31895">
        <ele>1292</ele>
        <time>2025-09-27T13:34:27.000Z</time>
      </trkpt>
      <trkpt lat="42.84931" lon="1.31894">
        <ele>1290</ele>
        <time>2025-09-27T13:34:28.000Z</time>
      </trkpt>
      <trkpt lat="42.8493" lon="1.31894">
        <ele>1289</ele>
        <time>2025-09-27T13:34:29.000Z</time>
      </trkpt>
      <trkpt lat="42.8493" lon="1.31894">
        <ele>1289</ele>
        <time>2025-09-27T13:34:30.000Z</time>
      </trkpt>
      <trkpt lat="42.8493" lon="1.31894">
        <ele>1289</ele>
        <time>2025-09-27T13:34:31.000Z</time>
      </trkpt>
      <trkpt lat="42.84928" lon="1.31893">
        <ele>1287</ele>
        <time>2025-09-27T13:34:32.000Z</time>
      </trkpt>
      <trkpt lat="42.84928" lon="1.31892">
        <ele>1287</ele>
        <time>2025-09-27T13:34:33.000Z</time>
      </trkpt>
      <trkpt lat="42.84929" lon="1.31892">
        <ele>1287</ele>
        <time>2025-09-27T13:34:34.000Z</time>
      </trkpt>
      <trkpt lat="42.8493" lon="1.31892">
        <ele>1287</ele>
        <time>2025-09-27T13:34:35.000Z</time>
      </trkpt>
      <trkpt lat="42.8493" lon="1.31892">
        <ele>1287</ele>
        <time>2025-09-27T13:34:36.000Z</time>
      </trkpt>
      <trkpt lat="42.8493" lon="1.31891">
        <ele>1287</ele>
        <time>2025-09-27T13:34:37.000Z</time>
      </trkpt>
      <trkpt lat="42.8493" lon="1.31891">
        <ele>1287</ele>
        <time>2025-09-27T13:34:38.000Z</time>
      </trkpt>
      <trkpt lat="42.8493" lon="1.3189">
        <ele>1286</ele>
        <time>2025-09-27T13:34:39.000Z</time>
      </trkpt>
      <trkpt lat="42.8493" lon="1.31889">
        <ele>1287</ele>
        <time>2025-09-27T13:34:40.000Z</time>
      </trkpt>
      <trkpt lat="42.84929" lon="1.3189">
        <ele>1288</ele>
        <time>2025-09-27T13:34:41.000Z</time>
      </trkpt>
      <trkpt lat="42.84927" lon="1.31889">
        <ele>1287</ele>
        <time>2025-09-27T13:34:42.000Z</time>
      </trkpt>
      <trkpt lat="42.84926" lon="1.31889">
        <ele>1287</ele>
        <time>2025-09-27T13:34:43.000Z</time>
      </trkpt>
      <trkpt lat="42.84923" lon="1.31888">
        <ele>1287</ele>
        <time>2025-09-27T13:34:44.000Z</time>
      </trkpt>
      <trkpt lat="42.8492" lon="1.31887">
        <ele>1287</ele>
        <time>2025-09-27T13:34:45.000Z</time>
      </trkpt>
      <trkpt lat="42.84917" lon="1.31887">
        <ele>1287</ele>
        <time>2025-09-27T13:34:46.000Z</time>
      </trkpt>
      <trkpt lat="42.84913" lon="1.31885">
        <ele>1287</ele>
        <time>2025-09-27T13:34:47.000Z</time>
      </trkpt>
      <trkpt lat="42.8491" lon="1.31884">
        <ele>1287</ele>
        <time>2025-09-27T13:34:48.000Z</time>
      </trkpt>
      <trkpt lat="42.84907" lon="1.31883">
        <ele>1288</ele>
        <time>2025-09-27T13:34:49.000Z</time>
      </trkpt>
      <trkpt lat="42.84903" lon="1.31884">
        <ele>1287</ele>
        <time>2025-09-27T13:34:50.000Z</time>
      </trkpt>
      <trkpt lat="42.849" lon="1.31885">
        <ele>1287</ele>
        <time>2025-09-27T13:34:51.000Z</time>
      </trkpt>
      <trkpt lat="42.84897" lon="1.31884">
        <ele>1287</ele>
        <time>2025-09-27T13:34:52.000Z</time>
      </trkpt>
      <trkpt lat="42.84894" lon="1.31884">
        <ele>1287</ele>
        <time>2025-09-27T13:34:53.000Z</time>
      </trkpt>
      <trkpt lat="42.84891" lon="1.31883">
        <ele>1287</ele>
        <time>2025-09-27T13:34:54.000Z</time>
      </trkpt>
      <trkpt lat="42.84889" lon="1.31882">
        <ele>1286</ele>
        <time>2025-09-27T13:34:55.000Z</time>
      </trkpt>
      <trkpt lat="42.84887" lon="1.31882">
        <ele>1286</ele>
        <time>2025-09-27T13:34:56.000Z</time>
      </trkpt>
      <trkpt lat="42.84885" lon="1.31882">
        <ele>1286</ele>
        <time>2025-09-27T13:34:57.000Z</time>
      </trkpt>
      <trkpt lat="42.84883" lon="1.31883">
        <ele>1285</ele>
        <time>2025-09-27T13:34:58.000Z</time>
      </trkpt>
      <trkpt lat="42.84881" lon="1.31883">
        <ele>1284</ele>
        <time>2025-09-27T13:34:59.000Z</time>
      </trkpt>
      <trkpt lat="42.84879" lon="1.31883">
        <ele>1283</ele>
        <time>2025-09-27T13:35:00.000Z</time>
      </trkpt>
      <trkpt lat="42.84877" lon="1.31884">
        <ele>1283</ele>
        <time>2025-09-27T13:35:01.000Z</time>
      </trkpt>
      <trkpt lat="42.84873" lon="1.31885">
        <ele>1283</ele>
        <time>2025-09-27T13:35:02.000Z</time>
      </trkpt>
      <trkpt lat="42.84868" lon="1.31885">
        <ele>1283</ele>
        <time>2025-09-27T13:35:03.000Z</time>
      </trkpt>
      <trkpt lat="42.84864" lon="1.31885">
        <ele>1282</ele>
        <time>2025-09-27T13:35:04.000Z</time>
      </trkpt>
      <trkpt lat="42.84861" lon="1.31883">
        <ele>1281</ele>
        <time>2025-09-27T13:35:05.000Z</time>
      </trkpt>
      <trkpt lat="42.84859" lon="1.31879">
        <ele>1280</ele>
        <time>2025-09-27T13:35:06.000Z</time>
      </trkpt>
      <trkpt lat="42.84857" lon="1.31874">
        <ele>1280</ele>
        <time>2025-09-27T13:35:07.000Z</time>
      </trkpt>
      <trkpt lat="42.84856" lon="1.31867">
        <ele>1280</ele>
        <time>2025-09-27T13:35:08.000Z</time>
      </trkpt>
      <trkpt lat="42.84855" lon="1.31861">
        <ele>1280</ele>
        <time>2025-09-27T13:35:09.000Z</time>
      </trkpt>
      <trkpt lat="42.84853" lon="1.31853">
        <ele>1279</ele>
        <time>2025-09-27T13:35:10.000Z</time>
      </trkpt>
      <trkpt lat="42.84853" lon="1.31845">
        <ele>1278</ele>
        <time>2025-09-27T13:35:11.000Z</time>
      </trkpt>
      <trkpt lat="42.84853" lon="1.31837">
        <ele>1278</ele>
        <time>2025-09-27T13:35:12.000Z</time>
      </trkpt>
      <trkpt lat="42.84856" lon="1.31828">
        <ele>1277</ele>
        <time>2025-09-27T13:35:13.000Z</time>
      </trkpt>
      <trkpt lat="42.8486" lon="1.3182">
        <ele>1277</ele>
        <time>2025-09-27T13:35:14.000Z</time>
      </trkpt>
      <trkpt lat="42.84863" lon="1.31813">
        <ele>1276</ele>
        <time>2025-09-27T13:35:15.000Z</time>
      </trkpt>
      <trkpt lat="42.84866" lon="1.31805">
        <ele>1275</ele>
        <time>2025-09-27T13:35:16.000Z</time>
      </trkpt>
      <trkpt lat="42.84868" lon="1.31797">
        <ele>1275</ele>
        <time>2025-09-27T13:35:17.000Z</time>
      </trkpt>
      <trkpt lat="42.84872" lon="1.3179">
        <ele>1274</ele>
        <time>2025-09-27T13:35:18.000Z</time>
      </trkpt>
      <trkpt lat="42.84875" lon="1.31782">
        <ele>1274</ele>
        <time>2025-09-27T13:35:19.000Z</time>
      </trkpt>
      <trkpt lat="42.84877" lon="1.31775">
        <ele>1273</ele>
        <time>2025-09-27T13:35:20.000Z</time>
      </trkpt>
      <trkpt lat="42.8488" lon="1.31769">
        <ele>1272</ele>
        <time>2025-09-27T13:35:21.000Z</time>
      </trkpt>
      <trkpt lat="42.84882" lon="1.31764">
        <ele>1272</ele>
        <time>2025-09-27T13:35:22.000Z</time>
      </trkpt>
      <trkpt lat="42.84884" lon="1.31761">
        <ele>1272</ele>
        <time>2025-09-27T13:35:23.000Z</time>
      </trkpt>
      <trkpt lat="42.84887" lon="1.31757">
        <ele>1271</ele>
        <time>2025-09-27T13:35:24.000Z</time>
      </trkpt>
      <trkpt lat="42.84889" lon="1.31753">
        <ele>1271</ele>
        <time>2025-09-27T13:35:25.000Z</time>
      </trkpt>
      <trkpt lat="42.84892" lon="1.31749">
        <ele>1270</ele>
        <time>2025-09-27T13:35:26.000Z</time>
      </trkpt>
      <trkpt lat="42.84893" lon="1.31746">
        <ele>1270</ele>
        <time>2025-09-27T13:35:27.000Z</time>
      </trkpt>
      <trkpt lat="42.84894" lon="1.31743">
        <ele>1270</ele>
        <time>2025-09-27T13:35:28.000Z</time>
      </trkpt>
      <trkpt lat="42.84894" lon="1.31739">
        <ele>1269</ele>
        <time>2025-09-27T13:35:29.000Z</time>
      </trkpt>
      <trkpt lat="42.84894" lon="1.31736">
        <ele>1269</ele>
        <time>2025-09-27T13:35:30.000Z</time>
      </trkpt>
      <trkpt lat="42.84894" lon="1.31732">
        <ele>1269</ele>
        <time>2025-09-27T13:35:31.000Z</time>
      </trkpt>
      <trkpt lat="42.84894" lon="1.3173">
        <ele>1269</ele>
        <time>2025-09-27T13:35:32.000Z</time>
      </trkpt>
      <trkpt lat="42.84893" lon="1.31727">
        <ele>1269</ele>
        <time>2025-09-27T13:35:33.000Z</time>
      </trkpt>
      <trkpt lat="42.84893" lon="1.31725">
        <ele>1269</ele>
        <time>2025-09-27T13:35:34.000Z</time>
      </trkpt>
      <trkpt lat="42.84892" lon="1.31722">
        <ele>1268</ele>
        <time>2025-09-27T13:35:35.000Z</time>
      </trkpt>
      <trkpt lat="42.84892" lon="1.31719">
        <ele>1268</ele>
        <time>2025-09-27T13:35:36.000Z</time>
      </trkpt>
      <trkpt lat="42.84891" lon="1.31715">
        <ele>1268</ele>
        <time>2025-09-27T13:35:37.000Z</time>
      </trkpt>
      <trkpt lat="42.8489" lon="1.31711">
        <ele>1267</ele>
        <time>2025-09-27T13:35:38.000Z</time>
      </trkpt>
      <trkpt lat="42.84889" lon="1.31708">
        <ele>1266</ele>
        <time>2025-09-27T13:35:39.000Z</time>
      </trkpt>
      <trkpt lat="42.84889" lon="1.31703">
        <ele>1265</ele>
        <time>2025-09-27T13:35:40.000Z</time>
      </trkpt>
      <trkpt lat="42.84889" lon="1.31699">
        <ele>1264</ele>
        <time>2025-09-27T13:35:41.000Z</time>
      </trkpt>
      <trkpt lat="42.84889" lon="1.31695">
        <ele>1264</ele>
        <time>2025-09-27T13:35:42.000Z</time>
      </trkpt>
      <trkpt lat="42.84889" lon="1.31692">
        <ele>1264</ele>
        <time>2025-09-27T13:35:43.000Z</time>
      </trkpt>
      <trkpt lat="42.84887" lon="1.31689">
        <ele>1263</ele>
        <time>2025-09-27T13:35:44.000Z</time>
      </trkpt>
      <trkpt lat="42.84887" lon="1.31685">
        <ele>1263</ele>
        <time>2025-09-27T13:35:45.000Z</time>
      </trkpt>
      <trkpt lat="42.84886" lon="1.31679">
        <ele>1262</ele>
        <time>2025-09-27T13:35:46.000Z</time>
      </trkpt>
      <trkpt lat="42.84886" lon="1.31673">
        <ele>1262</ele>
        <time>2025-09-27T13:35:47.000Z</time>
      </trkpt>
      <trkpt lat="42.84886" lon="1.31665">
        <ele>1261</ele>
        <time>2025-09-27T13:35:48.000Z</time>
      </trkpt>
      <trkpt lat="42.84886" lon="1.31656">
        <ele>1261</ele>
        <time>2025-09-27T13:35:49.000Z</time>
      </trkpt>
      <trkpt lat="42.84885" lon="1.31649">
        <ele>1260</ele>
        <time>2025-09-27T13:35:50.000Z</time>
      </trkpt>
      <trkpt lat="42.84885" lon="1.31642">
        <ele>1259</ele>
        <time>2025-09-27T13:35:51.000Z</time>
      </trkpt>
      <trkpt lat="42.84885" lon="1.31636">
        <ele>1259</ele>
        <time>2025-09-27T13:35:52.000Z</time>
      </trkpt>
      <trkpt lat="42.84885" lon="1.31631">
        <ele>1258</ele>
        <time>2025-09-27T13:35:53.000Z</time>
      </trkpt>
      <trkpt lat="42.84886" lon="1.31627">
        <ele>1257</ele>
        <time>2025-09-27T13:35:54.000Z</time>
      </trkpt>
      <trkpt lat="42.84888" lon="1.31623">
        <ele>1256</ele>
        <time>2025-09-27T13:35:55.000Z</time>
      </trkpt>
      <trkpt lat="42.84891" lon="1.31619">
        <ele>1256</ele>
        <time>2025-09-27T13:35:56.000Z</time>
      </trkpt>
      <trkpt lat="42.84896" lon="1.31613">
        <ele>1255</ele>
        <time>2025-09-27T13:35:57.000Z</time>
      </trkpt>
      <trkpt lat="42.84901" lon="1.31605">
        <ele>1253</ele>
        <time>2025-09-27T13:35:58.000Z</time>
      </trkpt>
      <trkpt lat="42.84905" lon="1.31601">
        <ele>1253</ele>
        <time>2025-09-27T13:35:59.000Z</time>
      </trkpt>
      <trkpt lat="42.84909" lon="1.31596">
        <ele>1252</ele>
        <time>2025-09-27T13:36:00.000Z</time>
      </trkpt>
      <trkpt lat="42.84914" lon="1.31589">
        <ele>1251</ele>
        <time>2025-09-27T13:36:01.000Z</time>
      </trkpt>
      <trkpt lat="42.84918" lon="1.31583">
        <ele>1249</ele>
        <time>2025-09-27T13:36:02.000Z</time>
      </trkpt>
      <trkpt lat="42.84923" lon="1.31578">
        <ele>1248</ele>
        <time>2025-09-27T13:36:03.000Z</time>
      </trkpt>
      <trkpt lat="42.84927" lon="1.31575">
        <ele>1246</ele>
        <time>2025-09-27T13:36:04.000Z</time>
      </trkpt>
      <trkpt lat="42.84931" lon="1.31568">
        <ele>1242</ele>
        <time>2025-09-27T13:36:05.000Z</time>
      </trkpt>
      <trkpt lat="42.84934" lon="1.31562">
        <ele>1239</ele>
        <time>2025-09-27T13:36:06.000Z</time>
      </trkpt>
      <trkpt lat="42.84938" lon="1.31556">
        <ele>1238</ele>
        <time>2025-09-27T13:36:07.000Z</time>
      </trkpt>
      <trkpt lat="42.8494" lon="1.31547">
        <ele>1238</ele>
        <time>2025-09-27T13:36:08.000Z</time>
      </trkpt>
      <trkpt lat="42.84943" lon="1.31539">
        <ele>1238</ele>
        <time>2025-09-27T13:36:09.000Z</time>
      </trkpt>
      <trkpt lat="42.84945" lon="1.3153">
        <ele>1237</ele>
        <time>2025-09-27T13:36:10.000Z</time>
      </trkpt>
      <trkpt lat="42.84948" lon="1.31522">
        <ele>1236</ele>
        <time>2025-09-27T13:36:11.000Z</time>
      </trkpt>
      <trkpt lat="42.84951" lon="1.31513">
        <ele>1235</ele>
        <time>2025-09-27T13:36:12.000Z</time>
      </trkpt>
      <trkpt lat="42.84954" lon="1.31503">
        <ele>1235</ele>
        <time>2025-09-27T13:36:13.000Z</time>
      </trkpt>
      <trkpt lat="42.84957" lon="1.31494">
        <ele>1234</ele>
        <time>2025-09-27T13:36:14.000Z</time>
      </trkpt>
      <trkpt lat="42.84959" lon="1.31484">
        <ele>1233</ele>
        <time>2025-09-27T13:36:15.000Z</time>
      </trkpt>
      <trkpt lat="42.84962" lon="1.31475">
        <ele>1233</ele>
        <time>2025-09-27T13:36:16.000Z</time>
      </trkpt>
      <trkpt lat="42.84964" lon="1.31466">
        <ele>1232</ele>
        <time>2025-09-27T13:36:17.000Z</time>
      </trkpt>
      <trkpt lat="42.84964" lon="1.31459">
        <ele>1232</ele>
        <time>2025-09-27T13:36:18.000Z</time>
      </trkpt>
      <trkpt lat="42.84965" lon="1.31453">
        <ele>1231</ele>
        <time>2025-09-27T13:36:19.000Z</time>
      </trkpt>
      <trkpt lat="42.84965" lon="1.31447">
        <ele>1231</ele>
        <time>2025-09-27T13:36:20.000Z</time>
      </trkpt>
      <trkpt lat="42.84965" lon="1.3144">
        <ele>1230</ele>
        <time>2025-09-27T13:36:21.000Z</time>
      </trkpt>
      <trkpt lat="42.84965" lon="1.31433">
        <ele>1230</ele>
        <time>2025-09-27T13:36:22.000Z</time>
      </trkpt>
      <trkpt lat="42.84965" lon="1.31426">
        <ele>1229</ele>
        <time>2025-09-27T13:36:23.000Z</time>
      </trkpt>
      <trkpt lat="42.84966" lon="1.31416">
        <ele>1226</ele>
        <time>2025-09-27T13:36:24.000Z</time>
      </trkpt>
      <trkpt lat="42.84967" lon="1.31408">
        <ele>1225</ele>
        <time>2025-09-27T13:36:25.000Z</time>
      </trkpt>
      <trkpt lat="42.84968" lon="1.314">
        <ele>1224</ele>
        <time>2025-09-27T13:36:26.000Z</time>
      </trkpt>
      <trkpt lat="42.84968" lon="1.31393">
        <ele>1223</ele>
        <time>2025-09-27T13:36:27.000Z</time>
      </trkpt>
      <trkpt lat="42.84968" lon="1.31387">
        <ele>1222</ele>
        <time>2025-09-27T13:36:28.000Z</time>
      </trkpt>
      <trkpt lat="42.84969" lon="1.31381">
        <ele>1219</ele>
        <time>2025-09-27T13:36:29.000Z</time>
      </trkpt>
      <trkpt lat="42.84969" lon="1.31376">
        <ele>1219</ele>
        <time>2025-09-27T13:36:30.000Z</time>
      </trkpt>
      <trkpt lat="42.84969" lon="1.31373">
        <ele>1218</ele>
        <time>2025-09-27T13:36:31.000Z</time>
      </trkpt>
      <trkpt lat="42.84968" lon="1.31369">
        <ele>1217</ele>
        <time>2025-09-27T13:36:32.000Z</time>
      </trkpt>
      <trkpt lat="42.84967" lon="1.31366">
        <ele>1217</ele>
        <time>2025-09-27T13:36:33.000Z</time>
      </trkpt>
      <trkpt lat="42.84966" lon="1.31363">
        <ele>1216</ele>
        <time>2025-09-27T13:36:34.000Z</time>
      </trkpt>
      <trkpt lat="42.84964" lon="1.3136">
        <ele>1216</ele>
        <time>2025-09-27T13:36:35.000Z</time>
      </trkpt>
      <trkpt lat="42.84962" lon="1.31357">
        <ele>1215</ele>
        <time>2025-09-27T13:36:36.000Z</time>
      </trkpt>
      <trkpt lat="42.84959" lon="1.3135">
        <ele>1213</ele>
        <time>2025-09-27T13:36:37.000Z</time>
      </trkpt>
      <trkpt lat="42.84955" lon="1.31344">
        <ele>1211</ele>
        <time>2025-09-27T13:36:38.000Z</time>
      </trkpt>
      <trkpt lat="42.84952" lon="1.31338">
        <ele>1210</ele>
        <time>2025-09-27T13:36:39.000Z</time>
      </trkpt>
      <trkpt lat="42.8495" lon="1.31331">
        <ele>1208</ele>
        <time>2025-09-27T13:36:40.000Z</time>
      </trkpt>
      <trkpt lat="42.8495" lon="1.31324">
        <ele>1206</ele>
        <time>2025-09-27T13:36:41.000Z</time>
      </trkpt>
      <trkpt lat="42.84951" lon="1.31319">
        <ele>1206</ele>
        <time>2025-09-27T13:36:42.000Z</time>
      </trkpt>
      <trkpt lat="42.84952" lon="1.31314">
        <ele>1205</ele>
        <time>2025-09-27T13:36:43.000Z</time>
      </trkpt>
      <trkpt lat="42.84954" lon="1.31308">
        <ele>1205</ele>
        <time>2025-09-27T13:36:44.000Z</time>
      </trkpt>
      <trkpt lat="42.84956" lon="1.31304">
        <ele>1205</ele>
        <time>2025-09-27T13:36:45.000Z</time>
      </trkpt>
      <trkpt lat="42.84957" lon="1.313">
        <ele>1204</ele>
        <time>2025-09-27T13:36:46.000Z</time>
      </trkpt>
      <trkpt lat="42.84959" lon="1.31295">
        <ele>1204</ele>
        <time>2025-09-27T13:36:47.000Z</time>
      </trkpt>
      <trkpt lat="42.84962" lon="1.31291">
        <ele>1203</ele>
        <time>2025-09-27T13:36:48.000Z</time>
      </trkpt>
      <trkpt lat="42.84964" lon="1.31286">
        <ele>1202</ele>
        <time>2025-09-27T13:36:49.000Z</time>
      </trkpt>
      <trkpt lat="42.84966" lon="1.31281">
        <ele>1201</ele>
        <time>2025-09-27T13:36:50.000Z</time>
      </trkpt>
      <trkpt lat="42.84969" lon="1.31277">
        <ele>1200</ele>
        <time>2025-09-27T13:36:51.000Z</time>
      </trkpt>
      <trkpt lat="42.84971" lon="1.31274">
        <ele>1200</ele>
        <time>2025-09-27T13:36:52.000Z</time>
      </trkpt>
      <trkpt lat="42.84973" lon="1.31268">
        <ele>1199</ele>
        <time>2025-09-27T13:36:53.000Z</time>
      </trkpt>
      <trkpt lat="42.84977" lon="1.31266">
        <ele>1199</ele>
        <time>2025-09-27T13:36:54.000Z</time>
      </trkpt>
      <trkpt lat="42.8498" lon="1.31264">
        <ele>1198</ele>
        <time>2025-09-27T13:36:55.000Z</time>
      </trkpt>
      <trkpt lat="42.84984" lon="1.3126">
        <ele>1198</ele>
        <time>2025-09-27T13:36:56.000Z</time>
      </trkpt>
      <trkpt lat="42.84988" lon="1.31258">
        <ele>1197</ele>
        <time>2025-09-27T13:36:57.000Z</time>
      </trkpt>
      <trkpt lat="42.84992" lon="1.31257">
        <ele>1196</ele>
        <time>2025-09-27T13:36:58.000Z</time>
      </trkpt>
      <trkpt lat="42.84995" lon="1.31256">
        <ele>1196</ele>
        <time>2025-09-27T13:36:59.000Z</time>
      </trkpt>
      <trkpt lat="42.84999" lon="1.31254">
        <ele>1195</ele>
        <time>2025-09-27T13:37:00.000Z</time>
      </trkpt>
      <trkpt lat="42.85002" lon="1.31251">
        <ele>1195</ele>
        <time>2025-09-27T13:37:01.000Z</time>
      </trkpt>
      <trkpt lat="42.85005" lon="1.31249">
        <ele>1194</ele>
        <time>2025-09-27T13:37:02.000Z</time>
      </trkpt>
      <trkpt lat="42.85009" lon="1.31246">
        <ele>1193</ele>
        <time>2025-09-27T13:37:03.000Z</time>
      </trkpt>
      <trkpt lat="42.85013" lon="1.31245">
        <ele>1193</ele>
        <time>2025-09-27T13:37:04.000Z</time>
      </trkpt>
      <trkpt lat="42.85016" lon="1.31245">
        <ele>1192</ele>
        <time>2025-09-27T13:37:05.000Z</time>
      </trkpt>
      <trkpt lat="42.85018" lon="1.31244">
        <ele>1191</ele>
        <time>2025-09-27T13:37:06.000Z</time>
      </trkpt>
      <trkpt lat="42.85021" lon="1.31245">
        <ele>1191</ele>
        <time>2025-09-27T13:37:07.000Z</time>
      </trkpt>
      <trkpt lat="42.85024" lon="1.31247">
        <ele>1191</ele>
        <time>2025-09-27T13:37:08.000Z</time>
      </trkpt>
      <trkpt lat="42.85028" lon="1.31248">
        <ele>1190</ele>
        <time>2025-09-27T13:37:09.000Z</time>
      </trkpt>
      <trkpt lat="42.85033" lon="1.3125">
        <ele>1189</ele>
        <time>2025-09-27T13:37:10.000Z</time>
      </trkpt>
      <trkpt lat="42.85037" lon="1.31252">
        <ele>1189</ele>
        <time>2025-09-27T13:37:11.000Z</time>
      </trkpt>
      <trkpt lat="42.85041" lon="1.31255">
        <ele>1188</ele>
        <time>2025-09-27T13:37:12.000Z</time>
      </trkpt>
      <trkpt lat="42.85046" lon="1.31258">
        <ele>1187</ele>
        <time>2025-09-27T13:37:13.000Z</time>
      </trkpt>
      <trkpt lat="42.85051" lon="1.31259">
        <ele>1186</ele>
        <time>2025-09-27T13:37:14.000Z</time>
      </trkpt>
      <trkpt lat="42.8506" lon="1.31261">
        <ele>1185</ele>
        <time>2025-09-27T13:37:15.000Z</time>
      </trkpt>
      <trkpt lat="42.85069" lon="1.31265">
        <ele>1184</ele>
        <time>2025-09-27T13:37:16.000Z</time>
      </trkpt>
      <trkpt lat="42.85077" lon="1.31268">
        <ele>1183</ele>
        <time>2025-09-27T13:37:17.000Z</time>
      </trkpt>
      <trkpt lat="42.85086" lon="1.31272">
        <ele>1182</ele>
        <time>2025-09-27T13:37:18.000Z</time>
      </trkpt>
      <trkpt lat="42.85093" lon="1.31275">
        <ele>1181</ele>
        <time>2025-09-27T13:37:19.000Z</time>
      </trkpt>
      <trkpt lat="42.85099" lon="1.31278">
        <ele>1181</ele>
        <time>2025-09-27T13:37:20.000Z</time>
      </trkpt>
      <trkpt lat="42.85104" lon="1.31279">
        <ele>1181</ele>
        <time>2025-09-27T13:37:21.000Z</time>
      </trkpt>
      <trkpt lat="42.85108" lon="1.3128">
        <ele>1181</ele>
        <time>2025-09-27T13:37:22.000Z</time>
      </trkpt>
      <trkpt lat="42.85111" lon="1.31279">
        <ele>1180</ele>
        <time>2025-09-27T13:37:23.000Z</time>
      </trkpt>
      <trkpt lat="42.85113" lon="1.31278">
        <ele>1180</ele>
        <time>2025-09-27T13:37:24.000Z</time>
      </trkpt>
      <trkpt lat="42.85115" lon="1.31275">
        <ele>1180</ele>
        <time>2025-09-27T13:37:25.000Z</time>
      </trkpt>
      <trkpt lat="42.85116" lon="1.31273">
        <ele>1180</ele>
        <time>2025-09-27T13:37:26.000Z</time>
      </trkpt>
      <trkpt lat="42.85117" lon="1.31271">
        <ele>1179</ele>
        <time>2025-09-27T13:37:27.000Z</time>
      </trkpt>
      <trkpt lat="42.85119" lon="1.31268">
        <ele>1180</ele>
        <time>2025-09-27T13:37:28.000Z</time>
      </trkpt>
      <trkpt lat="42.8512" lon="1.31265">
        <ele>1180</ele>
        <time>2025-09-27T13:37:29.000Z</time>
      </trkpt>
      <trkpt lat="42.8512" lon="1.31261">
        <ele>1180</ele>
        <time>2025-09-27T13:37:30.000Z</time>
      </trkpt>
      <trkpt lat="42.8512" lon="1.31257">
        <ele>1179</ele>
        <time>2025-09-27T13:37:31.000Z</time>
      </trkpt>
      <trkpt lat="42.85118" lon="1.31253">
        <ele>1179</ele>
        <time>2025-09-27T13:37:32.000Z</time>
      </trkpt>
      <trkpt lat="42.85117" lon="1.31249">
        <ele>1179</ele>
        <time>2025-09-27T13:37:33.000Z</time>
      </trkpt>
      <trkpt lat="42.85115" lon="1.31244">
        <ele>1179</ele>
        <time>2025-09-27T13:37:34.000Z</time>
      </trkpt>
      <trkpt lat="42.85113" lon="1.3124">
        <ele>1178</ele>
        <time>2025-09-27T13:37:35.000Z</time>
      </trkpt>
      <trkpt lat="42.85112" lon="1.31236">
        <ele>1178</ele>
        <time>2025-09-27T13:37:36.000Z</time>
      </trkpt>
      <trkpt lat="42.8511" lon="1.31233">
        <ele>1178</ele>
        <time>2025-09-27T13:37:37.000Z</time>
      </trkpt>
      <trkpt lat="42.85107" lon="1.31229">
        <ele>1178</ele>
        <time>2025-09-27T13:37:38.000Z</time>
      </trkpt>
      <trkpt lat="42.85105" lon="1.31226">
        <ele>1178</ele>
        <time>2025-09-27T13:37:39.000Z</time>
      </trkpt>
      <trkpt lat="42.85103" lon="1.31223">
        <ele>1177</ele>
        <time>2025-09-27T13:37:40.000Z</time>
      </trkpt>
      <trkpt lat="42.85102" lon="1.31222">
        <ele>1177</ele>
        <time>2025-09-27T13:37:41.000Z</time>
      </trkpt>
      <trkpt lat="42.851" lon="1.3122">
        <ele>1177</ele>
        <time>2025-09-27T13:37:42.000Z</time>
      </trkpt>
      <trkpt lat="42.85098" lon="1.31217">
        <ele>1177</ele>
        <time>2025-09-27T13:37:43.000Z</time>
      </trkpt>
      <trkpt lat="42.85096" lon="1.31214">
        <ele>1177</ele>
        <time>2025-09-27T13:37:44.000Z</time>
      </trkpt>
      <trkpt lat="42.85095" lon="1.31211">
        <ele>1177</ele>
        <time>2025-09-27T13:37:45.000Z</time>
      </trkpt>
      <trkpt lat="42.85095" lon="1.31208">
        <ele>1177</ele>
        <time>2025-09-27T13:37:46.000Z</time>
      </trkpt>
      <trkpt lat="42.85095" lon="1.31203">
        <ele>1177</ele>
        <time>2025-09-27T13:37:47.000Z</time>
      </trkpt>
      <trkpt lat="42.85095" lon="1.312">
        <ele>1177</ele>
        <time>2025-09-27T13:37:48.000Z</time>
      </trkpt>
      <trkpt lat="42.85095" lon="1.31195">
        <ele>1176</ele>
        <time>2025-09-27T13:37:49.000Z</time>
      </trkpt>
      <trkpt lat="42.85094" lon="1.31191">
        <ele>1176</ele>
        <time>2025-09-27T13:37:50.000Z</time>
      </trkpt>
      <trkpt lat="42.85094" lon="1.31187">
        <ele>1175</ele>
        <time>2025-09-27T13:37:51.000Z</time>
      </trkpt>
      <trkpt lat="42.85095" lon="1.31182">
        <ele>1175</ele>
        <time>2025-09-27T13:37:52.000Z</time>
      </trkpt>
      <trkpt lat="42.85096" lon="1.31179">
        <ele>1175</ele>
        <time>2025-09-27T13:37:53.000Z</time>
      </trkpt>
      <trkpt lat="42.85098" lon="1.31175">
        <ele>1174</ele>
        <time>2025-09-27T13:37:54.000Z</time>
      </trkpt>
      <trkpt lat="42.85099" lon="1.31171">
        <ele>1174</ele>
        <time>2025-09-27T13:37:55.000Z</time>
      </trkpt>
      <trkpt lat="42.851" lon="1.31168">
        <ele>1173</ele>
        <time>2025-09-27T13:37:56.000Z</time>
      </trkpt>
      <trkpt lat="42.85104" lon="1.31165">
        <ele>1173</ele>
        <time>2025-09-27T13:37:57.000Z</time>
      </trkpt>
      <trkpt lat="42.85106" lon="1.31162">
        <ele>1173</ele>
        <time>2025-09-27T13:37:58.000Z</time>
      </trkpt>
      <trkpt lat="42.85109" lon="1.3116">
        <ele>1173</ele>
        <time>2025-09-27T13:37:59.000Z</time>
      </trkpt>
      <trkpt lat="42.85113" lon="1.31158">
        <ele>1172</ele>
        <time>2025-09-27T13:38:00.000Z</time>
      </trkpt>
      <trkpt lat="42.85117" lon="1.31156">
        <ele>1172</ele>
        <time>2025-09-27T13:38:01.000Z</time>
      </trkpt>
      <trkpt lat="42.85119" lon="1.31154">
        <ele>1172</ele>
        <time>2025-09-27T13:38:02.000Z</time>
      </trkpt>
      <trkpt lat="42.85121" lon="1.31153">
        <ele>1172</ele>
        <time>2025-09-27T13:38:03.000Z</time>
      </trkpt>
      <trkpt lat="42.85124" lon="1.31151">
        <ele>1172</ele>
        <time>2025-09-27T13:38:04.000Z</time>
      </trkpt>
      <trkpt lat="42.85127" lon="1.3115">
        <ele>1171</ele>
        <time>2025-09-27T13:38:05.000Z</time>
      </trkpt>
      <trkpt lat="42.8513" lon="1.31149">
        <ele>1171</ele>
        <time>2025-09-27T13:38:06.000Z</time>
      </trkpt>
      <trkpt lat="42.85133" lon="1.31148">
        <ele>1171</ele>
        <time>2025-09-27T13:38:07.000Z</time>
      </trkpt>
      <trkpt lat="42.85136" lon="1.31146">
        <ele>1171</ele>
        <time>2025-09-27T13:38:08.000Z</time>
      </trkpt>
      <trkpt lat="42.85139" lon="1.31144">
        <ele>1170</ele>
        <time>2025-09-27T13:38:09.000Z</time>
      </trkpt>
      <trkpt lat="42.85142" lon="1.31141">
        <ele>1170</ele>
        <time>2025-09-27T13:38:10.000Z</time>
      </trkpt>
      <trkpt lat="42.85146" lon="1.31139">
        <ele>1170</ele>
        <time>2025-09-27T13:38:11.000Z</time>
      </trkpt>
      <trkpt lat="42.8515" lon="1.31137">
        <ele>1170</ele>
        <time>2025-09-27T13:38:12.000Z</time>
      </trkpt>
      <trkpt lat="42.85153" lon="1.31135">
        <ele>1170</ele>
        <time>2025-09-27T13:38:13.000Z</time>
      </trkpt>
      <trkpt lat="42.85156" lon="1.31131">
        <ele>1169</ele>
        <time>2025-09-27T13:38:14.000Z</time>
      </trkpt>
      <trkpt lat="42.85159" lon="1.31126">
        <ele>1169</ele>
        <time>2025-09-27T13:38:15.000Z</time>
      </trkpt>
      <trkpt lat="42.85162" lon="1.31121">
        <ele>1169</ele>
        <time>2025-09-27T13:38:16.000Z</time>
      </trkpt>
      <trkpt lat="42.85165" lon="1.31116">
        <ele>1169</ele>
        <time>2025-09-27T13:38:17.000Z</time>
      </trkpt>
      <trkpt lat="42.85166" lon="1.31112">
        <ele>1169</ele>
        <time>2025-09-27T13:38:18.000Z</time>
      </trkpt>
      <trkpt lat="42.85166" lon="1.31108">
        <ele>1169</ele>
        <time>2025-09-27T13:38:19.000Z</time>
      </trkpt>
      <trkpt lat="42.85166" lon="1.31103">
        <ele>1169</ele>
        <time>2025-09-27T13:38:20.000Z</time>
      </trkpt>
      <trkpt lat="42.85163" lon="1.31098">
        <ele>1170</ele>
        <time>2025-09-27T13:38:21.000Z</time>
      </trkpt>
      <trkpt lat="42.85159" lon="1.31094">
        <ele>1170</ele>
        <time>2025-09-27T13:38:22.000Z</time>
      </trkpt>
      <trkpt lat="42.85154" lon="1.3109">
        <ele>1171</ele>
        <time>2025-09-27T13:38:23.000Z</time>
      </trkpt>
      <trkpt lat="42.85151" lon="1.31084">
        <ele>1171</ele>
        <time>2025-09-27T13:38:24.000Z</time>
      </trkpt>
      <trkpt lat="42.85147" lon="1.3108">
        <ele>1171</ele>
        <time>2025-09-27T13:38:25.000Z</time>
      </trkpt>
      <trkpt lat="42.85144" lon="1.31074">
        <ele>1171</ele>
        <time>2025-09-27T13:38:26.000Z</time>
      </trkpt>
      <trkpt lat="42.85141" lon="1.31068">
        <ele>1170</ele>
        <time>2025-09-27T13:38:27.000Z</time>
      </trkpt>
      <trkpt lat="42.85139" lon="1.31061">
        <ele>1169</ele>
        <time>2025-09-27T13:38:28.000Z</time>
      </trkpt>
      <trkpt lat="42.85138" lon="1.31056">
        <ele>1169</ele>
        <time>2025-09-27T13:38:29.000Z</time>
      </trkpt>
      <trkpt lat="42.85138" lon="1.31049">
        <ele>1168</ele>
        <time>2025-09-27T13:38:30.000Z</time>
      </trkpt>
      <trkpt lat="42.85139" lon="1.31042">
        <ele>1167</ele>
        <time>2025-09-27T13:38:31.000Z</time>
      </trkpt>
      <trkpt lat="42.85142" lon="1.31035">
        <ele>1165</ele>
        <time>2025-09-27T13:38:32.000Z</time>
      </trkpt>
      <trkpt lat="42.85145" lon="1.3103">
        <ele>1165</ele>
        <time>2025-09-27T13:38:33.000Z</time>
      </trkpt>
      <trkpt lat="42.8515" lon="1.31025">
        <ele>1165</ele>
        <time>2025-09-27T13:38:34.000Z</time>
      </trkpt>
      <trkpt lat="42.85155" lon="1.31019">
        <ele>1164</ele>
        <time>2025-09-27T13:38:35.000Z</time>
      </trkpt>
      <trkpt lat="42.8516" lon="1.31012">
        <ele>1163</ele>
        <time>2025-09-27T13:38:36.000Z</time>
      </trkpt>
      <trkpt lat="42.85165" lon="1.31006">
        <ele>1162</ele>
        <time>2025-09-27T13:38:37.000Z</time>
      </trkpt>
      <trkpt lat="42.85169" lon="1.30999">
        <ele>1161</ele>
        <time>2025-09-27T13:38:38.000Z</time>
      </trkpt>
      <trkpt lat="42.85172" lon="1.30994">
        <ele>1161</ele>
        <time>2025-09-27T13:38:39.000Z</time>
      </trkpt>
      <trkpt lat="42.85175" lon="1.3099">
        <ele>1160</ele>
        <time>2025-09-27T13:38:40.000Z</time>
      </trkpt>
      <trkpt lat="42.85179" lon="1.30984">
        <ele>1160</ele>
        <time>2025-09-27T13:38:41.000Z</time>
      </trkpt>
      <trkpt lat="42.85184" lon="1.30977">
        <ele>1159</ele>
        <time>2025-09-27T13:38:42.000Z</time>
      </trkpt>
      <trkpt lat="42.85189" lon="1.30971">
        <ele>1159</ele>
        <time>2025-09-27T13:38:43.000Z</time>
      </trkpt>
      <trkpt lat="42.85194" lon="1.30966">
        <ele>1159</ele>
        <time>2025-09-27T13:38:44.000Z</time>
      </trkpt>
      <trkpt lat="42.852" lon="1.30963">
        <ele>1159</ele>
        <time>2025-09-27T13:38:45.000Z</time>
      </trkpt>
      <trkpt lat="42.85203" lon="1.3096">
        <ele>1158</ele>
        <time>2025-09-27T13:38:46.000Z</time>
      </trkpt>
      <trkpt lat="42.85208" lon="1.30958">
        <ele>1158</ele>
        <time>2025-09-27T13:38:47.000Z</time>
      </trkpt>
      <trkpt lat="42.85212" lon="1.30955">
        <ele>1158</ele>
        <time>2025-09-27T13:38:48.000Z</time>
      </trkpt>
      <trkpt lat="42.85215" lon="1.30952">
        <ele>1158</ele>
        <time>2025-09-27T13:38:49.000Z</time>
      </trkpt>
      <trkpt lat="42.85219" lon="1.30948">
        <ele>1158</ele>
        <time>2025-09-27T13:38:50.000Z</time>
      </trkpt>
      <trkpt lat="42.85223" lon="1.30945">
        <ele>1157</ele>
        <time>2025-09-27T13:38:51.000Z</time>
      </trkpt>
      <trkpt lat="42.85226" lon="1.3094">
        <ele>1157</ele>
        <time>2025-09-27T13:38:52.000Z</time>
      </trkpt>
      <trkpt lat="42.85229" lon="1.30935">
        <ele>1156</ele>
        <time>2025-09-27T13:38:53.000Z</time>
      </trkpt>
      <trkpt lat="42.85232" lon="1.30932">
        <ele>1156</ele>
        <time>2025-09-27T13:38:54.000Z</time>
      </trkpt>
      <trkpt lat="42.85234" lon="1.30929">
        <ele>1156</ele>
        <time>2025-09-27T13:38:55.000Z</time>
      </trkpt>
      <trkpt lat="42.85237" lon="1.30925">
        <ele>1155</ele>
        <time>2025-09-27T13:38:56.000Z</time>
      </trkpt>
      <trkpt lat="42.85241" lon="1.30921">
        <ele>1154</ele>
        <time>2025-09-27T13:38:57.000Z</time>
      </trkpt>
      <trkpt lat="42.85245" lon="1.30917">
        <ele>1154</ele>
        <time>2025-09-27T13:38:58.000Z</time>
      </trkpt>
      <trkpt lat="42.8525" lon="1.30913">
        <ele>1153</ele>
        <time>2025-09-27T13:38:59.000Z</time>
      </trkpt>
      <trkpt lat="42.85256" lon="1.30911">
        <ele>1154</ele>
        <time>2025-09-27T13:39:00.000Z</time>
      </trkpt>
      <trkpt lat="42.85261" lon="1.30908">
        <ele>1154</ele>
        <time>2025-09-27T13:39:01.000Z</time>
      </trkpt>
      <trkpt lat="42.85268" lon="1.30907">
        <ele>1153</ele>
        <time>2025-09-27T13:39:02.000Z</time>
      </trkpt>
      <trkpt lat="42.85274" lon="1.30905">
        <ele>1153</ele>
        <time>2025-09-27T13:39:03.000Z</time>
      </trkpt>
      <trkpt lat="42.85279" lon="1.30904">
        <ele>1153</ele>
        <time>2025-09-27T13:39:04.000Z</time>
      </trkpt>
      <trkpt lat="42.85286" lon="1.30901">
        <ele>1152</ele>
        <time>2025-09-27T13:39:05.000Z</time>
      </trkpt>
      <trkpt lat="42.85293" lon="1.30898">
        <ele>1152</ele>
        <time>2025-09-27T13:39:06.000Z</time>
      </trkpt>
      <trkpt lat="42.853" lon="1.30896">
        <ele>1151</ele>
        <time>2025-09-27T13:39:07.000Z</time>
      </trkpt>
      <trkpt lat="42.85308" lon="1.30894">
        <ele>1150</ele>
        <time>2025-09-27T13:39:08.000Z</time>
      </trkpt>
      <trkpt lat="42.85316" lon="1.30892">
        <ele>1150</ele>
        <time>2025-09-27T13:39:09.000Z</time>
      </trkpt>
      <trkpt lat="42.85325" lon="1.30889">
        <ele>1149</ele>
        <time>2025-09-27T13:39:10.000Z</time>
      </trkpt>
      <trkpt lat="42.85333" lon="1.30886">
        <ele>1149</ele>
        <time>2025-09-27T13:39:11.000Z</time>
      </trkpt>
      <trkpt lat="42.85342" lon="1.30881">
        <ele>1148</ele>
        <time>2025-09-27T13:39:12.000Z</time>
      </trkpt>
      <trkpt lat="42.8535" lon="1.30876">
        <ele>1148</ele>
        <time>2025-09-27T13:39:13.000Z</time>
      </trkpt>
      <trkpt lat="42.85357" lon="1.30871">
        <ele>1148</ele>
        <time>2025-09-27T13:39:14.000Z</time>
      </trkpt>
      <trkpt lat="42.85365" lon="1.30866">
        <ele>1147</ele>
        <time>2025-09-27T13:39:15.000Z</time>
      </trkpt>
      <trkpt lat="42.85373" lon="1.30863">
        <ele>1147</ele>
        <time>2025-09-27T13:39:16.000Z</time>
      </trkpt>
      <trkpt lat="42.85382" lon="1.30858">
        <ele>1146</ele>
        <time>2025-09-27T13:39:17.000Z</time>
      </trkpt>
      <trkpt lat="42.85389" lon="1.30854">
        <ele>1146</ele>
        <time>2025-09-27T13:39:18.000Z</time>
      </trkpt>
      <trkpt lat="42.85396" lon="1.30851">
        <ele>1146</ele>
        <time>2025-09-27T13:39:19.000Z</time>
      </trkpt>
      <trkpt lat="42.85402" lon="1.30848">
        <ele>1146</ele>
        <time>2025-09-27T13:39:20.000Z</time>
      </trkpt>
      <trkpt lat="42.85406" lon="1.30844">
        <ele>1145</ele>
        <time>2025-09-27T13:39:21.000Z</time>
      </trkpt>
      <trkpt lat="42.85413" lon="1.30843">
        <ele>1145</ele>
        <time>2025-09-27T13:39:22.000Z</time>
      </trkpt>
      <trkpt lat="42.85416" lon="1.30842">
        <ele>1145</ele>
        <time>2025-09-27T13:39:23.000Z</time>
      </trkpt>
      <trkpt lat="42.85418" lon="1.30842">
        <ele>1145</ele>
        <time>2025-09-27T13:39:24.000Z</time>
      </trkpt>
      <trkpt lat="42.85419" lon="1.30843">
        <ele>1145</ele>
        <time>2025-09-27T13:39:25.000Z</time>
      </trkpt>
      <trkpt lat="42.8542" lon="1.30843">
        <ele>1145</ele>
        <time>2025-09-27T13:39:26.000Z</time>
      </trkpt>
      <trkpt lat="42.8542" lon="1.30844">
        <ele>1144</ele>
        <time>2025-09-27T13:39:27.000Z</time>
      </trkpt>
      <trkpt lat="42.85422" lon="1.30844">
        <ele>1143</ele>
        <time>2025-09-27T13:39:51.000Z</time>
      </trkpt>
      <trkpt lat="42.8542" lon="1.30844">
        <ele>1143</ele>
        <time>2025-09-27T13:39:52.000Z</time>
      </trkpt>
      <trkpt lat="42.85421" lon="1.30843">
        <ele>1144</ele>
        <time>2025-09-27T13:39:53.000Z</time>
      </trkpt>
      <trkpt lat="42.85421" lon="1.30841">
        <ele>1144</ele>
        <time>2025-09-27T13:39:54.000Z</time>
      </trkpt>
      <trkpt lat="42.8542" lon="1.30841">
        <ele>1145</ele>
        <time>2025-09-27T13:39:55.000Z</time>
      </trkpt>
      <trkpt lat="42.85424" lon="1.30847">
        <ele>1145</ele>
        <time>2025-09-27T13:42:01.000Z</time>
      </trkpt>
      <trkpt lat="42.85424" lon="1.30849">
        <ele>1144</ele>
        <time>2025-09-27T13:42:02.000Z</time>
      </trkpt>
      <trkpt lat="42.85425" lon="1.3085">
        <ele>1144</ele>
        <time>2025-09-27T13:42:03.000Z</time>
      </trkpt>
      <trkpt lat="42.85425" lon="1.30852">
        <ele>1143</ele>
        <time>2025-09-27T13:42:04.000Z</time>
      </trkpt>
      <trkpt lat="42.85425" lon="1.30852">
        <ele>1143</ele>
        <time>2025-09-27T13:42:05.000Z</time>
      </trkpt>
      <trkpt lat="42.85425" lon="1.30853">
        <ele>1143</ele>
        <time>2025-09-27T13:42:06.000Z</time>
      </trkpt>
      <trkpt lat="42.85426" lon="1.30853">
        <ele>1143</ele>
        <time>2025-09-27T13:42:07.000Z</time>
      </trkpt>
      <trkpt lat="42.85426" lon="1.30854">
        <ele>1143</ele>
        <time>2025-09-27T13:42:08.000Z</time>
      </trkpt>
      <trkpt lat="42.8543" lon="1.30855">
        <ele>1140</ele>
        <time>2025-09-27T13:42:22.000Z</time>
      </trkpt>
      <trkpt lat="42.85432" lon="1.30857">
        <ele>1140</ele>
        <time>2025-09-27T13:42:23.000Z</time>
      </trkpt>
      <trkpt lat="42.85433" lon="1.30859">
        <ele>1139</ele>
        <time>2025-09-27T13:42:24.000Z</time>
      </trkpt>
      <trkpt lat="42.85433" lon="1.30861">
        <ele>1139</ele>
        <time>2025-09-27T13:42:25.000Z</time>
      </trkpt>
      <trkpt lat="42.85435" lon="1.30864">
        <ele>1138</ele>
        <time>2025-09-27T13:42:26.000Z</time>
      </trkpt>
      <trkpt lat="42.85437" lon="1.30867">
        <ele>1138</ele>
        <time>2025-09-27T13:42:27.000Z</time>
      </trkpt>
      <trkpt lat="42.85439" lon="1.3087">
        <ele>1137</ele>
        <time>2025-09-27T13:42:28.000Z</time>
      </trkpt>
      <trkpt lat="42.85441" lon="1.30872">
        <ele>1137</ele>
        <time>2025-09-27T13:42:29.000Z</time>
      </trkpt>
      <trkpt lat="42.85443" lon="1.30873">
        <ele>1137</ele>
        <time>2025-09-27T13:42:30.000Z</time>
      </trkpt>
      <trkpt lat="42.85444" lon="1.30876">
        <ele>1137</ele>
        <time>2025-09-27T13:42:31.000Z</time>
      </trkpt>
      <trkpt lat="42.85446" lon="1.30878">
        <ele>1137</ele>
        <time>2025-09-27T13:42:32.000Z</time>
      </trkpt>
      <trkpt lat="42.85448" lon="1.3088">
        <ele>1136</ele>
        <time>2025-09-27T13:42:33.000Z</time>
      </trkpt>
      <trkpt lat="42.8545" lon="1.30882">
        <ele>1136</ele>
        <time>2025-09-27T13:42:34.000Z</time>
      </trkpt>
      <trkpt lat="42.85452" lon="1.30885">
        <ele>1136</ele>
        <time>2025-09-27T13:42:35.000Z</time>
      </trkpt>
      <trkpt lat="42.85454" lon="1.30888">
        <ele>1135</ele>
        <time>2025-09-27T13:42:36.000Z</time>
      </trkpt>
      <trkpt lat="42.85457" lon="1.30893">
        <ele>1134</ele>
        <time>2025-09-27T13:42:37.000Z</time>
      </trkpt>
      <trkpt lat="42.8546" lon="1.30898">
        <ele>1134</ele>
        <time>2025-09-27T13:42:38.000Z</time>
      </trkpt>
      <trkpt lat="42.85462" lon="1.30901">
        <ele>1133</ele>
        <time>2025-09-27T13:42:39.000Z</time>
      </trkpt>
      <trkpt lat="42.85465" lon="1.30904">
        <ele>1133</ele>
        <time>2025-09-27T13:42:40.000Z</time>
      </trkpt>
      <trkpt lat="42.85468" lon="1.30907">
        <ele>1133</ele>
        <time>2025-09-27T13:42:41.000Z</time>
      </trkpt>
      <trkpt lat="42.85472" lon="1.30909">
        <ele>1132</ele>
        <time>2025-09-27T13:42:42.000Z</time>
      </trkpt>
      <trkpt lat="42.85475" lon="1.30912">
        <ele>1132</ele>
        <time>2025-09-27T13:42:43.000Z</time>
      </trkpt>
      <trkpt lat="42.85479" lon="1.30913">
        <ele>1131</ele>
        <time>2025-09-27T13:42:44.000Z</time>
      </trkpt>
      <trkpt lat="42.85482" lon="1.30916">
        <ele>1130</ele>
        <time>2025-09-27T13:42:45.000Z</time>
      </trkpt>
      <trkpt lat="42.85486" lon="1.3092">
        <ele>1131</ele>
        <time>2025-09-27T13:42:46.000Z</time>
      </trkpt>
      <trkpt lat="42.8549" lon="1.30926">
        <ele>1130</ele>
        <time>2025-09-27T13:42:47.000Z</time>
      </trkpt>
      <trkpt lat="42.85493" lon="1.3093">
        <ele>1130</ele>
        <time>2025-09-27T13:42:48.000Z</time>
      </trkpt>
      <trkpt lat="42.85496" lon="1.30933">
        <ele>1130</ele>
        <time>2025-09-27T13:42:49.000Z</time>
      </trkpt>
      <trkpt lat="42.85499" lon="1.30935">
        <ele>1129</ele>
        <time>2025-09-27T13:42:50.000Z</time>
      </trkpt>
      <trkpt lat="42.85501" lon="1.30937">
        <ele>1129</ele>
        <time>2025-09-27T13:42:51.000Z</time>
      </trkpt>
      <trkpt lat="42.85503" lon="1.3094">
        <ele>1130</ele>
        <time>2025-09-27T13:42:52.000Z</time>
      </trkpt>
      <trkpt lat="42.85505" lon="1.30942">
        <ele>1130</ele>
        <time>2025-09-27T13:42:53.000Z</time>
      </trkpt>
      <trkpt lat="42.85507" lon="1.30946">
        <ele>1130</ele>
        <time>2025-09-27T13:42:54.000Z</time>
      </trkpt>
      <trkpt lat="42.85508" lon="1.30949">
        <ele>1129</ele>
        <time>2025-09-27T13:42:55.000Z</time>
      </trkpt>
      <trkpt lat="42.85511" lon="1.30952">
        <ele>1129</ele>
        <time>2025-09-27T13:42:56.000Z</time>
      </trkpt>
      <trkpt lat="42.85513" lon="1.30954">
        <ele>1129</ele>
        <time>2025-09-27T13:42:57.000Z</time>
      </trkpt>
      <trkpt lat="42.85515" lon="1.30956">
        <ele>1128</ele>
        <time>2025-09-27T13:42:58.000Z</time>
      </trkpt>
      <trkpt lat="42.85518" lon="1.30959">
        <ele>1128</ele>
        <time>2025-09-27T13:42:59.000Z</time>
      </trkpt>
      <trkpt lat="42.85521" lon="1.30962">
        <ele>1128</ele>
        <time>2025-09-27T13:43:00.000Z</time>
      </trkpt>
      <trkpt lat="42.85524" lon="1.30964">
        <ele>1128</ele>
        <time>2025-09-27T13:43:01.000Z</time>
      </trkpt>
      <trkpt lat="42.85527" lon="1.30965">
        <ele>1128</ele>
        <time>2025-09-27T13:43:02.000Z</time>
      </trkpt>
      <trkpt lat="42.85528" lon="1.30965">
        <ele>1128</ele>
        <time>2025-09-27T13:43:03.000Z</time>
      </trkpt>
      <trkpt lat="42.85528" lon="1.30965">
        <ele>1127</ele>
        <time>2025-09-27T13:43:04.000Z</time>
      </trkpt>
      <trkpt lat="42.85529" lon="1.30964">
        <ele>1126</ele>
        <time>2025-09-27T13:43:05.000Z</time>
      </trkpt>
      <trkpt lat="42.85529" lon="1.30964">
        <ele>1125</ele>
        <time>2025-09-27T13:43:06.000Z</time>
      </trkpt>
      <trkpt lat="42.85529" lon="1.30965">
        <ele>1125</ele>
        <time>2025-09-27T13:43:07.000Z</time>
      </trkpt>
      <trkpt lat="42.85531" lon="1.30969">
        <ele>1126</ele>
        <time>2025-09-27T13:43:22.000Z</time>
      </trkpt>
      <trkpt lat="42.85532" lon="1.3097">
        <ele>1126</ele>
        <time>2025-09-27T13:43:23.000Z</time>
      </trkpt>
      <trkpt lat="42.85533" lon="1.30971">
        <ele>1126</ele>
        <time>2025-09-27T13:43:24.000Z</time>
      </trkpt>
      <trkpt lat="42.85533" lon="1.30971">
        <ele>1126</ele>
        <time>2025-09-27T13:43:25.000Z</time>
      </trkpt>
      <trkpt lat="42.85535" lon="1.30972">
        <ele>1126</ele>
        <time>2025-09-27T13:43:26.000Z</time>
      </trkpt>
      <trkpt lat="42.85537" lon="1.30972">
        <ele>1126</ele>
        <time>2025-09-27T13:43:27.000Z</time>
      </trkpt>
      <trkpt lat="42.8554" lon="1.30973">
        <ele>1125</ele>
        <time>2025-09-27T13:43:28.000Z</time>
      </trkpt>
      <trkpt lat="42.85542" lon="1.30973">
        <ele>1125</ele>
        <time>2025-09-27T13:43:29.000Z</time>
      </trkpt>
      <trkpt lat="42.85545" lon="1.30974">
        <ele>1125</ele>
        <time>2025-09-27T13:43:30.000Z</time>
      </trkpt>
      <trkpt lat="42.85548" lon="1.30975">
        <ele>1126</ele>
        <time>2025-09-27T13:43:31.000Z</time>
      </trkpt>
      <trkpt lat="42.8555" lon="1.30976">
        <ele>1125</ele>
        <time>2025-09-27T13:43:32.000Z</time>
      </trkpt>
      <trkpt lat="42.85553" lon="1.30976">
        <ele>1125</ele>
        <time>2025-09-27T13:43:33.000Z</time>
      </trkpt>
      <trkpt lat="42.85556" lon="1.30978">
        <ele>1125</ele>
        <time>2025-09-27T13:43:34.000Z</time>
      </trkpt>
      <trkpt lat="42.85558" lon="1.30979">
        <ele>1125</ele>
        <time>2025-09-27T13:43:35.000Z</time>
      </trkpt>
      <trkpt lat="42.8556" lon="1.30982">
        <ele>1125</ele>
        <time>2025-09-27T13:43:36.000Z</time>
      </trkpt>
      <trkpt lat="42.85564" lon="1.30983">
        <ele>1124</ele>
        <time>2025-09-27T13:43:37.000Z</time>
      </trkpt>
      <trkpt lat="42.85567" lon="1.30984">
        <ele>1124</ele>
        <time>2025-09-27T13:43:38.000Z</time>
      </trkpt>
      <trkpt lat="42.85571" lon="1.30985">
        <ele>1123</ele>
        <time>2025-09-27T13:43:39.000Z</time>
      </trkpt>
      <trkpt lat="42.85575" lon="1.30985">
        <ele>1123</ele>
        <time>2025-09-27T13:43:40.000Z</time>
      </trkpt>
      <trkpt lat="42.85579" lon="1.30983">
        <ele>1123</ele>
        <time>2025-09-27T13:43:41.000Z</time>
      </trkpt>
      <trkpt lat="42.85586" lon="1.30981">
        <ele>1122</ele>
        <time>2025-09-27T13:43:42.000Z</time>
      </trkpt>
      <trkpt lat="42.85591" lon="1.30979">
        <ele>1120</ele>
        <time>2025-09-27T13:43:43.000Z</time>
      </trkpt>
      <trkpt lat="42.85598" lon="1.30976">
        <ele>1120</ele>
        <time>2025-09-27T13:43:44.000Z</time>
      </trkpt>
      <trkpt lat="42.85604" lon="1.30976">
        <ele>1120</ele>
        <time>2025-09-27T13:43:45.000Z</time>
      </trkpt>
      <trkpt lat="42.85608" lon="1.30976">
        <ele>1119</ele>
        <time>2025-09-27T13:43:46.000Z</time>
      </trkpt>
      <trkpt lat="42.85613" lon="1.30977">
        <ele>1119</ele>
        <time>2025-09-27T13:43:47.000Z</time>
      </trkpt>
      <trkpt lat="42.85621" lon="1.3098">
        <ele>1118</ele>
        <time>2025-09-27T13:43:48.000Z</time>
      </trkpt>
      <trkpt lat="42.85628" lon="1.30983">
        <ele>1117</ele>
        <time>2025-09-27T13:43:49.000Z</time>
      </trkpt>
      <trkpt lat="42.85635" lon="1.30985">
        <ele>1117</ele>
        <time>2025-09-27T13:43:50.000Z</time>
      </trkpt>
      <trkpt lat="42.8564" lon="1.30984">
        <ele>1117</ele>
        <time>2025-09-27T13:43:51.000Z</time>
      </trkpt>
      <trkpt lat="42.85646" lon="1.30983">
        <ele>1117</ele>
        <time>2025-09-27T13:43:52.000Z</time>
      </trkpt>
      <trkpt lat="42.85651" lon="1.30983">
        <ele>1117</ele>
        <time>2025-09-27T13:43:53.000Z</time>
      </trkpt>
      <trkpt lat="42.85657" lon="1.30982">
        <ele>1117</ele>
        <time>2025-09-27T13:43:54.000Z</time>
      </trkpt>
      <trkpt lat="42.85663" lon="1.30983">
        <ele>1117</ele>
        <time>2025-09-27T13:43:55.000Z</time>
      </trkpt>
      <trkpt lat="42.85669" lon="1.30985">
        <ele>1116</ele>
        <time>2025-09-27T13:43:56.000Z</time>
      </trkpt>
      <trkpt lat="42.85674" lon="1.30985">
        <ele>1117</ele>
        <time>2025-09-27T13:43:57.000Z</time>
      </trkpt>
      <trkpt lat="42.85678" lon="1.30986">
        <ele>1117</ele>
        <time>2025-09-27T13:43:58.000Z</time>
      </trkpt>
      <trkpt lat="42.8568" lon="1.30987">
        <ele>1117</ele>
        <time>2025-09-27T13:43:59.000Z</time>
      </trkpt>
      <trkpt lat="42.85682" lon="1.30988">
        <ele>1117</ele>
        <time>2025-09-27T13:44:00.000Z</time>
      </trkpt>
      <trkpt lat="42.85684" lon="1.30989">
        <ele>1117</ele>
        <time>2025-09-27T13:44:01.000Z</time>
      </trkpt>
      <trkpt lat="42.85687" lon="1.3099">
        <ele>1117</ele>
        <time>2025-09-27T13:44:02.000Z</time>
      </trkpt>
      <trkpt lat="42.85688" lon="1.30992">
        <ele>1117</ele>
        <time>2025-09-27T13:44:03.000Z</time>
      </trkpt>
      <trkpt lat="42.85689" lon="1.30993">
        <ele>1117</ele>
        <time>2025-09-27T13:44:04.000Z</time>
      </trkpt>
      <trkpt lat="42.8569" lon="1.30993">
        <ele>1117</ele>
        <time>2025-09-27T13:44:05.000Z</time>
      </trkpt>
      <trkpt lat="42.85692" lon="1.30993">
        <ele>1116</ele>
        <time>2025-09-27T13:44:06.000Z</time>
      </trkpt>
      <trkpt lat="42.85692" lon="1.30992">
        <ele>1116</ele>
        <time>2025-09-27T13:44:07.000Z</time>
      </trkpt>
      <trkpt lat="42.85693" lon="1.30993">
        <ele>1116</ele>
        <time>2025-09-27T13:44:08.000Z</time>
      </trkpt>
      <trkpt lat="42.85695" lon="1.30994">
        <ele>1111</ele>
        <time>2025-09-27T13:44:53.000Z</time>
      </trkpt>
      <trkpt lat="42.85696" lon="1.30994">
        <ele>1111</ele>
        <time>2025-09-27T13:44:54.000Z</time>
      </trkpt>
      <trkpt lat="42.85698" lon="1.30995">
        <ele>1112</ele>
        <time>2025-09-27T13:44:55.000Z</time>
      </trkpt>
      <trkpt lat="42.857" lon="1.30996">
        <ele>1111</ele>
        <time>2025-09-27T13:44:56.000Z</time>
      </trkpt>
      <trkpt lat="42.85701" lon="1.30997">
        <ele>1111</ele>
        <time>2025-09-27T13:44:57.000Z</time>
      </trkpt>
      <trkpt lat="42.85703" lon="1.30998">
        <ele>1111</ele>
        <time>2025-09-27T13:44:58.000Z</time>
      </trkpt>
      <trkpt lat="42.85704" lon="1.30999">
        <ele>1111</ele>
        <time>2025-09-27T13:44:59.000Z</time>
      </trkpt>
      <trkpt lat="42.85706" lon="1.31">
        <ele>1111</ele>
        <time>2025-09-27T13:45:00.000Z</time>
      </trkpt>
      <trkpt lat="42.85708" lon="1.31">
        <ele>1111</ele>
        <time>2025-09-27T13:45:01.000Z</time>
      </trkpt>
      <trkpt lat="42.8571" lon="1.31">
        <ele>1110</ele>
        <time>2025-09-27T13:45:02.000Z</time>
      </trkpt>
      <trkpt lat="42.85713" lon="1.31">
        <ele>1111</ele>
        <time>2025-09-27T13:45:03.000Z</time>
      </trkpt>
      <trkpt lat="42.85714" lon="1.31">
        <ele>1111</ele>
        <time>2025-09-27T13:45:04.000Z</time>
      </trkpt>
      <trkpt lat="42.85716" lon="1.31">
        <ele>1110</ele>
        <time>2025-09-27T13:45:05.000Z</time>
      </trkpt>
      <trkpt lat="42.8572" lon="1.31">
        <ele>1109</ele>
        <time>2025-09-27T13:45:06.000Z</time>
      </trkpt>
      <trkpt lat="42.85725" lon="1.31">
        <ele>1110</ele>
        <time>2025-09-27T13:45:07.000Z</time>
      </trkpt>
      <trkpt lat="42.85728" lon="1.31001">
        <ele>1110</ele>
        <time>2025-09-27T13:45:08.000Z</time>
      </trkpt>
      <trkpt lat="42.85732" lon="1.31003">
        <ele>1110</ele>
        <time>2025-09-27T13:45:09.000Z</time>
      </trkpt>
      <trkpt lat="42.85734" lon="1.31005">
        <ele>1109</ele>
        <time>2025-09-27T13:45:10.000Z</time>
      </trkpt>
      <trkpt lat="42.85736" lon="1.31005">
        <ele>1108</ele>
        <time>2025-09-27T13:45:11.000Z</time>
      </trkpt>
      <trkpt lat="42.85737" lon="1.31006">
        <ele>1108</ele>
        <time>2025-09-27T13:45:12.000Z</time>
      </trkpt>
      <trkpt lat="42.85737" lon="1.31006">
        <ele>1108</ele>
        <time>2025-09-27T13:45:13.000Z</time>
      </trkpt>
      <trkpt lat="42.85737" lon="1.31006">
        <ele>1108</ele>
        <time>2025-09-27T13:45:14.000Z</time>
      </trkpt>
      <trkpt lat="42.85738" lon="1.31008">
        <ele>1106</ele>
        <time>2025-09-27T13:45:15.000Z</time>
      </trkpt>
      <trkpt lat="42.85738" lon="1.31009">
        <ele>1105</ele>
        <time>2025-09-27T13:45:16.000Z</time>
      </trkpt>
      <trkpt lat="42.85739" lon="1.31012">
        <ele>1104</ele>
        <time>2025-09-27T13:45:17.000Z</time>
      </trkpt>
      <trkpt lat="42.85741" lon="1.31015">
        <ele>1105</ele>
        <time>2025-09-27T13:45:18.000Z</time>
      </trkpt>
      <trkpt lat="42.85742" lon="1.31017">
        <ele>1105</ele>
        <time>2025-09-27T13:45:19.000Z</time>
      </trkpt>
      <trkpt lat="42.85742" lon="1.31019">
        <ele>1104</ele>
        <time>2025-09-27T13:45:20.000Z</time>
      </trkpt>
      <trkpt lat="42.85745" lon="1.31021">
        <ele>1105</ele>
        <time>2025-09-27T13:45:21.000Z</time>
      </trkpt>
      <trkpt lat="42.85745" lon="1.31021">
        <ele>1105</ele>
        <time>2025-09-27T13:45:22.000Z</time>
      </trkpt>
      <trkpt lat="42.85746" lon="1.31022">
        <ele>1106</ele>
        <time>2025-09-27T13:45:23.000Z</time>
      </trkpt>
      <trkpt lat="42.85746" lon="1.31023">
        <ele>1106</ele>
        <time>2025-09-27T13:45:24.000Z</time>
      </trkpt>
      <trkpt lat="42.85746" lon="1.31026">
        <ele>1104</ele>
        <time>2025-09-27T13:45:25.000Z</time>
      </trkpt>
      <trkpt lat="42.85747" lon="1.31029">
        <ele>1103</ele>
        <time>2025-09-27T13:45:26.000Z</time>
      </trkpt>
      <trkpt lat="42.85749" lon="1.31032">
        <ele>1102</ele>
        <time>2025-09-27T13:45:27.000Z</time>
      </trkpt>
      <trkpt lat="42.8575" lon="1.31035">
        <ele>1102</ele>
        <time>2025-09-27T13:45:28.000Z</time>
      </trkpt>
      <trkpt lat="42.85751" lon="1.31037">
        <ele>1101</ele>
        <time>2025-09-27T13:45:29.000Z</time>
      </trkpt>
      <trkpt lat="42.85752" lon="1.31039">
        <ele>1101</ele>
        <time>2025-09-27T13:45:30.000Z</time>
      </trkpt>
      <trkpt lat="42.85753" lon="1.3104">
        <ele>1101</ele>
        <time>2025-09-27T13:45:31.000Z</time>
      </trkpt>
      <trkpt lat="42.85753" lon="1.3104">
        <ele>1099</ele>
        <time>2025-09-27T13:45:32.000Z</time>
      </trkpt>
      <trkpt lat="42.85755" lon="1.3104">
        <ele>1099</ele>
        <time>2025-09-27T13:45:33.000Z</time>
      </trkpt>
      <trkpt lat="42.85755" lon="1.3104">
        <ele>1099</ele>
        <time>2025-09-27T13:45:34.000Z</time>
      </trkpt>
      <trkpt lat="42.85755" lon="1.31042">
        <ele>1099</ele>
        <time>2025-09-27T13:45:35.000Z</time>
      </trkpt>
      <trkpt lat="42.85756" lon="1.31043">
        <ele>1097</ele>
        <time>2025-09-27T13:45:36.000Z</time>
      </trkpt>
      <trkpt lat="42.85756" lon="1.31044">
        <ele>1097</ele>
        <time>2025-09-27T13:45:37.000Z</time>
      </trkpt>
      <trkpt lat="42.85757" lon="1.31046">
        <ele>1096</ele>
        <time>2025-09-27T13:45:38.000Z</time>
      </trkpt>
      <trkpt lat="42.85758" lon="1.31047">
        <ele>1096</ele>
        <time>2025-09-27T13:45:39.000Z</time>
      </trkpt>
      <trkpt lat="42.8576" lon="1.31048">
        <ele>1094</ele>
        <time>2025-09-27T13:45:40.000Z</time>
      </trkpt>
      <trkpt lat="42.85762" lon="1.31049">
        <ele>1094</ele>
        <time>2025-09-27T13:45:41.000Z</time>
      </trkpt>
      <trkpt lat="42.85763" lon="1.31052">
        <ele>1093</ele>
        <time>2025-09-27T13:45:42.000Z</time>
      </trkpt>
      <trkpt lat="42.85763" lon="1.31056">
        <ele>1091</ele>
        <time>2025-09-27T13:45:43.000Z</time>
      </trkpt>
      <trkpt lat="42.85765" lon="1.3106">
        <ele>1090</ele>
        <time>2025-09-27T13:45:44.000Z</time>
      </trkpt>
      <trkpt lat="42.85765" lon="1.31063">
        <ele>1088</ele>
        <time>2025-09-27T13:45:45.000Z</time>
      </trkpt>
      <trkpt lat="42.85765" lon="1.31067">
        <ele>1087</ele>
        <time>2025-09-27T13:45:46.000Z</time>
      </trkpt>
      <trkpt lat="42.85765" lon="1.3107">
        <ele>1086</ele>
        <time>2025-09-27T13:45:47.000Z</time>
      </trkpt>
      <trkpt lat="42.85765" lon="1.31073">
        <ele>1085</ele>
        <time>2025-09-27T13:45:48.000Z</time>
      </trkpt>
      <trkpt lat="42.85767" lon="1.31076">
        <ele>1086</ele>
        <time>2025-09-27T13:45:49.000Z</time>
      </trkpt>
      <trkpt lat="42.85768" lon="1.3108">
        <ele>1085</ele>
        <time>2025-09-27T13:45:50.000Z</time>
      </trkpt>
      <trkpt lat="42.85768" lon="1.31083">
        <ele>1084</ele>
        <time>2025-09-27T13:45:51.000Z</time>
      </trkpt>
      <trkpt lat="42.85767" lon="1.31087">
        <ele>1083</ele>
        <time>2025-09-27T13:45:52.000Z</time>
      </trkpt>
      <trkpt lat="42.85768" lon="1.31091">
        <ele>1083</ele>
        <time>2025-09-27T13:45:53.000Z</time>
      </trkpt>
      <trkpt lat="42.85769" lon="1.31092">
        <ele>1083</ele>
        <time>2025-09-27T13:45:54.000Z</time>
      </trkpt>
      <trkpt lat="42.85771" lon="1.31095">
        <ele>1083</ele>
        <time>2025-09-27T13:45:55.000Z</time>
      </trkpt>
      <trkpt lat="42.85771" lon="1.31097">
        <ele>1082</ele>
        <time>2025-09-27T13:45:56.000Z</time>
      </trkpt>
      <trkpt lat="42.85771" lon="1.311">
        <ele>1082</ele>
        <time>2025-09-27T13:45:57.000Z</time>
      </trkpt>
      <trkpt lat="42.85771" lon="1.31102">
        <ele>1081</ele>
        <time>2025-09-27T13:45:58.000Z</time>
      </trkpt>
      <trkpt lat="42.85771" lon="1.31105">
        <ele>1080</ele>
        <time>2025-09-27T13:45:59.000Z</time>
      </trkpt>
      <trkpt lat="42.85771" lon="1.31108">
        <ele>1080</ele>
        <time>2025-09-27T13:46:00.000Z</time>
      </trkpt>
      <trkpt lat="42.85771" lon="1.31111">
        <ele>1080</ele>
        <time>2025-09-27T13:46:01.000Z</time>
      </trkpt>
      <trkpt lat="42.85771" lon="1.31113">
        <ele>1080</ele>
        <time>2025-09-27T13:46:02.000Z</time>
      </trkpt>
      <trkpt lat="42.85771" lon="1.31116">
        <ele>1079</ele>
        <time>2025-09-27T13:46:03.000Z</time>
      </trkpt>
      <trkpt lat="42.85772" lon="1.31118">
        <ele>1078</ele>
        <time>2025-09-27T13:46:04.000Z</time>
      </trkpt>
      <trkpt lat="42.85773" lon="1.31122">
        <ele>1077</ele>
        <time>2025-09-27T13:46:05.000Z</time>
      </trkpt>
      <trkpt lat="42.85774" lon="1.31126">
        <ele>1077</ele>
        <time>2025-09-27T13:46:06.000Z</time>
      </trkpt>
      <trkpt lat="42.85775" lon="1.31128">
        <ele>1076</ele>
        <time>2025-09-27T13:46:07.000Z</time>
      </trkpt>
      <trkpt lat="42.85775" lon="1.31131">
        <ele>1075</ele>
        <time>2025-09-27T13:46:08.000Z</time>
      </trkpt>
      <trkpt lat="42.85775" lon="1.31134">
        <ele>1074</ele>
        <time>2025-09-27T13:46:09.000Z</time>
      </trkpt>
      <trkpt lat="42.85776" lon="1.31137">
        <ele>1073</ele>
        <time>2025-09-27T13:46:10.000Z</time>
      </trkpt>
      <trkpt lat="42.85776" lon="1.31139">
        <ele>1072</ele>
        <time>2025-09-27T13:46:11.000Z</time>
      </trkpt>
      <trkpt lat="42.85776" lon="1.31141">
        <ele>1072</ele>
        <time>2025-09-27T13:46:12.000Z</time>
      </trkpt>
      <trkpt lat="42.85776" lon="1.31142">
        <ele>1072</ele>
        <time>2025-09-27T13:46:13.000Z</time>
      </trkpt>
      <trkpt lat="42.85776" lon="1.31144">
        <ele>1071</ele>
        <time>2025-09-27T13:46:14.000Z</time>
      </trkpt>
      <trkpt lat="42.85776" lon="1.31145">
        <ele>1070</ele>
        <time>2025-09-27T13:46:15.000Z</time>
      </trkpt>
      <trkpt lat="42.85776" lon="1.31145">
        <ele>1070</ele>
        <time>2025-09-27T13:46:16.000Z</time>
      </trkpt>
      <trkpt lat="42.85776" lon="1.31146">
        <ele>1071</ele>
        <time>2025-09-27T13:46:17.000Z</time>
      </trkpt>
      <trkpt lat="42.85777" lon="1.31147">
        <ele>1071</ele>
        <time>2025-09-27T13:46:18.000Z</time>
      </trkpt>
      <trkpt lat="42.85777" lon="1.31148">
        <ele>1070</ele>
        <time>2025-09-27T13:46:19.000Z</time>
      </trkpt>
      <trkpt lat="42.85778" lon="1.31148">
        <ele>1070</ele>
        <time>2025-09-27T13:46:20.000Z</time>
      </trkpt>
      <trkpt lat="42.85778" lon="1.31148">
        <ele>1069</ele>
        <time>2025-09-27T13:46:21.000Z</time>
      </trkpt>
      <trkpt lat="42.85779" lon="1.31148">
        <ele>1069</ele>
        <time>2025-09-27T13:46:22.000Z</time>
      </trkpt>
      <trkpt lat="42.85778" lon="1.3115">
        <ele>1068</ele>
        <time>2025-09-27T13:46:23.000Z</time>
      </trkpt>
      <trkpt lat="42.85778" lon="1.31151">
        <ele>1068</ele>
        <time>2025-09-27T13:46:24.000Z</time>
      </trkpt>
      <trkpt lat="42.85779" lon="1.31151">
        <ele>1068</ele>
        <time>2025-09-27T13:46:25.000Z</time>
      </trkpt>
      <trkpt lat="42.85782" lon="1.31155">
        <ele>1068</ele>
        <time>2025-09-27T13:48:23.000Z</time>
      </trkpt>
      <trkpt lat="42.85782" lon="1.31154">
        <ele>1067</ele>
        <time>2025-09-27T13:48:24.000Z</time>
      </trkpt>
      <trkpt lat="42.85782" lon="1.31151">
        <ele>1067</ele>
        <time>2025-09-27T13:48:25.000Z</time>
      </trkpt>
      <trkpt lat="42.85783" lon="1.31149">
        <ele>1066</ele>
        <time>2025-09-27T13:48:26.000Z</time>
      </trkpt>
      <trkpt lat="42.85784" lon="1.31147">
        <ele>1066</ele>
        <time>2025-09-27T13:48:27.000Z</time>
      </trkpt>
      <trkpt lat="42.85783" lon="1.31146">
        <ele>1065</ele>
        <time>2025-09-27T13:48:28.000Z</time>
      </trkpt>
      <trkpt lat="42.85784" lon="1.31145">
        <ele>1065</ele>
        <time>2025-09-27T13:48:29.000Z</time>
      </trkpt>
      <trkpt lat="42.85784" lon="1.31144">
        <ele>1065</ele>
        <time>2025-09-27T13:48:30.000Z</time>
      </trkpt>
      <trkpt lat="42.85784" lon="1.31145">
        <ele>1065</ele>
        <time>2025-09-27T13:48:31.000Z</time>
      </trkpt>
      <trkpt lat="42.85784" lon="1.31144">
        <ele>1065</ele>
        <time>2025-09-27T13:48:32.000Z</time>
      </trkpt>
      <trkpt lat="42.85783" lon="1.31143">
        <ele>1065</ele>
        <time>2025-09-27T13:48:33.000Z</time>
      </trkpt>
      <trkpt lat="42.85784" lon="1.31142">
        <ele>1064</ele>
        <time>2025-09-27T13:48:34.000Z</time>
      </trkpt>
      <trkpt lat="42.85785" lon="1.31141">
        <ele>1065</ele>
        <time>2025-09-27T13:48:35.000Z</time>
      </trkpt>
      <trkpt lat="42.85785" lon="1.3114">
        <ele>1065</ele>
        <time>2025-09-27T13:48:36.000Z</time>
      </trkpt>
      <trkpt lat="42.85787" lon="1.31139">
        <ele>1065</ele>
        <time>2025-09-27T13:48:37.000Z</time>
      </trkpt>
      <trkpt lat="42.85788" lon="1.31139">
        <ele>1065</ele>
        <time>2025-09-27T13:48:38.000Z</time>
      </trkpt>
      <trkpt lat="42.85789" lon="1.31138">
        <ele>1066</ele>
        <time>2025-09-27T13:48:39.000Z</time>
      </trkpt>
      <trkpt lat="42.8579" lon="1.31138">
        <ele>1067</ele>
        <time>2025-09-27T13:48:40.000Z</time>
      </trkpt>
      <trkpt lat="42.85791" lon="1.31138">
        <ele>1067</ele>
        <time>2025-09-27T13:48:41.000Z</time>
      </trkpt>
      <trkpt lat="42.85791" lon="1.31138">
        <ele>1067</ele>
        <time>2025-09-27T13:48:42.000Z</time>
      </trkpt>
      <trkpt lat="42.85792" lon="1.31137">
        <ele>1067</ele>
        <time>2025-09-27T13:48:43.000Z</time>
      </trkpt>
      <trkpt lat="42.85792" lon="1.31137">
        <ele>1067</ele>
        <time>2025-09-27T13:48:44.000Z</time>
      </trkpt>
      <trkpt lat="42.85793" lon="1.31136">
        <ele>1066</ele>
        <time>2025-09-27T13:48:45.000Z</time>
      </trkpt>
      <trkpt lat="42.85793" lon="1.31136">
        <ele>1066</ele>
        <time>2025-09-27T13:48:46.000Z</time>
      </trkpt>
      <trkpt lat="42.858" lon="1.31131">
        <ele>1063</ele>
        <time>2025-09-27T13:48:59.000Z</time>
      </trkpt>
      <trkpt lat="42.85803" lon="1.31129">
        <ele>1063</ele>
        <time>2025-09-27T13:49:00.000Z</time>
      </trkpt>
      <trkpt lat="42.85806" lon="1.31129">
        <ele>1063</ele>
        <time>2025-09-27T13:49:01.000Z</time>
      </trkpt>
      <trkpt lat="42.85808" lon="1.3113">
        <ele>1063</ele>
        <time>2025-09-27T13:49:02.000Z</time>
      </trkpt>
      <trkpt lat="42.85811" lon="1.31129">
        <ele>1062</ele>
        <time>2025-09-27T13:49:03.000Z</time>
      </trkpt>
      <trkpt lat="42.85814" lon="1.31127">
        <ele>1061</ele>
        <time>2025-09-27T13:49:04.000Z</time>
      </trkpt>
      <trkpt lat="42.85817" lon="1.31125">
        <ele>1060</ele>
        <time>2025-09-27T13:49:05.000Z</time>
      </trkpt>
      <trkpt lat="42.85819" lon="1.31123">
        <ele>1060</ele>
        <time>2025-09-27T13:49:06.000Z</time>
      </trkpt>
      <trkpt lat="42.85821" lon="1.3112">
        <ele>1059</ele>
        <time>2025-09-27T13:49:07.000Z</time>
      </trkpt>
      <trkpt lat="42.85822" lon="1.31118">
        <ele>1059</ele>
        <time>2025-09-27T13:49:08.000Z</time>
      </trkpt>
      <trkpt lat="42.85823" lon="1.31117">
        <ele>1059</ele>
        <time>2025-09-27T13:49:09.000Z</time>
      </trkpt>
      <trkpt lat="42.85823" lon="1.31114">
        <ele>1058</ele>
        <time>2025-09-27T13:49:10.000Z</time>
      </trkpt>
      <trkpt lat="42.85824" lon="1.31111">
        <ele>1059</ele>
        <time>2025-09-27T13:49:11.000Z</time>
      </trkpt>
      <trkpt lat="42.85824" lon="1.31108">
        <ele>1059</ele>
        <time>2025-09-27T13:49:12.000Z</time>
      </trkpt>
      <trkpt lat="42.85825" lon="1.31105">
        <ele>1059</ele>
        <time>2025-09-27T13:49:13.000Z</time>
      </trkpt>
      <trkpt lat="42.85825" lon="1.31102">
        <ele>1059</ele>
        <time>2025-09-27T13:49:14.000Z</time>
      </trkpt>
      <trkpt lat="42.85825" lon="1.31099">
        <ele>1059</ele>
        <time>2025-09-27T13:49:15.000Z</time>
      </trkpt>
      <trkpt lat="42.85825" lon="1.31098">
        <ele>1060</ele>
        <time>2025-09-27T13:49:16.000Z</time>
      </trkpt>
      <trkpt lat="42.85825" lon="1.31096">
        <ele>1059</ele>
        <time>2025-09-27T13:49:17.000Z</time>
      </trkpt>
      <trkpt lat="42.85826" lon="1.31095">
        <ele>1060</ele>
        <time>2025-09-27T13:49:18.000Z</time>
      </trkpt>
      <trkpt lat="42.85827" lon="1.31094">
        <ele>1060</ele>
        <time>2025-09-27T13:49:19.000Z</time>
      </trkpt>
      <trkpt lat="42.85829" lon="1.31094">
        <ele>1061</ele>
        <time>2025-09-27T13:49:20.000Z</time>
      </trkpt>
      <trkpt lat="42.85831" lon="1.31094">
        <ele>1061</ele>
        <time>2025-09-27T13:49:21.000Z</time>
      </trkpt>
      <trkpt lat="42.85833" lon="1.31095">
        <ele>1062</ele>
        <time>2025-09-27T13:49:22.000Z</time>
      </trkpt>
      <trkpt lat="42.85835" lon="1.31095">
        <ele>1062</ele>
        <time>2025-09-27T13:49:23.000Z</time>
      </trkpt>
      <trkpt lat="42.85837" lon="1.31096">
        <ele>1062</ele>
        <time>2025-09-27T13:49:24.000Z</time>
      </trkpt>
      <trkpt lat="42.85838" lon="1.31097">
        <ele>1063</ele>
        <time>2025-09-27T13:49:25.000Z</time>
      </trkpt>
      <trkpt lat="42.85841" lon="1.31097">
        <ele>1063</ele>
        <time>2025-09-27T13:49:26.000Z</time>
      </trkpt>
      <trkpt lat="42.85842" lon="1.31098">
        <ele>1063</ele>
        <time>2025-09-27T13:49:27.000Z</time>
      </trkpt>
      <trkpt lat="42.85844" lon="1.31098">
        <ele>1064</ele>
        <time>2025-09-27T13:49:28.000Z</time>
      </trkpt>
      <trkpt lat="42.85846" lon="1.31098">
        <ele>1063</ele>
        <time>2025-09-27T13:49:29.000Z</time>
      </trkpt>
      <trkpt lat="42.85848" lon="1.31099">
        <ele>1063</ele>
        <time>2025-09-27T13:49:30.000Z</time>
      </trkpt>
      <trkpt lat="42.8585" lon="1.311">
        <ele>1063</ele>
        <time>2025-09-27T13:49:31.000Z</time>
      </trkpt>
      <trkpt lat="42.85853" lon="1.31101">
        <ele>1062</ele>
        <time>2025-09-27T13:49:32.000Z</time>
      </trkpt>
      <trkpt lat="42.85855" lon="1.31101">
        <ele>1063</ele>
        <time>2025-09-27T13:49:33.000Z</time>
      </trkpt>
      <trkpt lat="42.85857" lon="1.31101">
        <ele>1063</ele>
        <time>2025-09-27T13:49:34.000Z</time>
      </trkpt>
      <trkpt lat="42.85859" lon="1.31101">
        <ele>1063</ele>
        <time>2025-09-27T13:49:35.000Z</time>
      </trkpt>
      <trkpt lat="42.85861" lon="1.31101">
        <ele>1062</ele>
        <time>2025-09-27T13:49:36.000Z</time>
      </trkpt>
      <trkpt lat="42.85864" lon="1.31101">
        <ele>1063</ele>
        <time>2025-09-27T13:49:37.000Z</time>
      </trkpt>
      <trkpt lat="42.85866" lon="1.31102">
        <ele>1063</ele>
        <time>2025-09-27T13:49:38.000Z</time>
      </trkpt>
      <trkpt lat="42.85868" lon="1.31103">
        <ele>1064</ele>
        <time>2025-09-27T13:49:39.000Z</time>
      </trkpt>
      <trkpt lat="42.8587" lon="1.31104">
        <ele>1064</ele>
        <time>2025-09-27T13:49:40.000Z</time>
      </trkpt>
      <trkpt lat="42.85872" lon="1.31104">
        <ele>1065</ele>
        <time>2025-09-27T13:49:41.000Z</time>
      </trkpt>
      <trkpt lat="42.85874" lon="1.31105">
        <ele>1064</ele>
        <time>2025-09-27T13:49:42.000Z</time>
      </trkpt>
      <trkpt lat="42.85876" lon="1.31105">
        <ele>1064</ele>
        <time>2025-09-27T13:49:43.000Z</time>
      </trkpt>
      <trkpt lat="42.85877" lon="1.31105">
        <ele>1064</ele>
        <time>2025-09-27T13:49:44.000Z</time>
      </trkpt>
      <trkpt lat="42.85878" lon="1.31105">
        <ele>1064</ele>
        <time>2025-09-27T13:49:45.000Z</time>
      </trkpt>
      <trkpt lat="42.85879" lon="1.31106">
        <ele>1065</ele>
        <time>2025-09-27T13:49:46.000Z</time>
      </trkpt>
      <trkpt lat="42.85882" lon="1.31108">
        <ele>1066</ele>
        <time>2025-09-27T13:50:03.000Z</time>
      </trkpt>
      <trkpt lat="42.85882" lon="1.31108">
        <ele>1065</ele>
        <time>2025-09-27T13:50:04.000Z</time>
      </trkpt>
      <trkpt lat="42.85883" lon="1.31107">
        <ele>1065</ele>
        <time>2025-09-27T13:50:05.000Z</time>
      </trkpt>
      <trkpt lat="42.85885" lon="1.31106">
        <ele>1065</ele>
        <time>2025-09-27T13:50:06.000Z</time>
      </trkpt>
      <trkpt lat="42.85886" lon="1.31105">
        <ele>1065</ele>
        <time>2025-09-27T13:50:07.000Z</time>
      </trkpt>
      <trkpt lat="42.85886" lon="1.31104">
        <ele>1065</ele>
        <time>2025-09-27T13:50:08.000Z</time>
      </trkpt>
      <trkpt lat="42.85887" lon="1.31103">
        <ele>1066</ele>
        <time>2025-09-27T13:50:09.000Z</time>
      </trkpt>
      <trkpt lat="42.85888" lon="1.31102">
        <ele>1067</ele>
        <time>2025-09-27T13:50:10.000Z</time>
      </trkpt>
      <trkpt lat="42.85888" lon="1.311">
        <ele>1067</ele>
        <time>2025-09-27T13:50:11.000Z</time>
      </trkpt>
      <trkpt lat="42.85888" lon="1.31098">
        <ele>1067</ele>
        <time>2025-09-27T13:50:12.000Z</time>
      </trkpt>
      <trkpt lat="42.85887" lon="1.31096">
        <ele>1067</ele>
        <time>2025-09-27T13:50:13.000Z</time>
      </trkpt>
      <trkpt lat="42.85886" lon="1.31095">
        <ele>1066</ele>
        <time>2025-09-27T13:50:14.000Z</time>
      </trkpt>
      <trkpt lat="42.85885" lon="1.31093">
        <ele>1066</ele>
        <time>2025-09-27T13:50:15.000Z</time>
      </trkpt>
      <trkpt lat="42.85884" lon="1.31091">
        <ele>1066</ele>
        <time>2025-09-27T13:50:16.000Z</time>
      </trkpt>
      <trkpt lat="42.85884" lon="1.31089">
        <ele>1066</ele>
        <time>2025-09-27T13:50:17.000Z</time>
      </trkpt>
      <trkpt lat="42.85883" lon="1.31087">
        <ele>1066</ele>
        <time>2025-09-27T13:50:18.000Z</time>
      </trkpt>
      <trkpt lat="42.85883" lon="1.31086">
        <ele>1067</ele>
        <time>2025-09-27T13:50:19.000Z</time>
      </trkpt>
      <trkpt lat="42.85882" lon="1.31084">
        <ele>1067</ele>
        <time>2025-09-27T13:50:20.000Z</time>
      </trkpt>
      <trkpt lat="42.85881" lon="1.31083">
        <ele>1067</ele>
        <time>2025-09-27T13:50:21.000Z</time>
      </trkpt>
      <trkpt lat="42.85881" lon="1.31081">
        <ele>1067</ele>
        <time>2025-09-27T13:50:22.000Z</time>
      </trkpt>
      <trkpt lat="42.8588" lon="1.3108">
        <ele>1067</ele>
        <time>2025-09-27T13:50:23.000Z</time>
      </trkpt>
      <trkpt lat="42.85879" lon="1.31078">
        <ele>1067</ele>
        <time>2025-09-27T13:50:24.000Z</time>
      </trkpt>
      <trkpt lat="42.85878" lon="1.31076">
        <ele>1067</ele>
        <time>2025-09-27T13:50:25.000Z</time>
      </trkpt>
      <trkpt lat="42.85877" lon="1.31074">
        <ele>1066</ele>
        <time>2025-09-27T13:50:26.000Z</time>
      </trkpt>
      <trkpt lat="42.85876" lon="1.31072">
        <ele>1066</ele>
        <time>2025-09-27T13:50:27.000Z</time>
      </trkpt>
      <trkpt lat="42.85875" lon="1.31071">
        <ele>1066</ele>
        <time>2025-09-27T13:50:28.000Z</time>
      </trkpt>
      <trkpt lat="42.85874" lon="1.31071">
        <ele>1066</ele>
        <time>2025-09-27T13:50:29.000Z</time>
      </trkpt>
      <trkpt lat="42.85873" lon="1.3107">
        <ele>1066</ele>
        <time>2025-09-27T13:50:30.000Z</time>
      </trkpt>
      <trkpt lat="42.85872" lon="1.31069">
        <ele>1066</ele>
        <time>2025-09-27T13:50:31.000Z</time>
      </trkpt>
      <trkpt lat="42.8587" lon="1.31068">
        <ele>1066</ele>
        <time>2025-09-27T13:50:32.000Z</time>
      </trkpt>
      <trkpt lat="42.85869" lon="1.31067">
        <ele>1065</ele>
        <time>2025-09-27T13:50:33.000Z</time>
      </trkpt>
      <trkpt lat="42.85867" lon="1.31066">
        <ele>1066</ele>
        <time>2025-09-27T13:50:34.000Z</time>
      </trkpt>
      <trkpt lat="42.85866" lon="1.31065">
        <ele>1066</ele>
        <time>2025-09-27T13:50:35.000Z</time>
      </trkpt>
      <trkpt lat="42.85864" lon="1.31063">
        <ele>1066</ele>
        <time>2025-09-27T13:50:36.000Z</time>
      </trkpt>
      <trkpt lat="42.85862" lon="1.31062">
        <ele>1066</ele>
        <time>2025-09-27T13:50:37.000Z</time>
      </trkpt>
      <trkpt lat="42.85861" lon="1.31062">
        <ele>1066</ele>
        <time>2025-09-27T13:50:38.000Z</time>
      </trkpt>
      <trkpt lat="42.85859" lon="1.31061">
        <ele>1066</ele>
        <time>2025-09-27T13:50:39.000Z</time>
      </trkpt>
      <trkpt lat="42.85857" lon="1.31059">
        <ele>1065</ele>
        <time>2025-09-27T13:50:40.000Z</time>
      </trkpt>
      <trkpt lat="42.85855" lon="1.31058">
        <ele>1065</ele>
        <time>2025-09-27T13:50:41.000Z</time>
      </trkpt>
      <trkpt lat="42.85853" lon="1.31056">
        <ele>1064</ele>
        <time>2025-09-27T13:50:42.000Z</time>
      </trkpt>
      <trkpt lat="42.85851" lon="1.31054">
        <ele>1064</ele>
        <time>2025-09-27T13:50:43.000Z</time>
      </trkpt>
      <trkpt lat="42.85848" lon="1.31053">
        <ele>1064</ele>
        <time>2025-09-27T13:50:44.000Z</time>
      </trkpt>
      <trkpt lat="42.85846" lon="1.31051">
        <ele>1064</ele>
        <time>2025-09-27T13:50:45.000Z</time>
      </trkpt>
      <trkpt lat="42.85845" lon="1.3105">
        <ele>1064</ele>
        <time>2025-09-27T13:50:46.000Z</time>
      </trkpt>
      <trkpt lat="42.85843" lon="1.31049">
        <ele>1064</ele>
        <time>2025-09-27T13:50:47.000Z</time>
      </trkpt>
      <trkpt lat="42.85841" lon="1.3105">
        <ele>1064</ele>
        <time>2025-09-27T13:50:48.000Z</time>
      </trkpt>
      <trkpt lat="42.85839" lon="1.3105">
        <ele>1064</ele>
        <time>2025-09-27T13:50:49.000Z</time>
      </trkpt>
      <trkpt lat="42.85837" lon="1.31051">
        <ele>1065</ele>
        <time>2025-09-27T13:50:50.000Z</time>
      </trkpt>
      <trkpt lat="42.85835" lon="1.31051">
        <ele>1065</ele>
        <time>2025-09-27T13:50:51.000Z</time>
      </trkpt>
      <trkpt lat="42.85834" lon="1.31053">
        <ele>1065</ele>
        <time>2025-09-27T13:50:52.000Z</time>
      </trkpt>
      <trkpt lat="42.85832" lon="1.31053">
        <ele>1066</ele>
        <time>2025-09-27T13:50:53.000Z</time>
      </trkpt>
      <trkpt lat="42.85831" lon="1.31054">
        <ele>1067</ele>
        <time>2025-09-27T13:50:54.000Z</time>
      </trkpt>
      <trkpt lat="42.85829" lon="1.31055">
        <ele>1068</ele>
        <time>2025-09-27T13:50:55.000Z</time>
      </trkpt>
      <trkpt lat="42.85828" lon="1.31055">
        <ele>1068</ele>
        <time>2025-09-27T13:50:56.000Z</time>
      </trkpt>
      <trkpt lat="42.85826" lon="1.31056">
        <ele>1068</ele>
        <time>2025-09-27T13:50:57.000Z</time>
      </trkpt>
      <trkpt lat="42.85825" lon="1.31057">
        <ele>1069</ele>
        <time>2025-09-27T13:50:58.000Z</time>
      </trkpt>
      <trkpt lat="42.85823" lon="1.31059">
        <ele>1069</ele>
        <time>2025-09-27T13:50:59.000Z</time>
      </trkpt>
      <trkpt lat="42.85822" lon="1.31059">
        <ele>1070</ele>
        <time>2025-09-27T13:51:00.000Z</time>
      </trkpt>
      <trkpt lat="42.8582" lon="1.3106">
        <ele>1070</ele>
        <time>2025-09-27T13:51:01.000Z</time>
      </trkpt>
      <trkpt lat="42.85819" lon="1.31061">
        <ele>1070</ele>
        <time>2025-09-27T13:51:02.000Z</time>
      </trkpt>
      <trkpt lat="42.85818" lon="1.31062">
        <ele>1070</ele>
        <time>2025-09-27T13:51:03.000Z</time>
      </trkpt>
      <trkpt lat="42.85817" lon="1.31063">
        <ele>1070</ele>
        <time>2025-09-27T13:51:04.000Z</time>
      </trkpt>
      <trkpt lat="42.85815" lon="1.31064">
        <ele>1071</ele>
        <time>2025-09-27T13:51:05.000Z</time>
      </trkpt>
      <trkpt lat="42.85813" lon="1.31065">
        <ele>1071</ele>
        <time>2025-09-27T13:51:06.000Z</time>
      </trkpt>
      <trkpt lat="42.85811" lon="1.31065">
        <ele>1070</ele>
        <time>2025-09-27T13:51:07.000Z</time>
      </trkpt>
      <trkpt lat="42.85808" lon="1.31066">
        <ele>1070</ele>
        <time>2025-09-27T13:51:08.000Z</time>
      </trkpt>
      <trkpt lat="42.85807" lon="1.31067">
        <ele>1069</ele>
        <time>2025-09-27T13:51:09.000Z</time>
      </trkpt>
      <trkpt lat="42.85805" lon="1.31067">
        <ele>1069</ele>
        <time>2025-09-27T13:51:10.000Z</time>
      </trkpt>
      <trkpt lat="42.85803" lon="1.31067">
        <ele>1069</ele>
        <time>2025-09-27T13:51:11.000Z</time>
      </trkpt>
      <trkpt lat="42.85802" lon="1.31067">
        <ele>1069</ele>
        <time>2025-09-27T13:51:12.000Z</time>
      </trkpt>
      <trkpt lat="42.858" lon="1.31068">
        <ele>1069</ele>
        <time>2025-09-27T13:51:13.000Z</time>
      </trkpt>
      <trkpt lat="42.85798" lon="1.31068">
        <ele>1069</ele>
        <time>2025-09-27T13:51:14.000Z</time>
      </trkpt>
      <trkpt lat="42.85797" lon="1.31067">
        <ele>1069</ele>
        <time>2025-09-27T13:51:15.000Z</time>
      </trkpt>
      <trkpt lat="42.85796" lon="1.31067">
        <ele>1070</ele>
        <time>2025-09-27T13:51:16.000Z</time>
      </trkpt>
      <trkpt lat="42.85796" lon="1.31068">
        <ele>1070</ele>
        <time>2025-09-27T13:51:17.000Z</time>
      </trkpt>
      <trkpt lat="42.85795" lon="1.31067">
        <ele>1071</ele>
        <time>2025-09-27T13:51:18.000Z</time>
      </trkpt>
      <trkpt lat="42.85794" lon="1.3107">
        <ele>1078</ele>
        <time>2025-09-27T13:51:34.000Z</time>
      </trkpt>
      <trkpt lat="42.85793" lon="1.3107">
        <ele>1079</ele>
        <time>2025-09-27T13:51:35.000Z</time>
      </trkpt>
      <trkpt lat="42.85793" lon="1.31071">
        <ele>1078</ele>
        <time>2025-09-27T13:51:36.000Z</time>
      </trkpt>
      <trkpt lat="42.85792" lon="1.31071">
        <ele>1078</ele>
        <time>2025-09-27T13:51:37.000Z</time>
      </trkpt>
      <trkpt lat="42.85792" lon="1.3107">
        <ele>1078</ele>
        <time>2025-09-27T13:51:38.000Z</time>
      </trkpt>
      <trkpt lat="42.85791" lon="1.3107">
        <ele>1078</ele>
        <time>2025-09-27T13:51:39.000Z</time>
      </trkpt>
      <trkpt lat="42.8579" lon="1.3107">
        <ele>1077</ele>
        <time>2025-09-27T13:51:40.000Z</time>
      </trkpt>
      <trkpt lat="42.85789" lon="1.31071">
        <ele>1076</ele>
        <time>2025-09-27T13:51:41.000Z</time>
      </trkpt>
      <trkpt lat="42.85788" lon="1.31071">
        <ele>1076</ele>
        <time>2025-09-27T13:51:42.000Z</time>
      </trkpt>
      <trkpt lat="42.85788" lon="1.3107">
        <ele>1076</ele>
        <time>2025-09-27T13:51:43.000Z</time>
      </trkpt>
      <trkpt lat="42.85788" lon="1.3107">
        <ele>1076</ele>
        <time>2025-09-27T13:51:44.000Z</time>
      </trkpt>
      <trkpt lat="42.85787" lon="1.31069">
        <ele>1077</ele>
        <time>2025-09-27T13:51:45.000Z</time>
      </trkpt>
      <trkpt lat="42.85787" lon="1.31069">
        <ele>1076</ele>
        <time>2025-09-27T13:51:46.000Z</time>
      </trkpt>
      <trkpt lat="42.85787" lon="1.3107">
        <ele>1076</ele>
        <time>2025-09-27T13:51:47.000Z</time>
      </trkpt>
      <trkpt lat="42.85787" lon="1.3107">
        <ele>1076</ele>
        <time>2025-09-27T13:51:48.000Z</time>
      </trkpt>
      <trkpt lat="42.85787" lon="1.3107">
        <ele>1076</ele>
        <time>2025-09-27T13:51:49.000Z</time>
      </trkpt>
      <trkpt lat="42.85786" lon="1.3107">
        <ele>1076</ele>
        <time>2025-09-27T13:51:50.000Z</time>
      </trkpt>
      <trkpt lat="42.85785" lon="1.31069">
        <ele>1076</ele>
        <time>2025-09-27T13:51:51.000Z</time>
      </trkpt>
      <trkpt lat="42.85784" lon="1.31069">
        <ele>1076</ele>
        <time>2025-09-27T13:51:52.000Z</time>
      </trkpt>
      <trkpt lat="42.85783" lon="1.3107">
        <ele>1076</ele>
        <time>2025-09-27T13:51:53.000Z</time>
      </trkpt>
      <trkpt lat="42.85782" lon="1.31071">
        <ele>1076</ele>
        <time>2025-09-27T13:51:54.000Z</time>
      </trkpt>
      <trkpt lat="42.85781" lon="1.31073">
        <ele>1076</ele>
        <time>2025-09-27T13:51:55.000Z</time>
      </trkpt>
      <trkpt lat="42.8578" lon="1.31074">
        <ele>1075</ele>
        <time>2025-09-27T13:51:56.000Z</time>
      </trkpt>
      <trkpt lat="42.8578" lon="1.31076">
        <ele>1075</ele>
        <time>2025-09-27T13:51:57.000Z</time>
      </trkpt>
      <trkpt lat="42.85778" lon="1.31076">
        <ele>1075</ele>
        <time>2025-09-27T13:51:58.000Z</time>
      </trkpt>
      <trkpt lat="42.85777" lon="1.31077">
        <ele>1076</ele>
        <time>2025-09-27T13:51:59.000Z</time>
      </trkpt>
      <trkpt lat="42.85776" lon="1.31077">
        <ele>1076</ele>
        <time>2025-09-27T13:52:00.000Z</time>
      </trkpt>
      <trkpt lat="42.85775" lon="1.31077">
        <ele>1076</ele>
        <time>2025-09-27T13:52:01.000Z</time>
      </trkpt>
      <trkpt lat="42.85775" lon="1.31076">
        <ele>1076</ele>
        <time>2025-09-27T13:52:02.000Z</time>
      </trkpt>
      <trkpt lat="42.85774" lon="1.31075">
        <ele>1075</ele>
        <time>2025-09-27T13:52:03.000Z</time>
      </trkpt>
      <trkpt lat="42.85773" lon="1.31074">
        <ele>1075</ele>
        <time>2025-09-27T13:52:04.000Z</time>
      </trkpt>
      <trkpt lat="42.85772" lon="1.31073">
        <ele>1075</ele>
        <time>2025-09-27T13:52:05.000Z</time>
      </trkpt>
      <trkpt lat="42.85771" lon="1.31072">
        <ele>1074</ele>
        <time>2025-09-27T13:52:06.000Z</time>
      </trkpt>
      <trkpt lat="42.85771" lon="1.31072">
        <ele>1074</ele>
        <time>2025-09-27T13:52:07.000Z</time>
      </trkpt>
      <trkpt lat="42.8577" lon="1.31071">
        <ele>1074</ele>
        <time>2025-09-27T13:52:08.000Z</time>
      </trkpt>
      <trkpt lat="42.85769" lon="1.3107">
        <ele>1074</ele>
        <time>2025-09-27T13:52:09.000Z</time>
      </trkpt>
      <trkpt lat="42.85769" lon="1.3107">
        <ele>1074</ele>
        <time>2025-09-27T13:52:10.000Z</time>
      </trkpt>
      <trkpt lat="42.85769" lon="1.31069">
        <ele>1075</ele>
        <time>2025-09-27T13:52:11.000Z</time>
      </trkpt>
      <trkpt lat="42.85769" lon="1.31068">
        <ele>1075</ele>
        <time>2025-09-27T13:52:12.000Z</time>
      </trkpt>
      <trkpt lat="42.85769" lon="1.31067">
        <ele>1075</ele>
        <time>2025-09-27T13:52:13.000Z</time>
      </trkpt>
      <trkpt lat="42.85769" lon="1.31065">
        <ele>1075</ele>
        <time>2025-09-27T13:52:14.000Z</time>
      </trkpt>
      <trkpt lat="42.85769" lon="1.31065">
        <ele>1076</ele>
        <time>2025-09-27T13:52:15.000Z</time>
      </trkpt>
      <trkpt lat="42.8577" lon="1.31064">
        <ele>1076</ele>
        <time>2025-09-27T13:52:16.000Z</time>
      </trkpt>
      <trkpt lat="42.85769" lon="1.31061">
        <ele>1075</ele>
        <time>2025-09-27T13:52:17.000Z</time>
      </trkpt>
      <trkpt lat="42.85768" lon="1.3106">
        <ele>1075</ele>
        <time>2025-09-27T13:52:18.000Z</time>
      </trkpt>
      <trkpt lat="42.85768" lon="1.31059">
        <ele>1076</ele>
        <time>2025-09-27T13:52:19.000Z</time>
      </trkpt>
      <trkpt lat="42.85767" lon="1.31057">
        <ele>1077</ele>
        <time>2025-09-27T13:52:20.000Z</time>
      </trkpt>
      <trkpt lat="42.85766" lon="1.31055">
        <ele>1077</ele>
        <time>2025-09-27T13:52:21.000Z</time>
      </trkpt>
      <trkpt lat="42.85765" lon="1.31054">
        <ele>1078</ele>
        <time>2025-09-27T13:52:22.000Z</time>
      </trkpt>
      <trkpt lat="42.85764" lon="1.31053">
        <ele>1077</ele>
        <time>2025-09-27T13:52:23.000Z</time>
      </trkpt>
      <trkpt lat="42.85763" lon="1.31052">
        <ele>1078</ele>
        <time>2025-09-27T13:52:24.000Z</time>
      </trkpt>
      <trkpt lat="42.85763" lon="1.31051">
        <ele>1078</ele>
        <time>2025-09-27T13:52:25.000Z</time>
      </trkpt>
      <trkpt lat="42.85762" lon="1.31049">
        <ele>1079</ele>
        <time>2025-09-27T13:52:26.000Z</time>
      </trkpt>
      <trkpt lat="42.85762" lon="1.31049">
        <ele>1079</ele>
        <time>2025-09-27T13:52:27.000Z</time>
      </trkpt>
      <trkpt lat="42.85762" lon="1.31049">
        <ele>1079</ele>
        <time>2025-09-27T13:52:28.000Z</time>
      </trkpt>
      <trkpt lat="42.85761" lon="1.31048">
        <ele>1080</ele>
        <time>2025-09-27T13:52:29.000Z</time>
      </trkpt>
      <trkpt lat="42.8576" lon="1.31048">
        <ele>1079</ele>
        <time>2025-09-27T13:52:30.000Z</time>
      </trkpt>
      <trkpt lat="42.85759" lon="1.31047">
        <ele>1080</ele>
        <time>2025-09-27T13:52:31.000Z</time>
      </trkpt>
      <trkpt lat="42.85758" lon="1.31046">
        <ele>1080</ele>
        <time>2025-09-27T13:52:32.000Z</time>
      </trkpt>
      <trkpt lat="42.85757" lon="1.31046">
        <ele>1080</ele>
        <time>2025-09-27T13:52:33.000Z</time>
      </trkpt>
      <trkpt lat="42.85757" lon="1.31045">
        <ele>1081</ele>
        <time>2025-09-27T13:52:34.000Z</time>
      </trkpt>
      <trkpt lat="42.85756" lon="1.31044">
        <ele>1081</ele>
        <time>2025-09-27T13:52:35.000Z</time>
      </trkpt>
      <trkpt lat="42.85756" lon="1.31043">
        <ele>1081</ele>
        <time>2025-09-27T13:52:36.000Z</time>
      </trkpt>
      <trkpt lat="42.85755" lon="1.31043">
        <ele>1082</ele>
        <time>2025-09-27T13:52:37.000Z</time>
      </trkpt>
      <trkpt lat="42.85755" lon="1.31042">
        <ele>1082</ele>
        <time>2025-09-27T13:52:38.000Z</time>
      </trkpt>
      <trkpt lat="42.85754" lon="1.31042">
        <ele>1083</ele>
        <time>2025-09-27T13:52:39.000Z</time>
      </trkpt>
      <trkpt lat="42.85754" lon="1.31042">
        <ele>1084</ele>
        <time>2025-09-27T13:52:40.000Z</time>
      </trkpt>
      <trkpt lat="42.85753" lon="1.31041">
        <ele>1085</ele>
        <time>2025-09-27T13:52:41.000Z</time>
      </trkpt>
      <trkpt lat="42.85752" lon="1.31041">
        <ele>1085</ele>
        <time>2025-09-27T13:52:42.000Z</time>
      </trkpt>
      <trkpt lat="42.85751" lon="1.3104">
        <ele>1086</ele>
        <time>2025-09-27T13:52:43.000Z</time>
      </trkpt>
      <trkpt lat="42.8575" lon="1.3104">
        <ele>1086</ele>
        <time>2025-09-27T13:52:44.000Z</time>
      </trkpt>
      <trkpt lat="42.8575" lon="1.3104">
        <ele>1087</ele>
        <time>2025-09-27T13:52:45.000Z</time>
      </trkpt>
      <trkpt lat="42.85749" lon="1.3104">
        <ele>1087</ele>
        <time>2025-09-27T13:52:46.000Z</time>
      </trkpt>
      <trkpt lat="42.85749" lon="1.31039">
        <ele>1087</ele>
        <time>2025-09-27T13:52:47.000Z</time>
      </trkpt>
      <trkpt lat="42.85748" lon="1.31039">
        <ele>1088</ele>
        <time>2025-09-27T13:52:48.000Z</time>
      </trkpt>
      <trkpt lat="42.85747" lon="1.31038">
        <ele>1087</ele>
        <time>2025-09-27T13:52:49.000Z</time>
      </trkpt>
      <trkpt lat="42.85746" lon="1.31037">
        <ele>1087</ele>
        <time>2025-09-27T13:52:50.000Z</time>
      </trkpt>
      <trkpt lat="42.85746" lon="1.31036">
        <ele>1086</ele>
        <time>2025-09-27T13:52:51.000Z</time>
      </trkpt>
      <trkpt lat="42.85746" lon="1.31035">
        <ele>1086</ele>
        <time>2025-09-27T13:52:52.000Z</time>
      </trkpt>
      <trkpt lat="42.85746" lon="1.31035">
        <ele>1086</ele>
        <time>2025-09-27T13:52:53.000Z</time>
      </trkpt>
      <trkpt lat="42.85746" lon="1.31033">
        <ele>1086</ele>
        <time>2025-09-27T13:52:54.000Z</time>
      </trkpt>
      <trkpt lat="42.85747" lon="1.31033">
        <ele>1086</ele>
        <time>2025-09-27T13:52:55.000Z</time>
      </trkpt>
      <trkpt lat="42.85747" lon="1.31031">
        <ele>1089</ele>
        <time>2025-09-27T13:53:10.000Z</time>
      </trkpt>
      <trkpt lat="42.85746" lon="1.31031">
        <ele>1090</ele>
        <time>2025-09-27T13:53:11.000Z</time>
      </trkpt>
      <trkpt lat="42.85746" lon="1.3103">
        <ele>1090</ele>
        <time>2025-09-27T13:53:12.000Z</time>
      </trkpt>
      <trkpt lat="42.85746" lon="1.31029">
        <ele>1090</ele>
        <time>2025-09-27T13:53:13.000Z</time>
      </trkpt>
      <trkpt lat="42.85744" lon="1.31029">
        <ele>1090</ele>
        <time>2025-09-27T13:53:14.000Z</time>
      </trkpt>
      <trkpt lat="42.85743" lon="1.31028">
        <ele>1090</ele>
        <time>2025-09-27T13:53:15.000Z</time>
      </trkpt>
      <trkpt lat="42.85742" lon="1.31027">
        <ele>1090</ele>
        <time>2025-09-27T13:53:16.000Z</time>
      </trkpt>
      <trkpt lat="42.85742" lon="1.31025">
        <ele>1091</ele>
        <time>2025-09-27T13:53:17.000Z</time>
      </trkpt>
      <trkpt lat="42.85741" lon="1.31024">
        <ele>1091</ele>
        <time>2025-09-27T13:53:18.000Z</time>
      </trkpt>
      <trkpt lat="42.8574" lon="1.31022">
        <ele>1092</ele>
        <time>2025-09-27T13:53:19.000Z</time>
      </trkpt>
      <trkpt lat="42.8574" lon="1.31021">
        <ele>1092</ele>
        <time>2025-09-27T13:53:20.000Z</time>
      </trkpt>
      <trkpt lat="42.85739" lon="1.3102">
        <ele>1093</ele>
        <time>2025-09-27T13:53:21.000Z</time>
      </trkpt>
      <trkpt lat="42.85738" lon="1.31018">
        <ele>1093</ele>
        <time>2025-09-27T13:53:22.000Z</time>
      </trkpt>
      <trkpt lat="42.85737" lon="1.31017">
        <ele>1093</ele>
        <time>2025-09-27T13:53:23.000Z</time>
      </trkpt>
      <trkpt lat="42.85736" lon="1.31016">
        <ele>1093</ele>
        <time>2025-09-27T13:53:24.000Z</time>
      </trkpt>
      <trkpt lat="42.85735" lon="1.31014">
        <ele>1094</ele>
        <time>2025-09-27T13:53:25.000Z</time>
      </trkpt>
      <trkpt lat="42.85734" lon="1.31013">
        <ele>1095</ele>
        <time>2025-09-27T13:53:26.000Z</time>
      </trkpt>
      <trkpt lat="42.85732" lon="1.31013">
        <ele>1095</ele>
        <time>2025-09-27T13:53:27.000Z</time>
      </trkpt>
      <trkpt lat="42.85731" lon="1.31011">
        <ele>1095</ele>
        <time>2025-09-27T13:53:28.000Z</time>
      </trkpt>
      <trkpt lat="42.8573" lon="1.31011">
        <ele>1096</ele>
        <time>2025-09-27T13:53:29.000Z</time>
      </trkpt>
      <trkpt lat="42.85729" lon="1.3101">
        <ele>1096</ele>
        <time>2025-09-27T13:53:30.000Z</time>
      </trkpt>
      <trkpt lat="42.85729" lon="1.3101">
        <ele>1097</ele>
        <time>2025-09-27T13:53:31.000Z</time>
      </trkpt>
      <trkpt lat="42.85728" lon="1.31009">
        <ele>1096</ele>
        <time>2025-09-27T13:53:32.000Z</time>
      </trkpt>
      <trkpt lat="42.85727" lon="1.31009">
        <ele>1096</ele>
        <time>2025-09-27T13:53:33.000Z</time>
      </trkpt>
      <trkpt lat="42.85726" lon="1.31008">
        <ele>1096</ele>
        <time>2025-09-27T13:53:34.000Z</time>
      </trkpt>
      <trkpt lat="42.85725" lon="1.31007">
        <ele>1096</ele>
        <time>2025-09-27T13:53:35.000Z</time>
      </trkpt>
      <trkpt lat="42.85724" lon="1.31007">
        <ele>1097</ele>
        <time>2025-09-27T13:53:36.000Z</time>
      </trkpt>
      <trkpt lat="42.85723" lon="1.31007">
        <ele>1097</ele>
        <time>2025-09-27T13:53:37.000Z</time>
      </trkpt>
      <trkpt lat="42.85722" lon="1.31006">
        <ele>1097</ele>
        <time>2025-09-27T13:53:38.000Z</time>
      </trkpt>
      <trkpt lat="42.85721" lon="1.31006">
        <ele>1098</ele>
        <time>2025-09-27T13:53:39.000Z</time>
      </trkpt>
      <trkpt lat="42.8572" lon="1.31006">
        <ele>1097</ele>
        <time>2025-09-27T13:53:40.000Z</time>
      </trkpt>
      <trkpt lat="42.85718" lon="1.31006">
        <ele>1096</ele>
        <time>2025-09-27T13:53:41.000Z</time>
      </trkpt>
      <trkpt lat="42.85717" lon="1.31006">
        <ele>1097</ele>
        <time>2025-09-27T13:53:42.000Z</time>
      </trkpt>
      <trkpt lat="42.85715" lon="1.31006">
        <ele>1097</ele>
        <time>2025-09-27T13:53:43.000Z</time>
      </trkpt>
      <trkpt lat="42.85714" lon="1.31006">
        <ele>1098</ele>
        <time>2025-09-27T13:53:44.000Z</time>
      </trkpt>
      <trkpt lat="42.85713" lon="1.31005">
        <ele>1098</ele>
        <time>2025-09-27T13:53:45.000Z</time>
      </trkpt>
      <trkpt lat="42.85712" lon="1.31004">
        <ele>1097</ele>
        <time>2025-09-27T13:53:46.000Z</time>
      </trkpt>
      <trkpt lat="42.85711" lon="1.31004">
        <ele>1098</ele>
        <time>2025-09-27T13:53:47.000Z</time>
      </trkpt>
      <trkpt lat="42.85709" lon="1.31004">
        <ele>1099</ele>
        <time>2025-09-27T13:53:48.000Z</time>
      </trkpt>
      <trkpt lat="42.85709" lon="1.31003">
        <ele>1100</ele>
        <time>2025-09-27T13:53:49.000Z</time>
      </trkpt>
      <trkpt lat="42.85708" lon="1.31003">
        <ele>1100</ele>
        <time>2025-09-27T13:53:50.000Z</time>
      </trkpt>
      <trkpt lat="42.85707" lon="1.31003">
        <ele>1100</ele>
        <time>2025-09-27T13:53:51.000Z</time>
      </trkpt>
      <trkpt lat="42.85706" lon="1.31002">
        <ele>1100</ele>
        <time>2025-09-27T13:53:52.000Z</time>
      </trkpt>
      <trkpt lat="42.85705" lon="1.31002">
        <ele>1100</ele>
        <time>2025-09-27T13:53:53.000Z</time>
      </trkpt>
      <trkpt lat="42.85704" lon="1.31002">
        <ele>1100</ele>
        <time>2025-09-27T13:53:54.000Z</time>
      </trkpt>
      <trkpt lat="42.85703" lon="1.31001">
        <ele>1100</ele>
        <time>2025-09-27T13:53:55.000Z</time>
      </trkpt>
      <trkpt lat="42.85702" lon="1.31001">
        <ele>1100</ele>
        <time>2025-09-27T13:53:56.000Z</time>
      </trkpt>
      <trkpt lat="42.85701" lon="1.31">
        <ele>1100</ele>
        <time>2025-09-27T13:53:57.000Z</time>
      </trkpt>
      <trkpt lat="42.857" lon="1.31">
        <ele>1101</ele>
        <time>2025-09-27T13:53:58.000Z</time>
      </trkpt>
      <trkpt lat="42.85699" lon="1.30999">
        <ele>1100</ele>
        <time>2025-09-27T13:53:59.000Z</time>
      </trkpt>
      <trkpt lat="42.85698" lon="1.30998">
        <ele>1101</ele>
        <time>2025-09-27T13:54:00.000Z</time>
      </trkpt>
      <trkpt lat="42.85697" lon="1.30996">
        <ele>1101</ele>
        <time>2025-09-27T13:54:01.000Z</time>
      </trkpt>
      <trkpt lat="42.85695" lon="1.30995">
        <ele>1101</ele>
        <time>2025-09-27T13:54:02.000Z</time>
      </trkpt>
      <trkpt lat="42.85694" lon="1.30994">
        <ele>1101</ele>
        <time>2025-09-27T13:54:03.000Z</time>
      </trkpt>
      <trkpt lat="42.85693" lon="1.30993">
        <ele>1102</ele>
        <time>2025-09-27T13:54:04.000Z</time>
      </trkpt>
      <trkpt lat="42.85691" lon="1.30992">
        <ele>1101</ele>
        <time>2025-09-27T13:54:05.000Z</time>
      </trkpt>
      <trkpt lat="42.85689" lon="1.30991">
        <ele>1102</ele>
        <time>2025-09-27T13:54:06.000Z</time>
      </trkpt>
      <trkpt lat="42.85688" lon="1.30991">
        <ele>1103</ele>
        <time>2025-09-27T13:54:07.000Z</time>
      </trkpt>
      <trkpt lat="42.85686" lon="1.3099">
        <ele>1103</ele>
        <time>2025-09-27T13:54:08.000Z</time>
      </trkpt>
      <trkpt lat="42.85686" lon="1.30989">
        <ele>1104</ele>
        <time>2025-09-27T13:54:09.000Z</time>
      </trkpt>
      <trkpt lat="42.85686" lon="1.30988">
        <ele>1106</ele>
        <time>2025-09-27T13:54:10.000Z</time>
      </trkpt>
      <trkpt lat="42.85686" lon="1.30987">
        <ele>1106</ele>
        <time>2025-09-27T13:54:11.000Z</time>
      </trkpt>
      <trkpt lat="42.85687" lon="1.30987">
        <ele>1106</ele>
        <time>2025-09-27T13:54:12.000Z</time>
      </trkpt>
      <trkpt lat="42.85688" lon="1.30987">
        <ele>1106</ele>
        <time>2025-09-27T13:54:13.000Z</time>
      </trkpt>
      <trkpt lat="42.85688" lon="1.30987">
        <ele>1106</ele>
        <time>2025-09-27T13:54:14.000Z</time>
      </trkpt>
      <trkpt lat="42.85689" lon="1.30988">
        <ele>1106</ele>
        <time>2025-09-27T13:54:15.000Z</time>
      </trkpt>
      <trkpt lat="42.8569" lon="1.30988">
        <ele>1106</ele>
        <time>2025-09-27T13:54:16.000Z</time>
      </trkpt>
      <trkpt lat="42.85693" lon="1.30988">
        <ele>1105</ele>
        <time>2025-09-27T13:54:17.000Z</time>
      </trkpt>
      <trkpt lat="42.85695" lon="1.30988">
        <ele>1105</ele>
        <time>2025-09-27T13:54:18.000Z</time>
      </trkpt>
      <trkpt lat="42.85696" lon="1.30988">
        <ele>1105</ele>
        <time>2025-09-27T13:54:19.000Z</time>
      </trkpt>
      <trkpt lat="42.85698" lon="1.30987">
        <ele>1106</ele>
        <time>2025-09-27T13:54:20.000Z</time>
      </trkpt>
      <trkpt lat="42.85699" lon="1.30986">
        <ele>1106</ele>
        <time>2025-09-27T13:54:21.000Z</time>
      </trkpt>
      <trkpt lat="42.85702" lon="1.30987">
        <ele>1109</ele>
        <time>2025-09-27T13:55:19.000Z</time>
      </trkpt>
      <trkpt lat="42.85703" lon="1.30986">
        <ele>1109</ele>
        <time>2025-09-27T13:55:20.000Z</time>
      </trkpt>
      <trkpt lat="42.85705" lon="1.30984">
        <ele>1108</ele>
        <time>2025-09-27T13:55:21.000Z</time>
      </trkpt>
      <trkpt lat="42.85706" lon="1.30984">
        <ele>1109</ele>
        <time>2025-09-27T13:55:22.000Z</time>
      </trkpt>
      <trkpt lat="42.85707" lon="1.30983">
        <ele>1109</ele>
        <time>2025-09-27T13:55:23.000Z</time>
      </trkpt>
      <trkpt lat="42.85708" lon="1.30981">
        <ele>1109</ele>
        <time>2025-09-27T13:55:24.000Z</time>
      </trkpt>
      <trkpt lat="42.8571" lon="1.3098">
        <ele>1109</ele>
        <time>2025-09-27T13:55:25.000Z</time>
      </trkpt>
      <trkpt lat="42.85713" lon="1.30979">
        <ele>1109</ele>
        <time>2025-09-27T13:55:26.000Z</time>
      </trkpt>
      <trkpt lat="42.85716" lon="1.30978">
        <ele>1110</ele>
        <time>2025-09-27T13:55:27.000Z</time>
      </trkpt>
      <trkpt lat="42.8572" lon="1.30977">
        <ele>1110</ele>
        <time>2025-09-27T13:55:28.000Z</time>
      </trkpt>
      <trkpt lat="42.85724" lon="1.30976">
        <ele>1110</ele>
        <time>2025-09-27T13:55:29.000Z</time>
      </trkpt>
      <trkpt lat="42.85728" lon="1.30976">
        <ele>1110</ele>
        <time>2025-09-27T13:55:30.000Z</time>
      </trkpt>
      <trkpt lat="42.85731" lon="1.30976">
        <ele>1110</ele>
        <time>2025-09-27T13:55:31.000Z</time>
      </trkpt>
      <trkpt lat="42.85736" lon="1.30976">
        <ele>1110</ele>
        <time>2025-09-27T13:55:32.000Z</time>
      </trkpt>
      <trkpt lat="42.85739" lon="1.30976">
        <ele>1111</ele>
        <time>2025-09-27T13:55:33.000Z</time>
      </trkpt>
      <trkpt lat="42.85742" lon="1.30976">
        <ele>1111</ele>
        <time>2025-09-27T13:55:34.000Z</time>
      </trkpt>
      <trkpt lat="42.85745" lon="1.30975">
        <ele>1111</ele>
        <time>2025-09-27T13:55:35.000Z</time>
      </trkpt>
      <trkpt lat="42.85748" lon="1.30975">
        <ele>1112</ele>
        <time>2025-09-27T13:55:36.000Z</time>
      </trkpt>
      <trkpt lat="42.85752" lon="1.30974">
        <ele>1111</ele>
        <time>2025-09-27T13:55:37.000Z</time>
      </trkpt>
      <trkpt lat="42.85754" lon="1.30971">
        <ele>1111</ele>
        <time>2025-09-27T13:55:38.000Z</time>
      </trkpt>
      <trkpt lat="42.85756" lon="1.30969">
        <ele>1112</ele>
        <time>2025-09-27T13:55:39.000Z</time>
      </trkpt>
      <trkpt lat="42.85758" lon="1.30967">
        <ele>1112</ele>
        <time>2025-09-27T13:55:40.000Z</time>
      </trkpt>
      <trkpt lat="42.85761" lon="1.30964">
        <ele>1111</ele>
        <time>2025-09-27T13:55:41.000Z</time>
      </trkpt>
      <trkpt lat="42.85763" lon="1.30962">
        <ele>1112</ele>
        <time>2025-09-27T13:55:42.000Z</time>
      </trkpt>
      <trkpt lat="42.85765" lon="1.3096">
        <ele>1112</ele>
        <time>2025-09-27T13:55:43.000Z</time>
      </trkpt>
      <trkpt lat="42.85767" lon="1.30958">
        <ele>1112</ele>
        <time>2025-09-27T13:55:44.000Z</time>
      </trkpt>
      <trkpt lat="42.85768" lon="1.30956">
        <ele>1113</ele>
        <time>2025-09-27T13:55:45.000Z</time>
      </trkpt>
      <trkpt lat="42.8577" lon="1.30954">
        <ele>1114</ele>
        <time>2025-09-27T13:55:46.000Z</time>
      </trkpt>
      <trkpt lat="42.85771" lon="1.30953">
        <ele>1114</ele>
        <time>2025-09-27T13:55:47.000Z</time>
      </trkpt>
      <trkpt lat="42.85772" lon="1.30951">
        <ele>1114</ele>
        <time>2025-09-27T13:55:48.000Z</time>
      </trkpt>
      <trkpt lat="42.85773" lon="1.3095">
        <ele>1114</ele>
        <time>2025-09-27T13:55:49.000Z</time>
      </trkpt>
      <trkpt lat="42.85775" lon="1.30949">
        <ele>1114</ele>
        <time>2025-09-27T13:55:50.000Z</time>
      </trkpt>
      <trkpt lat="42.85776" lon="1.30949">
        <ele>1114</ele>
        <time>2025-09-27T13:55:51.000Z</time>
      </trkpt>
      <trkpt lat="42.85776" lon="1.30948">
        <ele>1114</ele>
        <time>2025-09-27T13:55:52.000Z</time>
      </trkpt>
      <trkpt lat="42.85778" lon="1.30947">
        <ele>1113</ele>
        <time>2025-09-27T13:55:53.000Z</time>
      </trkpt>
      <trkpt lat="42.85779" lon="1.30946">
        <ele>1112</ele>
        <time>2025-09-27T13:55:54.000Z</time>
      </trkpt>
      <trkpt lat="42.8578" lon="1.30946">
        <ele>1113</ele>
        <time>2025-09-27T13:55:55.000Z</time>
      </trkpt>
      <trkpt lat="42.85781" lon="1.30945">
        <ele>1113</ele>
        <time>2025-09-27T13:55:56.000Z</time>
      </trkpt>
      <trkpt lat="42.85783" lon="1.30945">
        <ele>1112</ele>
        <time>2025-09-27T13:55:57.000Z</time>
      </trkpt>
      <trkpt lat="42.85784" lon="1.30945">
        <ele>1112</ele>
        <time>2025-09-27T13:55:58.000Z</time>
      </trkpt>
      <trkpt lat="42.85786" lon="1.30946">
        <ele>1112</ele>
        <time>2025-09-27T13:55:59.000Z</time>
      </trkpt>
      <trkpt lat="42.85787" lon="1.30946">
        <ele>1113</ele>
        <time>2025-09-27T13:56:00.000Z</time>
      </trkpt>
      <trkpt lat="42.8579" lon="1.30946">
        <ele>1113</ele>
        <time>2025-09-27T13:56:01.000Z</time>
      </trkpt>
      <trkpt lat="42.85791" lon="1.30945">
        <ele>1113</ele>
        <time>2025-09-27T13:56:02.000Z</time>
      </trkpt>
      <trkpt lat="42.85793" lon="1.30945">
        <ele>1112</ele>
        <time>2025-09-27T13:56:03.000Z</time>
      </trkpt>
      <trkpt lat="42.85794" lon="1.30944">
        <ele>1111</ele>
        <time>2025-09-27T13:56:04.000Z</time>
      </trkpt>
      <trkpt lat="42.85796" lon="1.30943">
        <ele>1112</ele>
        <time>2025-09-27T13:56:05.000Z</time>
      </trkpt>
      <trkpt lat="42.85797" lon="1.30943">
        <ele>1112</ele>
        <time>2025-09-27T13:56:06.000Z</time>
      </trkpt>
      <trkpt lat="42.85797" lon="1.30944">
        <ele>1112</ele>
        <time>2025-09-27T13:56:07.000Z</time>
      </trkpt>
      <trkpt lat="42.85798" lon="1.30943">
        <ele>1112</ele>
        <time>2025-09-27T13:56:08.000Z</time>
      </trkpt>
      <trkpt lat="42.85797" lon="1.30943">
        <ele>1112</ele>
        <time>2025-09-27T13:56:09.000Z</time>
      </trkpt>
      <trkpt lat="42.85798" lon="1.30944">
        <ele>1112</ele>
        <time>2025-09-27T13:56:10.000Z</time>
      </trkpt>
      <trkpt lat="42.85798" lon="1.30944">
        <ele>1112</ele>
        <time>2025-09-27T13:56:11.000Z</time>
      </trkpt>
      <trkpt lat="42.85798" lon="1.30944">
        <ele>1112</ele>
        <time>2025-09-27T13:56:12.000Z</time>
      </trkpt>
      <trkpt lat="42.85799" lon="1.30944">
        <ele>1112</ele>
        <time>2025-09-27T13:56:13.000Z</time>
      </trkpt>
      <trkpt lat="42.858" lon="1.30943">
        <ele>1113</ele>
        <time>2025-09-27T13:56:14.000Z</time>
      </trkpt>
      <trkpt lat="42.858" lon="1.30944">
        <ele>1112</ele>
        <time>2025-09-27T13:56:15.000Z</time>
      </trkpt>
      <trkpt lat="42.85801" lon="1.30944">
        <ele>1113</ele>
        <time>2025-09-27T13:56:16.000Z</time>
      </trkpt>
      <trkpt lat="42.85802" lon="1.30944">
        <ele>1113</ele>
        <time>2025-09-27T13:56:17.000Z</time>
      </trkpt>
      <trkpt lat="42.85802" lon="1.30943">
        <ele>1113</ele>
        <time>2025-09-27T13:56:18.000Z</time>
      </trkpt>
      <trkpt lat="42.85803" lon="1.30942">
        <ele>1114</ele>
        <time>2025-09-27T13:56:19.000Z</time>
      </trkpt>
      <trkpt lat="42.85804" lon="1.30942">
        <ele>1113</ele>
        <time>2025-09-27T13:56:20.000Z</time>
      </trkpt>
      <trkpt lat="42.85805" lon="1.30943">
        <ele>1113</ele>
        <time>2025-09-27T13:56:21.000Z</time>
      </trkpt>
      <trkpt lat="42.85806" lon="1.30944">
        <ele>1113</ele>
        <time>2025-09-27T13:56:22.000Z</time>
      </trkpt>
      <trkpt lat="42.85806" lon="1.30946">
        <ele>1114</ele>
        <time>2025-09-27T13:56:23.000Z</time>
      </trkpt>
      <trkpt lat="42.85813" lon="1.30946">
        <ele>1118</ele>
        <time>2025-09-27T13:56:50.000Z</time>
      </trkpt>
      <trkpt lat="42.85814" lon="1.30946">
        <ele>1117</ele>
        <time>2025-09-27T13:56:51.000Z</time>
      </trkpt>
      <trkpt lat="42.85817" lon="1.30946">
        <ele>1117</ele>
        <time>2025-09-27T13:56:52.000Z</time>
      </trkpt>
      <trkpt lat="42.8582" lon="1.30946">
        <ele>1117</ele>
        <time>2025-09-27T13:56:53.000Z</time>
      </trkpt>
      <trkpt lat="42.85823" lon="1.30946">
        <ele>1118</ele>
        <time>2025-09-27T13:56:54.000Z</time>
      </trkpt>
      <trkpt lat="42.85825" lon="1.30946">
        <ele>1117</ele>
        <time>2025-09-27T13:56:55.000Z</time>
      </trkpt>
      <trkpt lat="42.85828" lon="1.30945">
        <ele>1116</ele>
        <time>2025-09-27T13:56:56.000Z</time>
      </trkpt>
      <trkpt lat="42.85831" lon="1.30944">
        <ele>1116</ele>
        <time>2025-09-27T13:56:57.000Z</time>
      </trkpt>
      <trkpt lat="42.85835" lon="1.30945">
        <ele>1116</ele>
        <time>2025-09-27T13:56:58.000Z</time>
      </trkpt>
      <trkpt lat="42.85839" lon="1.30945">
        <ele>1116</ele>
        <time>2025-09-27T13:56:59.000Z</time>
      </trkpt>
      <trkpt lat="42.85842" lon="1.30944">
        <ele>1115</ele>
        <time>2025-09-27T13:57:00.000Z</time>
      </trkpt>
      <trkpt lat="42.85845" lon="1.30945">
        <ele>1115</ele>
        <time>2025-09-27T13:57:01.000Z</time>
      </trkpt>
      <trkpt lat="42.85847" lon="1.30944">
        <ele>1116</ele>
        <time>2025-09-27T13:57:02.000Z</time>
      </trkpt>
      <trkpt lat="42.85849" lon="1.30944">
        <ele>1116</ele>
        <time>2025-09-27T13:57:03.000Z</time>
      </trkpt>
      <trkpt lat="42.85851" lon="1.30942">
        <ele>1116</ele>
        <time>2025-09-27T13:57:04.000Z</time>
      </trkpt>
      <trkpt lat="42.85852" lon="1.30941">
        <ele>1116</ele>
        <time>2025-09-27T13:57:05.000Z</time>
      </trkpt>
      <trkpt lat="42.85852" lon="1.30941">
        <ele>1114</ele>
        <time>2025-09-27T13:57:06.000Z</time>
      </trkpt>
      <trkpt lat="42.85852" lon="1.30942">
        <ele>1113</ele>
        <time>2025-09-27T13:57:07.000Z</time>
      </trkpt>
      <trkpt lat="42.85853" lon="1.30943">
        <ele>1114</ele>
        <time>2025-09-27T13:57:08.000Z</time>
      </trkpt>
      <trkpt lat="42.85857" lon="1.30939">
        <ele>1114</ele>
        <time>2025-09-27T13:58:30.000Z</time>
      </trkpt>
      <trkpt lat="42.85858" lon="1.30938">
        <ele>1113</ele>
        <time>2025-09-27T13:58:31.000Z</time>
      </trkpt>
      <trkpt lat="42.85858" lon="1.30936">
        <ele>1112</ele>
        <time>2025-09-27T13:58:32.000Z</time>
      </trkpt>
      <trkpt lat="42.85859" lon="1.30933">
        <ele>1112</ele>
        <time>2025-09-27T13:58:33.000Z</time>
      </trkpt>
      <trkpt lat="42.8586" lon="1.3093">
        <ele>1112</ele>
        <time>2025-09-27T13:58:34.000Z</time>
      </trkpt>
      <trkpt lat="42.85862" lon="1.30927">
        <ele>1111</ele>
        <time>2025-09-27T13:58:35.000Z</time>
      </trkpt>
      <trkpt lat="42.85864" lon="1.30925">
        <ele>1109</ele>
        <time>2025-09-27T13:58:36.000Z</time>
      </trkpt>
      <trkpt lat="42.85866" lon="1.30922">
        <ele>1108</ele>
        <time>2025-09-27T13:58:37.000Z</time>
      </trkpt>
      <trkpt lat="42.8587" lon="1.3092">
        <ele>1107</ele>
        <time>2025-09-27T13:58:38.000Z</time>
      </trkpt>
      <trkpt lat="42.85873" lon="1.30918">
        <ele>1106</ele>
        <time>2025-09-27T13:58:39.000Z</time>
      </trkpt>
      <trkpt lat="42.85877" lon="1.30916">
        <ele>1106</ele>
        <time>2025-09-27T13:58:40.000Z</time>
      </trkpt>
      <trkpt lat="42.85881" lon="1.30914">
        <ele>1106</ele>
        <time>2025-09-27T13:58:41.000Z</time>
      </trkpt>
      <trkpt lat="42.85885" lon="1.30912">
        <ele>1106</ele>
        <time>2025-09-27T13:58:42.000Z</time>
      </trkpt>
      <trkpt lat="42.85888" lon="1.3091">
        <ele>1105</ele>
        <time>2025-09-27T13:58:43.000Z</time>
      </trkpt>
      <trkpt lat="42.85894" lon="1.3091">
        <ele>1106</ele>
        <time>2025-09-27T13:58:44.000Z</time>
      </trkpt>
      <trkpt lat="42.859" lon="1.30909">
        <ele>1106</ele>
        <time>2025-09-27T13:58:45.000Z</time>
      </trkpt>
      <trkpt lat="42.85904" lon="1.30909">
        <ele>1107</ele>
        <time>2025-09-27T13:58:46.000Z</time>
      </trkpt>
      <trkpt lat="42.85909" lon="1.30907">
        <ele>1108</ele>
        <time>2025-09-27T13:58:47.000Z</time>
      </trkpt>
      <trkpt lat="42.85912" lon="1.30906">
        <ele>1108</ele>
        <time>2025-09-27T13:58:48.000Z</time>
      </trkpt>
      <trkpt lat="42.85915" lon="1.30904">
        <ele>1109</ele>
        <time>2025-09-27T13:58:49.000Z</time>
      </trkpt>
      <trkpt lat="42.85917" lon="1.30903">
        <ele>1109</ele>
        <time>2025-09-27T13:58:50.000Z</time>
      </trkpt>
      <trkpt lat="42.85919" lon="1.309">
        <ele>1109</ele>
        <time>2025-09-27T13:58:51.000Z</time>
      </trkpt>
      <trkpt lat="42.85922" lon="1.30898">
        <ele>1110</ele>
        <time>2025-09-27T13:58:52.000Z</time>
      </trkpt>
      <trkpt lat="42.85923" lon="1.30896">
        <ele>1111</ele>
        <time>2025-09-27T13:58:53.000Z</time>
      </trkpt>
      <trkpt lat="42.85925" lon="1.30894">
        <ele>1112</ele>
        <time>2025-09-27T13:58:54.000Z</time>
      </trkpt>
      <trkpt lat="42.85927" lon="1.30891">
        <ele>1113</ele>
        <time>2025-09-27T13:58:55.000Z</time>
      </trkpt>
      <trkpt lat="42.85928" lon="1.30889">
        <ele>1113</ele>
        <time>2025-09-27T13:58:56.000Z</time>
      </trkpt>
      <trkpt lat="42.8593" lon="1.30886">
        <ele>1114</ele>
        <time>2025-09-27T13:58:57.000Z</time>
      </trkpt>
      <trkpt lat="42.85932" lon="1.30882">
        <ele>1114</ele>
        <time>2025-09-27T13:58:58.000Z</time>
      </trkpt>
      <trkpt lat="42.85934" lon="1.30877">
        <ele>1114</ele>
        <time>2025-09-27T13:58:59.000Z</time>
      </trkpt>
      <trkpt lat="42.85936" lon="1.30873">
        <ele>1114</ele>
        <time>2025-09-27T13:59:00.000Z</time>
      </trkpt>
      <trkpt lat="42.85938" lon="1.30868">
        <ele>1114</ele>
        <time>2025-09-27T13:59:01.000Z</time>
      </trkpt>
      <trkpt lat="42.85939" lon="1.30863">
        <ele>1115</ele>
        <time>2025-09-27T13:59:02.000Z</time>
      </trkpt>
      <trkpt lat="42.85942" lon="1.30859">
        <ele>1115</ele>
        <time>2025-09-27T13:59:03.000Z</time>
      </trkpt>
      <trkpt lat="42.85943" lon="1.30856">
        <ele>1116</ele>
        <time>2025-09-27T13:59:04.000Z</time>
      </trkpt>
      <trkpt lat="42.85945" lon="1.30854">
        <ele>1116</ele>
        <time>2025-09-27T13:59:05.000Z</time>
      </trkpt>
      <trkpt lat="42.85946" lon="1.30852">
        <ele>1116</ele>
        <time>2025-09-27T13:59:06.000Z</time>
      </trkpt>
      <trkpt lat="42.85948" lon="1.30849">
        <ele>1116</ele>
        <time>2025-09-27T13:59:07.000Z</time>
      </trkpt>
      <trkpt lat="42.8595" lon="1.30847">
        <ele>1116</ele>
        <time>2025-09-27T13:59:08.000Z</time>
      </trkpt>
      <trkpt lat="42.85952" lon="1.30846">
        <ele>1116</ele>
        <time>2025-09-27T13:59:09.000Z</time>
      </trkpt>
      <trkpt lat="42.85956" lon="1.30845">
        <ele>1116</ele>
        <time>2025-09-27T13:59:10.000Z</time>
      </trkpt>
      <trkpt lat="42.85959" lon="1.30843">
        <ele>1116</ele>
        <time>2025-09-27T13:59:11.000Z</time>
      </trkpt>
      <trkpt lat="42.85961" lon="1.30841">
        <ele>1116</ele>
        <time>2025-09-27T13:59:12.000Z</time>
      </trkpt>
      <trkpt lat="42.85962" lon="1.3084">
        <ele>1116</ele>
        <time>2025-09-27T13:59:13.000Z</time>
      </trkpt>
      <trkpt lat="42.85963" lon="1.3084">
        <ele>1116</ele>
        <time>2025-09-27T13:59:14.000Z</time>
      </trkpt>
      <trkpt lat="42.85965" lon="1.30839">
        <ele>1116</ele>
        <time>2025-09-27T13:59:15.000Z</time>
      </trkpt>
      <trkpt lat="42.85967" lon="1.30839">
        <ele>1115</ele>
        <time>2025-09-27T13:59:16.000Z</time>
      </trkpt>
      <trkpt lat="42.85969" lon="1.3084">
        <ele>1115</ele>
        <time>2025-09-27T13:59:17.000Z</time>
      </trkpt>
      <trkpt lat="42.85969" lon="1.3084">
        <ele>1115</ele>
        <time>2025-09-27T13:59:18.000Z</time>
      </trkpt>
      <trkpt lat="42.8597" lon="1.30838">
        <ele>1115</ele>
        <time>2025-09-27T13:59:19.000Z</time>
      </trkpt>
      <trkpt lat="42.85971" lon="1.30838">
        <ele>1115</ele>
        <time>2025-09-27T13:59:20.000Z</time>
      </trkpt>
      <trkpt lat="42.85972" lon="1.30837">
        <ele>1115</ele>
        <time>2025-09-27T13:59:21.000Z</time>
      </trkpt>
      <trkpt lat="42.85974" lon="1.30837">
        <ele>1115</ele>
        <time>2025-09-27T13:59:22.000Z</time>
      </trkpt>
      <trkpt lat="42.85976" lon="1.30837">
        <ele>1115</ele>
        <time>2025-09-27T13:59:23.000Z</time>
      </trkpt>
      <trkpt lat="42.85978" lon="1.30837">
        <ele>1114</ele>
        <time>2025-09-27T13:59:24.000Z</time>
      </trkpt>
      <trkpt lat="42.85981" lon="1.30839">
        <ele>1115</ele>
        <time>2025-09-27T13:59:25.000Z</time>
      </trkpt>
      <trkpt lat="42.85984" lon="1.30839">
        <ele>1114</ele>
        <time>2025-09-27T13:59:26.000Z</time>
      </trkpt>
      <trkpt lat="42.85987" lon="1.3084">
        <ele>1114</ele>
        <time>2025-09-27T13:59:27.000Z</time>
      </trkpt>
      <trkpt lat="42.8599" lon="1.30841">
        <ele>1113</ele>
        <time>2025-09-27T13:59:28.000Z</time>
      </trkpt>
      <trkpt lat="42.85993" lon="1.30841">
        <ele>1114</ele>
        <time>2025-09-27T13:59:29.000Z</time>
      </trkpt>
      <trkpt lat="42.85997" lon="1.30841">
        <ele>1113</ele>
        <time>2025-09-27T13:59:30.000Z</time>
      </trkpt>
      <trkpt lat="42.86" lon="1.30842">
        <ele>1114</ele>
        <time>2025-09-27T13:59:31.000Z</time>
      </trkpt>
      <trkpt lat="42.86004" lon="1.30842">
        <ele>1113</ele>
        <time>2025-09-27T13:59:32.000Z</time>
      </trkpt>
      <trkpt lat="42.86008" lon="1.3084">
        <ele>1113</ele>
        <time>2025-09-27T13:59:33.000Z</time>
      </trkpt>
      <trkpt lat="42.86012" lon="1.30838">
        <ele>1113</ele>
        <time>2025-09-27T13:59:34.000Z</time>
      </trkpt>
      <trkpt lat="42.86014" lon="1.30837">
        <ele>1113</ele>
        <time>2025-09-27T13:59:35.000Z</time>
      </trkpt>
      <trkpt lat="42.86018" lon="1.30835">
        <ele>1111</ele>
        <time>2025-09-27T13:59:36.000Z</time>
      </trkpt>
      <trkpt lat="42.86021" lon="1.30834">
        <ele>1111</ele>
        <time>2025-09-27T13:59:37.000Z</time>
      </trkpt>
      <trkpt lat="42.86025" lon="1.30833">
        <ele>1110</ele>
        <time>2025-09-27T13:59:38.000Z</time>
      </trkpt>
      <trkpt lat="42.86027" lon="1.30833">
        <ele>1110</ele>
        <time>2025-09-27T13:59:39.000Z</time>
      </trkpt>
      <trkpt lat="42.86031" lon="1.30831">
        <ele>1110</ele>
        <time>2025-09-27T13:59:40.000Z</time>
      </trkpt>
      <trkpt lat="42.86034" lon="1.30828">
        <ele>1109</ele>
        <time>2025-09-27T13:59:41.000Z</time>
      </trkpt>
      <trkpt lat="42.86038" lon="1.30826">
        <ele>1109</ele>
        <time>2025-09-27T13:59:42.000Z</time>
      </trkpt>
      <trkpt lat="42.86044" lon="1.30824">
        <ele>1109</ele>
        <time>2025-09-27T13:59:43.000Z</time>
      </trkpt>
      <trkpt lat="42.8605" lon="1.30824">
        <ele>1109</ele>
        <time>2025-09-27T13:59:44.000Z</time>
      </trkpt>
      <trkpt lat="42.86058" lon="1.30824">
        <ele>1108</ele>
        <time>2025-09-27T13:59:45.000Z</time>
      </trkpt>
      <trkpt lat="42.86066" lon="1.30824">
        <ele>1107</ele>
        <time>2025-09-27T13:59:46.000Z</time>
      </trkpt>
      <trkpt lat="42.86071" lon="1.30825">
        <ele>1108</ele>
        <time>2025-09-27T13:59:47.000Z</time>
      </trkpt>
      <trkpt lat="42.86075" lon="1.30826">
        <ele>1108</ele>
        <time>2025-09-27T13:59:48.000Z</time>
      </trkpt>
      <trkpt lat="42.86079" lon="1.30827">
        <ele>1108</ele>
        <time>2025-09-27T13:59:49.000Z</time>
      </trkpt>
      <trkpt lat="42.86083" lon="1.30828">
        <ele>1108</ele>
        <time>2025-09-27T13:59:50.000Z</time>
      </trkpt>
      <trkpt lat="42.86088" lon="1.30828">
        <ele>1108</ele>
        <time>2025-09-27T13:59:51.000Z</time>
      </trkpt>
      <trkpt lat="42.86093" lon="1.30826">
        <ele>1108</ele>
        <time>2025-09-27T13:59:52.000Z</time>
      </trkpt>
      <trkpt lat="42.86097" lon="1.30825">
        <ele>1108</ele>
        <time>2025-09-27T13:59:53.000Z</time>
      </trkpt>
      <trkpt lat="42.86101" lon="1.30823">
        <ele>1108</ele>
        <time>2025-09-27T13:59:54.000Z</time>
      </trkpt>
      <trkpt lat="42.86105" lon="1.30821">
        <ele>1108</ele>
        <time>2025-09-27T13:59:55.000Z</time>
      </trkpt>
      <trkpt lat="42.86109" lon="1.3082">
        <ele>1108</ele>
        <time>2025-09-27T13:59:56.000Z</time>
      </trkpt>
      <trkpt lat="42.86113" lon="1.30817">
        <ele>1107</ele>
        <time>2025-09-27T13:59:57.000Z</time>
      </trkpt>
      <trkpt lat="42.86117" lon="1.30814">
        <ele>1107</ele>
        <time>2025-09-27T13:59:58.000Z</time>
      </trkpt>
      <trkpt lat="42.86121" lon="1.30811">
        <ele>1106</ele>
        <time>2025-09-27T13:59:59.000Z</time>
      </trkpt>
      <trkpt lat="42.86124" lon="1.30807">
        <ele>1106</ele>
        <time>2025-09-27T14:00:00.000Z</time>
      </trkpt>
      <trkpt lat="42.86127" lon="1.30804">
        <ele>1107</ele>
        <time>2025-09-27T14:00:01.000Z</time>
      </trkpt>
      <trkpt lat="42.8613" lon="1.308">
        <ele>1107</ele>
        <time>2025-09-27T14:00:02.000Z</time>
      </trkpt>
      <trkpt lat="42.86132" lon="1.30796">
        <ele>1108</ele>
        <time>2025-09-27T14:00:03.000Z</time>
      </trkpt>
      <trkpt lat="42.86135" lon="1.30792">
        <ele>1108</ele>
        <time>2025-09-27T14:00:04.000Z</time>
      </trkpt>
      <trkpt lat="42.86137" lon="1.30788">
        <ele>1109</ele>
        <time>2025-09-27T14:00:05.000Z</time>
      </trkpt>
      <trkpt lat="42.86139" lon="1.30785">
        <ele>1110</ele>
        <time>2025-09-27T14:00:06.000Z</time>
      </trkpt>
      <trkpt lat="42.86141" lon="1.3078">
        <ele>1109</ele>
        <time>2025-09-27T14:00:07.000Z</time>
      </trkpt>
      <trkpt lat="42.86143" lon="1.30777">
        <ele>1108</ele>
        <time>2025-09-27T14:00:08.000Z</time>
      </trkpt>
      <trkpt lat="42.86145" lon="1.30774">
        <ele>1108</ele>
        <time>2025-09-27T14:00:09.000Z</time>
      </trkpt>
      <trkpt lat="42.86145" lon="1.30772">
        <ele>1107</ele>
        <time>2025-09-27T14:00:10.000Z</time>
      </trkpt>
      <trkpt lat="42.86146" lon="1.30772">
        <ele>1106</ele>
        <time>2025-09-27T14:00:11.000Z</time>
      </trkpt>
      <trkpt lat="42.86146" lon="1.30773">
        <ele>1106</ele>
        <time>2025-09-27T14:00:12.000Z</time>
      </trkpt>
      <trkpt lat="42.86146" lon="1.30773">
        <ele>1106</ele>
        <time>2025-09-27T14:00:13.000Z</time>
      </trkpt>
      <trkpt lat="42.86147" lon="1.30772">
        <ele>1107</ele>
        <time>2025-09-27T14:00:14.000Z</time>
      </trkpt>
      <trkpt lat="42.86148" lon="1.3077">
        <ele>1107</ele>
        <time>2025-09-27T14:00:15.000Z</time>
      </trkpt>
      <trkpt lat="42.86149" lon="1.30768">
        <ele>1106</ele>
        <time>2025-09-27T14:00:16.000Z</time>
      </trkpt>
      <trkpt lat="42.86151" lon="1.30766">
        <ele>1106</ele>
        <time>2025-09-27T14:00:17.000Z</time>
      </trkpt>
      <trkpt lat="42.86152" lon="1.30763">
        <ele>1106</ele>
        <time>2025-09-27T14:00:18.000Z</time>
      </trkpt>
      <trkpt lat="42.86155" lon="1.3076">
        <ele>1106</ele>
        <time>2025-09-27T14:00:19.000Z</time>
      </trkpt>
      <trkpt lat="42.86157" lon="1.30755">
        <ele>1106</ele>
        <time>2025-09-27T14:00:20.000Z</time>
      </trkpt>
      <trkpt lat="42.8616" lon="1.3075">
        <ele>1106</ele>
        <time>2025-09-27T14:00:21.000Z</time>
      </trkpt>
      <trkpt lat="42.86163" lon="1.30746">
        <ele>1106</ele>
        <time>2025-09-27T14:00:22.000Z</time>
      </trkpt>
      <trkpt lat="42.86165" lon="1.30743">
        <ele>1105</ele>
        <time>2025-09-27T14:00:23.000Z</time>
      </trkpt>
      <trkpt lat="42.86168" lon="1.30739">
        <ele>1106</ele>
        <time>2025-09-27T14:00:24.000Z</time>
      </trkpt>
      <trkpt lat="42.8617" lon="1.30735">
        <ele>1105</ele>
        <time>2025-09-27T14:00:25.000Z</time>
      </trkpt>
      <trkpt lat="42.86171" lon="1.30731">
        <ele>1105</ele>
        <time>2025-09-27T14:00:26.000Z</time>
      </trkpt>
      <trkpt lat="42.86173" lon="1.30726">
        <ele>1105</ele>
        <time>2025-09-27T14:00:27.000Z</time>
      </trkpt>
      <trkpt lat="42.86175" lon="1.3072">
        <ele>1104</ele>
        <time>2025-09-27T14:00:28.000Z</time>
      </trkpt>
      <trkpt lat="42.86178" lon="1.30713">
        <ele>1104</ele>
        <time>2025-09-27T14:00:29.000Z</time>
      </trkpt>
      <trkpt lat="42.86181" lon="1.30707">
        <ele>1103</ele>
        <time>2025-09-27T14:00:30.000Z</time>
      </trkpt>
      <trkpt lat="42.86183" lon="1.30701">
        <ele>1103</ele>
        <time>2025-09-27T14:00:31.000Z</time>
      </trkpt>
      <trkpt lat="42.86186" lon="1.30696">
        <ele>1103</ele>
        <time>2025-09-27T14:00:32.000Z</time>
      </trkpt>
      <trkpt lat="42.86189" lon="1.30693">
        <ele>1104</ele>
        <time>2025-09-27T14:00:33.000Z</time>
      </trkpt>
      <trkpt lat="42.86191" lon="1.30688">
        <ele>1104</ele>
        <time>2025-09-27T14:00:34.000Z</time>
      </trkpt>
      <trkpt lat="42.86193" lon="1.30684">
        <ele>1104</ele>
        <time>2025-09-27T14:00:35.000Z</time>
      </trkpt>
      <trkpt lat="42.86195" lon="1.3068">
        <ele>1104</ele>
        <time>2025-09-27T14:00:36.000Z</time>
      </trkpt>
      <trkpt lat="42.86197" lon="1.30675">
        <ele>1105</ele>
        <time>2025-09-27T14:00:37.000Z</time>
      </trkpt>
      <trkpt lat="42.86197" lon="1.3067">
        <ele>1105</ele>
        <time>2025-09-27T14:00:38.000Z</time>
      </trkpt>
      <trkpt lat="42.86198" lon="1.30665">
        <ele>1104</ele>
        <time>2025-09-27T14:00:39.000Z</time>
      </trkpt>
      <trkpt lat="42.86198" lon="1.3066">
        <ele>1104</ele>
        <time>2025-09-27T14:00:40.000Z</time>
      </trkpt>
      <trkpt lat="42.86198" lon="1.30656">
        <ele>1105</ele>
        <time>2025-09-27T14:00:41.000Z</time>
      </trkpt>
      <trkpt lat="42.86199" lon="1.3065">
        <ele>1105</ele>
        <time>2025-09-27T14:00:42.000Z</time>
      </trkpt>
      <trkpt lat="42.862" lon="1.30645">
        <ele>1105</ele>
        <time>2025-09-27T14:00:43.000Z</time>
      </trkpt>
      <trkpt lat="42.86202" lon="1.3064">
        <ele>1105</ele>
        <time>2025-09-27T14:00:44.000Z</time>
      </trkpt>
      <trkpt lat="42.86203" lon="1.30635">
        <ele>1104</ele>
        <time>2025-09-27T14:00:45.000Z</time>
      </trkpt>
      <trkpt lat="42.86204" lon="1.30631">
        <ele>1104</ele>
        <time>2025-09-27T14:00:46.000Z</time>
      </trkpt>
      <trkpt lat="42.86206" lon="1.30625">
        <ele>1103</ele>
        <time>2025-09-27T14:00:47.000Z</time>
      </trkpt>
      <trkpt lat="42.86208" lon="1.30619">
        <ele>1103</ele>
        <time>2025-09-27T14:00:48.000Z</time>
      </trkpt>
      <trkpt lat="42.8621" lon="1.30614">
        <ele>1103</ele>
        <time>2025-09-27T14:00:49.000Z</time>
      </trkpt>
      <trkpt lat="42.86212" lon="1.30607">
        <ele>1103</ele>
        <time>2025-09-27T14:00:50.000Z</time>
      </trkpt>
      <trkpt lat="42.86214" lon="1.30602">
        <ele>1102</ele>
        <time>2025-09-27T14:00:51.000Z</time>
      </trkpt>
      <trkpt lat="42.86216" lon="1.30597">
        <ele>1103</ele>
        <time>2025-09-27T14:00:52.000Z</time>
      </trkpt>
      <trkpt lat="42.86218" lon="1.30591">
        <ele>1102</ele>
        <time>2025-09-27T14:00:53.000Z</time>
      </trkpt>
      <trkpt lat="42.86222" lon="1.30584">
        <ele>1102</ele>
        <time>2025-09-27T14:00:54.000Z</time>
      </trkpt>
      <trkpt lat="42.86226" lon="1.30578">
        <ele>1102</ele>
        <time>2025-09-27T14:00:55.000Z</time>
      </trkpt>
      <trkpt lat="42.86229" lon="1.30572">
        <ele>1101</ele>
        <time>2025-09-27T14:00:56.000Z</time>
      </trkpt>
      <trkpt lat="42.86232" lon="1.30564">
        <ele>1101</ele>
        <time>2025-09-27T14:00:57.000Z</time>
      </trkpt>
      <trkpt lat="42.86235" lon="1.30556">
        <ele>1100</ele>
        <time>2025-09-27T14:00:58.000Z</time>
      </trkpt>
      <trkpt lat="42.86238" lon="1.30549">
        <ele>1100</ele>
        <time>2025-09-27T14:00:59.000Z</time>
      </trkpt>
      <trkpt lat="42.86241" lon="1.30543">
        <ele>1099</ele>
        <time>2025-09-27T14:01:00.000Z</time>
      </trkpt>
      <trkpt lat="42.86243" lon="1.30537">
        <ele>1097</ele>
        <time>2025-09-27T14:01:01.000Z</time>
      </trkpt>
      <trkpt lat="42.86246" lon="1.30536">
        <ele>1099</ele>
        <time>2025-09-27T14:01:02.000Z</time>
      </trkpt>
      <trkpt lat="42.86248" lon="1.30535">
        <ele>1099</ele>
        <time>2025-09-27T14:01:03.000Z</time>
      </trkpt>
      <trkpt lat="42.86248" lon="1.30532">
        <ele>1099</ele>
        <time>2025-09-27T14:01:04.000Z</time>
      </trkpt>
      <trkpt lat="42.86248" lon="1.30529">
        <ele>1099</ele>
        <time>2025-09-27T14:01:05.000Z</time>
      </trkpt>
      <trkpt lat="42.86249" lon="1.30526">
        <ele>1099</ele>
        <time>2025-09-27T14:01:06.000Z</time>
      </trkpt>
      <trkpt lat="42.86248" lon="1.30523">
        <ele>1099</ele>
        <time>2025-09-27T14:01:07.000Z</time>
      </trkpt>
      <trkpt lat="42.86248" lon="1.30519">
        <ele>1099</ele>
        <time>2025-09-27T14:01:08.000Z</time>
      </trkpt>
      <trkpt lat="42.86249" lon="1.30515">
        <ele>1099</ele>
        <time>2025-09-27T14:01:09.000Z</time>
      </trkpt>
      <trkpt lat="42.8625" lon="1.30512">
        <ele>1100</ele>
        <time>2025-09-27T14:01:10.000Z</time>
      </trkpt>
      <trkpt lat="42.8625" lon="1.30508">
        <ele>1100</ele>
        <time>2025-09-27T14:01:11.000Z</time>
      </trkpt>
      <trkpt lat="42.86251" lon="1.30505">
        <ele>1100</ele>
        <time>2025-09-27T14:01:12.000Z</time>
      </trkpt>
      <trkpt lat="42.86251" lon="1.30502">
        <ele>1100</ele>
        <time>2025-09-27T14:01:13.000Z</time>
      </trkpt>
      <trkpt lat="42.86252" lon="1.305">
        <ele>1101</ele>
        <time>2025-09-27T14:01:14.000Z</time>
      </trkpt>
      <trkpt lat="42.86251" lon="1.30499">
        <ele>1101</ele>
        <time>2025-09-27T14:01:15.000Z</time>
      </trkpt>
      <trkpt lat="42.86252" lon="1.30499">
        <ele>1101</ele>
        <time>2025-09-27T14:01:16.000Z</time>
      </trkpt>
      <trkpt lat="42.86253" lon="1.30497">
        <ele>1101</ele>
        <time>2025-09-27T14:01:17.000Z</time>
      </trkpt>
      <trkpt lat="42.86254" lon="1.30495">
        <ele>1101</ele>
        <time>2025-09-27T14:01:18.000Z</time>
      </trkpt>
      <trkpt lat="42.86256" lon="1.30495">
        <ele>1102</ele>
        <time>2025-09-27T14:01:19.000Z</time>
      </trkpt>
      <trkpt lat="42.86256" lon="1.30494">
        <ele>1102</ele>
        <time>2025-09-27T14:01:20.000Z</time>
      </trkpt>
      <trkpt lat="42.86257" lon="1.30494">
        <ele>1102</ele>
        <time>2025-09-27T14:01:21.000Z</time>
      </trkpt>
      <trkpt lat="42.86259" lon="1.30493">
        <ele>1103</ele>
        <time>2025-09-27T14:01:22.000Z</time>
      </trkpt>
      <trkpt lat="42.8626" lon="1.30492">
        <ele>1104</ele>
        <time>2025-09-27T14:01:23.000Z</time>
      </trkpt>
      <trkpt lat="42.8626" lon="1.30492">
        <ele>1104</ele>
        <time>2025-09-27T14:01:24.000Z</time>
      </trkpt>
      <trkpt lat="42.8626" lon="1.3049">
        <ele>1104</ele>
        <time>2025-09-27T14:01:25.000Z</time>
      </trkpt>
      <trkpt lat="42.86261" lon="1.3049">
        <ele>1104</ele>
        <time>2025-09-27T14:01:26.000Z</time>
      </trkpt>
      <trkpt lat="42.86262" lon="1.3049">
        <ele>1105</ele>
        <time>2025-09-27T14:01:27.000Z</time>
      </trkpt>
      <trkpt lat="42.86261" lon="1.30492">
        <ele>1104</ele>
        <time>2025-09-27T14:01:28.000Z</time>
      </trkpt>
      <trkpt lat="42.86263" lon="1.30494">
        <ele>1106</ele>
        <time>2025-09-27T14:01:42.000Z</time>
      </trkpt>
      <trkpt lat="42.86263" lon="1.30495">
        <ele>1106</ele>
        <time>2025-09-27T14:01:43.000Z</time>
      </trkpt>
      <trkpt lat="42.86263" lon="1.30496">
        <ele>1106</ele>
        <time>2025-09-27T14:01:44.000Z</time>
      </trkpt>
      <trkpt lat="42.86263" lon="1.30497">
        <ele>1106</ele>
        <time>2025-09-27T14:01:45.000Z</time>
      </trkpt>
      <trkpt lat="42.86269" lon="1.30495">
        <ele>1108</ele>
        <time>2025-09-27T14:02:03.000Z</time>
      </trkpt>
      <trkpt lat="42.86269" lon="1.30494">
        <ele>1108</ele>
        <time>2025-09-27T14:02:04.000Z</time>
      </trkpt>
      <trkpt lat="42.86269" lon="1.30493">
        <ele>1107</ele>
        <time>2025-09-27T14:02:05.000Z</time>
      </trkpt>
      <trkpt lat="42.86269" lon="1.30493">
        <ele>1107</ele>
        <time>2025-09-27T14:02:06.000Z</time>
      </trkpt>
      <trkpt lat="42.8627" lon="1.30492">
        <ele>1107</ele>
        <time>2025-09-27T14:02:07.000Z</time>
      </trkpt>
      <trkpt lat="42.8627" lon="1.30492">
        <ele>1106</ele>
        <time>2025-09-27T14:02:08.000Z</time>
      </trkpt>
      <trkpt lat="42.86271" lon="1.30491">
        <ele>1106</ele>
        <time>2025-09-27T14:02:09.000Z</time>
      </trkpt>
      <trkpt lat="42.86273" lon="1.3049">
        <ele>1106</ele>
        <time>2025-09-27T14:02:10.000Z</time>
      </trkpt>
      <trkpt lat="42.86273" lon="1.30489">
        <ele>1105</ele>
        <time>2025-09-27T14:02:11.000Z</time>
      </trkpt>
      <trkpt lat="42.86275" lon="1.30487">
        <ele>1105</ele>
        <time>2025-09-27T14:02:12.000Z</time>
      </trkpt>
      <trkpt lat="42.86277" lon="1.30486">
        <ele>1105</ele>
        <time>2025-09-27T14:02:13.000Z</time>
      </trkpt>
      <trkpt lat="42.86279" lon="1.30484">
        <ele>1105</ele>
        <time>2025-09-27T14:02:14.000Z</time>
      </trkpt>
      <trkpt lat="42.86281" lon="1.30481">
        <ele>1105</ele>
        <time>2025-09-27T14:02:15.000Z</time>
      </trkpt>
      <trkpt lat="42.86282" lon="1.30479">
        <ele>1105</ele>
        <time>2025-09-27T14:02:16.000Z</time>
      </trkpt>
      <trkpt lat="42.86284" lon="1.30478">
        <ele>1106</ele>
        <time>2025-09-27T14:02:17.000Z</time>
      </trkpt>
      <trkpt lat="42.86285" lon="1.30477">
        <ele>1105</ele>
        <time>2025-09-27T14:02:18.000Z</time>
      </trkpt>
      <trkpt lat="42.86286" lon="1.30476">
        <ele>1105</ele>
        <time>2025-09-27T14:02:19.000Z</time>
      </trkpt>
      <trkpt lat="42.86288" lon="1.30476">
        <ele>1105</ele>
        <time>2025-09-27T14:02:20.000Z</time>
      </trkpt>
      <trkpt lat="42.86289" lon="1.30477">
        <ele>1105</ele>
        <time>2025-09-27T14:02:21.000Z</time>
      </trkpt>
      <trkpt lat="42.86289" lon="1.30478">
        <ele>1106</ele>
        <time>2025-09-27T14:02:22.000Z</time>
      </trkpt>
      <trkpt lat="42.86289" lon="1.30479">
        <ele>1106</ele>
        <time>2025-09-27T14:02:23.000Z</time>
      </trkpt>
      <trkpt lat="42.8629" lon="1.30479">
        <ele>1106</ele>
        <time>2025-09-27T14:02:24.000Z</time>
      </trkpt>
      <trkpt lat="42.8629" lon="1.30479">
        <ele>1106</ele>
        <time>2025-09-27T14:02:25.000Z</time>
      </trkpt>
      <trkpt lat="42.86291" lon="1.30479">
        <ele>1106</ele>
        <time>2025-09-27T14:02:26.000Z</time>
      </trkpt>
      <trkpt lat="42.86291" lon="1.30478">
        <ele>1107</ele>
        <time>2025-09-27T14:02:27.000Z</time>
      </trkpt>
      <trkpt lat="42.86292" lon="1.30477">
        <ele>1106</ele>
        <time>2025-09-27T14:02:28.000Z</time>
      </trkpt>
      <trkpt lat="42.86293" lon="1.30475">
        <ele>1107</ele>
        <time>2025-09-27T14:02:29.000Z</time>
      </trkpt>
      <trkpt lat="42.86294" lon="1.30474">
        <ele>1107</ele>
        <time>2025-09-27T14:02:30.000Z</time>
      </trkpt>
      <trkpt lat="42.86296" lon="1.30472">
        <ele>1106</ele>
        <time>2025-09-27T14:02:31.000Z</time>
      </trkpt>
      <trkpt lat="42.86298" lon="1.3047">
        <ele>1106</ele>
        <time>2025-09-27T14:02:32.000Z</time>
      </trkpt>
      <trkpt lat="42.863" lon="1.30469">
        <ele>1106</ele>
        <time>2025-09-27T14:02:33.000Z</time>
      </trkpt>
      <trkpt lat="42.86301" lon="1.30467">
        <ele>1105</ele>
        <time>2025-09-27T14:02:34.000Z</time>
      </trkpt>
      <trkpt lat="42.86303" lon="1.30465">
        <ele>1104</ele>
        <time>2025-09-27T14:02:35.000Z</time>
      </trkpt>
      <trkpt lat="42.86305" lon="1.30463">
        <ele>1104</ele>
        <time>2025-09-27T14:02:36.000Z</time>
      </trkpt>
      <trkpt lat="42.86308" lon="1.30461">
        <ele>1104</ele>
        <time>2025-09-27T14:02:37.000Z</time>
      </trkpt>
      <trkpt lat="42.8631" lon="1.3046">
        <ele>1105</ele>
        <time>2025-09-27T14:02:38.000Z</time>
      </trkpt>
      <trkpt lat="42.86313" lon="1.30459">
        <ele>1105</ele>
        <time>2025-09-27T14:02:39.000Z</time>
      </trkpt>
      <trkpt lat="42.86316" lon="1.30458">
        <ele>1104</ele>
        <time>2025-09-27T14:02:40.000Z</time>
      </trkpt>
      <trkpt lat="42.86319" lon="1.30461">
        <ele>1103</ele>
        <time>2025-09-27T14:02:41.000Z</time>
      </trkpt>
      <trkpt lat="42.86322" lon="1.30463">
        <ele>1103</ele>
        <time>2025-09-27T14:02:42.000Z</time>
      </trkpt>
      <trkpt lat="42.86325" lon="1.30464">
        <ele>1102</ele>
        <time>2025-09-27T14:02:43.000Z</time>
      </trkpt>
      <trkpt lat="42.86327" lon="1.30465">
        <ele>1102</ele>
        <time>2025-09-27T14:02:44.000Z</time>
      </trkpt>
      <trkpt lat="42.86329" lon="1.30465">
        <ele>1101</ele>
        <time>2025-09-27T14:02:45.000Z</time>
      </trkpt>
      <trkpt lat="42.86331" lon="1.30465">
        <ele>1101</ele>
        <time>2025-09-27T14:02:46.000Z</time>
      </trkpt>
      <trkpt lat="42.86334" lon="1.30462">
        <ele>1100</ele>
        <time>2025-09-27T14:02:47.000Z</time>
      </trkpt>
      <trkpt lat="42.86336" lon="1.30459">
        <ele>1098</ele>
        <time>2025-09-27T14:02:48.000Z</time>
      </trkpt>
      <trkpt lat="42.86339" lon="1.30455">
        <ele>1098</ele>
        <time>2025-09-27T14:02:49.000Z</time>
      </trkpt>
      <trkpt lat="42.86342" lon="1.30452">
        <ele>1098</ele>
        <time>2025-09-27T14:02:50.000Z</time>
      </trkpt>
      <trkpt lat="42.86345" lon="1.3045">
        <ele>1098</ele>
        <time>2025-09-27T14:02:51.000Z</time>
      </trkpt>
      <trkpt lat="42.86349" lon="1.30448">
        <ele>1098</ele>
        <time>2025-09-27T14:02:52.000Z</time>
      </trkpt>
      <trkpt lat="42.86353" lon="1.30447">
        <ele>1097</ele>
        <time>2025-09-27T14:02:53.000Z</time>
      </trkpt>
      <trkpt lat="42.86357" lon="1.30445">
        <ele>1096</ele>
        <time>2025-09-27T14:02:54.000Z</time>
      </trkpt>
      <trkpt lat="42.86361" lon="1.30443">
        <ele>1096</ele>
        <time>2025-09-27T14:02:55.000Z</time>
      </trkpt>
      <trkpt lat="42.86364" lon="1.30439">
        <ele>1096</ele>
        <time>2025-09-27T14:02:56.000Z</time>
      </trkpt>
      <trkpt lat="42.86368" lon="1.30435">
        <ele>1097</ele>
        <time>2025-09-27T14:02:57.000Z</time>
      </trkpt>
      <trkpt lat="42.86372" lon="1.30432">
        <ele>1097</ele>
        <time>2025-09-27T14:02:58.000Z</time>
      </trkpt>
      <trkpt lat="42.86376" lon="1.30431">
        <ele>1096</ele>
        <time>2025-09-27T14:02:59.000Z</time>
      </trkpt>
      <trkpt lat="42.86381" lon="1.3043">
        <ele>1096</ele>
        <time>2025-09-27T14:03:00.000Z</time>
      </trkpt>
      <trkpt lat="42.86385" lon="1.30429">
        <ele>1096</ele>
        <time>2025-09-27T14:03:01.000Z</time>
      </trkpt>
      <trkpt lat="42.8639" lon="1.30428">
        <ele>1096</ele>
        <time>2025-09-27T14:03:02.000Z</time>
      </trkpt>
      <trkpt lat="42.86393" lon="1.30426">
        <ele>1096</ele>
        <time>2025-09-27T14:03:03.000Z</time>
      </trkpt>
      <trkpt lat="42.86395" lon="1.30424">
        <ele>1097</ele>
        <time>2025-09-27T14:03:04.000Z</time>
      </trkpt>
      <trkpt lat="42.86398" lon="1.30421">
        <ele>1097</ele>
        <time>2025-09-27T14:03:05.000Z</time>
      </trkpt>
      <trkpt lat="42.864" lon="1.3042">
        <ele>1097</ele>
        <time>2025-09-27T14:03:06.000Z</time>
      </trkpt>
      <trkpt lat="42.86403" lon="1.30417">
        <ele>1096</ele>
        <time>2025-09-27T14:03:07.000Z</time>
      </trkpt>
      <trkpt lat="42.86407" lon="1.30416">
        <ele>1095</ele>
        <time>2025-09-27T14:03:08.000Z</time>
      </trkpt>
      <trkpt lat="42.8641" lon="1.30416">
        <ele>1095</ele>
        <time>2025-09-27T14:03:09.000Z</time>
      </trkpt>
      <trkpt lat="42.86414" lon="1.30417">
        <ele>1095</ele>
        <time>2025-09-27T14:03:10.000Z</time>
      </trkpt>
      <trkpt lat="42.86419" lon="1.3042">
        <ele>1095</ele>
        <time>2025-09-27T14:03:11.000Z</time>
      </trkpt>
      <trkpt lat="42.86423" lon="1.30424">
        <ele>1095</ele>
        <time>2025-09-27T14:03:12.000Z</time>
      </trkpt>
      <trkpt lat="42.86428" lon="1.30426">
        <ele>1096</ele>
        <time>2025-09-27T14:03:13.000Z</time>
      </trkpt>
      <trkpt lat="42.86433" lon="1.3043">
        <ele>1096</ele>
        <time>2025-09-27T14:03:14.000Z</time>
      </trkpt>
      <trkpt lat="42.86438" lon="1.30432">
        <ele>1096</ele>
        <time>2025-09-27T14:03:15.000Z</time>
      </trkpt>
      <trkpt lat="42.86443" lon="1.30435">
        <ele>1097</ele>
        <time>2025-09-27T14:03:16.000Z</time>
      </trkpt>
      <trkpt lat="42.86446" lon="1.30436">
        <ele>1097</ele>
        <time>2025-09-27T14:03:17.000Z</time>
      </trkpt>
      <trkpt lat="42.8645" lon="1.30437">
        <ele>1097</ele>
        <time>2025-09-27T14:03:18.000Z</time>
      </trkpt>
      <trkpt lat="42.86453" lon="1.30437">
        <ele>1096</ele>
        <time>2025-09-27T14:03:19.000Z</time>
      </trkpt>
      <trkpt lat="42.86456" lon="1.30438">
        <ele>1096</ele>
        <time>2025-09-27T14:03:20.000Z</time>
      </trkpt>
      <trkpt lat="42.86458" lon="1.30439">
        <ele>1096</ele>
        <time>2025-09-27T14:03:21.000Z</time>
      </trkpt>
      <trkpt lat="42.86461" lon="1.30439">
        <ele>1097</ele>
        <time>2025-09-27T14:03:22.000Z</time>
      </trkpt>
      <trkpt lat="42.86464" lon="1.3044">
        <ele>1097</ele>
        <time>2025-09-27T14:03:23.000Z</time>
      </trkpt>
      <trkpt lat="42.86467" lon="1.30439">
        <ele>1097</ele>
        <time>2025-09-27T14:03:24.000Z</time>
      </trkpt>
      <trkpt lat="42.86469" lon="1.30438">
        <ele>1096</ele>
        <time>2025-09-27T14:03:25.000Z</time>
      </trkpt>
      <trkpt lat="42.86472" lon="1.30437">
        <ele>1096</ele>
        <time>2025-09-27T14:03:26.000Z</time>
      </trkpt>
      <trkpt lat="42.86475" lon="1.30438">
        <ele>1097</ele>
        <time>2025-09-27T14:03:27.000Z</time>
      </trkpt>
      <trkpt lat="42.86477" lon="1.30437">
        <ele>1097</ele>
        <time>2025-09-27T14:03:28.000Z</time>
      </trkpt>
      <trkpt lat="42.8648" lon="1.30437">
        <ele>1097</ele>
        <time>2025-09-27T14:03:29.000Z</time>
      </trkpt>
      <trkpt lat="42.86482" lon="1.30437">
        <ele>1097</ele>
        <time>2025-09-27T14:03:30.000Z</time>
      </trkpt>
      <trkpt lat="42.86484" lon="1.30438">
        <ele>1097</ele>
        <time>2025-09-27T14:03:31.000Z</time>
      </trkpt>
      <trkpt lat="42.86485" lon="1.30439">
        <ele>1096</ele>
        <time>2025-09-27T14:03:32.000Z</time>
      </trkpt>
      <trkpt lat="42.86488" lon="1.30438">
        <ele>1096</ele>
        <time>2025-09-27T14:03:33.000Z</time>
      </trkpt>
      <trkpt lat="42.86491" lon="1.30437">
        <ele>1096</ele>
        <time>2025-09-27T14:03:34.000Z</time>
      </trkpt>
      <trkpt lat="42.86494" lon="1.30435">
        <ele>1096</ele>
        <time>2025-09-27T14:03:35.000Z</time>
      </trkpt>
      <trkpt lat="42.86498" lon="1.30433">
        <ele>1096</ele>
        <time>2025-09-27T14:03:36.000Z</time>
      </trkpt>
      <trkpt lat="42.86503" lon="1.3043">
        <ele>1095</ele>
        <time>2025-09-27T14:03:37.000Z</time>
      </trkpt>
      <trkpt lat="42.86509" lon="1.30427">
        <ele>1095</ele>
        <time>2025-09-27T14:03:38.000Z</time>
      </trkpt>
      <trkpt lat="42.86515" lon="1.30426">
        <ele>1093</ele>
        <time>2025-09-27T14:03:39.000Z</time>
      </trkpt>
      <trkpt lat="42.8652" lon="1.30424">
        <ele>1093</ele>
        <time>2025-09-27T14:03:40.000Z</time>
      </trkpt>
      <trkpt lat="42.86525" lon="1.30423">
        <ele>1093</ele>
        <time>2025-09-27T14:03:41.000Z</time>
      </trkpt>
      <trkpt lat="42.86529" lon="1.30422">
        <ele>1092</ele>
        <time>2025-09-27T14:03:42.000Z</time>
      </trkpt>
      <trkpt lat="42.86534" lon="1.3042">
        <ele>1092</ele>
        <time>2025-09-27T14:03:43.000Z</time>
      </trkpt>
      <trkpt lat="42.86538" lon="1.3042">
        <ele>1092</ele>
        <time>2025-09-27T14:03:44.000Z</time>
      </trkpt>
      <trkpt lat="42.86542" lon="1.30419">
        <ele>1091</ele>
        <time>2025-09-27T14:03:45.000Z</time>
      </trkpt>
      <trkpt lat="42.86545" lon="1.30417">
        <ele>1091</ele>
        <time>2025-09-27T14:03:46.000Z</time>
      </trkpt>
      <trkpt lat="42.86549" lon="1.30416">
        <ele>1090</ele>
        <time>2025-09-27T14:03:47.000Z</time>
      </trkpt>
      <trkpt lat="42.86552" lon="1.30415">
        <ele>1090</ele>
        <time>2025-09-27T14:03:48.000Z</time>
      </trkpt>
      <trkpt lat="42.86555" lon="1.30414">
        <ele>1090</ele>
        <time>2025-09-27T14:03:49.000Z</time>
      </trkpt>
      <trkpt lat="42.86558" lon="1.30414">
        <ele>1090</ele>
        <time>2025-09-27T14:03:50.000Z</time>
      </trkpt>
      <trkpt lat="42.86562" lon="1.30413">
        <ele>1089</ele>
        <time>2025-09-27T14:03:51.000Z</time>
      </trkpt>
      <trkpt lat="42.86567" lon="1.3041">
        <ele>1089</ele>
        <time>2025-09-27T14:03:52.000Z</time>
      </trkpt>
      <trkpt lat="42.86572" lon="1.30406">
        <ele>1088</ele>
        <time>2025-09-27T14:03:53.000Z</time>
      </trkpt>
      <trkpt lat="42.86576" lon="1.30403">
        <ele>1088</ele>
        <time>2025-09-27T14:03:54.000Z</time>
      </trkpt>
      <trkpt lat="42.86579" lon="1.30399">
        <ele>1087</ele>
        <time>2025-09-27T14:03:55.000Z</time>
      </trkpt>
      <trkpt lat="42.86583" lon="1.30396">
        <ele>1087</ele>
        <time>2025-09-27T14:03:56.000Z</time>
      </trkpt>
      <trkpt lat="42.86586" lon="1.30393">
        <ele>1086</ele>
        <time>2025-09-27T14:03:57.000Z</time>
      </trkpt>
      <trkpt lat="42.86589" lon="1.3039">
        <ele>1086</ele>
        <time>2025-09-27T14:03:58.000Z</time>
      </trkpt>
      <trkpt lat="42.86591" lon="1.30386">
        <ele>1085</ele>
        <time>2025-09-27T14:03:59.000Z</time>
      </trkpt>
      <trkpt lat="42.86594" lon="1.30382">
        <ele>1085</ele>
        <time>2025-09-27T14:04:00.000Z</time>
      </trkpt>
      <trkpt lat="42.86597" lon="1.30377">
        <ele>1084</ele>
        <time>2025-09-27T14:04:01.000Z</time>
      </trkpt>
      <trkpt lat="42.866" lon="1.30373">
        <ele>1084</ele>
        <time>2025-09-27T14:04:02.000Z</time>
      </trkpt>
      <trkpt lat="42.86603" lon="1.30368">
        <ele>1083</ele>
        <time>2025-09-27T14:04:03.000Z</time>
      </trkpt>
      <trkpt lat="42.86605" lon="1.30362">
        <ele>1082</ele>
        <time>2025-09-27T14:04:04.000Z</time>
      </trkpt>
      <trkpt lat="42.86609" lon="1.30358">
        <ele>1082</ele>
        <time>2025-09-27T14:04:05.000Z</time>
      </trkpt>
      <trkpt lat="42.86613" lon="1.30355">
        <ele>1081</ele>
        <time>2025-09-27T14:04:06.000Z</time>
      </trkpt>
      <trkpt lat="42.86615" lon="1.30351">
        <ele>1080</ele>
        <time>2025-09-27T14:04:07.000Z</time>
      </trkpt>
      <trkpt lat="42.86617" lon="1.30349">
        <ele>1081</ele>
        <time>2025-09-27T14:04:08.000Z</time>
      </trkpt>
      <trkpt lat="42.8662" lon="1.30349">
        <ele>1081</ele>
        <time>2025-09-27T14:04:09.000Z</time>
      </trkpt>
      <trkpt lat="42.86621" lon="1.30349">
        <ele>1081</ele>
        <time>2025-09-27T14:04:10.000Z</time>
      </trkpt>
      <trkpt lat="42.86623" lon="1.30347">
        <ele>1082</ele>
        <time>2025-09-27T14:04:11.000Z</time>
      </trkpt>
      <trkpt lat="42.86625" lon="1.30346">
        <ele>1082</ele>
        <time>2025-09-27T14:04:12.000Z</time>
      </trkpt>
      <trkpt lat="42.86625" lon="1.30347">
        <ele>1082</ele>
        <time>2025-09-27T14:04:13.000Z</time>
      </trkpt>
      <trkpt lat="42.86625" lon="1.30347">
        <ele>1081</ele>
        <time>2025-09-27T14:04:14.000Z</time>
      </trkpt>
      <trkpt lat="42.86627" lon="1.30346">
        <ele>1081</ele>
        <time>2025-09-27T14:04:15.000Z</time>
      </trkpt>
      <trkpt lat="42.86627" lon="1.30346">
        <ele>1080</ele>
        <time>2025-09-27T14:04:16.000Z</time>
      </trkpt>
      <trkpt lat="42.86627" lon="1.30347">
        <ele>1080</ele>
        <time>2025-09-27T14:04:17.000Z</time>
      </trkpt>
      <trkpt lat="42.86628" lon="1.30347">
        <ele>1079</ele>
        <time>2025-09-27T14:04:18.000Z</time>
      </trkpt>
      <trkpt lat="42.8663" lon="1.30348">
        <ele>1079</ele>
        <time>2025-09-27T14:04:19.000Z</time>
      </trkpt>
      <trkpt lat="42.86631" lon="1.30349">
        <ele>1079</ele>
        <time>2025-09-27T14:04:20.000Z</time>
      </trkpt>
      <trkpt lat="42.86633" lon="1.30348">
        <ele>1079</ele>
        <time>2025-09-27T14:04:21.000Z</time>
      </trkpt>
      <trkpt lat="42.86634" lon="1.30347">
        <ele>1080</ele>
        <time>2025-09-27T14:04:22.000Z</time>
      </trkpt>
      <trkpt lat="42.86635" lon="1.30348">
        <ele>1080</ele>
        <time>2025-09-27T14:04:23.000Z</time>
      </trkpt>
      <trkpt lat="42.86636" lon="1.30348">
        <ele>1079</ele>
        <time>2025-09-27T14:04:24.000Z</time>
      </trkpt>
      <trkpt lat="42.86637" lon="1.30349">
        <ele>1079</ele>
        <time>2025-09-27T14:04:25.000Z</time>
      </trkpt>
      <trkpt lat="42.86636" lon="1.3035">
        <ele>1078</ele>
        <time>2025-09-27T14:04:26.000Z</time>
      </trkpt>
      <trkpt lat="42.86636" lon="1.30351">
        <ele>1078</ele>
        <time>2025-09-27T14:04:27.000Z</time>
      </trkpt>
      <trkpt lat="42.86637" lon="1.30351">
        <ele>1077</ele>
        <time>2025-09-27T14:04:28.000Z</time>
      </trkpt>
      <trkpt lat="42.86638" lon="1.3035">
        <ele>1077</ele>
        <time>2025-09-27T14:04:29.000Z</time>
      </trkpt>
      <trkpt lat="42.86639" lon="1.3035">
        <ele>1077</ele>
        <time>2025-09-27T14:04:30.000Z</time>
      </trkpt>
      <trkpt lat="42.86641" lon="1.30351">
        <ele>1077</ele>
        <time>2025-09-27T14:04:31.000Z</time>
      </trkpt>
      <trkpt lat="42.86644" lon="1.30352">
        <ele>1077</ele>
        <time>2025-09-27T14:04:32.000Z</time>
      </trkpt>
      <trkpt lat="42.86646" lon="1.30352">
        <ele>1077</ele>
        <time>2025-09-27T14:04:33.000Z</time>
      </trkpt>
      <trkpt lat="42.86649" lon="1.30353">
        <ele>1077</ele>
        <time>2025-09-27T14:04:34.000Z</time>
      </trkpt>
      <trkpt lat="42.86651" lon="1.30353">
        <ele>1078</ele>
        <time>2025-09-27T14:04:35.000Z</time>
      </trkpt>
      <trkpt lat="42.86654" lon="1.30353">
        <ele>1077</ele>
        <time>2025-09-27T14:04:36.000Z</time>
      </trkpt>
      <trkpt lat="42.86657" lon="1.30354">
        <ele>1076</ele>
        <time>2025-09-27T14:04:37.000Z</time>
      </trkpt>
      <trkpt lat="42.86659" lon="1.30354">
        <ele>1076</ele>
        <time>2025-09-27T14:04:38.000Z</time>
      </trkpt>
      <trkpt lat="42.86662" lon="1.30354">
        <ele>1076</ele>
        <time>2025-09-27T14:04:39.000Z</time>
      </trkpt>
      <trkpt lat="42.86665" lon="1.30354">
        <ele>1075</ele>
        <time>2025-09-27T14:04:40.000Z</time>
      </trkpt>
      <trkpt lat="42.86669" lon="1.30353">
        <ele>1075</ele>
        <time>2025-09-27T14:04:41.000Z</time>
      </trkpt>
      <trkpt lat="42.86672" lon="1.30353">
        <ele>1076</ele>
        <time>2025-09-27T14:04:42.000Z</time>
      </trkpt>
      <trkpt lat="42.86675" lon="1.30352">
        <ele>1075</ele>
        <time>2025-09-27T14:04:43.000Z</time>
      </trkpt>
      <trkpt lat="42.86678" lon="1.3035">
        <ele>1075</ele>
        <time>2025-09-27T14:04:44.000Z</time>
      </trkpt>
      <trkpt lat="42.86681" lon="1.30347">
        <ele>1075</ele>
        <time>2025-09-27T14:04:45.000Z</time>
      </trkpt>
      <trkpt lat="42.86684" lon="1.30345">
        <ele>1074</ele>
        <time>2025-09-27T14:04:46.000Z</time>
      </trkpt>
      <trkpt lat="42.86686" lon="1.30343">
        <ele>1074</ele>
        <time>2025-09-27T14:04:47.000Z</time>
      </trkpt>
      <trkpt lat="42.86689" lon="1.30342">
        <ele>1074</ele>
        <time>2025-09-27T14:04:48.000Z</time>
      </trkpt>
      <trkpt lat="42.86695" lon="1.30339">
        <ele>1073</ele>
        <time>2025-09-27T14:04:49.000Z</time>
      </trkpt>
      <trkpt lat="42.867" lon="1.30336">
        <ele>1072</ele>
        <time>2025-09-27T14:04:50.000Z</time>
      </trkpt>
      <trkpt lat="42.86705" lon="1.30333">
        <ele>1071</ele>
        <time>2025-09-27T14:04:51.000Z</time>
      </trkpt>
      <trkpt lat="42.86709" lon="1.30331">
        <ele>1070</ele>
        <time>2025-09-27T14:04:52.000Z</time>
      </trkpt>
      <trkpt lat="42.86714" lon="1.30328">
        <ele>1070</ele>
        <time>2025-09-27T14:04:53.000Z</time>
      </trkpt>
      <trkpt lat="42.86718" lon="1.30325">
        <ele>1069</ele>
        <time>2025-09-27T14:04:54.000Z</time>
      </trkpt>
      <trkpt lat="42.86723" lon="1.30324">
        <ele>1069</ele>
        <time>2025-09-27T14:04:55.000Z</time>
      </trkpt>
      <trkpt lat="42.86729" lon="1.30322">
        <ele>1068</ele>
        <time>2025-09-27T14:04:56.000Z</time>
      </trkpt>
      <trkpt lat="42.86734" lon="1.3032">
        <ele>1068</ele>
        <time>2025-09-27T14:04:57.000Z</time>
      </trkpt>
      <trkpt lat="42.86743" lon="1.30318">
        <ele>1067</ele>
        <time>2025-09-27T14:04:58.000Z</time>
      </trkpt>
      <trkpt lat="42.86747" lon="1.30315">
        <ele>1066</ele>
        <time>2025-09-27T14:04:59.000Z</time>
      </trkpt>
      <trkpt lat="42.8675" lon="1.30312">
        <ele>1066</ele>
        <time>2025-09-27T14:05:00.000Z</time>
      </trkpt>
      <trkpt lat="42.86753" lon="1.30309">
        <ele>1065</ele>
        <time>2025-09-27T14:05:01.000Z</time>
      </trkpt>
      <trkpt lat="42.86758" lon="1.30304">
        <ele>1065</ele>
        <time>2025-09-27T14:05:02.000Z</time>
      </trkpt>
      <trkpt lat="42.86762" lon="1.303">
        <ele>1064</ele>
        <time>2025-09-27T14:05:03.000Z</time>
      </trkpt>
      <trkpt lat="42.86766" lon="1.30295">
        <ele>1063</ele>
        <time>2025-09-27T14:05:04.000Z</time>
      </trkpt>
      <trkpt lat="42.86772" lon="1.30286">
        <ele>1061</ele>
        <time>2025-09-27T14:05:05.000Z</time>
      </trkpt>
      <trkpt lat="42.86777" lon="1.3028">
        <ele>1060</ele>
        <time>2025-09-27T14:05:06.000Z</time>
      </trkpt>
      <trkpt lat="42.86783" lon="1.30274">
        <ele>1059</ele>
        <time>2025-09-27T14:05:07.000Z</time>
      </trkpt>
      <trkpt lat="42.8679" lon="1.30269">
        <ele>1058</ele>
        <time>2025-09-27T14:05:08.000Z</time>
      </trkpt>
      <trkpt lat="42.86796" lon="1.30264">
        <ele>1057</ele>
        <time>2025-09-27T14:05:09.000Z</time>
      </trkpt>
      <trkpt lat="42.86799" lon="1.30261">
        <ele>1057</ele>
        <time>2025-09-27T14:05:10.000Z</time>
      </trkpt>
      <trkpt lat="42.86803" lon="1.30258">
        <ele>1056</ele>
        <time>2025-09-27T14:05:11.000Z</time>
      </trkpt>
      <trkpt lat="42.86807" lon="1.30253">
        <ele>1056</ele>
        <time>2025-09-27T14:05:12.000Z</time>
      </trkpt>
      <trkpt lat="42.86813" lon="1.30247">
        <ele>1055</ele>
        <time>2025-09-27T14:05:13.000Z</time>
      </trkpt>
      <trkpt lat="42.86818" lon="1.30242">
        <ele>1054</ele>
        <time>2025-09-27T14:05:14.000Z</time>
      </trkpt>
      <trkpt lat="42.86823" lon="1.30237">
        <ele>1054</ele>
        <time>2025-09-27T14:05:15.000Z</time>
      </trkpt>
      <trkpt lat="42.86828" lon="1.30231">
        <ele>1053</ele>
        <time>2025-09-27T14:05:16.000Z</time>
      </trkpt>
      <trkpt lat="42.86833" lon="1.30225">
        <ele>1052</ele>
        <time>2025-09-27T14:05:17.000Z</time>
      </trkpt>
      <trkpt lat="42.86837" lon="1.30222">
        <ele>1051</ele>
        <time>2025-09-27T14:05:18.000Z</time>
      </trkpt>
      <trkpt lat="42.8684" lon="1.30218">
        <ele>1051</ele>
        <time>2025-09-27T14:05:19.000Z</time>
      </trkpt>
      <trkpt lat="42.86843" lon="1.30215">
        <ele>1051</ele>
        <time>2025-09-27T14:05:20.000Z</time>
      </trkpt>
      <trkpt lat="42.86847" lon="1.30212">
        <ele>1050</ele>
        <time>2025-09-27T14:05:21.000Z</time>
      </trkpt>
      <trkpt lat="42.8685" lon="1.3021">
        <ele>1050</ele>
        <time>2025-09-27T14:05:22.000Z</time>
      </trkpt>
      <trkpt lat="42.86854" lon="1.30211">
        <ele>1051</ele>
        <time>2025-09-27T14:05:23.000Z</time>
      </trkpt>
      <trkpt lat="42.86858" lon="1.3021">
        <ele>1050</ele>
        <time>2025-09-27T14:05:24.000Z</time>
      </trkpt>
      <trkpt lat="42.86861" lon="1.3021">
        <ele>1050</ele>
        <time>2025-09-27T14:05:25.000Z</time>
      </trkpt>
      <trkpt lat="42.86866" lon="1.30208">
        <ele>1050</ele>
        <time>2025-09-27T14:05:26.000Z</time>
      </trkpt>
      <trkpt lat="42.8687" lon="1.30208">
        <ele>1049</ele>
        <time>2025-09-27T14:05:27.000Z</time>
      </trkpt>
      <trkpt lat="42.86873" lon="1.30208">
        <ele>1049</ele>
        <time>2025-09-27T14:05:28.000Z</time>
      </trkpt>
      <trkpt lat="42.86876" lon="1.30208">
        <ele>1049</ele>
        <time>2025-09-27T14:05:29.000Z</time>
      </trkpt>
      <trkpt lat="42.86878" lon="1.30209">
        <ele>1049</ele>
        <time>2025-09-27T14:05:30.000Z</time>
      </trkpt>
      <trkpt lat="42.86881" lon="1.30209">
        <ele>1048</ele>
        <time>2025-09-27T14:05:31.000Z</time>
      </trkpt>
      <trkpt lat="42.86886" lon="1.3021">
        <ele>1049</ele>
        <time>2025-09-27T14:05:32.000Z</time>
      </trkpt>
      <trkpt lat="42.8689" lon="1.30212">
        <ele>1049</ele>
        <time>2025-09-27T14:05:33.000Z</time>
      </trkpt>
      <trkpt lat="42.86894" lon="1.30213">
        <ele>1049</ele>
        <time>2025-09-27T14:05:34.000Z</time>
      </trkpt>
      <trkpt lat="42.86898" lon="1.30213">
        <ele>1048</ele>
        <time>2025-09-27T14:05:35.000Z</time>
      </trkpt>
      <trkpt lat="42.86903" lon="1.30213">
        <ele>1048</ele>
        <time>2025-09-27T14:05:36.000Z</time>
      </trkpt>
      <trkpt lat="42.86908" lon="1.30214">
        <ele>1048</ele>
        <time>2025-09-27T14:05:37.000Z</time>
      </trkpt>
      <trkpt lat="42.86911" lon="1.30216">
        <ele>1048</ele>
        <time>2025-09-27T14:05:38.000Z</time>
      </trkpt>
      <trkpt lat="42.86916" lon="1.30216">
        <ele>1048</ele>
        <time>2025-09-27T14:05:39.000Z</time>
      </trkpt>
      <trkpt lat="42.86919" lon="1.30216">
        <ele>1048</ele>
        <time>2025-09-27T14:05:40.000Z</time>
      </trkpt>
      <trkpt lat="42.86923" lon="1.30216">
        <ele>1048</ele>
        <time>2025-09-27T14:05:41.000Z</time>
      </trkpt>
      <trkpt lat="42.86928" lon="1.30214">
        <ele>1047</ele>
        <time>2025-09-27T14:05:42.000Z</time>
      </trkpt>
      <trkpt lat="42.86932" lon="1.30214">
        <ele>1047</ele>
        <time>2025-09-27T14:05:43.000Z</time>
      </trkpt>
      <trkpt lat="42.86936" lon="1.30214">
        <ele>1047</ele>
        <time>2025-09-27T14:05:44.000Z</time>
      </trkpt>
      <trkpt lat="42.86941" lon="1.30213">
        <ele>1046</ele>
        <time>2025-09-27T14:05:45.000Z</time>
      </trkpt>
      <trkpt lat="42.86947" lon="1.30211">
        <ele>1045</ele>
        <time>2025-09-27T14:05:46.000Z</time>
      </trkpt>
      <trkpt lat="42.86951" lon="1.30209">
        <ele>1044</ele>
        <time>2025-09-27T14:05:47.000Z</time>
      </trkpt>
      <trkpt lat="42.86955" lon="1.30207">
        <ele>1043</ele>
        <time>2025-09-27T14:05:48.000Z</time>
      </trkpt>
      <trkpt lat="42.8696" lon="1.30205">
        <ele>1042</ele>
        <time>2025-09-27T14:05:49.000Z</time>
      </trkpt>
      <trkpt lat="42.86965" lon="1.30203">
        <ele>1040</ele>
        <time>2025-09-27T14:05:50.000Z</time>
      </trkpt>
      <trkpt lat="42.8697" lon="1.30202">
        <ele>1039</ele>
        <time>2025-09-27T14:05:51.000Z</time>
      </trkpt>
      <trkpt lat="42.86973" lon="1.30199">
        <ele>1038</ele>
        <time>2025-09-27T14:05:52.000Z</time>
      </trkpt>
      <trkpt lat="42.86977" lon="1.30198">
        <ele>1038</ele>
        <time>2025-09-27T14:05:53.000Z</time>
      </trkpt>
      <trkpt lat="42.86982" lon="1.30195">
        <ele>1037</ele>
        <time>2025-09-27T14:05:54.000Z</time>
      </trkpt>
      <trkpt lat="42.86987" lon="1.30193">
        <ele>1036</ele>
        <time>2025-09-27T14:05:55.000Z</time>
      </trkpt>
      <trkpt lat="42.8699" lon="1.30191">
        <ele>1035</ele>
        <time>2025-09-27T14:05:56.000Z</time>
      </trkpt>
      <trkpt lat="42.86995" lon="1.30189">
        <ele>1034</ele>
        <time>2025-09-27T14:05:57.000Z</time>
      </trkpt>
      <trkpt lat="42.87003" lon="1.30186">
        <ele>1031</ele>
        <time>2025-09-27T14:05:58.000Z</time>
      </trkpt>
      <trkpt lat="42.8701" lon="1.30184">
        <ele>1028</ele>
        <time>2025-09-27T14:05:59.000Z</time>
      </trkpt>
      <trkpt lat="42.87015" lon="1.30182">
        <ele>1025</ele>
        <time>2025-09-27T14:06:00.000Z</time>
      </trkpt>
      <trkpt lat="42.8702" lon="1.30181">
        <ele>1024</ele>
        <time>2025-09-27T14:06:01.000Z</time>
      </trkpt>
      <trkpt lat="42.87025" lon="1.30179">
        <ele>1023</ele>
        <time>2025-09-27T14:06:02.000Z</time>
      </trkpt>
      <trkpt lat="42.87029" lon="1.30176">
        <ele>1023</ele>
        <time>2025-09-27T14:06:03.000Z</time>
      </trkpt>
      <trkpt lat="42.87033" lon="1.30172">
        <ele>1023</ele>
        <time>2025-09-27T14:06:04.000Z</time>
      </trkpt>
      <trkpt lat="42.87036" lon="1.30169">
        <ele>1022</ele>
        <time>2025-09-27T14:06:05.000Z</time>
      </trkpt>
      <trkpt lat="42.8704" lon="1.30165">
        <ele>1021</ele>
        <time>2025-09-27T14:06:06.000Z</time>
      </trkpt>
      <trkpt lat="42.87042" lon="1.30163">
        <ele>1020</ele>
        <time>2025-09-27T14:06:07.000Z</time>
      </trkpt>
      <trkpt lat="42.87045" lon="1.3016">
        <ele>1019</ele>
        <time>2025-09-27T14:06:08.000Z</time>
      </trkpt>
      <trkpt lat="42.87049" lon="1.30161">
        <ele>1018</ele>
        <time>2025-09-27T14:06:09.000Z</time>
      </trkpt>
      <trkpt lat="42.87051" lon="1.30162">
        <ele>1018</ele>
        <time>2025-09-27T14:06:10.000Z</time>
      </trkpt>
      <trkpt lat="42.87052" lon="1.30163">
        <ele>1017</ele>
        <time>2025-09-27T14:06:11.000Z</time>
      </trkpt>
      <trkpt lat="42.87054" lon="1.30164">
        <ele>1017</ele>
        <time>2025-09-27T14:06:12.000Z</time>
      </trkpt>
      <trkpt lat="42.87056" lon="1.30165">
        <ele>1016</ele>
        <time>2025-09-27T14:06:13.000Z</time>
      </trkpt>
      <trkpt lat="42.87059" lon="1.30165">
        <ele>1016</ele>
        <time>2025-09-27T14:06:14.000Z</time>
      </trkpt>
      <trkpt lat="42.87064" lon="1.30165">
        <ele>1015</ele>
        <time>2025-09-27T14:06:15.000Z</time>
      </trkpt>
      <trkpt lat="42.87069" lon="1.30164">
        <ele>1014</ele>
        <time>2025-09-27T14:06:16.000Z</time>
      </trkpt>
      <trkpt lat="42.87074" lon="1.30164">
        <ele>1014</ele>
        <time>2025-09-27T14:06:17.000Z</time>
      </trkpt>
      <trkpt lat="42.87078" lon="1.30163">
        <ele>1014</ele>
        <time>2025-09-27T14:06:18.000Z</time>
      </trkpt>
      <trkpt lat="42.87081" lon="1.30162">
        <ele>1013</ele>
        <time>2025-09-27T14:06:19.000Z</time>
      </trkpt>
      <trkpt lat="42.87085" lon="1.30161">
        <ele>1012</ele>
        <time>2025-09-27T14:06:20.000Z</time>
      </trkpt>
      <trkpt lat="42.87088" lon="1.3016">
        <ele>1012</ele>
        <time>2025-09-27T14:06:21.000Z</time>
      </trkpt>
      <trkpt lat="42.87092" lon="1.3016">
        <ele>1011</ele>
        <time>2025-09-27T14:06:22.000Z</time>
      </trkpt>
      <trkpt lat="42.87095" lon="1.30159">
        <ele>1010</ele>
        <time>2025-09-27T14:06:23.000Z</time>
      </trkpt>
      <trkpt lat="42.87098" lon="1.30158">
        <ele>1010</ele>
        <time>2025-09-27T14:06:24.000Z</time>
      </trkpt>
      <trkpt lat="42.87102" lon="1.30157">
        <ele>1009</ele>
        <time>2025-09-27T14:06:25.000Z</time>
      </trkpt>
      <trkpt lat="42.87107" lon="1.30156">
        <ele>1008</ele>
        <time>2025-09-27T14:06:26.000Z</time>
      </trkpt>
      <trkpt lat="42.87111" lon="1.30154">
        <ele>1008</ele>
        <time>2025-09-27T14:06:27.000Z</time>
      </trkpt>
      <trkpt lat="42.87115" lon="1.30154">
        <ele>1007</ele>
        <time>2025-09-27T14:06:28.000Z</time>
      </trkpt>
      <trkpt lat="42.87119" lon="1.30155">
        <ele>1005</ele>
        <time>2025-09-27T14:06:29.000Z</time>
      </trkpt>
      <trkpt lat="42.87125" lon="1.30157">
        <ele>1004</ele>
        <time>2025-09-27T14:06:30.000Z</time>
      </trkpt>
      <trkpt lat="42.87129" lon="1.30158">
        <ele>1003</ele>
        <time>2025-09-27T14:06:31.000Z</time>
      </trkpt>
      <trkpt lat="42.87132" lon="1.30159">
        <ele>1002</ele>
        <time>2025-09-27T14:06:32.000Z</time>
      </trkpt>
      <trkpt lat="42.87136" lon="1.3016">
        <ele>1001</ele>
        <time>2025-09-27T14:06:33.000Z</time>
      </trkpt>
      <trkpt lat="42.8714" lon="1.30161">
        <ele>1001</ele>
        <time>2025-09-27T14:06:34.000Z</time>
      </trkpt>
      <trkpt lat="42.87142" lon="1.30161">
        <ele>999</ele>
        <time>2025-09-27T14:06:35.000Z</time>
      </trkpt>
      <trkpt lat="42.87145" lon="1.30162">
        <ele>998</ele>
        <time>2025-09-27T14:06:36.000Z</time>
      </trkpt>
      <trkpt lat="42.87148" lon="1.30163">
        <ele>998</ele>
        <time>2025-09-27T14:06:37.000Z</time>
      </trkpt>
      <trkpt lat="42.87152" lon="1.30163">
        <ele>997</ele>
        <time>2025-09-27T14:06:38.000Z</time>
      </trkpt>
      <trkpt lat="42.87157" lon="1.30163">
        <ele>996</ele>
        <time>2025-09-27T14:06:39.000Z</time>
      </trkpt>
      <trkpt lat="42.87161" lon="1.30162">
        <ele>995</ele>
        <time>2025-09-27T14:06:40.000Z</time>
      </trkpt>
      <trkpt lat="42.87166" lon="1.30158">
        <ele>994</ele>
        <time>2025-09-27T14:06:41.000Z</time>
      </trkpt>
      <trkpt lat="42.8717" lon="1.30156">
        <ele>993</ele>
        <time>2025-09-27T14:06:42.000Z</time>
      </trkpt>
      <trkpt lat="42.87174" lon="1.30153">
        <ele>991</ele>
        <time>2025-09-27T14:06:43.000Z</time>
      </trkpt>
      <trkpt lat="42.87179" lon="1.3015">
        <ele>990</ele>
        <time>2025-09-27T14:06:44.000Z</time>
      </trkpt>
      <trkpt lat="42.87183" lon="1.30146">
        <ele>989</ele>
        <time>2025-09-27T14:06:45.000Z</time>
      </trkpt>
      <trkpt lat="42.87187" lon="1.30143">
        <ele>988</ele>
        <time>2025-09-27T14:06:46.000Z</time>
      </trkpt>
      <trkpt lat="42.8719" lon="1.30138">
        <ele>987</ele>
        <time>2025-09-27T14:06:47.000Z</time>
      </trkpt>
      <trkpt lat="42.87198" lon="1.30132">
        <ele>982</ele>
        <time>2025-09-27T14:06:48.000Z</time>
      </trkpt>
      <trkpt lat="42.87202" lon="1.30126">
        <ele>981</ele>
        <time>2025-09-27T14:06:49.000Z</time>
      </trkpt>
      <trkpt lat="42.87205" lon="1.30119">
        <ele>981</ele>
        <time>2025-09-27T14:06:50.000Z</time>
      </trkpt>
      <trkpt lat="42.87209" lon="1.30114">
        <ele>980</ele>
        <time>2025-09-27T14:06:51.000Z</time>
      </trkpt>
      <trkpt lat="42.87216" lon="1.3011">
        <ele>978</ele>
        <time>2025-09-27T14:06:52.000Z</time>
      </trkpt>
      <trkpt lat="42.87224" lon="1.30106">
        <ele>976</ele>
        <time>2025-09-27T14:06:53.000Z</time>
      </trkpt>
      <trkpt lat="42.87229" lon="1.30103">
        <ele>974</ele>
        <time>2025-09-27T14:06:54.000Z</time>
      </trkpt>
      <trkpt lat="42.87235" lon="1.30098">
        <ele>973</ele>
        <time>2025-09-27T14:06:55.000Z</time>
      </trkpt>
      <trkpt lat="42.8724" lon="1.30093">
        <ele>972</ele>
        <time>2025-09-27T14:06:56.000Z</time>
      </trkpt>
      <trkpt lat="42.87247" lon="1.30091">
        <ele>969</ele>
        <time>2025-09-27T14:06:57.000Z</time>
      </trkpt>
      <trkpt lat="42.87253" lon="1.3009">
        <ele>968</ele>
        <time>2025-09-27T14:06:58.000Z</time>
      </trkpt>
      <trkpt lat="42.87259" lon="1.30089">
        <ele>966</ele>
        <time>2025-09-27T14:06:59.000Z</time>
      </trkpt>
      <trkpt lat="42.87265" lon="1.30088">
        <ele>965</ele>
        <time>2025-09-27T14:07:00.000Z</time>
      </trkpt>
      <trkpt lat="42.87271" lon="1.30087">
        <ele>964</ele>
        <time>2025-09-27T14:07:01.000Z</time>
      </trkpt>
      <trkpt lat="42.87277" lon="1.30087">
        <ele>962</ele>
        <time>2025-09-27T14:07:02.000Z</time>
      </trkpt>
      <trkpt lat="42.87285" lon="1.30086">
        <ele>961</ele>
        <time>2025-09-27T14:07:03.000Z</time>
      </trkpt>
      <trkpt lat="42.87291" lon="1.30084">
        <ele>959</ele>
        <time>2025-09-27T14:07:04.000Z</time>
      </trkpt>
      <trkpt lat="42.87299" lon="1.30081">
        <ele>957</ele>
        <time>2025-09-27T14:07:05.000Z</time>
      </trkpt>
      <trkpt lat="42.87304" lon="1.3008">
        <ele>955</ele>
        <time>2025-09-27T14:07:06.000Z</time>
      </trkpt>
      <trkpt lat="42.8731" lon="1.30078">
        <ele>953</ele>
        <time>2025-09-27T14:07:07.000Z</time>
      </trkpt>
      <trkpt lat="42.87315" lon="1.30075">
        <ele>952</ele>
        <time>2025-09-27T14:07:08.000Z</time>
      </trkpt>
      <trkpt lat="42.87321" lon="1.30072">
        <ele>950</ele>
        <time>2025-09-27T14:07:09.000Z</time>
      </trkpt>
      <trkpt lat="42.87326" lon="1.30071">
        <ele>948</ele>
        <time>2025-09-27T14:07:10.000Z</time>
      </trkpt>
      <trkpt lat="42.87333" lon="1.30072">
        <ele>947</ele>
        <time>2025-09-27T14:07:11.000Z</time>
      </trkpt>
      <trkpt lat="42.87338" lon="1.30074">
        <ele>946</ele>
        <time>2025-09-27T14:07:12.000Z</time>
      </trkpt>
      <trkpt lat="42.87341" lon="1.30077">
        <ele>946</ele>
        <time>2025-09-27T14:07:13.000Z</time>
      </trkpt>
      <trkpt lat="42.87345" lon="1.3008">
        <ele>945</ele>
        <time>2025-09-27T14:07:14.000Z</time>
      </trkpt>
      <trkpt lat="42.87349" lon="1.3008">
        <ele>944</ele>
        <time>2025-09-27T14:07:15.000Z</time>
      </trkpt>
      <trkpt lat="42.87356" lon="1.30079">
        <ele>941</ele>
        <time>2025-09-27T14:07:16.000Z</time>
      </trkpt>
      <trkpt lat="42.87359" lon="1.30076">
        <ele>940</ele>
        <time>2025-09-27T14:07:17.000Z</time>
      </trkpt>
      <trkpt lat="42.87362" lon="1.30072">
        <ele>940</ele>
        <time>2025-09-27T14:07:18.000Z</time>
      </trkpt>
      <trkpt lat="42.87364" lon="1.30068">
        <ele>939</ele>
        <time>2025-09-27T14:07:19.000Z</time>
      </trkpt>
      <trkpt lat="42.87366" lon="1.30062">
        <ele>939</ele>
        <time>2025-09-27T14:07:20.000Z</time>
      </trkpt>
      <trkpt lat="42.87368" lon="1.30055">
        <ele>938</ele>
        <time>2025-09-27T14:07:21.000Z</time>
      </trkpt>
      <trkpt lat="42.8737" lon="1.30048">
        <ele>937</ele>
        <time>2025-09-27T14:07:22.000Z</time>
      </trkpt>
      <trkpt lat="42.87373" lon="1.30041">
        <ele>936</ele>
        <time>2025-09-27T14:07:23.000Z</time>
      </trkpt>
      <trkpt lat="42.87377" lon="1.30036">
        <ele>935</ele>
        <time>2025-09-27T14:07:24.000Z</time>
      </trkpt>
      <trkpt lat="42.87381" lon="1.30031">
        <ele>934</ele>
        <time>2025-09-27T14:07:25.000Z</time>
      </trkpt>
      <trkpt lat="42.87389" lon="1.30026">
        <ele>931</ele>
        <time>2025-09-27T14:07:26.000Z</time>
      </trkpt>
      <trkpt lat="42.87395" lon="1.30021">
        <ele>929</ele>
        <time>2025-09-27T14:07:27.000Z</time>
      </trkpt>
      <trkpt lat="42.874" lon="1.30016">
        <ele>928</ele>
        <time>2025-09-27T14:07:28.000Z</time>
      </trkpt>
      <trkpt lat="42.87406" lon="1.30011">
        <ele>925</ele>
        <time>2025-09-27T14:07:29.000Z</time>
      </trkpt>
      <trkpt lat="42.8741" lon="1.30006">
        <ele>923</ele>
        <time>2025-09-27T14:07:30.000Z</time>
      </trkpt>
      <trkpt lat="42.87411" lon="1.29998">
        <ele>922</ele>
        <time>2025-09-27T14:07:31.000Z</time>
      </trkpt>
      <trkpt lat="42.87412" lon="1.2999">
        <ele>921</ele>
        <time>2025-09-27T14:07:32.000Z</time>
      </trkpt>
      <trkpt lat="42.87413" lon="1.29983">
        <ele>920</ele>
        <time>2025-09-27T14:07:33.000Z</time>
      </trkpt>
      <trkpt lat="42.87413" lon="1.29976">
        <ele>919</ele>
        <time>2025-09-27T14:07:34.000Z</time>
      </trkpt>
      <trkpt lat="42.87414" lon="1.29967">
        <ele>917</ele>
        <time>2025-09-27T14:07:35.000Z</time>
      </trkpt>
      <trkpt lat="42.87414" lon="1.2996">
        <ele>916</ele>
        <time>2025-09-27T14:07:36.000Z</time>
      </trkpt>
      <trkpt lat="42.87413" lon="1.29954">
        <ele>916</ele>
        <time>2025-09-27T14:07:37.000Z</time>
      </trkpt>
      <trkpt lat="42.87414" lon="1.2995">
        <ele>915</ele>
        <time>2025-09-27T14:07:38.000Z</time>
      </trkpt>
      <trkpt lat="42.87417" lon="1.29948">
        <ele>914</ele>
        <time>2025-09-27T14:07:39.000Z</time>
      </trkpt>
      <trkpt lat="42.87418" lon="1.29947">
        <ele>914</ele>
        <time>2025-09-27T14:07:40.000Z</time>
      </trkpt>
      <trkpt lat="42.87419" lon="1.29946">
        <ele>914</ele>
        <time>2025-09-27T14:07:41.000Z</time>
      </trkpt>
      <trkpt lat="42.87423" lon="1.29947">
        <ele>907</ele>
        <time>2025-09-27T14:08:18.000Z</time>
      </trkpt>
      <trkpt lat="42.87423" lon="1.29948">
        <ele>906</ele>
        <time>2025-09-27T14:08:19.000Z</time>
      </trkpt>
      <trkpt lat="42.87424" lon="1.29949">
        <ele>906</ele>
        <time>2025-09-27T14:08:20.000Z</time>
      </trkpt>
      <trkpt lat="42.8743" lon="1.29947">
        <ele>905</ele>
        <time>2025-09-27T14:10:46.000Z</time>
      </trkpt>
      <trkpt lat="42.8743" lon="1.29949">
        <ele>905</ele>
        <time>2025-09-27T14:10:47.000Z</time>
      </trkpt>
      <trkpt lat="42.87429" lon="1.29951">
        <ele>905</ele>
        <time>2025-09-27T14:10:48.000Z</time>
      </trkpt>
      <trkpt lat="42.87429" lon="1.29954">
        <ele>905</ele>
        <time>2025-09-27T14:10:49.000Z</time>
      </trkpt>
      <trkpt lat="42.87428" lon="1.29956">
        <ele>905</ele>
        <time>2025-09-27T14:10:50.000Z</time>
      </trkpt>
      <trkpt lat="42.87429" lon="1.29959">
        <ele>905</ele>
        <time>2025-09-27T14:10:51.000Z</time>
      </trkpt>
      <trkpt lat="42.8743" lon="1.29962">
        <ele>905</ele>
        <time>2025-09-27T14:10:52.000Z</time>
      </trkpt>
      <trkpt lat="42.8743" lon="1.29966">
        <ele>904</ele>
        <time>2025-09-27T14:10:53.000Z</time>
      </trkpt>
      <trkpt lat="42.8743" lon="1.2997">
        <ele>904</ele>
        <time>2025-09-27T14:10:54.000Z</time>
      </trkpt>
      <trkpt lat="42.87431" lon="1.29974">
        <ele>904</ele>
        <time>2025-09-27T14:10:55.000Z</time>
      </trkpt>
      <trkpt lat="42.87431" lon="1.29979">
        <ele>903</ele>
        <time>2025-09-27T14:10:56.000Z</time>
      </trkpt>
      <trkpt lat="42.87432" lon="1.29984">
        <ele>903</ele>
        <time>2025-09-27T14:10:57.000Z</time>
      </trkpt>
      <trkpt lat="42.87432" lon="1.29987">
        <ele>902</ele>
        <time>2025-09-27T14:10:58.000Z</time>
      </trkpt>
      <trkpt lat="42.87432" lon="1.29993">
        <ele>903</ele>
        <time>2025-09-27T14:10:59.000Z</time>
      </trkpt>
      <trkpt lat="42.87432" lon="1.29997">
        <ele>902</ele>
        <time>2025-09-27T14:11:00.000Z</time>
      </trkpt>
      <trkpt lat="42.87432" lon="1.30001">
        <ele>902</ele>
        <time>2025-09-27T14:11:01.000Z</time>
      </trkpt>
      <trkpt lat="42.87432" lon="1.30007">
        <ele>902</ele>
        <time>2025-09-27T14:11:02.000Z</time>
      </trkpt>
      <trkpt lat="42.87433" lon="1.30012">
        <ele>902</ele>
        <time>2025-09-27T14:11:03.000Z</time>
      </trkpt>
      <trkpt lat="42.87434" lon="1.3002">
        <ele>901</ele>
        <time>2025-09-27T14:11:04.000Z</time>
      </trkpt>
      <trkpt lat="42.87435" lon="1.30025">
        <ele>901</ele>
        <time>2025-09-27T14:11:05.000Z</time>
      </trkpt>
      <trkpt lat="42.87436" lon="1.30032">
        <ele>901</ele>
        <time>2025-09-27T14:11:06.000Z</time>
      </trkpt>
      <trkpt lat="42.87436" lon="1.30038">
        <ele>899</ele>
        <time>2025-09-27T14:11:07.000Z</time>
      </trkpt>
      <trkpt lat="42.87436" lon="1.30044">
        <ele>900</ele>
        <time>2025-09-27T14:11:08.000Z</time>
      </trkpt>
      <trkpt lat="42.87435" lon="1.30049">
        <ele>900</ele>
        <time>2025-09-27T14:11:09.000Z</time>
      </trkpt>
      <trkpt lat="42.87434" lon="1.30055">
        <ele>899</ele>
        <time>2025-09-27T14:11:10.000Z</time>
      </trkpt>
      <trkpt lat="42.87434" lon="1.30061">
        <ele>899</ele>
        <time>2025-09-27T14:11:11.000Z</time>
      </trkpt>
      <trkpt lat="42.87434" lon="1.30066">
        <ele>898</ele>
        <time>2025-09-27T14:11:12.000Z</time>
      </trkpt>
      <trkpt lat="42.87436" lon="1.30072">
        <ele>898</ele>
        <time>2025-09-27T14:11:13.000Z</time>
      </trkpt>
      <trkpt lat="42.87439" lon="1.30081">
        <ele>898</ele>
        <time>2025-09-27T14:11:14.000Z</time>
      </trkpt>
      <trkpt lat="42.87443" lon="1.3009">
        <ele>898</ele>
        <time>2025-09-27T14:11:15.000Z</time>
      </trkpt>
      <trkpt lat="42.87447" lon="1.30098">
        <ele>898</ele>
        <time>2025-09-27T14:11:16.000Z</time>
      </trkpt>
      <trkpt lat="42.87453" lon="1.30102">
        <ele>898</ele>
        <time>2025-09-27T14:11:17.000Z</time>
      </trkpt>
      <trkpt lat="42.87461" lon="1.30104">
        <ele>897</ele>
        <time>2025-09-27T14:11:18.000Z</time>
      </trkpt>
      <trkpt lat="42.87468" lon="1.30105">
        <ele>896</ele>
        <time>2025-09-27T14:11:19.000Z</time>
      </trkpt>
      <trkpt lat="42.87474" lon="1.30103">
        <ele>895</ele>
        <time>2025-09-27T14:11:20.000Z</time>
      </trkpt>
      <trkpt lat="42.87481" lon="1.30103">
        <ele>894</ele>
        <time>2025-09-27T14:11:21.000Z</time>
      </trkpt>
      <trkpt lat="42.87486" lon="1.30106">
        <ele>893</ele>
        <time>2025-09-27T14:11:22.000Z</time>
      </trkpt>
      <trkpt lat="42.8749" lon="1.30112">
        <ele>891</ele>
        <time>2025-09-27T14:11:23.000Z</time>
      </trkpt>
      <trkpt lat="42.87493" lon="1.30122">
        <ele>890</ele>
        <time>2025-09-27T14:11:24.000Z</time>
      </trkpt>
      <trkpt lat="42.87496" lon="1.30132">
        <ele>889</ele>
        <time>2025-09-27T14:11:25.000Z</time>
      </trkpt>
      <trkpt lat="42.875" lon="1.30142">
        <ele>889</ele>
        <time>2025-09-27T14:11:26.000Z</time>
      </trkpt>
      <trkpt lat="42.87504" lon="1.3015">
        <ele>889</ele>
        <time>2025-09-27T14:11:27.000Z</time>
      </trkpt>
      <trkpt lat="42.87507" lon="1.30159">
        <ele>887</ele>
        <time>2025-09-27T14:11:28.000Z</time>
      </trkpt>
      <trkpt lat="42.8751" lon="1.30168">
        <ele>886</ele>
        <time>2025-09-27T14:11:29.000Z</time>
      </trkpt>
      <trkpt lat="42.87514" lon="1.30176">
        <ele>884</ele>
        <time>2025-09-27T14:11:30.000Z</time>
      </trkpt>
      <trkpt lat="42.87517" lon="1.30184">
        <ele>883</ele>
        <time>2025-09-27T14:11:31.000Z</time>
      </trkpt>
      <trkpt lat="42.8752" lon="1.30193">
        <ele>882</ele>
        <time>2025-09-27T14:11:32.000Z</time>
      </trkpt>
      <trkpt lat="42.87523" lon="1.30202">
        <ele>881</ele>
        <time>2025-09-27T14:11:33.000Z</time>
      </trkpt>
      <trkpt lat="42.87525" lon="1.30211">
        <ele>880</ele>
        <time>2025-09-27T14:11:34.000Z</time>
      </trkpt>
      <trkpt lat="42.87527" lon="1.30221">
        <ele>879</ele>
        <time>2025-09-27T14:11:35.000Z</time>
      </trkpt>
      <trkpt lat="42.87528" lon="1.3023">
        <ele>878</ele>
        <time>2025-09-27T14:11:36.000Z</time>
      </trkpt>
      <trkpt lat="42.87529" lon="1.30239">
        <ele>878</ele>
        <time>2025-09-27T14:11:37.000Z</time>
      </trkpt>
      <trkpt lat="42.8753" lon="1.30248">
        <ele>878</ele>
        <time>2025-09-27T14:11:38.000Z</time>
      </trkpt>
      <trkpt lat="42.87529" lon="1.30254">
        <ele>878</ele>
        <time>2025-09-27T14:11:39.000Z</time>
      </trkpt>
      <trkpt lat="42.87529" lon="1.30264">
        <ele>877</ele>
        <time>2025-09-27T14:11:40.000Z</time>
      </trkpt>
      <trkpt lat="42.87529" lon="1.30271">
        <ele>876</ele>
        <time>2025-09-27T14:11:41.000Z</time>
      </trkpt>
      <trkpt lat="42.87529" lon="1.30278">
        <ele>876</ele>
        <time>2025-09-27T14:11:42.000Z</time>
      </trkpt>
      <trkpt lat="42.87529" lon="1.30284">
        <ele>876</ele>
        <time>2025-09-27T14:11:43.000Z</time>
      </trkpt>
      <trkpt lat="42.87528" lon="1.30291">
        <ele>877</ele>
        <time>2025-09-27T14:11:44.000Z</time>
      </trkpt>
      <trkpt lat="42.87527" lon="1.30296">
        <ele>876</ele>
        <time>2025-09-27T14:11:45.000Z</time>
      </trkpt>
      <trkpt lat="42.87525" lon="1.30302">
        <ele>876</ele>
        <time>2025-09-27T14:11:46.000Z</time>
      </trkpt>
      <trkpt lat="42.87523" lon="1.30308">
        <ele>876</ele>
        <time>2025-09-27T14:11:47.000Z</time>
      </trkpt>
      <trkpt lat="42.8752" lon="1.30314">
        <ele>876</ele>
        <time>2025-09-27T14:11:48.000Z</time>
      </trkpt>
      <trkpt lat="42.87518" lon="1.3032">
        <ele>877</ele>
        <time>2025-09-27T14:11:49.000Z</time>
      </trkpt>
      <trkpt lat="42.87515" lon="1.30326">
        <ele>876</ele>
        <time>2025-09-27T14:11:50.000Z</time>
      </trkpt>
      <trkpt lat="42.87513" lon="1.30333">
        <ele>875</ele>
        <time>2025-09-27T14:11:51.000Z</time>
      </trkpt>
      <trkpt lat="42.87511" lon="1.3034">
        <ele>874</ele>
        <time>2025-09-27T14:11:52.000Z</time>
      </trkpt>
      <trkpt lat="42.8751" lon="1.30348">
        <ele>874</ele>
        <time>2025-09-27T14:11:53.000Z</time>
      </trkpt>
      <trkpt lat="42.87512" lon="1.30354">
        <ele>874</ele>
        <time>2025-09-27T14:11:54.000Z</time>
      </trkpt>
      <trkpt lat="42.87513" lon="1.30359">
        <ele>874</ele>
        <time>2025-09-27T14:11:55.000Z</time>
      </trkpt>
      <trkpt lat="42.87515" lon="1.30366">
        <ele>874</ele>
        <time>2025-09-27T14:11:56.000Z</time>
      </trkpt>
      <trkpt lat="42.87517" lon="1.30373">
        <ele>874</ele>
        <time>2025-09-27T14:11:57.000Z</time>
      </trkpt>
      <trkpt lat="42.87519" lon="1.30378">
        <ele>874</ele>
        <time>2025-09-27T14:11:58.000Z</time>
      </trkpt>
      <trkpt lat="42.87522" lon="1.30382">
        <ele>875</ele>
        <time>2025-09-27T14:11:59.000Z</time>
      </trkpt>
      <trkpt lat="42.87524" lon="1.30387">
        <ele>874</ele>
        <time>2025-09-27T14:12:00.000Z</time>
      </trkpt>
      <trkpt lat="42.87526" lon="1.30392">
        <ele>875</ele>
        <time>2025-09-27T14:12:01.000Z</time>
      </trkpt>
      <trkpt lat="42.87528" lon="1.30397">
        <ele>875</ele>
        <time>2025-09-27T14:12:02.000Z</time>
      </trkpt>
      <trkpt lat="42.8753" lon="1.30404">
        <ele>875</ele>
        <time>2025-09-27T14:12:03.000Z</time>
      </trkpt>
      <trkpt lat="42.87532" lon="1.3041">
        <ele>875</ele>
        <time>2025-09-27T14:12:04.000Z</time>
      </trkpt>
      <trkpt lat="42.87533" lon="1.30417">
        <ele>875</ele>
        <time>2025-09-27T14:12:05.000Z</time>
      </trkpt>
      <trkpt lat="42.87534" lon="1.30424">
        <ele>875</ele>
        <time>2025-09-27T14:12:06.000Z</time>
      </trkpt>
      <trkpt lat="42.87535" lon="1.30431">
        <ele>874</ele>
        <time>2025-09-27T14:12:07.000Z</time>
      </trkpt>
      <trkpt lat="42.87535" lon="1.30436">
        <ele>874</ele>
        <time>2025-09-27T14:12:08.000Z</time>
      </trkpt>
      <trkpt lat="42.87536" lon="1.30443">
        <ele>875</ele>
        <time>2025-09-27T14:12:09.000Z</time>
      </trkpt>
      <trkpt lat="42.87535" lon="1.30449">
        <ele>874</ele>
        <time>2025-09-27T14:12:10.000Z</time>
      </trkpt>
      <trkpt lat="42.87535" lon="1.30454">
        <ele>874</ele>
        <time>2025-09-27T14:12:11.000Z</time>
      </trkpt>
      <trkpt lat="42.87536" lon="1.3046">
        <ele>874</ele>
        <time>2025-09-27T14:12:12.000Z</time>
      </trkpt>
      <trkpt lat="42.87536" lon="1.30466">
        <ele>874</ele>
        <time>2025-09-27T14:12:13.000Z</time>
      </trkpt>
      <trkpt lat="42.87536" lon="1.30473">
        <ele>873</ele>
        <time>2025-09-27T14:12:14.000Z</time>
      </trkpt>
      <trkpt lat="42.87536" lon="1.30479">
        <ele>872</ele>
        <time>2025-09-27T14:12:15.000Z</time>
      </trkpt>
      <trkpt lat="42.87536" lon="1.30485">
        <ele>872</ele>
        <time>2025-09-27T14:12:16.000Z</time>
      </trkpt>
      <trkpt lat="42.87535" lon="1.30492">
        <ele>872</ele>
        <time>2025-09-27T14:12:17.000Z</time>
      </trkpt>
      <trkpt lat="42.87533" lon="1.30498">
        <ele>872</ele>
        <time>2025-09-27T14:12:18.000Z</time>
      </trkpt>
      <trkpt lat="42.87532" lon="1.30503">
        <ele>872</ele>
        <time>2025-09-27T14:12:19.000Z</time>
      </trkpt>
      <trkpt lat="42.8753" lon="1.30507">
        <ele>871</ele>
        <time>2025-09-27T14:12:20.000Z</time>
      </trkpt>
      <trkpt lat="42.87528" lon="1.30512">
        <ele>871</ele>
        <time>2025-09-27T14:12:21.000Z</time>
      </trkpt>
      <trkpt lat="42.87526" lon="1.30516">
        <ele>871</ele>
        <time>2025-09-27T14:12:22.000Z</time>
      </trkpt>
      <trkpt lat="42.87524" lon="1.30521">
        <ele>871</ele>
        <time>2025-09-27T14:12:23.000Z</time>
      </trkpt>
      <trkpt lat="42.87522" lon="1.30525">
        <ele>872</ele>
        <time>2025-09-27T14:12:24.000Z</time>
      </trkpt>
      <trkpt lat="42.87518" lon="1.3053">
        <ele>872</ele>
        <time>2025-09-27T14:12:25.000Z</time>
      </trkpt>
      <trkpt lat="42.87515" lon="1.30533">
        <ele>873</ele>
        <time>2025-09-27T14:12:26.000Z</time>
      </trkpt>
      <trkpt lat="42.8751" lon="1.30534">
        <ele>873</ele>
        <time>2025-09-27T14:12:27.000Z</time>
      </trkpt>
      <trkpt lat="42.87505" lon="1.30537">
        <ele>873</ele>
        <time>2025-09-27T14:12:28.000Z</time>
      </trkpt>
      <trkpt lat="42.87501" lon="1.30539">
        <ele>873</ele>
        <time>2025-09-27T14:12:29.000Z</time>
      </trkpt>
      <trkpt lat="42.87497" lon="1.3054">
        <ele>873</ele>
        <time>2025-09-27T14:12:30.000Z</time>
      </trkpt>
      <trkpt lat="42.87493" lon="1.30542">
        <ele>873</ele>
        <time>2025-09-27T14:12:31.000Z</time>
      </trkpt>
      <trkpt lat="42.8749" lon="1.30544">
        <ele>873</ele>
        <time>2025-09-27T14:12:32.000Z</time>
      </trkpt>
      <trkpt lat="42.87487" lon="1.30547">
        <ele>873</ele>
        <time>2025-09-27T14:12:33.000Z</time>
      </trkpt>
      <trkpt lat="42.87484" lon="1.3055">
        <ele>873</ele>
        <time>2025-09-27T14:12:34.000Z</time>
      </trkpt>
      <trkpt lat="42.87481" lon="1.30554">
        <ele>873</ele>
        <time>2025-09-27T14:12:35.000Z</time>
      </trkpt>
      <trkpt lat="42.87478" lon="1.30557">
        <ele>873</ele>
        <time>2025-09-27T14:12:36.000Z</time>
      </trkpt>
      <trkpt lat="42.87477" lon="1.30562">
        <ele>872</ele>
        <time>2025-09-27T14:12:37.000Z</time>
      </trkpt>
      <trkpt lat="42.87474" lon="1.30568">
        <ele>873</ele>
        <time>2025-09-27T14:12:38.000Z</time>
      </trkpt>
      <trkpt lat="42.87473" lon="1.30574">
        <ele>872</ele>
        <time>2025-09-27T14:12:39.000Z</time>
      </trkpt>
      <trkpt lat="42.87471" lon="1.3058">
        <ele>872</ele>
        <time>2025-09-27T14:12:40.000Z</time>
      </trkpt>
      <trkpt lat="42.87469" lon="1.30585">
        <ele>872</ele>
        <time>2025-09-27T14:12:41.000Z</time>
      </trkpt>
      <trkpt lat="42.87467" lon="1.30592">
        <ele>872</ele>
        <time>2025-09-27T14:12:42.000Z</time>
      </trkpt>
      <trkpt lat="42.87465" lon="1.30599">
        <ele>872</ele>
        <time>2025-09-27T14:12:43.000Z</time>
      </trkpt>
      <trkpt lat="42.87462" lon="1.30605">
        <ele>873</ele>
        <time>2025-09-27T14:12:44.000Z</time>
      </trkpt>
      <trkpt lat="42.8746" lon="1.30611">
        <ele>873</ele>
        <time>2025-09-27T14:12:45.000Z</time>
      </trkpt>
      <trkpt lat="42.87457" lon="1.30615">
        <ele>873</ele>
        <time>2025-09-27T14:12:46.000Z</time>
      </trkpt>
      <trkpt lat="42.87454" lon="1.3062">
        <ele>873</ele>
        <time>2025-09-27T14:12:47.000Z</time>
      </trkpt>
      <trkpt lat="42.87452" lon="1.30623">
        <ele>873</ele>
        <time>2025-09-27T14:12:48.000Z</time>
      </trkpt>
      <trkpt lat="42.87449" lon="1.30627">
        <ele>873</ele>
        <time>2025-09-27T14:12:49.000Z</time>
      </trkpt>
      <trkpt lat="42.87446" lon="1.3063">
        <ele>873</ele>
        <time>2025-09-27T14:12:50.000Z</time>
      </trkpt>
      <trkpt lat="42.87443" lon="1.30634">
        <ele>873</ele>
        <time>2025-09-27T14:12:51.000Z</time>
      </trkpt>
      <trkpt lat="42.87441" lon="1.30638">
        <ele>872</ele>
        <time>2025-09-27T14:12:52.000Z</time>
      </trkpt>
      <trkpt lat="42.87437" lon="1.30642">
        <ele>872</ele>
        <time>2025-09-27T14:12:53.000Z</time>
      </trkpt>
      <trkpt lat="42.87434" lon="1.30645">
        <ele>872</ele>
        <time>2025-09-27T14:12:54.000Z</time>
      </trkpt>
      <trkpt lat="42.87431" lon="1.30648">
        <ele>872</ele>
        <time>2025-09-27T14:12:55.000Z</time>
      </trkpt>
      <trkpt lat="42.87428" lon="1.30651">
        <ele>873</ele>
        <time>2025-09-27T14:12:56.000Z</time>
      </trkpt>
      <trkpt lat="42.87425" lon="1.30654">
        <ele>873</ele>
        <time>2025-09-27T14:12:57.000Z</time>
      </trkpt>
      <trkpt lat="42.87422" lon="1.30657">
        <ele>873</ele>
        <time>2025-09-27T14:12:58.000Z</time>
      </trkpt>
      <trkpt lat="42.87419" lon="1.30659">
        <ele>873</ele>
        <time>2025-09-27T14:12:59.000Z</time>
      </trkpt>
      <trkpt lat="42.87416" lon="1.3066">
        <ele>873</ele>
        <time>2025-09-27T14:13:00.000Z</time>
      </trkpt>
      <trkpt lat="42.87412" lon="1.30662">
        <ele>873</ele>
        <time>2025-09-27T14:13:01.000Z</time>
      </trkpt>
      <trkpt lat="42.87408" lon="1.30664">
        <ele>873</ele>
        <time>2025-09-27T14:13:02.000Z</time>
      </trkpt>
      <trkpt lat="42.87404" lon="1.30666">
        <ele>873</ele>
        <time>2025-09-27T14:13:03.000Z</time>
      </trkpt>
      <trkpt lat="42.874" lon="1.30669">
        <ele>872</ele>
        <time>2025-09-27T14:13:04.000Z</time>
      </trkpt>
      <trkpt lat="42.87396" lon="1.3067">
        <ele>872</ele>
        <time>2025-09-27T14:13:05.000Z</time>
      </trkpt>
      <trkpt lat="42.87391" lon="1.30672">
        <ele>872</ele>
        <time>2025-09-27T14:13:06.000Z</time>
      </trkpt>
      <trkpt lat="42.87386" lon="1.30672">
        <ele>872</ele>
        <time>2025-09-27T14:13:07.000Z</time>
      </trkpt>
      <trkpt lat="42.87382" lon="1.30672">
        <ele>872</ele>
        <time>2025-09-27T14:13:08.000Z</time>
      </trkpt>
      <trkpt lat="42.87378" lon="1.30673">
        <ele>872</ele>
        <time>2025-09-27T14:13:09.000Z</time>
      </trkpt>
      <trkpt lat="42.87373" lon="1.30672">
        <ele>872</ele>
        <time>2025-09-27T14:13:10.000Z</time>
      </trkpt>
      <trkpt lat="42.87369" lon="1.30672">
        <ele>871</ele>
        <time>2025-09-27T14:13:11.000Z</time>
      </trkpt>
      <trkpt lat="42.87363" lon="1.30671">
        <ele>871</ele>
        <time>2025-09-27T14:13:12.000Z</time>
      </trkpt>
      <trkpt lat="42.87357" lon="1.30668">
        <ele>872</ele>
        <time>2025-09-27T14:13:13.000Z</time>
      </trkpt>
      <trkpt lat="42.87352" lon="1.30667">
        <ele>872</ele>
        <time>2025-09-27T14:13:14.000Z</time>
      </trkpt>
      <trkpt lat="42.87346" lon="1.30665">
        <ele>873</ele>
        <time>2025-09-27T14:13:15.000Z</time>
      </trkpt>
      <trkpt lat="42.87341" lon="1.30665">
        <ele>873</ele>
        <time>2025-09-27T14:13:16.000Z</time>
      </trkpt>
      <trkpt lat="42.87337" lon="1.30664">
        <ele>873</ele>
        <time>2025-09-27T14:13:17.000Z</time>
      </trkpt>
      <trkpt lat="42.87332" lon="1.30661">
        <ele>873</ele>
        <time>2025-09-27T14:13:18.000Z</time>
      </trkpt>
      <trkpt lat="42.87327" lon="1.3066">
        <ele>874</ele>
        <time>2025-09-27T14:13:19.000Z</time>
      </trkpt>
      <trkpt lat="42.87321" lon="1.30659">
        <ele>874</ele>
        <time>2025-09-27T14:13:20.000Z</time>
      </trkpt>
      <trkpt lat="42.87316" lon="1.30659">
        <ele>875</ele>
        <time>2025-09-27T14:13:21.000Z</time>
      </trkpt>
      <trkpt lat="42.8731" lon="1.30661">
        <ele>875</ele>
        <time>2025-09-27T14:13:22.000Z</time>
      </trkpt>
      <trkpt lat="42.87305" lon="1.30663">
        <ele>876</ele>
        <time>2025-09-27T14:13:23.000Z</time>
      </trkpt>
      <trkpt lat="42.873" lon="1.30666">
        <ele>877</ele>
        <time>2025-09-27T14:13:24.000Z</time>
      </trkpt>
      <trkpt lat="42.87296" lon="1.30668">
        <ele>877</ele>
        <time>2025-09-27T14:13:25.000Z</time>
      </trkpt>
      <trkpt lat="42.87292" lon="1.30671">
        <ele>878</ele>
        <time>2025-09-27T14:13:26.000Z</time>
      </trkpt>
      <trkpt lat="42.87289" lon="1.30674">
        <ele>878</ele>
        <time>2025-09-27T14:13:27.000Z</time>
      </trkpt>
      <trkpt lat="42.87286" lon="1.30679">
        <ele>878</ele>
        <time>2025-09-27T14:13:28.000Z</time>
      </trkpt>
      <trkpt lat="42.87283" lon="1.30685">
        <ele>880</ele>
        <time>2025-09-27T14:13:29.000Z</time>
      </trkpt>
      <trkpt lat="42.8728" lon="1.30691">
        <ele>880</ele>
        <time>2025-09-27T14:13:30.000Z</time>
      </trkpt>
      <trkpt lat="42.8728" lon="1.30696">
        <ele>879</ele>
        <time>2025-09-27T14:13:31.000Z</time>
      </trkpt>
      <trkpt lat="42.87278" lon="1.30701">
        <ele>879</ele>
        <time>2025-09-27T14:13:32.000Z</time>
      </trkpt>
      <trkpt lat="42.87276" lon="1.30705">
        <ele>879</ele>
        <time>2025-09-27T14:13:33.000Z</time>
      </trkpt>
      <trkpt lat="42.87274" lon="1.3071">
        <ele>879</ele>
        <time>2025-09-27T14:13:34.000Z</time>
      </trkpt>
      <trkpt lat="42.87273" lon="1.30714">
        <ele>879</ele>
        <time>2025-09-27T14:13:35.000Z</time>
      </trkpt>
      <trkpt lat="42.87271" lon="1.30719">
        <ele>879</ele>
        <time>2025-09-27T14:13:36.000Z</time>
      </trkpt>
      <trkpt lat="42.87269" lon="1.30723">
        <ele>879</ele>
        <time>2025-09-27T14:13:37.000Z</time>
      </trkpt>
      <trkpt lat="42.87267" lon="1.30728">
        <ele>880</ele>
        <time>2025-09-27T14:13:38.000Z</time>
      </trkpt>
      <trkpt lat="42.87264" lon="1.30734">
        <ele>880</ele>
        <time>2025-09-27T14:13:39.000Z</time>
      </trkpt>
      <trkpt lat="42.8726" lon="1.30738">
        <ele>880</ele>
        <time>2025-09-27T14:13:40.000Z</time>
      </trkpt>
      <trkpt lat="42.87256" lon="1.30741">
        <ele>880</ele>
        <time>2025-09-27T14:13:41.000Z</time>
      </trkpt>
      <trkpt lat="42.8725" lon="1.30742">
        <ele>880</ele>
        <time>2025-09-27T14:13:42.000Z</time>
      </trkpt>
      <trkpt lat="42.87246" lon="1.30742">
        <ele>880</ele>
        <time>2025-09-27T14:13:43.000Z</time>
      </trkpt>
      <trkpt lat="42.8724" lon="1.30741">
        <ele>880</ele>
        <time>2025-09-27T14:13:44.000Z</time>
      </trkpt>
      <trkpt lat="42.87236" lon="1.30739">
        <ele>880</ele>
        <time>2025-09-27T14:13:45.000Z</time>
      </trkpt>
      <trkpt lat="42.87231" lon="1.30737">
        <ele>880</ele>
        <time>2025-09-27T14:13:46.000Z</time>
      </trkpt>
      <trkpt lat="42.87227" lon="1.30732">
        <ele>879</ele>
        <time>2025-09-27T14:13:47.000Z</time>
      </trkpt>
      <trkpt lat="42.87222" lon="1.30728">
        <ele>879</ele>
        <time>2025-09-27T14:13:48.000Z</time>
      </trkpt>
      <trkpt lat="42.87218" lon="1.30724">
        <ele>879</ele>
        <time>2025-09-27T14:13:49.000Z</time>
      </trkpt>
      <trkpt lat="42.87213" lon="1.30721">
        <ele>879</ele>
        <time>2025-09-27T14:13:50.000Z</time>
      </trkpt>
      <trkpt lat="42.8721" lon="1.30718">
        <ele>879</ele>
        <time>2025-09-27T14:13:51.000Z</time>
      </trkpt>
      <trkpt lat="42.87204" lon="1.30715">
        <ele>879</ele>
        <time>2025-09-27T14:13:52.000Z</time>
      </trkpt>
      <trkpt lat="42.872" lon="1.30712">
        <ele>879</ele>
        <time>2025-09-27T14:13:53.000Z</time>
      </trkpt>
      <trkpt lat="42.87196" lon="1.30711">
        <ele>878</ele>
        <time>2025-09-27T14:13:54.000Z</time>
      </trkpt>
      <trkpt lat="42.87191" lon="1.3071">
        <ele>878</ele>
        <time>2025-09-27T14:13:55.000Z</time>
      </trkpt>
      <trkpt lat="42.87186" lon="1.30709">
        <ele>877</ele>
        <time>2025-09-27T14:13:56.000Z</time>
      </trkpt>
      <trkpt lat="42.87181" lon="1.3071">
        <ele>877</ele>
        <time>2025-09-27T14:13:57.000Z</time>
      </trkpt>
      <trkpt lat="42.87176" lon="1.30711">
        <ele>877</ele>
        <time>2025-09-27T14:13:58.000Z</time>
      </trkpt>
      <trkpt lat="42.87171" lon="1.30711">
        <ele>877</ele>
        <time>2025-09-27T14:13:59.000Z</time>
      </trkpt>
      <trkpt lat="42.87166" lon="1.30711">
        <ele>877</ele>
        <time>2025-09-27T14:14:00.000Z</time>
      </trkpt>
      <trkpt lat="42.87161" lon="1.30712">
        <ele>877</ele>
        <time>2025-09-27T14:14:01.000Z</time>
      </trkpt>
      <trkpt lat="42.87155" lon="1.30714">
        <ele>877</ele>
        <time>2025-09-27T14:14:02.000Z</time>
      </trkpt>
      <trkpt lat="42.8715" lon="1.30715">
        <ele>877</ele>
        <time>2025-09-27T14:14:03.000Z</time>
      </trkpt>
      <trkpt lat="42.87145" lon="1.30716">
        <ele>877</ele>
        <time>2025-09-27T14:14:04.000Z</time>
      </trkpt>
      <trkpt lat="42.87139" lon="1.30716">
        <ele>877</ele>
        <time>2025-09-27T14:14:05.000Z</time>
      </trkpt>
      <trkpt lat="42.87135" lon="1.30717">
        <ele>877</ele>
        <time>2025-09-27T14:14:06.000Z</time>
      </trkpt>
      <trkpt lat="42.8713" lon="1.30717">
        <ele>877</ele>
        <time>2025-09-27T14:14:07.000Z</time>
      </trkpt>
      <trkpt lat="42.87125" lon="1.30717">
        <ele>877</ele>
        <time>2025-09-27T14:14:08.000Z</time>
      </trkpt>
      <trkpt lat="42.8712" lon="1.30717">
        <ele>877</ele>
        <time>2025-09-27T14:14:09.000Z</time>
      </trkpt>
      <trkpt lat="42.87115" lon="1.30717">
        <ele>877</ele>
        <time>2025-09-27T14:14:10.000Z</time>
      </trkpt>
      <trkpt lat="42.8711" lon="1.30717">
        <ele>877</ele>
        <time>2025-09-27T14:14:11.000Z</time>
      </trkpt>
      <trkpt lat="42.87105" lon="1.30717">
        <ele>877</ele>
        <time>2025-09-27T14:14:12.000Z</time>
      </trkpt>
      <trkpt lat="42.87101" lon="1.30717">
        <ele>877</ele>
        <time>2025-09-27T14:14:13.000Z</time>
      </trkpt>
      <trkpt lat="42.87096" lon="1.30716">
        <ele>878</ele>
        <time>2025-09-27T14:14:14.000Z</time>
      </trkpt>
      <trkpt lat="42.87091" lon="1.30716">
        <ele>878</ele>
        <time>2025-09-27T14:14:15.000Z</time>
      </trkpt>
      <trkpt lat="42.87087" lon="1.30715">
        <ele>879</ele>
        <time>2025-09-27T14:14:16.000Z</time>
      </trkpt>
      <trkpt lat="42.87082" lon="1.30714">
        <ele>879</ele>
        <time>2025-09-27T14:14:17.000Z</time>
      </trkpt>
      <trkpt lat="42.87078" lon="1.30713">
        <ele>879</ele>
        <time>2025-09-27T14:14:18.000Z</time>
      </trkpt>
      <trkpt lat="42.87074" lon="1.30712">
        <ele>879</ele>
        <time>2025-09-27T14:14:19.000Z</time>
      </trkpt>
      <trkpt lat="42.87069" lon="1.30711">
        <ele>879</ele>
        <time>2025-09-27T14:14:20.000Z</time>
      </trkpt>
      <trkpt lat="42.87065" lon="1.30709">
        <ele>879</ele>
        <time>2025-09-27T14:14:21.000Z</time>
      </trkpt>
      <trkpt lat="42.87061" lon="1.30708">
        <ele>879</ele>
        <time>2025-09-27T14:14:22.000Z</time>
      </trkpt>
      <trkpt lat="42.87056" lon="1.30706">
        <ele>879</ele>
        <time>2025-09-27T14:14:23.000Z</time>
      </trkpt>
      <trkpt lat="42.87052" lon="1.30704">
        <ele>879</ele>
        <time>2025-09-27T14:14:24.000Z</time>
      </trkpt>
      <trkpt lat="42.87048" lon="1.30703">
        <ele>879</ele>
        <time>2025-09-27T14:14:25.000Z</time>
      </trkpt>
      <trkpt lat="42.87043" lon="1.30702">
        <ele>878</ele>
        <time>2025-09-27T14:14:26.000Z</time>
      </trkpt>
      <trkpt lat="42.87039" lon="1.30701">
        <ele>878</ele>
        <time>2025-09-27T14:14:27.000Z</time>
      </trkpt>
      <trkpt lat="42.87034" lon="1.30699">
        <ele>878</ele>
        <time>2025-09-27T14:14:28.000Z</time>
      </trkpt>
      <trkpt lat="42.87031" lon="1.30698">
        <ele>878</ele>
        <time>2025-09-27T14:14:29.000Z</time>
      </trkpt>
      <trkpt lat="42.87027" lon="1.30698">
        <ele>878</ele>
        <time>2025-09-27T14:14:30.000Z</time>
      </trkpt>
      <trkpt lat="42.87024" lon="1.30699">
        <ele>878</ele>
        <time>2025-09-27T14:14:31.000Z</time>
      </trkpt>
      <trkpt lat="42.87022" lon="1.30702">
        <ele>878</ele>
        <time>2025-09-27T14:14:32.000Z</time>
      </trkpt>
      <trkpt lat="42.8702" lon="1.30706">
        <ele>878</ele>
        <time>2025-09-27T14:14:33.000Z</time>
      </trkpt>
      <trkpt lat="42.87019" lon="1.30711">
        <ele>878</ele>
        <time>2025-09-27T14:14:34.000Z</time>
      </trkpt>
      <trkpt lat="42.87019" lon="1.30717">
        <ele>878</ele>
        <time>2025-09-27T14:14:35.000Z</time>
      </trkpt>
      <trkpt lat="42.87019" lon="1.30723">
        <ele>878</ele>
        <time>2025-09-27T14:14:36.000Z</time>
      </trkpt>
      <trkpt lat="42.87018" lon="1.30729">
        <ele>877</ele>
        <time>2025-09-27T14:14:37.000Z</time>
      </trkpt>
      <trkpt lat="42.87017" lon="1.30735">
        <ele>877</ele>
        <time>2025-09-27T14:14:38.000Z</time>
      </trkpt>
      <trkpt lat="42.87015" lon="1.3074">
        <ele>877</ele>
        <time>2025-09-27T14:14:39.000Z</time>
      </trkpt>
      <trkpt lat="42.87011" lon="1.30746">
        <ele>877</ele>
        <time>2025-09-27T14:14:40.000Z</time>
      </trkpt>
      <trkpt lat="42.87008" lon="1.30751">
        <ele>878</ele>
        <time>2025-09-27T14:14:41.000Z</time>
      </trkpt>
      <trkpt lat="42.87004" lon="1.30757">
        <ele>877</ele>
        <time>2025-09-27T14:14:42.000Z</time>
      </trkpt>
      <trkpt lat="42.87" lon="1.30762">
        <ele>877</ele>
        <time>2025-09-27T14:14:43.000Z</time>
      </trkpt>
      <trkpt lat="42.86996" lon="1.30768">
        <ele>877</ele>
        <time>2025-09-27T14:14:44.000Z</time>
      </trkpt>
      <trkpt lat="42.86992" lon="1.30773">
        <ele>877</ele>
        <time>2025-09-27T14:14:45.000Z</time>
      </trkpt>
      <trkpt lat="42.86988" lon="1.30779">
        <ele>877</ele>
        <time>2025-09-27T14:14:46.000Z</time>
      </trkpt>
      <trkpt lat="42.86985" lon="1.30785">
        <ele>877</ele>
        <time>2025-09-27T14:14:47.000Z</time>
      </trkpt>
      <trkpt lat="42.86982" lon="1.30791">
        <ele>877</ele>
        <time>2025-09-27T14:14:48.000Z</time>
      </trkpt>
      <trkpt lat="42.86979" lon="1.30797">
        <ele>877</ele>
        <time>2025-09-27T14:14:49.000Z</time>
      </trkpt>
      <trkpt lat="42.86976" lon="1.30803">
        <ele>877</ele>
        <time>2025-09-27T14:14:50.000Z</time>
      </trkpt>
      <trkpt lat="42.86974" lon="1.3081">
        <ele>877</ele>
        <time>2025-09-27T14:14:51.000Z</time>
      </trkpt>
      <trkpt lat="42.86974" lon="1.30818">
        <ele>877</ele>
        <time>2025-09-27T14:14:52.000Z</time>
      </trkpt>
      <trkpt lat="42.86975" lon="1.30826">
        <ele>877</ele>
        <time>2025-09-27T14:14:53.000Z</time>
      </trkpt>
      <trkpt lat="42.86976" lon="1.30834">
        <ele>877</ele>
        <time>2025-09-27T14:14:54.000Z</time>
      </trkpt>
      <trkpt lat="42.86977" lon="1.30842">
        <ele>877</ele>
        <time>2025-09-27T14:14:55.000Z</time>
      </trkpt>
      <trkpt lat="42.86977" lon="1.3085">
        <ele>877</ele>
        <time>2025-09-27T14:14:56.000Z</time>
      </trkpt>
      <trkpt lat="42.86976" lon="1.30858">
        <ele>877</ele>
        <time>2025-09-27T14:14:57.000Z</time>
      </trkpt>
      <trkpt lat="42.86975" lon="1.30866">
        <ele>876</ele>
        <time>2025-09-27T14:14:58.000Z</time>
      </trkpt>
      <trkpt lat="42.86973" lon="1.30875">
        <ele>876</ele>
        <time>2025-09-27T14:14:59.000Z</time>
      </trkpt>
      <trkpt lat="42.8697" lon="1.30883">
        <ele>876</ele>
        <time>2025-09-27T14:15:00.000Z</time>
      </trkpt>
      <trkpt lat="42.86966" lon="1.30889">
        <ele>876</ele>
        <time>2025-09-27T14:15:01.000Z</time>
      </trkpt>
      <trkpt lat="42.86963" lon="1.30896">
        <ele>876</ele>
        <time>2025-09-27T14:15:02.000Z</time>
      </trkpt>
      <trkpt lat="42.86958" lon="1.30902">
        <ele>877</ele>
        <time>2025-09-27T14:15:03.000Z</time>
      </trkpt>
      <trkpt lat="42.86953" lon="1.30906">
        <ele>876</ele>
        <time>2025-09-27T14:15:04.000Z</time>
      </trkpt>
      <trkpt lat="42.86949" lon="1.30911">
        <ele>877</ele>
        <time>2025-09-27T14:15:05.000Z</time>
      </trkpt>
      <trkpt lat="42.86943" lon="1.30913">
        <ele>877</ele>
        <time>2025-09-27T14:15:06.000Z</time>
      </trkpt>
      <trkpt lat="42.86938" lon="1.30915">
        <ele>877</ele>
        <time>2025-09-27T14:15:07.000Z</time>
      </trkpt>
      <trkpt lat="42.86932" lon="1.30916">
        <ele>877</ele>
        <time>2025-09-27T14:15:08.000Z</time>
      </trkpt>
      <trkpt lat="42.86927" lon="1.30917">
        <ele>876</ele>
        <time>2025-09-27T14:15:09.000Z</time>
      </trkpt>
      <trkpt lat="42.86922" lon="1.30916">
        <ele>876</ele>
        <time>2025-09-27T14:15:10.000Z</time>
      </trkpt>
      <trkpt lat="42.86917" lon="1.30915">
        <ele>876</ele>
        <time>2025-09-27T14:15:11.000Z</time>
      </trkpt>
      <trkpt lat="42.86913" lon="1.30915">
        <ele>876</ele>
        <time>2025-09-27T14:15:12.000Z</time>
      </trkpt>
      <trkpt lat="42.8691" lon="1.30915">
        <ele>876</ele>
        <time>2025-09-27T14:15:13.000Z</time>
      </trkpt>
      <trkpt lat="42.86906" lon="1.30914">
        <ele>876</ele>
        <time>2025-09-27T14:15:14.000Z</time>
      </trkpt>
      <trkpt lat="42.86902" lon="1.30915">
        <ele>875</ele>
        <time>2025-09-27T14:15:15.000Z</time>
      </trkpt>
      <trkpt lat="42.86899" lon="1.30917">
        <ele>875</ele>
        <time>2025-09-27T14:15:16.000Z</time>
      </trkpt>
      <trkpt lat="42.86895" lon="1.30922">
        <ele>875</ele>
        <time>2025-09-27T14:15:17.000Z</time>
      </trkpt>
      <trkpt lat="42.86893" lon="1.30926">
        <ele>874</ele>
        <time>2025-09-27T14:15:18.000Z</time>
      </trkpt>
      <trkpt lat="42.86891" lon="1.30929">
        <ele>874</ele>
        <time>2025-09-27T14:15:19.000Z</time>
      </trkpt>
      <trkpt lat="42.8689" lon="1.30933">
        <ele>874</ele>
        <time>2025-09-27T14:15:20.000Z</time>
      </trkpt>
      <trkpt lat="42.86889" lon="1.30937">
        <ele>874</ele>
        <time>2025-09-27T14:15:21.000Z</time>
      </trkpt>
      <trkpt lat="42.86888" lon="1.3094">
        <ele>874</ele>
        <time>2025-09-27T14:15:22.000Z</time>
      </trkpt>
      <trkpt lat="42.86888" lon="1.30946">
        <ele>873</ele>
        <time>2025-09-27T14:15:23.000Z</time>
      </trkpt>
      <trkpt lat="42.86887" lon="1.3095">
        <ele>874</ele>
        <time>2025-09-27T14:15:24.000Z</time>
      </trkpt>
      <trkpt lat="42.86886" lon="1.30955">
        <ele>874</ele>
        <time>2025-09-27T14:15:25.000Z</time>
      </trkpt>
      <trkpt lat="42.86884" lon="1.3096">
        <ele>874</ele>
        <time>2025-09-27T14:15:26.000Z</time>
      </trkpt>
      <trkpt lat="42.86881" lon="1.30965">
        <ele>873</ele>
        <time>2025-09-27T14:15:27.000Z</time>
      </trkpt>
      <trkpt lat="42.86878" lon="1.30969">
        <ele>873</ele>
        <time>2025-09-27T14:15:28.000Z</time>
      </trkpt>
      <trkpt lat="42.86873" lon="1.30972">
        <ele>873</ele>
        <time>2025-09-27T14:15:29.000Z</time>
      </trkpt>
      <trkpt lat="42.86869" lon="1.30976">
        <ele>873</ele>
        <time>2025-09-27T14:15:30.000Z</time>
      </trkpt>
      <trkpt lat="42.86865" lon="1.30978">
        <ele>873</ele>
        <time>2025-09-27T14:15:31.000Z</time>
      </trkpt>
      <trkpt lat="42.8686" lon="1.30982">
        <ele>873</ele>
        <time>2025-09-27T14:15:32.000Z</time>
      </trkpt>
      <trkpt lat="42.86856" lon="1.30985">
        <ele>873</ele>
        <time>2025-09-27T14:15:33.000Z</time>
      </trkpt>
      <trkpt lat="42.86852" lon="1.30988">
        <ele>873</ele>
        <time>2025-09-27T14:15:34.000Z</time>
      </trkpt>
      <trkpt lat="42.86849" lon="1.30993">
        <ele>873</ele>
        <time>2025-09-27T14:15:35.000Z</time>
      </trkpt>
      <trkpt lat="42.86847" lon="1.30999">
        <ele>872</ele>
        <time>2025-09-27T14:15:36.000Z</time>
      </trkpt>
      <trkpt lat="42.86846" lon="1.31004">
        <ele>873</ele>
        <time>2025-09-27T14:15:37.000Z</time>
      </trkpt>
      <trkpt lat="42.86845" lon="1.31009">
        <ele>873</ele>
        <time>2025-09-27T14:15:38.000Z</time>
      </trkpt>
      <trkpt lat="42.86844" lon="1.31015">
        <ele>873</ele>
        <time>2025-09-27T14:15:39.000Z</time>
      </trkpt>
      <trkpt lat="42.86843" lon="1.31021">
        <ele>871</ele>
        <time>2025-09-27T14:15:40.000Z</time>
      </trkpt>
      <trkpt lat="42.8684" lon="1.31027">
        <ele>872</ele>
        <time>2025-09-27T14:15:41.000Z</time>
      </trkpt>
      <trkpt lat="42.86838" lon="1.31032">
        <ele>872</ele>
        <time>2025-09-27T14:15:42.000Z</time>
      </trkpt>
      <trkpt lat="42.86834" lon="1.31036">
        <ele>871</ele>
        <time>2025-09-27T14:15:43.000Z</time>
      </trkpt>
      <trkpt lat="42.8683" lon="1.31039">
        <ele>871</ele>
        <time>2025-09-27T14:15:44.000Z</time>
      </trkpt>
      <trkpt lat="42.86826" lon="1.31042">
        <ele>870</ele>
        <time>2025-09-27T14:15:45.000Z</time>
      </trkpt>
      <trkpt lat="42.86823" lon="1.31045">
        <ele>870</ele>
        <time>2025-09-27T14:15:46.000Z</time>
      </trkpt>
      <trkpt lat="42.86819" lon="1.31048">
        <ele>870</ele>
        <time>2025-09-27T14:15:47.000Z</time>
      </trkpt>
      <trkpt lat="42.86815" lon="1.3105">
        <ele>870</ele>
        <time>2025-09-27T14:15:48.000Z</time>
      </trkpt>
      <trkpt lat="42.86811" lon="1.31053">
        <ele>869</ele>
        <time>2025-09-27T14:15:49.000Z</time>
      </trkpt>
      <trkpt lat="42.86807" lon="1.31056">
        <ele>869</ele>
        <time>2025-09-27T14:15:50.000Z</time>
      </trkpt>
      <trkpt lat="42.86804" lon="1.31058">
        <ele>869</ele>
        <time>2025-09-27T14:15:51.000Z</time>
      </trkpt>
      <trkpt lat="42.868" lon="1.31061">
        <ele>869</ele>
        <time>2025-09-27T14:15:52.000Z</time>
      </trkpt>
      <trkpt lat="42.86797" lon="1.31064">
        <ele>869</ele>
        <time>2025-09-27T14:15:53.000Z</time>
      </trkpt>
      <trkpt lat="42.86792" lon="1.31068">
        <ele>869</ele>
        <time>2025-09-27T14:15:54.000Z</time>
      </trkpt>
      <trkpt lat="42.86789" lon="1.31072">
        <ele>869</ele>
        <time>2025-09-27T14:15:55.000Z</time>
      </trkpt>
      <trkpt lat="42.86786" lon="1.31077">
        <ele>868</ele>
        <time>2025-09-27T14:15:56.000Z</time>
      </trkpt>
      <trkpt lat="42.86785" lon="1.31082">
        <ele>868</ele>
        <time>2025-09-27T14:15:57.000Z</time>
      </trkpt>
      <trkpt lat="42.86785" lon="1.3109">
        <ele>869</ele>
        <time>2025-09-27T14:15:58.000Z</time>
      </trkpt>
      <trkpt lat="42.86787" lon="1.31096">
        <ele>869</ele>
        <time>2025-09-27T14:15:59.000Z</time>
      </trkpt>
      <trkpt lat="42.86789" lon="1.31101">
        <ele>869</ele>
        <time>2025-09-27T14:16:00.000Z</time>
      </trkpt>
      <trkpt lat="42.86793" lon="1.31105">
        <ele>869</ele>
        <time>2025-09-27T14:16:01.000Z</time>
      </trkpt>
      <trkpt lat="42.86798" lon="1.31106">
        <ele>869</ele>
        <time>2025-09-27T14:16:02.000Z</time>
      </trkpt>
      <trkpt lat="42.86803" lon="1.31106">
        <ele>869</ele>
        <time>2025-09-27T14:16:03.000Z</time>
      </trkpt>
      <trkpt lat="42.86808" lon="1.31105">
        <ele>869</ele>
        <time>2025-09-27T14:16:04.000Z</time>
      </trkpt>
      <trkpt lat="42.86813" lon="1.31104">
        <ele>868</ele>
        <time>2025-09-27T14:16:05.000Z</time>
      </trkpt>
      <trkpt lat="42.86818" lon="1.31103">
        <ele>868</ele>
        <time>2025-09-27T14:16:06.000Z</time>
      </trkpt>
      <trkpt lat="42.86824" lon="1.31104">
        <ele>868</ele>
        <time>2025-09-27T14:16:07.000Z</time>
      </trkpt>
      <trkpt lat="42.86829" lon="1.31104">
        <ele>868</ele>
        <time>2025-09-27T14:16:08.000Z</time>
      </trkpt>
      <trkpt lat="42.86835" lon="1.31103">
        <ele>868</ele>
        <time>2025-09-27T14:16:09.000Z</time>
      </trkpt>
      <trkpt lat="42.86841" lon="1.31102">
        <ele>867</ele>
        <time>2025-09-27T14:16:10.000Z</time>
      </trkpt>
      <trkpt lat="42.86847" lon="1.31102">
        <ele>867</ele>
        <time>2025-09-27T14:16:11.000Z</time>
      </trkpt>
      <trkpt lat="42.86853" lon="1.31101">
        <ele>867</ele>
        <time>2025-09-27T14:16:12.000Z</time>
      </trkpt>
      <trkpt lat="42.86858" lon="1.31101">
        <ele>867</ele>
        <time>2025-09-27T14:16:13.000Z</time>
      </trkpt>
      <trkpt lat="42.86863" lon="1.311">
        <ele>867</ele>
        <time>2025-09-27T14:16:14.000Z</time>
      </trkpt>
      <trkpt lat="42.86869" lon="1.311">
        <ele>868</ele>
        <time>2025-09-27T14:16:15.000Z</time>
      </trkpt>
      <trkpt lat="42.86875" lon="1.311">
        <ele>867</ele>
        <time>2025-09-27T14:16:16.000Z</time>
      </trkpt>
      <trkpt lat="42.8688" lon="1.311">
        <ele>868</ele>
        <time>2025-09-27T14:16:17.000Z</time>
      </trkpt>
      <trkpt lat="42.86885" lon="1.31101">
        <ele>868</ele>
        <time>2025-09-27T14:16:18.000Z</time>
      </trkpt>
      <trkpt lat="42.86891" lon="1.31102">
        <ele>868</ele>
        <time>2025-09-27T14:16:19.000Z</time>
      </trkpt>
      <trkpt lat="42.86895" lon="1.31104">
        <ele>868</ele>
        <time>2025-09-27T14:16:20.000Z</time>
      </trkpt>
      <trkpt lat="42.86902" lon="1.31105">
        <ele>867</ele>
        <time>2025-09-27T14:16:21.000Z</time>
      </trkpt>
      <trkpt lat="42.86906" lon="1.31107">
        <ele>867</ele>
        <time>2025-09-27T14:16:22.000Z</time>
      </trkpt>
      <trkpt lat="42.86912" lon="1.31106">
        <ele>867</ele>
        <time>2025-09-27T14:16:23.000Z</time>
      </trkpt>
      <trkpt lat="42.86917" lon="1.31105">
        <ele>868</ele>
        <time>2025-09-27T14:16:24.000Z</time>
      </trkpt>
      <trkpt lat="42.86923" lon="1.31105">
        <ele>868</ele>
        <time>2025-09-27T14:16:25.000Z</time>
      </trkpt>
      <trkpt lat="42.86928" lon="1.31104">
        <ele>867</ele>
        <time>2025-09-27T14:16:26.000Z</time>
      </trkpt>
      <trkpt lat="42.86934" lon="1.31102">
        <ele>867</ele>
        <time>2025-09-27T14:16:27.000Z</time>
      </trkpt>
      <trkpt lat="42.86939" lon="1.311">
        <ele>867</ele>
        <time>2025-09-27T14:16:28.000Z</time>
      </trkpt>
      <trkpt lat="42.86944" lon="1.311">
        <ele>867</ele>
        <time>2025-09-27T14:16:29.000Z</time>
      </trkpt>
      <trkpt lat="42.8695" lon="1.31099">
        <ele>868</ele>
        <time>2025-09-27T14:16:30.000Z</time>
      </trkpt>
      <trkpt lat="42.86955" lon="1.31098">
        <ele>868</ele>
        <time>2025-09-27T14:16:31.000Z</time>
      </trkpt>
      <trkpt lat="42.86961" lon="1.31097">
        <ele>868</ele>
        <time>2025-09-27T14:16:32.000Z</time>
      </trkpt>
      <trkpt lat="42.86965" lon="1.31095">
        <ele>868</ele>
        <time>2025-09-27T14:16:33.000Z</time>
      </trkpt>
      <trkpt lat="42.86969" lon="1.31092">
        <ele>868</ele>
        <time>2025-09-27T14:16:34.000Z</time>
      </trkpt>
      <trkpt lat="42.86973" lon="1.31091">
        <ele>868</ele>
        <time>2025-09-27T14:16:35.000Z</time>
      </trkpt>
      <trkpt lat="42.86977" lon="1.31088">
        <ele>868</ele>
        <time>2025-09-27T14:16:36.000Z</time>
      </trkpt>
      <trkpt lat="42.86981" lon="1.31086">
        <ele>868</ele>
        <time>2025-09-27T14:16:37.000Z</time>
      </trkpt>
      <trkpt lat="42.86985" lon="1.31085">
        <ele>868</ele>
        <time>2025-09-27T14:16:38.000Z</time>
      </trkpt>
      <trkpt lat="42.86989" lon="1.31083">
        <ele>868</ele>
        <time>2025-09-27T14:16:39.000Z</time>
      </trkpt>
      <trkpt lat="42.86993" lon="1.31081">
        <ele>868</ele>
        <time>2025-09-27T14:16:40.000Z</time>
      </trkpt>
      <trkpt lat="42.86997" lon="1.3108">
        <ele>868</ele>
        <time>2025-09-27T14:16:41.000Z</time>
      </trkpt>
      <trkpt lat="42.87001" lon="1.3108">
        <ele>869</ele>
        <time>2025-09-27T14:16:42.000Z</time>
      </trkpt>
      <trkpt lat="42.87005" lon="1.31081">
        <ele>869</ele>
        <time>2025-09-27T14:16:43.000Z</time>
      </trkpt>
      <trkpt lat="42.87009" lon="1.31081">
        <ele>869</ele>
        <time>2025-09-27T14:16:44.000Z</time>
      </trkpt>
      <trkpt lat="42.87013" lon="1.31083">
        <ele>868</ele>
        <time>2025-09-27T14:16:45.000Z</time>
      </trkpt>
      <trkpt lat="42.87017" lon="1.31085">
        <ele>868</ele>
        <time>2025-09-27T14:16:46.000Z</time>
      </trkpt>
      <trkpt lat="42.87021" lon="1.31089">
        <ele>868</ele>
        <time>2025-09-27T14:16:47.000Z</time>
      </trkpt>
      <trkpt lat="42.87024" lon="1.31092">
        <ele>868</ele>
        <time>2025-09-27T14:16:48.000Z</time>
      </trkpt>
      <trkpt lat="42.87027" lon="1.31097">
        <ele>868</ele>
        <time>2025-09-27T14:16:49.000Z</time>
      </trkpt>
      <trkpt lat="42.87031" lon="1.31101">
        <ele>868</ele>
        <time>2025-09-27T14:16:50.000Z</time>
      </trkpt>
      <trkpt lat="42.87034" lon="1.31106">
        <ele>867</ele>
        <time>2025-09-27T14:16:51.000Z</time>
      </trkpt>
      <trkpt lat="42.87037" lon="1.31112">
        <ele>866</ele>
        <time>2025-09-27T14:16:52.000Z</time>
      </trkpt>
      <trkpt lat="42.87039" lon="1.31118">
        <ele>866</ele>
        <time>2025-09-27T14:16:53.000Z</time>
      </trkpt>
      <trkpt lat="42.87042" lon="1.31123">
        <ele>866</ele>
        <time>2025-09-27T14:16:54.000Z</time>
      </trkpt>
      <trkpt lat="42.87046" lon="1.31128">
        <ele>866</ele>
        <time>2025-09-27T14:16:55.000Z</time>
      </trkpt>
      <trkpt lat="42.87049" lon="1.31132">
        <ele>865</ele>
        <time>2025-09-27T14:16:56.000Z</time>
      </trkpt>
      <trkpt lat="42.87053" lon="1.31134">
        <ele>865</ele>
        <time>2025-09-27T14:16:57.000Z</time>
      </trkpt>
      <trkpt lat="42.87059" lon="1.31135">
        <ele>865</ele>
        <time>2025-09-27T14:16:58.000Z</time>
      </trkpt>
      <trkpt lat="42.87065" lon="1.31134">
        <ele>865</ele>
        <time>2025-09-27T14:16:59.000Z</time>
      </trkpt>
      <trkpt lat="42.87072" lon="1.31133">
        <ele>865</ele>
        <time>2025-09-27T14:17:00.000Z</time>
      </trkpt>
      <trkpt lat="42.87076" lon="1.31133">
        <ele>865</ele>
        <time>2025-09-27T14:17:01.000Z</time>
      </trkpt>
      <trkpt lat="42.8708" lon="1.31131">
        <ele>865</ele>
        <time>2025-09-27T14:17:02.000Z</time>
      </trkpt>
      <trkpt lat="42.87085" lon="1.31129">
        <ele>864</ele>
        <time>2025-09-27T14:17:03.000Z</time>
      </trkpt>
      <trkpt lat="42.87088" lon="1.31126">
        <ele>864</ele>
        <time>2025-09-27T14:17:04.000Z</time>
      </trkpt>
      <trkpt lat="42.87092" lon="1.31124">
        <ele>864</ele>
        <time>2025-09-27T14:17:05.000Z</time>
      </trkpt>
      <trkpt lat="42.87096" lon="1.31122">
        <ele>865</ele>
        <time>2025-09-27T14:17:06.000Z</time>
      </trkpt>
      <trkpt lat="42.87101" lon="1.31122">
        <ele>863</ele>
        <time>2025-09-27T14:17:07.000Z</time>
      </trkpt>
      <trkpt lat="42.87105" lon="1.31124">
        <ele>862</ele>
        <time>2025-09-27T14:17:08.000Z</time>
      </trkpt>
      <trkpt lat="42.87109" lon="1.31126">
        <ele>862</ele>
        <time>2025-09-27T14:17:09.000Z</time>
      </trkpt>
      <trkpt lat="42.87114" lon="1.31129">
        <ele>862</ele>
        <time>2025-09-27T14:17:10.000Z</time>
      </trkpt>
      <trkpt lat="42.8712" lon="1.31136">
        <ele>863</ele>
        <time>2025-09-27T14:17:11.000Z</time>
      </trkpt>
      <trkpt lat="42.87125" lon="1.31141">
        <ele>864</ele>
        <time>2025-09-27T14:17:12.000Z</time>
      </trkpt>
      <trkpt lat="42.87129" lon="1.31145">
        <ele>865</ele>
        <time>2025-09-27T14:17:13.000Z</time>
      </trkpt>
      <trkpt lat="42.87133" lon="1.31149">
        <ele>866</ele>
        <time>2025-09-27T14:17:14.000Z</time>
      </trkpt>
      <trkpt lat="42.87137" lon="1.31154">
        <ele>867</ele>
        <time>2025-09-27T14:17:15.000Z</time>
      </trkpt>
      <trkpt lat="42.87139" lon="1.31158">
        <ele>866</ele>
        <time>2025-09-27T14:17:16.000Z</time>
      </trkpt>
      <trkpt lat="42.87141" lon="1.31163">
        <ele>865</ele>
        <time>2025-09-27T14:17:17.000Z</time>
      </trkpt>
      <trkpt lat="42.87143" lon="1.31169">
        <ele>865</ele>
        <time>2025-09-27T14:17:18.000Z</time>
      </trkpt>
      <trkpt lat="42.87144" lon="1.31174">
        <ele>865</ele>
        <time>2025-09-27T14:17:19.000Z</time>
      </trkpt>
      <trkpt lat="42.87145" lon="1.3118">
        <ele>864</ele>
        <time>2025-09-27T14:17:20.000Z</time>
      </trkpt>
      <trkpt lat="42.87147" lon="1.31188">
        <ele>864</ele>
        <time>2025-09-27T14:17:21.000Z</time>
      </trkpt>
      <trkpt lat="42.87147" lon="1.31196">
        <ele>864</ele>
        <time>2025-09-27T14:17:22.000Z</time>
      </trkpt>
      <trkpt lat="42.8715" lon="1.31203">
        <ele>863</ele>
        <time>2025-09-27T14:17:23.000Z</time>
      </trkpt>
      <trkpt lat="42.87153" lon="1.31207">
        <ele>862</ele>
        <time>2025-09-27T14:17:24.000Z</time>
      </trkpt>
      <trkpt lat="42.87158" lon="1.3121">
        <ele>862</ele>
        <time>2025-09-27T14:17:25.000Z</time>
      </trkpt>
      <trkpt lat="42.87163" lon="1.3121">
        <ele>862</ele>
        <time>2025-09-27T14:17:26.000Z</time>
      </trkpt>
      <trkpt lat="42.87168" lon="1.31206">
        <ele>863</ele>
        <time>2025-09-27T14:17:27.000Z</time>
      </trkpt>
      <trkpt lat="42.87173" lon="1.31202">
        <ele>863</ele>
        <time>2025-09-27T14:17:28.000Z</time>
      </trkpt>
      <trkpt lat="42.87176" lon="1.31195">
        <ele>863</ele>
        <time>2025-09-27T14:17:29.000Z</time>
      </trkpt>
      <trkpt lat="42.87179" lon="1.31187">
        <ele>863</ele>
        <time>2025-09-27T14:17:30.000Z</time>
      </trkpt>
      <trkpt lat="42.87181" lon="1.3118">
        <ele>862</ele>
        <time>2025-09-27T14:17:31.000Z</time>
      </trkpt>
      <trkpt lat="42.87185" lon="1.31173">
        <ele>863</ele>
        <time>2025-09-27T14:17:32.000Z</time>
      </trkpt>
      <trkpt lat="42.87188" lon="1.31166">
        <ele>863</ele>
        <time>2025-09-27T14:17:33.000Z</time>
      </trkpt>
      <trkpt lat="42.8719" lon="1.31159">
        <ele>862</ele>
        <time>2025-09-27T14:17:34.000Z</time>
      </trkpt>
      <trkpt lat="42.87193" lon="1.31151">
        <ele>862</ele>
        <time>2025-09-27T14:17:35.000Z</time>
      </trkpt>
      <trkpt lat="42.87195" lon="1.31144">
        <ele>861</ele>
        <time>2025-09-27T14:17:36.000Z</time>
      </trkpt>
      <trkpt lat="42.87196" lon="1.31135">
        <ele>861</ele>
        <time>2025-09-27T14:17:37.000Z</time>
      </trkpt>
      <trkpt lat="42.87196" lon="1.31126">
        <ele>861</ele>
        <time>2025-09-27T14:17:38.000Z</time>
      </trkpt>
      <trkpt lat="42.87196" lon="1.31116">
        <ele>862</ele>
        <time>2025-09-27T14:17:39.000Z</time>
      </trkpt>
      <trkpt lat="42.87197" lon="1.31107">
        <ele>862</ele>
        <time>2025-09-27T14:17:40.000Z</time>
      </trkpt>
      <trkpt lat="42.87197" lon="1.31098">
        <ele>862</ele>
        <time>2025-09-27T14:17:41.000Z</time>
      </trkpt>
      <trkpt lat="42.87197" lon="1.3109">
        <ele>860</ele>
        <time>2025-09-27T14:17:42.000Z</time>
      </trkpt>
      <trkpt lat="42.87198" lon="1.31081">
        <ele>860</ele>
        <time>2025-09-27T14:17:43.000Z</time>
      </trkpt>
      <trkpt lat="42.87199" lon="1.31073">
        <ele>860</ele>
        <time>2025-09-27T14:17:44.000Z</time>
      </trkpt>
      <trkpt lat="42.872" lon="1.31067">
        <ele>860</ele>
        <time>2025-09-27T14:17:45.000Z</time>
      </trkpt>
      <trkpt lat="42.87201" lon="1.31062">
        <ele>860</ele>
        <time>2025-09-27T14:17:46.000Z</time>
      </trkpt>
      <trkpt lat="42.87204" lon="1.31058">
        <ele>860</ele>
        <time>2025-09-27T14:17:47.000Z</time>
      </trkpt>
      <trkpt lat="42.87208" lon="1.31057">
        <ele>859</ele>
        <time>2025-09-27T14:17:48.000Z</time>
      </trkpt>
      <trkpt lat="42.87213" lon="1.31057">
        <ele>859</ele>
        <time>2025-09-27T14:17:49.000Z</time>
      </trkpt>
      <trkpt lat="42.87218" lon="1.31059">
        <ele>859</ele>
        <time>2025-09-27T14:17:50.000Z</time>
      </trkpt>
      <trkpt lat="42.87222" lon="1.31063">
        <ele>858</ele>
        <time>2025-09-27T14:17:51.000Z</time>
      </trkpt>
      <trkpt lat="42.87227" lon="1.31069">
        <ele>858</ele>
        <time>2025-09-27T14:17:52.000Z</time>
      </trkpt>
      <trkpt lat="42.87233" lon="1.31074">
        <ele>857</ele>
        <time>2025-09-27T14:17:53.000Z</time>
      </trkpt>
      <trkpt lat="42.87237" lon="1.31078">
        <ele>858</ele>
        <time>2025-09-27T14:17:54.000Z</time>
      </trkpt>
      <trkpt lat="42.87243" lon="1.31081">
        <ele>858</ele>
        <time>2025-09-27T14:17:55.000Z</time>
      </trkpt>
      <trkpt lat="42.87248" lon="1.31084">
        <ele>857</ele>
        <time>2025-09-27T14:17:56.000Z</time>
      </trkpt>
      <trkpt lat="42.87253" lon="1.31086">
        <ele>856</ele>
        <time>2025-09-27T14:17:57.000Z</time>
      </trkpt>
      <trkpt lat="42.87257" lon="1.31091">
        <ele>856</ele>
        <time>2025-09-27T14:17:58.000Z</time>
      </trkpt>
      <trkpt lat="42.87263" lon="1.31097">
        <ele>855</ele>
        <time>2025-09-27T14:17:59.000Z</time>
      </trkpt>
      <trkpt lat="42.87269" lon="1.31106">
        <ele>854</ele>
        <time>2025-09-27T14:18:00.000Z</time>
      </trkpt>
      <trkpt lat="42.87274" lon="1.31115">
        <ele>854</ele>
        <time>2025-09-27T14:18:01.000Z</time>
      </trkpt>
      <trkpt lat="42.8728" lon="1.31125">
        <ele>854</ele>
        <time>2025-09-27T14:18:02.000Z</time>
      </trkpt>
      <trkpt lat="42.87287" lon="1.31134">
        <ele>853</ele>
        <time>2025-09-27T14:18:03.000Z</time>
      </trkpt>
      <trkpt lat="42.87293" lon="1.31142">
        <ele>853</ele>
        <time>2025-09-27T14:18:04.000Z</time>
      </trkpt>
      <trkpt lat="42.87298" lon="1.31153">
        <ele>852</ele>
        <time>2025-09-27T14:18:05.000Z</time>
      </trkpt>
      <trkpt lat="42.87303" lon="1.31163">
        <ele>852</ele>
        <time>2025-09-27T14:18:06.000Z</time>
      </trkpt>
      <trkpt lat="42.87307" lon="1.31173">
        <ele>851</ele>
        <time>2025-09-27T14:18:07.000Z</time>
      </trkpt>
      <trkpt lat="42.87309" lon="1.31185">
        <ele>851</ele>
        <time>2025-09-27T14:18:08.000Z</time>
      </trkpt>
      <trkpt lat="42.87312" lon="1.31197">
        <ele>851</ele>
        <time>2025-09-27T14:18:09.000Z</time>
      </trkpt>
      <trkpt lat="42.87313" lon="1.3121">
        <ele>850</ele>
        <time>2025-09-27T14:18:10.000Z</time>
      </trkpt>
      <trkpt lat="42.87316" lon="1.31222">
        <ele>849</ele>
        <time>2025-09-27T14:18:11.000Z</time>
      </trkpt>
      <trkpt lat="42.87319" lon="1.31235">
        <ele>848</ele>
        <time>2025-09-27T14:18:12.000Z</time>
      </trkpt>
      <trkpt lat="42.87323" lon="1.31247">
        <ele>848</ele>
        <time>2025-09-27T14:18:13.000Z</time>
      </trkpt>
      <trkpt lat="42.87328" lon="1.31258">
        <ele>847</ele>
        <time>2025-09-27T14:18:14.000Z</time>
      </trkpt>
      <trkpt lat="42.87333" lon="1.31269">
        <ele>846</ele>
        <time>2025-09-27T14:18:15.000Z</time>
      </trkpt>
      <trkpt lat="42.87341" lon="1.31278">
        <ele>846</ele>
        <time>2025-09-27T14:18:16.000Z</time>
      </trkpt>
      <trkpt lat="42.87351" lon="1.31283">
        <ele>846</ele>
        <time>2025-09-27T14:18:17.000Z</time>
      </trkpt>
      <trkpt lat="42.87361" lon="1.31285">
        <ele>845</ele>
        <time>2025-09-27T14:18:18.000Z</time>
      </trkpt>
      <trkpt lat="42.87371" lon="1.31286">
        <ele>845</ele>
        <time>2025-09-27T14:18:19.000Z</time>
      </trkpt>
      <trkpt lat="42.8738" lon="1.31289">
        <ele>846</ele>
        <time>2025-09-27T14:18:20.000Z</time>
      </trkpt>
      <trkpt lat="42.87389" lon="1.31296">
        <ele>846</ele>
        <time>2025-09-27T14:18:21.000Z</time>
      </trkpt>
      <trkpt lat="42.87396" lon="1.31304">
        <ele>845</ele>
        <time>2025-09-27T14:18:22.000Z</time>
      </trkpt>
      <trkpt lat="42.87403" lon="1.31313">
        <ele>844</ele>
        <time>2025-09-27T14:18:23.000Z</time>
      </trkpt>
      <trkpt lat="42.87407" lon="1.31322">
        <ele>844</ele>
        <time>2025-09-27T14:18:24.000Z</time>
      </trkpt>
      <trkpt lat="42.87411" lon="1.3133">
        <ele>844</ele>
        <time>2025-09-27T14:18:25.000Z</time>
      </trkpt>
      <trkpt lat="42.87415" lon="1.31339">
        <ele>844</ele>
        <time>2025-09-27T14:18:26.000Z</time>
      </trkpt>
      <trkpt lat="42.87421" lon="1.31345">
        <ele>843</ele>
        <time>2025-09-27T14:18:27.000Z</time>
      </trkpt>
      <trkpt lat="42.87427" lon="1.31349">
        <ele>843</ele>
        <time>2025-09-27T14:18:28.000Z</time>
      </trkpt>
      <trkpt lat="42.87433" lon="1.31351">
        <ele>844</ele>
        <time>2025-09-27T14:18:29.000Z</time>
      </trkpt>
      <trkpt lat="42.87439" lon="1.31352">
        <ele>844</ele>
        <time>2025-09-27T14:18:30.000Z</time>
      </trkpt>
      <trkpt lat="42.87445" lon="1.31352">
        <ele>844</ele>
        <time>2025-09-27T14:18:31.000Z</time>
      </trkpt>
      <trkpt lat="42.87451" lon="1.3135">
        <ele>844</ele>
        <time>2025-09-27T14:18:32.000Z</time>
      </trkpt>
      <trkpt lat="42.87456" lon="1.31346">
        <ele>844</ele>
        <time>2025-09-27T14:18:33.000Z</time>
      </trkpt>
      <trkpt lat="42.87462" lon="1.31341">
        <ele>844</ele>
        <time>2025-09-27T14:18:34.000Z</time>
      </trkpt>
      <trkpt lat="42.87466" lon="1.31335">
        <ele>844</ele>
        <time>2025-09-27T14:18:35.000Z</time>
      </trkpt>
      <trkpt lat="42.87469" lon="1.31329">
        <ele>843</ele>
        <time>2025-09-27T14:18:36.000Z</time>
      </trkpt>
      <trkpt lat="42.87471" lon="1.31323">
        <ele>842</ele>
        <time>2025-09-27T14:18:37.000Z</time>
      </trkpt>
      <trkpt lat="42.87474" lon="1.31315">
        <ele>841</ele>
        <time>2025-09-27T14:18:38.000Z</time>
      </trkpt>
      <trkpt lat="42.87476" lon="1.31306">
        <ele>841</ele>
        <time>2025-09-27T14:18:39.000Z</time>
      </trkpt>
      <trkpt lat="42.87477" lon="1.31298">
        <ele>841</ele>
        <time>2025-09-27T14:18:40.000Z</time>
      </trkpt>
      <trkpt lat="42.87479" lon="1.31291">
        <ele>841</ele>
        <time>2025-09-27T14:18:41.000Z</time>
      </trkpt>
      <trkpt lat="42.87481" lon="1.31283">
        <ele>840</ele>
        <time>2025-09-27T14:18:42.000Z</time>
      </trkpt>
      <trkpt lat="42.87483" lon="1.31277">
        <ele>841</ele>
        <time>2025-09-27T14:18:43.000Z</time>
      </trkpt>
      <trkpt lat="42.87487" lon="1.31271">
        <ele>841</ele>
        <time>2025-09-27T14:18:44.000Z</time>
      </trkpt>
      <trkpt lat="42.87491" lon="1.31266">
        <ele>841</ele>
        <time>2025-09-27T14:18:45.000Z</time>
      </trkpt>
      <trkpt lat="42.87496" lon="1.3126">
        <ele>842</ele>
        <time>2025-09-27T14:18:46.000Z</time>
      </trkpt>
      <trkpt lat="42.875" lon="1.31257">
        <ele>842</ele>
        <time>2025-09-27T14:18:47.000Z</time>
      </trkpt>
      <trkpt lat="42.87505" lon="1.31254">
        <ele>842</ele>
        <time>2025-09-27T14:18:48.000Z</time>
      </trkpt>
      <trkpt lat="42.87509" lon="1.3125">
        <ele>841</ele>
        <time>2025-09-27T14:18:49.000Z</time>
      </trkpt>
      <trkpt lat="42.87514" lon="1.31247">
        <ele>842</ele>
        <time>2025-09-27T14:18:50.000Z</time>
      </trkpt>
      <trkpt lat="42.87519" lon="1.31245">
        <ele>841</ele>
        <time>2025-09-27T14:18:51.000Z</time>
      </trkpt>
      <trkpt lat="42.87523" lon="1.31244">
        <ele>842</ele>
        <time>2025-09-27T14:18:52.000Z</time>
      </trkpt>
      <trkpt lat="42.87527" lon="1.31242">
        <ele>842</ele>
        <time>2025-09-27T14:18:53.000Z</time>
      </trkpt>
      <trkpt lat="42.8753" lon="1.31239">
        <ele>843</ele>
        <time>2025-09-27T14:18:54.000Z</time>
      </trkpt>
      <trkpt lat="42.87534" lon="1.31238">
        <ele>843</ele>
        <time>2025-09-27T14:18:55.000Z</time>
      </trkpt>
      <trkpt lat="42.87538" lon="1.31236">
        <ele>843</ele>
        <time>2025-09-27T14:18:56.000Z</time>
      </trkpt>
      <trkpt lat="42.8754" lon="1.31234">
        <ele>844</ele>
        <time>2025-09-27T14:18:57.000Z</time>
      </trkpt>
      <trkpt lat="42.87543" lon="1.31233">
        <ele>844</ele>
        <time>2025-09-27T14:18:58.000Z</time>
      </trkpt>
      <trkpt lat="42.87546" lon="1.31231">
        <ele>844</ele>
        <time>2025-09-27T14:18:59.000Z</time>
      </trkpt>
      <trkpt lat="42.87549" lon="1.3123">
        <ele>845</ele>
        <time>2025-09-27T14:19:00.000Z</time>
      </trkpt>
      <trkpt lat="42.87552" lon="1.31228">
        <ele>845</ele>
        <time>2025-09-27T14:19:01.000Z</time>
      </trkpt>
      <trkpt lat="42.87555" lon="1.31228">
        <ele>845</ele>
        <time>2025-09-27T14:19:02.000Z</time>
      </trkpt>
      <trkpt lat="42.87559" lon="1.31228">
        <ele>845</ele>
        <time>2025-09-27T14:19:03.000Z</time>
      </trkpt>
      <trkpt lat="42.87562" lon="1.31229">
        <ele>845</ele>
        <time>2025-09-27T14:19:04.000Z</time>
      </trkpt>
      <trkpt lat="42.87565" lon="1.31232">
        <ele>845</ele>
        <time>2025-09-27T14:19:05.000Z</time>
      </trkpt>
      <trkpt lat="42.87568" lon="1.31234">
        <ele>845</ele>
        <time>2025-09-27T14:19:06.000Z</time>
      </trkpt>
      <trkpt lat="42.87571" lon="1.31237">
        <ele>845</ele>
        <time>2025-09-27T14:19:07.000Z</time>
      </trkpt>
      <trkpt lat="42.87574" lon="1.3124">
        <ele>844</ele>
        <time>2025-09-27T14:19:08.000Z</time>
      </trkpt>
      <trkpt lat="42.87577" lon="1.31244">
        <ele>844</ele>
        <time>2025-09-27T14:19:09.000Z</time>
      </trkpt>
      <trkpt lat="42.87581" lon="1.31248">
        <ele>844</ele>
        <time>2025-09-27T14:19:10.000Z</time>
      </trkpt>
      <trkpt lat="42.87583" lon="1.31252">
        <ele>844</ele>
        <time>2025-09-27T14:19:11.000Z</time>
      </trkpt>
      <trkpt lat="42.87585" lon="1.31255">
        <ele>844</ele>
        <time>2025-09-27T14:19:12.000Z</time>
      </trkpt>
      <trkpt lat="42.87587" lon="1.31259">
        <ele>843</ele>
        <time>2025-09-27T14:19:13.000Z</time>
      </trkpt>
      <trkpt lat="42.87589" lon="1.31262">
        <ele>843</ele>
        <time>2025-09-27T14:19:14.000Z</time>
      </trkpt>
      <trkpt lat="42.87591" lon="1.31266">
        <ele>843</ele>
        <time>2025-09-27T14:19:15.000Z</time>
      </trkpt>
      <trkpt lat="42.87594" lon="1.31271">
        <ele>842</ele>
        <time>2025-09-27T14:19:16.000Z</time>
      </trkpt>
      <trkpt lat="42.87596" lon="1.31275">
        <ele>842</ele>
        <time>2025-09-27T14:19:17.000Z</time>
      </trkpt>
      <trkpt lat="42.87599" lon="1.31279">
        <ele>842</ele>
        <time>2025-09-27T14:19:18.000Z</time>
      </trkpt>
      <trkpt lat="42.87602" lon="1.31282">
        <ele>843</ele>
        <time>2025-09-27T14:19:19.000Z</time>
      </trkpt>
      <trkpt lat="42.87605" lon="1.31284">
        <ele>843</ele>
        <time>2025-09-27T14:19:20.000Z</time>
      </trkpt>
      <trkpt lat="42.87608" lon="1.31287">
        <ele>843</ele>
        <time>2025-09-27T14:19:21.000Z</time>
      </trkpt>
      <trkpt lat="42.87611" lon="1.3129">
        <ele>844</ele>
        <time>2025-09-27T14:19:22.000Z</time>
      </trkpt>
      <trkpt lat="42.87614" lon="1.31292">
        <ele>844</ele>
        <time>2025-09-27T14:19:23.000Z</time>
      </trkpt>
      <trkpt lat="42.87617" lon="1.31294">
        <ele>845</ele>
        <time>2025-09-27T14:19:24.000Z</time>
      </trkpt>
      <trkpt lat="42.8762" lon="1.31295">
        <ele>845</ele>
        <time>2025-09-27T14:19:25.000Z</time>
      </trkpt>
      <trkpt lat="42.87623" lon="1.31295">
        <ele>845</ele>
        <time>2025-09-27T14:19:26.000Z</time>
      </trkpt>
      <trkpt lat="42.87626" lon="1.31296">
        <ele>845</ele>
        <time>2025-09-27T14:19:27.000Z</time>
      </trkpt>
      <trkpt lat="42.87628" lon="1.31297">
        <ele>845</ele>
        <time>2025-09-27T14:19:28.000Z</time>
      </trkpt>
      <trkpt lat="42.87629" lon="1.31298">
        <ele>845</ele>
        <time>2025-09-27T14:19:29.000Z</time>
      </trkpt>
      <trkpt lat="42.8763" lon="1.31298">
        <ele>845</ele>
        <time>2025-09-27T14:19:30.000Z</time>
      </trkpt>
      <trkpt lat="42.87631" lon="1.31298">
        <ele>845</ele>
        <time>2025-09-27T14:19:31.000Z</time>
      </trkpt>
      <trkpt lat="42.87633" lon="1.31298">
        <ele>846</ele>
        <time>2025-09-27T14:19:32.000Z</time>
      </trkpt>
      <trkpt lat="42.87635" lon="1.31299">
        <ele>846</ele>
        <time>2025-09-27T14:19:33.000Z</time>
      </trkpt>
      <trkpt lat="42.87638" lon="1.313">
        <ele>846</ele>
        <time>2025-09-27T14:19:34.000Z</time>
      </trkpt>
      <trkpt lat="42.8764" lon="1.31301">
        <ele>846</ele>
        <time>2025-09-27T14:19:35.000Z</time>
      </trkpt>
      <trkpt lat="42.87643" lon="1.31303">
        <ele>846</ele>
        <time>2025-09-27T14:19:36.000Z</time>
      </trkpt>
      <trkpt lat="42.87646" lon="1.31306">
        <ele>846</ele>
        <time>2025-09-27T14:19:37.000Z</time>
      </trkpt>
      <trkpt lat="42.87649" lon="1.31309">
        <ele>846</ele>
        <time>2025-09-27T14:19:38.000Z</time>
      </trkpt>
      <trkpt lat="42.87652" lon="1.31313">
        <ele>846</ele>
        <time>2025-09-27T14:19:39.000Z</time>
      </trkpt>
      <trkpt lat="42.87654" lon="1.31316">
        <ele>846</ele>
        <time>2025-09-27T14:19:40.000Z</time>
      </trkpt>
      <trkpt lat="42.87657" lon="1.31318">
        <ele>847</ele>
        <time>2025-09-27T14:19:41.000Z</time>
      </trkpt>
      <trkpt lat="42.87661" lon="1.31321">
        <ele>846</ele>
        <time>2025-09-27T14:19:42.000Z</time>
      </trkpt>
      <trkpt lat="42.87665" lon="1.31323">
        <ele>847</ele>
        <time>2025-09-27T14:19:43.000Z</time>
      </trkpt>
      <trkpt lat="42.87669" lon="1.31325">
        <ele>847</ele>
        <time>2025-09-27T14:19:44.000Z</time>
      </trkpt>
      <trkpt lat="42.87673" lon="1.31325">
        <ele>847</ele>
        <time>2025-09-27T14:19:45.000Z</time>
      </trkpt>
      <trkpt lat="42.87677" lon="1.31325">
        <ele>847</ele>
        <time>2025-09-27T14:19:46.000Z</time>
      </trkpt>
      <trkpt lat="42.87681" lon="1.31325">
        <ele>848</ele>
        <time>2025-09-27T14:19:47.000Z</time>
      </trkpt>
      <trkpt lat="42.87685" lon="1.31324">
        <ele>848</ele>
        <time>2025-09-27T14:19:48.000Z</time>
      </trkpt>
      <trkpt lat="42.87689" lon="1.31323">
        <ele>848</ele>
        <time>2025-09-27T14:19:49.000Z</time>
      </trkpt>
      <trkpt lat="42.87693" lon="1.31322">
        <ele>848</ele>
        <time>2025-09-27T14:19:50.000Z</time>
      </trkpt>
      <trkpt lat="42.87696" lon="1.31321">
        <ele>849</ele>
        <time>2025-09-27T14:19:51.000Z</time>
      </trkpt>
      <trkpt lat="42.877" lon="1.3132">
        <ele>850</ele>
        <time>2025-09-27T14:19:52.000Z</time>
      </trkpt>
      <trkpt lat="42.87703" lon="1.31318">
        <ele>850</ele>
        <time>2025-09-27T14:19:53.000Z</time>
      </trkpt>
      <trkpt lat="42.87707" lon="1.31317">
        <ele>850</ele>
        <time>2025-09-27T14:19:54.000Z</time>
      </trkpt>
      <trkpt lat="42.87711" lon="1.31315">
        <ele>851</ele>
        <time>2025-09-27T14:19:55.000Z</time>
      </trkpt>
      <trkpt lat="42.87714" lon="1.31313">
        <ele>851</ele>
        <time>2025-09-27T14:19:56.000Z</time>
      </trkpt>
      <trkpt lat="42.87718" lon="1.31311">
        <ele>851</ele>
        <time>2025-09-27T14:19:57.000Z</time>
      </trkpt>
      <trkpt lat="42.87722" lon="1.3131">
        <ele>851</ele>
        <time>2025-09-27T14:19:58.000Z</time>
      </trkpt>
      <trkpt lat="42.87725" lon="1.31308">
        <ele>851</ele>
        <time>2025-09-27T14:19:59.000Z</time>
      </trkpt>
      <trkpt lat="42.87729" lon="1.31306">
        <ele>852</ele>
        <time>2025-09-27T14:20:00.000Z</time>
      </trkpt>
      <trkpt lat="42.87732" lon="1.31304">
        <ele>852</ele>
        <time>2025-09-27T14:20:01.000Z</time>
      </trkpt>
      <trkpt lat="42.87735" lon="1.31302">
        <ele>852</ele>
        <time>2025-09-27T14:20:02.000Z</time>
      </trkpt>
      <trkpt lat="42.87739" lon="1.313">
        <ele>852</ele>
        <time>2025-09-27T14:20:03.000Z</time>
      </trkpt>
      <trkpt lat="42.87743" lon="1.31299">
        <ele>852</ele>
        <time>2025-09-27T14:20:04.000Z</time>
      </trkpt>
      <trkpt lat="42.87745" lon="1.31298">
        <ele>852</ele>
        <time>2025-09-27T14:20:05.000Z</time>
      </trkpt>
      <trkpt lat="42.87748" lon="1.31298">
        <ele>852</ele>
        <time>2025-09-27T14:20:06.000Z</time>
      </trkpt>
      <trkpt lat="42.8775" lon="1.31297">
        <ele>852</ele>
        <time>2025-09-27T14:20:07.000Z</time>
      </trkpt>
      <trkpt lat="42.87753" lon="1.31297">
        <ele>852</ele>
        <time>2025-09-27T14:20:08.000Z</time>
      </trkpt>
      <trkpt lat="42.87755" lon="1.31296">
        <ele>852</ele>
        <time>2025-09-27T14:20:09.000Z</time>
      </trkpt>
      <trkpt lat="42.87757" lon="1.31296">
        <ele>852</ele>
        <time>2025-09-27T14:20:10.000Z</time>
      </trkpt>
      <trkpt lat="42.87759" lon="1.31297">
        <ele>852</ele>
        <time>2025-09-27T14:20:11.000Z</time>
      </trkpt>
      <trkpt lat="42.87762" lon="1.31297">
        <ele>852</ele>
        <time>2025-09-27T14:20:12.000Z</time>
      </trkpt>
      <trkpt lat="42.87764" lon="1.31298">
        <ele>852</ele>
        <time>2025-09-27T14:20:13.000Z</time>
      </trkpt>
      <trkpt lat="42.87766" lon="1.31298">
        <ele>852</ele>
        <time>2025-09-27T14:20:14.000Z</time>
      </trkpt>
      <trkpt lat="42.87768" lon="1.313">
        <ele>852</ele>
        <time>2025-09-27T14:20:15.000Z</time>
      </trkpt>
      <trkpt lat="42.87771" lon="1.313">
        <ele>852</ele>
        <time>2025-09-27T14:20:16.000Z</time>
      </trkpt>
      <trkpt lat="42.87773" lon="1.31301">
        <ele>851</ele>
        <time>2025-09-27T14:20:17.000Z</time>
      </trkpt>
      <trkpt lat="42.87776" lon="1.31302">
        <ele>851</ele>
        <time>2025-09-27T14:20:18.000Z</time>
      </trkpt>
      <trkpt lat="42.87778" lon="1.31304">
        <ele>851</ele>
        <time>2025-09-27T14:20:19.000Z</time>
      </trkpt>
      <trkpt lat="42.87781" lon="1.31306">
        <ele>851</ele>
        <time>2025-09-27T14:20:20.000Z</time>
      </trkpt>
      <trkpt lat="42.87784" lon="1.31308">
        <ele>851</ele>
        <time>2025-09-27T14:20:21.000Z</time>
      </trkpt>
      <trkpt lat="42.87786" lon="1.3131">
        <ele>851</ele>
        <time>2025-09-27T14:20:22.000Z</time>
      </trkpt>
      <trkpt lat="42.87789" lon="1.31312">
        <ele>851</ele>
        <time>2025-09-27T14:20:23.000Z</time>
      </trkpt>
      <trkpt lat="42.8779" lon="1.31314">
        <ele>851</ele>
        <time>2025-09-27T14:20:24.000Z</time>
      </trkpt>
      <trkpt lat="42.87792" lon="1.31317">
        <ele>851</ele>
        <time>2025-09-27T14:20:25.000Z</time>
      </trkpt>
      <trkpt lat="42.87795" lon="1.3132">
        <ele>850</ele>
        <time>2025-09-27T14:20:26.000Z</time>
      </trkpt>
      <trkpt lat="42.87797" lon="1.31324">
        <ele>850</ele>
        <time>2025-09-27T14:20:27.000Z</time>
      </trkpt>
      <trkpt lat="42.87798" lon="1.31328">
        <ele>849</ele>
        <time>2025-09-27T14:20:28.000Z</time>
      </trkpt>
      <trkpt lat="42.87799" lon="1.31332">
        <ele>849</ele>
        <time>2025-09-27T14:20:29.000Z</time>
      </trkpt>
      <trkpt lat="42.87801" lon="1.31336">
        <ele>849</ele>
        <time>2025-09-27T14:20:30.000Z</time>
      </trkpt>
      <trkpt lat="42.87802" lon="1.31341">
        <ele>849</ele>
        <time>2025-09-27T14:20:31.000Z</time>
      </trkpt>
      <trkpt lat="42.87802" lon="1.31346">
        <ele>849</ele>
        <time>2025-09-27T14:20:32.000Z</time>
      </trkpt>
      <trkpt lat="42.87802" lon="1.31351">
        <ele>848</ele>
        <time>2025-09-27T14:20:33.000Z</time>
      </trkpt>
      <trkpt lat="42.87802" lon="1.31356">
        <ele>849</ele>
        <time>2025-09-27T14:20:34.000Z</time>
      </trkpt>
      <trkpt lat="42.87802" lon="1.31363">
        <ele>850</ele>
        <time>2025-09-27T14:20:35.000Z</time>
      </trkpt>
      <trkpt lat="42.87803" lon="1.31369">
        <ele>850</ele>
        <time>2025-09-27T14:20:36.000Z</time>
      </trkpt>
      <trkpt lat="42.87804" lon="1.31377">
        <ele>849</ele>
        <time>2025-09-27T14:20:37.000Z</time>
      </trkpt>
      <trkpt lat="42.87806" lon="1.31385">
        <ele>848</ele>
        <time>2025-09-27T14:20:38.000Z</time>
      </trkpt>
      <trkpt lat="42.87809" lon="1.31392">
        <ele>847</ele>
        <time>2025-09-27T14:20:39.000Z</time>
      </trkpt>
      <trkpt lat="42.87812" lon="1.314">
        <ele>846</ele>
        <time>2025-09-27T14:20:40.000Z</time>
      </trkpt>
      <trkpt lat="42.87815" lon="1.31407">
        <ele>845</ele>
        <time>2025-09-27T14:20:41.000Z</time>
      </trkpt>
      <trkpt lat="42.87818" lon="1.31414">
        <ele>844</ele>
        <time>2025-09-27T14:20:42.000Z</time>
      </trkpt>
      <trkpt lat="42.87822" lon="1.3142">
        <ele>844</ele>
        <time>2025-09-27T14:20:43.000Z</time>
      </trkpt>
      <trkpt lat="42.87825" lon="1.31426">
        <ele>844</ele>
        <time>2025-09-27T14:20:44.000Z</time>
      </trkpt>
      <trkpt lat="42.87828" lon="1.31432">
        <ele>844</ele>
        <time>2025-09-27T14:20:45.000Z</time>
      </trkpt>
      <trkpt lat="42.87831" lon="1.31439">
        <ele>843</ele>
        <time>2025-09-27T14:20:46.000Z</time>
      </trkpt>
      <trkpt lat="42.87833" lon="1.31446">
        <ele>842</ele>
        <time>2025-09-27T14:20:47.000Z</time>
      </trkpt>
      <trkpt lat="42.87834" lon="1.31454">
        <ele>842</ele>
        <time>2025-09-27T14:20:48.000Z</time>
      </trkpt>
      <trkpt lat="42.87835" lon="1.31462">
        <ele>841</ele>
        <time>2025-09-27T14:20:49.000Z</time>
      </trkpt>
      <trkpt lat="42.87836" lon="1.3147">
        <ele>840</ele>
        <time>2025-09-27T14:20:50.000Z</time>
      </trkpt>
      <trkpt lat="42.87836" lon="1.31477">
        <ele>839</ele>
        <time>2025-09-27T14:20:51.000Z</time>
      </trkpt>
      <trkpt lat="42.87835" lon="1.31484">
        <ele>838</ele>
        <time>2025-09-27T14:20:52.000Z</time>
      </trkpt>
      <trkpt lat="42.87833" lon="1.3149">
        <ele>838</ele>
        <time>2025-09-27T14:20:53.000Z</time>
      </trkpt>
      <trkpt lat="42.8783" lon="1.31497">
        <ele>838</ele>
        <time>2025-09-27T14:20:54.000Z</time>
      </trkpt>
      <trkpt lat="42.87827" lon="1.31503">
        <ele>838</ele>
        <time>2025-09-27T14:20:55.000Z</time>
      </trkpt>
      <trkpt lat="42.87825" lon="1.31509">
        <ele>837</ele>
        <time>2025-09-27T14:20:56.000Z</time>
      </trkpt>
      <trkpt lat="42.87823" lon="1.31517">
        <ele>836</ele>
        <time>2025-09-27T14:20:57.000Z</time>
      </trkpt>
      <trkpt lat="42.87821" lon="1.31525">
        <ele>836</ele>
        <time>2025-09-27T14:20:58.000Z</time>
      </trkpt>
      <trkpt lat="42.87819" lon="1.31533">
        <ele>836</ele>
        <time>2025-09-27T14:20:59.000Z</time>
      </trkpt>
      <trkpt lat="42.87818" lon="1.31541">
        <ele>835</ele>
        <time>2025-09-27T14:21:00.000Z</time>
      </trkpt>
      <trkpt lat="42.87817" lon="1.31548">
        <ele>835</ele>
        <time>2025-09-27T14:21:01.000Z</time>
      </trkpt>
      <trkpt lat="42.87817" lon="1.31555">
        <ele>835</ele>
        <time>2025-09-27T14:21:02.000Z</time>
      </trkpt>
      <trkpt lat="42.87815" lon="1.31562">
        <ele>836</ele>
        <time>2025-09-27T14:21:03.000Z</time>
      </trkpt>
      <trkpt lat="42.87812" lon="1.31569">
        <ele>836</ele>
        <time>2025-09-27T14:21:04.000Z</time>
      </trkpt>
      <trkpt lat="42.87808" lon="1.31576">
        <ele>836</ele>
        <time>2025-09-27T14:21:05.000Z</time>
      </trkpt>
      <trkpt lat="42.87804" lon="1.31584">
        <ele>835</ele>
        <time>2025-09-27T14:21:06.000Z</time>
      </trkpt>
      <trkpt lat="42.87802" lon="1.31593">
        <ele>834</ele>
        <time>2025-09-27T14:21:07.000Z</time>
      </trkpt>
      <trkpt lat="42.87799" lon="1.31601">
        <ele>833</ele>
        <time>2025-09-27T14:21:08.000Z</time>
      </trkpt>
      <trkpt lat="42.87796" lon="1.3161">
        <ele>833</ele>
        <time>2025-09-27T14:21:09.000Z</time>
      </trkpt>
      <trkpt lat="42.87793" lon="1.31618">
        <ele>833</ele>
        <time>2025-09-27T14:21:10.000Z</time>
      </trkpt>
      <trkpt lat="42.8779" lon="1.31625">
        <ele>832</ele>
        <time>2025-09-27T14:21:11.000Z</time>
      </trkpt>
      <trkpt lat="42.87785" lon="1.31632">
        <ele>832</ele>
        <time>2025-09-27T14:21:12.000Z</time>
      </trkpt>
      <trkpt lat="42.87781" lon="1.31639">
        <ele>832</ele>
        <time>2025-09-27T14:21:13.000Z</time>
      </trkpt>
      <trkpt lat="42.87775" lon="1.31645">
        <ele>831</ele>
        <time>2025-09-27T14:21:14.000Z</time>
      </trkpt>
      <trkpt lat="42.87769" lon="1.31652">
        <ele>831</ele>
        <time>2025-09-27T14:21:15.000Z</time>
      </trkpt>
      <trkpt lat="42.87764" lon="1.31659">
        <ele>831</ele>
        <time>2025-09-27T14:21:16.000Z</time>
      </trkpt>
      <trkpt lat="42.87759" lon="1.31665">
        <ele>830</ele>
        <time>2025-09-27T14:21:17.000Z</time>
      </trkpt>
      <trkpt lat="42.87753" lon="1.31672">
        <ele>829</ele>
        <time>2025-09-27T14:21:18.000Z</time>
      </trkpt>
      <trkpt lat="42.87748" lon="1.31678">
        <ele>829</ele>
        <time>2025-09-27T14:21:19.000Z</time>
      </trkpt>
      <trkpt lat="42.87741" lon="1.31685">
        <ele>829</ele>
        <time>2025-09-27T14:21:20.000Z</time>
      </trkpt>
      <trkpt lat="42.87735" lon="1.31693">
        <ele>829</ele>
        <time>2025-09-27T14:21:21.000Z</time>
      </trkpt>
      <trkpt lat="42.87729" lon="1.31701">
        <ele>829</ele>
        <time>2025-09-27T14:21:22.000Z</time>
      </trkpt>
      <trkpt lat="42.87727" lon="1.31711">
        <ele>828</ele>
        <time>2025-09-27T14:21:23.000Z</time>
      </trkpt>
      <trkpt lat="42.87724" lon="1.31724">
        <ele>828</ele>
        <time>2025-09-27T14:21:24.000Z</time>
      </trkpt>
      <trkpt lat="42.87725" lon="1.31736">
        <ele>827</ele>
        <time>2025-09-27T14:21:25.000Z</time>
      </trkpt>
      <trkpt lat="42.87728" lon="1.31748">
        <ele>827</ele>
        <time>2025-09-27T14:21:26.000Z</time>
      </trkpt>
      <trkpt lat="42.87732" lon="1.3176">
        <ele>827</ele>
        <time>2025-09-27T14:21:27.000Z</time>
      </trkpt>
      <trkpt lat="42.87737" lon="1.31773">
        <ele>827</ele>
        <time>2025-09-27T14:21:28.000Z</time>
      </trkpt>
      <trkpt lat="42.87742" lon="1.31785">
        <ele>826</ele>
        <time>2025-09-27T14:21:29.000Z</time>
      </trkpt>
      <trkpt lat="42.87748" lon="1.31795">
        <ele>826</ele>
        <time>2025-09-27T14:21:30.000Z</time>
      </trkpt>
      <trkpt lat="42.87755" lon="1.31803">
        <ele>826</ele>
        <time>2025-09-27T14:21:31.000Z</time>
      </trkpt>
      <trkpt lat="42.87764" lon="1.31809">
        <ele>825</ele>
        <time>2025-09-27T14:21:32.000Z</time>
      </trkpt>
      <trkpt lat="42.87778" lon="1.3181">
        <ele>824</ele>
        <time>2025-09-27T14:21:33.000Z</time>
      </trkpt>
      <trkpt lat="42.87792" lon="1.31809">
        <ele>822</ele>
        <time>2025-09-27T14:21:34.000Z</time>
      </trkpt>
      <trkpt lat="42.87805" lon="1.31809">
        <ele>820</ele>
        <time>2025-09-27T14:21:35.000Z</time>
      </trkpt>
      <trkpt lat="42.87818" lon="1.31813">
        <ele>820</ele>
        <time>2025-09-27T14:21:36.000Z</time>
      </trkpt>
      <trkpt lat="42.87829" lon="1.3182">
        <ele>819</ele>
        <time>2025-09-27T14:21:37.000Z</time>
      </trkpt>
      <trkpt lat="42.8784" lon="1.31827">
        <ele>819</ele>
        <time>2025-09-27T14:21:38.000Z</time>
      </trkpt>
      <trkpt lat="42.87849" lon="1.31836">
        <ele>817</ele>
        <time>2025-09-27T14:21:39.000Z</time>
      </trkpt>
      <trkpt lat="42.87856" lon="1.31844">
        <ele>817</ele>
        <time>2025-09-27T14:21:40.000Z</time>
      </trkpt>
      <trkpt lat="42.87862" lon="1.31856">
        <ele>817</ele>
        <time>2025-09-27T14:21:41.000Z</time>
      </trkpt>
      <trkpt lat="42.87866" lon="1.31868">
        <ele>816</ele>
        <time>2025-09-27T14:21:42.000Z</time>
      </trkpt>
      <trkpt lat="42.8787" lon="1.31881">
        <ele>815</ele>
        <time>2025-09-27T14:21:43.000Z</time>
      </trkpt>
      <trkpt lat="42.87872" lon="1.31893">
        <ele>813</ele>
        <time>2025-09-27T14:21:44.000Z</time>
      </trkpt>
      <trkpt lat="42.87876" lon="1.319">
        <ele>813</ele>
        <time>2025-09-27T14:21:45.000Z</time>
      </trkpt>
      <trkpt lat="42.87883" lon="1.31902">
        <ele>813</ele>
        <time>2025-09-27T14:21:46.000Z</time>
      </trkpt>
      <trkpt lat="42.87889" lon="1.31901">
        <ele>812</ele>
        <time>2025-09-27T14:21:47.000Z</time>
      </trkpt>
      <trkpt lat="42.87894" lon="1.31897">
        <ele>811</ele>
        <time>2025-09-27T14:21:48.000Z</time>
      </trkpt>
      <trkpt lat="42.87898" lon="1.31891">
        <ele>810</ele>
        <time>2025-09-27T14:21:49.000Z</time>
      </trkpt>
      <trkpt lat="42.87901" lon="1.31884">
        <ele>810</ele>
        <time>2025-09-27T14:21:50.000Z</time>
      </trkpt>
      <trkpt lat="42.87904" lon="1.31876">
        <ele>808</ele>
        <time>2025-09-27T14:21:51.000Z</time>
      </trkpt>
      <trkpt lat="42.87908" lon="1.31869">
        <ele>808</ele>
        <time>2025-09-27T14:21:52.000Z</time>
      </trkpt>
      <trkpt lat="42.87911" lon="1.31862">
        <ele>808</ele>
        <time>2025-09-27T14:21:53.000Z</time>
      </trkpt>
      <trkpt lat="42.87915" lon="1.31856">
        <ele>807</ele>
        <time>2025-09-27T14:21:54.000Z</time>
      </trkpt>
      <trkpt lat="42.87919" lon="1.3185">
        <ele>807</ele>
        <time>2025-09-27T14:21:55.000Z</time>
      </trkpt>
      <trkpt lat="42.87926" lon="1.31845">
        <ele>808</ele>
        <time>2025-09-27T14:21:56.000Z</time>
      </trkpt>
      <trkpt lat="42.87931" lon="1.31842">
        <ele>807</ele>
        <time>2025-09-27T14:21:57.000Z</time>
      </trkpt>
      <trkpt lat="42.87936" lon="1.31839">
        <ele>807</ele>
        <time>2025-09-27T14:21:58.000Z</time>
      </trkpt>
      <trkpt lat="42.87943" lon="1.31837">
        <ele>807</ele>
        <time>2025-09-27T14:21:59.000Z</time>
      </trkpt>
      <trkpt lat="42.8795" lon="1.31836">
        <ele>807</ele>
        <time>2025-09-27T14:22:00.000Z</time>
      </trkpt>
      <trkpt lat="42.87956" lon="1.31834">
        <ele>807</ele>
        <time>2025-09-27T14:22:01.000Z</time>
      </trkpt>
      <trkpt lat="42.87962" lon="1.31835">
        <ele>807</ele>
        <time>2025-09-27T14:22:02.000Z</time>
      </trkpt>
      <trkpt lat="42.87969" lon="1.31839">
        <ele>806</ele>
        <time>2025-09-27T14:22:03.000Z</time>
      </trkpt>
      <trkpt lat="42.87975" lon="1.31843">
        <ele>805</ele>
        <time>2025-09-27T14:22:04.000Z</time>
      </trkpt>
      <trkpt lat="42.87981" lon="1.31848">
        <ele>804</ele>
        <time>2025-09-27T14:22:05.000Z</time>
      </trkpt>
      <trkpt lat="42.87986" lon="1.31852">
        <ele>805</ele>
        <time>2025-09-27T14:22:06.000Z</time>
      </trkpt>
      <trkpt lat="42.87991" lon="1.31857">
        <ele>805</ele>
        <time>2025-09-27T14:22:07.000Z</time>
      </trkpt>
      <trkpt lat="42.87995" lon="1.31862">
        <ele>805</ele>
        <time>2025-09-27T14:22:08.000Z</time>
      </trkpt>
      <trkpt lat="42.87999" lon="1.31868">
        <ele>805</ele>
        <time>2025-09-27T14:22:09.000Z</time>
      </trkpt>
      <trkpt lat="42.88003" lon="1.31874">
        <ele>805</ele>
        <time>2025-09-27T14:22:10.000Z</time>
      </trkpt>
      <trkpt lat="42.88006" lon="1.3188">
        <ele>805</ele>
        <time>2025-09-27T14:22:11.000Z</time>
      </trkpt>
      <trkpt lat="42.88008" lon="1.31885">
        <ele>806</ele>
        <time>2025-09-27T14:22:12.000Z</time>
      </trkpt>
      <trkpt lat="42.88011" lon="1.3189">
        <ele>806</ele>
        <time>2025-09-27T14:22:13.000Z</time>
      </trkpt>
      <trkpt lat="42.88012" lon="1.31895">
        <ele>805</ele>
        <time>2025-09-27T14:22:14.000Z</time>
      </trkpt>
      <trkpt lat="42.88014" lon="1.31899">
        <ele>805</ele>
        <time>2025-09-27T14:22:15.000Z</time>
      </trkpt>
      <trkpt lat="42.88016" lon="1.31903">
        <ele>804</ele>
        <time>2025-09-27T14:22:16.000Z</time>
      </trkpt>
      <trkpt lat="42.88018" lon="1.31907">
        <ele>804</ele>
        <time>2025-09-27T14:22:17.000Z</time>
      </trkpt>
      <trkpt lat="42.8802" lon="1.31911">
        <ele>804</ele>
        <time>2025-09-27T14:22:18.000Z</time>
      </trkpt>
      <trkpt lat="42.88022" lon="1.31914">
        <ele>803</ele>
        <time>2025-09-27T14:22:19.000Z</time>
      </trkpt>
      <trkpt lat="42.88025" lon="1.31918">
        <ele>803</ele>
        <time>2025-09-27T14:22:20.000Z</time>
      </trkpt>
      <trkpt lat="42.88027" lon="1.31922">
        <ele>803</ele>
        <time>2025-09-27T14:22:21.000Z</time>
      </trkpt>
      <trkpt lat="42.8803" lon="1.31925">
        <ele>802</ele>
        <time>2025-09-27T14:22:22.000Z</time>
      </trkpt>
      <trkpt lat="42.88033" lon="1.31929">
        <ele>802</ele>
        <time>2025-09-27T14:22:23.000Z</time>
      </trkpt>
      <trkpt lat="42.88035" lon="1.31933">
        <ele>802</ele>
        <time>2025-09-27T14:22:24.000Z</time>
      </trkpt>
      <trkpt lat="42.88037" lon="1.31937">
        <ele>802</ele>
        <time>2025-09-27T14:22:25.000Z</time>
      </trkpt>
      <trkpt lat="42.88039" lon="1.3194">
        <ele>802</ele>
        <time>2025-09-27T14:22:26.000Z</time>
      </trkpt>
      <trkpt lat="42.88041" lon="1.31944">
        <ele>802</ele>
        <time>2025-09-27T14:22:27.000Z</time>
      </trkpt>
      <trkpt lat="42.88044" lon="1.31948">
        <ele>802</ele>
        <time>2025-09-27T14:22:28.000Z</time>
      </trkpt>
      <trkpt lat="42.88046" lon="1.31952">
        <ele>801</ele>
        <time>2025-09-27T14:22:29.000Z</time>
      </trkpt>
      <trkpt lat="42.88049" lon="1.31957">
        <ele>801</ele>
        <time>2025-09-27T14:22:30.000Z</time>
      </trkpt>
      <trkpt lat="42.88052" lon="1.31961">
        <ele>801</ele>
        <time>2025-09-27T14:22:31.000Z</time>
      </trkpt>
      <trkpt lat="42.88056" lon="1.31967">
        <ele>802</ele>
        <time>2025-09-27T14:22:32.000Z</time>
      </trkpt>
      <trkpt lat="42.88059" lon="1.31972">
        <ele>803</ele>
        <time>2025-09-27T14:22:33.000Z</time>
      </trkpt>
      <trkpt lat="42.88061" lon="1.31978">
        <ele>803</ele>
        <time>2025-09-27T14:22:34.000Z</time>
      </trkpt>
      <trkpt lat="42.88064" lon="1.31983">
        <ele>803</ele>
        <time>2025-09-27T14:22:35.000Z</time>
      </trkpt>
      <trkpt lat="42.88065" lon="1.31989">
        <ele>803</ele>
        <time>2025-09-27T14:22:36.000Z</time>
      </trkpt>
      <trkpt lat="42.88065" lon="1.31995">
        <ele>803</ele>
        <time>2025-09-27T14:22:37.000Z</time>
      </trkpt>
      <trkpt lat="42.88065" lon="1.32002">
        <ele>802</ele>
        <time>2025-09-27T14:22:38.000Z</time>
      </trkpt>
      <trkpt lat="42.88066" lon="1.32009">
        <ele>802</ele>
        <time>2025-09-27T14:22:39.000Z</time>
      </trkpt>
      <trkpt lat="42.88065" lon="1.32016">
        <ele>802</ele>
        <time>2025-09-27T14:22:40.000Z</time>
      </trkpt>
      <trkpt lat="42.88065" lon="1.32024">
        <ele>802</ele>
        <time>2025-09-27T14:22:41.000Z</time>
      </trkpt>
      <trkpt lat="42.88065" lon="1.32033">
        <ele>802</ele>
        <time>2025-09-27T14:22:42.000Z</time>
      </trkpt>
      <trkpt lat="42.88065" lon="1.32042">
        <ele>802</ele>
        <time>2025-09-27T14:22:43.000Z</time>
      </trkpt>
      <trkpt lat="42.88064" lon="1.32051">
        <ele>802</ele>
        <time>2025-09-27T14:22:44.000Z</time>
      </trkpt>
      <trkpt lat="42.88064" lon="1.32062">
        <ele>802</ele>
        <time>2025-09-27T14:22:45.000Z</time>
      </trkpt>
      <trkpt lat="42.88063" lon="1.32073">
        <ele>801</ele>
        <time>2025-09-27T14:22:46.000Z</time>
      </trkpt>
      <trkpt lat="42.88062" lon="1.32084">
        <ele>801</ele>
        <time>2025-09-27T14:22:47.000Z</time>
      </trkpt>
      <trkpt lat="42.88063" lon="1.32096">
        <ele>801</ele>
        <time>2025-09-27T14:22:48.000Z</time>
      </trkpt>
      <trkpt lat="42.88065" lon="1.32109">
        <ele>801</ele>
        <time>2025-09-27T14:22:49.000Z</time>
      </trkpt>
      <trkpt lat="42.88065" lon="1.3212">
        <ele>801</ele>
        <time>2025-09-27T14:22:50.000Z</time>
      </trkpt>
      <trkpt lat="42.88066" lon="1.32131">
        <ele>800</ele>
        <time>2025-09-27T14:22:51.000Z</time>
      </trkpt>
      <trkpt lat="42.88066" lon="1.32141">
        <ele>801</ele>
        <time>2025-09-27T14:22:52.000Z</time>
      </trkpt>
      <trkpt lat="42.88064" lon="1.32152">
        <ele>800</ele>
        <time>2025-09-27T14:22:53.000Z</time>
      </trkpt>
      <trkpt lat="42.88063" lon="1.32162">
        <ele>800</ele>
        <time>2025-09-27T14:22:54.000Z</time>
      </trkpt>
      <trkpt lat="42.88063" lon="1.32173">
        <ele>799</ele>
        <time>2025-09-27T14:22:55.000Z</time>
      </trkpt>
      <trkpt lat="42.88064" lon="1.32182">
        <ele>799</ele>
        <time>2025-09-27T14:22:56.000Z</time>
      </trkpt>
      <trkpt lat="42.88065" lon="1.3219">
        <ele>799</ele>
        <time>2025-09-27T14:22:57.000Z</time>
      </trkpt>
      <trkpt lat="42.88066" lon="1.32199">
        <ele>798</ele>
        <time>2025-09-27T14:22:58.000Z</time>
      </trkpt>
      <trkpt lat="42.88069" lon="1.32205">
        <ele>798</ele>
        <time>2025-09-27T14:22:59.000Z</time>
      </trkpt>
      <trkpt lat="42.88071" lon="1.32212">
        <ele>798</ele>
        <time>2025-09-27T14:23:00.000Z</time>
      </trkpt>
      <trkpt lat="42.88075" lon="1.32217">
        <ele>798</ele>
        <time>2025-09-27T14:23:01.000Z</time>
      </trkpt>
      <trkpt lat="42.88081" lon="1.32221">
        <ele>798</ele>
        <time>2025-09-27T14:23:02.000Z</time>
      </trkpt>
      <trkpt lat="42.88085" lon="1.32223">
        <ele>798</ele>
        <time>2025-09-27T14:23:03.000Z</time>
      </trkpt>
      <trkpt lat="42.88089" lon="1.32221">
        <ele>798</ele>
        <time>2025-09-27T14:23:04.000Z</time>
      </trkpt>
      <trkpt lat="42.88093" lon="1.32219">
        <ele>798</ele>
        <time>2025-09-27T14:23:05.000Z</time>
      </trkpt>
      <trkpt lat="42.88098" lon="1.32217">
        <ele>797</ele>
        <time>2025-09-27T14:23:06.000Z</time>
      </trkpt>
      <trkpt lat="42.88105" lon="1.32213">
        <ele>797</ele>
        <time>2025-09-27T14:23:07.000Z</time>
      </trkpt>
      <trkpt lat="42.88111" lon="1.32211">
        <ele>797</ele>
        <time>2025-09-27T14:23:08.000Z</time>
      </trkpt>
      <trkpt lat="42.88117" lon="1.32211">
        <ele>798</ele>
        <time>2025-09-27T14:23:09.000Z</time>
      </trkpt>
      <trkpt lat="42.88123" lon="1.32212">
        <ele>799</ele>
        <time>2025-09-27T14:23:10.000Z</time>
      </trkpt>
      <trkpt lat="42.88127" lon="1.32212">
        <ele>798</ele>
        <time>2025-09-27T14:23:11.000Z</time>
      </trkpt>
      <trkpt lat="42.88132" lon="1.32213">
        <ele>799</ele>
        <time>2025-09-27T14:23:12.000Z</time>
      </trkpt>
      <trkpt lat="42.88139" lon="1.3222">
        <ele>798</ele>
        <time>2025-09-27T14:23:13.000Z</time>
      </trkpt>
      <trkpt lat="42.88143" lon="1.32226">
        <ele>798</ele>
        <time>2025-09-27T14:23:14.000Z</time>
      </trkpt>
      <trkpt lat="42.88148" lon="1.32232">
        <ele>797</ele>
        <time>2025-09-27T14:23:15.000Z</time>
      </trkpt>
      <trkpt lat="42.88152" lon="1.32238">
        <ele>796</ele>
        <time>2025-09-27T14:23:16.000Z</time>
      </trkpt>
      <trkpt lat="42.88155" lon="1.32244">
        <ele>797</ele>
        <time>2025-09-27T14:23:17.000Z</time>
      </trkpt>
      <trkpt lat="42.88156" lon="1.3225">
        <ele>796</ele>
        <time>2025-09-27T14:23:18.000Z</time>
      </trkpt>
      <trkpt lat="42.88158" lon="1.32256">
        <ele>796</ele>
        <time>2025-09-27T14:23:19.000Z</time>
      </trkpt>
      <trkpt lat="42.88159" lon="1.32262">
        <ele>795</ele>
        <time>2025-09-27T14:23:20.000Z</time>
      </trkpt>
      <trkpt lat="42.8816" lon="1.32268">
        <ele>794</ele>
        <time>2025-09-27T14:23:21.000Z</time>
      </trkpt>
      <trkpt lat="42.8816" lon="1.32275">
        <ele>794</ele>
        <time>2025-09-27T14:23:22.000Z</time>
      </trkpt>
      <trkpt lat="42.8816" lon="1.32281">
        <ele>794</ele>
        <time>2025-09-27T14:23:23.000Z</time>
      </trkpt>
      <trkpt lat="42.88161" lon="1.32288">
        <ele>794</ele>
        <time>2025-09-27T14:23:24.000Z</time>
      </trkpt>
      <trkpt lat="42.88161" lon="1.32295">
        <ele>794</ele>
        <time>2025-09-27T14:23:25.000Z</time>
      </trkpt>
      <trkpt lat="42.88161" lon="1.32303">
        <ele>793</ele>
        <time>2025-09-27T14:23:26.000Z</time>
      </trkpt>
      <trkpt lat="42.88162" lon="1.3231">
        <ele>793</ele>
        <time>2025-09-27T14:23:27.000Z</time>
      </trkpt>
      <trkpt lat="42.88162" lon="1.32317">
        <ele>793</ele>
        <time>2025-09-27T14:23:28.000Z</time>
      </trkpt>
      <trkpt lat="42.88162" lon="1.32324">
        <ele>793</ele>
        <time>2025-09-27T14:23:29.000Z</time>
      </trkpt>
      <trkpt lat="42.88163" lon="1.32332">
        <ele>794</ele>
        <time>2025-09-27T14:23:30.000Z</time>
      </trkpt>
      <trkpt lat="42.88164" lon="1.3234">
        <ele>794</ele>
        <time>2025-09-27T14:23:31.000Z</time>
      </trkpt>
      <trkpt lat="42.88167" lon="1.32347">
        <ele>794</ele>
        <time>2025-09-27T14:23:32.000Z</time>
      </trkpt>
      <trkpt lat="42.8817" lon="1.32352">
        <ele>794</ele>
        <time>2025-09-27T14:23:33.000Z</time>
      </trkpt>
      <trkpt lat="42.88175" lon="1.32356">
        <ele>795</ele>
        <time>2025-09-27T14:23:34.000Z</time>
      </trkpt>
      <trkpt lat="42.88181" lon="1.32356">
        <ele>796</ele>
        <time>2025-09-27T14:23:35.000Z</time>
      </trkpt>
      <trkpt lat="42.88187" lon="1.32354">
        <ele>796</ele>
        <time>2025-09-27T14:23:36.000Z</time>
      </trkpt>
      <trkpt lat="42.88193" lon="1.32349">
        <ele>797</ele>
        <time>2025-09-27T14:23:37.000Z</time>
      </trkpt>
      <trkpt lat="42.88198" lon="1.32343">
        <ele>796</ele>
        <time>2025-09-27T14:23:38.000Z</time>
      </trkpt>
      <trkpt lat="42.88203" lon="1.32338">
        <ele>796</ele>
        <time>2025-09-27T14:23:39.000Z</time>
      </trkpt>
      <trkpt lat="42.88206" lon="1.32331">
        <ele>796</ele>
        <time>2025-09-27T14:23:40.000Z</time>
      </trkpt>
      <trkpt lat="42.8821" lon="1.32324">
        <ele>796</ele>
        <time>2025-09-27T14:23:41.000Z</time>
      </trkpt>
      <trkpt lat="42.88214" lon="1.32318">
        <ele>796</ele>
        <time>2025-09-27T14:23:42.000Z</time>
      </trkpt>
      <trkpt lat="42.88217" lon="1.32312">
        <ele>796</ele>
        <time>2025-09-27T14:23:43.000Z</time>
      </trkpt>
      <trkpt lat="42.88221" lon="1.32306">
        <ele>796</ele>
        <time>2025-09-27T14:23:44.000Z</time>
      </trkpt>
      <trkpt lat="42.88225" lon="1.32299">
        <ele>796</ele>
        <time>2025-09-27T14:23:45.000Z</time>
      </trkpt>
      <trkpt lat="42.88229" lon="1.32293">
        <ele>796</ele>
        <time>2025-09-27T14:23:46.000Z</time>
      </trkpt>
      <trkpt lat="42.88233" lon="1.32286">
        <ele>796</ele>
        <time>2025-09-27T14:23:47.000Z</time>
      </trkpt>
      <trkpt lat="42.88237" lon="1.3228">
        <ele>797</ele>
        <time>2025-09-27T14:23:48.000Z</time>
      </trkpt>
      <trkpt lat="42.88242" lon="1.32274">
        <ele>797</ele>
        <time>2025-09-27T14:23:49.000Z</time>
      </trkpt>
      <trkpt lat="42.88247" lon="1.32268">
        <ele>797</ele>
        <time>2025-09-27T14:23:50.000Z</time>
      </trkpt>
      <trkpt lat="42.88252" lon="1.32264">
        <ele>797</ele>
        <time>2025-09-27T14:23:51.000Z</time>
      </trkpt>
      <trkpt lat="42.88257" lon="1.3226">
        <ele>797</ele>
        <time>2025-09-27T14:23:52.000Z</time>
      </trkpt>
      <trkpt lat="42.88262" lon="1.32255">
        <ele>797</ele>
        <time>2025-09-27T14:23:53.000Z</time>
      </trkpt>
      <trkpt lat="42.88267" lon="1.3225">
        <ele>797</ele>
        <time>2025-09-27T14:23:54.000Z</time>
      </trkpt>
      <trkpt lat="42.88272" lon="1.32246">
        <ele>796</ele>
        <time>2025-09-27T14:23:55.000Z</time>
      </trkpt>
      <trkpt lat="42.88277" lon="1.32243">
        <ele>796</ele>
        <time>2025-09-27T14:23:56.000Z</time>
      </trkpt>
      <trkpt lat="42.88283" lon="1.32241">
        <ele>795</ele>
        <time>2025-09-27T14:23:57.000Z</time>
      </trkpt>
      <trkpt lat="42.8829" lon="1.3224">
        <ele>795</ele>
        <time>2025-09-27T14:23:58.000Z</time>
      </trkpt>
      <trkpt lat="42.88295" lon="1.32243">
        <ele>795</ele>
        <time>2025-09-27T14:23:59.000Z</time>
      </trkpt>
      <trkpt lat="42.883" lon="1.32246">
        <ele>794</ele>
        <time>2025-09-27T14:24:00.000Z</time>
      </trkpt>
      <trkpt lat="42.88305" lon="1.32249">
        <ele>794</ele>
        <time>2025-09-27T14:24:01.000Z</time>
      </trkpt>
      <trkpt lat="42.88309" lon="1.32255">
        <ele>794</ele>
        <time>2025-09-27T14:24:02.000Z</time>
      </trkpt>
      <trkpt lat="42.88313" lon="1.3226">
        <ele>794</ele>
        <time>2025-09-27T14:24:03.000Z</time>
      </trkpt>
      <trkpt lat="42.88316" lon="1.32267">
        <ele>794</ele>
        <time>2025-09-27T14:24:04.000Z</time>
      </trkpt>
      <trkpt lat="42.8832" lon="1.32273">
        <ele>794</ele>
        <time>2025-09-27T14:24:05.000Z</time>
      </trkpt>
      <trkpt lat="42.88325" lon="1.32278">
        <ele>794</ele>
        <time>2025-09-27T14:24:06.000Z</time>
      </trkpt>
      <trkpt lat="42.88329" lon="1.32284">
        <ele>794</ele>
        <time>2025-09-27T14:24:07.000Z</time>
      </trkpt>
      <trkpt lat="42.88333" lon="1.32289">
        <ele>794</ele>
        <time>2025-09-27T14:24:08.000Z</time>
      </trkpt>
      <trkpt lat="42.88338" lon="1.32293">
        <ele>794</ele>
        <time>2025-09-27T14:24:09.000Z</time>
      </trkpt>
      <trkpt lat="42.88342" lon="1.32297">
        <ele>793</ele>
        <time>2025-09-27T14:24:10.000Z</time>
      </trkpt>
      <trkpt lat="42.88347" lon="1.323">
        <ele>793</ele>
        <time>2025-09-27T14:24:11.000Z</time>
      </trkpt>
      <trkpt lat="42.88352" lon="1.32303">
        <ele>793</ele>
        <time>2025-09-27T14:24:12.000Z</time>
      </trkpt>
      <trkpt lat="42.88358" lon="1.32305">
        <ele>793</ele>
        <time>2025-09-27T14:24:13.000Z</time>
      </trkpt>
      <trkpt lat="42.88362" lon="1.32308">
        <ele>793</ele>
        <time>2025-09-27T14:24:14.000Z</time>
      </trkpt>
      <trkpt lat="42.88367" lon="1.3231">
        <ele>793</ele>
        <time>2025-09-27T14:24:15.000Z</time>
      </trkpt>
      <trkpt lat="42.88371" lon="1.32312">
        <ele>794</ele>
        <time>2025-09-27T14:24:16.000Z</time>
      </trkpt>
      <trkpt lat="42.88376" lon="1.32314">
        <ele>794</ele>
        <time>2025-09-27T14:24:17.000Z</time>
      </trkpt>
      <trkpt lat="42.8838" lon="1.32317">
        <ele>794</ele>
        <time>2025-09-27T14:24:18.000Z</time>
      </trkpt>
      <trkpt lat="42.88383" lon="1.3232">
        <ele>794</ele>
        <time>2025-09-27T14:24:19.000Z</time>
      </trkpt>
      <trkpt lat="42.88388" lon="1.32322">
        <ele>793</ele>
        <time>2025-09-27T14:24:20.000Z</time>
      </trkpt>
      <trkpt lat="42.88393" lon="1.32324">
        <ele>793</ele>
        <time>2025-09-27T14:24:21.000Z</time>
      </trkpt>
      <trkpt lat="42.88397" lon="1.32326">
        <ele>793</ele>
        <time>2025-09-27T14:24:22.000Z</time>
      </trkpt>
      <trkpt lat="42.88401" lon="1.32329">
        <ele>793</ele>
        <time>2025-09-27T14:24:23.000Z</time>
      </trkpt>
      <trkpt lat="42.88405" lon="1.32331">
        <ele>793</ele>
        <time>2025-09-27T14:24:24.000Z</time>
      </trkpt>
      <trkpt lat="42.8841" lon="1.32333">
        <ele>793</ele>
        <time>2025-09-27T14:24:25.000Z</time>
      </trkpt>
      <trkpt lat="42.88414" lon="1.32336">
        <ele>793</ele>
        <time>2025-09-27T14:24:26.000Z</time>
      </trkpt>
      <trkpt lat="42.88418" lon="1.32339">
        <ele>793</ele>
        <time>2025-09-27T14:24:27.000Z</time>
      </trkpt>
      <trkpt lat="42.88422" lon="1.32342">
        <ele>793</ele>
        <time>2025-09-27T14:24:28.000Z</time>
      </trkpt>
      <trkpt lat="42.88426" lon="1.32346">
        <ele>793</ele>
        <time>2025-09-27T14:24:29.000Z</time>
      </trkpt>
      <trkpt lat="42.8843" lon="1.3235">
        <ele>793</ele>
        <time>2025-09-27T14:24:30.000Z</time>
      </trkpt>
      <trkpt lat="42.88434" lon="1.32355">
        <ele>793</ele>
        <time>2025-09-27T14:24:31.000Z</time>
      </trkpt>
      <trkpt lat="42.88436" lon="1.3236">
        <ele>793</ele>
        <time>2025-09-27T14:24:32.000Z</time>
      </trkpt>
      <trkpt lat="42.88439" lon="1.32365">
        <ele>793</ele>
        <time>2025-09-27T14:24:33.000Z</time>
      </trkpt>
      <trkpt lat="42.88442" lon="1.3237">
        <ele>794</ele>
        <time>2025-09-27T14:24:34.000Z</time>
      </trkpt>
      <trkpt lat="42.88445" lon="1.32376">
        <ele>794</ele>
        <time>2025-09-27T14:24:35.000Z</time>
      </trkpt>
      <trkpt lat="42.88447" lon="1.32382">
        <ele>794</ele>
        <time>2025-09-27T14:24:36.000Z</time>
      </trkpt>
      <trkpt lat="42.88448" lon="1.32389">
        <ele>795</ele>
        <time>2025-09-27T14:24:37.000Z</time>
      </trkpt>
      <trkpt lat="42.88448" lon="1.32395">
        <ele>795</ele>
        <time>2025-09-27T14:24:38.000Z</time>
      </trkpt>
      <trkpt lat="42.88448" lon="1.32402">
        <ele>795</ele>
        <time>2025-09-27T14:24:39.000Z</time>
      </trkpt>
      <trkpt lat="42.88447" lon="1.32409">
        <ele>795</ele>
        <time>2025-09-27T14:24:40.000Z</time>
      </trkpt>
      <trkpt lat="42.88447" lon="1.32416">
        <ele>795</ele>
        <time>2025-09-27T14:24:41.000Z</time>
      </trkpt>
      <trkpt lat="42.88447" lon="1.32422">
        <ele>794</ele>
        <time>2025-09-27T14:24:42.000Z</time>
      </trkpt>
      <trkpt lat="42.88447" lon="1.3243">
        <ele>794</ele>
        <time>2025-09-27T14:24:43.000Z</time>
      </trkpt>
      <trkpt lat="42.88445" lon="1.32438">
        <ele>794</ele>
        <time>2025-09-27T14:24:44.000Z</time>
      </trkpt>
      <trkpt lat="42.88444" lon="1.32447">
        <ele>793</ele>
        <time>2025-09-27T14:24:45.000Z</time>
      </trkpt>
      <trkpt lat="42.88443" lon="1.32456">
        <ele>792</ele>
        <time>2025-09-27T14:24:46.000Z</time>
      </trkpt>
      <trkpt lat="42.8844" lon="1.32465">
        <ele>791</ele>
        <time>2025-09-27T14:24:47.000Z</time>
      </trkpt>
      <trkpt lat="42.88438" lon="1.32475">
        <ele>790</ele>
        <time>2025-09-27T14:24:48.000Z</time>
      </trkpt>
      <trkpt lat="42.88436" lon="1.32484">
        <ele>789</ele>
        <time>2025-09-27T14:24:49.000Z</time>
      </trkpt>
      <trkpt lat="42.88433" lon="1.32492">
        <ele>788</ele>
        <time>2025-09-27T14:24:50.000Z</time>
      </trkpt>
      <trkpt lat="42.88431" lon="1.32501">
        <ele>787</ele>
        <time>2025-09-27T14:24:51.000Z</time>
      </trkpt>
      <trkpt lat="42.88428" lon="1.32508">
        <ele>787</ele>
        <time>2025-09-27T14:24:52.000Z</time>
      </trkpt>
      <trkpt lat="42.88426" lon="1.32512">
        <ele>786</ele>
        <time>2025-09-27T14:24:53.000Z</time>
      </trkpt>
      <trkpt lat="42.88425" lon="1.32516">
        <ele>786</ele>
        <time>2025-09-27T14:24:54.000Z</time>
      </trkpt>
      <trkpt lat="42.88423" lon="1.32521">
        <ele>785</ele>
        <time>2025-09-27T14:24:55.000Z</time>
      </trkpt>
      <trkpt lat="42.88422" lon="1.32527">
        <ele>785</ele>
        <time>2025-09-27T14:24:56.000Z</time>
      </trkpt>
      <trkpt lat="42.8842" lon="1.32533">
        <ele>785</ele>
        <time>2025-09-27T14:24:57.000Z</time>
      </trkpt>
      <trkpt lat="42.88419" lon="1.3254">
        <ele>784</ele>
        <time>2025-09-27T14:24:58.000Z</time>
      </trkpt>
      <trkpt lat="42.88419" lon="1.32547">
        <ele>784</ele>
        <time>2025-09-27T14:24:59.000Z</time>
      </trkpt>
      <trkpt lat="42.8842" lon="1.32555">
        <ele>784</ele>
        <time>2025-09-27T14:25:00.000Z</time>
      </trkpt>
      <trkpt lat="42.88424" lon="1.32561">
        <ele>784</ele>
        <time>2025-09-27T14:25:01.000Z</time>
      </trkpt>
      <trkpt lat="42.88429" lon="1.32566">
        <ele>784</ele>
        <time>2025-09-27T14:25:02.000Z</time>
      </trkpt>
      <trkpt lat="42.88435" lon="1.3257">
        <ele>783</ele>
        <time>2025-09-27T14:25:03.000Z</time>
      </trkpt>
      <trkpt lat="42.88441" lon="1.32573">
        <ele>782</ele>
        <time>2025-09-27T14:25:04.000Z</time>
      </trkpt>
      <trkpt lat="42.88446" lon="1.32576">
        <ele>781</ele>
        <time>2025-09-27T14:25:05.000Z</time>
      </trkpt>
      <trkpt lat="42.88452" lon="1.32579">
        <ele>781</ele>
        <time>2025-09-27T14:25:06.000Z</time>
      </trkpt>
      <trkpt lat="42.88457" lon="1.32582">
        <ele>781</ele>
        <time>2025-09-27T14:25:07.000Z</time>
      </trkpt>
      <trkpt lat="42.88463" lon="1.32586">
        <ele>781</ele>
        <time>2025-09-27T14:25:08.000Z</time>
      </trkpt>
      <trkpt lat="42.88469" lon="1.3259">
        <ele>780</ele>
        <time>2025-09-27T14:25:09.000Z</time>
      </trkpt>
      <trkpt lat="42.88474" lon="1.32595">
        <ele>780</ele>
        <time>2025-09-27T14:25:10.000Z</time>
      </trkpt>
      <trkpt lat="42.88479" lon="1.32601">
        <ele>780</ele>
        <time>2025-09-27T14:25:11.000Z</time>
      </trkpt>
      <trkpt lat="42.88483" lon="1.32608">
        <ele>781</ele>
        <time>2025-09-27T14:25:12.000Z</time>
      </trkpt>
      <trkpt lat="42.88487" lon="1.32616">
        <ele>780</ele>
        <time>2025-09-27T14:25:13.000Z</time>
      </trkpt>
      <trkpt lat="42.88491" lon="1.32623">
        <ele>780</ele>
        <time>2025-09-27T14:25:14.000Z</time>
      </trkpt>
      <trkpt lat="42.88493" lon="1.3263">
        <ele>780</ele>
        <time>2025-09-27T14:25:15.000Z</time>
      </trkpt>
      <trkpt lat="42.88496" lon="1.32637">
        <ele>780</ele>
        <time>2025-09-27T14:25:16.000Z</time>
      </trkpt>
      <trkpt lat="42.88499" lon="1.32645">
        <ele>780</ele>
        <time>2025-09-27T14:25:17.000Z</time>
      </trkpt>
      <trkpt lat="42.88502" lon="1.32652">
        <ele>780</ele>
        <time>2025-09-27T14:25:18.000Z</time>
      </trkpt>
      <trkpt lat="42.88505" lon="1.32659">
        <ele>779</ele>
        <time>2025-09-27T14:25:19.000Z</time>
      </trkpt>
      <trkpt lat="42.88508" lon="1.32666">
        <ele>779</ele>
        <time>2025-09-27T14:25:20.000Z</time>
      </trkpt>
      <trkpt lat="42.8851" lon="1.32674">
        <ele>779</ele>
        <time>2025-09-27T14:25:21.000Z</time>
      </trkpt>
      <trkpt lat="42.88511" lon="1.32682">
        <ele>778</ele>
        <time>2025-09-27T14:25:22.000Z</time>
      </trkpt>
      <trkpt lat="42.88512" lon="1.3269">
        <ele>777</ele>
        <time>2025-09-27T14:25:23.000Z</time>
      </trkpt>
      <trkpt lat="42.88513" lon="1.32699">
        <ele>776</ele>
        <time>2025-09-27T14:25:24.000Z</time>
      </trkpt>
      <trkpt lat="42.88516" lon="1.32706">
        <ele>776</ele>
        <time>2025-09-27T14:25:25.000Z</time>
      </trkpt>
      <trkpt lat="42.8852" lon="1.32713">
        <ele>776</ele>
        <time>2025-09-27T14:25:26.000Z</time>
      </trkpt>
      <trkpt lat="42.88525" lon="1.32719">
        <ele>776</ele>
        <time>2025-09-27T14:25:27.000Z</time>
      </trkpt>
      <trkpt lat="42.8853" lon="1.32722">
        <ele>776</ele>
        <time>2025-09-27T14:25:28.000Z</time>
      </trkpt>
      <trkpt lat="42.88535" lon="1.32727">
        <ele>775</ele>
        <time>2025-09-27T14:25:29.000Z</time>
      </trkpt>
      <trkpt lat="42.8854" lon="1.32731">
        <ele>775</ele>
        <time>2025-09-27T14:25:30.000Z</time>
      </trkpt>
      <trkpt lat="42.88545" lon="1.32735">
        <ele>774</ele>
        <time>2025-09-27T14:25:31.000Z</time>
      </trkpt>
      <trkpt lat="42.8855" lon="1.3274">
        <ele>774</ele>
        <time>2025-09-27T14:25:32.000Z</time>
      </trkpt>
      <trkpt lat="42.88556" lon="1.32743">
        <ele>773</ele>
        <time>2025-09-27T14:25:33.000Z</time>
      </trkpt>
      <trkpt lat="42.88562" lon="1.32746">
        <ele>773</ele>
        <time>2025-09-27T14:25:34.000Z</time>
      </trkpt>
      <trkpt lat="42.88569" lon="1.32749">
        <ele>772</ele>
        <time>2025-09-27T14:25:35.000Z</time>
      </trkpt>
      <trkpt lat="42.88575" lon="1.32752">
        <ele>772</ele>
        <time>2025-09-27T14:25:36.000Z</time>
      </trkpt>
      <trkpt lat="42.88582" lon="1.32754">
        <ele>772</ele>
        <time>2025-09-27T14:25:37.000Z</time>
      </trkpt>
      <trkpt lat="42.88589" lon="1.32756">
        <ele>772</ele>
        <time>2025-09-27T14:25:38.000Z</time>
      </trkpt>
      <trkpt lat="42.88595" lon="1.32756">
        <ele>772</ele>
        <time>2025-09-27T14:25:39.000Z</time>
      </trkpt>
      <trkpt lat="42.88601" lon="1.32755">
        <ele>772</ele>
        <time>2025-09-27T14:25:40.000Z</time>
      </trkpt>
      <trkpt lat="42.88607" lon="1.32754">
        <ele>772</ele>
        <time>2025-09-27T14:25:41.000Z</time>
      </trkpt>
      <trkpt lat="42.88613" lon="1.32753">
        <ele>772</ele>
        <time>2025-09-27T14:25:42.000Z</time>
      </trkpt>
      <trkpt lat="42.88619" lon="1.32753">
        <ele>772</ele>
        <time>2025-09-27T14:25:43.000Z</time>
      </trkpt>
      <trkpt lat="42.88624" lon="1.32753">
        <ele>771</ele>
        <time>2025-09-27T14:25:44.000Z</time>
      </trkpt>
      <trkpt lat="42.8863" lon="1.32755">
        <ele>771</ele>
        <time>2025-09-27T14:25:45.000Z</time>
      </trkpt>
      <trkpt lat="42.88635" lon="1.32756">
        <ele>771</ele>
        <time>2025-09-27T14:25:46.000Z</time>
      </trkpt>
      <trkpt lat="42.88639" lon="1.32757">
        <ele>770</ele>
        <time>2025-09-27T14:25:47.000Z</time>
      </trkpt>
      <trkpt lat="42.88645" lon="1.3276">
        <ele>770</ele>
        <time>2025-09-27T14:25:48.000Z</time>
      </trkpt>
      <trkpt lat="42.88649" lon="1.32762">
        <ele>770</ele>
        <time>2025-09-27T14:25:49.000Z</time>
      </trkpt>
      <trkpt lat="42.88653" lon="1.32763">
        <ele>771</ele>
        <time>2025-09-27T14:25:50.000Z</time>
      </trkpt>
      <trkpt lat="42.88656" lon="1.32765">
        <ele>770</ele>
        <time>2025-09-27T14:25:51.000Z</time>
      </trkpt>
      <trkpt lat="42.88661" lon="1.32769">
        <ele>770</ele>
        <time>2025-09-27T14:25:52.000Z</time>
      </trkpt>
      <trkpt lat="42.88664" lon="1.32772">
        <ele>770</ele>
        <time>2025-09-27T14:25:53.000Z</time>
      </trkpt>
      <trkpt lat="42.88667" lon="1.32775">
        <ele>770</ele>
        <time>2025-09-27T14:25:54.000Z</time>
      </trkpt>
      <trkpt lat="42.8867" lon="1.32778">
        <ele>770</ele>
        <time>2025-09-27T14:25:55.000Z</time>
      </trkpt>
      <trkpt lat="42.88674" lon="1.32783">
        <ele>770</ele>
        <time>2025-09-27T14:25:56.000Z</time>
      </trkpt>
      <trkpt lat="42.88677" lon="1.32788">
        <ele>769</ele>
        <time>2025-09-27T14:25:57.000Z</time>
      </trkpt>
      <trkpt lat="42.88681" lon="1.32795">
        <ele>769</ele>
        <time>2025-09-27T14:25:58.000Z</time>
      </trkpt>
      <trkpt lat="42.88684" lon="1.32802">
        <ele>768</ele>
        <time>2025-09-27T14:25:59.000Z</time>
      </trkpt>
      <trkpt lat="42.88687" lon="1.32807">
        <ele>768</ele>
        <time>2025-09-27T14:26:00.000Z</time>
      </trkpt>
      <trkpt lat="42.88689" lon="1.32813">
        <ele>768</ele>
        <time>2025-09-27T14:26:01.000Z</time>
      </trkpt>
      <trkpt lat="42.8869" lon="1.3282">
        <ele>768</ele>
        <time>2025-09-27T14:26:02.000Z</time>
      </trkpt>
      <trkpt lat="42.88691" lon="1.32825">
        <ele>768</ele>
        <time>2025-09-27T14:26:03.000Z</time>
      </trkpt>
      <trkpt lat="42.88692" lon="1.3283">
        <ele>768</ele>
        <time>2025-09-27T14:26:04.000Z</time>
      </trkpt>
      <trkpt lat="42.88693" lon="1.32837">
        <ele>768</ele>
        <time>2025-09-27T14:26:05.000Z</time>
      </trkpt>
      <trkpt lat="42.88694" lon="1.32843">
        <ele>768</ele>
        <time>2025-09-27T14:26:06.000Z</time>
      </trkpt>
      <trkpt lat="42.88695" lon="1.32849">
        <ele>768</ele>
        <time>2025-09-27T14:26:07.000Z</time>
      </trkpt>
      <trkpt lat="42.88695" lon="1.32856">
        <ele>768</ele>
        <time>2025-09-27T14:26:08.000Z</time>
      </trkpt>
      <trkpt lat="42.88694" lon="1.32863">
        <ele>768</ele>
        <time>2025-09-27T14:26:09.000Z</time>
      </trkpt>
      <trkpt lat="42.88693" lon="1.32869">
        <ele>767</ele>
        <time>2025-09-27T14:26:10.000Z</time>
      </trkpt>
      <trkpt lat="42.88692" lon="1.32875">
        <ele>767</ele>
        <time>2025-09-27T14:26:11.000Z</time>
      </trkpt>
      <trkpt lat="42.88692" lon="1.32882">
        <ele>767</ele>
        <time>2025-09-27T14:26:12.000Z</time>
      </trkpt>
      <trkpt lat="42.88692" lon="1.3289">
        <ele>767</ele>
        <time>2025-09-27T14:26:13.000Z</time>
      </trkpt>
      <trkpt lat="42.88691" lon="1.32898">
        <ele>766</ele>
        <time>2025-09-27T14:26:14.000Z</time>
      </trkpt>
      <trkpt lat="42.88691" lon="1.32905">
        <ele>766</ele>
        <time>2025-09-27T14:26:15.000Z</time>
      </trkpt>
      <trkpt lat="42.8869" lon="1.32912">
        <ele>766</ele>
        <time>2025-09-27T14:26:16.000Z</time>
      </trkpt>
      <trkpt lat="42.88689" lon="1.3292">
        <ele>766</ele>
        <time>2025-09-27T14:26:17.000Z</time>
      </trkpt>
      <trkpt lat="42.8869" lon="1.32928">
        <ele>765</ele>
        <time>2025-09-27T14:26:18.000Z</time>
      </trkpt>
      <trkpt lat="42.88692" lon="1.32934">
        <ele>766</ele>
        <time>2025-09-27T14:26:19.000Z</time>
      </trkpt>
      <trkpt lat="42.88695" lon="1.32939">
        <ele>766</ele>
        <time>2025-09-27T14:26:20.000Z</time>
      </trkpt>
      <trkpt lat="42.88698" lon="1.32944">
        <ele>765</ele>
        <time>2025-09-27T14:26:21.000Z</time>
      </trkpt>
      <trkpt lat="42.88701" lon="1.3295">
        <ele>766</ele>
        <time>2025-09-27T14:26:22.000Z</time>
      </trkpt>
      <trkpt lat="42.88706" lon="1.32955">
        <ele>766</ele>
        <time>2025-09-27T14:26:23.000Z</time>
      </trkpt>
      <trkpt lat="42.88709" lon="1.32959">
        <ele>766</ele>
        <time>2025-09-27T14:26:24.000Z</time>
      </trkpt>
      <trkpt lat="42.88713" lon="1.32962">
        <ele>767</ele>
        <time>2025-09-27T14:26:25.000Z</time>
      </trkpt>
      <trkpt lat="42.88716" lon="1.32966">
        <ele>766</ele>
        <time>2025-09-27T14:26:26.000Z</time>
      </trkpt>
      <trkpt lat="42.88719" lon="1.32968">
        <ele>766</ele>
        <time>2025-09-27T14:26:27.000Z</time>
      </trkpt>
      <trkpt lat="42.88723" lon="1.32971">
        <ele>766</ele>
        <time>2025-09-27T14:26:28.000Z</time>
      </trkpt>
      <trkpt lat="42.88727" lon="1.32974">
        <ele>766</ele>
        <time>2025-09-27T14:26:29.000Z</time>
      </trkpt>
      <trkpt lat="42.8873" lon="1.32978">
        <ele>766</ele>
        <time>2025-09-27T14:26:30.000Z</time>
      </trkpt>
      <trkpt lat="42.88733" lon="1.32984">
        <ele>766</ele>
        <time>2025-09-27T14:26:31.000Z</time>
      </trkpt>
      <trkpt lat="42.88737" lon="1.32989">
        <ele>766</ele>
        <time>2025-09-27T14:26:32.000Z</time>
      </trkpt>
      <trkpt lat="42.88741" lon="1.32996">
        <ele>765</ele>
        <time>2025-09-27T14:26:33.000Z</time>
      </trkpt>
      <trkpt lat="42.88746" lon="1.33001">
        <ele>765</ele>
        <time>2025-09-27T14:26:34.000Z</time>
      </trkpt>
      <trkpt lat="42.8875" lon="1.33007">
        <ele>765</ele>
        <time>2025-09-27T14:26:35.000Z</time>
      </trkpt>
      <trkpt lat="42.88754" lon="1.33013">
        <ele>765</ele>
        <time>2025-09-27T14:26:36.000Z</time>
      </trkpt>
      <trkpt lat="42.88759" lon="1.33019">
        <ele>765</ele>
        <time>2025-09-27T14:26:37.000Z</time>
      </trkpt>
      <trkpt lat="42.88763" lon="1.33024">
        <ele>765</ele>
        <time>2025-09-27T14:26:38.000Z</time>
      </trkpt>
      <trkpt lat="42.88766" lon="1.3303">
        <ele>765</ele>
        <time>2025-09-27T14:26:39.000Z</time>
      </trkpt>
      <trkpt lat="42.8877" lon="1.33034">
        <ele>766</ele>
        <time>2025-09-27T14:26:40.000Z</time>
      </trkpt>
      <trkpt lat="42.88773" lon="1.3304">
        <ele>765</ele>
        <time>2025-09-27T14:26:41.000Z</time>
      </trkpt>
      <trkpt lat="42.88776" lon="1.33044">
        <ele>766</ele>
        <time>2025-09-27T14:26:42.000Z</time>
      </trkpt>
      <trkpt lat="42.88779" lon="1.33049">
        <ele>766</ele>
        <time>2025-09-27T14:26:43.000Z</time>
      </trkpt>
      <trkpt lat="42.88783" lon="1.33054">
        <ele>767</ele>
        <time>2025-09-27T14:26:44.000Z</time>
      </trkpt>
      <trkpt lat="42.88786" lon="1.33058">
        <ele>766</ele>
        <time>2025-09-27T14:26:45.000Z</time>
      </trkpt>
      <trkpt lat="42.8879" lon="1.33063">
        <ele>766</ele>
        <time>2025-09-27T14:26:46.000Z</time>
      </trkpt>
      <trkpt lat="42.88793" lon="1.33068">
        <ele>765</ele>
        <time>2025-09-27T14:26:47.000Z</time>
      </trkpt>
      <trkpt lat="42.88797" lon="1.33072">
        <ele>766</ele>
        <time>2025-09-27T14:26:48.000Z</time>
      </trkpt>
      <trkpt lat="42.88799" lon="1.33075">
        <ele>766</ele>
        <time>2025-09-27T14:26:49.000Z</time>
      </trkpt>
      <trkpt lat="42.88801" lon="1.33079">
        <ele>766</ele>
        <time>2025-09-27T14:26:50.000Z</time>
      </trkpt>
      <trkpt lat="42.88803" lon="1.33082">
        <ele>766</ele>
        <time>2025-09-27T14:26:51.000Z</time>
      </trkpt>
      <trkpt lat="42.88804" lon="1.33086">
        <ele>766</ele>
        <time>2025-09-27T14:26:52.000Z</time>
      </trkpt>
      <trkpt lat="42.88806" lon="1.33089">
        <ele>766</ele>
        <time>2025-09-27T14:26:53.000Z</time>
      </trkpt>
      <trkpt lat="42.88808" lon="1.33093">
        <ele>766</ele>
        <time>2025-09-27T14:26:54.000Z</time>
      </trkpt>
      <trkpt lat="42.88811" lon="1.33096">
        <ele>765</ele>
        <time>2025-09-27T14:26:55.000Z</time>
      </trkpt>
      <trkpt lat="42.88813" lon="1.33101">
        <ele>765</ele>
        <time>2025-09-27T14:26:56.000Z</time>
      </trkpt>
      <trkpt lat="42.88815" lon="1.33105">
        <ele>765</ele>
        <time>2025-09-27T14:26:57.000Z</time>
      </trkpt>
      <trkpt lat="42.88818" lon="1.3311">
        <ele>765</ele>
        <time>2025-09-27T14:26:58.000Z</time>
      </trkpt>
      <trkpt lat="42.8882" lon="1.33117">
        <ele>764</ele>
        <time>2025-09-27T14:26:59.000Z</time>
      </trkpt>
      <trkpt lat="42.88821" lon="1.33126">
        <ele>764</ele>
        <time>2025-09-27T14:27:00.000Z</time>
      </trkpt>
      <trkpt lat="42.88823" lon="1.33135">
        <ele>763</ele>
        <time>2025-09-27T14:27:01.000Z</time>
      </trkpt>
      <trkpt lat="42.88826" lon="1.33143">
        <ele>763</ele>
        <time>2025-09-27T14:27:02.000Z</time>
      </trkpt>
      <trkpt lat="42.88828" lon="1.33151">
        <ele>762</ele>
        <time>2025-09-27T14:27:03.000Z</time>
      </trkpt>
      <trkpt lat="42.88832" lon="1.3316">
        <ele>762</ele>
        <time>2025-09-27T14:27:04.000Z</time>
      </trkpt>
      <trkpt lat="42.88835" lon="1.33168">
        <ele>761</ele>
        <time>2025-09-27T14:27:05.000Z</time>
      </trkpt>
      <trkpt lat="42.88836" lon="1.33177">
        <ele>760</ele>
        <time>2025-09-27T14:27:06.000Z</time>
      </trkpt>
      <trkpt lat="42.88839" lon="1.33187">
        <ele>759</ele>
        <time>2025-09-27T14:27:07.000Z</time>
      </trkpt>
      <trkpt lat="42.88841" lon="1.33198">
        <ele>759</ele>
        <time>2025-09-27T14:27:08.000Z</time>
      </trkpt>
      <trkpt lat="42.88845" lon="1.33209">
        <ele>758</ele>
        <time>2025-09-27T14:27:09.000Z</time>
      </trkpt>
      <trkpt lat="42.88848" lon="1.3322">
        <ele>758</ele>
        <time>2025-09-27T14:27:10.000Z</time>
      </trkpt>
      <trkpt lat="42.88851" lon="1.33231">
        <ele>757</ele>
        <time>2025-09-27T14:27:11.000Z</time>
      </trkpt>
      <trkpt lat="42.88854" lon="1.33243">
        <ele>757</ele>
        <time>2025-09-27T14:27:12.000Z</time>
      </trkpt>
      <trkpt lat="42.88856" lon="1.33254">
        <ele>756</ele>
        <time>2025-09-27T14:27:13.000Z</time>
      </trkpt>
      <trkpt lat="42.88857" lon="1.33263">
        <ele>756</ele>
        <time>2025-09-27T14:27:14.000Z</time>
      </trkpt>
      <trkpt lat="42.88858" lon="1.33272">
        <ele>755</ele>
        <time>2025-09-27T14:27:15.000Z</time>
      </trkpt>
      <trkpt lat="42.8886" lon="1.3328">
        <ele>754</ele>
        <time>2025-09-27T14:27:16.000Z</time>
      </trkpt>
      <trkpt lat="42.88861" lon="1.33289">
        <ele>754</ele>
        <time>2025-09-27T14:27:17.000Z</time>
      </trkpt>
      <trkpt lat="42.88862" lon="1.33297">
        <ele>754</ele>
        <time>2025-09-27T14:27:18.000Z</time>
      </trkpt>
      <trkpt lat="42.88864" lon="1.33305">
        <ele>754</ele>
        <time>2025-09-27T14:27:19.000Z</time>
      </trkpt>
      <trkpt lat="42.88866" lon="1.33312">
        <ele>755</ele>
        <time>2025-09-27T14:27:20.000Z</time>
      </trkpt>
      <trkpt lat="42.88869" lon="1.3332">
        <ele>754</ele>
        <time>2025-09-27T14:27:21.000Z</time>
      </trkpt>
      <trkpt lat="42.88871" lon="1.33329">
        <ele>755</ele>
        <time>2025-09-27T14:27:22.000Z</time>
      </trkpt>
      <trkpt lat="42.88873" lon="1.33337">
        <ele>755</ele>
        <time>2025-09-27T14:27:23.000Z</time>
      </trkpt>
      <trkpt lat="42.88875" lon="1.33345">
        <ele>754</ele>
        <time>2025-09-27T14:27:24.000Z</time>
      </trkpt>
      <trkpt lat="42.88877" lon="1.33354">
        <ele>754</ele>
        <time>2025-09-27T14:27:25.000Z</time>
      </trkpt>
      <trkpt lat="42.88879" lon="1.33363">
        <ele>754</ele>
        <time>2025-09-27T14:27:26.000Z</time>
      </trkpt>
      <trkpt lat="42.8888" lon="1.33372">
        <ele>753</ele>
        <time>2025-09-27T14:27:27.000Z</time>
      </trkpt>
      <trkpt lat="42.88881" lon="1.33382">
        <ele>752</ele>
        <time>2025-09-27T14:27:28.000Z</time>
      </trkpt>
      <trkpt lat="42.88881" lon="1.33392">
        <ele>751</ele>
        <time>2025-09-27T14:27:29.000Z</time>
      </trkpt>
      <trkpt lat="42.88881" lon="1.33402">
        <ele>751</ele>
        <time>2025-09-27T14:27:30.000Z</time>
      </trkpt>
      <trkpt lat="42.88881" lon="1.33412">
        <ele>751</ele>
        <time>2025-09-27T14:27:31.000Z</time>
      </trkpt>
      <trkpt lat="42.88881" lon="1.33421">
        <ele>750</ele>
        <time>2025-09-27T14:27:32.000Z</time>
      </trkpt>
      <trkpt lat="42.88882" lon="1.3343">
        <ele>750</ele>
        <time>2025-09-27T14:27:33.000Z</time>
      </trkpt>
      <trkpt lat="42.88884" lon="1.33438">
        <ele>750</ele>
        <time>2025-09-27T14:27:34.000Z</time>
      </trkpt>
      <trkpt lat="42.88888" lon="1.33444">
        <ele>749</ele>
        <time>2025-09-27T14:27:35.000Z</time>
      </trkpt>
      <trkpt lat="42.88893" lon="1.3345">
        <ele>749</ele>
        <time>2025-09-27T14:27:36.000Z</time>
      </trkpt>
      <trkpt lat="42.88898" lon="1.33456">
        <ele>748</ele>
        <time>2025-09-27T14:27:37.000Z</time>
      </trkpt>
      <trkpt lat="42.88904" lon="1.33461">
        <ele>747</ele>
        <time>2025-09-27T14:27:38.000Z</time>
      </trkpt>
      <trkpt lat="42.8891" lon="1.33467">
        <ele>747</ele>
        <time>2025-09-27T14:27:39.000Z</time>
      </trkpt>
      <trkpt lat="42.88915" lon="1.33473">
        <ele>746</ele>
        <time>2025-09-27T14:27:40.000Z</time>
      </trkpt>
      <trkpt lat="42.8892" lon="1.3348">
        <ele>746</ele>
        <time>2025-09-27T14:27:41.000Z</time>
      </trkpt>
      <trkpt lat="42.88925" lon="1.33487">
        <ele>745</ele>
        <time>2025-09-27T14:27:42.000Z</time>
      </trkpt>
      <trkpt lat="42.88931" lon="1.33494">
        <ele>745</ele>
        <time>2025-09-27T14:27:43.000Z</time>
      </trkpt>
      <trkpt lat="42.88936" lon="1.33499">
        <ele>744</ele>
        <time>2025-09-27T14:27:44.000Z</time>
      </trkpt>
      <trkpt lat="42.88941" lon="1.33505">
        <ele>744</ele>
        <time>2025-09-27T14:27:45.000Z</time>
      </trkpt>
      <trkpt lat="42.88947" lon="1.3351">
        <ele>744</ele>
        <time>2025-09-27T14:27:46.000Z</time>
      </trkpt>
      <trkpt lat="42.88953" lon="1.33516">
        <ele>743</ele>
        <time>2025-09-27T14:27:47.000Z</time>
      </trkpt>
      <trkpt lat="42.88958" lon="1.33523">
        <ele>743</ele>
        <time>2025-09-27T14:27:48.000Z</time>
      </trkpt>
      <trkpt lat="42.88963" lon="1.33529">
        <ele>742</ele>
        <time>2025-09-27T14:27:49.000Z</time>
      </trkpt>
      <trkpt lat="42.88967" lon="1.33538">
        <ele>741</ele>
        <time>2025-09-27T14:27:50.000Z</time>
      </trkpt>
      <trkpt lat="42.88971" lon="1.33546">
        <ele>741</ele>
        <time>2025-09-27T14:27:51.000Z</time>
      </trkpt>
      <trkpt lat="42.88975" lon="1.33555">
        <ele>741</ele>
        <time>2025-09-27T14:27:52.000Z</time>
      </trkpt>
      <trkpt lat="42.88977" lon="1.33564">
        <ele>741</ele>
        <time>2025-09-27T14:27:53.000Z</time>
      </trkpt>
      <trkpt lat="42.8898" lon="1.33573">
        <ele>741</ele>
        <time>2025-09-27T14:27:54.000Z</time>
      </trkpt>
      <trkpt lat="42.88983" lon="1.33582">
        <ele>741</ele>
        <time>2025-09-27T14:27:55.000Z</time>
      </trkpt>
      <trkpt lat="42.88986" lon="1.3359">
        <ele>740</ele>
        <time>2025-09-27T14:27:56.000Z</time>
      </trkpt>
      <trkpt lat="42.88988" lon="1.33597">
        <ele>740</ele>
        <time>2025-09-27T14:27:57.000Z</time>
      </trkpt>
      <trkpt lat="42.88988" lon="1.33604">
        <ele>740</ele>
        <time>2025-09-27T14:27:58.000Z</time>
      </trkpt>
      <trkpt lat="42.88987" lon="1.3361">
        <ele>740</ele>
        <time>2025-09-27T14:27:59.000Z</time>
      </trkpt>
      <trkpt lat="42.88983" lon="1.33614">
        <ele>740</ele>
        <time>2025-09-27T14:28:00.000Z</time>
      </trkpt>
      <trkpt lat="42.88978" lon="1.33616">
        <ele>740</ele>
        <time>2025-09-27T14:28:01.000Z</time>
      </trkpt>
      <trkpt lat="42.88972" lon="1.33616">
        <ele>740</ele>
        <time>2025-09-27T14:28:02.000Z</time>
      </trkpt>
      <trkpt lat="42.88966" lon="1.33615">
        <ele>739</ele>
        <time>2025-09-27T14:28:03.000Z</time>
      </trkpt>
      <trkpt lat="42.88961" lon="1.33613">
        <ele>739</ele>
        <time>2025-09-27T14:28:04.000Z</time>
      </trkpt>
      <trkpt lat="42.88955" lon="1.33611">
        <ele>738</ele>
        <time>2025-09-27T14:28:05.000Z</time>
      </trkpt>
      <trkpt lat="42.88949" lon="1.33609">
        <ele>738</ele>
        <time>2025-09-27T14:28:06.000Z</time>
      </trkpt>
      <trkpt lat="42.88942" lon="1.33607">
        <ele>738</ele>
        <time>2025-09-27T14:28:07.000Z</time>
      </trkpt>
      <trkpt lat="42.88935" lon="1.33605">
        <ele>738</ele>
        <time>2025-09-27T14:28:08.000Z</time>
      </trkpt>
      <trkpt lat="42.88928" lon="1.33602">
        <ele>738</ele>
        <time>2025-09-27T14:28:09.000Z</time>
      </trkpt>
      <trkpt lat="42.88921" lon="1.336">
        <ele>737</ele>
        <time>2025-09-27T14:28:10.000Z</time>
      </trkpt>
      <trkpt lat="42.88913" lon="1.33598">
        <ele>736</ele>
        <time>2025-09-27T14:28:11.000Z</time>
      </trkpt>
      <trkpt lat="42.88905" lon="1.33597">
        <ele>735</ele>
        <time>2025-09-27T14:28:12.000Z</time>
      </trkpt>
      <trkpt lat="42.88897" lon="1.33597">
        <ele>735</ele>
        <time>2025-09-27T14:28:13.000Z</time>
      </trkpt>
      <trkpt lat="42.88889" lon="1.33598">
        <ele>734</ele>
        <time>2025-09-27T14:28:14.000Z</time>
      </trkpt>
      <trkpt lat="42.8888" lon="1.33598">
        <ele>733</ele>
        <time>2025-09-27T14:28:15.000Z</time>
      </trkpt>
      <trkpt lat="42.88872" lon="1.33598">
        <ele>733</ele>
        <time>2025-09-27T14:28:16.000Z</time>
      </trkpt>
      <trkpt lat="42.88864" lon="1.33599">
        <ele>732</ele>
        <time>2025-09-27T14:28:17.000Z</time>
      </trkpt>
      <trkpt lat="42.88856" lon="1.33599">
        <ele>731</ele>
        <time>2025-09-27T14:28:18.000Z</time>
      </trkpt>
      <trkpt lat="42.88848" lon="1.336">
        <ele>731</ele>
        <time>2025-09-27T14:28:19.000Z</time>
      </trkpt>
      <trkpt lat="42.8884" lon="1.33602">
        <ele>730</ele>
        <time>2025-09-27T14:28:20.000Z</time>
      </trkpt>
      <trkpt lat="42.88835" lon="1.3361">
        <ele>730</ele>
        <time>2025-09-27T14:28:21.000Z</time>
      </trkpt>
      <trkpt lat="42.88834" lon="1.33623">
        <ele>729</ele>
        <time>2025-09-27T14:28:22.000Z</time>
      </trkpt>
      <trkpt lat="42.88837" lon="1.33633">
        <ele>729</ele>
        <time>2025-09-27T14:28:23.000Z</time>
      </trkpt>
      <trkpt lat="42.88842" lon="1.33643">
        <ele>728</ele>
        <time>2025-09-27T14:28:24.000Z</time>
      </trkpt>
      <trkpt lat="42.88847" lon="1.33651">
        <ele>728</ele>
        <time>2025-09-27T14:28:25.000Z</time>
      </trkpt>
      <trkpt lat="42.88853" lon="1.33658">
        <ele>728</ele>
        <time>2025-09-27T14:28:26.000Z</time>
      </trkpt>
      <trkpt lat="42.88858" lon="1.33665">
        <ele>728</ele>
        <time>2025-09-27T14:28:27.000Z</time>
      </trkpt>
      <trkpt lat="42.88863" lon="1.33671">
        <ele>728</ele>
        <time>2025-09-27T14:28:28.000Z</time>
      </trkpt>
      <trkpt lat="42.88868" lon="1.33677">
        <ele>727</ele>
        <time>2025-09-27T14:28:29.000Z</time>
      </trkpt>
      <trkpt lat="42.88872" lon="1.33683">
        <ele>727</ele>
        <time>2025-09-27T14:28:30.000Z</time>
      </trkpt>
      <trkpt lat="42.88875" lon="1.33688">
        <ele>726</ele>
        <time>2025-09-27T14:28:31.000Z</time>
      </trkpt>
      <trkpt lat="42.88879" lon="1.33694">
        <ele>726</ele>
        <time>2025-09-27T14:28:32.000Z</time>
      </trkpt>
      <trkpt lat="42.88882" lon="1.33701">
        <ele>725</ele>
        <time>2025-09-27T14:28:33.000Z</time>
      </trkpt>
      <trkpt lat="42.88886" lon="1.33706">
        <ele>725</ele>
        <time>2025-09-27T14:28:34.000Z</time>
      </trkpt>
      <trkpt lat="42.88889" lon="1.33713">
        <ele>725</ele>
        <time>2025-09-27T14:28:35.000Z</time>
      </trkpt>
      <trkpt lat="42.88891" lon="1.33719">
        <ele>724</ele>
        <time>2025-09-27T14:28:36.000Z</time>
      </trkpt>
      <trkpt lat="42.88895" lon="1.33725">
        <ele>723</ele>
        <time>2025-09-27T14:28:37.000Z</time>
      </trkpt>
      <trkpt lat="42.88898" lon="1.33731">
        <ele>722</ele>
        <time>2025-09-27T14:28:38.000Z</time>
      </trkpt>
      <trkpt lat="42.88901" lon="1.33737">
        <ele>721</ele>
        <time>2025-09-27T14:28:39.000Z</time>
      </trkpt>
      <trkpt lat="42.88905" lon="1.33745">
        <ele>720</ele>
        <time>2025-09-27T14:28:40.000Z</time>
      </trkpt>
      <trkpt lat="42.88907" lon="1.33753">
        <ele>719</ele>
        <time>2025-09-27T14:28:41.000Z</time>
      </trkpt>
      <trkpt lat="42.88911" lon="1.33762">
        <ele>719</ele>
        <time>2025-09-27T14:28:42.000Z</time>
      </trkpt>
      <trkpt lat="42.88914" lon="1.3377">
        <ele>719</ele>
        <time>2025-09-27T14:28:43.000Z</time>
      </trkpt>
      <trkpt lat="42.88917" lon="1.33778">
        <ele>719</ele>
        <time>2025-09-27T14:28:44.000Z</time>
      </trkpt>
      <trkpt lat="42.8892" lon="1.33786">
        <ele>719</ele>
        <time>2025-09-27T14:28:45.000Z</time>
      </trkpt>
      <trkpt lat="42.88922" lon="1.33795">
        <ele>719</ele>
        <time>2025-09-27T14:28:46.000Z</time>
      </trkpt>
      <trkpt lat="42.88925" lon="1.33806">
        <ele>720</ele>
        <time>2025-09-27T14:28:47.000Z</time>
      </trkpt>
      <trkpt lat="42.88927" lon="1.33815">
        <ele>720</ele>
        <time>2025-09-27T14:28:48.000Z</time>
      </trkpt>
      <trkpt lat="42.88928" lon="1.33824">
        <ele>719</ele>
        <time>2025-09-27T14:28:49.000Z</time>
      </trkpt>
      <trkpt lat="42.88929" lon="1.33832">
        <ele>719</ele>
        <time>2025-09-27T14:28:50.000Z</time>
      </trkpt>
      <trkpt lat="42.8893" lon="1.33841">
        <ele>719</ele>
        <time>2025-09-27T14:28:51.000Z</time>
      </trkpt>
      <trkpt lat="42.88932" lon="1.3385">
        <ele>719</ele>
        <time>2025-09-27T14:28:52.000Z</time>
      </trkpt>
      <trkpt lat="42.88934" lon="1.33857">
        <ele>720</ele>
        <time>2025-09-27T14:28:53.000Z</time>
      </trkpt>
      <trkpt lat="42.88936" lon="1.33864">
        <ele>720</ele>
        <time>2025-09-27T14:28:54.000Z</time>
      </trkpt>
      <trkpt lat="42.88938" lon="1.33871">
        <ele>720</ele>
        <time>2025-09-27T14:28:55.000Z</time>
      </trkpt>
      <trkpt lat="42.8894" lon="1.33878">
        <ele>720</ele>
        <time>2025-09-27T14:28:56.000Z</time>
      </trkpt>
      <trkpt lat="42.88942" lon="1.33886">
        <ele>720</ele>
        <time>2025-09-27T14:28:57.000Z</time>
      </trkpt>
      <trkpt lat="42.88944" lon="1.33893">
        <ele>720</ele>
        <time>2025-09-27T14:28:58.000Z</time>
      </trkpt>
      <trkpt lat="42.88947" lon="1.33899">
        <ele>721</ele>
        <time>2025-09-27T14:28:59.000Z</time>
      </trkpt>
      <trkpt lat="42.88949" lon="1.33907">
        <ele>720</ele>
        <time>2025-09-27T14:29:00.000Z</time>
      </trkpt>
      <trkpt lat="42.88951" lon="1.33914">
        <ele>720</ele>
        <time>2025-09-27T14:29:01.000Z</time>
      </trkpt>
      <trkpt lat="42.88954" lon="1.33921">
        <ele>720</ele>
        <time>2025-09-27T14:29:02.000Z</time>
      </trkpt>
      <trkpt lat="42.88956" lon="1.33928">
        <ele>719</ele>
        <time>2025-09-27T14:29:03.000Z</time>
      </trkpt>
      <trkpt lat="42.88959" lon="1.33935">
        <ele>718</ele>
        <time>2025-09-27T14:29:04.000Z</time>
      </trkpt>
      <trkpt lat="42.88962" lon="1.33943">
        <ele>718</ele>
        <time>2025-09-27T14:29:05.000Z</time>
      </trkpt>
      <trkpt lat="42.88964" lon="1.33951">
        <ele>717</ele>
        <time>2025-09-27T14:29:06.000Z</time>
      </trkpt>
      <trkpt lat="42.88966" lon="1.33959">
        <ele>716</ele>
        <time>2025-09-27T14:29:07.000Z</time>
      </trkpt>
      <trkpt lat="42.88968" lon="1.33967">
        <ele>716</ele>
        <time>2025-09-27T14:29:08.000Z</time>
      </trkpt>
      <trkpt lat="42.8897" lon="1.33976">
        <ele>715</ele>
        <time>2025-09-27T14:29:09.000Z</time>
      </trkpt>
      <trkpt lat="42.88971" lon="1.33985">
        <ele>714</ele>
        <time>2025-09-27T14:29:10.000Z</time>
      </trkpt>
      <trkpt lat="42.88972" lon="1.33993">
        <ele>713</ele>
        <time>2025-09-27T14:29:11.000Z</time>
      </trkpt>
      <trkpt lat="42.88974" lon="1.34002">
        <ele>712</ele>
        <time>2025-09-27T14:29:12.000Z</time>
      </trkpt>
      <trkpt lat="42.88976" lon="1.3401">
        <ele>711</ele>
        <time>2025-09-27T14:29:13.000Z</time>
      </trkpt>
      <trkpt lat="42.88977" lon="1.34019">
        <ele>710</ele>
        <time>2025-09-27T14:29:14.000Z</time>
      </trkpt>
      <trkpt lat="42.88978" lon="1.34027">
        <ele>709</ele>
        <time>2025-09-27T14:29:15.000Z</time>
      </trkpt>
      <trkpt lat="42.88979" lon="1.34035">
        <ele>709</ele>
        <time>2025-09-27T14:29:16.000Z</time>
      </trkpt>
      <trkpt lat="42.8898" lon="1.34044">
        <ele>708</ele>
        <time>2025-09-27T14:29:17.000Z</time>
      </trkpt>
      <trkpt lat="42.88981" lon="1.34052">
        <ele>708</ele>
        <time>2025-09-27T14:29:18.000Z</time>
      </trkpt>
      <trkpt lat="42.88981" lon="1.3406">
        <ele>708</ele>
        <time>2025-09-27T14:29:19.000Z</time>
      </trkpt>
      <trkpt lat="42.88981" lon="1.34069">
        <ele>708</ele>
        <time>2025-09-27T14:29:20.000Z</time>
      </trkpt>
      <trkpt lat="42.8898" lon="1.34079">
        <ele>707</ele>
        <time>2025-09-27T14:29:21.000Z</time>
      </trkpt>
      <trkpt lat="42.88978" lon="1.34089">
        <ele>707</ele>
        <time>2025-09-27T14:29:22.000Z</time>
      </trkpt>
      <trkpt lat="42.88977" lon="1.34098">
        <ele>707</ele>
        <time>2025-09-27T14:29:23.000Z</time>
      </trkpt>
      <trkpt lat="42.88976" lon="1.34108">
        <ele>707</ele>
        <time>2025-09-27T14:29:24.000Z</time>
      </trkpt>
      <trkpt lat="42.88975" lon="1.34117">
        <ele>706</ele>
        <time>2025-09-27T14:29:25.000Z</time>
      </trkpt>
      <trkpt lat="42.88974" lon="1.34125">
        <ele>706</ele>
        <time>2025-09-27T14:29:26.000Z</time>
      </trkpt>
      <trkpt lat="42.88972" lon="1.34134">
        <ele>706</ele>
        <time>2025-09-27T14:29:27.000Z</time>
      </trkpt>
      <trkpt lat="42.88971" lon="1.34142">
        <ele>706</ele>
        <time>2025-09-27T14:29:28.000Z</time>
      </trkpt>
      <trkpt lat="42.8897" lon="1.34149">
        <ele>706</ele>
        <time>2025-09-27T14:29:29.000Z</time>
      </trkpt>
      <trkpt lat="42.88969" lon="1.34156">
        <ele>706</ele>
        <time>2025-09-27T14:29:30.000Z</time>
      </trkpt>
      <trkpt lat="42.8897" lon="1.34164">
        <ele>705</ele>
        <time>2025-09-27T14:29:31.000Z</time>
      </trkpt>
      <trkpt lat="42.88971" lon="1.34171">
        <ele>705</ele>
        <time>2025-09-27T14:29:32.000Z</time>
      </trkpt>
      <trkpt lat="42.88972" lon="1.34178">
        <ele>705</ele>
        <time>2025-09-27T14:29:33.000Z</time>
      </trkpt>
      <trkpt lat="42.88973" lon="1.34185">
        <ele>706</ele>
        <time>2025-09-27T14:29:34.000Z</time>
      </trkpt>
      <trkpt lat="42.88974" lon="1.34193">
        <ele>706</ele>
        <time>2025-09-27T14:29:35.000Z</time>
      </trkpt>
      <trkpt lat="42.88976" lon="1.34201">
        <ele>705</ele>
        <time>2025-09-27T14:29:36.000Z</time>
      </trkpt>
      <trkpt lat="42.88977" lon="1.34208">
        <ele>705</ele>
        <time>2025-09-27T14:29:37.000Z</time>
      </trkpt>
      <trkpt lat="42.88978" lon="1.34216">
        <ele>705</ele>
        <time>2025-09-27T14:29:38.000Z</time>
      </trkpt>
      <trkpt lat="42.8898" lon="1.34224">
        <ele>704</ele>
        <time>2025-09-27T14:29:39.000Z</time>
      </trkpt>
      <trkpt lat="42.88982" lon="1.34231">
        <ele>704</ele>
        <time>2025-09-27T14:29:40.000Z</time>
      </trkpt>
      <trkpt lat="42.88984" lon="1.34239">
        <ele>704</ele>
        <time>2025-09-27T14:29:41.000Z</time>
      </trkpt>
      <trkpt lat="42.88987" lon="1.34247">
        <ele>704</ele>
        <time>2025-09-27T14:29:42.000Z</time>
      </trkpt>
      <trkpt lat="42.8899" lon="1.34255">
        <ele>704</ele>
        <time>2025-09-27T14:29:43.000Z</time>
      </trkpt>
      <trkpt lat="42.8899" lon="1.34263">
        <ele>704</ele>
        <time>2025-09-27T14:29:44.000Z</time>
      </trkpt>
      <trkpt lat="42.88989" lon="1.34273">
        <ele>704</ele>
        <time>2025-09-27T14:29:45.000Z</time>
      </trkpt>
      <trkpt lat="42.88989" lon="1.34281">
        <ele>704</ele>
        <time>2025-09-27T14:29:46.000Z</time>
      </trkpt>
      <trkpt lat="42.8899" lon="1.34291">
        <ele>704</ele>
        <time>2025-09-27T14:29:47.000Z</time>
      </trkpt>
      <trkpt lat="42.88993" lon="1.343">
        <ele>703</ele>
        <time>2025-09-27T14:29:48.000Z</time>
      </trkpt>
      <trkpt lat="42.88998" lon="1.34308">
        <ele>703</ele>
        <time>2025-09-27T14:29:49.000Z</time>
      </trkpt>
      <trkpt lat="42.89002" lon="1.34316">
        <ele>702</ele>
        <time>2025-09-27T14:29:50.000Z</time>
      </trkpt>
      <trkpt lat="42.89005" lon="1.34324">
        <ele>702</ele>
        <time>2025-09-27T14:29:51.000Z</time>
      </trkpt>
      <trkpt lat="42.89007" lon="1.34333">
        <ele>701</ele>
        <time>2025-09-27T14:29:52.000Z</time>
      </trkpt>
      <trkpt lat="42.89006" lon="1.34342">
        <ele>701</ele>
        <time>2025-09-27T14:29:53.000Z</time>
      </trkpt>
      <trkpt lat="42.89004" lon="1.34352">
        <ele>700</ele>
        <time>2025-09-27T14:29:54.000Z</time>
      </trkpt>
      <trkpt lat="42.89002" lon="1.3436">
        <ele>700</ele>
        <time>2025-09-27T14:29:55.000Z</time>
      </trkpt>
      <trkpt lat="42.89" lon="1.34369">
        <ele>699</ele>
        <time>2025-09-27T14:29:56.000Z</time>
      </trkpt>
      <trkpt lat="42.88998" lon="1.34378">
        <ele>699</ele>
        <time>2025-09-27T14:29:57.000Z</time>
      </trkpt>
      <trkpt lat="42.88996" lon="1.34387">
        <ele>700</ele>
        <time>2025-09-27T14:29:58.000Z</time>
      </trkpt>
      <trkpt lat="42.88994" lon="1.34394">
        <ele>699</ele>
        <time>2025-09-27T14:29:59.000Z</time>
      </trkpt>
      <trkpt lat="42.88992" lon="1.34402">
        <ele>699</ele>
        <time>2025-09-27T14:30:00.000Z</time>
      </trkpt>
      <trkpt lat="42.8899" lon="1.3441">
        <ele>699</ele>
        <time>2025-09-27T14:30:01.000Z</time>
      </trkpt>
      <trkpt lat="42.88988" lon="1.34418">
        <ele>699</ele>
        <time>2025-09-27T14:30:02.000Z</time>
      </trkpt>
      <trkpt lat="42.88987" lon="1.34425">
        <ele>698</ele>
        <time>2025-09-27T14:30:03.000Z</time>
      </trkpt>
      <trkpt lat="42.88985" lon="1.34432">
        <ele>698</ele>
        <time>2025-09-27T14:30:04.000Z</time>
      </trkpt>
      <trkpt lat="42.88984" lon="1.34439">
        <ele>698</ele>
        <time>2025-09-27T14:30:05.000Z</time>
      </trkpt>
      <trkpt lat="42.88983" lon="1.34445">
        <ele>697</ele>
        <time>2025-09-27T14:30:06.000Z</time>
      </trkpt>
      <trkpt lat="42.88982" lon="1.34452">
        <ele>697</ele>
        <time>2025-09-27T14:30:07.000Z</time>
      </trkpt>
      <trkpt lat="42.8898" lon="1.34459">
        <ele>697</ele>
        <time>2025-09-27T14:30:08.000Z</time>
      </trkpt>
      <trkpt lat="42.88979" lon="1.34466">
        <ele>697</ele>
        <time>2025-09-27T14:30:09.000Z</time>
      </trkpt>
      <trkpt lat="42.88978" lon="1.34472">
        <ele>697</ele>
        <time>2025-09-27T14:30:10.000Z</time>
      </trkpt>
      <trkpt lat="42.88976" lon="1.34479">
        <ele>698</ele>
        <time>2025-09-27T14:30:11.000Z</time>
      </trkpt>
      <trkpt lat="42.88973" lon="1.34481">
        <ele>698</ele>
        <time>2025-09-27T14:30:12.000Z</time>
      </trkpt>
      <trkpt lat="42.88969" lon="1.3448">
        <ele>699</ele>
        <time>2025-09-27T14:30:13.000Z</time>
      </trkpt>
      <trkpt lat="42.88965" lon="1.3448">
        <ele>698</ele>
        <time>2025-09-27T14:30:14.000Z</time>
      </trkpt>
      <trkpt lat="42.88961" lon="1.34479">
        <ele>698</ele>
        <time>2025-09-27T14:30:15.000Z</time>
      </trkpt>
      <trkpt lat="42.88957" lon="1.34479">
        <ele>697</ele>
        <time>2025-09-27T14:30:16.000Z</time>
      </trkpt>
      <trkpt lat="42.88954" lon="1.34479">
        <ele>697</ele>
        <time>2025-09-27T14:30:17.000Z</time>
      </trkpt>
      <trkpt lat="42.88949" lon="1.34479">
        <ele>697</ele>
        <time>2025-09-27T14:30:18.000Z</time>
      </trkpt>
      <trkpt lat="42.88943" lon="1.34478">
        <ele>697</ele>
        <time>2025-09-27T14:30:19.000Z</time>
      </trkpt>
      <trkpt lat="42.88938" lon="1.34478">
        <ele>697</ele>
        <time>2025-09-27T14:30:20.000Z</time>
      </trkpt>
      <trkpt lat="42.88931" lon="1.34478">
        <ele>698</ele>
        <time>2025-09-27T14:30:21.000Z</time>
      </trkpt>
      <trkpt lat="42.88926" lon="1.34478">
        <ele>698</ele>
        <time>2025-09-27T14:30:22.000Z</time>
      </trkpt>
      <trkpt lat="42.8892" lon="1.34477">
        <ele>699</ele>
        <time>2025-09-27T14:30:23.000Z</time>
      </trkpt>
      <trkpt lat="42.88915" lon="1.34477">
        <ele>699</ele>
        <time>2025-09-27T14:30:24.000Z</time>
      </trkpt>
      <trkpt lat="42.88909" lon="1.34478">
        <ele>700</ele>
        <time>2025-09-27T14:30:25.000Z</time>
      </trkpt>
      <trkpt lat="42.88902" lon="1.34478">
        <ele>701</ele>
        <time>2025-09-27T14:30:26.000Z</time>
      </trkpt>
      <trkpt lat="42.88898" lon="1.34478">
        <ele>701</ele>
        <time>2025-09-27T14:30:27.000Z</time>
      </trkpt>
      <trkpt lat="42.88893" lon="1.34478">
        <ele>701</ele>
        <time>2025-09-27T14:30:28.000Z</time>
      </trkpt>
      <trkpt lat="42.88889" lon="1.34478">
        <ele>701</ele>
        <time>2025-09-27T14:30:29.000Z</time>
      </trkpt>
      <trkpt lat="42.88884" lon="1.34478">
        <ele>701</ele>
        <time>2025-09-27T14:30:30.000Z</time>
      </trkpt>
      <trkpt lat="42.8888" lon="1.34478">
        <ele>701</ele>
        <time>2025-09-27T14:30:31.000Z</time>
      </trkpt>
      <trkpt lat="42.88876" lon="1.34478">
        <ele>702</ele>
        <time>2025-09-27T14:30:32.000Z</time>
      </trkpt>
      <trkpt lat="42.88873" lon="1.34478">
        <ele>702</ele>
        <time>2025-09-27T14:30:33.000Z</time>
      </trkpt>
      <trkpt lat="42.88868" lon="1.34481">
        <ele>702</ele>
        <time>2025-09-27T14:30:34.000Z</time>
      </trkpt>
      <trkpt lat="42.88866" lon="1.34484">
        <ele>702</ele>
        <time>2025-09-27T14:30:35.000Z</time>
      </trkpt>
      <trkpt lat="42.88864" lon="1.34487">
        <ele>702</ele>
        <time>2025-09-27T14:30:36.000Z</time>
      </trkpt>
      <trkpt lat="42.88863" lon="1.34489">
        <ele>702</ele>
        <time>2025-09-27T14:30:37.000Z</time>
      </trkpt>
      <trkpt lat="42.88862" lon="1.34492">
        <ele>702</ele>
        <time>2025-09-27T14:30:38.000Z</time>
      </trkpt>
      <trkpt lat="42.88862" lon="1.34495">
        <ele>702</ele>
        <time>2025-09-27T14:30:39.000Z</time>
      </trkpt>
      <trkpt lat="42.88862" lon="1.34497">
        <ele>701</ele>
        <time>2025-09-27T14:30:40.000Z</time>
      </trkpt>
      <trkpt lat="42.88861" lon="1.345">
        <ele>701</ele>
        <time>2025-09-27T14:30:41.000Z</time>
      </trkpt>
      <trkpt lat="42.88861" lon="1.34501">
        <ele>702</ele>
        <time>2025-09-27T14:30:42.000Z</time>
      </trkpt>
      <trkpt lat="42.8886" lon="1.34502">
        <ele>701</ele>
        <time>2025-09-27T14:30:43.000Z</time>
      </trkpt>
      <trkpt lat="42.88861" lon="1.34502">
        <ele>701</ele>
        <time>2025-09-27T14:30:44.000Z</time>
      </trkpt>
      <trkpt lat="42.88857" lon="1.34502">
        <ele>701</ele>
        <time>2025-09-27T14:31:29.000Z</time>
      </trkpt>
      <trkpt lat="42.88856" lon="1.34502">
        <ele>703</ele>
        <time>2025-09-27T14:31:30.000Z</time>
      </trkpt>
      <trkpt lat="42.88855" lon="1.34502">
        <ele>704</ele>
        <time>2025-09-27T14:31:31.000Z</time>
      </trkpt>
      <trkpt lat="42.88854" lon="1.34501">
        <ele>705</ele>
        <time>2025-09-27T14:31:32.000Z</time>
      </trkpt>
      <trkpt lat="42.88859" lon="1.34493">
        <ele>702</ele>
        <time>2025-09-27T14:37:54.000Z</time>
      </trkpt>
      <trkpt lat="42.88861" lon="1.34492">
        <ele>701</ele>
        <time>2025-09-27T14:37:55.000Z</time>
      </trkpt>
      <trkpt lat="42.88859" lon="1.3449">
        <ele>701</ele>
        <time>2025-09-27T14:37:56.000Z</time>
      </trkpt>
      <trkpt lat="42.88861" lon="1.34493">
        <ele>696</ele>
        <time>2025-09-27T14:37:57.000Z</time>
      </trkpt>
      <trkpt lat="42.88862" lon="1.34492">
        <ele>696</ele>
        <time>2025-09-27T14:37:58.000Z</time>
      </trkpt>
      <trkpt lat="42.88862" lon="1.34492">
        <ele>696</ele>
        <time>2025-09-27T14:37:59.000Z</time>
      </trkpt>
      <trkpt lat="42.88862" lon="1.34492">
        <ele>696</ele>
        <time>2025-09-27T14:38:00.000Z</time>
      </trkpt>
      <trkpt lat="42.88862" lon="1.34492">
        <ele>696</ele>
        <time>2025-09-27T14:38:01.000Z</time>
      </trkpt>
      <trkpt lat="42.88862" lon="1.34492">
        <ele>696</ele>
        <time>2025-09-27T14:38:02.000Z</time>
      </trkpt>
      <trkpt lat="42.88862" lon="1.34492">
        <ele>696</ele>
        <time>2025-09-27T14:38:03.000Z</time>
      </trkpt>
      <trkpt lat="42.88862" lon="1.34492">
        <ele>696</ele>
        <time>2025-09-27T14:38:04.000Z</time>
      </trkpt>
      <trkpt lat="42.88862" lon="1.34492">
        <ele>696</ele>
        <time>2025-09-27T14:38:05.000Z</time>
      </trkpt>
      <trkpt lat="42.88862" lon="1.34492">
        <ele>696</ele>
        <time>2025-09-27T14:38:06.000Z</time>
      </trkpt>
      <trkpt lat="42.88862" lon="1.34492">
        <ele>696</ele>
        <time>2025-09-27T14:38:07.000Z</time>
      </trkpt>
      <trkpt lat="42.88859" lon="1.34496">
        <ele>703</ele>
        <time>2025-09-27T14:38:08.000Z</time>
      </trkpt>
      <trkpt lat="42.88859" lon="1.34497">
        <ele>703</ele>
        <time>2025-09-27T14:38:09.000Z</time>
      </trkpt>
      <trkpt lat="42.88858" lon="1.34497">
        <ele>705</ele>
        <time>2025-09-27T14:38:10.000Z</time>
      </trkpt>
      <trkpt lat="42.88858" lon="1.34497">
        <ele>705</ele>
        <time>2025-09-27T14:38:11.000Z</time>
      </trkpt>
      <trkpt lat="42.88858" lon="1.34499">
        <ele>707</ele>
        <time>2025-09-27T14:38:12.000Z</time>
      </trkpt>
    </trkseg>
  </trk>
</gpx>